<?xml version='1.0' encoding='UTF-8'?><gpx version="1.1" creator="JPX - https://github.com/jenetics/jpx" xmlns="http://www.topografix.com/GPX/1/1"><trk><trkseg><trkpt lat="37.786942499118894" lon="14.8087647497145"><ele>571.0</ele><time>2026-05-04T09:08:55.001Z</time></trkpt><trkpt lat="37.78685398701219" lon="14.808749428646905"><ele>571.0</ele><time>2026-05-04T09:08:56.001Z</time></trkpt><trkpt lat="37.786752695491536" lon="14.808734055699611"><ele>571.0</ele><time>2026-05-04T09:08:57.001Z</time></trkpt><trkpt lat="37.78663861622656" lon="14.808717883058732"><ele>571.0</ele><time>2026-05-04T09:08:58.001Z</time></trkpt><trkpt lat="37.78651120879908" lon="14.808694127782747"><ele>571.0</ele><time>2026-05-04T09:08:59.001Z</time></trkpt><trkpt lat="37.7863684650889" lon="14.808665813740948"><ele>570.0</ele><time>2026-05-04T09:09:00.001Z</time></trkpt><trkpt lat="37.78621256179926" lon="14.808636010769739"><ele>569.0</ele><time>2026-05-04T09:09:01.001Z</time></trkpt><trkpt lat="37.78587768837014" lon="14.808568873134803"><ele>568.6666666666666</ele><time>2026-05-04T09:09:03.001Z</time></trkpt><trkpt lat="37.785702048018706" lon="14.808541722551118"><ele>568.3333333333334</ele><time>2026-05-04T09:09:04.001Z</time></trkpt><trkpt lat="37.785527980100014" lon="14.808524942644837"><ele>568.0</ele><time>2026-05-04T09:09:05.001Z</time></trkpt><trkpt lat="37.7853492106932" lon="14.808523529087129"><ele>568.6666666666667</ele><time>2026-05-04T09:09:06.001Z</time></trkpt><trkpt lat="37.78517137366975" lon="14.808532525624052"><ele>569.3333333333334</ele><time>2026-05-04T09:09:07.001Z</time></trkpt><trkpt lat="37.784996105587425" lon="14.808544139761052"><ele>570.0</ele><time>2026-05-04T09:09:08.001Z</time></trkpt><trkpt lat="37.784830590497364" lon="14.808556010530086"><ele>570.0</ele><time>2026-05-04T09:09:09.001Z</time></trkpt><trkpt lat="37.78468377606967" lon="14.808585654563679"><ele>570.0</ele><time>2026-05-04T09:09:10.001Z</time></trkpt><trkpt lat="37.784543480563514" lon="14.808627707025634"><ele>570.0</ele><time>2026-05-04T09:09:11.001Z</time></trkpt><trkpt lat="37.784395593585565" lon="14.808671344069483"><ele>570.0</ele><time>2026-05-04T09:09:12.001Z</time></trkpt><trkpt lat="37.784245657630215" lon="14.808698229733638"><ele>569.25</ele><time>2026-05-04T09:09:13.001Z</time></trkpt><trkpt lat="37.784110968740656" lon="14.808767230770748"><ele>568.5</ele><time>2026-05-04T09:09:14.001Z</time></trkpt><trkpt lat="37.78399682574294" lon="14.808856831418476"><ele>567.75</ele><time>2026-05-04T09:09:15.001Z</time></trkpt><trkpt lat="37.783888664186" lon="14.808927036303787"><ele>567.0</ele><time>2026-05-04T09:09:16.001Z</time></trkpt><trkpt lat="37.78379275550134" lon="14.808992527922623"><ele>567.0</ele><time>2026-05-04T09:09:17.001Z</time></trkpt><trkpt lat="37.78371421689394" lon="14.809037927677032"><ele>567.0</ele><time>2026-05-04T09:09:18.001Z</time></trkpt><trkpt lat="37.783613200251544" lon="14.809091736374844"><ele>567.0</ele><time>2026-05-04T09:09:20.001Z</time></trkpt><trkpt lat="37.78374724517723" lon="14.80927990745545"><ele>567.0</ele><time>2026-05-04T09:09:26.001Z</time></trkpt><trkpt lat="37.783871370623125" lon="14.809315887982578"><ele>568.3333333333334</ele><time>2026-05-04T09:09:27.001Z</time></trkpt><trkpt lat="37.784000062297935" lon="14.809372555820339"><ele>569.6666666666667</ele><time>2026-05-04T09:09:28.001Z</time></trkpt><trkpt lat="37.7841466795461" lon="14.809440454189126"><ele>571.0</ele><time>2026-05-04T09:09:29.001Z</time></trkpt><trkpt lat="37.784305235163586" lon="14.809513546519812"><ele>571.3333333333334</ele><time>2026-05-04T09:09:30.001Z</time></trkpt><trkpt lat="37.78447734554841" lon="14.809590678419118"><ele>571.6666666666666</ele><time>2026-05-04T09:09:31.001Z</time></trkpt><trkpt lat="37.78466129103867" lon="14.809670334103155"><ele>572.0</ele><time>2026-05-04T09:09:32.001Z</time></trkpt><trkpt lat="37.784858668265734" lon="14.809755476501246"><ele>572.0</ele><time>2026-05-04T09:09:33.001Z</time></trkpt><trkpt lat="37.7850620510347" lon="14.809841141302705"><ele>572.0</ele><time>2026-05-04T09:09:34.001Z</time></trkpt><trkpt lat="37.78526885806717" lon="14.809929658797635"><ele>572.0</ele><time>2026-05-04T09:09:35.001Z</time></trkpt><trkpt lat="37.78547702092753" lon="14.810019887578846"><ele>571.3333333333333</ele><time>2026-05-04T09:09:36.001Z</time></trkpt><trkpt lat="37.78568541625176" lon="14.81011030911194"><ele>570.6666666666666</ele><time>2026-05-04T09:09:37.001Z</time></trkpt><trkpt lat="37.78589220326728" lon="14.810201655335328"><ele>570.0</ele><time>2026-05-04T09:09:38.001Z</time></trkpt><trkpt lat="37.78609339796115" lon="14.810291210101841"><ele>571.3333333333334</ele><time>2026-05-04T09:09:39.001Z</time></trkpt><trkpt lat="37.78629014680671" lon="14.810378237267765"><ele>572.6666666666667</ele><time>2026-05-04T09:09:40Z</time></trkpt><trkpt lat="37.78648678707121" lon="14.810465552083096"><ele>574.0</ele><time>2026-05-04T09:09:41Z</time></trkpt><trkpt lat="37.786687163704585" lon="14.810550280846149"><ele>575.3333333333334</ele><time>2026-05-04T09:09:42Z</time></trkpt><trkpt lat="37.78689549171208" lon="14.810636934630137"><ele>576.6666666666666</ele><time>2026-05-04T09:09:43Z</time></trkpt><trkpt lat="37.787112272219325" lon="14.810733842826446"><ele>578.0</ele><time>2026-05-04T09:09:44Z</time></trkpt><trkpt lat="37.78733701160346" lon="14.810833486118634"><ele>578.0</ele><time>2026-05-04T09:09:45Z</time></trkpt><trkpt lat="37.78756137960883" lon="14.810935320687326"><ele>578.0</ele><time>2026-05-04T09:09:46Z</time></trkpt><trkpt lat="37.7877922087105" lon="14.811037460133464"><ele>580.5</ele><time>2026-05-04T09:09:47Z</time></trkpt><trkpt lat="37.788020773353374" lon="14.81113992221065"><ele>583.0</ele><time>2026-05-04T09:09:48Z</time></trkpt><trkpt lat="37.788240121093324" lon="14.811235671819809"><ele>583.0</ele><time>2026-05-04T09:09:49Z</time></trkpt><trkpt lat="37.78845344065639" lon="14.811325295955717"><ele>583.0</ele><time>2026-05-04T09:09:50Z</time></trkpt><trkpt lat="37.788653056826796" lon="14.811411995583999"><ele>583.0</ele><time>2026-05-04T09:09:51Z</time></trkpt><trkpt lat="37.78883865175594" lon="14.811494132178193"><ele>585.6666666666667</ele><time>2026-05-04T09:09:52Z</time></trkpt><trkpt lat="37.789026679848675" lon="14.81157432083345"><ele>588.3333333333334</ele><time>2026-05-04T09:09:53Z</time></trkpt><trkpt lat="37.78920051509823" lon="14.811655958537845"><ele>591.0</ele><time>2026-05-04T09:09:54Z</time></trkpt><trkpt lat="37.78935778535411" lon="14.811740621490262"><ele>593.0</ele><time>2026-05-04T09:09:55Z</time></trkpt><trkpt lat="37.78948614858534" lon="14.811843931604903"><ele>595.0</ele><time>2026-05-04T09:09:56Z</time></trkpt><trkpt lat="37.789570240056825" lon="14.81200274117226"><ele>597.0</ele><time>2026-05-04T09:09:57Z</time></trkpt><trkpt lat="37.78964978615461" lon="14.81214912941241"><ele>599.0</ele><time>2026-05-04T09:09:58Z</time></trkpt><trkpt lat="37.789712170971434" lon="14.812303897568123"><ele>599.0</ele><time>2026-05-04T09:09:59Z</time></trkpt><trkpt lat="37.78978467770053" lon="14.812451087046485"><ele>599.0</ele><time>2026-05-04T09:10:00Z</time></trkpt><trkpt lat="37.78984143903108" lon="14.812607627759096"><ele>599.0</ele><time>2026-05-04T09:10:01Z</time></trkpt><trkpt lat="37.78990651515694" lon="14.812768928255306"><ele>599.0</ele><time>2026-05-04T09:10:02Z</time></trkpt><trkpt lat="37.78997442972482" lon="14.812938494579628"><ele>599.6666666666666</ele><time>2026-05-04T09:10:03Z</time></trkpt><trkpt lat="37.79003771246897" lon="14.813111636848806"><ele>600.3333333333334</ele><time>2026-05-04T09:10:04Z</time></trkpt><trkpt lat="37.79010292336471" lon="14.81328420371639"><ele>601.0</ele><time>2026-05-04T09:10:05Z</time></trkpt><trkpt lat="37.7901715085481" lon="14.813455586885427"><ele>602.6666666666667</ele><time>2026-05-04T09:10:06Z</time></trkpt><trkpt lat="37.79022674693296" lon="14.813637816815286"><ele>604.3333333333334</ele><time>2026-05-04T09:10:07Z</time></trkpt><trkpt lat="37.79029418293443" lon="14.81381362144931"><ele>606.0</ele><time>2026-05-04T09:10:08Z</time></trkpt><trkpt lat="37.79036283599333" lon="14.813992598926085"><ele>606.0</ele><time>2026-05-04T09:10:09Z</time></trkpt><trkpt lat="37.79044467646613" lon="14.814161126246725"><ele>606.0</ele><time>2026-05-04T09:10:10Z</time></trkpt><trkpt lat="37.79051237005648" lon="14.814339169463288"><ele>606.0</ele><time>2026-05-04T09:10:11Z</time></trkpt><trkpt lat="37.790583267156535" lon="14.814521748020578"><ele>606.6666666666666</ele><time>2026-05-04T09:10:12Z</time></trkpt><trkpt lat="37.79065252876534" lon="14.814705590997042"><ele>607.3333333333333</ele><time>2026-05-04T09:10:13Z</time></trkpt><trkpt lat="37.7907223482296" lon="14.814891345036854"><ele>608.0</ele><time>2026-05-04T09:10:14Z</time></trkpt><trkpt lat="37.79079235952349" lon="14.8150776735825"><ele>609.0</ele><time>2026-05-04T09:10:15Z</time></trkpt><trkpt lat="37.79086448177951" lon="14.815263873151459"><ele>610.0</ele><time>2026-05-04T09:10:16Z</time></trkpt><trkpt lat="37.790936272463064" lon="14.815436417254075"><ele>611.0</ele><time>2026-05-04T09:10:17Z</time></trkpt><trkpt lat="37.791005254985336" lon="14.815585031438424"><ele>612.0</ele><time>2026-05-04T09:10:18Z</time></trkpt><trkpt lat="37.791082211512915" lon="14.81572162346944"><ele>613.0</ele><time>2026-05-04T09:10:19Z</time></trkpt><trkpt lat="37.79130351881328" lon="14.815945899044078"><ele>614.0</ele><time>2026-05-04T09:10:21Z</time></trkpt><trkpt lat="37.79143903247452" lon="14.816035309935696"><ele>614.4</ele><time>2026-05-04T09:10:22Z</time></trkpt><trkpt lat="37.791546505185956" lon="14.816122307518784"><ele>614.8</ele><time>2026-05-04T09:10:23Z</time></trkpt><trkpt lat="37.79163829655158" lon="14.816197678779137"><ele>615.2</ele><time>2026-05-04T09:10:24Z</time></trkpt><trkpt lat="37.791710060746716" lon="14.81626840598173"><ele>615.6</ele><time>2026-05-04T09:10:25Z</time></trkpt><trkpt lat="37.79175111295809" lon="14.81634920045874"><ele>616.0</ele><time>2026-05-04T09:10:26Z</time></trkpt><trkpt lat="37.791796755473904" lon="14.816422626578019"><ele>616.0</ele><time>2026-05-04T09:10:28Z</time></trkpt><trkpt lat="37.79169386612337" lon="14.816690236157703"><ele>616.0</ele><time>2026-05-04T09:10:29Z</time></trkpt><trkpt lat="37.79162154998364" lon="14.816851131126228"><ele>616.0</ele><time>2026-05-04T09:10:30Z</time></trkpt><trkpt lat="37.79157946287436" lon="14.817047394316825"><ele>616.6666666666667</ele><time>2026-05-04T09:10:31Z</time></trkpt><trkpt lat="37.79153678176679" lon="14.817255038202152"><ele>617.3333333333334</ele><time>2026-05-04T09:10:32Z</time></trkpt><trkpt lat="37.79149218082488" lon="14.817479284919358"><ele>618.0</ele><time>2026-05-04T09:10:33Z</time></trkpt><trkpt lat="37.79145921004949" lon="14.817713253482381"><ele>620.3333333333334</ele><time>2026-05-04T09:10:34Z</time></trkpt><trkpt lat="37.791405547982656" lon="14.817947411235806"><ele>622.6666666666667</ele><time>2026-05-04T09:10:35Z</time></trkpt><trkpt lat="37.791354073051814" lon="14.818183801721252"><ele>625.0</ele><time>2026-05-04T09:10:36Z</time></trkpt><trkpt lat="37.79130221455955" lon="14.818420816275527"><ele>627.6666666666667</ele><time>2026-05-04T09:10:37Z</time></trkpt><trkpt lat="37.79124881241305" lon="14.818664927468337"><ele>630.3333333333334</ele><time>2026-05-04T09:10:38Z</time></trkpt><trkpt lat="37.79117197050865" lon="14.81892056322837"><ele>633.0</ele><time>2026-05-04T09:10:39Z</time></trkpt><trkpt lat="37.79112769334112" lon="14.819194878939767"><ele>633.0</ele><time>2026-05-04T09:10:40Z</time></trkpt><trkpt lat="37.79107025631806" lon="14.819438605587543"><ele>638.0</ele><time>2026-05-04T09:10:41Z</time></trkpt><trkpt lat="37.79102038108408" lon="14.819658700160822"><ele>638.0</ele><time>2026-05-04T09:10:42Z</time></trkpt></trkseg><trkseg><trkpt lat="37.783786644218" lon="14.827271135930308"><ele>763.0</ele><time>2026-05-04T09:19:22.633Z</time></trkpt><trkpt lat="37.78376160253394" lon="14.827158155841952"><ele>763.0</ele><time>2026-05-04T09:19:26Z</time></trkpt><trkpt lat="37.783809027739736" lon="14.827016347643182"><ele>763.0</ele><time>2026-05-04T09:19:28Z</time></trkpt><trkpt lat="37.78386315523812" lon="14.826902580634211"><ele>763.0</ele><time>2026-05-04T09:19:30Z</time></trkpt><trkpt lat="37.783835276466405" lon="14.826801363321717"><ele>763.0</ele><time>2026-05-04T09:19:31Z</time></trkpt><trkpt lat="37.78378930772721" lon="14.826701618474738"><ele>763.0</ele><time>2026-05-04T09:19:32Z</time></trkpt><trkpt lat="37.783745940466744" lon="14.826617034445485"><ele>763.0</ele><time>2026-05-04T09:19:33Z</time></trkpt><trkpt lat="37.78367795303022" lon="14.826497100224383"><ele>763.0</ele><time>2026-05-04T09:19:34Z</time></trkpt><trkpt lat="37.78361254104543" lon="14.826390390529827"><ele>763.0</ele><time>2026-05-04T09:19:35Z</time></trkpt><trkpt lat="37.78355541991085" lon="14.826307112532433"><ele>763.0</ele><time>2026-05-04T09:19:36Z</time></trkpt><trkpt lat="37.783411502547324" lon="14.82614597543317"><ele>762.25</ele><time>2026-05-04T09:19:38Z</time></trkpt><trkpt lat="37.783315052564525" lon="14.826050295110146"><ele>761.5</ele><time>2026-05-04T09:19:39Z</time></trkpt><trkpt lat="37.78320994611234" lon="14.825961800377637"><ele>760.75</ele><time>2026-05-04T09:19:40Z</time></trkpt><trkpt lat="37.78309882471404" lon="14.825864508789904"><ele>760.0</ele><time>2026-05-04T09:19:41Z</time></trkpt><trkpt lat="37.78286178907194" lon="14.825716637929721"><ele>760.0</ele><time>2026-05-04T09:19:43Z</time></trkpt><trkpt lat="37.7827327044938" lon="14.825651905319422"><ele>760.0</ele><time>2026-05-04T09:19:44Z</time></trkpt><trkpt lat="37.78259145273249" lon="14.825583460394675"><ele>760.0</ele><time>2026-05-04T09:19:45Z</time></trkpt><trkpt lat="37.78244661102512" lon="14.825519276797202"><ele>760.0</ele><time>2026-05-04T09:19:46Z</time></trkpt><trkpt lat="37.782302152713314" lon="14.825477894865207"><ele>763.0</ele><time>2026-05-04T09:19:47Z</time></trkpt><trkpt lat="37.78215758993163" lon="14.825477751266027"><ele>766.0</ele><time>2026-05-04T09:19:48Z</time></trkpt><trkpt lat="37.78202611718364" lon="14.825518333763068"><ele>769.0</ele><time>2026-05-04T09:19:49Z</time></trkpt><trkpt lat="37.78188724478962" lon="14.825531664895138"><ele>772.0</ele><time>2026-05-04T09:19:50Z</time></trkpt><trkpt lat="37.78174837318107" lon="14.825523035381966"><ele>772.0</ele><time>2026-05-04T09:19:51Z</time></trkpt><trkpt lat="37.78160924748436" lon="14.82547103573986"><ele>772.0</ele><time>2026-05-04T09:19:52Z</time></trkpt><trkpt lat="37.78146897702964" lon="14.825436777055124"><ele>772.0</ele><time>2026-05-04T09:19:53Z</time></trkpt><trkpt lat="37.781327109048945" lon="14.825366429990781"><ele>772.0</ele><time>2026-05-04T09:19:54Z</time></trkpt><trkpt lat="37.781202819902894" lon="14.825280012234488"><ele>772.0</ele><time>2026-05-04T09:19:55Z</time></trkpt><trkpt lat="37.7810863282562" lon="14.825191991115416"><ele>772.0</ele><time>2026-05-04T09:19:56Z</time></trkpt><trkpt lat="37.7809800134641" lon="14.825077300954574"><ele>772.0</ele><time>2026-05-04T09:19:57Z</time></trkpt><trkpt lat="37.78088781466508" lon="14.824965428497919"><ele>772.0</ele><time>2026-05-04T09:19:58Z</time></trkpt><trkpt lat="37.780804053602786" lon="14.824856389413483"><ele>770.0</ele><time>2026-05-04T09:19:59Z</time></trkpt><trkpt lat="37.78071591929268" lon="14.824752339094395"><ele>768.0</ele><time>2026-05-04T09:20:00Z</time></trkpt><trkpt lat="37.780664008886276" lon="14.824610698622486"><ele>766.0</ele><time>2026-05-04T09:20:01Z</time></trkpt><trkpt lat="37.78058973808582" lon="14.824493652981616"><ele>764.0</ele><time>2026-05-04T09:20:02Z</time></trkpt><trkpt lat="37.780539148179066" lon="14.824372900564146"><ele>762.4000000000001</ele><time>2026-05-04T09:20:03Z</time></trkpt><trkpt lat="37.780490382588894" lon="14.82426836120224"><ele>760.8</ele><time>2026-05-04T09:20:04Z</time></trkpt><trkpt lat="37.78043289562573" lon="14.824174813256889"><ele>759.2</ele><time>2026-05-04T09:20:05Z</time></trkpt><trkpt lat="37.780341829512814" lon="14.824098369164767"><ele>757.5999999999999</ele><time>2026-05-04T09:20:06Z</time></trkpt><trkpt lat="37.78022010021943" lon="14.824049154361612"><ele>756.0</ele><time>2026-05-04T09:20:07Z</time></trkpt><trkpt lat="37.78008838592218" lon="14.824056615369917"><ele>756.0</ele><time>2026-05-04T09:20:08Z</time></trkpt><trkpt lat="37.77993165078273" lon="14.824071275662044"><ele>756.0</ele><time>2026-05-04T09:20:09Z</time></trkpt><trkpt lat="37.77983690062443" lon="14.824263753971021"><ele>756.0</ele><time>2026-05-04T09:20:10Z</time></trkpt><trkpt lat="37.77969261881166" lon="14.824371613160366"><ele>756.3333333333334</ele><time>2026-05-04T09:20:11Z</time></trkpt><trkpt lat="37.77952982901737" lon="14.824454920816347"><ele>756.6666666666667</ele><time>2026-05-04T09:20:12Z</time></trkpt><trkpt lat="37.77934972601733" lon="14.82449749701904"><ele>757.0</ele><time>2026-05-04T09:20:13Z</time></trkpt><trkpt lat="37.77915926633388" lon="14.824531938490729"><ele>757.0</ele><time>2026-05-04T09:20:14Z</time></trkpt><trkpt lat="37.778965254200166" lon="14.824582439556156"><ele>757.0</ele><time>2026-05-04T09:20:15Z</time></trkpt><trkpt lat="37.7787638598367" lon="14.824636987211532"><ele>757.0</ele><time>2026-05-04T09:20:16Z</time></trkpt><trkpt lat="37.77856361067926" lon="14.824690643913176"><ele>754.6666666666667</ele><time>2026-05-04T09:20:17Z</time></trkpt><trkpt lat="37.778363903918205" lon="14.824743478195169"><ele>752.3333333333334</ele><time>2026-05-04T09:20:18Z</time></trkpt><trkpt lat="37.77816046239599" lon="14.824787679490525"><ele>750.0</ele><time>2026-05-04T09:20:19Z</time></trkpt><trkpt lat="37.77797276881463" lon="14.824798995224137"><ele>750.0</ele><time>2026-05-04T09:20:20Z</time></trkpt><trkpt lat="37.77779195515592" lon="14.82480676924389"><ele>750.0</ele><time>2026-05-04T09:20:21Z</time></trkpt><trkpt lat="37.77762030154073" lon="14.824814149428986"><ele>750.0</ele><time>2026-05-04T09:20:22Z</time></trkpt><trkpt lat="37.777456246370804" lon="14.824824215357571"><ele>748.3333333333334</ele><time>2026-05-04T09:20:23Z</time></trkpt><trkpt lat="37.777292418315874" lon="14.82484131736055"><ele>746.6666666666667</ele><time>2026-05-04T09:20:24Z</time></trkpt><trkpt lat="37.77713598185532" lon="14.824904626820603"><ele>745.0</ele><time>2026-05-04T09:20:25Z</time></trkpt><trkpt lat="37.77699562942183" lon="14.824991064505568"><ele>745.0</ele><time>2026-05-04T09:20:26Z</time></trkpt><trkpt lat="37.776887101867395" lon="14.82512272931974"><ele>745.0</ele><time>2026-05-04T09:20:27Z</time></trkpt><trkpt lat="37.776817367019554" lon="14.825303531008412"><ele>745.0</ele><time>2026-05-04T09:20:28Z</time></trkpt><trkpt lat="37.77677392845651" lon="14.825518689163918"><ele>744.6666666666667</ele><time>2026-05-04T09:20:29Z</time></trkpt><trkpt lat="37.7767260926028" lon="14.825741746977634"><ele>744.3333333333334</ele><time>2026-05-04T09:20:30Z</time></trkpt><trkpt lat="37.776665624717246" lon="14.825963721699852"><ele>744.0</ele><time>2026-05-04T09:20:31Z</time></trkpt><trkpt lat="37.77658243196841" lon="14.826175498713814"><ele>744.0</ele><time>2026-05-04T09:20:32Z</time></trkpt><trkpt lat="37.776509906105545" lon="14.826372238143652"><ele>744.0</ele><time>2026-05-04T09:20:33Z</time></trkpt><trkpt lat="37.77642716118983" lon="14.826576857339168"><ele>744.0</ele><time>2026-05-04T09:20:34Z</time></trkpt><trkpt lat="37.77633265796558" lon="14.826732762247923"><ele>744.25</ele><time>2026-05-04T09:20:35Z</time></trkpt><trkpt lat="37.77621340108358" lon="14.826851318242085"><ele>744.5</ele><time>2026-05-04T09:20:36Z</time></trkpt><trkpt lat="37.77607754282309" lon="14.82690814816554"><ele>744.75</ele><time>2026-05-04T09:20:37Z</time></trkpt><trkpt lat="37.775940774662054" lon="14.826883762564101"><ele>745.0</ele><time>2026-05-04T09:20:38Z</time></trkpt><trkpt lat="37.77580010104579" lon="14.826807967616068"><ele>741.3333333333334</ele><time>2026-05-04T09:20:39Z</time></trkpt><trkpt lat="37.77564021825008" lon="14.826720739374771"><ele>737.6666666666666</ele><time>2026-05-04T09:20:40Z</time></trkpt><trkpt lat="37.77548340988745" lon="14.826641464047867"><ele>734.0</ele><time>2026-05-04T09:20:41Z</time></trkpt><trkpt lat="37.775326826470206" lon="14.82656230262253"><ele>734.75</ele><time>2026-05-04T09:20:42Z</time></trkpt><trkpt lat="37.7751854719615" lon="14.826489574152248"><ele>735.5</ele><time>2026-05-04T09:20:43Z</time></trkpt><trkpt lat="37.77506986897957" lon="14.82643151486745"><ele>736.25</ele><time>2026-05-04T09:20:44Z</time></trkpt><trkpt lat="37.7749629934312" lon="14.826381092416712"><ele>737.0</ele><time>2026-05-04T09:20:45Z</time></trkpt><trkpt lat="37.77492570298925" lon="14.82627764376916"><ele>737.0</ele><time>2026-05-04T09:20:46Z</time></trkpt><trkpt lat="37.774902332551925" lon="14.826102257314133"><ele>737.0</ele><time>2026-05-04T09:20:47Z</time></trkpt><trkpt lat="37.774843766633026" lon="14.826000860586566"><ele>737.0</ele><time>2026-05-04T09:20:48Z</time></trkpt><trkpt lat="37.77473513484474" lon="14.825880797323807"><ele>737.0</ele><time>2026-05-04T09:20:49Z</time></trkpt><trkpt lat="37.7745813745077" lon="14.825837730403615"><ele>733.3333333333333</ele><time>2026-05-04T09:20:50Z</time></trkpt><trkpt lat="37.77439363540807" lon="14.825803664698746"><ele>729.6666666666666</ele><time>2026-05-04T09:20:51Z</time></trkpt><trkpt lat="37.77421530813943" lon="14.825775232643547"><ele>726.0</ele><time>2026-05-04T09:20:52Z</time></trkpt><trkpt lat="37.7740486510923" lon="14.825715138316477"><ele>726.0</ele><time>2026-05-04T09:20:53Z</time></trkpt><trkpt lat="37.77386562325055" lon="14.82568391775454"><ele>726.0</ele><time>2026-05-04T09:20:54Z</time></trkpt><trkpt lat="37.77368480112237" lon="14.825634445769102"><ele>726.0</ele><time>2026-05-04T09:20:55Z</time></trkpt><trkpt lat="37.773493095658864" lon="14.825590567617423"><ele>725.0</ele><time>2026-05-04T09:20:56Z</time></trkpt><trkpt lat="37.77329505789495" lon="14.825539830152007"><ele>724.0</ele><time>2026-05-04T09:20:57Z</time></trkpt><trkpt lat="37.7730940911644" lon="14.825486089175708"><ele>723.0</ele><time>2026-05-04T09:20:58Z</time></trkpt><trkpt lat="37.77288891380566" lon="14.825431589161948"><ele>724.0</ele><time>2026-05-04T09:20:59Z</time></trkpt><trkpt lat="37.77268474644087" lon="14.825381742922263"><ele>725.0</ele><time>2026-05-04T09:21:00Z</time></trkpt><trkpt lat="37.772486913424494" lon="14.825337111787242"><ele>726.0</ele><time>2026-05-04T09:21:01Z</time></trkpt><trkpt lat="37.77230732226624" lon="14.825293903510547"><ele>726.0</ele><time>2026-05-04T09:21:02Z</time></trkpt><trkpt lat="37.772147313576326" lon="14.82524116724907"><ele>726.0</ele><time>2026-05-04T09:21:03Z</time></trkpt><trkpt lat="37.77200342667168" lon="14.825153151741342"><ele>726.0</ele><time>2026-05-04T09:21:04Z</time></trkpt><trkpt lat="37.7718812517476" lon="14.825022587060563"><ele>722.6666666666666</ele><time>2026-05-04T09:21:05Z</time></trkpt><trkpt lat="37.77175542108268" lon="14.824891787173243"><ele>719.3333333333333</ele><time>2026-05-04T09:21:06Z</time></trkpt><trkpt lat="37.77161360136841" lon="14.824786861368867"><ele>716.0</ele><time>2026-05-04T09:21:07Z</time></trkpt><trkpt lat="37.77144452798772" lon="14.824725147700546"><ele>716.0</ele><time>2026-05-04T09:21:08Z</time></trkpt><trkpt lat="37.771258367331896" lon="14.824702724459257"><ele>716.0</ele><time>2026-05-04T09:21:09Z</time></trkpt><trkpt lat="37.77107938250326" lon="14.824665975493511"><ele>716.0</ele><time>2026-05-04T09:21:10Z</time></trkpt><trkpt lat="37.770920637015486" lon="14.824545206766304"><ele>716.6666666666666</ele><time>2026-05-04T09:21:11Z</time></trkpt><trkpt lat="37.770794235824305" lon="14.824372528275802"><ele>717.3333333333334</ele><time>2026-05-04T09:21:12Z</time></trkpt><trkpt lat="37.770650237052074" lon="14.82421735027643"><ele>718.0</ele><time>2026-05-04T09:21:13Z</time></trkpt><trkpt lat="37.770519550409716" lon="14.824044253499805"><ele>718.3333333333334</ele><time>2026-05-04T09:21:14Z</time></trkpt><trkpt lat="37.77037813760757" lon="14.823875353961773"><ele>718.6666666666666</ele><time>2026-05-04T09:21:15Z</time></trkpt><trkpt lat="37.77023451915504" lon="14.823701303475259"><ele>719.0</ele><time>2026-05-04T09:21:16Z</time></trkpt><trkpt lat="37.770085521151245" lon="14.823530196829722"><ele>716.6666666666666</ele><time>2026-05-04T09:21:17Z</time></trkpt><trkpt lat="37.769923987754254" lon="14.823371336102724"><ele>714.3333333333334</ele><time>2026-05-04T09:21:18Z</time></trkpt><trkpt lat="37.76974621792976" lon="14.82323311032851"><ele>712.0</ele><time>2026-05-04T09:21:19Z</time></trkpt><trkpt lat="37.76955157212831" lon="14.823124048211852"><ele>712.6666666666667</ele><time>2026-05-04T09:21:20Z</time></trkpt><trkpt lat="37.76934546792105" lon="14.823039474647686"><ele>713.3333333333334</ele><time>2026-05-04T09:21:21Z</time></trkpt><trkpt lat="37.76913564624524" lon="14.822969428645361"><ele>714.0</ele><time>2026-05-04T09:21:22Z</time></trkpt><trkpt lat="37.768930227947045" lon="14.822874678730688"><ele>714.0</ele><time>2026-05-04T09:21:23Z</time></trkpt><trkpt lat="37.76872519560548" lon="14.822798839450362"><ele>714.0</ele><time>2026-05-04T09:21:24Z</time></trkpt><trkpt lat="37.76852733142531" lon="14.82276532046041"><ele>714.0</ele><time>2026-05-04T09:21:25Z</time></trkpt><trkpt lat="37.76833605729214" lon="14.822715624699844"><ele>713.0</ele><time>2026-05-04T09:21:26Z</time></trkpt><trkpt lat="37.768165952014584" lon="14.822663563820868"><ele>712.0</ele><time>2026-05-04T09:21:27Z</time></trkpt><trkpt lat="37.76801192778668" lon="14.822599166503327"><ele>711.0</ele><time>2026-05-04T09:21:28Z</time></trkpt><trkpt lat="37.76788249927066" lon="14.822532311889642"><ele>709.1999999999999</ele><time>2026-05-04T09:21:29Z</time></trkpt><trkpt lat="37.76777496039897" lon="14.822466934002724"><ele>707.4</ele><time>2026-05-04T09:21:30Z</time></trkpt><trkpt lat="37.76767658835688" lon="14.82240635000435"><ele>705.6</ele><time>2026-05-04T09:21:31Z</time></trkpt><trkpt lat="37.767585935759996" lon="14.822332280895264"><ele>703.8</ele><time>2026-05-04T09:21:31.999Z</time></trkpt><trkpt lat="37.76748634582116" lon="14.822292919271735"><ele>702.0</ele><time>2026-05-04T09:21:32.999Z</time></trkpt><trkpt lat="37.76738824393928" lon="14.822300449000869"><ele>701.8</ele><time>2026-05-04T09:21:33.999Z</time></trkpt><trkpt lat="37.76730093193036" lon="14.822288278354085"><ele>701.6</ele><time>2026-05-04T09:21:34.999Z</time></trkpt><trkpt lat="37.767229376064044" lon="14.822244805424313"><ele>701.4</ele><time>2026-05-04T09:21:35.999Z</time></trkpt><trkpt lat="37.76717935268311" lon="14.822165364429827"><ele>701.1999999999999</ele><time>2026-05-04T09:21:36.999Z</time></trkpt><trkpt lat="37.76717084898732" lon="14.822041932121328"><ele>701.0</ele><time>2026-05-04T09:21:37.999Z</time></trkpt><trkpt lat="37.76714071237588" lon="14.821915638271058"><ele>699.0</ele><time>2026-05-04T09:21:38.999Z</time></trkpt><trkpt lat="37.767118785609014" lon="14.821783206631093"><ele>697.0</ele><time>2026-05-04T09:21:39.999Z</time></trkpt><trkpt lat="37.76708949306868" lon="14.821646800742377"><ele>695.0</ele><time>2026-05-04T09:21:40.999Z</time></trkpt><trkpt lat="37.76705782798289" lon="14.821507255976192"><ele>693.0</ele><time>2026-05-04T09:21:41.999Z</time></trkpt><trkpt lat="37.76702762286876" lon="14.821356770626187"><ele>693.0</ele><time>2026-05-04T09:21:42.999Z</time></trkpt><trkpt lat="37.76699212737762" lon="14.821194204030842"><ele>693.0</ele><time>2026-05-04T09:21:43.999Z</time></trkpt><trkpt lat="37.766957133108285" lon="14.821010040510203"><ele>693.0</ele><time>2026-05-04T09:21:44.999Z</time></trkpt><trkpt lat="37.7669191196579" lon="14.820819996558807"><ele>693.0</ele><time>2026-05-04T09:21:45.999Z</time></trkpt><trkpt lat="37.76687871846218" lon="14.82062200704133"><ele>691.3333333333334</ele><time>2026-05-04T09:21:46.999Z</time></trkpt><trkpt lat="37.766834449782195" lon="14.820416171880192"><ele>689.6666666666667</ele><time>2026-05-04T09:21:47.999Z</time></trkpt><trkpt lat="37.76678972536118" lon="14.820200955724022"><ele>688.0</ele><time>2026-05-04T09:21:48.999Z</time></trkpt><trkpt lat="37.76674972236563" lon="14.819985188568543"><ele>687.3333333333334</ele><time>2026-05-04T09:21:49.999Z</time></trkpt><trkpt lat="37.76670689634992" lon="14.819783419490442"><ele>686.6666666666666</ele><time>2026-05-04T09:21:50.999Z</time></trkpt><trkpt lat="37.766632274691986" lon="14.819604074149641"><ele>686.0</ele><time>2026-05-04T09:21:51.999Z</time></trkpt><trkpt lat="37.766515245384966" lon="14.819444550760293"><ele>686.0</ele><time>2026-05-04T09:21:52.999Z</time></trkpt><trkpt lat="37.76635921005179" lon="14.819322918013372"><ele>686.0</ele><time>2026-05-04T09:21:53.999Z</time></trkpt><trkpt lat="37.76621002874479" lon="14.819194494933745"><ele>686.0</ele><time>2026-05-04T09:21:54.999Z</time></trkpt><trkpt lat="37.76607262032795" lon="14.819066822943874"><ele>684.75</ele><time>2026-05-04T09:21:55.999Z</time></trkpt><trkpt lat="37.7659564606333" lon="14.818948989894349"><ele>683.5</ele><time>2026-05-04T09:21:56.999Z</time></trkpt><trkpt lat="37.76587251063955" lon="14.818798587958899"><ele>682.25</ele><time>2026-05-04T09:21:57.999Z</time></trkpt><trkpt lat="37.765865498883564" lon="14.818619744430421"><ele>681.0</ele><time>2026-05-04T09:21:58.999Z</time></trkpt><trkpt lat="37.76589367528881" lon="14.818426931883034"><ele>679.3333333333334</ele><time>2026-05-04T09:21:59.999Z</time></trkpt><trkpt lat="37.765917678061754" lon="14.818229699743357"><ele>677.6666666666667</ele><time>2026-05-04T09:22:00.999Z</time></trkpt><trkpt lat="37.76594471815629" lon="14.818024868540451"><ele>676.0</ele><time>2026-05-04T09:22:01.999Z</time></trkpt><trkpt lat="37.76596491653736" lon="14.817833653230938"><ele>674.0</ele><time>2026-05-04T09:22:02.999Z</time></trkpt><trkpt lat="37.76596076457888" lon="14.817650769357739"><ele>672.0</ele><time>2026-05-04T09:22:03.999Z</time></trkpt><trkpt lat="37.76592235589144" lon="14.817476742906107"><ele>670.0</ele><time>2026-05-04T09:22:04.999Z</time></trkpt><trkpt lat="37.765850685459206" lon="14.817331609168003"><ele>668.0</ele><time>2026-05-04T09:22:06Z</time></trkpt><trkpt lat="37.765760504990354" lon="14.817231316786756"><ele>668.0</ele><time>2026-05-04T09:22:07Z</time></trkpt><trkpt lat="37.765644020896616" lon="14.817214717215636"><ele>668.0</ele><time>2026-05-04T09:22:08Z</time></trkpt><trkpt lat="37.76552894701036" lon="14.817263234542402"><ele>668.0</ele><time>2026-05-04T09:22:09Z</time></trkpt><trkpt lat="37.76541064732547" lon="14.817387703791905"><ele>668.0</ele><time>2026-05-04T09:22:10Z</time></trkpt><trkpt lat="37.7652848441828" lon="14.817463553453813"><ele>666.0</ele><time>2026-05-04T09:22:11Z</time></trkpt><trkpt lat="37.7651481753571" lon="14.817545548797948"><ele>664.0</ele><time>2026-05-04T09:22:12Z</time></trkpt><trkpt lat="37.765000231259314" lon="14.817582679592803"><ele>662.0</ele><time>2026-05-04T09:22:13Z</time></trkpt><trkpt lat="37.764836920455124" lon="14.81756380265073"><ele>662.0</ele><time>2026-05-04T09:22:14Z</time></trkpt><trkpt lat="37.76466672078029" lon="14.817550366122083"><ele>662.0</ele><time>2026-05-04T09:22:15Z</time></trkpt><trkpt lat="37.76449908073864" lon="14.817598084475621"><ele>662.0</ele><time>2026-05-04T09:22:16Z</time></trkpt><trkpt lat="37.764339620394495" lon="14.817690022704735"><ele>662.3333333333333</ele><time>2026-05-04T09:22:17Z</time></trkpt><trkpt lat="37.76419768454124" lon="14.81784832919155"><ele>662.6666666666666</ele><time>2026-05-04T09:22:18Z</time></trkpt><trkpt lat="37.764063418453205" lon="14.818021262188262"><ele>663.0</ele><time>2026-05-04T09:22:19Z</time></trkpt><trkpt lat="37.763926929277105" lon="14.81818804186493"><ele>663.0</ele><time>2026-05-04T09:22:20Z</time></trkpt><trkpt lat="37.763797136280296" lon="14.818360567732565"><ele>663.0</ele><time>2026-05-04T09:22:21Z</time></trkpt><trkpt lat="37.763672301764565" lon="14.818509527167821"><ele>663.0</ele><time>2026-05-04T09:22:22Z</time></trkpt><trkpt lat="37.76353160852723" lon="14.818612526601003"><ele>662.3333333333334</ele><time>2026-05-04T09:22:23Z</time></trkpt><trkpt lat="37.763369113450636" lon="14.818670999341066"><ele>661.6666666666667</ele><time>2026-05-04T09:22:24Z</time></trkpt><trkpt lat="37.763187534571536" lon="14.818726301958446"><ele>661.0</ele><time>2026-05-04T09:22:25Z</time></trkpt><trkpt lat="37.763024811432494" lon="14.818735541283056"><ele>661.0</ele><time>2026-05-04T09:22:26Z</time></trkpt><trkpt lat="37.76288354306338" lon="14.818689757143899"><ele>661.0</ele><time>2026-05-04T09:22:27Z</time></trkpt><trkpt lat="37.76277883899136" lon="14.81855296301274"><ele>661.0</ele><time>2026-05-04T09:22:28Z</time></trkpt><trkpt lat="37.76265258538316" lon="14.818427097336095"><ele>655.3333333333334</ele><time>2026-05-04T09:22:29Z</time></trkpt><trkpt lat="37.762526295626095" lon="14.818305119549102"><ele>649.6666666666666</ele><time>2026-05-04T09:22:30Z</time></trkpt><trkpt lat="37.7623861541885" lon="14.818221866368352"><ele>644.0</ele><time>2026-05-04T09:22:31Z</time></trkpt><trkpt lat="37.76222498200518" lon="14.818239049516672"><ele>644.0</ele><time>2026-05-04T09:22:32Z</time></trkpt><trkpt lat="37.762059116128086" lon="14.818324002469945"><ele>644.0</ele><time>2026-05-04T09:22:33Z</time></trkpt><trkpt lat="37.76189833790167" lon="14.81844691915656"><ele>644.0</ele><time>2026-05-04T09:22:34Z</time></trkpt><trkpt lat="37.761737842644024" lon="14.81850555561625"><ele>646.0</ele><time>2026-05-04T09:22:35Z</time></trkpt><trkpt lat="37.76159950929275" lon="14.818488225653244"><ele>648.0</ele><time>2026-05-04T09:22:36Z</time></trkpt><trkpt lat="37.76146514626833" lon="14.81840341957224"><ele>650.0</ele><time>2026-05-04T09:22:37Z</time></trkpt><trkpt lat="37.76130815541529" lon="14.818303480782427"><ele>646.0</ele><time>2026-05-04T09:22:38Z</time></trkpt><trkpt lat="37.76114812085081" lon="14.818202297590027"><ele>642.0</ele><time>2026-05-04T09:22:39Z</time></trkpt><trkpt lat="37.76098298515217" lon="14.818097529998633"><ele>638.0</ele><time>2026-05-04T09:22:40Z</time></trkpt><trkpt lat="37.760810332419965" lon="14.81798797593294"><ele>637.0</ele><time>2026-05-04T09:22:41Z</time></trkpt><trkpt lat="37.760637914448154" lon="14.81787435281443"><ele>636.0</ele><time>2026-05-04T09:22:42Z</time></trkpt><trkpt lat="37.760458796043764" lon="14.81776349817764"><ele>635.0</ele><time>2026-05-04T09:22:43Z</time></trkpt><trkpt lat="37.760277933958264" lon="14.817653905716568"><ele>631.3333333333333</ele><time>2026-05-04T09:22:44Z</time></trkpt><trkpt lat="37.760088666432175" lon="14.817560589180525"><ele>627.6666666666666</ele><time>2026-05-04T09:22:45Z</time></trkpt><trkpt lat="37.75991944330316" lon="14.817432109934167"><ele>624.0</ele><time>2026-05-04T09:22:46Z</time></trkpt><trkpt lat="37.759752206954026" lon="14.817330420456756"><ele>624.0</ele><time>2026-05-04T09:22:47Z</time></trkpt><trkpt lat="37.759591416483424" lon="14.817228261441091"><ele>624.0</ele><time>2026-05-04T09:22:48Z</time></trkpt><trkpt lat="37.75943884171952" lon="14.817126644844647"><ele>624.0</ele><time>2026-05-04T09:22:49Z</time></trkpt><trkpt lat="37.759293866117794" lon="14.817018583539665"><ele>626.0</ele><time>2026-05-04T09:22:50Z</time></trkpt><trkpt lat="37.759156198914994" lon="14.81690274851671"><ele>628.0</ele><time>2026-05-04T09:22:51Z</time></trkpt><trkpt lat="37.75903169082042" lon="14.81678333981494"><ele>630.0</ele><time>2026-05-04T09:22:52Z</time></trkpt><trkpt lat="37.758896999128" lon="14.816673685058579"><ele>626.0</ele><time>2026-05-04T09:22:53Z</time></trkpt><trkpt lat="37.758773889039226" lon="14.816559594043316"><ele>622.0</ele><time>2026-05-04T09:22:54Z</time></trkpt><trkpt lat="37.75862860367319" lon="14.816507497449297"><ele>618.0</ele><time>2026-05-04T09:22:55Z</time></trkpt><trkpt lat="37.758475476001344" lon="14.816537237160963"><ele>618.0</ele><time>2026-05-04T09:22:56Z</time></trkpt><trkpt lat="37.75834373561632" lon="14.816590956976956"><ele>618.0</ele><time>2026-05-04T09:22:57Z</time></trkpt><trkpt lat="37.75821988248705" lon="14.816561724113278"><ele>618.0</ele><time>2026-05-04T09:22:58Z</time></trkpt><trkpt lat="37.75807313211706" lon="14.816660134568702"><ele>618.0</ele><time>2026-05-04T09:22:59Z</time></trkpt><trkpt lat="37.75792793444911" lon="14.816705091001378"><ele>618.0</ele><time>2026-05-04T09:23:00Z</time></trkpt><trkpt lat="37.75777397635488" lon="14.81671483651862"><ele>618.0</ele><time>2026-05-04T09:23:01Z</time></trkpt><trkpt lat="37.757624015036725" lon="14.816689042179574"><ele>618.0</ele><time>2026-05-04T09:23:02Z</time></trkpt><trkpt lat="37.75744611139818" lon="14.816648991088954"><ele>616.0</ele><time>2026-05-04T09:23:03Z</time></trkpt><trkpt lat="37.757277689127775" lon="14.816611258445612"><ele>614.0</ele><time>2026-05-04T09:23:04Z</time></trkpt><trkpt lat="37.757103458346016" lon="14.816589591617525"><ele>612.0</ele><time>2026-05-04T09:23:05Z</time></trkpt><trkpt lat="37.75693109622541" lon="14.81653330248745"><ele>613.3333333333334</ele><time>2026-05-04T09:23:06Z</time></trkpt><trkpt lat="37.75675337375737" lon="14.816493346187958"><ele>614.6666666666667</ele><time>2026-05-04T09:23:07Z</time></trkpt><trkpt lat="37.75657204375587" lon="14.816452578853271"><ele>616.0</ele><time>2026-05-04T09:23:08Z</time></trkpt><trkpt lat="37.75638835065457" lon="14.816428925932959"><ele>616.0</ele><time>2026-05-04T09:23:09Z</time></trkpt><trkpt lat="37.75620339360581" lon="14.816389608609612"><ele>616.0</ele><time>2026-05-04T09:23:10Z</time></trkpt><trkpt lat="37.75601872505166" lon="14.81632995040471"><ele>616.0</ele><time>2026-05-04T09:23:11Z</time></trkpt><trkpt lat="37.755828769742784" lon="14.81628675882472"><ele>616.3333333333334</ele><time>2026-05-04T09:23:12Z</time></trkpt><trkpt lat="37.75564174053613" lon="14.816243842321265"><ele>616.6666666666666</ele><time>2026-05-04T09:23:13Z</time></trkpt><trkpt lat="37.75545427345434" lon="14.81620082534917"><ele>617.0</ele><time>2026-05-04T09:23:14Z</time></trkpt><trkpt lat="37.75527021152475" lon="14.816158589744662"><ele>618.6666666666666</ele><time>2026-05-04T09:23:15Z</time></trkpt><trkpt lat="37.75509732440396" lon="14.81612245231387"><ele>620.3333333333334</ele><time>2026-05-04T09:23:16Z</time></trkpt><trkpt lat="37.754938978167814" lon="14.816085453447158"><ele>622.0</ele><time>2026-05-04T09:23:17Z</time></trkpt><trkpt lat="37.75478386345857" lon="14.81603184341272"><ele>622.0</ele><time>2026-05-04T09:23:18Z</time></trkpt><trkpt lat="37.7546403183528" lon="14.815934803553565"><ele>622.0</ele><time>2026-05-04T09:23:19Z</time></trkpt><trkpt lat="37.75450309384358" lon="14.815810812178764"><ele>622.0</ele><time>2026-05-04T09:23:20Z</time></trkpt><trkpt lat="37.75436524145388" lon="14.815664378749702"><ele>622.0</ele><time>2026-05-04T09:23:21Z</time></trkpt><trkpt lat="37.754228936479215" lon="14.815520108046215"><ele>622.0</ele><time>2026-05-04T09:23:22Z</time></trkpt><trkpt lat="37.75411464013888" lon="14.815369026673299"><ele>622.0</ele><time>2026-05-04T09:23:23Z</time></trkpt><trkpt lat="37.75400969683293" lon="14.815225721981125"><ele>622.0</ele><time>2026-05-04T09:23:24Z</time></trkpt><trkpt lat="37.753893898218536" lon="14.815127114600951"><ele>622.0</ele><time>2026-05-04T09:23:25Z</time></trkpt><trkpt lat="37.753753636601125" lon="14.815094666850358"><ele>622.0</ele><time>2026-05-04T09:23:26Z</time></trkpt><trkpt lat="37.75361367326757" lon="14.815156581301364"><ele>622.0</ele><time>2026-05-04T09:23:27Z</time></trkpt><trkpt lat="37.753499118217704" lon="14.815290190697763"><ele>624.5</ele><time>2026-05-04T09:23:28Z</time></trkpt><trkpt lat="37.75340609018836" lon="14.81543285995714"><ele>627.0</ele><time>2026-05-04T09:23:29Z</time></trkpt><trkpt lat="37.7533118454126" lon="14.815514734706497"><ele>629.5</ele><time>2026-05-04T09:23:30Z</time></trkpt><trkpt lat="37.753208724347225" lon="14.815458868385987"><ele>632.0</ele><time>2026-05-04T09:23:31Z</time></trkpt><trkpt lat="37.75308131970787" lon="14.815376129044783"><ele>632.0</ele><time>2026-05-04T09:23:32Z</time></trkpt><trkpt lat="37.75293570496807" lon="14.815306295191846"><ele>632.0</ele><time>2026-05-04T09:23:33Z</time></trkpt><trkpt lat="37.75280305618944" lon="14.815216955983642"><ele>632.0</ele><time>2026-05-04T09:23:34Z</time></trkpt><trkpt lat="37.75266679938938" lon="14.81513198598877"><ele>631.25</ele><time>2026-05-04T09:23:35Z</time></trkpt><trkpt lat="37.75253208325182" lon="14.815044309715653"><ele>630.5</ele><time>2026-05-04T09:23:36Z</time></trkpt><trkpt lat="37.752406124479656" lon="14.814967187128333"><ele>629.75</ele><time>2026-05-04T09:23:37Z</time></trkpt><trkpt lat="37.75227555511786" lon="14.814934192405211"><ele>629.0</ele><time>2026-05-04T09:23:38Z</time></trkpt><trkpt lat="37.752141342214564" lon="14.814983626686253"><ele>629.0</ele><time>2026-05-04T09:23:39Z</time></trkpt><trkpt lat="37.75202445217387" lon="14.815106374373853"><ele>629.0</ele><time>2026-05-04T09:23:40Z</time></trkpt><trkpt lat="37.75190261607766" lon="14.815186634868313"><ele>629.0</ele><time>2026-05-04T09:23:41Z</time></trkpt><trkpt lat="37.751769529890346" lon="14.815235081772279"><ele>629.0</ele><time>2026-05-04T09:23:42Z</time></trkpt><trkpt lat="37.7516261765021" lon="14.815241272362982"><ele>631.0</ele><time>2026-05-04T09:23:43Z</time></trkpt><trkpt lat="37.75147567495138" lon="14.815250107173307"><ele>633.0</ele><time>2026-05-04T09:23:44Z</time></trkpt><trkpt lat="37.75132252304034" lon="14.81524813057965"><ele>635.0</ele><time>2026-05-04T09:23:45Z</time></trkpt><trkpt lat="37.75116552942803" lon="14.815232930094762"><ele>635.3333333333333</ele><time>2026-05-04T09:23:46Z</time></trkpt><trkpt lat="37.75099934930881" lon="14.81521565044308"><ele>635.6666666666666</ele><time>2026-05-04T09:23:47Z</time></trkpt><trkpt lat="37.75083208861056" lon="14.81519973517668"><ele>636.0</ele><time>2026-05-04T09:23:48Z</time></trkpt><trkpt lat="37.75066275419273" lon="14.815195795841042"><ele>636.0</ele><time>2026-05-04T09:23:49Z</time></trkpt><trkpt lat="37.750500432415954" lon="14.815255861700223"><ele>636.0</ele><time>2026-05-04T09:23:50Z</time></trkpt><trkpt lat="37.75036294952812" lon="14.81534082299109"><ele>636.0</ele><time>2026-05-04T09:23:51Z</time></trkpt><trkpt lat="37.75025310095896" lon="14.815473685378915"><ele>635.0</ele><time>2026-05-04T09:23:52Z</time></trkpt><trkpt lat="37.750145371160094" lon="14.81559784171986"><ele>634.0</ele><time>2026-05-04T09:23:53Z</time></trkpt><trkpt lat="37.75000954988754" lon="14.815642942145802"><ele>633.0</ele><time>2026-05-04T09:23:54Z</time></trkpt><trkpt lat="37.749856131170816" lon="14.815591785224637"><ele>632.0</ele><time>2026-05-04T09:23:55Z</time></trkpt><trkpt lat="37.74969925133328" lon="14.815612489464822"><ele>632.0</ele><time>2026-05-04T09:23:56Z</time></trkpt><trkpt lat="37.74954583757669" lon="14.815591569975338"><ele>632.0</ele><time>2026-05-04T09:23:57Z</time></trkpt><trkpt lat="37.74940301661664" lon="14.815560293626175"><ele>632.0</ele><time>2026-05-04T09:23:58Z</time></trkpt><trkpt lat="37.74929256057147" lon="14.815459110778345"><ele>632.0</ele><time>2026-05-04T09:23:59Z</time></trkpt><trkpt lat="37.749204792137675" lon="14.815315235259408"><ele>629.5</ele><time>2026-05-04T09:24:00Z</time></trkpt><trkpt lat="37.74911274668716" lon="14.815164258096937"><ele>627.0</ele><time>2026-05-04T09:24:01Z</time></trkpt><trkpt lat="37.74901918015279" lon="14.815025411149023"><ele>624.5</ele><time>2026-05-04T09:24:02Z</time></trkpt><trkpt lat="37.748925295945035" lon="14.8148932113698"><ele>622.0</ele><time>2026-05-04T09:24:03Z</time></trkpt><trkpt lat="37.74882731043297" lon="14.81479564201245"><ele>620.0</ele><time>2026-05-04T09:24:04Z</time></trkpt><trkpt lat="37.74870832544795" lon="14.81476254137303"><ele>618.0</ele><time>2026-05-04T09:24:05Z</time></trkpt><trkpt lat="37.748580361827656" lon="14.814829007888074"><ele>616.0</ele><time>2026-05-04T09:24:06Z</time></trkpt><trkpt lat="37.748460469268196" lon="14.814930864216484"><ele>614.0</ele><time>2026-05-04T09:24:07Z</time></trkpt><trkpt lat="37.74832825615447" lon="14.814911550415621"><ele>613.25</ele><time>2026-05-04T09:24:08Z</time></trkpt><trkpt lat="37.74820924786827" lon="14.814844115661867"><ele>612.5</ele><time>2026-05-04T09:24:09Z</time></trkpt><trkpt lat="37.74808591255126" lon="14.814736614911684"><ele>611.75</ele><time>2026-05-04T09:24:10Z</time></trkpt><trkpt lat="37.7479393791216" lon="14.814638381143034"><ele>611.0</ele><time>2026-05-04T09:24:11Z</time></trkpt><trkpt lat="37.7478134710391" lon="14.814534506593352"><ele>609.0</ele><time>2026-05-04T09:24:12Z</time></trkpt><trkpt lat="37.74767835567212" lon="14.814416132134088"><ele>607.0</ele><time>2026-05-04T09:24:13Z</time></trkpt><trkpt lat="37.74751216835802" lon="14.814365756814567"><ele>605.0</ele><time>2026-05-04T09:24:14Z</time></trkpt><trkpt lat="37.74733897064734" lon="14.814342921135466"><ele>605.0</ele><time>2026-05-04T09:24:15Z</time></trkpt><trkpt lat="37.747156061703244" lon="14.814369023182977"><ele>605.0</ele><time>2026-05-04T09:24:16Z</time></trkpt><trkpt lat="37.74697040538355" lon="14.81442293846869"><ele>605.0</ele><time>2026-05-04T09:24:17Z</time></trkpt><trkpt lat="37.74678271207861" lon="14.81450369805176"><ele>602.3333333333333</ele><time>2026-05-04T09:24:18Z</time></trkpt><trkpt lat="37.74658532471628" lon="14.814574988132"><ele>599.6666666666666</ele><time>2026-05-04T09:24:19Z</time></trkpt><trkpt lat="37.74639924269865" lon="14.814650988789706"><ele>597.0</ele><time>2026-05-04T09:24:20Z</time></trkpt><trkpt lat="37.746228973722346" lon="14.814720530876105"><ele>597.0</ele><time>2026-05-04T09:24:21Z</time></trkpt><trkpt lat="37.74607265266422" lon="14.814783245252304"><ele>597.0</ele><time>2026-05-04T09:24:22Z</time></trkpt><trkpt lat="37.74591648298133" lon="14.814825308413672"><ele>597.0</ele><time>2026-05-04T09:24:23Z</time></trkpt><trkpt lat="37.745772193479525" lon="14.81477681928755"><ele>596.6666666666666</ele><time>2026-05-04T09:24:24Z</time></trkpt><trkpt lat="37.745636173931686" lon="14.8146830823688"><ele>596.3333333333333</ele><time>2026-05-04T09:24:25Z</time></trkpt><trkpt lat="37.74550755973647" lon="14.814547869738847"><ele>596.0</ele><time>2026-05-04T09:24:26Z</time></trkpt><trkpt lat="37.74537818963518" lon="14.814395897471474"><ele>595.3333333333333</ele><time>2026-05-04T09:24:27Z</time></trkpt><trkpt lat="37.745240450540344" lon="14.814257579814026"><ele>594.6666666666666</ele><time>2026-05-04T09:24:28Z</time></trkpt><trkpt lat="37.74510959529426" lon="14.814107167954663"><ele>594.0</ele><time>2026-05-04T09:24:29Z</time></trkpt><trkpt lat="37.74498035920645" lon="14.813950579733197"><ele>592.3333333333334</ele><time>2026-05-04T09:24:30Z</time></trkpt><trkpt lat="37.74485965110097" lon="14.813789849375027"><ele>590.6666666666667</ele><time>2026-05-04T09:24:31Z</time></trkpt><trkpt lat="37.74472043313709" lon="14.81366149962848"><ele>589.0</ele><time>2026-05-04T09:24:32Z</time></trkpt><trkpt lat="37.74458456267698" lon="14.813532587580672"><ele>587.0</ele><time>2026-05-04T09:24:33Z</time></trkpt><trkpt lat="37.74443225071474" lon="14.81345409598855"><ele>585.0</ele><time>2026-05-04T09:24:34Z</time></trkpt><trkpt lat="37.74426561511473" lon="14.813425079194257"><ele>583.0</ele><time>2026-05-04T09:24:35Z</time></trkpt><trkpt lat="37.74410230203855" lon="14.813420210526026"><ele>584.0</ele><time>2026-05-04T09:24:36Z</time></trkpt><trkpt lat="37.74393956103327" lon="14.813453800206112"><ele>585.0</ele><time>2026-05-04T09:24:37Z</time></trkpt><trkpt lat="37.74377748903009" lon="14.813505733388089"><ele>586.0</ele><time>2026-05-04T09:24:38Z</time></trkpt><trkpt lat="37.74361608386479" lon="14.81353796405773"><ele>586.6666666666667</ele><time>2026-05-04T09:24:39Z</time></trkpt><trkpt lat="37.743455227343915" lon="14.813583880921486"><ele>587.3333333333334</ele><time>2026-05-04T09:24:40Z</time></trkpt><trkpt lat="37.74329511448263" lon="14.813629585548888"><ele>588.0</ele><time>2026-05-04T09:24:41Z</time></trkpt><trkpt lat="37.74313702594289" lon="14.81367422592037"><ele>588.0</ele><time>2026-05-04T09:24:42Z</time></trkpt><trkpt lat="37.74297640654965" lon="14.81371929498838"><ele>588.0</ele><time>2026-05-04T09:24:43Z</time></trkpt><trkpt lat="37.74282028736182" lon="14.813763452192338"><ele>588.0</ele><time>2026-05-04T09:24:44Z</time></trkpt><trkpt lat="37.74266435808619" lon="14.813807555711364"><ele>586.3333333333334</ele><time>2026-05-04T09:24:45Z</time></trkpt><trkpt lat="37.742506534784866" lon="14.813852194941157"><ele>584.6666666666667</ele><time>2026-05-04T09:24:46Z</time></trkpt><trkpt lat="37.74235399120921" lon="14.813898389425438"><ele>583.0</ele><time>2026-05-04T09:24:47Z</time></trkpt><trkpt lat="37.7422111071874" lon="14.81398541247965"><ele>583.0</ele><time>2026-05-04T09:24:48Z</time></trkpt><trkpt lat="37.742071157496035" lon="14.814092815263885"><ele>583.0</ele><time>2026-05-04T09:24:49Z</time></trkpt><trkpt lat="37.7419405221746" lon="14.814236990593605"><ele>583.0</ele><time>2026-05-04T09:24:50Z</time></trkpt><trkpt lat="37.74178650606091" lon="14.814362479808992"><ele>583.3333333333334</ele><time>2026-05-04T09:24:51Z</time></trkpt><trkpt lat="37.74165268253429" lon="14.814485685216178"><ele>583.6666666666666</ele><time>2026-05-04T09:24:52Z</time></trkpt><trkpt lat="37.741530902359635" lon="14.814612849237907"><ele>584.0</ele><time>2026-05-04T09:24:53Z</time></trkpt><trkpt lat="37.74137247236322" lon="14.81462134179831"><ele>584.0</ele><time>2026-05-04T09:24:54Z</time></trkpt><trkpt lat="37.74121727131611" lon="14.814582477901684"><ele>584.0</ele><time>2026-05-04T09:24:55Z</time></trkpt><trkpt lat="37.74104589331579" lon="14.81453541620567"><ele>584.0</ele><time>2026-05-04T09:24:56Z</time></trkpt><trkpt lat="37.74087025200263" lon="14.814503422645823"><ele>582.3333333333333</ele><time>2026-05-04T09:24:57Z</time></trkpt><trkpt lat="37.740697734992864" lon="14.814440507771671"><ele>580.6666666666666</ele><time>2026-05-04T09:24:58Z</time></trkpt><trkpt lat="37.74051309050209" lon="14.81441172738745"><ele>579.0</ele><time>2026-05-04T09:24:59Z</time></trkpt><trkpt lat="37.74033048480461" lon="14.814354307846951"><ele>578.3333333333334</ele><time>2026-05-04T09:25:00Z</time></trkpt><trkpt lat="37.74014505024624" lon="14.814311502611249"><ele>577.6666666666667</ele><time>2026-05-04T09:25:01Z</time></trkpt><trkpt lat="37.73995824231275" lon="14.814261010001813"><ele>577.0</ele><time>2026-05-04T09:25:02Z</time></trkpt><trkpt lat="37.739772546647934" lon="14.814192060079586"><ele>577.0</ele><time>2026-05-04T09:25:03Z</time></trkpt><trkpt lat="37.73958448223336" lon="14.814141288205953"><ele>577.0</ele><time>2026-05-04T09:25:04Z</time></trkpt><trkpt lat="37.73940075737549" lon="14.814091687871063"><ele>577.0</ele><time>2026-05-04T09:25:05Z</time></trkpt><trkpt lat="37.73923264831947" lon="14.814054620258414"><ele>576.3333333333334</ele><time>2026-05-04T09:25:06Z</time></trkpt><trkpt lat="37.73906719022965" lon="14.814021859686534"><ele>575.6666666666666</ele><time>2026-05-04T09:25:07Z</time></trkpt><trkpt lat="37.73890459558279" lon="14.813957339314472"><ele>575.0</ele><time>2026-05-04T09:25:08Z</time></trkpt><trkpt lat="37.73873379013464" lon="14.813911198907348"><ele>575.0</ele><time>2026-05-04T09:25:09Z</time></trkpt><trkpt lat="37.738556616179366" lon="14.813903310443699"><ele>575.0</ele><time>2026-05-04T09:25:10Z</time></trkpt><trkpt lat="37.7383798518261" lon="14.813920179152644"><ele>575.0</ele><time>2026-05-04T09:25:11Z</time></trkpt><trkpt lat="37.73820202263307" lon="14.813978637836694"><ele>574.0</ele><time>2026-05-04T09:25:12Z</time></trkpt><trkpt lat="37.73801956465873" lon="14.814028888082106"><ele>573.0</ele><time>2026-05-04T09:25:13Z</time></trkpt><trkpt lat="37.73783719140781" lon="14.814078893472312"><ele>572.0</ele><time>2026-05-04T09:25:14Z</time></trkpt><trkpt lat="37.737657257543425" lon="14.814128272101307"><ele>570.3333333333333</ele><time>2026-05-04T09:25:15Z</time></trkpt><trkpt lat="37.73747460939338" lon="14.814178395568211"><ele>568.6666666666666</ele><time>2026-05-04T09:25:16Z</time></trkpt><trkpt lat="37.73729452655794" lon="14.814227816352272"><ele>567.0</ele><time>2026-05-04T09:25:17Z</time></trkpt><trkpt lat="37.737120821932606" lon="14.81427557402028"><ele>566.0</ele><time>2026-05-04T09:25:18Z</time></trkpt><trkpt lat="37.73695137598001" lon="14.814322048042031"><ele>565.0</ele><time>2026-05-04T09:25:19Z</time></trkpt><trkpt lat="37.736788378540574" lon="14.814364476477243"><ele>564.0</ele><time>2026-05-04T09:25:20Z</time></trkpt><trkpt lat="37.73662611446426" lon="14.814407631700504"><ele>564.0</ele><time>2026-05-04T09:25:21Z</time></trkpt><trkpt lat="37.736465426756986" lon="14.814449427152857"><ele>564.0</ele><time>2026-05-04T09:25:22Z</time></trkpt><trkpt lat="37.73631556732366" lon="14.814484478240205"><ele>564.0</ele><time>2026-05-04T09:25:23Z</time></trkpt><trkpt lat="37.736164492995805" lon="14.814511585717264"><ele>562.3333333333334</ele><time>2026-05-04T09:25:24Z</time></trkpt><trkpt lat="37.73602248967377" lon="14.814426711189572"><ele>560.6666666666667</ele><time>2026-05-04T09:25:25Z</time></trkpt><trkpt lat="37.735887039225204" lon="14.814329302145477"><ele>559.0</ele><time>2026-05-04T09:25:26Z</time></trkpt><trkpt lat="37.735745514539225" lon="14.81421814994506"><ele>558.3333333333334</ele><time>2026-05-04T09:25:27Z</time></trkpt><trkpt lat="37.735614048544356" lon="14.81409052575731"><ele>557.6666666666666</ele><time>2026-05-04T09:25:28Z</time></trkpt><trkpt lat="37.73547909173056" lon="14.813979177227708"><ele>557.0</ele><time>2026-05-04T09:25:29Z</time></trkpt><trkpt lat="37.73533623288174" lon="14.813911443512074"><ele>557.3333333333333</ele><time>2026-05-04T09:25:30Z</time></trkpt><trkpt lat="37.73517971561114" lon="14.81389881606465"><ele>557.6666666666666</ele><time>2026-05-04T09:25:31Z</time></trkpt><trkpt lat="37.73500511534925" lon="14.81392188452924"><ele>558.0</ele><time>2026-05-04T09:25:32Z</time></trkpt><trkpt lat="37.73483164276572" lon="14.813971013522501"><ele>558.0</ele><time>2026-05-04T09:25:33Z</time></trkpt><trkpt lat="37.73467698464368" lon="14.814051844496644"><ele>558.0</ele><time>2026-05-04T09:25:34Z</time></trkpt><trkpt lat="37.73451817090811" lon="14.814070043954588"><ele>558.0</ele><time>2026-05-04T09:25:35Z</time></trkpt><trkpt lat="37.73436250855408" lon="14.814045000155994"><ele>556.3333333333334</ele><time>2026-05-04T09:25:36Z</time></trkpt><trkpt lat="37.73422204807841" lon="14.81394548157995"><ele>554.6666666666667</ele><time>2026-05-04T09:25:37Z</time></trkpt><trkpt lat="37.73411622135592" lon="14.813790729813084"><ele>553.0</ele><time>2026-05-04T09:25:38Z</time></trkpt><trkpt lat="37.73401294938074" lon="14.813647677797704"><ele>553.0</ele><time>2026-05-04T09:25:39Z</time></trkpt><trkpt lat="37.73390140025088" lon="14.81349205781232"><ele>553.0</ele><time>2026-05-04T09:25:40Z</time></trkpt><trkpt lat="37.73377259197389" lon="14.813345458041962"><ele>553.0</ele><time>2026-05-04T09:25:41Z</time></trkpt><trkpt lat="37.73361889859952" lon="14.813219137416421"><ele>550.3333333333334</ele><time>2026-05-04T09:25:42Z</time></trkpt><trkpt lat="37.73346090151443" lon="14.813083462161876"><ele>547.6666666666666</ele><time>2026-05-04T09:25:43Z</time></trkpt><trkpt lat="37.73329551221525" lon="14.812951674593887"><ele>545.0</ele><time>2026-05-04T09:25:43.999Z</time></trkpt><trkpt lat="37.73312625774401" lon="14.812816693279304"><ele>545.0</ele><time>2026-05-04T09:25:44.999Z</time></trkpt><trkpt lat="37.73295507096951" lon="14.812683070254968"><ele>545.0</ele><time>2026-05-04T09:25:45.999Z</time></trkpt><trkpt lat="37.73277555943133" lon="14.812566339875687"><ele>545.0</ele><time>2026-05-04T09:25:46.999Z</time></trkpt><trkpt lat="37.73260906446452" lon="14.81243954136628"><ele>544.0</ele><time>2026-05-04T09:25:47.999Z</time></trkpt><trkpt lat="37.7324602149546" lon="14.812297587277307"><ele>543.0</ele><time>2026-05-04T09:25:48.999Z</time></trkpt><trkpt lat="37.732308688162185" lon="14.812180415984068"><ele>542.0</ele><time>2026-05-04T09:25:49.999Z</time></trkpt><trkpt lat="37.73213757722037" lon="14.812099844262947"><ele>542.0</ele><time>2026-05-04T09:25:50.999Z</time></trkpt><trkpt lat="37.73195580283203" lon="14.812056654899958"><ele>542.0</ele><time>2026-05-04T09:25:51.999Z</time></trkpt><trkpt lat="37.731772638928824" lon="14.812020913901291"><ele>542.0</ele><time>2026-05-04T09:25:52.999Z</time></trkpt><trkpt lat="37.73158317699009" lon="14.81198619707656"><ele>540.6666666666666</ele><time>2026-05-04T09:25:53.999Z</time></trkpt><trkpt lat="37.731398181142296" lon="14.811953537306383"><ele>539.3333333333334</ele><time>2026-05-04T09:25:54.999Z</time></trkpt><trkpt lat="37.73121230067029" lon="14.811920963798247"><ele>538.0</ele><time>2026-05-04T09:25:55.999Z</time></trkpt><trkpt lat="37.731034365818175" lon="14.811896814608172"><ele>538.0</ele><time>2026-05-04T09:25:56.999Z</time></trkpt><trkpt lat="37.73085994789935" lon="14.811910602007574"><ele>538.0</ele><time>2026-05-04T09:25:57.999Z</time></trkpt><trkpt lat="37.73068684830627" lon="14.811967645946815"><ele>538.0</ele><time>2026-05-04T09:25:58.999Z</time></trkpt><trkpt lat="37.73051879817781" lon="14.812032082468319"><ele>538.0</ele><time>2026-05-04T09:25:59.999Z</time></trkpt><trkpt lat="37.73034835222841" lon="14.812096436973984"><ele>538.0</ele><time>2026-05-04T09:26:00.999Z</time></trkpt><trkpt lat="37.73017660161684" lon="14.812157316603724"><ele>538.0</ele><time>2026-05-04T09:26:01.999Z</time></trkpt><trkpt lat="37.72999815189631" lon="14.812202257435239"><ele>536.6666666666667</ele><time>2026-05-04T09:26:02.999Z</time></trkpt><trkpt lat="37.72980988861597" lon="14.81223107933692"><ele>535.3333333333334</ele><time>2026-05-04T09:26:03.999Z</time></trkpt><trkpt lat="37.72961521976079" lon="14.81225726531584"><ele>534.0</ele><time>2026-05-04T09:26:04.999Z</time></trkpt><trkpt lat="37.729416197121445" lon="14.812284025292842"><ele>532.6666666666666</ele><time>2026-05-04T09:26:05.999Z</time></trkpt><trkpt lat="37.7292203116309" lon="14.812310354673215"><ele>531.3333333333333</ele><time>2026-05-04T09:26:06.999Z</time></trkpt><trkpt lat="37.72901943921564" lon="14.812337478998222"><ele>530.0</ele><time>2026-05-04T09:26:07.999Z</time></trkpt><trkpt lat="37.728810587011864" lon="14.812366642231733"><ele>530.0</ele><time>2026-05-04T09:26:08.999Z</time></trkpt><trkpt lat="37.728604921322805" lon="14.812396481983368"><ele>530.0</ele><time>2026-05-04T09:26:09.999Z</time></trkpt><trkpt lat="37.72839741649857" lon="14.812427936551453"><ele>530.0</ele><time>2026-05-04T09:26:10.999Z</time></trkpt><trkpt lat="37.72818791776791" lon="14.812460078829764"><ele>529.3333333333333</ele><time>2026-05-04T09:26:11.999Z</time></trkpt><trkpt lat="37.72799035387136" lon="14.812489814473949"><ele>528.6666666666666</ele><time>2026-05-04T09:26:12.999Z</time></trkpt><trkpt lat="37.727809590387366" lon="14.81251954873959"><ele>528.0</ele><time>2026-05-04T09:26:13.999Z</time></trkpt><trkpt lat="37.72764283663599" lon="14.812511941027735"><ele>527.3333333333334</ele><time>2026-05-04T09:26:14.999Z</time></trkpt><trkpt lat="37.72749750404428" lon="14.812429181153004"><ele>526.6666666666667</ele><time>2026-05-04T09:26:15.999Z</time></trkpt><trkpt lat="37.727349172422485" lon="14.81236042156185"><ele>526.0</ele><time>2026-05-04T09:26:16.999Z</time></trkpt><trkpt lat="37.72721172155773" lon="14.812274930895004"><ele>526.0</ele><time>2026-05-04T09:26:17.999Z</time></trkpt><trkpt lat="37.727063533481484" lon="14.812257242285357"><ele>526.0</ele><time>2026-05-04T09:26:18.999Z</time></trkpt><trkpt lat="37.72692585552565" lon="14.81221530716474"><ele>526.0</ele><time>2026-05-04T09:26:19.999Z</time></trkpt><trkpt lat="37.72678841412769" lon="14.81218475261788"><ele>526.0</ele><time>2026-05-04T09:26:20.999Z</time></trkpt><trkpt lat="37.72664905654508" lon="14.812150206961752"><ele>524.25</ele><time>2026-05-04T09:26:21.999Z</time></trkpt><trkpt lat="37.72650760819204" lon="14.812113209483586"><ele>522.5</ele><time>2026-05-04T09:26:22.999Z</time></trkpt><trkpt lat="37.72636594912083" lon="14.81207290710295"><ele>520.75</ele><time>2026-05-04T09:26:23.999Z</time></trkpt><trkpt lat="37.72623647975089" lon="14.812009207912062"><ele>519.0</ele><time>2026-05-04T09:26:24.999Z</time></trkpt><trkpt lat="37.72612157959598" lon="14.811897964882979"><ele>515.3333333333334</ele><time>2026-05-04T09:26:25.999Z</time></trkpt><trkpt lat="37.72599625820612" lon="14.81177295649203"><ele>511.6666666666667</ele><time>2026-05-04T09:26:26.999Z</time></trkpt><trkpt lat="37.72585387165559" lon="14.811650914650718"><ele>508.0</ele><time>2026-05-04T09:26:27.999Z</time></trkpt><trkpt lat="37.72569764939707" lon="14.811566386461054"><ele>508.0</ele><time>2026-05-04T09:26:28.999Z</time></trkpt><trkpt lat="37.72555983777463" lon="14.811470927855606"><ele>508.0</ele><time>2026-05-04T09:26:29.999Z</time></trkpt><trkpt lat="37.72543653332559" lon="14.811375373180015"><ele>508.0</ele><time>2026-05-04T09:26:30.999Z</time></trkpt><trkpt lat="37.725324511060805" lon="14.811311171807079"><ele>508.0</ele><time>2026-05-04T09:26:31.999Z</time></trkpt><trkpt lat="37.72519933260547" lon="14.811329052263376"><ele>506.75</ele><time>2026-05-04T09:26:32.999Z</time></trkpt><trkpt lat="37.72511361291688" lon="14.811465295700067"><ele>505.5</ele><time>2026-05-04T09:26:33.999Z</time></trkpt><trkpt lat="37.72505299731626" lon="14.81163130547828"><ele>504.25</ele><time>2026-05-04T09:26:34.999Z</time></trkpt><trkpt lat="37.72497823866842" lon="14.811788503105364"><ele>503.0</ele><time>2026-05-04T09:26:35.999Z</time></trkpt><trkpt lat="37.72491820281147" lon="14.811947318950432"><ele>503.0</ele><time>2026-05-04T09:26:36.999Z</time></trkpt><trkpt lat="37.7248530610653" lon="14.812116393911364"><ele>503.0</ele><time>2026-05-04T09:26:37.999Z</time></trkpt><trkpt lat="37.72479023476442" lon="14.812270692435767"><ele>503.0</ele><time>2026-05-04T09:26:38.999Z</time></trkpt><trkpt lat="37.72470545081908" lon="14.812387063925087"><ele>503.0</ele><time>2026-05-04T09:26:39.999Z</time></trkpt><trkpt lat="37.72458855024715" lon="14.812449202687043"><ele>503.0</ele><time>2026-05-04T09:26:40.999Z</time></trkpt><trkpt lat="37.72446237785751" lon="14.812447151778377"><ele>503.0</ele><time>2026-05-04T09:26:41.999Z</time></trkpt><trkpt lat="37.72432108140207" lon="14.812465112363343"><ele>503.0</ele><time>2026-05-04T09:26:42.999Z</time></trkpt><trkpt lat="37.72418321408863" lon="14.812504050095187"><ele>503.0</ele><time>2026-05-04T09:26:43.999Z</time></trkpt><trkpt lat="37.72405436887826" lon="14.81261340309919"><ele>503.5</ele><time>2026-05-04T09:26:44.999Z</time></trkpt><trkpt lat="37.72396439808528" lon="14.812772204994934"><ele>504.0</ele><time>2026-05-04T09:26:45.999Z</time></trkpt><trkpt lat="37.72384434864641" lon="14.812842739972272"><ele>504.5</ele><time>2026-05-04T09:26:46.999Z</time></trkpt><trkpt lat="37.72373090959655" lon="14.812840606848074"><ele>505.0</ele><time>2026-05-04T09:26:47.999Z</time></trkpt><trkpt lat="37.723628712409656" lon="14.812769559884266"><ele>505.33333333333337</ele><time>2026-05-04T09:26:48.999Z</time></trkpt><trkpt lat="37.72349809688762" lon="14.812677725041908"><ele>505.66666666666663</ele><time>2026-05-04T09:26:49.999Z</time></trkpt><trkpt lat="37.72338176920497" lon="14.81254640160613"><ele>506.0</ele><time>2026-05-04T09:26:50.999Z</time></trkpt><trkpt lat="37.72338270237458" lon="14.812358625634698"><ele>501.3333333333333</ele><time>2026-05-04T09:26:51.999Z</time></trkpt><trkpt lat="37.72334754277382" lon="14.812154521665924"><ele>496.66666666666663</ele><time>2026-05-04T09:26:52.999Z</time></trkpt><trkpt lat="37.723309564356235" lon="14.811946309787784"><ele>492.0</ele><time>2026-05-04T09:26:53.999Z</time></trkpt><trkpt lat="37.723251798341245" lon="14.811741476398101"><ele>490.0</ele><time>2026-05-04T09:26:54.999Z</time></trkpt><trkpt lat="37.72316229092404" lon="14.811561135157671"><ele>488.0</ele><time>2026-05-04T09:26:55.999Z</time></trkpt><trkpt lat="37.72303852852069" lon="14.811387699395812"><ele>486.0</ele><time>2026-05-04T09:26:56.999Z</time></trkpt><trkpt lat="37.722880344273705" lon="14.811244161914113"><ele>486.0</ele><time>2026-05-04T09:26:57.999Z</time></trkpt><trkpt lat="37.7227339943976" lon="14.811081645883378"><ele>486.0</ele><time>2026-05-04T09:26:58.999Z</time></trkpt><trkpt lat="37.72258909280881" lon="14.810914682441913"><ele>486.0</ele><time>2026-05-04T09:26:59.999Z</time></trkpt><trkpt lat="37.722444689253216" lon="14.81074449178301"><ele>484.0</ele><time>2026-05-04T09:27:00.999Z</time></trkpt><trkpt lat="37.72230615229919" lon="14.81057669185665"><ele>482.0</ele><time>2026-05-04T09:27:01.999Z</time></trkpt><trkpt lat="37.72218544638207" lon="14.810432822529211"><ele>480.0</ele><time>2026-05-04T09:27:02.999Z</time></trkpt><trkpt lat="37.72206310485281" lon="14.810335616910157"><ele>480.0</ele><time>2026-05-04T09:27:03.999Z</time></trkpt><trkpt lat="37.72191211297156" lon="14.810330301754616"><ele>480.0</ele><time>2026-05-04T09:27:04.999Z</time></trkpt><trkpt lat="37.721753841836716" lon="14.810340545856025"><ele>480.0</ele><time>2026-05-04T09:27:05.999Z</time></trkpt><trkpt lat="37.72160067169187" lon="14.810384498535658"><ele>480.75</ele><time>2026-05-04T09:27:06.999Z</time></trkpt><trkpt lat="37.72148550625963" lon="14.810344415620111"><ele>481.5</ele><time>2026-05-04T09:27:07.999Z</time></trkpt><trkpt lat="37.721382592492304" lon="14.810241508854732"><ele>482.25</ele><time>2026-05-04T09:27:08.999Z</time></trkpt><trkpt lat="37.72126334172431" lon="14.81012766090448"><ele>483.0</ele><time>2026-05-04T09:27:09.999Z</time></trkpt><trkpt lat="37.721155620897775" lon="14.81003880558129"><ele>481.75</ele><time>2026-05-04T09:27:10.999Z</time></trkpt><trkpt lat="37.721069496784544" lon="14.809936097167451"><ele>480.5</ele><time>2026-05-04T09:27:11.999Z</time></trkpt><trkpt lat="37.7209674227259" lon="14.80979188259454"><ele>479.25</ele><time>2026-05-04T09:27:12.999Z</time></trkpt><trkpt lat="37.720876490934295" lon="14.809627606809705"><ele>478.0</ele><time>2026-05-04T09:27:13.999Z</time></trkpt><trkpt lat="37.7207732500283" lon="14.809441779661737"><ele>474.33333333333337</ele><time>2026-05-04T09:27:14.999Z</time></trkpt><trkpt lat="37.720648327910936" lon="14.809262431720487"><ele>470.66666666666663</ele><time>2026-05-04T09:27:15.999Z</time></trkpt><trkpt lat="37.72051064813644" lon="14.809058398191093"><ele>467.0</ele><time>2026-05-04T09:27:16.999Z</time></trkpt><trkpt lat="37.72036168745064" lon="14.808876996051756"><ele>467.0</ele><time>2026-05-04T09:27:17.999Z</time></trkpt><trkpt lat="37.72021580579274" lon="14.808688201018793"><ele>467.0</ele><time>2026-05-04T09:27:18.999Z</time></trkpt><trkpt lat="37.720089233738356" lon="14.808494574619736"><ele>467.0</ele><time>2026-05-04T09:27:19.999Z</time></trkpt><trkpt lat="37.719987576630146" lon="14.808299827590556"><ele>467.0</ele><time>2026-05-04T09:27:20.999Z</time></trkpt><trkpt lat="37.719910031972674" lon="14.808104636119674"><ele>467.0</ele><time>2026-05-04T09:27:21.999Z</time></trkpt><trkpt lat="37.71985245290554" lon="14.807903886004578"><ele>467.0</ele><time>2026-05-04T09:27:22.999Z</time></trkpt><trkpt lat="37.71982621424525" lon="14.80768958388714"><ele>465.0</ele><time>2026-05-04T09:27:23.999Z</time></trkpt><trkpt lat="37.719795778350004" lon="14.807469493628304"><ele>463.0</ele><time>2026-05-04T09:27:24.999Z</time></trkpt><trkpt lat="37.71973679933532" lon="14.807256547778623"><ele>461.0</ele><time>2026-05-04T09:27:25.999Z</time></trkpt><trkpt lat="37.71964788203935" lon="14.807064646621239"><ele>461.0</ele><time>2026-05-04T09:27:26.999Z</time></trkpt><trkpt lat="37.71954894042319" lon="14.806894851190226"><ele>461.0</ele><time>2026-05-04T09:27:27.999Z</time></trkpt><trkpt lat="37.719463610828484" lon="14.806743865177806"><ele>461.0</ele><time>2026-05-04T09:27:28.999Z</time></trkpt><trkpt lat="37.71938201239768" lon="14.80660152585944"><ele>460.3333333333333</ele><time>2026-05-04T09:27:29.999Z</time></trkpt><trkpt lat="37.71923594134639" lon="14.806540858707192"><ele>459.66666666666663</ele><time>2026-05-04T09:27:30.999Z</time></trkpt><trkpt lat="37.719075123071526" lon="14.80651898400048"><ele>459.0</ele><time>2026-05-04T09:27:31.999Z</time></trkpt><trkpt lat="37.71889168803753" lon="14.80651895659822"><ele>459.0</ele><time>2026-05-04T09:27:32.999Z</time></trkpt><trkpt lat="37.718710710869985" lon="14.806481278657202"><ele>459.0</ele><time>2026-05-04T09:27:33.999Z</time></trkpt><trkpt lat="37.71852827344921" lon="14.806479312943097"><ele>459.0</ele><time>2026-05-04T09:27:34.999Z</time></trkpt><trkpt lat="37.71835644525959" lon="14.806468966899425"><ele>458.0</ele><time>2026-05-04T09:27:35.999Z</time></trkpt><trkpt lat="37.718194225283554" lon="14.806480058016055"><ele>457.0</ele><time>2026-05-04T09:27:36.999Z</time></trkpt><trkpt lat="37.71803733727521" lon="14.806512739998892"><ele>456.0</ele><time>2026-05-04T09:27:37.999Z</time></trkpt><trkpt lat="37.71789018188865" lon="14.806517195665005"><ele>456.0</ele><time>2026-05-04T09:27:38.999Z</time></trkpt><trkpt lat="37.71774910213095" lon="14.80654010870451"><ele>456.0</ele><time>2026-05-04T09:27:39.999Z</time></trkpt><trkpt lat="37.717614405457795" lon="14.806544612395868"><ele>456.0</ele><time>2026-05-04T09:27:40.999Z</time></trkpt><trkpt lat="37.71749371847411" lon="14.806506650765407"><ele>456.0</ele><time>2026-05-04T09:27:41.999Z</time></trkpt><trkpt lat="37.71739887726806" lon="14.806423521951608"><ele>452.5</ele><time>2026-05-04T09:27:42.999Z</time></trkpt><trkpt lat="37.71731325308047" lon="14.806314978155399"><ele>449.0</ele><time>2026-05-04T09:27:43.999Z</time></trkpt><trkpt lat="37.71721132067052" lon="14.806186379051917"><ele>445.5</ele><time>2026-05-04T09:27:44.999Z</time></trkpt><trkpt lat="37.71711553652825" lon="14.806032834432331"><ele>442.0</ele><time>2026-05-04T09:27:45.999Z</time></trkpt><trkpt lat="37.71702573675685" lon="14.80587235279051"><ele>439.33333333333337</ele><time>2026-05-04T09:27:46.999Z</time></trkpt><trkpt lat="37.716919023923786" lon="14.805709611254061"><ele>436.66666666666663</ele><time>2026-05-04T09:27:47.999Z</time></trkpt><trkpt lat="37.7168317281938" lon="14.80552637249355"><ele>434.0</ele><time>2026-05-04T09:27:48.999Z</time></trkpt><trkpt lat="37.71672688966101" lon="14.80536782945201"><ele>434.0</ele><time>2026-05-04T09:27:49.999Z</time></trkpt><trkpt lat="37.716627772421106" lon="14.805209371457183"><ele>434.0</ele><time>2026-05-04T09:27:50.999Z</time></trkpt><trkpt lat="37.71651869245744" lon="14.805053603246654"><ele>434.0</ele><time>2026-05-04T09:27:51.999Z</time></trkpt><trkpt lat="37.716400001700954" lon="14.804898769391984"><ele>434.0</ele><time>2026-05-04T09:27:52.999Z</time></trkpt><trkpt lat="37.71628196826956" lon="14.804744317271775"><ele>434.0</ele><time>2026-05-04T09:27:53.999Z</time></trkpt><trkpt lat="37.71617005171131" lon="14.804599830276262"><ele>434.0</ele><time>2026-05-04T09:27:54.999Z</time></trkpt><trkpt lat="37.716064501459016" lon="14.804465241388673"><ele>432.3333333333333</ele><time>2026-05-04T09:27:55.999Z</time></trkpt><trkpt lat="37.71595698242121" lon="14.804331085719648"><ele>430.66666666666663</ele><time>2026-05-04T09:27:56.999Z</time></trkpt><trkpt lat="37.71584488260235" lon="14.804186719253195"><ele>429.0</ele><time>2026-05-04T09:27:57.999Z</time></trkpt><trkpt lat="37.71573032506843" lon="14.804035439109697"><ele>428.33333333333337</ele><time>2026-05-04T09:27:58.999Z</time></trkpt><trkpt lat="37.71560325953352" lon="14.80388340720308"><ele>427.6666666666667</ele><time>2026-05-04T09:27:59.999Z</time></trkpt><trkpt lat="37.71547439379561" lon="14.803746215839672"><ele>427.0</ele><time>2026-05-04T09:28:00.999Z</time></trkpt><trkpt lat="37.71532672245087" lon="14.803616871806204"><ele>426.6666666666667</ele><time>2026-05-04T09:28:01.999Z</time></trkpt><trkpt lat="37.71516811337812" lon="14.803506636807803"><ele>426.33333333333337</ele><time>2026-05-04T09:28:02.999Z</time></trkpt><trkpt lat="37.7150052693572" lon="14.803399211939608"><ele>426.0</ele><time>2026-05-04T09:28:03.999Z</time></trkpt><trkpt lat="37.7148501913704" lon="14.803291375541999"><ele>423.33333333333337</ele><time>2026-05-04T09:28:04.999Z</time></trkpt><trkpt lat="37.71470017369196" lon="14.803187413430972"><ele>420.6666666666667</ele><time>2026-05-04T09:28:05.999Z</time></trkpt><trkpt lat="37.71455496577709" lon="14.803076438919232"><ele>418.0</ele><time>2026-05-04T09:28:06.999Z</time></trkpt><trkpt lat="37.71442301639695" lon="14.802954178262649"><ele>416.5</ele><time>2026-05-04T09:28:07.999Z</time></trkpt><trkpt lat="37.714303406228865" lon="14.802816417891048"><ele>415.0</ele><time>2026-05-04T09:28:08.999Z</time></trkpt><trkpt lat="37.71421900496622" lon="14.802663867381542"><ele>413.5</ele><time>2026-05-04T09:28:09.999Z</time></trkpt><trkpt lat="37.71419607418472" lon="14.802496942163426"><ele>412.0</ele><time>2026-05-04T09:28:10.999Z</time></trkpt><trkpt lat="37.71418836088292" lon="14.802313493379177"><ele>411.0</ele><time>2026-05-04T09:28:11.999Z</time></trkpt><trkpt lat="37.71422955259527" lon="14.802122365654004"><ele>410.0</ele><time>2026-05-04T09:28:12.999Z</time></trkpt><trkpt lat="37.71426621845779" lon="14.801930908488519"><ele>409.0</ele><time>2026-05-04T09:28:13.999Z</time></trkpt><trkpt lat="37.71429982226105" lon="14.801738762635715"><ele>409.0</ele><time>2026-05-04T09:28:15Z</time></trkpt><trkpt lat="37.714327744878666" lon="14.801543058199913"><ele>409.0</ele><time>2026-05-04T09:28:16Z</time></trkpt><trkpt lat="37.71435871752465" lon="14.801342432862128"><ele>409.0</ele><time>2026-05-04T09:28:17Z</time></trkpt><trkpt lat="37.714390996940466" lon="14.801156179062732"><ele>408.0</ele><time>2026-05-04T09:28:18Z</time></trkpt><trkpt lat="37.71441460418425" lon="14.800991705620564"><ele>407.0</ele><time>2026-05-04T09:28:19Z</time></trkpt><trkpt lat="37.71443836561086" lon="14.800852939869095"><ele>406.0</ele><time>2026-05-04T09:28:20Z</time></trkpt><trkpt lat="37.71445876161649" lon="14.800743522817244"><ele>405.0</ele><time>2026-05-04T09:28:21Z</time></trkpt><trkpt lat="37.71446789708384" lon="14.800660686322098"><ele>404.0</ele><time>2026-05-04T09:28:22Z</time></trkpt><trkpt lat="37.71446284886084" lon="14.800576443791702"><ele>404.6</ele><time>2026-05-04T09:28:24Z</time></trkpt><trkpt lat="37.71435555845967" lon="14.800458153971128"><ele>405.2</ele><time>2026-05-04T09:28:28Z</time></trkpt><trkpt lat="37.7142648516471" lon="14.800423696338152"><ele>405.8</ele><time>2026-05-04T09:28:29Z</time></trkpt><trkpt lat="37.71417005237224" lon="14.800387684125848"><ele>406.40000000000003</ele><time>2026-05-04T09:28:30Z</time></trkpt><trkpt lat="37.71406283415727" lon="14.800347647143104"><ele>407.0</ele><time>2026-05-04T09:28:31Z</time></trkpt><trkpt lat="37.713936545783255" lon="14.800318988948387"><ele>407.0</ele><time>2026-05-04T09:28:32Z</time></trkpt><trkpt lat="37.71379784208528" lon="14.800256663041568"><ele>407.0</ele><time>2026-05-04T09:28:33Z</time></trkpt><trkpt lat="37.71365369450167" lon="14.800207253145327"><ele>407.0</ele><time>2026-05-04T09:28:34Z</time></trkpt><trkpt lat="37.71350521190258" lon="14.800155840283633"><ele>407.3333333333333</ele><time>2026-05-04T09:28:35Z</time></trkpt><trkpt lat="37.7133468004036" lon="14.800085753584328"><ele>407.66666666666663</ele><time>2026-05-04T09:28:36Z</time></trkpt><trkpt lat="37.71317795657808" lon="14.80003012962563"><ele>408.0</ele><time>2026-05-04T09:28:37Z</time></trkpt><trkpt lat="37.71300406192932" lon="14.79997565837294"><ele>408.0</ele><time>2026-05-04T09:28:38Z</time></trkpt><trkpt lat="37.712817333128804" lon="14.799942007147601"><ele>408.0</ele><time>2026-05-04T09:28:39Z</time></trkpt><trkpt lat="37.712645812560204" lon="14.799893442751962"><ele>408.0</ele><time>2026-05-04T09:28:40Z</time></trkpt><trkpt lat="37.712496971275606" lon="14.79985775619666"><ele>408.75</ele><time>2026-05-04T09:28:41Z</time></trkpt><trkpt lat="37.71235661437231" lon="14.799849457832835"><ele>409.5</ele><time>2026-05-04T09:28:42Z</time></trkpt><trkpt lat="37.712208066724585" lon="14.799879496245879"><ele>410.25</ele><time>2026-05-04T09:28:43Z</time></trkpt><trkpt lat="37.712054270059255" lon="14.799926627179342"><ele>411.0</ele><time>2026-05-04T09:28:44Z</time></trkpt><trkpt lat="37.711888354579735" lon="14.79994445718683"><ele>412.33333333333337</ele><time>2026-05-04T09:28:45Z</time></trkpt><trkpt lat="37.71172242777808" lon="14.799984022846427"><ele>413.6666666666667</ele><time>2026-05-04T09:28:46Z</time></trkpt><trkpt lat="37.711563034910235" lon="14.800027384541332"><ele>415.0</ele><time>2026-05-04T09:28:47Z</time></trkpt><trkpt lat="37.71142206352251" lon="14.800093554375719"><ele>415.0</ele><time>2026-05-04T09:28:48Z</time></trkpt><trkpt lat="37.7112978860013" lon="14.80015793265769"><ele>415.0</ele><time>2026-05-04T09:28:49Z</time></trkpt><trkpt lat="37.71120097594353" lon="14.800258331585912"><ele>415.0</ele><time>2026-05-04T09:28:50Z</time></trkpt><trkpt lat="37.71112352302232" lon="14.800415759069107"><ele>415.0</ele><time>2026-05-04T09:28:51Z</time></trkpt><trkpt lat="37.711081370624946" lon="14.800592676746438"><ele>414.5</ele><time>2026-05-04T09:28:52Z</time></trkpt><trkpt lat="37.71102010152262" lon="14.800759853181827"><ele>414.0</ele><time>2026-05-04T09:28:53Z</time></trkpt><trkpt lat="37.710970961935914" lon="14.80093533944381"><ele>413.5</ele><time>2026-05-04T09:28:54Z</time></trkpt><trkpt lat="37.71091993983082" lon="14.801100526158045"><ele>413.0</ele><time>2026-05-04T09:28:55Z</time></trkpt><trkpt lat="37.71085439839494" lon="14.801234389137756"><ele>414.5</ele><time>2026-05-04T09:28:56Z</time></trkpt><trkpt lat="37.71076339021499" lon="14.801331514378262"><ele>416.0</ele><time>2026-05-04T09:28:57Z</time></trkpt><trkpt lat="37.7106469435937" lon="14.801388418362283"><ele>417.5</ele><time>2026-05-04T09:28:58Z</time></trkpt><trkpt lat="37.71052825374212" lon="14.801480225943132"><ele>419.0</ele><time>2026-05-04T09:28:59Z</time></trkpt><trkpt lat="37.71044505454748" lon="14.801562991182392"><ele>419.0</ele><time>2026-05-04T09:29:00Z</time></trkpt><trkpt lat="37.71040263594795" lon="14.801703353883026"><ele>419.0</ele><time>2026-05-04T09:29:01Z</time></trkpt><trkpt lat="37.71039730455923" lon="14.801890769970429"><ele>419.0</ele><time>2026-05-04T09:29:02Z</time></trkpt><trkpt lat="37.71037871100405" lon="14.80207370748466"><ele>419.0</ele><time>2026-05-04T09:29:03Z</time></trkpt><trkpt lat="37.71029633484182" lon="14.802237672323741"><ele>415.66666666666663</ele><time>2026-05-04T09:29:04Z</time></trkpt><trkpt lat="37.71020043119079" lon="14.802399193519777"><ele>412.33333333333337</ele><time>2026-05-04T09:29:05Z</time></trkpt><trkpt lat="37.710094717024845" lon="14.802569676280687"><ele>409.0</ele><time>2026-05-04T09:29:06Z</time></trkpt><trkpt lat="37.709986728740134" lon="14.802743906381718"><ele>408.33333333333337</ele><time>2026-05-04T09:29:07Z</time></trkpt><trkpt lat="37.709887658064716" lon="14.802937580683874"><ele>407.66666666666663</ele><time>2026-05-04T09:29:08Z</time></trkpt><trkpt lat="37.70975857265662" lon="14.803111143456677"><ele>407.0</ele><time>2026-05-04T09:29:09Z</time></trkpt><trkpt lat="37.70964157570266" lon="14.803298610281049"><ele>407.0</ele><time>2026-05-04T09:29:10Z</time></trkpt><trkpt lat="37.70952017393212" lon="14.80349299261861"><ele>407.0</ele><time>2026-05-04T09:29:11Z</time></trkpt><trkpt lat="37.70940330722416" lon="14.803680119711077"><ele>407.0</ele><time>2026-05-04T09:29:12Z</time></trkpt><trkpt lat="37.709294040316635" lon="14.803888398390946"><ele>406.0</ele><time>2026-05-04T09:29:13Z</time></trkpt><trkpt lat="37.70917205513655" lon="14.804080823417577"><ele>405.0</ele><time>2026-05-04T09:29:14Z</time></trkpt><trkpt lat="37.709037446881496" lon="14.804259758918288"><ele>404.0</ele><time>2026-05-04T09:29:15Z</time></trkpt><trkpt lat="37.70891665471482" lon="14.80444998954209"><ele>404.0</ele><time>2026-05-04T09:29:16Z</time></trkpt><trkpt lat="37.708794330744965" lon="14.804642632635817"><ele>404.0</ele><time>2026-05-04T09:29:17Z</time></trkpt><trkpt lat="37.70867668912321" lon="14.804827901525151"><ele>404.0</ele><time>2026-05-04T09:29:18Z</time></trkpt><trkpt lat="37.708561056109964" lon="14.804996993942959"><ele>404.0</ele><time>2026-05-04T09:29:19Z</time></trkpt><trkpt lat="37.70843202057632" lon="14.805150810457548"><ele>404.0</ele><time>2026-05-04T09:29:20Z</time></trkpt><trkpt lat="37.70828676088974" lon="14.805276543567933"><ele>404.0</ele><time>2026-05-04T09:29:21Z</time></trkpt><trkpt lat="37.70812685944266" lon="14.805381681522285"><ele>404.0</ele><time>2026-05-04T09:29:22Z</time></trkpt><trkpt lat="37.70796381781724" lon="14.805483988060347"><ele>404.0</ele><time>2026-05-04T09:29:23Z</time></trkpt><trkpt lat="37.70780163390797" lon="14.805585756253643"><ele>404.0</ele><time>2026-05-04T09:29:24Z</time></trkpt><trkpt lat="37.707634401326615" lon="14.80568986820669"><ele>403.66666666666663</ele><time>2026-05-04T09:29:25Z</time></trkpt><trkpt lat="37.70746599068317" lon="14.805802099738605"><ele>403.33333333333337</ele><time>2026-05-04T09:29:26Z</time></trkpt><trkpt lat="37.707302739984854" lon="14.80592993550591"><ele>403.0</ele><time>2026-05-04T09:29:27Z</time></trkpt><trkpt lat="37.70715014837779" lon="14.806070056554825"><ele>403.6666666666667</ele><time>2026-05-04T09:29:28Z</time></trkpt><trkpt lat="37.707007297831446" lon="14.806227000052012"><ele>404.33333333333337</ele><time>2026-05-04T09:29:29Z</time></trkpt><trkpt lat="37.706867701971035" lon="14.806391939912789"><ele>405.0</ele><time>2026-05-04T09:29:30Z</time></trkpt><trkpt lat="37.70673308865766" lon="14.806556990694185"><ele>405.0</ele><time>2026-05-04T09:29:31Z</time></trkpt><trkpt lat="37.70659908632289" lon="14.80672106842794"><ele>405.0</ele><time>2026-05-04T09:29:32Z</time></trkpt><trkpt lat="37.706473434828204" lon="14.80687591836515"><ele>405.0</ele><time>2026-05-04T09:29:33Z</time></trkpt><trkpt lat="37.70635035721903" lon="14.807023990307528"><ele>403.66666666666663</ele><time>2026-05-04T09:29:34Z</time></trkpt><trkpt lat="37.706221266198426" lon="14.807154679925551"><ele>402.3333333333333</ele><time>2026-05-04T09:29:35Z</time></trkpt><trkpt lat="37.70607576128523" lon="14.807255362705101"><ele>401.0</ele><time>2026-05-04T09:29:36Z</time></trkpt><trkpt lat="37.70591273309286" lon="14.807336688012088"><ele>401.0</ele><time>2026-05-04T09:29:37Z</time></trkpt><trkpt lat="37.70574309437823" lon="14.807408108867483"><ele>401.0</ele><time>2026-05-04T09:29:38Z</time></trkpt><trkpt lat="37.705575438888076" lon="14.807489706609914"><ele>401.0</ele><time>2026-05-04T09:29:39Z</time></trkpt><trkpt lat="37.70541746310132" lon="14.807594776451436"><ele>401.66666666666663</ele><time>2026-05-04T09:29:40Z</time></trkpt><trkpt lat="37.70526506117413" lon="14.807727535781435"><ele>402.33333333333337</ele><time>2026-05-04T09:29:41Z</time></trkpt><trkpt lat="37.705113595386635" lon="14.807882766608524"><ele>403.0</ele><time>2026-05-04T09:29:42Z</time></trkpt><trkpt lat="37.7049603933159" lon="14.808043187685863"><ele>403.0</ele><time>2026-05-04T09:29:43Z</time></trkpt><trkpt lat="37.70481109997224" lon="14.808199515285034"><ele>403.0</ele><time>2026-05-04T09:29:44Z</time></trkpt><trkpt lat="37.70466246558641" lon="14.808360429610968"><ele>403.0</ele><time>2026-05-04T09:29:45Z</time></trkpt><trkpt lat="37.704514682547845" lon="14.808520678335162"><ele>402.0</ele><time>2026-05-04T09:29:46Z</time></trkpt><trkpt lat="37.70439390283575" lon="14.808714455638038"><ele>401.0</ele><time>2026-05-04T09:29:47Z</time></trkpt><trkpt lat="37.70430557331465" lon="14.808936479143908"><ele>400.0</ele><time>2026-05-04T09:29:48Z</time></trkpt><trkpt lat="37.70419349957977" lon="14.80913863719922"><ele>400.0</ele><time>2026-05-04T09:29:49Z</time></trkpt><trkpt lat="37.704089181870756" lon="14.809349988875956"><ele>400.0</ele><time>2026-05-04T09:29:50Z</time></trkpt><trkpt lat="37.70398480297337" lon="14.809562329541942"><ele>400.0</ele><time>2026-05-04T09:29:51Z</time></trkpt><trkpt lat="37.70388213206285" lon="14.80977151275464"><ele>400.0</ele><time>2026-05-04T09:29:52Z</time></trkpt><trkpt lat="37.70378764716609" lon="14.809957959066628"><ele>400.0</ele><time>2026-05-04T09:29:53Z</time></trkpt><trkpt lat="37.703690152166985" lon="14.81013071030682"><ele>400.0</ele><time>2026-05-04T09:29:54Z</time></trkpt><trkpt lat="37.703533725170914" lon="14.810219351630838"><ele>399.6666666666667</ele><time>2026-05-04T09:29:55Z</time></trkpt><trkpt lat="37.70337834660202" lon="14.810318047377923"><ele>399.33333333333337</ele><time>2026-05-04T09:29:56Z</time></trkpt><trkpt lat="37.70322352715145" lon="14.810403704190376"><ele>399.0</ele><time>2026-05-04T09:29:57Z</time></trkpt><trkpt lat="37.703085556623975" lon="14.810533311921663"><ele>399.0</ele><time>2026-05-04T09:29:58Z</time></trkpt><trkpt lat="37.70296612195249" lon="14.810699624122694"><ele>399.0</ele><time>2026-05-04T09:29:59Z</time></trkpt><trkpt lat="37.70285108773164" lon="14.810876237946765"><ele>399.0</ele><time>2026-05-04T09:30:00Z</time></trkpt><trkpt lat="37.7027077618741" lon="14.811016858054723"><ele>399.0</ele><time>2026-05-04T09:30:01Z</time></trkpt><trkpt lat="37.7025493701943" lon="14.811138147036754"><ele>399.0</ele><time>2026-05-04T09:30:02Z</time></trkpt><trkpt lat="37.70239444266265" lon="14.81126550518305"><ele>399.0</ele><time>2026-05-04T09:30:03Z</time></trkpt><trkpt lat="37.70222970298631" lon="14.811381157991969"><ele>399.0</ele><time>2026-05-04T09:30:04Z</time></trkpt><trkpt lat="37.702061618805416" lon="14.811499695216444"><ele>399.0</ele><time>2026-05-04T09:30:05Z</time></trkpt><trkpt lat="37.70189330783674" lon="14.811614620856966"><ele>399.0</ele><time>2026-05-04T09:30:06Z</time></trkpt><trkpt lat="37.70171832010745" lon="14.811720883588757"><ele>398.33333333333337</ele><time>2026-05-04T09:30:07Z</time></trkpt><trkpt lat="37.70155413508208" lon="14.811808538303776"><ele>397.6666666666667</ele><time>2026-05-04T09:30:08Z</time></trkpt><trkpt lat="37.70139632697207" lon="14.81188168669108"><ele>397.0</ele><time>2026-05-04T09:30:09Z</time></trkpt><trkpt lat="37.70124638114186" lon="14.811978859355257"><ele>397.0</ele><time>2026-05-04T09:30:10Z</time></trkpt><trkpt lat="37.70110578667827" lon="14.812096588597395"><ele>397.0</ele><time>2026-05-04T09:30:11Z</time></trkpt><trkpt lat="37.70096757249221" lon="14.81222936669933"><ele>397.0</ele><time>2026-05-04T09:30:12Z</time></trkpt><trkpt lat="37.70083513689714" lon="14.812369523808533"><ele>397.0</ele><time>2026-05-04T09:30:13Z</time></trkpt><trkpt lat="37.70070078756174" lon="14.812516075554468"><ele>397.0</ele><time>2026-05-04T09:30:14Z</time></trkpt><trkpt lat="37.700562892986575" lon="14.812665331966658"><ele>397.0</ele><time>2026-05-04T09:30:15Z</time></trkpt><trkpt lat="37.70041266958582" lon="14.812787934059585"><ele>398.33333333333337</ele><time>2026-05-04T09:30:16Z</time></trkpt><trkpt lat="37.700238802708014" lon="14.812855615157337"><ele>399.66666666666663</ele><time>2026-05-04T09:30:17Z</time></trkpt><trkpt lat="37.70005879566806" lon="14.812926980222837"><ele>401.0</ele><time>2026-05-04T09:30:18Z</time></trkpt><trkpt lat="37.699875549761536" lon="14.81296948064829"><ele>401.0</ele><time>2026-05-04T09:30:19Z</time></trkpt><trkpt lat="37.69968974040614" lon="14.813023487628822"><ele>401.0</ele><time>2026-05-04T09:30:20Z</time></trkpt><trkpt lat="37.69950340376812" lon="14.813077248897095"><ele>401.0</ele><time>2026-05-04T09:30:21Z</time></trkpt><trkpt lat="37.6993152584466" lon="14.813130880839218"><ele>400.66666666666663</ele><time>2026-05-04T09:30:22Z</time></trkpt><trkpt lat="37.699125505151706" lon="14.813179767673192"><ele>400.33333333333337</ele><time>2026-05-04T09:30:23Z</time></trkpt><trkpt lat="37.69893165181248" lon="14.813219043110202"><ele>400.0</ele><time>2026-05-04T09:30:24Z</time></trkpt><trkpt lat="37.69871574933489" lon="14.813227401096341"><ele>399.5</ele><time>2026-05-04T09:30:25Z</time></trkpt><trkpt lat="37.698468451241446" lon="14.813207117222676"><ele>399.0</ele><time>2026-05-04T09:30:26Z</time></trkpt><trkpt lat="37.69818801980872" lon="14.813154500715877"><ele>399.0</ele><time>2026-05-04T09:30:27Z</time></trkpt><trkpt lat="37.69798793452695" lon="14.813156495092787"><ele>399.0</ele><time>2026-05-04T09:30:29Z</time></trkpt><trkpt lat="37.69779331486712" lon="14.813130557355295"><ele>399.0</ele><time>2026-05-04T09:30:30Z</time></trkpt><trkpt lat="37.697598342363385" lon="14.813083592622675"><ele>398.0</ele><time>2026-05-04T09:30:31Z</time></trkpt><trkpt lat="37.697398568990884" lon="14.813056557577122"><ele>397.0</ele><time>2026-05-04T09:30:32Z</time></trkpt><trkpt lat="37.69720017565351" lon="14.813029709290715"><ele>396.0</ele><time>2026-05-04T09:30:33Z</time></trkpt><trkpt lat="37.697011434972694" lon="14.813004167280711"><ele>396.0</ele><time>2026-05-04T09:30:34Z</time></trkpt><trkpt lat="37.69683602211733" lon="14.812980428917356"><ele>396.0</ele><time>2026-05-04T09:30:35Z</time></trkpt><trkpt lat="37.696675794166225" lon="14.812958745594807"><ele>396.0</ele><time>2026-05-04T09:30:36Z</time></trkpt><trkpt lat="37.696526633177115" lon="14.81290782873057"><ele>396.0</ele><time>2026-05-04T09:30:37Z</time></trkpt><trkpt lat="37.69639552972254" lon="14.81283288553146"><ele>396.0</ele><time>2026-05-04T09:30:38Z</time></trkpt><trkpt lat="37.69628535421105" lon="14.81271635832017"><ele>396.0</ele><time>2026-05-04T09:30:39Z</time></trkpt><trkpt lat="37.696164660702536" lon="14.812592628097804"><ele>396.0</ele><time>2026-05-04T09:30:40Z</time></trkpt><trkpt lat="37.696048135949695" lon="14.812455272922056"><ele>394.0</ele><time>2026-05-04T09:30:41Z</time></trkpt><trkpt lat="37.695950004186415" lon="14.81228903849151"><ele>392.0</ele><time>2026-05-04T09:30:42Z</time></trkpt><trkpt lat="37.69586402576339" lon="14.812098126226976"><ele>390.0</ele><time>2026-05-04T09:30:43Z</time></trkpt><trkpt lat="37.69577983982042" lon="14.811892913096887"><ele>387.6666666666667</ele><time>2026-05-04T09:30:44Z</time></trkpt><trkpt lat="37.69569169067848" lon="14.811691188912908"><ele>385.33333333333337</ele><time>2026-05-04T09:30:45Z</time></trkpt><trkpt lat="37.695615190624395" lon="14.81149605941904"><ele>383.0</ele><time>2026-05-04T09:30:46Z</time></trkpt><trkpt lat="37.69551009357027" lon="14.811327168775565"><ele>383.0</ele><time>2026-05-04T09:30:47Z</time></trkpt><trkpt lat="37.695380709017435" lon="14.811193676790642"><ele>383.0</ele><time>2026-05-04T09:30:48Z</time></trkpt><trkpt lat="37.69527861223899" lon="14.811037299655524"><ele>383.0</ele><time>2026-05-04T09:30:49Z</time></trkpt><trkpt lat="37.695183978724614" lon="14.810854518438788"><ele>381.0</ele><time>2026-05-04T09:30:50Z</time></trkpt><trkpt lat="37.695077175857904" lon="14.81067442598284"><ele>379.0</ele><time>2026-05-04T09:30:51Z</time></trkpt><trkpt lat="37.694986307634885" lon="14.810500570686592"><ele>377.0</ele><time>2026-05-04T09:30:52Z</time></trkpt><trkpt lat="37.69489855279174" lon="14.81032711663545"><ele>375.6666666666667</ele><time>2026-05-04T09:30:53Z</time></trkpt><trkpt lat="37.69481082406978" lon="14.810156096617781"><ele>374.3333333333333</ele><time>2026-05-04T09:30:54Z</time></trkpt><trkpt lat="37.6947168615011" lon="14.809998305846864"><ele>373.0</ele><time>2026-05-04T09:30:55Z</time></trkpt><trkpt lat="37.69461687162017" lon="14.809846032666321"><ele>373.0</ele><time>2026-05-04T09:30:56Z</time></trkpt><trkpt lat="37.69452597339412" lon="14.809713123861155"><ele>373.0</ele><time>2026-05-04T09:30:57Z</time></trkpt><trkpt lat="37.69443477124109" lon="14.80960482619166"><ele>373.0</ele><time>2026-05-04T09:30:58Z</time></trkpt><trkpt lat="37.69431601871677" lon="14.809547074056487"><ele>373.0</ele><time>2026-05-04T09:30:59Z</time></trkpt><trkpt lat="37.69419087072827" lon="14.809545076916208"><ele>372.25</ele><time>2026-05-04T09:31:00Z</time></trkpt><trkpt lat="37.69405912251972" lon="14.809624107794145"><ele>371.5</ele><time>2026-05-04T09:31:01Z</time></trkpt><trkpt lat="37.693939547728895" lon="14.809732390643601"><ele>370.75</ele><time>2026-05-04T09:31:02Z</time></trkpt><trkpt lat="37.69379399627542" lon="14.809778802806912"><ele>370.0</ele><time>2026-05-04T09:31:03Z</time></trkpt><trkpt lat="37.693645617681206" lon="14.809817963101134"><ele>370.5</ele><time>2026-05-04T09:31:04Z</time></trkpt><trkpt lat="37.6934968735142" lon="14.809867110184745"><ele>371.0</ele><time>2026-05-04T09:31:05Z</time></trkpt><trkpt lat="37.6933664023704" lon="14.809842245981503"><ele>371.5</ele><time>2026-05-04T09:31:06Z</time></trkpt><trkpt lat="37.69325208126053" lon="14.80980584040287"><ele>372.0</ele><time>2026-05-04T09:31:07Z</time></trkpt><trkpt lat="37.69317107235958" lon="14.809678169029207"><ele>372.0</ele><time>2026-05-04T09:31:08Z</time></trkpt><trkpt lat="37.69308751841198" lon="14.809534845540002"><ele>372.0</ele><time>2026-05-04T09:31:09Z</time></trkpt><trkpt lat="37.69301345567364" lon="14.809368911119853"><ele>372.0</ele><time>2026-05-04T09:31:10Z</time></trkpt><trkpt lat="37.692962277273246" lon="14.809179991863328"><ele>368.3333333333333</ele><time>2026-05-04T09:31:11Z</time></trkpt><trkpt lat="37.69291520088846" lon="14.808981871968477"><ele>364.66666666666663</ele><time>2026-05-04T09:31:12Z</time></trkpt><trkpt lat="37.692860833120385" lon="14.808789122355575"><ele>361.0</ele><time>2026-05-04T09:31:13Z</time></trkpt><trkpt lat="37.69282906098067" lon="14.808598248777468"><ele>360.0</ele><time>2026-05-04T09:31:14Z</time></trkpt><trkpt lat="37.692799901028444" lon="14.808415666518842"><ele>359.0</ele><time>2026-05-04T09:31:15Z</time></trkpt><trkpt lat="37.69275832146912" lon="14.808243003701648"><ele>358.0</ele><time>2026-05-04T09:31:16Z</time></trkpt><trkpt lat="37.69269547214723" lon="14.808078413224042"><ele>357.0</ele><time>2026-05-04T09:31:17Z</time></trkpt><trkpt lat="37.692601971538544" lon="14.80795203019117"><ele>357.0</ele><time>2026-05-04T09:31:18Z</time></trkpt><trkpt lat="37.69247020087831" lon="14.807878827510025"><ele>357.0</ele><time>2026-05-04T09:31:19Z</time></trkpt><trkpt lat="37.69232236274862" lon="14.807824583350211"><ele>357.0</ele><time>2026-05-04T09:31:20Z</time></trkpt><trkpt lat="37.69217291906877" lon="14.807778015149367"><ele>357.0</ele><time>2026-05-04T09:31:21Z</time></trkpt><trkpt lat="37.692021634623494" lon="14.807738181276065"><ele>357.0</ele><time>2026-05-04T09:31:22Z</time></trkpt><trkpt lat="37.69188006262738" lon="14.807719289491125"><ele>357.0</ele><time>2026-05-04T09:31:23Z</time></trkpt><trkpt lat="37.69174545263935" lon="14.807742585905201"><ele>357.0</ele><time>2026-05-04T09:31:24Z</time></trkpt><trkpt lat="37.691620476366005" lon="14.807803298457628"><ele>356.0</ele><time>2026-05-04T09:31:25Z</time></trkpt><trkpt lat="37.69149532213998" lon="14.80784648726533"><ele>355.0</ele><time>2026-05-04T09:31:26Z</time></trkpt><trkpt lat="37.69136771186721" lon="14.80785519076047"><ele>354.0</ele><time>2026-05-04T09:31:27Z</time></trkpt><trkpt lat="37.691267276164126" lon="14.807724318883658"><ele>353.0</ele><time>2026-05-04T09:31:28Z</time></trkpt><trkpt lat="37.69111636782287" lon="14.807680366278767"><ele>350.75</ele><time>2026-05-04T09:31:29Z</time></trkpt><trkpt lat="37.691053545083534" lon="14.807471761926655"><ele>348.5</ele><time>2026-05-04T09:31:30Z</time></trkpt><trkpt lat="37.690966340545835" lon="14.807343539665467"><ele>346.25</ele><time>2026-05-04T09:31:31Z</time></trkpt><trkpt lat="37.69091239663087" lon="14.807223915381327"><ele>344.0</ele><time>2026-05-04T09:31:32Z</time></trkpt><trkpt lat="37.6908786321188" lon="14.807115784368952"><ele>344.0</ele><time>2026-05-04T09:31:33Z</time></trkpt><trkpt lat="37.690912959582505" lon="14.807000531287828"><ele>344.0</ele><time>2026-05-04T09:31:34Z</time></trkpt><trkpt lat="37.69094249018938" lon="14.806852679553957"><ele>344.0</ele><time>2026-05-04T09:31:35Z</time></trkpt><trkpt lat="37.69095696653059" lon="14.806705824291727"><ele>344.0</ele><time>2026-05-04T09:31:36Z</time></trkpt><trkpt lat="37.690916434141705" lon="14.806556432256714"><ele>342.25</ele><time>2026-05-04T09:31:37Z</time></trkpt><trkpt lat="37.69086048738705" lon="14.806422327812031"><ele>340.5</ele><time>2026-05-04T09:31:38Z</time></trkpt><trkpt lat="37.69080704823624" lon="14.80629146759803"><ele>338.75</ele><time>2026-05-04T09:31:39Z</time></trkpt><trkpt lat="37.69077710888443" lon="14.806149000928652"><ele>337.0</ele><time>2026-05-04T09:31:40Z</time></trkpt><trkpt lat="37.690782318552046" lon="14.80598656528808"><ele>336.25</ele><time>2026-05-04T09:31:41Z</time></trkpt><trkpt lat="37.69076603885133" lon="14.805826582988999"><ele>335.5</ele><time>2026-05-04T09:31:42Z</time></trkpt><trkpt lat="37.69076912492647" lon="14.805671448792701"><ele>334.75</ele><time>2026-05-04T09:31:43Z</time></trkpt><trkpt lat="37.69077110694941" lon="14.805528327419117"><ele>334.0</ele><time>2026-05-04T09:31:44Z</time></trkpt><trkpt lat="37.69078576233759" lon="14.805398278754184"><ele>334.0</ele><time>2026-05-04T09:31:45Z</time></trkpt><trkpt lat="37.6908011719626" lon="14.805278474308697"><ele>334.0</ele><time>2026-05-04T09:31:46Z</time></trkpt><trkpt lat="37.69082903459369" lon="14.805171747817427"><ele>334.0</ele><time>2026-05-04T09:31:47Z</time></trkpt><trkpt lat="37.690863491606144" lon="14.805078158515313"><ele>334.0</ele><time>2026-05-04T09:31:48Z</time></trkpt><trkpt lat="37.69089464605834" lon="14.80497746308463"><ele>334.0</ele><time>2026-05-04T09:31:49Z</time></trkpt><trkpt lat="37.690913718382035" lon="14.80487040567671"><ele>334.0</ele><time>2026-05-04T09:31:50Z</time></trkpt><trkpt lat="37.69092374664609" lon="14.804758918921202"><ele>332.5</ele><time>2026-05-04T09:31:51Z</time></trkpt><trkpt lat="37.69093285183288" lon="14.80464425286156"><ele>331.0</ele><time>2026-05-04T09:31:52Z</time></trkpt><trkpt lat="37.690941276999745" lon="14.804529607471654"><ele>329.5</ele><time>2026-05-04T09:31:53Z</time></trkpt><trkpt lat="37.690946359692944" lon="14.804422994152672"><ele>328.0</ele><time>2026-05-04T09:31:54Z</time></trkpt><trkpt lat="37.69095195966321" lon="14.80431353754494"><ele>326.5</ele><time>2026-05-04T09:31:55Z</time></trkpt><trkpt lat="37.69095868616479" lon="14.804210389451953"><ele>325.0</ele><time>2026-05-04T09:31:56Z</time></trkpt><trkpt lat="37.69096657860757" lon="14.804112634717498"><ele>323.66666666666663</ele><time>2026-05-04T09:31:57Z</time></trkpt><trkpt lat="37.690976143426454" lon="14.804018909681607"><ele>322.3333333333333</ele><time>2026-05-04T09:31:58Z</time></trkpt><trkpt lat="37.690964109187675" lon="14.803931780902353"><ele>321.0</ele><time>2026-05-04T09:31:59Z</time></trkpt><trkpt lat="37.69095219803614" lon="14.803852331471447"><ele>319.6666666666667</ele><time>2026-05-04T09:32:00Z</time></trkpt><trkpt lat="37.69093451314154" lon="14.803772537858697"><ele>318.33333333333337</ele><time>2026-05-04T09:32:01Z</time></trkpt><trkpt lat="37.69091505100449" lon="14.803672001694636"><ele>317.0</ele><time>2026-05-04T09:32:02.998Z</time></trkpt><trkpt lat="37.69082904946628" lon="14.803586098804562"><ele>317.0</ele><time>2026-05-04T09:32:35.999Z</time></trkpt><trkpt lat="37.69076710706183" lon="14.803540824346786"><ele>317.0</ele><time>2026-05-04T09:32:36.999Z</time></trkpt><trkpt lat="37.69069740630784" lon="14.803495870012082"><ele>317.0</ele><time>2026-05-04T09:32:37.999Z</time></trkpt><trkpt lat="37.690584330097074" lon="14.803466748675842"><ele>317.0</ele><time>2026-05-04T09:32:39.999Z</time></trkpt><trkpt lat="37.690476712822125" lon="14.803469307097595"><ele>317.0</ele><time>2026-05-04T09:32:41.999Z</time></trkpt><trkpt lat="37.69037964594725" lon="14.803476519267411"><ele>316.8</ele><time>2026-05-04T09:32:43.999Z</time></trkpt><trkpt lat="37.690271890662125" lon="14.803481913112424"><ele>316.6</ele><time>2026-05-04T09:32:45.999Z</time></trkpt><trkpt lat="37.69018865467186" lon="14.803488438397276"><ele>316.40000000000003</ele><time>2026-05-04T09:32:46.999Z</time></trkpt><trkpt lat="37.69008177088416" lon="14.803497055304948"><ele>316.2</ele><time>2026-05-04T09:32:47.999Z</time></trkpt><trkpt lat="37.68995396008158" lon="14.803509582640059"><ele>316.0</ele><time>2026-05-04T09:32:48.999Z</time></trkpt><trkpt lat="37.68981128594372" lon="14.803501428225163"><ele>315.3333333333333</ele><time>2026-05-04T09:32:49.999Z</time></trkpt><trkpt lat="37.68966124326753" lon="14.803530581099245"><ele>314.6666666666667</ele><time>2026-05-04T09:32:50.999Z</time></trkpt><trkpt lat="37.68950099021285" lon="14.803538156304237"><ele>314.0</ele><time>2026-05-04T09:32:51.999Z</time></trkpt><trkpt lat="37.6893324063384" lon="14.803552580108752"><ele>313.33333333333337</ele><time>2026-05-04T09:32:52.999Z</time></trkpt><trkpt lat="37.68915915057425" lon="14.803547784569918"><ele>312.6666666666667</ele><time>2026-05-04T09:32:53.999Z</time></trkpt><trkpt lat="37.68898545811435" lon="14.803561365764363"><ele>312.0</ele><time>2026-05-04T09:32:54.999Z</time></trkpt><trkpt lat="37.688824454955494" lon="14.803575638076042"><ele>312.0</ele><time>2026-05-04T09:32:55.999Z</time></trkpt><trkpt lat="37.688671577661985" lon="14.803589190063079"><ele>312.0</ele><time>2026-05-04T09:32:56.999Z</time></trkpt><trkpt lat="37.68852861939557" lon="14.803599413681907"><ele>312.0</ele><time>2026-05-04T09:32:57.999Z</time></trkpt><trkpt lat="37.688385758132995" lon="14.803605538809583"><ele>312.0</ele><time>2026-05-04T09:32:58.999Z</time></trkpt><trkpt lat="37.68824206984383" lon="14.803613319722041"><ele>311.0</ele><time>2026-05-04T09:32:59.999Z</time></trkpt><trkpt lat="37.68811209536517" lon="14.803602224050868"><ele>310.0</ele><time>2026-05-04T09:33:00.999Z</time></trkpt><trkpt lat="37.68799661535179" lon="14.803531333639192"><ele>309.0</ele><time>2026-05-04T09:33:01.999Z</time></trkpt><trkpt lat="37.68787201629264" lon="14.803443146892281"><ele>308.0</ele><time>2026-05-04T09:33:02.999Z</time></trkpt><trkpt lat="37.6877379517473" lon="14.80336913391313"><ele>306.0</ele><time>2026-05-04T09:33:03.999Z</time></trkpt><trkpt lat="37.687616693922486" lon="14.803288668411419"><ele>304.0</ele><time>2026-05-04T09:33:04.999Z</time></trkpt><trkpt lat="37.687480267555834" lon="14.803230036141299"><ele>302.0</ele><time>2026-05-04T09:33:05.999Z</time></trkpt><trkpt lat="37.68732763086108" lon="14.803211394058883"><ele>300.0</ele><time>2026-05-04T09:33:06.999Z</time></trkpt><trkpt lat="37.68717452354711" lon="14.803234221991817"><ele>300.0</ele><time>2026-05-04T09:33:07.999Z</time></trkpt><trkpt lat="37.68702566861918" lon="14.80327357050614"><ele>300.0</ele><time>2026-05-04T09:33:08.999Z</time></trkpt><trkpt lat="37.686889213318146" lon="14.803332303846883"><ele>300.0</ele><time>2026-05-04T09:33:09.999Z</time></trkpt><trkpt lat="37.6867602099093" lon="14.803415343101593"><ele>300.0</ele><time>2026-05-04T09:33:10.999Z</time></trkpt><trkpt lat="37.68662852487582" lon="14.803482121647484"><ele>300.5</ele><time>2026-05-04T09:33:11.999Z</time></trkpt><trkpt lat="37.686489557435756" lon="14.803498631942311"><ele>301.0</ele><time>2026-05-04T09:33:12.999Z</time></trkpt><trkpt lat="37.68634903757501" lon="14.803453702939759"><ele>301.5</ele><time>2026-05-04T09:33:13.999Z</time></trkpt><trkpt lat="37.68623495044326" lon="14.803337399950331"><ele>302.0</ele><time>2026-05-04T09:33:14.999Z</time></trkpt><trkpt lat="37.686105872394286" lon="14.803257377079987"><ele>302.25</ele><time>2026-05-04T09:33:15.999Z</time></trkpt><trkpt lat="37.68598138901626" lon="14.80317405512929"><ele>302.5</ele><time>2026-05-04T09:33:16.999Z</time></trkpt><trkpt lat="37.68584404229164" lon="14.803135825209988"><ele>302.75</ele><time>2026-05-04T09:33:17.999Z</time></trkpt><trkpt lat="37.68568532268152" lon="14.803158350232527"><ele>303.0</ele><time>2026-05-04T09:33:18.999Z</time></trkpt><trkpt lat="37.68552196239571" lon="14.803185473677503"><ele>303.0</ele><time>2026-05-04T09:33:19.999Z</time></trkpt><trkpt lat="37.68536223795677" lon="14.803213492425634"><ele>303.0</ele><time>2026-05-04T09:33:20.999Z</time></trkpt><trkpt lat="37.68521829752855" lon="14.803288625296513"><ele>303.0</ele><time>2026-05-04T09:33:21.999Z</time></trkpt><trkpt lat="37.68509604715236" lon="14.803441507505877"><ele>304.25</ele><time>2026-05-04T09:33:22.999Z</time></trkpt><trkpt lat="37.68496864581567" lon="14.803574286990305"><ele>305.5</ele><time>2026-05-04T09:33:23.999Z</time></trkpt><trkpt lat="37.684847156608726" lon="14.80368482991064"><ele>306.75</ele><time>2026-05-04T09:33:24.999Z</time></trkpt><trkpt lat="37.68473084682567" lon="14.80376263266069"><ele>308.0</ele><time>2026-05-04T09:33:25.999Z</time></trkpt><trkpt lat="37.68460533044332" lon="14.803809991645348"><ele>308.0</ele><time>2026-05-04T09:33:26.999Z</time></trkpt><trkpt lat="37.68446564580336" lon="14.803767169238712"><ele>308.0</ele><time>2026-05-04T09:33:28Z</time></trkpt><trkpt lat="37.684337872231644" lon="14.803706893019807"><ele>308.0</ele><time>2026-05-04T09:33:29Z</time></trkpt><trkpt lat="37.68420767178361" lon="14.803640771076383"><ele>308.0</ele><time>2026-05-04T09:33:30Z</time></trkpt><trkpt lat="37.68407433755311" lon="14.803576311716471"><ele>306.75</ele><time>2026-05-04T09:33:31Z</time></trkpt><trkpt lat="37.68395319763052" lon="14.803486558445485"><ele>305.5</ele><time>2026-05-04T09:33:32Z</time></trkpt><trkpt lat="37.68382794387031" lon="14.803394008420232"><ele>304.25</ele><time>2026-05-04T09:33:33Z</time></trkpt><trkpt lat="37.683701280548455" lon="14.80331005402825"><ele>303.0</ele><time>2026-05-04T09:33:34Z</time></trkpt><trkpt lat="37.683576434174576" lon="14.803238515699658"><ele>303.0</ele><time>2026-05-04T09:33:35Z</time></trkpt><trkpt lat="37.68343667750706" lon="14.803271048778255"><ele>303.0</ele><time>2026-05-04T09:33:36Z</time></trkpt><trkpt lat="37.683304488182024" lon="14.803335710906408"><ele>303.0</ele><time>2026-05-04T09:33:37Z</time></trkpt><trkpt lat="37.68316418270977" lon="14.803381793225146"><ele>303.0</ele><time>2026-05-04T09:33:38Z</time></trkpt><trkpt lat="37.683024820330104" lon="14.803449647568407"><ele>305.25</ele><time>2026-05-04T09:33:39Z</time></trkpt><trkpt lat="37.682882786750646" lon="14.803520673848555"><ele>307.5</ele><time>2026-05-04T09:33:40Z</time></trkpt><trkpt lat="37.682743582705804" lon="14.803590862229855"><ele>309.75</ele><time>2026-05-04T09:33:41Z</time></trkpt><trkpt lat="37.682605042993245" lon="14.803647798421848"><ele>312.0</ele><time>2026-05-04T09:33:42Z</time></trkpt><trkpt lat="37.68246512478658" lon="14.803597795447642"><ele>312.0</ele><time>2026-05-04T09:33:43Z</time></trkpt><trkpt lat="37.68232398051667" lon="14.803539307349226"><ele>312.0</ele><time>2026-05-04T09:33:44Z</time></trkpt><trkpt lat="37.682178133038086" lon="14.80349561962617"><ele>312.0</ele><time>2026-05-04T09:33:45Z</time></trkpt><trkpt lat="37.68202382572856" lon="14.803435696651478"><ele>310.0</ele><time>2026-05-04T09:33:46Z</time></trkpt><trkpt lat="37.68186292438915" lon="14.803394246432926"><ele>308.0</ele><time>2026-05-04T09:33:47Z</time></trkpt><trkpt lat="37.681709984027265" lon="14.803342826722718"><ele>306.0</ele><time>2026-05-04T09:33:48Z</time></trkpt><trkpt lat="37.68157146602712" lon="14.803284263101848"><ele>306.0</ele><time>2026-05-04T09:33:49Z</time></trkpt><trkpt lat="37.6814486256505" lon="14.803209186239835"><ele>306.0</ele><time>2026-05-04T09:33:50Z</time></trkpt><trkpt lat="37.68133533501892" lon="14.803116497264815"><ele>306.0</ele><time>2026-05-04T09:33:51Z</time></trkpt><trkpt lat="37.68122471630153" lon="14.803005472046474"><ele>306.0</ele><time>2026-05-04T09:33:52Z</time></trkpt><trkpt lat="37.68110652954822" lon="14.802902134081556"><ele>306.5</ele><time>2026-05-04T09:33:53Z</time></trkpt><trkpt lat="37.68098123387123" lon="14.802829725885749"><ele>307.0</ele><time>2026-05-04T09:33:54Z</time></trkpt><trkpt lat="37.680850770802564" lon="14.802776948509942"><ele>307.5</ele><time>2026-05-04T09:33:55Z</time></trkpt><trkpt lat="37.680715809697446" lon="14.802735770869587"><ele>308.0</ele><time>2026-05-04T09:33:56Z</time></trkpt><trkpt lat="37.680593452064215" lon="14.802669790328856"><ele>307.5</ele><time>2026-05-04T09:33:57Z</time></trkpt><trkpt lat="37.68047579473701" lon="14.802617031588909"><ele>307.0</ele><time>2026-05-04T09:33:58Z</time></trkpt><trkpt lat="37.680354278237566" lon="14.802543073658162"><ele>306.5</ele><time>2026-05-04T09:33:59Z</time></trkpt><trkpt lat="37.68022720757463" lon="14.802460204167716"><ele>306.0</ele><time>2026-05-04T09:34:00Z</time></trkpt><trkpt lat="37.680091465780244" lon="14.80236559663138"><ele>306.0</ele><time>2026-05-04T09:34:01Z</time></trkpt><trkpt lat="37.679953519618245" lon="14.802265811140202"><ele>306.0</ele><time>2026-05-04T09:34:02Z</time></trkpt><trkpt lat="37.67980854345369" lon="14.802159557402842"><ele>306.0</ele><time>2026-05-04T09:34:03Z</time></trkpt><trkpt lat="37.67965992554391" lon="14.802050194206105"><ele>306.0</ele><time>2026-05-04T09:34:04Z</time></trkpt><trkpt lat="37.679507973089976" lon="14.801942382316131"><ele>306.0</ele><time>2026-05-04T09:34:05Z</time></trkpt><trkpt lat="37.679349861134014" lon="14.801841731288395"><ele>306.0</ele><time>2026-05-04T09:34:06Z</time></trkpt><trkpt lat="37.679199654171775" lon="14.801747436651409"><ele>305.3333333333333</ele><time>2026-05-04T09:34:07Z</time></trkpt><trkpt lat="37.679072160673506" lon="14.80162838750745"><ele>304.66666666666663</ele><time>2026-05-04T09:34:07.997Z</time></trkpt><trkpt lat="37.67894704403211" lon="14.801513549336622"><ele>304.0</ele><time>2026-05-04T09:34:08.997Z</time></trkpt><trkpt lat="37.67882006072414" lon="14.801388188884925"><ele>304.0</ele><time>2026-05-04T09:34:09.997Z</time></trkpt><trkpt lat="37.678708279475295" lon="14.801243990295957"><ele>304.0</ele><time>2026-05-04T09:34:10.997Z</time></trkpt><trkpt lat="37.67856805882629" lon="14.801131298178024"><ele>304.0</ele><time>2026-05-04T09:34:11.997Z</time></trkpt><trkpt lat="37.67843066977473" lon="14.801021155380992"><ele>303.3333333333333</ele><time>2026-05-04T09:34:12.997Z</time></trkpt><trkpt lat="37.6782652250508" lon="14.800962281423596"><ele>302.6666666666667</ele><time>2026-05-04T09:34:13.997Z</time></trkpt><trkpt lat="37.67809146021555" lon="14.800938310228732"><ele>302.0</ele><time>2026-05-04T09:34:14.997Z</time></trkpt><trkpt lat="37.67791570637158" lon="14.800941823234833"><ele>301.33333333333337</ele><time>2026-05-04T09:34:15.997Z</time></trkpt><trkpt lat="37.677736107111855" lon="14.800961794581326"><ele>300.6666666666667</ele><time>2026-05-04T09:34:16.997Z</time></trkpt><trkpt lat="37.677550639052825" lon="14.800980070936305"><ele>300.0</ele><time>2026-05-04T09:34:17.997Z</time></trkpt><trkpt lat="37.67736269025284" lon="14.800926574132099"><ele>300.0</ele><time>2026-05-04T09:34:18.997Z</time></trkpt><trkpt lat="37.67717544427539" lon="14.800915746482628"><ele>300.0</ele><time>2026-05-04T09:34:19.997Z</time></trkpt><trkpt lat="37.67698440978613" lon="14.800930509580319"><ele>300.0</ele><time>2026-05-04T09:34:20.997Z</time></trkpt><trkpt lat="37.67679505896461" lon="14.800956801650115"><ele>300.0</ele><time>2026-05-04T09:34:21.997Z</time></trkpt><trkpt lat="37.676606126214054" lon="14.80099372047515"><ele>300.0</ele><time>2026-05-04T09:34:22.997Z</time></trkpt><trkpt lat="37.67641157400087" lon="14.801013283464608"><ele>300.0</ele><time>2026-05-04T09:34:23.997Z</time></trkpt><trkpt lat="37.676219824970154" lon="14.80098123639142"><ele>298.6666666666667</ele><time>2026-05-04T09:34:24.997Z</time></trkpt><trkpt lat="37.67602605186508" lon="14.8009252825248"><ele>297.33333333333337</ele><time>2026-05-04T09:34:25.997Z</time></trkpt><trkpt lat="37.675825432509" lon="14.800865592443158"><ele>296.0</ele><time>2026-05-04T09:34:26.998Z</time></trkpt><trkpt lat="37.67561616616947" lon="14.800844010989124"><ele>296.0</ele><time>2026-05-04T09:34:27.998Z</time></trkpt><trkpt lat="37.675421047617064" lon="14.800819672860248"><ele>296.0</ele><time>2026-05-04T09:34:28.998Z</time></trkpt><trkpt lat="37.67522673493864" lon="14.800820973465555"><ele>296.0</ele><time>2026-05-04T09:34:29.998Z</time></trkpt><trkpt lat="37.67502360854157" lon="14.80082557310701"><ele>296.33333333333337</ele><time>2026-05-04T09:34:30.998Z</time></trkpt><trkpt lat="37.67483863454453" lon="14.800848070724546"><ele>296.6666666666667</ele><time>2026-05-04T09:34:31.998Z</time></trkpt><trkpt lat="37.67466666741873" lon="14.800922451374218"><ele>297.0</ele><time>2026-05-04T09:34:32.998Z</time></trkpt><trkpt lat="37.67451224532941" lon="14.80105991112851"><ele>295.6666666666667</ele><time>2026-05-04T09:34:33.998Z</time></trkpt><trkpt lat="37.67435629826637" lon="14.801198596402894"><ele>294.33333333333337</ele><time>2026-05-04T09:34:34.998Z</time></trkpt><trkpt lat="37.67417855354955" lon="14.801268281301807"><ele>293.0</ele><time>2026-05-04T09:34:35.998Z</time></trkpt><trkpt lat="37.673999557762436" lon="14.801352608998549"><ele>293.0</ele><time>2026-05-04T09:34:36.998Z</time></trkpt><trkpt lat="37.673821324060434" lon="14.801436913966553"><ele>293.0</ele><time>2026-05-04T09:34:37.998Z</time></trkpt><trkpt lat="37.673637652718725" lon="14.801518465958123"><ele>293.0</ele><time>2026-05-04T09:34:38.998Z</time></trkpt><trkpt lat="37.6734486690185" lon="14.801590783928335"><ele>293.0</ele><time>2026-05-04T09:34:39.998Z</time></trkpt><trkpt lat="37.673261153601636" lon="14.801656712209649"><ele>293.0</ele><time>2026-05-04T09:34:40.998Z</time></trkpt><trkpt lat="37.673071801443236" lon="14.80172838265819"><ele>293.0</ele><time>2026-05-04T09:34:41.998Z</time></trkpt><trkpt lat="37.672896413616094" lon="14.801834410229773"><ele>292.33333333333337</ele><time>2026-05-04T09:34:42.998Z</time></trkpt><trkpt lat="37.67271885549036" lon="14.801946722312556"><ele>291.6666666666667</ele><time>2026-05-04T09:34:43.998Z</time></trkpt><trkpt lat="37.67255541137326" lon="14.802079762360622"><ele>291.0</ele><time>2026-05-04T09:34:44.998Z</time></trkpt><trkpt lat="37.67240519579669" lon="14.802230876273876"><ele>291.0</ele><time>2026-05-04T09:34:45.998Z</time></trkpt><trkpt lat="37.6722852447194" lon="14.802416670088443"><ele>291.0</ele><time>2026-05-04T09:34:46.998Z</time></trkpt><trkpt lat="37.67215593811462" lon="14.802567282760338"><ele>291.0</ele><time>2026-05-04T09:34:47.998Z</time></trkpt><trkpt lat="37.6720195216491" lon="14.802697573666261"><ele>289.6666666666667</ele><time>2026-05-04T09:34:48.998Z</time></trkpt><trkpt lat="37.67188034290084" lon="14.802830502922369"><ele>288.33333333333337</ele><time>2026-05-04T09:34:49.998Z</time></trkpt><trkpt lat="37.67175052934749" lon="14.802950441540446"><ele>287.0</ele><time>2026-05-04T09:34:50.998Z</time></trkpt><trkpt lat="37.67161862116903" lon="14.803063666236431"><ele>287.0</ele><time>2026-05-04T09:34:51.998Z</time></trkpt><trkpt lat="37.67148677290721" lon="14.803124122341275"><ele>287.0</ele><time>2026-05-04T09:34:52.998Z</time></trkpt><trkpt lat="37.671343632930764" lon="14.803153899028164"><ele>287.0</ele><time>2026-05-04T09:34:53.999Z</time></trkpt><trkpt lat="37.67120516801991" lon="14.803122775864523"><ele>287.0</ele><time>2026-05-04T09:34:54.999Z</time></trkpt><trkpt lat="37.67107027486379" lon="14.803054709953653"><ele>286.33333333333337</ele><time>2026-05-04T09:34:55.999Z</time></trkpt><trkpt lat="37.670933024179604" lon="14.80296443229639"><ele>285.6666666666667</ele><time>2026-05-04T09:34:56.999Z</time></trkpt><trkpt lat="37.670785839154014" lon="14.8028738085691"><ele>285.0</ele><time>2026-05-04T09:34:57.999Z</time></trkpt><trkpt lat="37.67062878947316" lon="14.802797362758444"><ele>285.0</ele><time>2026-05-04T09:34:58.999Z</time></trkpt><trkpt lat="37.670474340768436" lon="14.802726723790997"><ele>285.0</ele><time>2026-05-04T09:34:59.999Z</time></trkpt><trkpt lat="37.67031117037251" lon="14.802669005221995"><ele>285.0</ele><time>2026-05-04T09:35:00.999Z</time></trkpt><trkpt lat="37.67014247696392" lon="14.802640749497861"><ele>284.6666666666667</ele><time>2026-05-04T09:35:01.999Z</time></trkpt><trkpt lat="37.66997233544718" lon="14.802650595359959"><ele>284.33333333333337</ele><time>2026-05-04T09:35:02.999Z</time></trkpt><trkpt lat="37.669794495393816" lon="14.802655844631868"><ele>284.0</ele><time>2026-05-04T09:35:03.999Z</time></trkpt><trkpt lat="37.669613839277545" lon="14.802684570733595"><ele>283.6666666666667</ele><time>2026-05-04T09:35:04.999Z</time></trkpt><trkpt lat="37.66943657437392" lon="14.802749116302204"><ele>283.3333333333333</ele><time>2026-05-04T09:35:05.999Z</time></trkpt><trkpt lat="37.66925361837318" lon="14.802778058261461"><ele>283.0</ele><time>2026-05-04T09:35:06.999Z</time></trkpt><trkpt lat="37.6690679527624" lon="14.80281765973709"><ele>283.0</ele><time>2026-05-04T09:35:07.999Z</time></trkpt><trkpt lat="37.668882009289625" lon="14.802851997078983"><ele>283.0</ele><time>2026-05-04T09:35:08.999Z</time></trkpt><trkpt lat="37.66869474923782" lon="14.802882055647679"><ele>283.0</ele><time>2026-05-04T09:35:09.999Z</time></trkpt><trkpt lat="37.668513044594604" lon="14.802906327366495"><ele>282.3333333333333</ele><time>2026-05-04T09:35:10.999Z</time></trkpt><trkpt lat="37.66834201296334" lon="14.80291631169532"><ele>281.6666666666667</ele><time>2026-05-04T09:35:11.999Z</time></trkpt><trkpt lat="37.66818293937513" lon="14.802904161539987"><ele>281.0</ele><time>2026-05-04T09:35:12.999Z</time></trkpt><trkpt lat="37.668016229504794" lon="14.80285650674287"><ele>281.0</ele><time>2026-05-04T09:35:13.999Z</time></trkpt><trkpt lat="37.667842380757556" lon="14.802800508796746"><ele>281.0</ele><time>2026-05-04T09:35:14.999Z</time></trkpt><trkpt lat="37.66767343231975" lon="14.802730633496031"><ele>281.0</ele><time>2026-05-04T09:35:15.999Z</time></trkpt><trkpt lat="37.667504086749894" lon="14.802640446538808"><ele>279.6666666666667</ele><time>2026-05-04T09:35:16.999Z</time></trkpt><trkpt lat="37.66733598634848" lon="14.802527524315"><ele>278.3333333333333</ele><time>2026-05-04T09:35:17.999Z</time></trkpt><trkpt lat="37.667179232132405" lon="14.80240444416424"><ele>277.0</ele><time>2026-05-04T09:35:18.999Z</time></trkpt><trkpt lat="37.66704021074596" lon="14.802252477699511"><ele>277.0</ele><time>2026-05-04T09:35:19.999Z</time></trkpt><trkpt lat="37.6669145083131" lon="14.802087536059963"><ele>277.0</ele><time>2026-05-04T09:35:20.999Z</time></trkpt><trkpt lat="37.66679238433043" lon="14.801932805030425"><ele>277.0</ele><time>2026-05-04T09:35:21.999Z</time></trkpt><trkpt lat="37.666680530165685" lon="14.801789591213897"><ele>277.0</ele><time>2026-05-04T09:35:22.999Z</time></trkpt><trkpt lat="37.66655829700056" lon="14.80166666575957"><ele>277.0</ele><time>2026-05-04T09:35:23.999Z</time></trkpt><trkpt lat="37.6664238468925" lon="14.801569040822137"><ele>277.0</ele><time>2026-05-04T09:35:24.999Z</time></trkpt><trkpt lat="37.66627079282477" lon="14.801506099741259"><ele>276.66666666666663</ele><time>2026-05-04T09:35:25.999Z</time></trkpt><trkpt lat="37.6661061795017" lon="14.801503242020702"><ele>276.3333333333333</ele><time>2026-05-04T09:35:26.999Z</time></trkpt><trkpt lat="37.66594111719937" lon="14.801556042797401"><ele>276.0</ele><time>2026-05-04T09:35:27.999Z</time></trkpt><trkpt lat="37.66577555794374" lon="14.80163724153739"><ele>276.0</ele><time>2026-05-04T09:35:28.999Z</time></trkpt><trkpt lat="37.66560000590345" lon="14.801680126700418"><ele>276.0</ele><time>2026-05-04T09:35:29.999Z</time></trkpt><trkpt lat="37.665426912732705" lon="14.801737607546318"><ele>276.0</ele><time>2026-05-04T09:35:30.999Z</time></trkpt><trkpt lat="37.66525287397956" lon="14.801795735092117"><ele>275.0</ele><time>2026-05-04T09:35:31.999Z</time></trkpt><trkpt lat="37.66509285179592" lon="14.801864506440456"><ele>274.0</ele><time>2026-05-04T09:35:32.999Z</time></trkpt><trkpt lat="37.66494510321267" lon="14.801935409616233"><ele>273.0</ele><time>2026-05-04T09:35:33.999Z</time></trkpt><trkpt lat="37.664796133548585" lon="14.80200498860756"><ele>273.0</ele><time>2026-05-04T09:35:34.999Z</time></trkpt><trkpt lat="37.66465375107264" lon="14.802063762608581"><ele>273.0</ele><time>2026-05-04T09:35:35.999Z</time></trkpt><trkpt lat="37.664513602655006" lon="14.8020815446464"><ele>273.0</ele><time>2026-05-04T09:35:36.999Z</time></trkpt><trkpt lat="37.66438096324776" lon="14.802044646327039"><ele>273.0</ele><time>2026-05-04T09:35:37.999Z</time></trkpt><trkpt lat="37.6642596437763" lon="14.801966420563488"><ele>271.6666666666667</ele><time>2026-05-04T09:35:38.999Z</time></trkpt><trkpt lat="37.66412797592183" lon="14.801876818742112"><ele>270.33333333333337</ele><time>2026-05-04T09:35:39.999Z</time></trkpt><trkpt lat="37.664001212125704" lon="14.801789283391155"><ele>269.0</ele><time>2026-05-04T09:35:40.999Z</time></trkpt><trkpt lat="37.663854689969874" lon="14.801685909203593"><ele>269.0</ele><time>2026-05-04T09:35:41.999Z</time></trkpt><trkpt lat="37.663714145972676" lon="14.80157959720861"><ele>269.0</ele><time>2026-05-04T09:35:42.999Z</time></trkpt><trkpt lat="37.663565195634405" lon="14.801470422323003"><ele>269.0</ele><time>2026-05-04T09:35:43.999Z</time></trkpt><trkpt lat="37.66340988802226" lon="14.80135612437985"><ele>268.0</ele><time>2026-05-04T09:35:44.999Z</time></trkpt><trkpt lat="37.663247973537544" lon="14.801269039845044"><ele>267.0</ele><time>2026-05-04T09:35:45.999Z</time></trkpt><trkpt lat="37.66307242113706" lon="14.801188352125518"><ele>266.0</ele><time>2026-05-04T09:35:46.999Z</time></trkpt><trkpt lat="37.66289041840009" lon="14.801121761527616"><ele>265.0</ele><time>2026-05-04T09:35:47.999Z</time></trkpt><trkpt lat="37.66270589824673" lon="14.801055274964648"><ele>264.0</ele><time>2026-05-04T09:35:48.999Z</time></trkpt><trkpt lat="37.662514190452235" lon="14.801001624610866"><ele>263.0</ele><time>2026-05-04T09:35:49.999Z</time></trkpt><trkpt lat="37.6623370701778" lon="14.800974714954693"><ele>263.0</ele><time>2026-05-04T09:35:50.999Z</time></trkpt><trkpt lat="37.66217292798394" lon="14.801000646656682"><ele>263.0</ele><time>2026-05-04T09:35:51.999Z</time></trkpt><trkpt lat="37.66200390898984" lon="14.801046454597543"><ele>263.0</ele><time>2026-05-04T09:35:52.999Z</time></trkpt><trkpt lat="37.66182575002022" lon="14.80108079878307"><ele>262.0</ele><time>2026-05-04T09:35:53.999Z</time></trkpt><trkpt lat="37.66164937377145" lon="14.801131340111116"><ele>261.0</ele><time>2026-05-04T09:35:54.999Z</time></trkpt><trkpt lat="37.66146700096644" lon="14.80118594248731"><ele>260.0</ele><time>2026-05-04T09:35:55.999Z</time></trkpt><trkpt lat="37.66128010846897" lon="14.801239104403157"><ele>259.0</ele><time>2026-05-04T09:35:56.999Z</time></trkpt><trkpt lat="37.661091278595" lon="14.801277350632374"><ele>258.0</ele><time>2026-05-04T09:35:57.999Z</time></trkpt><trkpt lat="37.66089594001687" lon="14.801289833160274"><ele>257.0</ele><time>2026-05-04T09:35:58.999Z</time></trkpt><trkpt lat="37.660699531722024" lon="14.801272192092947"><ele>257.0</ele><time>2026-05-04T09:35:59.999Z</time></trkpt><trkpt lat="37.66050375775641" lon="14.8012376627769"><ele>257.0</ele><time>2026-05-04T09:36:01Z</time></trkpt><trkpt lat="37.660300079367836" lon="14.801217987720078"><ele>257.0</ele><time>2026-05-04T09:36:02Z</time></trkpt><trkpt lat="37.66010550964109" lon="14.801156055094989"><ele>256.6666666666667</ele><time>2026-05-04T09:36:03Z</time></trkpt><trkpt lat="37.659905960278664" lon="14.801120219951974"><ele>256.3333333333333</ele><time>2026-05-04T09:36:04Z</time></trkpt><trkpt lat="37.65970239855844" lon="14.801080257513451"><ele>256.0</ele><time>2026-05-04T09:36:05Z</time></trkpt><trkpt lat="37.65949579930034" lon="14.801064599360197"><ele>255.33333333333331</ele><time>2026-05-04T09:36:06Z</time></trkpt><trkpt lat="37.65929743347687" lon="14.801026052947009"><ele>254.66666666666669</ele><time>2026-05-04T09:36:07Z</time></trkpt><trkpt lat="37.65911266680251" lon="14.800975747452481"><ele>254.0</ele><time>2026-05-04T09:36:08Z</time></trkpt><trkpt lat="37.65893592771309" lon="14.800959316847404"><ele>254.0</ele><time>2026-05-04T09:36:09Z</time></trkpt><trkpt lat="37.65876359022731" lon="14.800977482310472"><ele>254.0</ele><time>2026-05-04T09:36:10Z</time></trkpt><trkpt lat="37.65859181549721" lon="14.80098631336328"><ele>254.0</ele><time>2026-05-04T09:36:11Z</time></trkpt><trkpt lat="37.65841258161543" lon="14.801010273262785"><ele>253.0</ele><time>2026-05-04T09:36:12Z</time></trkpt><trkpt lat="37.65823154398394" lon="14.801047569247036"><ele>252.0</ele><time>2026-05-04T09:36:13Z</time></trkpt><trkpt lat="37.65805518697683" lon="14.80110927295639"><ele>251.0</ele><time>2026-05-04T09:36:13.998Z</time></trkpt><trkpt lat="37.65789102508727" lon="14.801174568843448"><ele>250.33333333333334</ele><time>2026-05-04T09:36:14.998Z</time></trkpt><trkpt lat="37.65772960231829" lon="14.80121214301433"><ele>249.66666666666669</ele><time>2026-05-04T09:36:15.998Z</time></trkpt><trkpt lat="37.65758379262952" lon="14.801260499237715"><ele>249.0</ele><time>2026-05-04T09:36:16.998Z</time></trkpt><trkpt lat="37.65745567306351" lon="14.80132673004019"><ele>249.0</ele><time>2026-05-04T09:36:17.998Z</time></trkpt><trkpt lat="37.657339055909574" lon="14.801365180343078"><ele>249.0</ele><time>2026-05-04T09:36:18.998Z</time></trkpt><trkpt lat="37.657237163570386" lon="14.801395796112756"><ele>249.0</ele><time>2026-05-04T09:36:19.998Z</time></trkpt><trkpt lat="37.65716669245546" lon="14.801429201585776"><ele>249.0</ele><time>2026-05-04T09:36:20.998Z</time></trkpt><trkpt lat="37.65701573046958" lon="14.801324575541924"><ele>248.25</ele><time>2026-05-04T09:36:22.998Z</time></trkpt><trkpt lat="37.6569177949302" lon="14.801251681564082"><ele>247.5</ele><time>2026-05-04T09:36:23.998Z</time></trkpt><trkpt lat="37.65680754254621" lon="14.801181569077412"><ele>246.75</ele><time>2026-05-04T09:36:24.998Z</time></trkpt><trkpt lat="37.65669445499712" lon="14.801082286001812"><ele>246.0</ele><time>2026-05-04T09:36:25.998Z</time></trkpt><trkpt lat="37.65657332629834" lon="14.8009782674186"><ele>246.0</ele><time>2026-05-04T09:36:26.998Z</time></trkpt><trkpt lat="37.6564454242839" lon="14.800869591810558"><ele>246.0</ele><time>2026-05-04T09:36:27.998Z</time></trkpt><trkpt lat="37.65630099491104" lon="14.800749988967924"><ele>246.0</ele><time>2026-05-04T09:36:28.998Z</time></trkpt><trkpt lat="37.65615233574261" lon="14.800625316901634"><ele>244.33333333333331</ele><time>2026-05-04T09:36:29.999Z</time></trkpt><trkpt lat="37.6559989521059" lon="14.800494287815093"><ele>242.66666666666666</ele><time>2026-05-04T09:36:30.999Z</time></trkpt><trkpt lat="37.65584761444778" lon="14.800365504248207"><ele>241.0</ele><time>2026-05-04T09:36:31.999Z</time></trkpt><trkpt lat="37.65570565290168" lon="14.800222545802809"><ele>241.33333333333331</ele><time>2026-05-04T09:36:32.999Z</time></trkpt><trkpt lat="37.65554809212849" lon="14.800113744122202"><ele>241.66666666666669</ele><time>2026-05-04T09:36:33.999Z</time></trkpt><trkpt lat="37.655403861592994" lon="14.799986607739797"><ele>242.0</ele><time>2026-05-04T09:36:34.999Z</time></trkpt><trkpt lat="37.65526680228501" lon="14.799863214268111"><ele>240.66666666666669</ele><time>2026-05-04T09:36:35.999Z</time></trkpt><trkpt lat="37.65513222190315" lon="14.799747087095717"><ele>239.33333333333331</ele><time>2026-05-04T09:36:36.999Z</time></trkpt><trkpt lat="37.65499559093607" lon="14.799634784157199"><ele>238.0</ele><time>2026-05-04T09:36:37.999Z</time></trkpt><trkpt lat="37.65486509052996" lon="14.799530862005"><ele>238.0</ele><time>2026-05-04T09:36:38.999Z</time></trkpt><trkpt lat="37.65474648383806" lon="14.799406710745782"><ele>238.0</ele><time>2026-05-04T09:36:39.999Z</time></trkpt><trkpt lat="37.6546223243242" lon="14.799326156329707"><ele>238.0</ele><time>2026-05-04T09:36:40.999Z</time></trkpt><trkpt lat="37.654515349265154" lon="14.799237338022676"><ele>238.0</ele><time>2026-05-04T09:36:41.999Z</time></trkpt><trkpt lat="37.6544243104218" lon="14.79916235584279"><ele>237.25</ele><time>2026-05-04T09:36:42.999Z</time></trkpt><trkpt lat="37.654359030387916" lon="14.799098012623167"><ele>236.5</ele><time>2026-05-04T09:36:43.999Z</time></trkpt><trkpt lat="37.65428972854718" lon="14.799013265715837"><ele>235.75</ele><time>2026-05-04T09:36:45.999Z</time></trkpt><trkpt lat="37.65416132639255" lon="14.79918105818349"><ele>235.0</ele><time>2026-05-04T09:36:46.999Z</time></trkpt><trkpt lat="37.654095165413906" lon="14.79928413452145"><ele>234.75</ele><time>2026-05-04T09:36:47.999Z</time></trkpt><trkpt lat="37.65402232830457" lon="14.799400822239203"><ele>234.5</ele><time>2026-05-04T09:36:48.999Z</time></trkpt><trkpt lat="37.65393593374133" lon="14.799520363498889"><ele>234.25</ele><time>2026-05-04T09:36:49.999Z</time></trkpt><trkpt lat="37.653834300466144" lon="14.79965118082317"><ele>234.0</ele><time>2026-05-04T09:36:50.999Z</time></trkpt><trkpt lat="37.65372558613647" lon="14.79979642943391"><ele>234.33333333333331</ele><time>2026-05-04T09:36:51.999Z</time></trkpt><trkpt lat="37.65360610198186" lon="14.799953072652928"><ele>234.66666666666666</ele><time>2026-05-04T09:36:52.999Z</time></trkpt><trkpt lat="37.65347636770813" lon="14.800114415563108"><ele>235.0</ele><time>2026-05-04T09:36:53.999Z</time></trkpt><trkpt lat="37.65333712174341" lon="14.80029021540604"><ele>235.33333333333331</ele><time>2026-05-04T09:36:54.999Z</time></trkpt><trkpt lat="37.65318876556495" lon="14.800474444230085"><ele>235.66666666666669</ele><time>2026-05-04T09:36:55.999Z</time></trkpt><trkpt lat="37.65303607606758" lon="14.800664987002877"><ele>236.0</ele><time>2026-05-04T09:36:56.999Z</time></trkpt><trkpt lat="37.652886558813876" lon="14.800857315104572"><ele>236.0</ele><time>2026-05-04T09:36:57.999Z</time></trkpt><trkpt lat="37.65273696146733" lon="14.801047597678062"><ele>236.0</ele><time>2026-05-04T09:36:58.999Z</time></trkpt><trkpt lat="37.65257476550204" lon="14.801212981389755"><ele>236.0</ele><time>2026-05-04T09:36:59.999Z</time></trkpt><trkpt lat="37.65243631931331" lon="14.801386172398448"><ele>236.0</ele><time>2026-05-04T09:37:00.999Z</time></trkpt><trkpt lat="37.652313385931514" lon="14.801539957601765"><ele>236.0</ele><time>2026-05-04T09:37:02Z</time></trkpt><trkpt lat="37.652201385833706" lon="14.801680065571647"><ele>236.0</ele><time>2026-05-04T09:37:03Z</time></trkpt><trkpt lat="37.652095068428245" lon="14.801813064707806"><ele>235.0</ele><time>2026-05-04T09:37:04Z</time></trkpt><trkpt lat="37.65198443703559" lon="14.801951460525757"><ele>234.0</ele><time>2026-05-04T09:37:05Z</time></trkpt><trkpt lat="37.65187120504023" lon="14.802093109527002"><ele>233.0</ele><time>2026-05-04T09:37:06Z</time></trkpt><trkpt lat="37.65175226794725" lon="14.802241895465118"><ele>233.0</ele><time>2026-05-04T09:37:07Z</time></trkpt><trkpt lat="37.651631105641435" lon="14.80239346571943"><ele>233.0</ele><time>2026-05-04T09:37:08Z</time></trkpt><trkpt lat="37.65150731885111" lon="14.802548429329475"><ele>233.0</ele><time>2026-05-04T09:37:09Z</time></trkpt><trkpt lat="37.65137968381456" lon="14.802708207720428"><ele>233.0</ele><time>2026-05-04T09:37:10Z</time></trkpt><trkpt lat="37.651253299716764" lon="14.802866420080687"><ele>233.0</ele><time>2026-05-04T09:37:11Z</time></trkpt><trkpt lat="37.65111962152904" lon="14.80303376367105"><ele>233.0</ele><time>2026-05-04T09:37:12Z</time></trkpt><trkpt lat="37.65098565714969" lon="14.803201465229261"><ele>232.0</ele><time>2026-05-04T09:37:13Z</time></trkpt><trkpt lat="37.65085298036919" lon="14.803367555133248"><ele>231.0</ele><time>2026-05-04T09:37:14Z</time></trkpt><trkpt lat="37.650720320841394" lon="14.803533623401364"><ele>230.0</ele><time>2026-05-04T09:37:15Z</time></trkpt><trkpt lat="37.650580417674846" lon="14.80370875960153"><ele>230.0</ele><time>2026-05-04T09:37:16Z</time></trkpt><trkpt lat="37.650425163516864" lon="14.803902930589675"><ele>230.0</ele><time>2026-05-04T09:37:17Z</time></trkpt><trkpt lat="37.65025148066043" lon="14.804117865337764"><ele>229.5</ele><time>2026-05-04T09:37:18Z</time></trkpt><trkpt lat="37.650064446035934" lon="14.80434968979816"><ele>229.0</ele><time>2026-05-04T09:37:19Z</time></trkpt><trkpt lat="37.64987017653305" lon="14.80459074098959"><ele>229.0</ele><time>2026-05-04T09:37:20Z</time></trkpt><trkpt lat="37.64970062233489" lon="14.804842597624516"><ele>229.0</ele><time>2026-05-04T09:37:21Z</time></trkpt><trkpt lat="37.64953781127756" lon="14.805086199901746"><ele>228.0</ele><time>2026-05-04T09:37:22Z</time></trkpt><trkpt lat="37.649396077703095" lon="14.805331929616985"><ele>227.0</ele><time>2026-05-04T09:37:23Z</time></trkpt><trkpt lat="37.649281026650684" lon="14.805576139698392"><ele>227.0</ele><time>2026-05-04T09:37:24Z</time></trkpt><trkpt lat="37.64917297093816" lon="14.805817500310386"><ele>227.0</ele><time>2026-05-04T09:37:25Z</time></trkpt><trkpt lat="37.64906073522575" lon="14.806058457287495"><ele>227.0</ele><time>2026-05-04T09:37:26Z</time></trkpt><trkpt lat="37.64894471066999" lon="14.806293714529076"><ele>227.66666666666669</ele><time>2026-05-04T09:37:27Z</time></trkpt><trkpt lat="37.64882927705035" lon="14.806527256757324"><ele>228.33333333333331</ele><time>2026-05-04T09:37:28Z</time></trkpt><trkpt lat="37.64871789866831" lon="14.806758735762168"><ele>229.0</ele><time>2026-05-04T09:37:29Z</time></trkpt><trkpt lat="37.648589933459455" lon="14.806983315380014"><ele>228.0</ele><time>2026-05-04T09:37:30Z</time></trkpt><trkpt lat="37.648478296338716" lon="14.807211545506698"><ele>227.0</ele><time>2026-05-04T09:37:31Z</time></trkpt><trkpt lat="37.64837803730343" lon="14.807451423918241"><ele>226.0</ele><time>2026-05-04T09:37:32Z</time></trkpt><trkpt lat="37.648265550239124" lon="14.80767223239276"><ele>226.0</ele><time>2026-05-04T09:37:33Z</time></trkpt><trkpt lat="37.64815035447614" lon="14.807901597692778"><ele>226.0</ele><time>2026-05-04T09:37:34Z</time></trkpt><trkpt lat="37.64804138504119" lon="14.808130371026998"><ele>226.0</ele><time>2026-05-04T09:37:35Z</time></trkpt><trkpt lat="37.64793036605086" lon="14.808364649846656"><ele>226.0</ele><time>2026-05-04T09:37:36Z</time></trkpt><trkpt lat="37.64782194656978" lon="14.808592892770097"><ele>226.0</ele><time>2026-05-04T09:37:37Z</time></trkpt><trkpt lat="37.64770708447161" lon="14.808819513779495"><ele>226.0</ele><time>2026-05-04T09:37:38Z</time></trkpt><trkpt lat="37.64759008957249" lon="14.809042028657867"><ele>223.5</ele><time>2026-05-04T09:37:39Z</time></trkpt><trkpt lat="37.647480853941445" lon="14.809265305719832"><ele>221.0</ele><time>2026-05-04T09:37:40Z</time></trkpt><trkpt lat="37.64758552931325" lon="14.809657807139937"><ele>221.0</ele><time>2026-05-04T09:37:41Z</time></trkpt><trkpt lat="37.64747525384978" lon="14.809887072373767"><ele>221.0</ele><time>2026-05-04T09:37:42Z</time></trkpt><trkpt lat="37.64736607727479" lon="14.810114052997099"><ele>221.0</ele><time>2026-05-04T09:37:43Z</time></trkpt><trkpt lat="37.64724690614108" lon="14.810331496709109"><ele>220.0</ele><time>2026-05-04T09:37:44Z</time></trkpt><trkpt lat="37.64693349400916" lon="14.810402426181653"><ele>219.0</ele><time>2026-05-04T09:37:45Z</time></trkpt><trkpt lat="37.64681988415669" lon="14.810626783314449"><ele>219.0</ele><time>2026-05-04T09:37:46Z</time></trkpt><trkpt lat="37.64669829298684" lon="14.810842089668293"><ele>219.0</ele><time>2026-05-04T09:37:47Z</time></trkpt><trkpt lat="37.64660919950449" lon="14.81108063178126"><ele>219.0</ele><time>2026-05-04T09:37:48Z</time></trkpt><trkpt lat="37.64649718335747" lon="14.811301373719855"><ele>219.66666666666669</ele><time>2026-05-04T09:37:49Z</time></trkpt><trkpt lat="37.64638420627927" lon="14.811527244560889"><ele>220.33333333333334</ele><time>2026-05-04T09:37:50Z</time></trkpt><trkpt lat="37.646276528217406" lon="14.811745357418204"><ele>221.0</ele><time>2026-05-04T09:37:51Z</time></trkpt><trkpt lat="37.64617535568826" lon="14.811949336130398"><ele>218.33333333333334</ele><time>2026-05-04T09:37:52Z</time></trkpt><trkpt lat="37.646075576873145" lon="14.812161548768964"><ele>215.66666666666669</ele><time>2026-05-04T09:37:53Z</time></trkpt><trkpt lat="37.64598515190131" lon="14.812386515047137"><ele>213.0</ele><time>2026-05-04T09:37:54Z</time></trkpt><trkpt lat="37.645920116489386" lon="14.812626905374279"><ele>214.0</ele><time>2026-05-04T09:37:55Z</time></trkpt><trkpt lat="37.645883944439554" lon="14.812882413928502"><ele>215.0</ele><time>2026-05-04T09:37:56Z</time></trkpt><trkpt lat="37.64586333780849" lon="14.813141245888282"><ele>216.0</ele><time>2026-05-04T09:37:57Z</time></trkpt><trkpt lat="37.645856071874505" lon="14.813400690244713"><ele>216.0</ele><time>2026-05-04T09:37:58Z</time></trkpt><trkpt lat="37.64585747921821" lon="14.81366189057848"><ele>216.0</ele><time>2026-05-04T09:37:59Z</time></trkpt><trkpt lat="37.6458490056701" lon="14.8139203591363"><ele>216.0</ele><time>2026-05-04T09:38:00.001Z</time></trkpt><trkpt lat="37.645809263372115" lon="14.81416934479359"><ele>217.66666666666669</ele><time>2026-05-04T09:38:01.001Z</time></trkpt><trkpt lat="37.6457351641919" lon="14.814405820883955"><ele>219.33333333333334</ele><time>2026-05-04T09:38:02.001Z</time></trkpt><trkpt lat="37.64564434150798" lon="14.814630247741572"><ele>221.0</ele><time>2026-05-04T09:38:03.001Z</time></trkpt><trkpt lat="37.64554097528623" lon="14.814846106916292"><ele>221.0</ele><time>2026-05-04T09:38:04.001Z</time></trkpt><trkpt lat="37.645439537815136" lon="14.81505366907541"><ele>221.0</ele><time>2026-05-04T09:38:05.001Z</time></trkpt><trkpt lat="37.64534256028981" lon="14.815248264136688"><ele>221.0</ele><time>2026-05-04T09:38:06.001Z</time></trkpt><trkpt lat="37.64523874659075" lon="14.815425979654895"><ele>218.66666666666669</ele><time>2026-05-04T09:38:07.001Z</time></trkpt><trkpt lat="37.645131220241375" lon="14.815594291073257"><ele>216.33333333333331</ele><time>2026-05-04T09:38:08.001Z</time></trkpt><trkpt lat="37.64500784260197" lon="14.815751730458251"><ele>214.0</ele><time>2026-05-04T09:38:09.001Z</time></trkpt><trkpt lat="37.64486787140094" lon="14.815903645376274"><ele>217.0</ele><time>2026-05-04T09:38:10.001Z</time></trkpt><trkpt lat="37.64473138726617" lon="14.81605179266152"><ele>220.0</ele><time>2026-05-04T09:38:11.001Z</time></trkpt><trkpt lat="37.64460305120541" lon="14.816200875118499"><ele>223.0</ele><time>2026-05-04T09:38:12.001Z</time></trkpt><trkpt lat="37.64448975639869" lon="14.816367270240894"><ele>218.33333333333331</ele><time>2026-05-04T09:38:13.001Z</time></trkpt><trkpt lat="37.644395739177654" lon="14.816554485909096"><ele>213.66666666666669</ele><time>2026-05-04T09:38:14.001Z</time></trkpt><trkpt lat="37.64432497597365" lon="14.816759347828228"><ele>209.0</ele><time>2026-05-04T09:38:15.001Z</time></trkpt><trkpt lat="37.64429628908249" lon="14.816975221663169"><ele>209.0</ele><time>2026-05-04T09:38:16.001Z</time></trkpt><trkpt lat="37.6442958145692" lon="14.817183602341524"><ele>209.0</ele><time>2026-05-04T09:38:17.001Z</time></trkpt><trkpt lat="37.64431029008097" lon="14.817386628082941"><ele>209.0</ele><time>2026-05-04T09:38:18.001Z</time></trkpt><trkpt lat="37.64429390859499" lon="14.81757193522063"><ele>209.5</ele><time>2026-05-04T09:38:19.001Z</time></trkpt><trkpt lat="37.64423015746283" lon="14.817732641046307"><ele>210.0</ele><time>2026-05-04T09:38:20Z</time></trkpt><trkpt lat="37.64414367257788" lon="14.817870589404247"><ele>210.5</ele><time>2026-05-04T09:38:21Z</time></trkpt><trkpt lat="37.64404096401465" lon="14.81798669409673"><ele>211.0</ele><time>2026-05-04T09:38:22Z</time></trkpt><trkpt lat="37.64390930543226" lon="14.818081115214797"><ele>211.0</ele><time>2026-05-04T09:38:23Z</time></trkpt><trkpt lat="37.64375303085779" lon="14.818158056174099"><ele>211.0</ele><time>2026-05-04T09:38:24Z</time></trkpt><trkpt lat="37.64357509644793" lon="14.818236543009375"><ele>211.0</ele><time>2026-05-04T09:38:25Z</time></trkpt><trkpt lat="37.64338486566017" lon="14.818323076428559"><ele>211.33333333333331</ele><time>2026-05-04T09:38:26Z</time></trkpt><trkpt lat="37.64317997077467" lon="14.818415160245895"><ele>211.66666666666669</ele><time>2026-05-04T09:38:27Z</time></trkpt><trkpt lat="37.642967782686874" lon="14.81850445744408"><ele>212.0</ele><time>2026-05-04T09:38:28Z</time></trkpt><trkpt lat="37.642747349438494" lon="14.818591960047316"><ele>212.0</ele><time>2026-05-04T09:38:29Z</time></trkpt><trkpt lat="37.642529134349395" lon="14.818679684875127"><ele>212.0</ele><time>2026-05-04T09:38:30Z</time></trkpt><trkpt lat="37.64231980549187" lon="14.818778387860352"><ele>212.0</ele><time>2026-05-04T09:38:31Z</time></trkpt><trkpt lat="37.64212041635639" lon="14.818886436969438"><ele>212.0</ele><time>2026-05-04T09:38:32Z</time></trkpt><trkpt lat="37.64193879256372" lon="14.818992424108485"><ele>212.0</ele><time>2026-05-04T09:38:33Z</time></trkpt><trkpt lat="37.64176525579176" lon="14.819099304550397"><ele>213.0</ele><time>2026-05-04T09:38:34Z</time></trkpt><trkpt lat="37.641604822819545" lon="14.81923193555337"><ele>214.0</ele><time>2026-05-04T09:38:35Z</time></trkpt><trkpt lat="37.64144530825088" lon="14.819392924414428"><ele>215.0</ele><time>2026-05-04T09:38:36Z</time></trkpt><trkpt lat="37.64129741113684" lon="14.819568338163984"><ele>215.0</ele><time>2026-05-04T09:38:37Z</time></trkpt><trkpt lat="37.64117158609697" lon="14.819770355540577"><ele>215.0</ele><time>2026-05-04T09:38:38Z</time></trkpt><trkpt lat="37.64107141409367" lon="14.820001646012281"><ele>215.0</ele><time>2026-05-04T09:38:39Z</time></trkpt><trkpt lat="37.64098041690462" lon="14.820247967782676"><ele>210.0</ele><time>2026-05-04T09:38:40Z</time></trkpt><trkpt lat="37.640896924466816" lon="14.820513929445644"><ele>205.0</ele><time>2026-05-04T09:38:41Z</time></trkpt><trkpt lat="37.64082799145973" lon="14.820805805216041"><ele>206.5</ele><time>2026-05-04T09:38:42Z</time></trkpt><trkpt lat="37.64076612564346" lon="14.821105221082073"><ele>208.0</ele><time>2026-05-04T09:38:43Z</time></trkpt><trkpt lat="37.64069099742371" lon="14.821403623834003"><ele>208.0</ele><time>2026-05-04T09:38:44Z</time></trkpt><trkpt lat="37.64061565290159" lon="14.82169922897397"><ele>208.0</ele><time>2026-05-04T09:38:45Z</time></trkpt><trkpt lat="37.64054195232075" lon="14.8219949873462"><ele>209.0</ele><time>2026-05-04T09:38:46Z</time></trkpt><trkpt lat="37.64047048940289" lon="14.822279590368703"><ele>210.0</ele><time>2026-05-04T09:38:47Z</time></trkpt><trkpt lat="37.640400580827205" lon="14.82254306273671"><ele>211.0</ele><time>2026-05-04T09:38:48Z</time></trkpt><trkpt lat="37.64033798906056" lon="14.822795385072434"><ele>212.0</ele><time>2026-05-04T09:38:49Z</time></trkpt><trkpt lat="37.640281301074786" lon="14.823044963274903"><ele>213.0</ele><time>2026-05-04T09:38:50Z</time></trkpt><trkpt lat="37.64022593830264" lon="14.823297283760262"><ele>210.33333333333331</ele><time>2026-05-04T09:38:51Z</time></trkpt><trkpt lat="37.64018750122853" lon="14.823547437845214"><ele>207.66666666666666</ele><time>2026-05-04T09:38:52Z</time></trkpt><trkpt lat="37.64016976363267" lon="14.823803313174045"><ele>205.0</ele><time>2026-05-04T09:38:53Z</time></trkpt><trkpt lat="37.64016550612309" lon="14.824059514351413"><ele>206.0</ele><time>2026-05-04T09:38:54Z</time></trkpt><trkpt lat="37.640165163396425" lon="14.8243211505699"><ele>207.0</ele><time>2026-05-04T09:38:55Z</time></trkpt><trkpt lat="37.64014547590564" lon="14.824584510656335"><ele>208.0</ele><time>2026-05-04T09:38:56Z</time></trkpt><trkpt lat="37.64013787867174" lon="14.824848129225602"><ele>208.0</ele><time>2026-05-04T09:38:57Z</time></trkpt><trkpt lat="37.64014153415698" lon="14.825116922973987"><ele>208.0</ele><time>2026-05-04T09:38:58Z</time></trkpt><trkpt lat="37.640130591392555" lon="14.825377351937012"><ele>208.0</ele><time>2026-05-04T09:38:59Z</time></trkpt><trkpt lat="37.640121028708286" lon="14.825643082677882"><ele>208.0</ele><time>2026-05-04T09:39:00Z</time></trkpt><trkpt lat="37.64011921315565" lon="14.825903253377971"><ele>208.0</ele><time>2026-05-04T09:39:01Z</time></trkpt><trkpt lat="37.64011853981131" lon="14.826158321496111"><ele>208.0</ele><time>2026-05-04T09:39:02Z</time></trkpt><trkpt lat="37.64009328803705" lon="14.826395446323676"><ele>208.33333333333331</ele><time>2026-05-04T09:39:03Z</time></trkpt><trkpt lat="37.640087260813054" lon="14.826613747372285"><ele>208.66666666666669</ele><time>2026-05-04T09:39:04Z</time></trkpt><trkpt lat="37.64008109538138" lon="14.826819861847301"><ele>209.0</ele><time>2026-05-04T09:39:05Z</time></trkpt><trkpt lat="37.64007041406842" lon="14.827010688645037"><ele>209.75</ele><time>2026-05-04T09:39:06Z</time></trkpt><trkpt lat="37.640040187903764" lon="14.827193434406405"><ele>210.5</ele><time>2026-05-04T09:39:07Z</time></trkpt><trkpt lat="37.63999341329918" lon="14.827361433584803"><ele>211.25</ele><time>2026-05-04T09:39:08Z</time></trkpt><trkpt lat="37.639907980423416" lon="14.827518569662411"><ele>212.0</ele><time>2026-05-04T09:39:09Z</time></trkpt><trkpt lat="37.63979447233973" lon="14.827649134452225"><ele>213.66666666666669</ele><time>2026-05-04T09:39:10Z</time></trkpt><trkpt lat="37.639662587632614" lon="14.82774920751233"><ele>215.33333333333331</ele><time>2026-05-04T09:39:11Z</time></trkpt><trkpt lat="37.63952145644024" lon="14.827833976151329"><ele>217.0</ele><time>2026-05-04T09:39:12Z</time></trkpt><trkpt lat="37.63937785941881" lon="14.827889934993049"><ele>218.0</ele><time>2026-05-04T09:39:13Z</time></trkpt><trkpt lat="37.63923152251737" lon="14.82791431331896"><ele>219.0</ele><time>2026-05-04T09:39:14.001Z</time></trkpt><trkpt lat="37.639090431606476" lon="14.827896870398558"><ele>220.0</ele><time>2026-05-04T09:39:15.001Z</time></trkpt><trkpt lat="37.63896667746885" lon="14.827834057189468"><ele>221.0</ele><time>2026-05-04T09:39:16.001Z</time></trkpt><trkpt lat="37.638872644662484" lon="14.827722119074952"><ele>219.0</ele><time>2026-05-04T09:39:17.001Z</time></trkpt><trkpt lat="37.638853955423606" lon="14.827557751510568"><ele>217.0</ele><time>2026-05-04T09:39:18.001Z</time></trkpt><trkpt lat="37.638786979992425" lon="14.827422114398713"><ele>215.0</ele><time>2026-05-04T09:39:19.001Z</time></trkpt><trkpt lat="37.638712787592006" lon="14.827278836926764"><ele>213.0</ele><time>2026-05-04T09:39:20.001Z</time></trkpt><trkpt lat="37.638605054651514" lon="14.82715015453654"><ele>213.0</ele><time>2026-05-04T09:39:21.001Z</time></trkpt><trkpt lat="37.6384707889818" lon="14.827042767704274"><ele>213.0</ele><time>2026-05-04T09:39:22.001Z</time></trkpt><trkpt lat="37.638319747224635" lon="14.826949972438326"><ele>213.0</ele><time>2026-05-04T09:39:23.001Z</time></trkpt><trkpt lat="37.6381598211999" lon="14.826880706449371"><ele>213.0</ele><time>2026-05-04T09:39:24.001Z</time></trkpt><trkpt lat="37.63799070465822" lon="14.82683709453296"><ele>213.0</ele><time>2026-05-04T09:39:25.001Z</time></trkpt><trkpt lat="37.63783525966822" lon="14.82681911437506"><ele>213.0</ele><time>2026-05-04T09:39:26.001Z</time></trkpt><trkpt lat="37.637719684202736" lon="14.826824767776195"><ele>213.0</ele><time>2026-05-04T09:39:27.001Z</time></trkpt><trkpt lat="37.637628460691126" lon="14.826869730986694"><ele>212.5</ele><time>2026-05-04T09:39:28.001Z</time></trkpt><trkpt lat="37.63754217367127" lon="14.826957811379275"><ele>212.0</ele><time>2026-05-04T09:39:29.001Z</time></trkpt><trkpt lat="37.63745009216386" lon="14.827075105770152"><ele>211.5</ele><time>2026-05-04T09:39:30.001Z</time></trkpt><trkpt lat="37.63734530817972" lon="14.827175519312565"><ele>211.0</ele><time>2026-05-04T09:39:31.001Z</time></trkpt><trkpt lat="37.637258422121675" lon="14.827253438886773"><ele>211.0</ele><time>2026-05-04T09:39:32.001Z</time></trkpt><trkpt lat="37.63716681973166" lon="14.82729603882242"><ele>211.0</ele><time>2026-05-04T09:39:33.001Z</time></trkpt><trkpt lat="37.637069151572305" lon="14.82727112548414"><ele>211.0</ele><time>2026-05-04T09:39:34.001Z</time></trkpt><trkpt lat="37.63696386939713" lon="14.827211290812293"><ele>211.0</ele><time>2026-05-04T09:39:35.001Z</time></trkpt><trkpt lat="37.63686321195778" lon="14.827110842051628"><ele>211.0</ele><time>2026-05-04T09:39:36.001Z</time></trkpt><trkpt lat="37.636816200412575" lon="14.826984653877696"><ele>210.0</ele><time>2026-05-04T09:39:37.001Z</time></trkpt><trkpt lat="37.63678413653994" lon="14.826858903415525"><ele>209.0</ele><time>2026-05-04T09:39:38.001Z</time></trkpt><trkpt lat="37.63678386771692" lon="14.826734662072786"><ele>208.0</ele><time>2026-05-04T09:39:39.001Z</time></trkpt><trkpt lat="37.63680551714807" lon="14.82660785045165"><ele>207.0</ele><time>2026-05-04T09:39:40.001Z</time></trkpt><trkpt lat="37.636848251795435" lon="14.826485411422627"><ele>206.0</ele><time>2026-05-04T09:39:41.001Z</time></trkpt><trkpt lat="37.636875066694174" lon="14.826344222789048"><ele>202.25</ele><time>2026-05-04T09:39:42.001Z</time></trkpt><trkpt lat="37.63691998471254" lon="14.826204092513267"><ele>198.5</ele><time>2026-05-04T09:39:43.001Z</time></trkpt><trkpt lat="37.63695800941471" lon="14.82605993614227"><ele>194.75</ele><time>2026-05-04T09:39:44.001Z</time></trkpt><trkpt lat="37.63699245870399" lon="14.825917635407082"><ele>191.0</ele><time>2026-05-04T09:39:45.001Z</time></trkpt><trkpt lat="37.637007192100285" lon="14.825778212509904"><ele>191.0</ele><time>2026-05-04T09:39:46.001Z</time></trkpt><trkpt lat="37.637000378360966" lon="14.825634431191565"><ele>191.0</ele><time>2026-05-04T09:39:47.001Z</time></trkpt><trkpt lat="37.63699172203287" lon="14.825489870432873"><ele>191.0</ele><time>2026-05-04T09:39:48.001Z</time></trkpt><trkpt lat="37.636965361221215" lon="14.825350433235293"><ele>191.0</ele><time>2026-05-04T09:39:49.001Z</time></trkpt><trkpt lat="37.636911374657174" lon="14.825221553935053"><ele>185.75</ele><time>2026-05-04T09:39:50.001Z</time></trkpt><trkpt lat="37.63682584279526" lon="14.825118749184348"><ele>180.5</ele><time>2026-05-04T09:39:51.001Z</time></trkpt><trkpt lat="37.636724101423965" lon="14.825034035438883"><ele>175.25</ele><time>2026-05-04T09:39:52.001Z</time></trkpt><trkpt lat="37.63664234981608" lon="14.824931046275282"><ele>170.0</ele><time>2026-05-04T09:39:53.001Z</time></trkpt><trkpt lat="37.63654539173673" lon="14.824851097220103"><ele>170.0</ele><time>2026-05-04T09:39:54.001Z</time></trkpt><trkpt lat="37.63646294858076" lon="14.824748249633352"><ele>170.0</ele><time>2026-05-04T09:39:55.001Z</time></trkpt><trkpt lat="37.63638670472728" lon="14.8246345586209"><ele>170.0</ele><time>2026-05-04T09:39:56.001Z</time></trkpt><trkpt lat="37.63631632084237" lon="14.824520285884468"><ele>170.0</ele><time>2026-05-04T09:39:57.001Z</time></trkpt><trkpt lat="37.6362544277177" lon="14.824412179811352"><ele>169.2</ele><time>2026-05-04T09:39:58.001Z</time></trkpt><trkpt lat="37.636198001848825" lon="14.824306982708732"><ele>168.4</ele><time>2026-05-04T09:39:59.001Z</time></trkpt><trkpt lat="37.63614055181269" lon="14.824215503760993"><ele>167.60000000000002</ele><time>2026-05-04T09:40:00.001Z</time></trkpt><trkpt lat="37.63609537585934" lon="14.824136985092732"><ele>166.8</ele><time>2026-05-04T09:40:01.001Z</time></trkpt><trkpt lat="37.636054489246625" lon="14.824067689634402"><ele>166.0</ele><time>2026-05-04T09:40:02.001Z</time></trkpt><trkpt lat="37.63597667780429" lon="14.823936646057918"><ele>164.60000000000002</ele><time>2026-05-04T09:40:04.001Z</time></trkpt><trkpt lat="37.63593620793853" lon="14.823837472091892"><ele>163.20000000000002</ele><time>2026-05-04T09:40:05.001Z</time></trkpt><trkpt lat="37.635877979940965" lon="14.823760172816373"><ele>161.8</ele><time>2026-05-04T09:40:06.001Z</time></trkpt><trkpt lat="37.63581892142332" lon="14.823661899145948"><ele>160.4</ele><time>2026-05-04T09:40:07.001Z</time></trkpt><trkpt lat="37.6357571976402" lon="14.823553485131495"><ele>159.0</ele><time>2026-05-04T09:40:08.001Z</time></trkpt><trkpt lat="37.635691792507664" lon="14.823439186567217"><ele>159.0</ele><time>2026-05-04T09:40:09.001Z</time></trkpt><trkpt lat="37.63562115922217" lon="14.823321780889865"><ele>159.0</ele><time>2026-05-04T09:40:10.001Z</time></trkpt><trkpt lat="37.63554586908102" lon="14.823199602831725"><ele>159.0</ele><time>2026-05-04T09:40:11.001Z</time></trkpt><trkpt lat="37.635466582131045" lon="14.823068220110748"><ele>159.0</ele><time>2026-05-04T09:40:12.001Z</time></trkpt><trkpt lat="37.635382948686534" lon="14.82293069840324"><ele>158.75</ele><time>2026-05-04T09:40:13.001Z</time></trkpt><trkpt lat="37.63529694844444" lon="14.822784892874642"><ele>158.5</ele><time>2026-05-04T09:40:14.001Z</time></trkpt><trkpt lat="37.635207836683534" lon="14.822637526176681"><ele>158.25</ele><time>2026-05-04T09:40:15.001Z</time></trkpt><trkpt lat="37.635117239058424" lon="14.82248382934948"><ele>158.0</ele><time>2026-05-04T09:40:16.001Z</time></trkpt><trkpt lat="37.63502464584774" lon="14.822328781593573"><ele>158.66666666666666</ele><time>2026-05-04T09:40:17.001Z</time></trkpt><trkpt lat="37.63493028464137" lon="14.822167740840401"><ele>159.33333333333334</ele><time>2026-05-04T09:40:18.001Z</time></trkpt><trkpt lat="37.634836846135904" lon="14.822007881432803"><ele>160.0</ele><time>2026-05-04T09:40:19.001Z</time></trkpt><trkpt lat="37.63473728962982" lon="14.821844365976963"><ele>161.0</ele><time>2026-05-04T09:40:20.002Z</time></trkpt><trkpt lat="37.63464301576745" lon="14.821680186686832"><ele>162.0</ele><time>2026-05-04T09:40:21.002Z</time></trkpt><trkpt lat="37.63455031919125" lon="14.821517239336123"><ele>163.0</ele><time>2026-05-04T09:40:22.002Z</time></trkpt><trkpt lat="37.63445330834197" lon="14.821359533397994"><ele>163.0</ele><time>2026-05-04T09:40:23.002Z</time></trkpt><trkpt lat="37.634360870391035" lon="14.82120740823157"><ele>163.0</ele><time>2026-05-04T09:40:24.002Z</time></trkpt><trkpt lat="37.6342712184302" lon="14.821058947443152"><ele>163.0</ele><time>2026-05-04T09:40:25.001Z</time></trkpt><trkpt lat="37.63417621282027" lon="14.820903485363505"><ele>164.0</ele><time>2026-05-04T09:40:26.001Z</time></trkpt><trkpt lat="37.634075963862216" lon="14.820748665426741"><ele>165.0</ele><time>2026-05-04T09:40:27.001Z</time></trkpt><trkpt lat="37.633970540553946" lon="14.820596537497375"><ele>166.0</ele><time>2026-05-04T09:40:28.001Z</time></trkpt><trkpt lat="37.633861759338195" lon="14.820435780149536"><ele>166.0</ele><time>2026-05-04T09:40:29.001Z</time></trkpt><trkpt lat="37.63375275963707" lon="14.82027762528515"><ele>166.0</ele><time>2026-05-04T09:40:30.001Z</time></trkpt><trkpt lat="37.633640059372325" lon="14.82011820763249"><ele>166.0</ele><time>2026-05-04T09:40:31.001Z</time></trkpt><trkpt lat="37.633521489151136" lon="14.819958595292182"><ele>164.0</ele><time>2026-05-04T09:40:32.001Z</time></trkpt><trkpt lat="37.63339570857621" lon="14.819807595406193"><ele>162.0</ele><time>2026-05-04T09:40:33.001Z</time></trkpt><trkpt lat="37.633264621639995" lon="14.81966881927376"><ele>160.0</ele><time>2026-05-04T09:40:34.001Z</time></trkpt><trkpt lat="37.63313954060619" lon="14.819540120653773"><ele>160.0</ele><time>2026-05-04T09:40:35.001Z</time></trkpt><trkpt lat="37.63302451792762" lon="14.81941829102378"><ele>160.0</ele><time>2026-05-04T09:40:36.001Z</time></trkpt><trkpt lat="37.63291715646733" lon="14.819299903090728"><ele>160.0</ele><time>2026-05-04T09:40:37.001Z</time></trkpt><trkpt lat="37.632808035619064" lon="14.819179286556894"><ele>160.0</ele><time>2026-05-04T09:40:38.001Z</time></trkpt><trkpt lat="37.632692796582255" lon="14.81906246546382"><ele>160.0</ele><time>2026-05-04T09:40:39.001Z</time></trkpt><trkpt lat="37.63257274966633" lon="14.818955044306419"><ele>160.0</ele><time>2026-05-04T09:40:40.001Z</time></trkpt><trkpt lat="37.632430689573944" lon="14.818867622853858"><ele>160.0</ele><time>2026-05-04T09:40:41.001Z</time></trkpt><trkpt lat="37.63227529631841" lon="14.818804285976112"><ele>160.0</ele><time>2026-05-04T09:40:42.001Z</time></trkpt><trkpt lat="37.63211287491668" lon="14.818758005247226"><ele>160.0</ele><time>2026-05-04T09:40:43.001Z</time></trkpt><trkpt lat="37.63195003301465" lon="14.818708354294925"><ele>160.0</ele><time>2026-05-04T09:40:44.001Z</time></trkpt><trkpt lat="37.63178662472854" lon="14.818650944564023"><ele>160.0</ele><time>2026-05-04T09:40:45.001Z</time></trkpt><trkpt lat="37.63163456840146" lon="14.818572380718019"><ele>160.0</ele><time>2026-05-04T09:40:46.001Z</time></trkpt><trkpt lat="37.63147707459442" lon="14.818529643689287"><ele>160.0</ele><time>2026-05-04T09:40:47.001Z</time></trkpt><trkpt lat="37.63133278029797" lon="14.818464900129657"><ele>160.75</ele><time>2026-05-04T09:40:48.001Z</time></trkpt><trkpt lat="37.6311864713484" lon="14.818417915649363"><ele>161.5</ele><time>2026-05-04T09:40:49.001Z</time></trkpt><trkpt lat="37.63105925573509" lon="14.81835545961117"><ele>162.25</ele><time>2026-05-04T09:40:50.001Z</time></trkpt><trkpt lat="37.6309389334056" lon="14.818311219598563"><ele>163.0</ele><time>2026-05-04T09:40:51.001Z</time></trkpt><trkpt lat="37.630826576083145" lon="14.818268779988896"><ele>163.33333333333334</ele><time>2026-05-04T09:40:52.001Z</time></trkpt><trkpt lat="37.630729203379936" lon="14.818232275072788"><ele>163.66666666666669</ele><time>2026-05-04T09:40:53.001Z</time></trkpt><trkpt lat="37.63063943926458" lon="14.818199342239353"><ele>164.0</ele><time>2026-05-04T09:40:54.001Z</time></trkpt><trkpt lat="37.630551145532486" lon="14.818188722222182"><ele>164.33333333333334</ele><time>2026-05-04T09:40:55.001Z</time></trkpt><trkpt lat="37.63048479423011" lon="14.81815621128003"><ele>164.66666666666666</ele><time>2026-05-04T09:40:56.001Z</time></trkpt><trkpt lat="37.63042774747964" lon="14.818082509565498"><ele>165.0</ele><time>2026-05-04T09:40:58.001Z</time></trkpt><trkpt lat="37.630434016251215" lon="14.817827548328173"><ele>165.0</ele><time>2026-05-04T09:41:02.001Z</time></trkpt><trkpt lat="37.63032674242039" lon="14.817884434337405"><ele>165.0</ele><time>2026-05-04T09:41:22.001Z</time></trkpt><trkpt lat="37.63027463305892" lon="14.817930590500952"><ele>165.0</ele><time>2026-05-04T09:41:23.001Z</time></trkpt><trkpt lat="37.630163411179495" lon="14.817986971736868"><ele>165.0</ele><time>2026-05-04T09:41:24.001Z</time></trkpt><trkpt lat="37.63007414079742" lon="14.818018381433653"><ele>165.0</ele><time>2026-05-04T09:41:25.001Z</time></trkpt><trkpt lat="37.62997319421537" lon="14.818020075630873"><ele>166.25</ele><time>2026-05-04T09:41:26.001Z</time></trkpt><trkpt lat="37.62986852843819" lon="14.817988268452094"><ele>167.5</ele><time>2026-05-04T09:41:27.001Z</time></trkpt><trkpt lat="37.62975788435618" lon="14.818001830178876"><ele>168.75</ele><time>2026-05-04T09:41:28.001Z</time></trkpt><trkpt lat="37.62963710833016" lon="14.818022607954294"><ele>170.0</ele><time>2026-05-04T09:41:29.001Z</time></trkpt><trkpt lat="37.629506706584756" lon="14.81804697483624"><ele>171.75</ele><time>2026-05-04T09:41:30.001Z</time></trkpt><trkpt lat="37.629372512884665" lon="14.818072050288468"><ele>173.5</ele><time>2026-05-04T09:41:31.001Z</time></trkpt><trkpt lat="37.629237967083974" lon="14.818092555877547"><ele>175.25</ele><time>2026-05-04T09:41:32.001Z</time></trkpt><trkpt lat="37.62912990880692" lon="14.8180900187641"><ele>177.0</ele><time>2026-05-04T09:41:33.001Z</time></trkpt><trkpt lat="37.62904205292391" lon="14.818053698605988"><ele>177.0</ele><time>2026-05-04T09:41:34.001Z</time></trkpt><trkpt lat="37.62896985778097" lon="14.817983508954272"><ele>177.0</ele><time>2026-05-04T09:41:35.001Z</time></trkpt><trkpt lat="37.62890457652237" lon="14.81788115518676"><ele>177.0</ele><time>2026-05-04T09:41:36.001Z</time></trkpt><trkpt lat="37.628818653459916" lon="14.817752775979407"><ele>177.0</ele><time>2026-05-04T09:41:37.001Z</time></trkpt><trkpt lat="37.6287164224522" lon="14.817617133232282"><ele>176.0</ele><time>2026-05-04T09:41:38.001Z</time></trkpt><trkpt lat="37.628617405553584" lon="14.817464356417027"><ele>175.0</ele><time>2026-05-04T09:41:39.001Z</time></trkpt><trkpt lat="37.62850938702821" lon="14.817301843015773"><ele>174.0</ele><time>2026-05-04T09:41:40.001Z</time></trkpt><trkpt lat="37.628393791754256" lon="14.817131830342133"><ele>174.0</ele><time>2026-05-04T09:41:41.001Z</time></trkpt><trkpt lat="37.628277418612754" lon="14.81696419112459"><ele>174.0</ele><time>2026-05-04T09:41:42.001Z</time></trkpt><trkpt lat="37.628173078066254" lon="14.81680727719492"><ele>174.0</ele><time>2026-05-04T09:41:43.001Z</time></trkpt><trkpt lat="37.62806942739063" lon="14.81665649560373"><ele>174.33333333333334</ele><time>2026-05-04T09:41:44.001Z</time></trkpt><trkpt lat="37.627978394294544" lon="14.816494510366967"><ele>174.66666666666669</ele><time>2026-05-04T09:41:45.001Z</time></trkpt><trkpt lat="37.62789144581739" lon="14.816322382864502"><ele>175.0</ele><time>2026-05-04T09:41:46.001Z</time></trkpt><trkpt lat="37.62780597643954" lon="14.816148101340197"><ele>172.33333333333334</ele><time>2026-05-04T09:41:47.001Z</time></trkpt><trkpt lat="37.627741051755024" lon="14.815960388450527"><ele>169.66666666666666</ele><time>2026-05-04T09:41:48.001Z</time></trkpt><trkpt lat="37.62767701196647" lon="14.815776498056145"><ele>167.0</ele><time>2026-05-04T09:41:49.001Z</time></trkpt><trkpt lat="37.627615010639" lon="14.815600880674397"><ele>167.0</ele><time>2026-05-04T09:41:50.001Z</time></trkpt><trkpt lat="37.62755828460041" lon="14.815431529304123"><ele>167.0</ele><time>2026-05-04T09:41:51.001Z</time></trkpt><trkpt lat="37.627527744414955" lon="14.815253940565176"><ele>167.0</ele><time>2026-05-04T09:41:52.001Z</time></trkpt><trkpt lat="37.627508600673394" lon="14.815089816670136"><ele>167.0</ele><time>2026-05-04T09:41:53.001Z</time></trkpt><trkpt lat="37.62752184179227" lon="14.814919247389305"><ele>167.5</ele><time>2026-05-04T09:41:54.001Z</time></trkpt><trkpt lat="37.627528938380905" lon="14.81473777291764"><ele>168.0</ele><time>2026-05-04T09:41:55.001Z</time></trkpt><trkpt lat="37.62755001533354" lon="14.81456547133359"><ele>168.5</ele><time>2026-05-04T09:41:56.001Z</time></trkpt><trkpt lat="37.62755572935576" lon="14.814419552208491"><ele>169.0</ele><time>2026-05-04T09:41:57.001Z</time></trkpt><trkpt lat="37.62753257216255" lon="14.81428956644055"><ele>169.6</ele><time>2026-05-04T09:41:58.001Z</time></trkpt><trkpt lat="37.627498163930994" lon="14.814191304834155"><ele>170.2</ele><time>2026-05-04T09:41:59.001Z</time></trkpt><trkpt lat="37.627457276656266" lon="14.814122551463335"><ele>170.79999999999998</ele><time>2026-05-04T09:42:00.001Z</time></trkpt><trkpt lat="37.6273935109591" lon="14.814050392805957"><ele>171.39999999999998</ele><time>2026-05-04T09:42:01.001Z</time></trkpt><trkpt lat="37.627316114155555" lon="14.813962168716136"><ele>172.0</ele><time>2026-05-04T09:42:02.001Z</time></trkpt><trkpt lat="37.62723569739491" lon="14.813857770851335"><ele>172.0</ele><time>2026-05-04T09:42:03.002Z</time></trkpt><trkpt lat="37.62715399368477" lon="14.813741136475025"><ele>172.0</ele><time>2026-05-04T09:42:04.002Z</time></trkpt><trkpt lat="37.62706133720195" lon="14.813618699496205"><ele>172.0</ele><time>2026-05-04T09:42:05.002Z</time></trkpt><trkpt lat="37.62697358508279" lon="14.813476725475034"><ele>172.0</ele><time>2026-05-04T09:42:06.002Z</time></trkpt><trkpt lat="37.62687353168345" lon="14.81333938628055"><ele>171.5</ele><time>2026-05-04T09:42:07.002Z</time></trkpt><trkpt lat="37.62676890765163" lon="14.813195773263791"><ele>171.0</ele><time>2026-05-04T09:42:08.002Z</time></trkpt><trkpt lat="37.62666524977364" lon="14.813053486430558"><ele>170.5</ele><time>2026-05-04T09:42:09.002Z</time></trkpt><trkpt lat="37.62657113365314" lon="14.812924297158348"><ele>170.0</ele><time>2026-05-04T09:42:10.002Z</time></trkpt><trkpt lat="37.62647978766781" lon="14.812801316006786"><ele>170.0</ele><time>2026-05-04T09:42:11.002Z</time></trkpt><trkpt lat="37.626371746297245" lon="14.812689255861608"><ele>170.0</ele><time>2026-05-04T09:42:12.002Z</time></trkpt><trkpt lat="37.6262402055615" lon="14.812588281583846"><ele>170.0</ele><time>2026-05-04T09:42:13.002Z</time></trkpt><trkpt lat="37.626152155219806" lon="14.81253570496648"><ele>170.0</ele><time>2026-05-04T09:42:14.002Z</time></trkpt><trkpt lat="37.626040683152404" lon="14.81253119237292"><ele>169.5</ele><time>2026-05-04T09:42:15.002Z</time></trkpt><trkpt lat="37.625912001106855" lon="14.812563972547636"><ele>169.0</ele><time>2026-05-04T09:42:16.002Z</time></trkpt><trkpt lat="37.62576459933929" lon="14.812588133058155"><ele>168.5</ele><time>2026-05-04T09:42:17.002Z</time></trkpt><trkpt lat="37.62560418836818" lon="14.812624907470996"><ele>168.0</ele><time>2026-05-04T09:42:18.002Z</time></trkpt><trkpt lat="37.62544243514576" lon="14.812664736401278"><ele>166.0</ele><time>2026-05-04T09:42:19.002Z</time></trkpt><trkpt lat="37.62527470276816" lon="14.812704910168414"><ele>164.0</ele><time>2026-05-04T09:42:20.002Z</time></trkpt><trkpt lat="37.625106998285474" lon="14.81274296393382"><ele>162.0</ele><time>2026-05-04T09:42:21.002Z</time></trkpt><trkpt lat="37.62494455967424" lon="14.81277735347855"><ele>162.0</ele><time>2026-05-04T09:42:22.002Z</time></trkpt><trkpt lat="37.624800753730284" lon="14.812812292657464"><ele>162.0</ele><time>2026-05-04T09:42:23.002Z</time></trkpt><trkpt lat="37.62467106095539" lon="14.812842651012634"><ele>162.0</ele><time>2026-05-04T09:42:24.002Z</time></trkpt><trkpt lat="37.62455876131931" lon="14.812865204632589"><ele>162.0</ele><time>2026-05-04T09:42:25.002Z</time></trkpt><trkpt lat="37.624466033764804" lon="14.812866343674912"><ele>161.6</ele><time>2026-05-04T09:42:26.002Z</time></trkpt><trkpt lat="37.624381130706126" lon="14.81285294712382"><ele>161.2</ele><time>2026-05-04T09:42:27.002Z</time></trkpt><trkpt lat="37.624309149160396" lon="14.812814265835714"><ele>160.8</ele><time>2026-05-04T09:42:28.002Z</time></trkpt><trkpt lat="37.624258370812605" lon="14.81269998376347"><ele>160.4</ele><time>2026-05-04T09:42:29.002Z</time></trkpt><trkpt lat="37.62418111896681" lon="14.81259628286455"><ele>160.0</ele><time>2026-05-04T09:42:30.002Z</time></trkpt><trkpt lat="37.6241088573581" lon="14.812462415666557"><ele>160.0</ele><time>2026-05-04T09:42:31.001Z</time></trkpt><trkpt lat="37.624027233430304" lon="14.81233083681565"><ele>160.0</ele><time>2026-05-04T09:42:32.001Z</time></trkpt><trkpt lat="37.62394182527497" lon="14.812191630843754"><ele>160.0</ele><time>2026-05-04T09:42:33.001Z</time></trkpt><trkpt lat="37.62387231801737" lon="14.812044687319192"><ele>160.0</ele><time>2026-05-04T09:42:34.001Z</time></trkpt><trkpt lat="37.62381163344386" lon="14.811888590231707"><ele>159.0</ele><time>2026-05-04T09:42:35.001Z</time></trkpt><trkpt lat="37.62376328638487" lon="14.811721756051544"><ele>158.0</ele><time>2026-05-04T09:42:36.001Z</time></trkpt><trkpt lat="37.6237014435527" lon="14.811559938618908"><ele>157.0</ele><time>2026-05-04T09:42:37.001Z</time></trkpt><trkpt lat="37.62362847577087" lon="14.811409024624"><ele>156.0</ele><time>2026-05-04T09:42:38.001Z</time></trkpt><trkpt lat="37.62358268364832" lon="14.811267613177552"><ele>156.0</ele><time>2026-05-04T09:42:39.001Z</time></trkpt><trkpt lat="37.6235406555882" lon="14.811139591410251"><ele>156.0</ele><time>2026-05-04T09:42:40.001Z</time></trkpt><trkpt lat="37.62347962657438" lon="14.811018857860576"><ele>156.0</ele><time>2026-05-04T09:42:41.001Z</time></trkpt><trkpt lat="37.623382079876464" lon="14.810902608095926"><ele>156.0</ele><time>2026-05-04T09:42:42.001Z</time></trkpt><trkpt lat="37.62325881641065" lon="14.810794550393977"><ele>157.66666666666666</ele><time>2026-05-04T09:42:43.001Z</time></trkpt><trkpt lat="37.62312827607655" lon="14.810697403283964"><ele>159.33333333333331</ele><time>2026-05-04T09:42:44.001Z</time></trkpt><trkpt lat="37.62299078935923" lon="14.810617414094194"><ele>161.0</ele><time>2026-05-04T09:42:45.001Z</time></trkpt><trkpt lat="37.62284499918629" lon="14.810554274723149"><ele>160.25</ele><time>2026-05-04T09:42:46.001Z</time></trkpt><trkpt lat="37.62270666542828" lon="14.810503258563475"><ele>159.5</ele><time>2026-05-04T09:42:47.001Z</time></trkpt><trkpt lat="37.62258579661808" lon="14.810454620577376"><ele>158.75</ele><time>2026-05-04T09:42:48.001Z</time></trkpt><trkpt lat="37.62247811684691" lon="14.810412081373196"><ele>158.0</ele><time>2026-05-04T09:42:49.001Z</time></trkpt><trkpt lat="37.62237768169033" lon="14.810357129761572"><ele>158.0</ele><time>2026-05-04T09:42:50.001Z</time></trkpt><trkpt lat="37.62225826747389" lon="14.810333967135453"><ele>158.0</ele><time>2026-05-04T09:42:51.001Z</time></trkpt><trkpt lat="37.62213494704342" lon="14.81031678075757"><ele>158.0</ele><time>2026-05-04T09:42:52.001Z</time></trkpt><trkpt lat="37.62201404630832" lon="14.810292336623311"><ele>158.0</ele><time>2026-05-04T09:42:53.001Z</time></trkpt><trkpt lat="37.62190067782254" lon="14.810266503074244"><ele>157.8</ele><time>2026-05-04T09:42:54.001Z</time></trkpt><trkpt lat="37.62183811384407" lon="14.810158804804288"><ele>157.60000000000002</ele><time>2026-05-04T09:42:55.001Z</time></trkpt><trkpt lat="37.621759402144754" lon="14.810069786605947"><ele>157.39999999999998</ele><time>2026-05-04T09:42:56.001Z</time></trkpt><trkpt lat="37.62167569763859" lon="14.809979288112817"><ele>157.2</ele><time>2026-05-04T09:42:57.001Z</time></trkpt><trkpt lat="37.62157307214644" lon="14.809895855428856"><ele>157.0</ele><time>2026-05-04T09:42:58.001Z</time></trkpt><trkpt lat="37.621441507134115" lon="14.809829821723213"><ele>157.8</ele><time>2026-05-04T09:42:59.001Z</time></trkpt><trkpt lat="37.62131439050564" lon="14.809767185332063"><ele>158.6</ele><time>2026-05-04T09:43:00.001Z</time></trkpt><trkpt lat="37.6212327875156" lon="14.809707058702891"><ele>159.4</ele><time>2026-05-04T09:43:01.001Z</time></trkpt><trkpt lat="37.62116933361026" lon="14.809618097048297"><ele>160.20000000000002</ele><time>2026-05-04T09:43:02.001Z</time></trkpt><trkpt lat="37.621122955019466" lon="14.809503259283755"><ele>161.0</ele><time>2026-05-04T09:43:03.001Z</time></trkpt><trkpt lat="37.621111615875705" lon="14.80937135767438"><ele>162.75</ele><time>2026-05-04T09:43:04.001Z</time></trkpt><trkpt lat="37.621127834258246" lon="14.809238330191194"><ele>164.5</ele><time>2026-05-04T09:43:05.001Z</time></trkpt><trkpt lat="37.62115122039062" lon="14.809090992288702"><ele>166.25</ele><time>2026-05-04T09:43:06.001Z</time></trkpt><trkpt lat="37.62122006651482" lon="14.808943677078066"><ele>168.0</ele><time>2026-05-04T09:43:07.001Z</time></trkpt><trkpt lat="37.621280676663226" lon="14.808801291218348"><ele>169.0</ele><time>2026-05-04T09:43:08.001Z</time></trkpt><trkpt lat="37.6213244099467" lon="14.808648534101355"><ele>170.0</ele><time>2026-05-04T09:43:09.001Z</time></trkpt><trkpt lat="37.62135018273812" lon="14.808472573628249"><ele>171.0</ele><time>2026-05-04T09:43:10.001Z</time></trkpt><trkpt lat="37.62135668189323" lon="14.808281790038503"><ele>172.0</ele><time>2026-05-04T09:43:11.001Z</time></trkpt><trkpt lat="37.62135388656736" lon="14.808082756978484"><ele>173.5</ele><time>2026-05-04T09:43:12.001Z</time></trkpt><trkpt lat="37.621358576875956" lon="14.807890470002137"><ele>175.0</ele><time>2026-05-04T09:43:13.001Z</time></trkpt><trkpt lat="37.621370268009976" lon="14.807703498166513"><ele>176.5</ele><time>2026-05-04T09:43:14.001Z</time></trkpt><trkpt lat="37.621391106344696" lon="14.807536992035056"><ele>178.0</ele><time>2026-05-04T09:43:15.001Z</time></trkpt><trkpt lat="37.6214172576069" lon="14.807390455603246"><ele>179.0</ele><time>2026-05-04T09:43:16.001Z</time></trkpt><trkpt lat="37.62143702077806" lon="14.807253221324443"><ele>180.0</ele><time>2026-05-04T09:43:17.001Z</time></trkpt><trkpt lat="37.621448269612976" lon="14.807122292337196"><ele>181.0</ele><time>2026-05-04T09:43:18.001Z</time></trkpt><trkpt lat="37.62144073356049" lon="14.807017834693253"><ele>182.0</ele><time>2026-05-04T09:43:19.001Z</time></trkpt><trkpt lat="37.62139557769118" lon="14.80692998150184"><ele>183.0</ele><time>2026-05-04T09:43:20.001Z</time></trkpt><trkpt lat="37.62131563997082" lon="14.806854679279489"><ele>182.4</ele><time>2026-05-04T09:43:21.001Z</time></trkpt><trkpt lat="37.62122738662797" lon="14.806821261639028"><ele>181.8</ele><time>2026-05-04T09:43:22.001Z</time></trkpt><trkpt lat="37.621136045463686" lon="14.8068316605597"><ele>181.2</ele><time>2026-05-04T09:43:23.001Z</time></trkpt><trkpt lat="37.62104429328319" lon="14.806881864341493"><ele>180.6</ele><time>2026-05-04T09:43:24.001Z</time></trkpt><trkpt lat="37.62094291681931" lon="14.806941841792028"><ele>180.0</ele><time>2026-05-04T09:43:25.001Z</time></trkpt><trkpt lat="37.62082682054324" lon="14.806996048532307"><ele>180.0</ele><time>2026-05-04T09:43:26.001Z</time></trkpt><trkpt lat="37.62070133001769" lon="14.807051872163987"><ele>180.0</ele><time>2026-05-04T09:43:27.001Z</time></trkpt><trkpt lat="37.62056422803151" lon="14.807089840147535"><ele>180.0</ele><time>2026-05-04T09:43:28.001Z</time></trkpt><trkpt lat="37.620426452420816" lon="14.807152530456413"><ele>180.0</ele><time>2026-05-04T09:43:29.001Z</time></trkpt><trkpt lat="37.62028233557754" lon="14.807219159239308"><ele>178.33333333333334</ele><time>2026-05-04T09:43:30.001Z</time></trkpt><trkpt lat="37.62013866759233" lon="14.807299537850703"><ele>176.66666666666669</ele><time>2026-05-04T09:43:31.001Z</time></trkpt><trkpt lat="37.619984867032585" lon="14.80736705750214"><ele>175.0</ele><time>2026-05-04T09:43:32.001Z</time></trkpt><trkpt lat="37.61983175702331" lon="14.807417552762988"><ele>175.0</ele><time>2026-05-04T09:43:33.001Z</time></trkpt><trkpt lat="37.61969536039513" lon="14.807478979081115"><ele>175.0</ele><time>2026-05-04T09:43:34.001Z</time></trkpt><trkpt lat="37.61956679629129" lon="14.807535030856885"><ele>175.0</ele><time>2026-05-04T09:43:35.001Z</time></trkpt><trkpt lat="37.61944399580107" lon="14.807587933635984"><ele>175.0</ele><time>2026-05-04T09:43:36.001Z</time></trkpt><trkpt lat="37.619325571607526" lon="14.807635383033258"><ele>173.8</ele><time>2026-05-04T09:43:37.001Z</time></trkpt><trkpt lat="37.619211983796944" lon="14.807679220455395"><ele>172.6</ele><time>2026-05-04T09:43:38.001Z</time></trkpt><trkpt lat="37.61910193956256" lon="14.807718796348015"><ele>171.39999999999998</ele><time>2026-05-04T09:43:39.001Z</time></trkpt><trkpt lat="37.61900062156974" lon="14.807753468307002"><ele>170.2</ele><time>2026-05-04T09:43:40.001Z</time></trkpt><trkpt lat="37.61889975374626" lon="14.807786011545982"><ele>169.0</ele><time>2026-05-04T09:43:41.001Z</time></trkpt><trkpt lat="37.618801910857" lon="14.807821129985543"><ele>169.0</ele><time>2026-05-04T09:43:42.001Z</time></trkpt><trkpt lat="37.61869604997645" lon="14.807866203105075"><ele>169.0</ele><time>2026-05-04T09:43:43.001Z</time></trkpt><trkpt lat="37.61858428974043" lon="14.807919012547124"><ele>169.0</ele><time>2026-05-04T09:43:44.001Z</time></trkpt><trkpt lat="37.6184657511839" lon="14.807973322076434"><ele>169.0</ele><time>2026-05-04T09:43:45.001Z</time></trkpt><trkpt lat="37.61833926407404" lon="14.808029891347523"><ele>170.25</ele><time>2026-05-04T09:43:46.001Z</time></trkpt><trkpt lat="37.61822793097196" lon="14.808083034305"><ele>171.5</ele><time>2026-05-04T09:43:47.001Z</time></trkpt><trkpt lat="37.61813068846079" lon="14.808161660758133"><ele>172.75</ele><time>2026-05-04T09:43:48.001Z</time></trkpt><trkpt lat="37.61802964702821" lon="14.808231498761065"><ele>174.0</ele><time>2026-05-04T09:43:49.001Z</time></trkpt><trkpt lat="37.61793897493508" lon="14.808347770834413"><ele>174.0</ele><time>2026-05-04T09:43:50.001Z</time></trkpt><trkpt lat="37.61784387605569" lon="14.808488405157423"><ele>174.0</ele><time>2026-05-04T09:43:51.001Z</time></trkpt><trkpt lat="37.617746087237954" lon="14.808643086447132"><ele>174.0</ele><time>2026-05-04T09:43:52.001Z</time></trkpt><trkpt lat="37.61765647612675" lon="14.808777062490197"><ele>174.0</ele><time>2026-05-04T09:43:53.001Z</time></trkpt><trkpt lat="37.61756716784844" lon="14.808876195693069"><ele>173.79999999999998</ele><time>2026-05-04T09:43:54.001Z</time></trkpt><trkpt lat="37.61748073497466" lon="14.808939944324347"><ele>173.6</ele><time>2026-05-04T09:43:55.001Z</time></trkpt><trkpt lat="37.617376591834116" lon="14.80895575520145"><ele>173.4</ele><time>2026-05-04T09:43:56.001Z</time></trkpt><trkpt lat="37.61725919307409" lon="14.808948794815844"><ele>173.2</ele><time>2026-05-04T09:43:57.001Z</time></trkpt><trkpt lat="37.61714817473846" lon="14.808944305843475"><ele>173.0</ele><time>2026-05-04T09:43:58.001Z</time></trkpt><trkpt lat="37.61703225648198" lon="14.808942621774644"><ele>171.60000000000002</ele><time>2026-05-04T09:43:59.001Z</time></trkpt><trkpt lat="37.616921707751864" lon="14.808941956674055"><ele>170.20000000000002</ele><time>2026-05-04T09:44:00.001Z</time></trkpt><trkpt lat="37.616823246392855" lon="14.808943229743381"><ele>168.8</ele><time>2026-05-04T09:44:01.001Z</time></trkpt><trkpt lat="37.61674947129562" lon="14.808946812055286"><ele>167.4</ele><time>2026-05-04T09:44:02.001Z</time></trkpt><trkpt lat="37.61665052182137" lon="14.80894287662754"><ele>166.0</ele><time>2026-05-04T09:44:04.001Z</time></trkpt><trkpt lat="37.61663037916573" lon="14.808802091262212"><ele>166.0</ele><time>2026-05-04T09:44:06.001Z</time></trkpt><trkpt lat="37.616596685468345" lon="14.808718265487325"><ele>166.0</ele><time>2026-05-04T09:44:07.001Z</time></trkpt><trkpt lat="37.616586818871426" lon="14.808618431352043"><ele>166.0</ele><time>2026-05-04T09:44:08.001Z</time></trkpt><trkpt lat="37.61661066703397" lon="14.808490320467802"><ele>166.0</ele><time>2026-05-04T09:44:10.001Z</time></trkpt><trkpt lat="37.61668436480367" lon="14.808449692670095"><ele>166.0</ele><time>2026-05-04T09:44:11.001Z</time></trkpt><trkpt lat="37.61677562608523" lon="14.808433980629667"><ele>166.0</ele><time>2026-05-04T09:44:12.001Z</time></trkpt><trkpt lat="37.6168743930879" lon="14.808403913592743"><ele>168.25</ele><time>2026-05-04T09:44:13.001Z</time></trkpt><trkpt lat="37.61698837516588" lon="14.808363293114684"><ele>170.5</ele><time>2026-05-04T09:44:14.001Z</time></trkpt><trkpt lat="37.617117410457176" lon="14.808318882665837"><ele>172.75</ele><time>2026-05-04T09:44:15.001Z</time></trkpt><trkpt lat="37.61726300933837" lon="14.808264489347021"><ele>175.0</ele><time>2026-05-04T09:44:16.001Z</time></trkpt><trkpt lat="37.61741816430043" lon="14.808204816252031"><ele>175.0</ele><time>2026-05-04T09:44:17.001Z</time></trkpt><trkpt lat="37.617579874153584" lon="14.808146117394275"><ele>175.0</ele><time>2026-05-04T09:44:18.001Z</time></trkpt><trkpt lat="37.617749092994345" lon="14.80808785004529"><ele>175.0</ele><time>2026-05-04T09:44:19.001Z</time></trkpt><trkpt lat="37.617922671531126" lon="14.808025825872061"><ele>174.66666666666669</ele><time>2026-05-04T09:44:20.001Z</time></trkpt><trkpt lat="37.61809447860676" lon="14.807960243897076"><ele>174.33333333333334</ele><time>2026-05-04T09:44:21.001Z</time></trkpt><trkpt lat="37.61825801172506" lon="14.807883166827983"><ele>174.0</ele><time>2026-05-04T09:44:22.001Z</time></trkpt><trkpt lat="37.61841754178196" lon="14.80779132807466"><ele>174.0</ele><time>2026-05-04T09:44:23.001Z</time></trkpt><trkpt lat="37.61858114262379" lon="14.807688832858016"><ele>174.0</ele><time>2026-05-04T09:44:24.001Z</time></trkpt><trkpt lat="37.618745071495" lon="14.807579657486846"><ele>174.0</ele><time>2026-05-04T09:44:25.002Z</time></trkpt><trkpt lat="37.61891304779943" lon="14.80746367196917"><ele>175.0</ele><time>2026-05-04T09:44:26.002Z</time></trkpt><trkpt lat="37.61908245483975" lon="14.807359952292346"><ele>176.0</ele><time>2026-05-04T09:44:27.002Z</time></trkpt><trkpt lat="37.61925826277943" lon="14.807273153701015"><ele>177.0</ele><time>2026-05-04T09:44:28.002Z</time></trkpt><trkpt lat="37.61942819208265" lon="14.807194690783621"><ele>176.33333333333334</ele><time>2026-05-04T09:44:29.002Z</time></trkpt><trkpt lat="37.619581508183245" lon="14.807122478978165"><ele>175.66666666666669</ele><time>2026-05-04T09:44:30.002Z</time></trkpt><trkpt lat="37.61972347610507" lon="14.807032676984072"><ele>175.0</ele><time>2026-05-04T09:44:31.002Z</time></trkpt><trkpt lat="37.619864235133264" lon="14.806919849139938"><ele>179.33333333333334</ele><time>2026-05-04T09:44:32.002Z</time></trkpt><trkpt lat="37.62000395009879" lon="14.80679534400597"><ele>183.66666666666666</ele><time>2026-05-04T09:44:33.002Z</time></trkpt><trkpt lat="37.62014799156299" lon="14.806679544990931"><ele>188.0</ele><time>2026-05-04T09:44:34.002Z</time></trkpt><trkpt lat="37.62030759547615" lon="14.806592849936449"><ele>186.0</ele><time>2026-05-04T09:44:35.002Z</time></trkpt><trkpt lat="37.620474823316954" lon="14.80651611802355"><ele>184.0</ele><time>2026-05-04T09:44:36.001Z</time></trkpt><trkpt lat="37.62064713006378" lon="14.806434703014398"><ele>182.0</ele><time>2026-05-04T09:44:37.001Z</time></trkpt><trkpt lat="37.62081613804317" lon="14.806348209793736"><ele>182.0</ele><time>2026-05-04T09:44:38.001Z</time></trkpt><trkpt lat="37.62097997426343" lon="14.806245942566155"><ele>182.0</ele><time>2026-05-04T09:44:39.001Z</time></trkpt><trkpt lat="37.62112219035999" lon="14.806123517900668"><ele>182.0</ele><time>2026-05-04T09:44:40.001Z</time></trkpt><trkpt lat="37.62126115089421" lon="14.805983818236562"><ele>183.0</ele><time>2026-05-04T09:44:41.001Z</time></trkpt><trkpt lat="37.62138860661947" lon="14.805844889927297"><ele>184.0</ele><time>2026-05-04T09:44:42.001Z</time></trkpt><trkpt lat="37.6215010252734" lon="14.805695852066686"><ele>185.0</ele><time>2026-05-04T09:44:43.001Z</time></trkpt><trkpt lat="37.62159405337024" lon="14.805511642087382"><ele>185.0</ele><time>2026-05-04T09:44:44.001Z</time></trkpt><trkpt lat="37.62168134060977" lon="14.805309270090094"><ele>185.0</ele><time>2026-05-04T09:44:45.001Z</time></trkpt><trkpt lat="37.621775145889835" lon="14.805104916299236"><ele>185.0</ele><time>2026-05-04T09:44:46.001Z</time></trkpt><trkpt lat="37.62187418486979" lon="14.804898720445212"><ele>185.66666666666666</ele><time>2026-05-04T09:44:47.001Z</time></trkpt><trkpt lat="37.62197504566722" lon="14.804690367887217"><ele>186.33333333333334</ele><time>2026-05-04T09:44:48.001Z</time></trkpt><trkpt lat="37.62208177554487" lon="14.804482993901638"><ele>187.0</ele><time>2026-05-04T09:44:49.001Z</time></trkpt><trkpt lat="37.62220184682421" lon="14.804284492995283"><ele>188.33333333333334</ele><time>2026-05-04T09:44:50.001Z</time></trkpt><trkpt lat="37.62233805026843" lon="14.804094684495968"><ele>189.66666666666666</ele><time>2026-05-04T09:44:51.001Z</time></trkpt><trkpt lat="37.62247174269762" lon="14.803903858868697"><ele>191.0</ele><time>2026-05-04T09:44:52.001Z</time></trkpt><trkpt lat="37.62259356289509" lon="14.803724952112422"><ele>191.0</ele><time>2026-05-04T09:44:53.001Z</time></trkpt><trkpt lat="37.62270726485281" lon="14.803556483548935"><ele>191.0</ele><time>2026-05-04T09:44:54.001Z</time></trkpt><trkpt lat="37.62281827054503" lon="14.803396845311996"><ele>191.0</ele><time>2026-05-04T09:44:55Z</time></trkpt><trkpt lat="37.622909273979054" lon="14.80323440776036"><ele>190.33333333333331</ele><time>2026-05-04T09:44:56Z</time></trkpt><trkpt lat="37.6229716789361" lon="14.803048645383516"><ele>189.66666666666666</ele><time>2026-05-04T09:44:57Z</time></trkpt><trkpt lat="37.62300632750905" lon="14.802839857671854"><ele>189.0</ele><time>2026-05-04T09:44:58Z</time></trkpt><trkpt lat="37.62304065243742" lon="14.802646680678999"><ele>189.0</ele><time>2026-05-04T09:44:59.001Z</time></trkpt><trkpt lat="37.62307772171812" lon="14.80244358606672"><ele>189.0</ele><time>2026-05-04T09:45:00.001Z</time></trkpt><trkpt lat="37.62312837303667" lon="14.802244864184757"><ele>189.0</ele><time>2026-05-04T09:45:01.001Z</time></trkpt><trkpt lat="37.62320108887741" lon="14.802051655072427"><ele>189.0</ele><time>2026-05-04T09:45:02.001Z</time></trkpt><trkpt lat="37.62329022674869" lon="14.801863221795216"><ele>189.0</ele><time>2026-05-04T09:45:03.001Z</time></trkpt><trkpt lat="37.62338089963301" lon="14.801686904848944"><ele>189.0</ele><time>2026-05-04T09:45:04.001Z</time></trkpt><trkpt lat="37.6234744629484" lon="14.801509253647826"><ele>189.0</ele><time>2026-05-04T09:45:05.001Z</time></trkpt><trkpt lat="37.62356846146941" lon="14.801323668435522"><ele>189.0</ele><time>2026-05-04T09:45:06.001Z</time></trkpt><trkpt lat="37.623663057222814" lon="14.801139899274288"><ele>189.0</ele><time>2026-05-04T09:45:07.001Z</time></trkpt><trkpt lat="37.623759603289656" lon="14.800959241868018"><ele>189.0</ele><time>2026-05-04T09:45:08.001Z</time></trkpt><trkpt lat="37.623854099399374" lon="14.800779776706968"><ele>189.0</ele><time>2026-05-04T09:45:09.001Z</time></trkpt><trkpt lat="37.62394719842424" lon="14.800602142253252"><ele>189.0</ele><time>2026-05-04T09:45:10.001Z</time></trkpt><trkpt lat="37.624040129025296" lon="14.800424841657389"><ele>189.0</ele><time>2026-05-04T09:45:11.001Z</time></trkpt><trkpt lat="37.62413452813338" lon="14.800245726232768"><ele>189.0</ele><time>2026-05-04T09:45:12.001Z</time></trkpt><trkpt lat="37.62423135496663" lon="14.800062250118359"><ele>189.0</ele><time>2026-05-04T09:45:13.001Z</time></trkpt><trkpt lat="37.62433088975077" lon="14.799877969431737"><ele>189.0</ele><time>2026-05-04T09:45:14.001Z</time></trkpt><trkpt lat="37.62443640133332" lon="14.799696890240009"><ele>189.0</ele><time>2026-05-04T09:45:15.001Z</time></trkpt><trkpt lat="37.62454949220416" lon="14.799523371476466"><ele>189.0</ele><time>2026-05-04T09:45:16.001Z</time></trkpt><trkpt lat="37.62466880742406" lon="14.799356098734966"><ele>190.33333333333331</ele><time>2026-05-04T09:45:17.001Z</time></trkpt><trkpt lat="37.62478472182791" lon="14.79919774859694"><ele>191.66666666666666</ele><time>2026-05-04T09:45:18.001Z</time></trkpt><trkpt lat="37.624887574476546" lon="14.799052566756757"><ele>193.0</ele><time>2026-05-04T09:45:19.001Z</time></trkpt><trkpt lat="37.62498455533059" lon="14.798916577565512"><ele>193.0</ele><time>2026-05-04T09:45:20.001Z</time></trkpt><trkpt lat="37.62507975665033" lon="14.798788368840743"><ele>193.0</ele><time>2026-05-04T09:45:21.001Z</time></trkpt><trkpt lat="37.625172271547854" lon="14.798671954254772"><ele>193.0</ele><time>2026-05-04T09:45:22.001Z</time></trkpt><trkpt lat="37.625277426592106" lon="14.798580685108044"><ele>193.0</ele><time>2026-05-04T09:45:23.001Z</time></trkpt><trkpt lat="37.625401883986235" lon="14.798527338301277"><ele>193.75</ele><time>2026-05-04T09:45:24.001Z</time></trkpt><trkpt lat="37.62553624475261" lon="14.798533952405037"><ele>194.5</ele><time>2026-05-04T09:45:25.001Z</time></trkpt><trkpt lat="37.62565431981432" lon="14.7985813498239"><ele>195.25</ele><time>2026-05-04T09:45:26.001Z</time></trkpt><trkpt lat="37.625773468117075" lon="14.798596042983146"><ele>196.0</ele><time>2026-05-04T09:45:27.001Z</time></trkpt><trkpt lat="37.62587381091721" lon="14.798530977422914"><ele>198.0</ele><time>2026-05-04T09:45:28.001Z</time></trkpt><trkpt lat="37.625945201885735" lon="14.798397168880513"><ele>200.0</ele><time>2026-05-04T09:45:29.001Z</time></trkpt><trkpt lat="37.625980688026864" lon="14.798209627434357"><ele>202.0</ele><time>2026-05-04T09:45:30.001Z</time></trkpt><trkpt lat="37.62597574643562" lon="14.798006739875953"><ele>204.0</ele><time>2026-05-04T09:45:31.001Z</time></trkpt><trkpt lat="37.62596221414946" lon="14.797813836061808"><ele>206.33333333333331</ele><time>2026-05-04T09:45:32.001Z</time></trkpt><trkpt lat="37.625930585201985" lon="14.797626103054695"><ele>208.66666666666666</ele><time>2026-05-04T09:45:33.001Z</time></trkpt><trkpt lat="37.62588511784942" lon="14.797444128130042"><ele>211.0</ele><time>2026-05-04T09:45:34.001Z</time></trkpt><trkpt lat="37.62583523784139" lon="14.797263754268371"><ele>211.0</ele><time>2026-05-04T09:45:35.001Z</time></trkpt><trkpt lat="37.62578896112106" lon="14.797089489067918"><ele>211.0</ele><time>2026-05-04T09:45:36.001Z</time></trkpt><trkpt lat="37.62574672245089" lon="14.796919964277697"><ele>211.0</ele><time>2026-05-04T09:45:37.001Z</time></trkpt><trkpt lat="37.62570221791886" lon="14.796756899068221"><ele>211.0</ele><time>2026-05-04T09:45:38.001Z</time></trkpt><trkpt lat="37.62566216541947" lon="14.796612155755403"><ele>212.5</ele><time>2026-05-04T09:45:39.001Z</time></trkpt><trkpt lat="37.62564659838751" lon="14.796474969238124"><ele>214.0</ele><time>2026-05-04T09:45:40.001Z</time></trkpt><trkpt lat="37.62568202679361" lon="14.79634893350717"><ele>215.5</ele><time>2026-05-04T09:45:41.001Z</time></trkpt><trkpt lat="37.62577027909766" lon="14.796254958321956"><ele>217.0</ele><time>2026-05-04T09:45:42.001Z</time></trkpt><trkpt lat="37.62589269715953" lon="14.796210490177721"><ele>217.0</ele><time>2026-05-04T09:45:43.001Z</time></trkpt><trkpt lat="37.62603000311103" lon="14.796209713619955"><ele>217.0</ele><time>2026-05-04T09:45:44.001Z</time></trkpt><trkpt lat="37.62616486729891" lon="14.796240331572687"><ele>217.0</ele><time>2026-05-04T09:45:45.001Z</time></trkpt><trkpt lat="37.62629288691217" lon="14.796270427028833"><ele>217.0</ele><time>2026-05-04T09:45:46.001Z</time></trkpt><trkpt lat="37.62642486781381" lon="14.796288258550629"><ele>220.0</ele><time>2026-05-04T09:45:47.001Z</time></trkpt><trkpt lat="37.62655868401623" lon="14.796301515888084"><ele>223.0</ele><time>2026-05-04T09:45:48.001Z</time></trkpt><trkpt lat="37.626691330758796" lon="14.796296123160094"><ele>226.0</ele><time>2026-05-04T09:45:49.001Z</time></trkpt><trkpt lat="37.6268069735755" lon="14.796245509047623"><ele>229.0</ele><time>2026-05-04T09:45:50.001Z</time></trkpt><trkpt lat="37.62690202890219" lon="14.796151160912796"><ele>230.25</ele><time>2026-05-04T09:45:51.001Z</time></trkpt><trkpt lat="37.62699815289165" lon="14.79603165622503"><ele>231.5</ele><time>2026-05-04T09:45:52.001Z</time></trkpt><trkpt lat="37.62709255152892" lon="14.795923499825603"><ele>232.75</ele><time>2026-05-04T09:45:53.001Z</time></trkpt><trkpt lat="37.627180645215745" lon="14.795798485028866"><ele>234.0</ele><time>2026-05-04T09:45:54.001Z</time></trkpt><trkpt lat="37.62723833849194" lon="14.795668680027415"><ele>234.0</ele><time>2026-05-04T09:45:55.001Z</time></trkpt><trkpt lat="37.62730638807794" lon="14.795577632649136"><ele>234.0</ele><time>2026-05-04T09:45:56.001Z</time></trkpt><trkpt lat="37.62734149937441" lon="14.79550829488949"><ele>234.0</ele><time>2026-05-04T09:45:57.001Z</time></trkpt><trkpt lat="37.627170322177115" lon="14.795324014517538"><ele>234.0</ele><time>2026-05-04T09:45:58.001Z</time></trkpt><trkpt lat="37.62708091001075" lon="14.795252607648912"><ele>234.5</ele><time>2026-05-04T09:45:59.001Z</time></trkpt><trkpt lat="37.62700267213214" lon="14.795160345115832"><ele>235.0</ele><time>2026-05-04T09:46:00.001Z</time></trkpt><trkpt lat="37.626902368272475" lon="14.79505244057499"><ele>235.5</ele><time>2026-05-04T09:46:01.001Z</time></trkpt><trkpt lat="37.626791930106236" lon="14.794932458044807"><ele>236.0</ele><time>2026-05-04T09:46:02.001Z</time></trkpt><trkpt lat="37.62667707179619" lon="14.794795839018976"><ele>237.0</ele><time>2026-05-04T09:46:03.001Z</time></trkpt><trkpt lat="37.62656158393858" lon="14.794644414036899"><ele>238.0</ele><time>2026-05-04T09:46:04.001Z</time></trkpt><trkpt lat="37.626444728783135" lon="14.794476477433381"><ele>239.0</ele><time>2026-05-04T09:46:05.001Z</time></trkpt><trkpt lat="37.626335786115526" lon="14.794298712043773"><ele>240.33333333333334</ele><time>2026-05-04T09:46:06.001Z</time></trkpt><trkpt lat="37.62622680776851" lon="14.794114122435042"><ele>241.66666666666669</ele><time>2026-05-04T09:46:07.001Z</time></trkpt><trkpt lat="37.626111766133" lon="14.793928922564096"><ele>243.0</ele><time>2026-05-04T09:46:08.001Z</time></trkpt><trkpt lat="37.62599141483897" lon="14.793745598727293"><ele>243.66666666666669</ele><time>2026-05-04T09:46:09.001Z</time></trkpt><trkpt lat="37.62586909415571" lon="14.793562224617247"><ele>244.33333333333334</ele><time>2026-05-04T09:46:10.001Z</time></trkpt><trkpt lat="37.62574729757958" lon="14.793376476435341"><ele>245.0</ele><time>2026-05-04T09:46:11.001Z</time></trkpt><trkpt lat="37.625624897074154" lon="14.793188001291"><ele>246.66666666666669</ele><time>2026-05-04T09:46:12.001Z</time></trkpt><trkpt lat="37.62550048184447" lon="14.792998091806092"><ele>248.33333333333331</ele><time>2026-05-04T09:46:13.001Z</time></trkpt><trkpt lat="37.62537275424282" lon="14.792805788436834"><ele>250.0</ele><time>2026-05-04T09:46:14.001Z</time></trkpt><trkpt lat="37.6252440683024" lon="14.792614221219907"><ele>251.33333333333331</ele><time>2026-05-04T09:46:15.001Z</time></trkpt><trkpt lat="37.62511604384414" lon="14.792418809542173"><ele>252.66666666666669</ele><time>2026-05-04T09:46:16.001Z</time></trkpt><trkpt lat="37.624988087026466" lon="14.792221567416263"><ele>254.0</ele><time>2026-05-04T09:46:17.001Z</time></trkpt><trkpt lat="37.62485690594593" lon="14.792026743320674"><ele>255.0</ele><time>2026-05-04T09:46:18.001Z</time></trkpt><trkpt lat="37.62474146888236" lon="14.791824060634438"><ele>256.0</ele><time>2026-05-04T09:46:19.001Z</time></trkpt><trkpt lat="37.62460374009434" lon="14.791645276483239"><ele>257.0</ele><time>2026-05-04T09:46:20.001Z</time></trkpt><trkpt lat="37.62448877344079" lon="14.791453748214634"><ele>256.33333333333337</ele><time>2026-05-04T09:46:21.001Z</time></trkpt><trkpt lat="37.62437075913336" lon="14.791265873735702"><ele>255.66666666666669</ele><time>2026-05-04T09:46:22.001Z</time></trkpt><trkpt lat="37.62424663800041" lon="14.791078017071026"><ele>255.0</ele><time>2026-05-04T09:46:23.001Z</time></trkpt><trkpt lat="37.62411863764731" lon="14.790885023639625"><ele>256.6666666666667</ele><time>2026-05-04T09:46:24.001Z</time></trkpt><trkpt lat="37.62399073842507" lon="14.790688687316184"><ele>258.33333333333337</ele><time>2026-05-04T09:46:25.001Z</time></trkpt><trkpt lat="37.623863317807384" lon="14.790487837058505"><ele>260.0</ele><time>2026-05-04T09:46:26.001Z</time></trkpt><trkpt lat="37.62373527069419" lon="14.790287214015951"><ele>260.33333333333337</ele><time>2026-05-04T09:46:27.001Z</time></trkpt><trkpt lat="37.62360301892757" lon="14.790091355310386"><ele>260.6666666666667</ele><time>2026-05-04T09:46:28.001Z</time></trkpt><trkpt lat="37.6234623995456" lon="14.789904539104379"><ele>261.0</ele><time>2026-05-04T09:46:29.001Z</time></trkpt><trkpt lat="37.62330737283475" lon="14.789730161139616"><ele>261.0</ele><time>2026-05-04T09:46:30.001Z</time></trkpt><trkpt lat="37.623155682997414" lon="14.789549663781342"><ele>261.0</ele><time>2026-05-04T09:46:31.001Z</time></trkpt><trkpt lat="37.6229891988238" lon="14.789390128118185"><ele>261.0</ele><time>2026-05-04T09:46:32.001Z</time></trkpt><trkpt lat="37.6228153135781" lon="14.789251434453403"><ele>262.6666666666667</ele><time>2026-05-04T09:46:33.001Z</time></trkpt><trkpt lat="37.62265442119043" lon="14.78909580332513"><ele>264.33333333333337</ele><time>2026-05-04T09:46:34.001Z</time></trkpt><trkpt lat="37.622501586674495" lon="14.788947844918125"><ele>266.0</ele><time>2026-05-04T09:46:35.001Z</time></trkpt><trkpt lat="37.622358849530436" lon="14.788812815727704"><ele>266.0</ele><time>2026-05-04T09:46:36.001Z</time></trkpt><trkpt lat="37.6222299242939" lon="14.788653536562755"><ele>266.0</ele><time>2026-05-04T09:46:37.001Z</time></trkpt><trkpt lat="37.62209026347729" lon="14.788518694318135"><ele>266.0</ele><time>2026-05-04T09:46:38.001Z</time></trkpt><trkpt lat="37.621969103352235" lon="14.788362281329697"><ele>267.0</ele><time>2026-05-04T09:46:39.001Z</time></trkpt><trkpt lat="37.621851565583874" lon="14.78820362569534"><ele>268.0</ele><time>2026-05-04T09:46:40.001Z</time></trkpt><trkpt lat="37.6217352778625" lon="14.788048904964626"><ele>269.0</ele><time>2026-05-04T09:46:41.001Z</time></trkpt><trkpt lat="37.621617045634714" lon="14.787903673463449"><ele>269.0</ele><time>2026-05-04T09:46:42Z</time></trkpt><trkpt lat="37.621497490709814" lon="14.787765250969146"><ele>269.0</ele><time>2026-05-04T09:46:43Z</time></trkpt><trkpt lat="37.621375454445804" lon="14.787637773627507"><ele>269.0</ele><time>2026-05-04T09:46:44Z</time></trkpt><trkpt lat="37.62125008939359" lon="14.787513850969004"><ele>270.6666666666667</ele><time>2026-05-04T09:46:45Z</time></trkpt><trkpt lat="37.621123074650846" lon="14.787390634514264"><ele>272.3333333333333</ele><time>2026-05-04T09:46:46Z</time></trkpt><trkpt lat="37.62099309297914" lon="14.78727003117871"><ele>274.0</ele><time>2026-05-04T09:46:47Z</time></trkpt><trkpt lat="37.620860265667" lon="14.787151792775521"><ele>274.0</ele><time>2026-05-04T09:46:48Z</time></trkpt><trkpt lat="37.620722898751815" lon="14.787029091486593"><ele>274.0</ele><time>2026-05-04T09:46:49Z</time></trkpt><trkpt lat="37.620584248950856" lon="14.78690180726844"><ele>274.0</ele><time>2026-05-04T09:46:50Z</time></trkpt><trkpt lat="37.620442007392974" lon="14.78677103228109"><ele>274.66666666666663</ele><time>2026-05-04T09:46:51Z</time></trkpt><trkpt lat="37.620293498707326" lon="14.786638313604973"><ele>275.3333333333333</ele><time>2026-05-04T09:46:52Z</time></trkpt><trkpt lat="37.62014154217277" lon="14.786505100488906"><ele>276.0</ele><time>2026-05-04T09:46:53Z</time></trkpt><trkpt lat="37.61998678091287" lon="14.786371790286983"><ele>276.0</ele><time>2026-05-04T09:46:54Z</time></trkpt><trkpt lat="37.619829173203435" lon="14.786234641204127"><ele>276.0</ele><time>2026-05-04T09:46:55Z</time></trkpt><trkpt lat="37.61967498730898" lon="14.786088136764054"><ele>276.0</ele><time>2026-05-04T09:46:56Z</time></trkpt><trkpt lat="37.61953360951409" lon="14.785926888975647"><ele>276.3333333333333</ele><time>2026-05-04T09:46:57Z</time></trkpt><trkpt lat="37.619411694266866" lon="14.785762580643018"><ele>276.66666666666663</ele><time>2026-05-04T09:46:58Z</time></trkpt><trkpt lat="37.619319303046204" lon="14.78559393441536"><ele>277.0</ele><time>2026-05-04T09:46:59Z</time></trkpt><trkpt lat="37.61924588252536" lon="14.785413608964092"><ele>277.0</ele><time>2026-05-04T09:47:00Z</time></trkpt><trkpt lat="37.61918215186453" lon="14.785226286829749"><ele>277.0</ele><time>2026-05-04T09:47:01Z</time></trkpt><trkpt lat="37.619126041731704" lon="14.785036855889977"><ele>277.0</ele><time>2026-05-04T09:47:02Z</time></trkpt><trkpt lat="37.61907333089781" lon="14.784854894172378"><ele>278.0</ele><time>2026-05-04T09:47:03Z</time></trkpt><trkpt lat="37.61902437751457" lon="14.784691618793989"><ele>279.0</ele><time>2026-05-04T09:47:04Z</time></trkpt><trkpt lat="37.61897705112286" lon="14.784532964904853"><ele>280.0</ele><time>2026-05-04T09:47:05Z</time></trkpt><trkpt lat="37.61893284551602" lon="14.784378067013256"><ele>281.0</ele><time>2026-05-04T09:47:06Z</time></trkpt><trkpt lat="37.61888993378829" lon="14.784224356046053"><ele>282.25</ele><time>2026-05-04T09:47:07Z</time></trkpt><trkpt lat="37.61884348385529" lon="14.784073110769684"><ele>283.5</ele><time>2026-05-04T09:47:08Z</time></trkpt><trkpt lat="37.61879265859753" lon="14.783925341752889"><ele>284.75</ele><time>2026-05-04T09:47:09Z</time></trkpt><trkpt lat="37.61874074554514" lon="14.78378330376716"><ele>286.0</ele><time>2026-05-04T09:47:10Z</time></trkpt><trkpt lat="37.61867867811573" lon="14.783642440142772"><ele>286.0</ele><time>2026-05-04T09:47:11Z</time></trkpt><trkpt lat="37.61861521518919" lon="14.78351697647312"><ele>286.0</ele><time>2026-05-04T09:47:12Z</time></trkpt><trkpt lat="37.61856237070342" lon="14.783405309964115"><ele>286.0</ele><time>2026-05-04T09:47:13Z</time></trkpt><trkpt lat="37.618507036193556" lon="14.783298731545818"><ele>286.0</ele><time>2026-05-04T09:47:14Z</time></trkpt><trkpt lat="37.6184477875471" lon="14.783193845716221"><ele>286.0</ele><time>2026-05-04T09:47:15Z</time></trkpt><trkpt lat="37.61838754031014" lon="14.783084649600871"><ele>287.0</ele><time>2026-05-04T09:47:16Z</time></trkpt><trkpt lat="37.6183304734765" lon="14.782976216757717"><ele>288.0</ele><time>2026-05-04T09:47:17Z</time></trkpt><trkpt lat="37.618276775866555" lon="14.782878449967637"><ele>289.0</ele><time>2026-05-04T09:47:18Z</time></trkpt><trkpt lat="37.618219032507575" lon="14.782776888587946"><ele>290.0</ele><time>2026-05-04T09:47:19Z</time></trkpt><trkpt lat="37.61815342294963" lon="14.782680210074236"><ele>291.0</ele><time>2026-05-04T09:47:20Z</time></trkpt><trkpt lat="37.61806761755758" lon="14.782534053216803"><ele>292.6666666666667</ele><time>2026-05-04T09:47:21Z</time></trkpt><trkpt lat="37.617921939715494" lon="14.782379717458578"><ele>294.33333333333337</ele><time>2026-05-04T09:47:22Z</time></trkpt><trkpt lat="37.61774031106328" lon="14.782231368762025"><ele>296.0</ele><time>2026-05-04T09:47:23Z</time></trkpt><trkpt lat="37.61757560670154" lon="14.782078319184516"><ele>296.0</ele><time>2026-05-04T09:47:24Z</time></trkpt><trkpt lat="37.617411288415056" lon="14.781938692914729"><ele>296.0</ele><time>2026-05-04T09:47:25Z</time></trkpt><trkpt lat="37.61725470641886" lon="14.781803330545069"><ele>296.0</ele><time>2026-05-04T09:47:26Z</time></trkpt><trkpt lat="37.617104029306816" lon="14.78167196376844"><ele>297.6666666666667</ele><time>2026-05-04T09:47:27Z</time></trkpt><trkpt lat="37.61696609755527" lon="14.781526628221082"><ele>299.3333333333333</ele><time>2026-05-04T09:47:28Z</time></trkpt><trkpt lat="37.616824109321286" lon="14.78140077512089"><ele>301.0</ele><time>2026-05-04T09:47:29Z</time></trkpt><trkpt lat="37.61668372074763" lon="14.78127633975735"><ele>301.0</ele><time>2026-05-04T09:47:30Z</time></trkpt><trkpt lat="37.61654850379808" lon="14.78114888369445"><ele>301.0</ele><time>2026-05-04T09:47:31Z</time></trkpt><trkpt lat="37.616409670143014" lon="14.781032624101728"><ele>301.0</ele><time>2026-05-04T09:47:32Z</time></trkpt><trkpt lat="37.61629504952315" lon="14.7808858504912"><ele>302.66666666666663</ele><time>2026-05-04T09:47:33Z</time></trkpt><trkpt lat="37.61619981378949" lon="14.780717634552893"><ele>304.3333333333333</ele><time>2026-05-04T09:47:34Z</time></trkpt><trkpt lat="37.61609540812039" lon="14.780560201000544"><ele>306.0</ele><time>2026-05-04T09:47:35Z</time></trkpt><trkpt lat="37.61598514328578" lon="14.780417213264261"><ele>306.0</ele><time>2026-05-04T09:47:36Z</time></trkpt><trkpt lat="37.61588798744882" lon="14.780263511627076"><ele>306.0</ele><time>2026-05-04T09:47:37Z</time></trkpt><trkpt lat="37.61579090387471" lon="14.780108855984434"><ele>306.0</ele><time>2026-05-04T09:47:38Z</time></trkpt><trkpt lat="37.61570247482898" lon="14.779965150807744"><ele>307.0</ele><time>2026-05-04T09:47:39Z</time></trkpt><trkpt lat="37.615615215704906" lon="14.77981622313366"><ele>308.0</ele><time>2026-05-04T09:47:40Z</time></trkpt><trkpt lat="37.61553531447368" lon="14.779661388860546"><ele>309.0</ele><time>2026-05-04T09:47:41Z</time></trkpt><trkpt lat="37.61545666950159" lon="14.779505951023884"><ele>310.0</ele><time>2026-05-04T09:47:42Z</time></trkpt><trkpt lat="37.61537571742238" lon="14.77935520545913"><ele>311.5</ele><time>2026-05-04T09:47:43Z</time></trkpt><trkpt lat="37.61530433608374" lon="14.779205300315137"><ele>313.0</ele><time>2026-05-04T09:47:44Z</time></trkpt><trkpt lat="37.61524234122303" lon="14.779051279690002"><ele>314.5</ele><time>2026-05-04T09:47:45Z</time></trkpt><trkpt lat="37.61518658139559" lon="14.77888421350143"><ele>316.0</ele><time>2026-05-04T09:47:46Z</time></trkpt><trkpt lat="37.615138871295535" lon="14.77871015363511"><ele>316.0</ele><time>2026-05-04T09:47:47Z</time></trkpt><trkpt lat="37.61509962082037" lon="14.778536671583199"><ele>316.0</ele><time>2026-05-04T09:47:48Z</time></trkpt><trkpt lat="37.615074161701116" lon="14.778366142638154"><ele>316.0</ele><time>2026-05-04T09:47:49Z</time></trkpt><trkpt lat="37.61505802709637" lon="14.778192723640778"><ele>316.0</ele><time>2026-05-04T09:47:50Z</time></trkpt><trkpt lat="37.61503340673399" lon="14.778017147846446"><ele>316.75</ele><time>2026-05-04T09:47:51Z</time></trkpt><trkpt lat="37.614997955487105" lon="14.7778392735175"><ele>317.5</ele><time>2026-05-04T09:47:52Z</time></trkpt><trkpt lat="37.614953865104816" lon="14.777659043427258"><ele>318.25</ele><time>2026-05-04T09:47:53.001Z</time></trkpt><trkpt lat="37.614905776115386" lon="14.777477162415774"><ele>319.0</ele><time>2026-05-04T09:47:54.001Z</time></trkpt><trkpt lat="37.61485304834664" lon="14.777291785558166"><ele>320.5</ele><time>2026-05-04T09:47:55.001Z</time></trkpt><trkpt lat="37.614801960323575" lon="14.777104935920823"><ele>322.0</ele><time>2026-05-04T09:47:56.001Z</time></trkpt><trkpt lat="37.61475582475341" lon="14.776921771733685"><ele>323.5</ele><time>2026-05-04T09:47:58.001Z</time></trkpt><trkpt lat="37.61474152400188" lon="14.776762004451232"><ele>325.0</ele><time>2026-05-04T09:47:59.001Z</time></trkpt><trkpt lat="37.61473437785568" lon="14.776605563071136"><ele>326.5</ele><time>2026-05-04T09:48:00.001Z</time></trkpt><trkpt lat="37.61473724948325" lon="14.776442271959334"><ele>328.0</ele><time>2026-05-04T09:48:01.001Z</time></trkpt><trkpt lat="37.61473469330384" lon="14.776283399258709"><ele>329.5</ele><time>2026-05-04T09:48:02.001Z</time></trkpt><trkpt lat="37.61472025773203" lon="14.77611762625546"><ele>331.0</ele><time>2026-05-04T09:48:03.001Z</time></trkpt><trkpt lat="37.6147106284114" lon="14.775943351842526"><ele>332.0</ele><time>2026-05-04T09:48:04.001Z</time></trkpt><trkpt lat="37.614709804358085" lon="14.77575316034765"><ele>333.0</ele><time>2026-05-04T09:48:05.001Z</time></trkpt><trkpt lat="37.614713939358275" lon="14.775550789880878"><ele>334.0</ele><time>2026-05-04T09:48:06.001Z</time></trkpt><trkpt lat="37.61473974091628" lon="14.775335044205606"><ele>335.3333333333333</ele><time>2026-05-04T09:48:07.001Z</time></trkpt><trkpt lat="37.61476767332705" lon="14.775101850406134"><ele>336.6666666666667</ele><time>2026-05-04T09:48:08.001Z</time></trkpt><trkpt lat="37.61479353378028" lon="14.774848571004938"><ele>338.0</ele><time>2026-05-04T09:48:09.001Z</time></trkpt><trkpt lat="37.61481868431788" lon="14.774582646439766"><ele>338.33333333333337</ele><time>2026-05-04T09:48:10.001Z</time></trkpt><trkpt lat="37.614830030488704" lon="14.774307143935491"><ele>338.6666666666667</ele><time>2026-05-04T09:48:11.001Z</time></trkpt><trkpt lat="37.6148369923835" lon="14.774019359538713"><ele>339.0</ele><time>2026-05-04T09:48:12.001Z</time></trkpt><trkpt lat="37.61484505575209" lon="14.773733500879501"><ele>340.3333333333333</ele><time>2026-05-04T09:48:13.001Z</time></trkpt><trkpt lat="37.61484945008962" lon="14.773456030401153"><ele>341.66666666666663</ele><time>2026-05-04T09:48:14.001Z</time></trkpt><trkpt lat="37.61485372745827" lon="14.773213573463979"><ele>343.0</ele><time>2026-05-04T09:48:15.001Z</time></trkpt><trkpt lat="37.614831064629016" lon="14.772983993648877"><ele>343.0</ele><time>2026-05-04T09:48:16.001Z</time></trkpt><trkpt lat="37.61478662549638" lon="14.772754104898736"><ele>343.0</ele><time>2026-05-04T09:48:17.001Z</time></trkpt><trkpt lat="37.61474058879743" lon="14.772518827547168"><ele>343.0</ele><time>2026-05-04T09:48:18.001Z</time></trkpt><trkpt lat="37.61469637884083" lon="14.772276685904531"><ele>343.0</ele><time>2026-05-04T09:48:19.001Z</time></trkpt><trkpt lat="37.6146557048745" lon="14.772031688670195"><ele>343.0</ele><time>2026-05-04T09:48:20.001Z</time></trkpt><trkpt lat="37.61462154616299" lon="14.771779788594628"><ele>343.0</ele><time>2026-05-04T09:48:21.001Z</time></trkpt><trkpt lat="37.61459237032297" lon="14.771518570169086"><ele>344.3333333333333</ele><time>2026-05-04T09:48:22.001Z</time></trkpt><trkpt lat="37.61455926285939" lon="14.771259417422973"><ele>345.6666666666667</ele><time>2026-05-04T09:48:23.001Z</time></trkpt><trkpt lat="37.614527111617456" lon="14.77099483867982"><ele>347.0</ele><time>2026-05-04T09:48:24.001Z</time></trkpt><trkpt lat="37.614542310293444" lon="14.770730916849383"><ele>348.0</ele><time>2026-05-04T09:48:25.001Z</time></trkpt><trkpt lat="37.61454347886109" lon="14.77047242749978"><ele>349.0</ele><time>2026-05-04T09:48:26.001Z</time></trkpt><trkpt lat="37.61456019787094" lon="14.770217839388977"><ele>350.0</ele><time>2026-05-04T09:48:27.001Z</time></trkpt><trkpt lat="37.61457927221998" lon="14.769968775773117"><ele>351.33333333333337</ele><time>2026-05-04T09:48:28.001Z</time></trkpt><trkpt lat="37.614589808454916" lon="14.769724864500589"><ele>352.6666666666667</ele><time>2026-05-04T09:48:29.001Z</time></trkpt><trkpt lat="37.61460139550815" lon="14.769509993167729"><ele>354.0</ele><time>2026-05-04T09:48:30.001Z</time></trkpt><trkpt lat="37.61462401815755" lon="14.769312498807048"><ele>356.0</ele><time>2026-05-04T09:48:31.001Z</time></trkpt><trkpt lat="37.61465895189361" lon="14.769109400994031"><ele>358.0</ele><time>2026-05-04T09:48:32.001Z</time></trkpt><trkpt lat="37.614714826960835" lon="14.768895005710407"><ele>360.0</ele><time>2026-05-04T09:48:33.001Z</time></trkpt><trkpt lat="37.61477601951371" lon="14.76867395504374"><ele>362.3333333333333</ele><time>2026-05-04T09:48:34.001Z</time></trkpt><trkpt lat="37.614834840344535" lon="14.768445811138672"><ele>364.66666666666663</ele><time>2026-05-04T09:48:35.001Z</time></trkpt><trkpt lat="37.61488746685145" lon="14.768215186247488"><ele>367.0</ele><time>2026-05-04T09:48:36.001Z</time></trkpt><trkpt lat="37.61492668605501" lon="14.767986220826907"><ele>367.0</ele><time>2026-05-04T09:48:37.001Z</time></trkpt><trkpt lat="37.61496058788206" lon="14.767752577409768"><ele>367.0</ele><time>2026-05-04T09:48:38.001Z</time></trkpt><trkpt lat="37.614996733137055" lon="14.76752015872894"><ele>367.0</ele><time>2026-05-04T09:48:39.001Z</time></trkpt><trkpt lat="37.61505374105384" lon="14.767294486486318"><ele>367.66666666666663</ele><time>2026-05-04T09:48:40.001Z</time></trkpt><trkpt lat="37.615141829983074" lon="14.767076642997665"><ele>368.3333333333333</ele><time>2026-05-04T09:48:41.001Z</time></trkpt><trkpt lat="37.615259422398026" lon="14.766866438355672"><ele>369.0</ele><time>2026-05-04T09:48:42.001Z</time></trkpt><trkpt lat="37.61538216286581" lon="14.766661751339937"><ele>370.0</ele><time>2026-05-04T09:48:43.001Z</time></trkpt><trkpt lat="37.61548648368062" lon="14.766446636528629"><ele>371.0</ele><time>2026-05-04T09:48:44.001Z</time></trkpt><trkpt lat="37.61556982475161" lon="14.766219022928542"><ele>372.0</ele><time>2026-05-04T09:48:45.001Z</time></trkpt><trkpt lat="37.61563987426882" lon="14.765989411940751"><ele>373.3333333333333</ele><time>2026-05-04T09:48:46.001Z</time></trkpt><trkpt lat="37.615698092416935" lon="14.765777101128583"><ele>374.66666666666663</ele><time>2026-05-04T09:48:47.001Z</time></trkpt><trkpt lat="37.615752526532326" lon="14.765571571006362"><ele>376.0</ele><time>2026-05-04T09:48:48Z</time></trkpt><trkpt lat="37.615802441144965" lon="14.76535768578079"><ele>378.0</ele><time>2026-05-04T09:48:49Z</time></trkpt><trkpt lat="37.61584108804478" lon="14.76512869997465"><ele>380.0</ele><time>2026-05-04T09:48:50Z</time></trkpt><trkpt lat="37.61587385155192" lon="14.764879886390883"><ele>382.0</ele><time>2026-05-04T09:48:51Z</time></trkpt><trkpt lat="37.61590460360953" lon="14.764610514231421"><ele>385.0</ele><time>2026-05-04T09:48:52Z</time></trkpt><trkpt lat="37.61594390317768" lon="14.764328019255682"><ele>388.0</ele><time>2026-05-04T09:48:53Z</time></trkpt><trkpt lat="37.61597937802874" lon="14.76402300490093"><ele>388.0</ele><time>2026-05-04T09:48:54Z</time></trkpt><trkpt lat="37.6160099487962" lon="14.763717518043366"><ele>388.0</ele><time>2026-05-04T09:48:55Z</time></trkpt><trkpt lat="37.616062208928305" lon="14.763405044733691"><ele>393.0</ele><time>2026-05-04T09:48:56Z</time></trkpt><trkpt lat="37.61610219637456" lon="14.763085335216804"><ele>398.0</ele><time>2026-05-04T09:48:57Z</time></trkpt><trkpt lat="37.61613631615654" lon="14.762788895763336"><ele>398.66666666666663</ele><time>2026-05-04T09:48:58Z</time></trkpt><trkpt lat="37.61616577735902" lon="14.762523416029738"><ele>399.33333333333337</ele><time>2026-05-04T09:48:59Z</time></trkpt><trkpt lat="37.616192468919905" lon="14.762282535114824"><ele>400.0</ele><time>2026-05-04T09:49:00Z</time></trkpt><trkpt lat="37.61621824690329" lon="14.76204606695128"><ele>401.6666666666667</ele><time>2026-05-04T09:49:01Z</time></trkpt><trkpt lat="37.61625077930724" lon="14.76181093432058"><ele>403.33333333333337</ele><time>2026-05-04T09:49:02Z</time></trkpt><trkpt lat="37.616294682347586" lon="14.76157886685828"><ele>405.0</ele><time>2026-05-04T09:49:03Z</time></trkpt><trkpt lat="37.616340641959" lon="14.761342943764813"><ele>405.0</ele><time>2026-05-04T09:49:04Z</time></trkpt><trkpt lat="37.61638419967044" lon="14.76109319153925"><ele>405.0</ele><time>2026-05-04T09:49:05Z</time></trkpt><trkpt lat="37.61642716192751" lon="14.760842206614504"><ele>405.0</ele><time>2026-05-04T09:49:06Z</time></trkpt><trkpt lat="37.61647157770463" lon="14.76059254542237"><ele>407.33333333333337</ele><time>2026-05-04T09:49:07Z</time></trkpt><trkpt lat="37.61651345434398" lon="14.76035187953395"><ele>409.6666666666667</ele><time>2026-05-04T09:49:08Z</time></trkpt><trkpt lat="37.616551394559096" lon="14.760116253750882"><ele>412.0</ele><time>2026-05-04T09:49:09Z</time></trkpt><trkpt lat="37.61658808964635" lon="14.759887336549582"><ele>413.33333333333337</ele><time>2026-05-04T09:49:10Z</time></trkpt><trkpt lat="37.616628163063304" lon="14.759666139231392"><ele>414.66666666666663</ele><time>2026-05-04T09:49:11Z</time></trkpt><trkpt lat="37.616667998257114" lon="14.759466023295236"><ele>416.0</ele><time>2026-05-04T09:49:12Z</time></trkpt><trkpt lat="37.616704926145516" lon="14.759288227887417"><ele>415.5</ele><time>2026-05-04T09:49:13Z</time></trkpt><trkpt lat="37.61675787760689" lon="14.75912532746829"><ele>415.0</ele><time>2026-05-04T09:49:14Z</time></trkpt><trkpt lat="37.616832912729215" lon="14.758997632643837"><ele>414.5</ele><time>2026-05-04T09:49:15Z</time></trkpt><trkpt lat="37.61693327779898" lon="14.758891651569968"><ele>414.0</ele><time>2026-05-04T09:49:16Z</time></trkpt><trkpt lat="37.6170543597707" lon="14.758795227377766"><ele>414.0</ele><time>2026-05-04T09:49:17Z</time></trkpt><trkpt lat="37.61719391115555" lon="14.75870645848826"><ele>414.0</ele><time>2026-05-04T09:49:18Z</time></trkpt><trkpt lat="37.6173543253148" lon="14.758643096359489"><ele>414.0</ele><time>2026-05-04T09:49:19Z</time></trkpt><trkpt lat="37.617529650605405" lon="14.75864191664022"><ele>414.0</ele><time>2026-05-04T09:49:20Z</time></trkpt><trkpt lat="37.6177112573488" lon="14.758645470509867"><ele>414.0</ele><time>2026-05-04T09:49:21Z</time></trkpt><trkpt lat="37.61789722186519" lon="14.758645308485672"><ele>414.0</ele><time>2026-05-04T09:49:22Z</time></trkpt><trkpt lat="37.61808489908213" lon="14.758661225323708"><ele>415.33333333333337</ele><time>2026-05-04T09:49:23Z</time></trkpt><trkpt lat="37.61826597441951" lon="14.758666613483856"><ele>416.6666666666667</ele><time>2026-05-04T09:49:24Z</time></trkpt><trkpt lat="37.618437360969274" lon="14.758680601508573"><ele>418.0</ele><time>2026-05-04T09:49:25Z</time></trkpt><trkpt lat="37.61859191634709" lon="14.758700541729544"><ele>422.0</ele><time>2026-05-04T09:49:26Z</time></trkpt><trkpt lat="37.61873011819253" lon="14.758739602424592"><ele>426.0</ele><time>2026-05-04T09:49:27Z</time></trkpt><trkpt lat="37.61884761863717" lon="14.75881679914795"><ele>430.0</ele><time>2026-05-04T09:49:28Z</time></trkpt><trkpt lat="37.6189551531754" lon="14.758931861150794"><ele>434.0</ele><time>2026-05-04T09:49:29Z</time></trkpt><trkpt lat="37.61906317268147" lon="14.759067588834"><ele>434.0</ele><time>2026-05-04T09:49:30Z</time></trkpt><trkpt lat="37.61917098931527" lon="14.759213823813402"><ele>434.0</ele><time>2026-05-04T09:49:31Z</time></trkpt><trkpt lat="37.619285766434245" lon="14.759363828252031"><ele>434.0</ele><time>2026-05-04T09:49:32Z</time></trkpt><trkpt lat="37.61941132390819" lon="14.759513613864947"><ele>433.25</ele><time>2026-05-04T09:49:33Z</time></trkpt><trkpt lat="37.619543437727756" lon="14.759660965649509"><ele>432.5</ele><time>2026-05-04T09:49:34Z</time></trkpt><trkpt lat="37.619660807043914" lon="14.759784643981584"><ele>431.75</ele><time>2026-05-04T09:49:35Z</time></trkpt><trkpt lat="37.61976117743015" lon="14.759855600498874"><ele>431.0</ele><time>2026-05-04T09:49:36Z</time></trkpt><trkpt lat="37.61984409183177" lon="14.759861225472978"><ele>431.0</ele><time>2026-05-04T09:49:37Z</time></trkpt><trkpt lat="37.61990661380119" lon="14.759801218627763"><ele>431.0</ele><time>2026-05-04T09:49:38Z</time></trkpt><trkpt lat="37.61994525588196" lon="14.759687692715323"><ele>431.0</ele><time>2026-05-04T09:49:39Z</time></trkpt><trkpt lat="37.61994024976941" lon="14.75953537526917"><ele>431.0</ele><time>2026-05-04T09:49:40Z</time></trkpt><trkpt lat="37.61987721505138" lon="14.759383123808853"><ele>431.0</ele><time>2026-05-04T09:49:41Z</time></trkpt><trkpt lat="37.61976054413929" lon="14.759243089530067"><ele>432.0</ele><time>2026-05-04T09:49:42Z</time></trkpt><trkpt lat="37.619602777950334" lon="14.759092782113562"><ele>433.0</ele><time>2026-05-04T09:49:43Z</time></trkpt><trkpt lat="37.61946869469704" lon="14.758948930174277"><ele>434.0</ele><time>2026-05-04T09:49:44Z</time></trkpt><trkpt lat="37.61937315844533" lon="14.758815540092444"><ele>434.0</ele><time>2026-05-04T09:49:45Z</time></trkpt><trkpt lat="37.61930995431976" lon="14.758682507372546"><ele>434.0</ele><time>2026-05-04T09:49:46Z</time></trkpt><trkpt lat="37.61927551797901" lon="14.75852700210874"><ele>434.0</ele><time>2026-05-04T09:49:47Z</time></trkpt><trkpt lat="37.61928017821457" lon="14.758339691021792"><ele>434.0</ele><time>2026-05-04T09:49:48Z</time></trkpt><trkpt lat="37.61927173559152" lon="14.758138045313059"><ele>440.3333333333333</ele><time>2026-05-04T09:49:49Z</time></trkpt><trkpt lat="37.6192929303061" lon="14.7579368441408"><ele>446.66666666666663</ele><time>2026-05-04T09:49:50Z</time></trkpt><trkpt lat="37.61930750189362" lon="14.757735718625067"><ele>453.0</ele><time>2026-05-04T09:49:51Z</time></trkpt><trkpt lat="37.61931730215417" lon="14.757530495597274"><ele>454.66666666666663</ele><time>2026-05-04T09:49:52Z</time></trkpt><trkpt lat="37.61932864733196" lon="14.75732877031606"><ele>456.3333333333333</ele><time>2026-05-04T09:49:53Z</time></trkpt><trkpt lat="37.61934817344019" lon="14.757130370754316"><ele>458.0</ele><time>2026-05-04T09:49:54Z</time></trkpt><trkpt lat="37.619379579391456" lon="14.756941276755452"><ele>457.0</ele><time>2026-05-04T09:49:55Z</time></trkpt><trkpt lat="37.619434106149185" lon="14.756758853570673"><ele>456.0</ele><time>2026-05-04T09:49:56Z</time></trkpt><trkpt lat="37.619505528094145" lon="14.756587425356138"><ele>455.0</ele><time>2026-05-04T09:49:57Z</time></trkpt><trkpt lat="37.61958904520756" lon="14.75641786038276"><ele>463.0</ele><time>2026-05-04T09:49:58Z</time></trkpt><trkpt lat="37.619685372315914" lon="14.756258113974882"><ele>471.0</ele><time>2026-05-04T09:49:59Z</time></trkpt><trkpt lat="37.61979665022064" lon="14.756113821054225"><ele>479.0</ele><time>2026-05-04T09:50:00Z</time></trkpt><trkpt lat="37.619922626522694" lon="14.755981099882213"><ele>479.0</ele><time>2026-05-04T09:50:01.001Z</time></trkpt><trkpt lat="37.62005819283801" lon="14.755864687408527"><ele>479.0</ele><time>2026-05-04T09:50:02.001Z</time></trkpt><trkpt lat="37.62020171477288" lon="14.755767475195876"><ele>479.0</ele><time>2026-05-04T09:50:03.001Z</time></trkpt><trkpt lat="37.62035230028575" lon="14.755679315462148"><ele>488.3333333333333</ele><time>2026-05-04T09:50:04.001Z</time></trkpt><trkpt lat="37.62050065634408" lon="14.755584469407848"><ele>497.66666666666663</ele><time>2026-05-04T09:50:05.001Z</time></trkpt><trkpt lat="37.620637033830036" lon="14.755472520052274"><ele>507.0</ele><time>2026-05-04T09:50:06.001Z</time></trkpt><trkpt lat="37.620771045332226" lon="14.755362917273525"><ele>507.0</ele><time>2026-05-04T09:50:07.001Z</time></trkpt><trkpt lat="37.620871344456155" lon="14.755215160718238"><ele>507.0</ele><time>2026-05-04T09:50:08.001Z</time></trkpt><trkpt lat="37.62092907654483" lon="14.755035241562597"><ele>507.0</ele><time>2026-05-04T09:50:09.001Z</time></trkpt><trkpt lat="37.620951637457175" lon="14.75483196365033"><ele>503.0</ele><time>2026-05-04T09:50:10.001Z</time></trkpt><trkpt lat="37.62095956995003" lon="14.754615613084578"><ele>499.0</ele><time>2026-05-04T09:50:11.001Z</time></trkpt><trkpt lat="37.620966351822375" lon="14.754402314188843"><ele>495.0</ele><time>2026-05-04T09:50:12.001Z</time></trkpt><trkpt lat="37.620977062974426" lon="14.754186759479047"><ele>494.0</ele><time>2026-05-04T09:50:13.001Z</time></trkpt><trkpt lat="37.62098966012575" lon="14.753972775076061"><ele>493.0</ele><time>2026-05-04T09:50:14.001Z</time></trkpt><trkpt lat="37.621010246608435" lon="14.753760961299133"><ele>492.0</ele><time>2026-05-04T09:50:15.001Z</time></trkpt><trkpt lat="37.62105027602959" lon="14.753547909946667"><ele>489.66666666666663</ele><time>2026-05-04T09:50:16.001Z</time></trkpt><trkpt lat="37.62114530382083" lon="14.753358531863418"><ele>487.3333333333333</ele><time>2026-05-04T09:50:17.001Z</time></trkpt><trkpt lat="37.621237808582805" lon="14.753171187961875"><ele>485.0</ele><time>2026-05-04T09:50:18.001Z</time></trkpt><trkpt lat="37.62135369662204" lon="14.752992334024814"><ele>495.66666666666663</ele><time>2026-05-04T09:50:19.001Z</time></trkpt><trkpt lat="37.62145321209811" lon="14.752805989120416"><ele>506.33333333333337</ele><time>2026-05-04T09:50:20.001Z</time></trkpt><trkpt lat="37.62153738202448" lon="14.752609024289432"><ele>517.0</ele><time>2026-05-04T09:50:21.001Z</time></trkpt><trkpt lat="37.621610079781725" lon="14.752404230633365"><ele>517.0</ele><time>2026-05-04T09:50:22.001Z</time></trkpt><trkpt lat="37.621676040737775" lon="14.752205431869937"><ele>517.0</ele><time>2026-05-04T09:50:23.001Z</time></trkpt><trkpt lat="37.62173129265351" lon="14.752020831289697"><ele>517.0</ele><time>2026-05-04T09:50:24.001Z</time></trkpt><trkpt lat="37.62179537532679" lon="14.751867001814741"><ele>519.25</ele><time>2026-05-04T09:50:25.001Z</time></trkpt><trkpt lat="37.621864277456496" lon="14.751752039279792"><ele>521.5</ele><time>2026-05-04T09:50:26.001Z</time></trkpt><trkpt lat="37.62195667827525" lon="14.751691063470334"><ele>523.75</ele><time>2026-05-04T09:50:27.001Z</time></trkpt><trkpt lat="37.622085910600845" lon="14.751675573712197"><ele>526.0</ele><time>2026-05-04T09:50:28.001Z</time></trkpt><trkpt lat="37.6222226436716" lon="14.75168243393364"><ele>526.0</ele><time>2026-05-04T09:50:29.001Z</time></trkpt><trkpt lat="37.6223791848088" lon="14.751693096140835"><ele>526.0</ele><time>2026-05-04T09:50:30.001Z</time></trkpt><trkpt lat="37.62255435108706" lon="14.751690193702133"><ele>526.0</ele><time>2026-05-04T09:50:31.001Z</time></trkpt><trkpt lat="37.62273967354298" lon="14.751673401511399"><ele>531.3333333333334</ele><time>2026-05-04T09:50:32.001Z</time></trkpt><trkpt lat="37.62292393685712" lon="14.75164009749704"><ele>536.6666666666666</ele><time>2026-05-04T09:50:33.001Z</time></trkpt><trkpt lat="37.62310071283422" lon="14.751577813588604"><ele>542.0</ele><time>2026-05-04T09:50:34.001Z</time></trkpt><trkpt lat="37.62326745996877" lon="14.751492125370158"><ele>542.0</ele><time>2026-05-04T09:50:35.001Z</time></trkpt><trkpt lat="37.62342314632639" lon="14.751404022892109"><ele>542.0</ele><time>2026-05-04T09:50:36.001Z</time></trkpt><trkpt lat="37.62359295406586" lon="14.751366722630358"><ele>542.0</ele><time>2026-05-04T09:50:37.001Z</time></trkpt><trkpt lat="37.623756488718456" lon="14.751395826933981"><ele>546.75</ele><time>2026-05-04T09:50:38.001Z</time></trkpt><trkpt lat="37.62388345351764" lon="14.751470023529155"><ele>551.5</ele><time>2026-05-04T09:50:39.001Z</time></trkpt><trkpt lat="37.6239895936151" lon="14.751506872663459"><ele>556.25</ele><time>2026-05-04T09:50:40.001Z</time></trkpt><trkpt lat="37.62410269773818" lon="14.75145584773816"><ele>561.0</ele><time>2026-05-04T09:50:41.001Z</time></trkpt><trkpt lat="37.62419705774955" lon="14.75133213880821"><ele>561.0</ele><time>2026-05-04T09:50:42.001Z</time></trkpt><trkpt lat="37.62424586207668" lon="14.751154247245555"><ele>561.0</ele><time>2026-05-04T09:50:43.001Z</time></trkpt><trkpt lat="37.62424952401987" lon="14.75094555723427"><ele>561.0</ele><time>2026-05-04T09:50:44.001Z</time></trkpt><trkpt lat="37.62419038537493" lon="14.75077175805213"><ele>558.3333333333334</ele><time>2026-05-04T09:50:45.001Z</time></trkpt><trkpt lat="37.624112622434154" lon="14.750583742167644"><ele>555.6666666666667</ele><time>2026-05-04T09:50:46.001Z</time></trkpt><trkpt lat="37.62403822893276" lon="14.750483850615623"><ele>553.0</ele><time>2026-05-04T09:50:47.001Z</time></trkpt><trkpt lat="37.62387491247492" lon="14.750377158226057"><ele>553.0</ele><time>2026-05-04T09:50:48.001Z</time></trkpt><trkpt lat="37.62368895730904" lon="14.750323948294401"><ele>553.0</ele><time>2026-05-04T09:50:49.001Z</time></trkpt><trkpt lat="37.62349194603691" lon="14.750296297910472"><ele>553.0</ele><time>2026-05-04T09:50:50.001Z</time></trkpt><trkpt lat="37.62331665881443" lon="14.750216156135544"><ele>554.5</ele><time>2026-05-04T09:50:51.001Z</time></trkpt><trkpt lat="37.62312813069108" lon="14.750165811347262"><ele>556.0</ele><time>2026-05-04T09:50:52.001Z</time></trkpt><trkpt lat="37.62301633452817" lon="14.750099920054113"><ele>557.5</ele><time>2026-05-04T09:50:53.001Z</time></trkpt><trkpt lat="37.62290853792744" lon="14.750045314001786"><ele>559.0</ele><time>2026-05-04T09:50:54Z</time></trkpt><trkpt lat="37.62284578927416" lon="14.749968738353019"><ele>559.0</ele><time>2026-05-04T09:50:55Z</time></trkpt><trkpt lat="37.62281611090565" lon="14.74987176665906"><ele>559.0</ele><time>2026-05-04T09:50:56Z</time></trkpt><trkpt lat="37.622821990141546" lon="14.749754352204322"><ele>559.0</ele><time>2026-05-04T09:50:57Z</time></trkpt><trkpt lat="37.62286962807942" lon="14.749605139881846"><ele>559.0</ele><time>2026-05-04T09:50:58Z</time></trkpt><trkpt lat="37.622918028915244" lon="14.749411762720804"><ele>560.3333333333334</ele><time>2026-05-04T09:50:59Z</time></trkpt><trkpt lat="37.62298684146981" lon="14.74923357004411"><ele>561.6666666666666</ele><time>2026-05-04T09:51:00Z</time></trkpt><trkpt lat="37.62309917216581" lon="14.749088567219369"><ele>563.0</ele><time>2026-05-04T09:51:01Z</time></trkpt><trkpt lat="37.62323975152658" lon="14.749030074443423"><ele>563.0</ele><time>2026-05-04T09:51:02Z</time></trkpt><trkpt lat="37.62339977277788" lon="14.748971729620754"><ele>563.0</ele><time>2026-05-04T09:51:03Z</time></trkpt><trkpt lat="37.62357562707596" lon="14.74890719401378"><ele>563.0</ele><time>2026-05-04T09:51:04Z</time></trkpt><trkpt lat="37.62371295438585" lon="14.748863446948564"><ele>572.0</ele><time>2026-05-04T09:51:05Z</time></trkpt><trkpt lat="37.623807558903906" lon="14.748816313312945"><ele>581.0</ele><time>2026-05-04T09:51:06Z</time></trkpt><trkpt lat="37.623885185768245" lon="14.748731121213446"><ele>590.0</ele><time>2026-05-04T09:51:07Z</time></trkpt><trkpt lat="37.62393377225106" lon="14.748590301272678"><ele>599.0</ele><time>2026-05-04T09:51:08Z</time></trkpt><trkpt lat="37.623931260022424" lon="14.74841433247069"><ele>600.6666666666666</ele><time>2026-05-04T09:51:09Z</time></trkpt><trkpt lat="37.623877988653625" lon="14.74823527367508"><ele>602.3333333333334</ele><time>2026-05-04T09:51:10Z</time></trkpt><trkpt lat="37.62379159282656" lon="14.748067390598695"><ele>604.0</ele><time>2026-05-04T09:51:11Z</time></trkpt><trkpt lat="37.62370941870197" lon="14.747904216829554"><ele>592.25</ele><time>2026-05-04T09:51:12Z</time></trkpt><trkpt lat="37.62363396436341" lon="14.74773502447896"><ele>580.5</ele><time>2026-05-04T09:51:13Z</time></trkpt><trkpt lat="37.62355657773091" lon="14.747569079623773"><ele>568.75</ele><time>2026-05-04T09:51:14Z</time></trkpt><trkpt lat="37.62351011413015" lon="14.747411004757515"><ele>557.0</ele><time>2026-05-04T09:51:15Z</time></trkpt><trkpt lat="37.623485617827306" lon="14.747285966135516"><ele>557.0</ele><time>2026-05-04T09:51:16Z</time></trkpt><trkpt lat="37.62347537761676" lon="14.74716820275012"><ele>557.0</ele><time>2026-05-04T09:51:17Z</time></trkpt><trkpt lat="37.6235411330412" lon="14.747089755749526"><ele>557.0</ele><time>2026-05-04T09:51:18Z</time></trkpt><trkpt lat="37.62361713091371" lon="14.746995715904848"><ele>557.0</ele><time>2026-05-04T09:51:19Z</time></trkpt><trkpt lat="37.62370887671742" lon="14.74686643206679"><ele>557.0</ele><time>2026-05-04T09:51:20Z</time></trkpt><trkpt lat="37.62381838815565" lon="14.746753327763278"><ele>568.5</ele><time>2026-05-04T09:51:21Z</time></trkpt><trkpt lat="37.623907624368634" lon="14.746626358476364"><ele>580.0</ele><time>2026-05-04T09:51:22Z</time></trkpt><trkpt lat="37.623980545019904" lon="14.7464711723312"><ele>591.5</ele><time>2026-05-04T09:51:23Z</time></trkpt><trkpt lat="37.624021152334684" lon="14.746298254287963"><ele>603.0</ele><time>2026-05-04T09:51:24Z</time></trkpt><trkpt lat="37.624028920823584" lon="14.746121061436005"><ele>601.0</ele><time>2026-05-04T09:51:25Z</time></trkpt><trkpt lat="37.62398639282656" lon="14.745946654491574"><ele>599.0</ele><time>2026-05-04T09:51:26Z</time></trkpt><trkpt lat="37.623900421698174" lon="14.745784613195553"><ele>597.0</ele><time>2026-05-04T09:51:27Z</time></trkpt><trkpt lat="37.623796840742365" lon="14.745639791607454"><ele>597.0</ele><time>2026-05-04T09:51:28Z</time></trkpt><trkpt lat="37.62371032735457" lon="14.745513165293708"><ele>597.0</ele><time>2026-05-04T09:51:29Z</time></trkpt><trkpt lat="37.623686499023144" lon="14.745371949041482"><ele>597.0</ele><time>2026-05-04T09:51:30Z</time></trkpt><trkpt lat="37.623686465747745" lon="14.745229591117612"><ele>597.0</ele><time>2026-05-04T09:51:31Z</time></trkpt><trkpt lat="37.62374361621234" lon="14.745104596815002"><ele>596.75</ele><time>2026-05-04T09:51:32Z</time></trkpt><trkpt lat="37.623800686329616" lon="14.744957418120931"><ele>596.5</ele><time>2026-05-04T09:51:33Z</time></trkpt><trkpt lat="37.623855846763995" lon="14.74479405761546"><ele>596.25</ele><time>2026-05-04T09:51:34Z</time></trkpt><trkpt lat="37.623915755542235" lon="14.744630361455382"><ele>596.0</ele><time>2026-05-04T09:51:35Z</time></trkpt><trkpt lat="37.62397743701938" lon="14.744457877249246"><ele>595.0</ele><time>2026-05-04T09:51:36Z</time></trkpt><trkpt lat="37.62404421708885" lon="14.744282037049853"><ele>594.0</ele><time>2026-05-04T09:51:37Z</time></trkpt><trkpt lat="37.62411200563256" lon="14.744102988107137"><ele>593.0</ele><time>2026-05-04T09:51:38Z</time></trkpt><trkpt lat="37.62417439618423" lon="14.743920299829442"><ele>593.0</ele><time>2026-05-04T09:51:39Z</time></trkpt><trkpt lat="37.62421931113735" lon="14.74373002279509"><ele>593.0</ele><time>2026-05-04T09:51:40Z</time></trkpt><trkpt lat="37.62425151606358" lon="14.743564122461384"><ele>593.0</ele><time>2026-05-04T09:51:41Z</time></trkpt><trkpt lat="37.62426767738119" lon="14.743417075511026"><ele>593.0</ele><time>2026-05-04T09:51:42Z</time></trkpt><trkpt lat="37.624266267936626" lon="14.743280621279183"><ele>594.5</ele><time>2026-05-04T09:51:43Z</time></trkpt><trkpt lat="37.624215854890096" lon="14.743135024447772"><ele>596.0</ele><time>2026-05-04T09:51:44Z</time></trkpt><trkpt lat="37.62412125184324" lon="14.743002226773726"><ele>597.5</ele><time>2026-05-04T09:51:45Z</time></trkpt><trkpt lat="37.624005074129535" lon="14.742886100591402"><ele>599.0</ele><time>2026-05-04T09:51:46Z</time></trkpt><trkpt lat="37.62387449304455" lon="14.742784516383585"><ele>603.6666666666666</ele><time>2026-05-04T09:51:47Z</time></trkpt><trkpt lat="37.62373026409856" lon="14.742699357262408"><ele>608.3333333333334</ele><time>2026-05-04T09:51:48Z</time></trkpt><trkpt lat="37.62358290695039" lon="14.742624724647433"><ele>613.0</ele><time>2026-05-04T09:51:49Z</time></trkpt><trkpt lat="37.623450961193974" lon="14.742569280730875"><ele>613.0</ele><time>2026-05-04T09:51:50Z</time></trkpt><trkpt lat="37.62332516576942" lon="14.742540804871378"><ele>613.0</ele><time>2026-05-04T09:51:51Z</time></trkpt><trkpt lat="37.623187401659806" lon="14.742574437918208"><ele>613.0</ele><time>2026-05-04T09:51:52Z</time></trkpt><trkpt lat="37.62304484271601" lon="14.742685993480228"><ele>613.0</ele><time>2026-05-04T09:51:53Z</time></trkpt><trkpt lat="37.622917451438376" lon="14.742799261624825"><ele>613.8</ele><time>2026-05-04T09:51:54Z</time></trkpt><trkpt lat="37.62280289599035" lon="14.742937091213156"><ele>614.5999999999999</ele><time>2026-05-04T09:51:55Z</time></trkpt><trkpt lat="37.6227293507246" lon="14.74305329663094"><ele>615.4000000000001</ele><time>2026-05-04T09:51:56Z</time></trkpt><trkpt lat="37.62266373769081" lon="14.743118098669576"><ele>616.2</ele><time>2026-05-04T09:51:57Z</time></trkpt><trkpt lat="37.62261696086209" lon="14.74318540562381"><ele>617.0</ele><time>2026-05-04T09:51:58Z</time></trkpt><trkpt lat="37.622562275219686" lon="14.743262624330168"><ele>617.0</ele><time>2026-05-04T09:51:59Z</time></trkpt><trkpt lat="37.62249751384144" lon="14.743351356273953"><ele>617.0</ele><time>2026-05-04T09:52:00Z</time></trkpt><trkpt lat="37.62242234106369" lon="14.74345097943021"><ele>617.0</ele><time>2026-05-04T09:52:01Z</time></trkpt><trkpt lat="37.622343573078105" lon="14.743563754483903"><ele>617.0</ele><time>2026-05-04T09:52:02Z</time></trkpt><trkpt lat="37.62227225054942" lon="14.743700253400455"><ele>609.3333333333333</ele><time>2026-05-04T09:52:03Z</time></trkpt><trkpt lat="37.62218809160661" lon="14.743840893772765"><ele>601.6666666666666</ele><time>2026-05-04T09:52:04Z</time></trkpt><trkpt lat="37.62209552278315" lon="14.743996121540118"><ele>594.0</ele><time>2026-05-04T09:52:05Z</time></trkpt><trkpt lat="37.62198186146486" lon="14.744141306103774"><ele>600.3333333333334</ele><time>2026-05-04T09:52:06Z</time></trkpt><trkpt lat="37.62188178740931" lon="14.744316033156794"><ele>606.6666666666667</ele><time>2026-05-04T09:52:07Z</time></trkpt><trkpt lat="37.62177505219537" lon="14.74447610459352"><ele>613.0</ele><time>2026-05-04T09:52:08Z</time></trkpt><trkpt lat="37.62167370854169" lon="14.744643040739247"><ele>613.0</ele><time>2026-05-04T09:52:09Z</time></trkpt><trkpt lat="37.62157768758714" lon="14.744785166007771"><ele>613.0</ele><time>2026-05-04T09:52:10Z</time></trkpt><trkpt lat="37.62149364790499" lon="14.744923115307213"><ele>613.0</ele><time>2026-05-04T09:52:11Z</time></trkpt><trkpt lat="37.621391951470024" lon="14.74505530381929"><ele>613.0</ele><time>2026-05-04T09:52:12Z</time></trkpt><trkpt lat="37.62129947490657" lon="14.745205717867133"><ele>617.6666666666667</ele><time>2026-05-04T09:52:13Z</time></trkpt><trkpt lat="37.621201812581184" lon="14.745355753422436"><ele>622.3333333333334</ele><time>2026-05-04T09:52:14Z</time></trkpt><trkpt lat="37.62109101322365" lon="14.745509369517832"><ele>627.0</ele><time>2026-05-04T09:52:15Z</time></trkpt><trkpt lat="37.62097636911222" lon="14.745657082112235"><ele>627.0</ele><time>2026-05-04T09:52:16Z</time></trkpt><trkpt lat="37.6208585501654" lon="14.745800279906181"><ele>627.0</ele><time>2026-05-04T09:52:17Z</time></trkpt><trkpt lat="37.62073281834943" lon="14.745931213156675"><ele>627.0</ele><time>2026-05-04T09:52:18Z</time></trkpt><trkpt lat="37.62058658633911" lon="14.746033469857425"><ele>627.6666666666666</ele><time>2026-05-04T09:52:19Z</time></trkpt><trkpt lat="37.62043063551367" lon="14.74611973651406"><ele>628.3333333333333</ele><time>2026-05-04T09:52:20Z</time></trkpt><trkpt lat="37.62027728629123" lon="14.746207050331712"><ele>629.0</ele><time>2026-05-04T09:52:21Z</time></trkpt><trkpt lat="37.620132130534536" lon="14.74629885162167"><ele>629.0</ele><time>2026-05-04T09:52:22Z</time></trkpt><trkpt lat="37.62002118045935" lon="14.746403376757067"><ele>629.0</ele><time>2026-05-04T09:52:23Z</time></trkpt><trkpt lat="37.619919641017425" lon="14.74651665726043"><ele>629.0</ele><time>2026-05-04T09:52:24Z</time></trkpt><trkpt lat="37.61982905536205" lon="14.746655709899297"><ele>629.0</ele><time>2026-05-04T09:52:25Z</time></trkpt><trkpt lat="37.61974290863311" lon="14.746791794938582"><ele>627.4</ele><time>2026-05-04T09:52:26Z</time></trkpt><trkpt lat="37.6196696455767" lon="14.746908009291783"><ele>625.8</ele><time>2026-05-04T09:52:27Z</time></trkpt><trkpt lat="37.61961303233855" lon="14.747003646071317"><ele>624.2</ele><time>2026-05-04T09:52:28Z</time></trkpt><trkpt lat="37.61956843112167" lon="14.747098277563822"><ele>622.6</ele><time>2026-05-04T09:52:29Z</time></trkpt><trkpt lat="37.619540173774446" lon="14.747207008814954"><ele>621.0</ele><time>2026-05-04T09:52:30Z</time></trkpt><trkpt lat="37.61953114126362" lon="14.747336353745544"><ele>621.0</ele><time>2026-05-04T09:52:31Z</time></trkpt><trkpt lat="37.61953180462467" lon="14.74745917589987"><ele>621.0</ele><time>2026-05-04T09:52:32.001Z</time></trkpt><trkpt lat="37.6195089245447" lon="14.747570579933267"><ele>621.0</ele><time>2026-05-04T09:52:33.001Z</time></trkpt><trkpt lat="37.6195015463658" lon="14.747682590007923"><ele>621.0</ele><time>2026-05-04T09:52:34.001Z</time></trkpt><trkpt lat="37.61949423638171" lon="14.74779349495773"><ele>621.0</ele><time>2026-05-04T09:52:35.001Z</time></trkpt><trkpt lat="37.61950300402348" lon="14.747906007196336"><ele>622.6666666666666</ele><time>2026-05-04T09:52:36.001Z</time></trkpt><trkpt lat="37.619479663863665" lon="14.74801458519558"><ele>624.3333333333334</ele><time>2026-05-04T09:52:37.001Z</time></trkpt><trkpt lat="37.61946631146312" lon="14.748120444201344"><ele>626.0</ele><time>2026-05-04T09:52:38.001Z</time></trkpt><trkpt lat="37.6194378178009" lon="14.748213762165621"><ele>627.6666666666667</ele><time>2026-05-04T09:52:39.001Z</time></trkpt><trkpt lat="37.61940742642931" lon="14.748305251293441"><ele>629.3333333333334</ele><time>2026-05-04T09:52:40.001Z</time></trkpt><trkpt lat="37.61931494611221" lon="14.74832394353997"><ele>631.0</ele><time>2026-05-04T09:52:41.001Z</time></trkpt><trkpt lat="37.61923000454555" lon="14.748313978102846"><ele>631.0</ele><time>2026-05-04T09:52:42.001Z</time></trkpt><trkpt lat="37.61915801279429" lon="14.74827806865005"><ele>631.0</ele><time>2026-05-04T09:52:43.001Z</time></trkpt><trkpt lat="37.61910426018746" lon="14.748198959853752"><ele>631.0</ele><time>2026-05-04T09:52:44.001Z</time></trkpt><trkpt lat="37.61906250977019" lon="14.748105190132701"><ele>631.0</ele><time>2026-05-04T09:52:45.001Z</time></trkpt><trkpt lat="37.619007486788426" lon="14.748018954419505"><ele>631.0</ele><time>2026-05-04T09:52:46.001Z</time></trkpt><trkpt lat="37.618948446766936" lon="14.747930683366025"><ele>631.0</ele><time>2026-05-04T09:52:47.001Z</time></trkpt><trkpt lat="37.618865498255296" lon="14.747858617384503"><ele>631.0</ele><time>2026-05-04T09:52:48.001Z</time></trkpt><trkpt lat="37.61875568002369" lon="14.747774287353868"><ele>631.0</ele><time>2026-05-04T09:52:49.001Z</time></trkpt><trkpt lat="37.61859017985796" lon="14.747753982861926"><ele>631.0</ele><time>2026-05-04T09:52:50.001Z</time></trkpt><trkpt lat="37.61843750420921" lon="14.74768135772775"><ele>636.0</ele><time>2026-05-04T09:52:51.001Z</time></trkpt><trkpt lat="37.61828660828451" lon="14.747611806877483"><ele>641.0</ele><time>2026-05-04T09:52:52.001Z</time></trkpt><trkpt lat="37.6181624329826" lon="14.747553189163979"><ele>646.0</ele><time>2026-05-04T09:52:53.001Z</time></trkpt><trkpt lat="37.61808146593892" lon="14.747478818592185"><ele>651.0</ele><time>2026-05-04T09:52:54.001Z</time></trkpt><trkpt lat="37.618050065735424" lon="14.747394971549456"><ele>651.0</ele><time>2026-05-04T09:52:56.001Z</time></trkpt><trkpt lat="37.61819626926298" lon="14.74736051339817"><ele>651.0</ele><time>2026-05-04T09:52:58.001Z</time></trkpt><trkpt lat="37.61831246718471" lon="14.747381591883144"><ele>651.0</ele><time>2026-05-04T09:52:59.001Z</time></trkpt><trkpt lat="37.61844734127536" lon="14.747412586763463"><ele>651.0</ele><time>2026-05-04T09:53:00Z</time></trkpt><trkpt lat="37.61858776239015" lon="14.747432736162924"><ele>649.5999999999999</ele><time>2026-05-04T09:53:01Z</time></trkpt><trkpt lat="37.6187152073906" lon="14.747449876001294"><ele>648.2</ele><time>2026-05-04T09:53:02Z</time></trkpt><trkpt lat="37.61882584305482" lon="14.747464232594638"><ele>646.8</ele><time>2026-05-04T09:53:03Z</time></trkpt><trkpt lat="37.618909162722716" lon="14.747447968527528"><ele>645.4000000000001</ele><time>2026-05-04T09:53:04Z</time></trkpt><trkpt lat="37.618971865422395" lon="14.747389929439063"><ele>644.0</ele><time>2026-05-04T09:53:05Z</time></trkpt><trkpt lat="37.61901273451882" lon="14.747295597128897"><ele>644.0</ele><time>2026-05-04T09:53:06Z</time></trkpt><trkpt lat="37.61904158672507" lon="14.747171634324742"><ele>644.0</ele><time>2026-05-04T09:53:07Z</time></trkpt><trkpt lat="37.61907091314012" lon="14.747040531252294"><ele>644.0</ele><time>2026-05-04T09:53:08Z</time></trkpt><trkpt lat="37.61911125346383" lon="14.746903643940136"><ele>644.0</ele><time>2026-05-04T09:53:09Z</time></trkpt><trkpt lat="37.619155715644894" lon="14.746763570088916"><ele>644.0</ele><time>2026-05-04T09:53:10Z</time></trkpt><trkpt lat="37.61920757212409" lon="14.746615266858619"><ele>640.25</ele><time>2026-05-04T09:53:11Z</time></trkpt><trkpt lat="37.61928953960952" lon="14.746485985359172"><ele>636.5</ele><time>2026-05-04T09:53:12Z</time></trkpt><trkpt lat="37.61937621455655" lon="14.746358219142852"><ele>632.75</ele><time>2026-05-04T09:53:13Z</time></trkpt><trkpt lat="37.61946715646669" lon="14.746231180546236"><ele>629.0</ele><time>2026-05-04T09:53:14Z</time></trkpt><trkpt lat="37.61954698601546" lon="14.746090732594146"><ele>635.25</ele><time>2026-05-04T09:53:15Z</time></trkpt><trkpt lat="37.61964589422378" lon="14.745971124764207"><ele>641.5</ele><time>2026-05-04T09:53:16Z</time></trkpt><trkpt lat="37.61974886668692" lon="14.745866171727242"><ele>647.75</ele><time>2026-05-04T09:53:17Z</time></trkpt><trkpt lat="37.619853297290156" lon="14.745750049021686"><ele>654.0</ele><time>2026-05-04T09:53:18Z</time></trkpt><trkpt lat="37.619989107552954" lon="14.74564579969382"><ele>654.0</ele><time>2026-05-04T09:53:19Z</time></trkpt><trkpt lat="37.62016739091261" lon="14.74553943022067"><ele>654.0</ele><time>2026-05-04T09:53:20Z</time></trkpt><trkpt lat="37.62035220326581" lon="14.745441522135685"><ele>654.0</ele><time>2026-05-04T09:53:21Z</time></trkpt><trkpt lat="37.620511947258464" lon="14.745329623287864"><ele>656.0</ele><time>2026-05-04T09:53:22Z</time></trkpt><trkpt lat="37.620635293061135" lon="14.745167233143812"><ele>658.0</ele><time>2026-05-04T09:53:23Z</time></trkpt><trkpt lat="37.62073792609525" lon="14.744943456305647"><ele>660.0</ele><time>2026-05-04T09:53:24Z</time></trkpt><trkpt lat="37.620817245857275" lon="14.744715344363923"><ele>660.0</ele><time>2026-05-04T09:53:25Z</time></trkpt><trkpt lat="37.62088119987574" lon="14.744525117955257"><ele>660.0</ele><time>2026-05-04T09:53:26Z</time></trkpt><trkpt lat="37.62095150672882" lon="14.744354497423256"><ele>660.0</ele><time>2026-05-04T09:53:27Z</time></trkpt><trkpt lat="37.62102121667537" lon="14.744190584449981"><ele>652.0</ele><time>2026-05-04T09:53:28Z</time></trkpt><trkpt lat="37.621097052743465" lon="14.744024886791967"><ele>644.0</ele><time>2026-05-04T09:53:29Z</time></trkpt><trkpt lat="37.62117479687545" lon="14.743842364994284"><ele>636.0</ele><time>2026-05-04T09:53:30Z</time></trkpt><trkpt lat="37.62125501926821" lon="14.74364283559638"><ele>648.0</ele><time>2026-05-04T09:53:31Z</time></trkpt><trkpt lat="37.62134137039079" lon="14.743449667689953"><ele>660.0</ele><time>2026-05-04T09:53:32Z</time></trkpt><trkpt lat="37.62141915234289" lon="14.743262801906948"><ele>672.0</ele><time>2026-05-04T09:53:33Z</time></trkpt><trkpt lat="37.62149738439053" lon="14.743079751877156"><ele>672.0</ele><time>2026-05-04T09:53:34Z</time></trkpt><trkpt lat="37.621584313255056" lon="14.742905416826638"><ele>672.0</ele><time>2026-05-04T09:53:35Z</time></trkpt><trkpt lat="37.62167598703757" lon="14.742732881358258"><ele>672.0</ele><time>2026-05-04T09:53:36Z</time></trkpt><trkpt lat="37.621761369347404" lon="14.742562322486886"><ele>677.75</ele><time>2026-05-04T09:53:37Z</time></trkpt><trkpt lat="37.62184282323216" lon="14.742410096381636"><ele>683.5</ele><time>2026-05-04T09:53:38Z</time></trkpt><trkpt lat="37.621904206296286" lon="14.742272936643568"><ele>689.25</ele><time>2026-05-04T09:53:39Z</time></trkpt><trkpt lat="37.62194304504062" lon="14.742130855868632"><ele>695.0</ele><time>2026-05-04T09:53:40Z</time></trkpt><trkpt lat="37.62195133266396" lon="14.741997771605337"><ele>698.0</ele><time>2026-05-04T09:53:41Z</time></trkpt><trkpt lat="37.62195360700579" lon="14.741876825908193"><ele>701.0</ele><time>2026-05-04T09:53:42Z</time></trkpt><trkpt lat="37.62195260511534" lon="14.741764069162159"><ele>704.0</ele><time>2026-05-04T09:53:43Z</time></trkpt><trkpt lat="37.62198177838774" lon="14.741632133560232"><ele>707.0</ele><time>2026-05-04T09:53:45Z</time></trkpt><trkpt lat="37.62196939053108" lon="14.741481898652255"><ele>710.0</ele><time>2026-05-04T09:53:47Z</time></trkpt><trkpt lat="37.621967398592275" lon="14.741350019489497"><ele>706.6666666666666</ele><time>2026-05-04T09:53:48Z</time></trkpt><trkpt lat="37.62201960296045" lon="14.741209828158027"><ele>703.3333333333334</ele><time>2026-05-04T09:53:49Z</time></trkpt><trkpt lat="37.62212731702259" lon="14.741039530607893"><ele>700.0</ele><time>2026-05-04T09:53:50Z</time></trkpt><trkpt lat="37.622245908125024" lon="14.740899183661256"><ele>700.0</ele><time>2026-05-04T09:53:51Z</time></trkpt><trkpt lat="37.62236275906631" lon="14.74085279301878"><ele>700.0</ele><time>2026-05-04T09:53:52Z</time></trkpt><trkpt lat="37.622428098442384" lon="14.74085550665509"><ele>700.0</ele><time>2026-05-04T09:53:53Z</time></trkpt><trkpt lat="37.622483538049366" lon="14.740811119654044"><ele>700.0</ele><time>2026-05-04T09:53:55Z</time></trkpt><trkpt lat="37.62244860605882" lon="14.740744068331235"><ele>700.0</ele><time>2026-05-04T09:53:57Z</time></trkpt><trkpt lat="37.62230608417864" lon="14.740746846475336"><ele>700.0</ele><time>2026-05-04T09:53:59Z</time></trkpt><trkpt lat="37.62221837593415" lon="14.740785626142483"><ele>700.0</ele><time>2026-05-04T09:54:00Z</time></trkpt><trkpt lat="37.62214332715704" lon="14.74086326873189"><ele>700.0</ele><time>2026-05-04T09:54:01Z</time></trkpt><trkpt lat="37.62207637343526" lon="14.740945031562383"><ele>700.0</ele><time>2026-05-04T09:54:02Z</time></trkpt><trkpt lat="37.62200277565006" lon="14.74103707593697"><ele>700.0</ele><time>2026-05-04T09:54:03Z</time></trkpt><trkpt lat="37.621937333192555" lon="14.741157549824148"><ele>701.6666666666667</ele><time>2026-05-04T09:54:04Z</time></trkpt><trkpt lat="37.621875598929904" lon="14.741259833728467"><ele>703.3333333333334</ele><time>2026-05-04T09:54:05Z</time></trkpt><trkpt lat="37.62181591601737" lon="14.741340726227554"><ele>705.0</ele><time>2026-05-04T09:54:06Z</time></trkpt><trkpt lat="37.6217709227033" lon="14.741402577732385"><ele>706.6666666666666</ele><time>2026-05-04T09:54:07Z</time></trkpt><trkpt lat="37.6217077653255" lon="14.741498033468856"><ele>708.3333333333333</ele><time>2026-05-04T09:54:09Z</time></trkpt><trkpt lat="37.621658386017934" lon="14.741588968085603"><ele>710.0</ele><time>2026-05-04T09:54:11Z</time></trkpt><trkpt lat="37.621596543039466" lon="14.74168436912284"><ele>710.0</ele><time>2026-05-04T09:54:14Z</time></trkpt><trkpt lat="37.6215418793007" lon="14.741756553927855"><ele>710.0</ele><time>2026-05-04T09:54:16Z</time></trkpt><trkpt lat="37.62150756304101" lon="14.741827424063825"><ele>710.0</ele><time>2026-05-04T09:54:19Z</time></trkpt><trkpt lat="37.62148360821204" lon="14.741916564584528"><ele>710.0</ele><time>2026-05-04T09:54:23Z</time></trkpt><trkpt lat="37.62143387633883" lon="14.742026357125505"><ele>710.0</ele><time>2026-05-04T09:54:41.001Z</time></trkpt><trkpt lat="37.62140247491177" lon="14.742115092119604"><ele>710.0</ele><time>2026-05-04T09:54:42.001Z</time></trkpt><trkpt lat="37.621357945915896" lon="14.742190398710582"><ele>707.0</ele><time>2026-05-04T09:54:45.001Z</time></trkpt><trkpt lat="37.621321383031365" lon="14.742284914885975"><ele>704.0</ele><time>2026-05-04T09:54:49.001Z</time></trkpt><trkpt lat="37.621270531671236" lon="14.742403630055616"><ele>701.0</ele><time>2026-05-04T09:54:52.001Z</time></trkpt><trkpt lat="37.621214249474185" lon="14.742515728616041"><ele>698.0</ele><time>2026-05-04T09:54:54.001Z</time></trkpt><trkpt lat="37.62116713924428" lon="14.742604758177693"><ele>695.0</ele><time>2026-05-04T09:54:56.001Z</time></trkpt><trkpt lat="37.62113214916441" lon="14.742686096022473"><ele>697.6666666666666</ele><time>2026-05-04T09:54:59.001Z</time></trkpt><trkpt lat="37.62107408897404" lon="14.742772772345683"><ele>700.3333333333333</ele><time>2026-05-04T09:55:01.001Z</time></trkpt><trkpt lat="37.62101971256016" lon="14.742868189803199"><ele>703.0</ele><time>2026-05-04T09:55:02.001Z</time></trkpt><trkpt lat="37.62095945536843" lon="14.742954611459059"><ele>705.6666666666666</ele><time>2026-05-04T09:55:04.001Z</time></trkpt><trkpt lat="37.620894709981044" lon="14.743009722434302"><ele>708.3333333333334</ele><time>2026-05-04T09:55:06Z</time></trkpt><trkpt lat="37.62082668805464" lon="14.743093143620452"><ele>711.0</ele><time>2026-05-04T09:55:09Z</time></trkpt><trkpt lat="37.620768723300124" lon="14.743014212400068"><ele>711.0</ele><time>2026-05-04T09:55:12Z</time></trkpt><trkpt lat="37.62076836817969" lon="14.742908255022433"><ele>711.0</ele><time>2026-05-04T09:55:14Z</time></trkpt><trkpt lat="37.62073787301174" lon="14.742779826102444"><ele>711.0</ele><time>2026-05-04T09:55:16Z</time></trkpt><trkpt lat="37.620712703698615" lon="14.74263517918119"><ele>711.0</ele><time>2026-05-04T09:55:18Z</time></trkpt><trkpt lat="37.62069178862157" lon="14.74255702159613"><ele>711.0</ele><time>2026-05-04T09:55:19Z</time></trkpt><trkpt lat="37.62065647696236" lon="14.742431092764065"><ele>714.1999999999999</ele><time>2026-05-04T09:55:21Z</time></trkpt><trkpt lat="37.62063553292369" lon="14.742345563161715"><ele>717.4</ele><time>2026-05-04T09:55:23Z</time></trkpt><trkpt lat="37.62064465822565" lon="14.742255984489079"><ele>720.6</ele><time>2026-05-04T09:55:31Z</time></trkpt><trkpt lat="37.62059746887377" lon="14.742100053912441"><ele>723.8</ele><time>2026-05-04T09:55:33Z</time></trkpt><trkpt lat="37.62055414992249" lon="14.741947308373367"><ele>727.0</ele><time>2026-05-04T09:55:34Z</time></trkpt><trkpt lat="37.620514221845916" lon="14.741823506412226"><ele>727.8571428571428</ele><time>2026-05-04T09:55:35Z</time></trkpt><trkpt lat="37.6204879328336" lon="14.74173275655845"><ele>728.7142857142858</ele><time>2026-05-04T09:55:37Z</time></trkpt><trkpt lat="37.620479835976155" lon="14.741646797572836"><ele>729.5714285714286</ele><time>2026-05-04T09:55:39Z</time></trkpt><trkpt lat="37.62045873107173" lon="14.741564803255084"><ele>730.4285714285713</ele><time>2026-05-04T09:55:41Z</time></trkpt><trkpt lat="37.620437567495415" lon="14.741480198091383"><ele>731.2857142857142</ele><time>2026-05-04T09:55:43Z</time></trkpt><trkpt lat="37.620461719950484" lon="14.74138329066491"><ele>732.1428571428571</ele><time>2026-05-04T09:55:46Z</time></trkpt><trkpt lat="37.62051204823573" lon="14.741321154297932"><ele>733.0</ele><time>2026-05-04T09:55:48Z</time></trkpt><trkpt lat="37.62059219516685" lon="14.741318376112027"><ele>733.0</ele><time>2026-05-04T09:55:50Z</time></trkpt><trkpt lat="37.62068555978189" lon="14.741328609052657"><ele>733.0</ele><time>2026-05-04T09:55:52Z</time></trkpt><trkpt lat="37.620770236722244" lon="14.741338496113691"><ele>733.0</ele><time>2026-05-04T09:55:54Z</time></trkpt><trkpt lat="37.62086407112553" lon="14.741333850512572"><ele>733.0</ele><time>2026-05-04T09:55:56Z</time></trkpt><trkpt lat="37.62095201389993" lon="14.741346409946667"><ele>733.0</ele><time>2026-05-04T09:55:58Z</time></trkpt><trkpt lat="37.621006064131564" lon="14.7412923134742"><ele>733.0</ele><time>2026-05-04T09:56:00Z</time></trkpt><trkpt lat="37.62106420419813" lon="14.741229619641127"><ele>733.0</ele><time>2026-05-04T09:56:02Z</time></trkpt><trkpt lat="37.62113152539917" lon="14.741199754382757"><ele>733.0</ele><time>2026-05-04T09:56:04Z</time></trkpt><trkpt lat="37.621196561330414" lon="14.74112339816296"><ele>733.0</ele><time>2026-05-04T09:56:07Z</time></trkpt><trkpt lat="37.621261956814884" lon="14.741059091475199"><ele>733.0</ele><time>2026-05-04T09:56:10Z</time></trkpt><trkpt lat="37.62132763308198" lon="14.741040707538772"><ele>733.0</ele><time>2026-05-04T09:56:13Z</time></trkpt><trkpt lat="37.62139872524343" lon="14.740993618063621"><ele>733.0</ele><time>2026-05-04T09:56:17Z</time></trkpt><trkpt lat="37.621474489749296" lon="14.740953225606754"><ele>730.3333333333334</ele><time>2026-05-04T09:56:20Z</time></trkpt><trkpt lat="37.621551998388625" lon="14.740897195439363"><ele>727.6666666666667</ele><time>2026-05-04T09:56:23Z</time></trkpt><trkpt lat="37.62160818179409" lon="14.740852368625571"><ele>725.0</ele><time>2026-05-04T09:56:26Z</time></trkpt><trkpt lat="37.621672464741245" lon="14.740782552633808"><ele>722.3333333333334</ele><time>2026-05-04T09:56:29Z</time></trkpt><trkpt lat="37.621733252448855" lon="14.740727977476306"><ele>719.6666666666666</ele><time>2026-05-04T09:56:31Z</time></trkpt><trkpt lat="37.62179281951137" lon="14.740685363445458"><ele>717.0</ele><time>2026-05-04T09:56:33Z</time></trkpt><trkpt lat="37.62185219302687" lon="14.740619945674323"><ele>717.0</ele><time>2026-05-04T09:56:35Z</time></trkpt><trkpt lat="37.62193587223584" lon="14.740583197021966"><ele>717.0</ele><time>2026-05-04T09:56:37Z</time></trkpt><trkpt lat="37.62202108916891" lon="14.740503105933556"><ele>717.0</ele><time>2026-05-04T09:56:39.001Z</time></trkpt><trkpt lat="37.62211704419014" lon="14.740417208587354"><ele>717.0</ele><time>2026-05-04T09:56:41.001Z</time></trkpt><trkpt lat="37.622198034308305" lon="14.740369638368277"><ele>717.0</ele><time>2026-05-04T09:56:43.001Z</time></trkpt><trkpt lat="37.622270079988596" lon="14.740314704122305"><ele>715.8333333333334</ele><time>2026-05-04T09:56:45.001Z</time></trkpt><trkpt lat="37.62234528949623" lon="14.740259374532583"><ele>714.6666666666666</ele><time>2026-05-04T09:56:47.001Z</time></trkpt><trkpt lat="37.62242812709077" lon="14.740201645973087"><ele>713.5</ele><time>2026-05-04T09:56:50.001Z</time></trkpt><trkpt lat="37.622465353560706" lon="14.740126151580991"><ele>712.3333333333333</ele><time>2026-05-04T09:56:52.001Z</time></trkpt><trkpt lat="37.62249801935105" lon="14.74004490243692"><ele>711.1666666666666</ele><time>2026-05-04T09:56:54.001Z</time></trkpt><trkpt lat="37.62253294402747" lon="14.739945569070628"><ele>710.0</ele><time>2026-05-04T09:56:56.001Z</time></trkpt><trkpt lat="37.622586080023154" lon="14.739864711193189"><ele>710.0</ele><time>2026-05-04T09:56:58.001Z</time></trkpt><trkpt lat="37.62265039392258" lon="14.739801730845771"><ele>710.0</ele><time>2026-05-04T09:57:00.001Z</time></trkpt><trkpt lat="37.62271314273343" lon="14.739734326871584"><ele>710.0</ele><time>2026-05-04T09:57:02.001Z</time></trkpt><trkpt lat="37.62278431395434" lon="14.739659863527411"><ele>710.0</ele><time>2026-05-04T09:57:04.001Z</time></trkpt><trkpt lat="37.62283660088958" lon="14.739574212615384"><ele>710.0</ele><time>2026-05-04T09:57:06.001Z</time></trkpt><trkpt lat="37.6228825323193" lon="14.739469199576435"><ele>710.0</ele><time>2026-05-04T09:57:08.001Z</time></trkpt><trkpt lat="37.62293039160049" lon="14.739408490320796"><ele>710.5</ele><time>2026-05-04T09:57:10.001Z</time></trkpt><trkpt lat="37.62296101515963" lon="14.73931578358855"><ele>711.0</ele><time>2026-05-04T09:57:16Z</time></trkpt><trkpt lat="37.62301442114588" lon="14.739228043848632"><ele>711.5</ele><time>2026-05-04T09:57:19Z</time></trkpt><trkpt lat="37.62307229107599" lon="14.739148187830809"><ele>712.0</ele><time>2026-05-04T09:57:21Z</time></trkpt><trkpt lat="37.62311805700319" lon="14.739085035207255"><ele>712.5</ele><time>2026-05-04T09:57:23Z</time></trkpt><trkpt lat="37.62318579375458" lon="14.739046419039754"><ele>713.0</ele><time>2026-05-04T09:57:25Z</time></trkpt><trkpt lat="37.62323466048038" lon="14.738946514739629"><ele>713.0</ele><time>2026-05-04T09:57:28Z</time></trkpt><trkpt lat="37.62326847444669" lon="14.738874898525262"><ele>713.0</ele><time>2026-05-04T09:57:30Z</time></trkpt><trkpt lat="37.62332232803463" lon="14.738792556917968"><ele>713.0</ele><time>2026-05-04T09:57:33Z</time></trkpt><trkpt lat="37.62329250443053" lon="14.738673003582596"><ele>713.0</ele><time>2026-05-04T09:57:35Z</time></trkpt><trkpt lat="37.62331229243186" lon="14.738595666782683"><ele>713.0</ele><time>2026-05-04T09:57:37Z</time></trkpt><trkpt lat="37.623330157715195" lon="14.738518662890264"><ele>713.0</ele><time>2026-05-04T09:57:40Z</time></trkpt><trkpt lat="37.62335697978465" lon="14.73841102465124"><ele>709.6666666666666</ele><time>2026-05-04T09:58:38Z</time></trkpt><trkpt lat="37.62341240080281" lon="14.738344012124138"><ele>706.3333333333333</ele><time>2026-05-04T09:58:41Z</time></trkpt><trkpt lat="37.62345762017754" lon="14.73826806989034"><ele>703.0</ele><time>2026-05-04T09:58:45Z</time></trkpt><trkpt lat="37.62343533722429" lon="14.738180856701458"><ele>699.6666666666666</ele><time>2026-05-04T09:58:48Z</time></trkpt><trkpt lat="37.62343377337202" lon="14.738083366230432"><ele>696.3333333333334</ele><time>2026-05-04T09:58:50Z</time></trkpt><trkpt lat="37.62340528567731" lon="14.73798679831529"><ele>693.0</ele><time>2026-05-04T09:58:52Z</time></trkpt><trkpt lat="37.62336447749321" lon="14.737899143123112"><ele>693.0</ele><time>2026-05-04T09:58:54Z</time></trkpt><trkpt lat="37.623355550781056" lon="14.737791307180208"><ele>693.0</ele><time>2026-05-04T09:58:56Z</time></trkpt><trkpt lat="37.62329321419383" lon="14.737686648520718"><ele>693.0</ele><time>2026-05-04T09:58:58Z</time></trkpt><trkpt lat="37.62324682755887" lon="14.737586109575194"><ele>693.0</ele><time>2026-05-04T09:59:00Z</time></trkpt><trkpt lat="37.623196968205775" lon="14.737455539214348"><ele>693.0</ele><time>2026-05-04T09:59:02Z</time></trkpt><trkpt lat="37.623134646300684" lon="14.737357397491765"><ele>691.0</ele><time>2026-05-04T09:59:04Z</time></trkpt><trkpt lat="37.6230626165657" lon="14.737261703385926"><ele>689.0</ele><time>2026-05-04T09:59:06Z</time></trkpt><trkpt lat="37.62297670172796" lon="14.737168485697147"><ele>687.0</ele><time>2026-05-04T09:59:08.001Z</time></trkpt><trkpt lat="37.62287919197339" lon="14.737088762018704"><ele>685.0</ele><time>2026-05-04T09:59:10.001Z</time></trkpt><trkpt lat="37.62281801897326" lon="14.737003922799767"><ele>683.0</ele><time>2026-05-04T09:59:12.001Z</time></trkpt><trkpt lat="37.62276420392991" lon="14.736945185714601"><ele>682.5999999999999</ele><time>2026-05-04T09:59:14.001Z</time></trkpt><trkpt lat="37.622706830430715" lon="14.736895853960712"><ele>682.1999999999999</ele><time>2026-05-04T09:59:17.001Z</time></trkpt><trkpt lat="37.62263061086092" lon="14.736826542230688"><ele>681.8</ele><time>2026-05-04T09:59:20Z</time></trkpt><trkpt lat="37.622558436800695" lon="14.736736099943485"><ele>681.4</ele><time>2026-05-04T09:59:22Z</time></trkpt><trkpt lat="37.62250269879898" lon="14.736633327484604"><ele>681.0</ele><time>2026-05-04T09:59:24Z</time></trkpt><trkpt lat="37.62243866343203" lon="14.736476343769326"><ele>681.8</ele><time>2026-05-04T09:59:26Z</time></trkpt><trkpt lat="37.6224005289666" lon="14.73636396907591"><ele>682.5999999999999</ele><time>2026-05-04T09:59:27Z</time></trkpt><trkpt lat="37.622363937877836" lon="14.736266694763518"><ele>683.4</ele><time>2026-05-04T09:59:28Z</time></trkpt><trkpt lat="37.62233181692968" lon="14.736181324785763"><ele>684.2</ele><time>2026-05-04T09:59:29Z</time></trkpt><trkpt lat="37.62228332214709" lon="14.736048946438855"><ele>685.0</ele><time>2026-05-04T09:59:31Z</time></trkpt><trkpt lat="37.62223868393433" lon="14.735923796841165"><ele>682.2</ele><time>2026-05-04T09:59:33Z</time></trkpt><trkpt lat="37.62220375644006" lon="14.73581400288183"><ele>679.4</ele><time>2026-05-04T09:59:35Z</time></trkpt><trkpt lat="37.62217860067082" lon="14.735696211364079"><ele>676.5999999999999</ele><time>2026-05-04T09:59:37Z</time></trkpt><trkpt lat="37.62215250123671" lon="14.735587473305774"><ele>673.8</ele><time>2026-05-04T09:59:39Z</time></trkpt><trkpt lat="37.622133864095765" lon="14.73551012577914"><ele>671.0</ele><time>2026-05-04T09:59:40Z</time></trkpt><trkpt lat="37.62210969207624" lon="14.735356195560913"><ele>671.0</ele><time>2026-05-04T09:59:42Z</time></trkpt><trkpt lat="37.622097861572975" lon="14.735256061823803"><ele>671.0</ele><time>2026-05-04T09:59:43Z</time></trkpt><trkpt lat="37.62209452747245" lon="14.735156097872057"><ele>671.0</ele><time>2026-05-04T09:59:44Z</time></trkpt><trkpt lat="37.62209760124257" lon="14.735055749762852"><ele>671.0</ele><time>2026-05-04T09:59:45Z</time></trkpt><trkpt lat="37.6220967766354" lon="14.734959778081972"><ele>671.0</ele><time>2026-05-04T09:59:46Z</time></trkpt><trkpt lat="37.62209312921646" lon="14.734862884519213"><ele>671.0</ele><time>2026-05-04T09:59:47Z</time></trkpt><trkpt lat="37.622092321341725" lon="14.734767343697854"><ele>669.6666666666666</ele><time>2026-05-04T09:59:48Z</time></trkpt><trkpt lat="37.622093161898846" lon="14.73467720083197"><ele>668.3333333333333</ele><time>2026-05-04T09:59:49Z</time></trkpt><trkpt lat="37.62209291355519" lon="14.734591921159309"><ele>667.0</ele><time>2026-05-04T09:59:50Z</time></trkpt><trkpt lat="37.62209603520925" lon="14.734504816447108"><ele>665.6666666666666</ele><time>2026-05-04T09:59:51Z</time></trkpt><trkpt lat="37.622102022241535" lon="14.734369344412316"><ele>664.3333333333334</ele><time>2026-05-04T09:59:53Z</time></trkpt><trkpt lat="37.622119295740916" lon="14.734236803886207"><ele>663.0</ele><time>2026-05-04T09:59:55Z</time></trkpt><trkpt lat="37.62212624770809" lon="14.734115700025939"><ele>663.0</ele><time>2026-05-04T09:59:57Z</time></trkpt><trkpt lat="37.62226024562741" lon="14.734040970666186"><ele>663.0</ele><time>2026-05-04T09:59:58Z</time></trkpt><trkpt lat="37.62233563441562" lon="14.733964220711401"><ele>663.0</ele><time>2026-05-04T09:59:59Z</time></trkpt><trkpt lat="37.62242389947041" lon="14.733890029579731"><ele>663.0</ele><time>2026-05-04T10:00:00Z</time></trkpt><trkpt lat="37.622520220419666" lon="14.733810680948455"><ele>663.0</ele><time>2026-05-04T10:00:01Z</time></trkpt><trkpt lat="37.622606097009026" lon="14.733703960146425"><ele>663.0</ele><time>2026-05-04T10:00:02Z</time></trkpt><trkpt lat="37.622669673099104" lon="14.73356182496616"><ele>663.0</ele><time>2026-05-04T10:00:03Z</time></trkpt><trkpt lat="37.6227139412027" lon="14.733400925872225"><ele>663.0</ele><time>2026-05-04T10:00:04Z</time></trkpt><trkpt lat="37.62278101921419" lon="14.733244855049602"><ele>660.75</ele><time>2026-05-04T10:00:05Z</time></trkpt><trkpt lat="37.62287794611869" lon="14.73310503516509"><ele>658.5</ele><time>2026-05-04T10:00:06Z</time></trkpt><trkpt lat="37.62298120723409" lon="14.732993239756734"><ele>656.25</ele><time>2026-05-04T10:00:07Z</time></trkpt><trkpt lat="37.623091786612825" lon="14.73289925129469"><ele>654.0</ele><time>2026-05-04T10:00:08Z</time></trkpt><trkpt lat="37.623172518010186" lon="14.732789617290482"><ele>658.5</ele><time>2026-05-04T10:00:09Z</time></trkpt><trkpt lat="37.62323336021225" lon="14.732656686928989"><ele>663.0</ele><time>2026-05-04T10:00:10Z</time></trkpt><trkpt lat="37.62329169484451" lon="14.732506044474075"><ele>667.5</ele><time>2026-05-04T10:00:11Z</time></trkpt><trkpt lat="37.62336021786052" lon="14.732358654938631"><ele>672.0</ele><time>2026-05-04T10:00:12Z</time></trkpt><trkpt lat="37.623429044571" lon="14.732204098467047"><ele>672.0</ele><time>2026-05-04T10:00:13Z</time></trkpt><trkpt lat="37.62349724016375" lon="14.732048650271073"><ele>672.0</ele><time>2026-05-04T10:00:14Z</time></trkpt><trkpt lat="37.623573827898035" lon="14.731895160260708"><ele>672.0</ele><time>2026-05-04T10:00:15Z</time></trkpt><trkpt lat="37.6236257775734" lon="14.731750811101533"><ele>672.0</ele><time>2026-05-04T10:00:16Z</time></trkpt><trkpt lat="37.623657424999905" lon="14.731616535822841"><ele>669.5</ele><time>2026-05-04T10:00:17Z</time></trkpt><trkpt lat="37.62368519267696" lon="14.731483000076148"><ele>667.0</ele><time>2026-05-04T10:00:18Z</time></trkpt><trkpt lat="37.62371202968623" lon="14.731360656243004"><ele>664.5</ele><time>2026-05-04T10:00:19Z</time></trkpt><trkpt lat="37.6237427142364" lon="14.731249728279275"><ele>662.0</ele><time>2026-05-04T10:00:20Z</time></trkpt><trkpt lat="37.623771910792534" lon="14.731165719949987"><ele>659.5</ele><time>2026-05-04T10:00:21Z</time></trkpt><trkpt lat="37.623814472388" lon="14.731100416519203"><ele>657.0</ele><time>2026-05-04T10:00:22Z</time></trkpt><trkpt lat="37.623867926624946" lon="14.731028822730522"><ele>657.0</ele><time>2026-05-04T10:00:23Z</time></trkpt><trkpt lat="37.623930259049764" lon="14.730972680926245"><ele>657.0</ele><time>2026-05-04T10:00:24Z</time></trkpt><trkpt lat="37.623994998059935" lon="14.730922211605598"><ele>657.0</ele><time>2026-05-04T10:00:25Z</time></trkpt><trkpt lat="37.6240563500303" lon="14.730874813816358"><ele>657.0</ele><time>2026-05-04T10:00:26Z</time></trkpt><trkpt lat="37.62412185758368" lon="14.730845448496174"><ele>657.0</ele><time>2026-05-04T10:00:27Z</time></trkpt><trkpt lat="37.62416928536317" lon="14.730783503200904"><ele>657.0</ele><time>2026-05-04T10:00:28Z</time></trkpt><trkpt lat="37.62422777467372" lon="14.730740286207572"><ele>657.0</ele><time>2026-05-04T10:00:29Z</time></trkpt><trkpt lat="37.62428377334137" lon="14.730702694680007"><ele>657.0</ele><time>2026-05-04T10:00:30Z</time></trkpt><trkpt lat="37.62433366014721" lon="14.730653552279943"><ele>657.0</ele><time>2026-05-04T10:00:31Z</time></trkpt><trkpt lat="37.62437857163688" lon="14.730593591788008"><ele>657.0</ele><time>2026-05-04T10:00:32Z</time></trkpt><trkpt lat="37.624429101370886" lon="14.73052047339996"><ele>657.0</ele><time>2026-05-04T10:00:33Z</time></trkpt><trkpt lat="37.62448758101172" lon="14.730441051568649"><ele>657.0</ele><time>2026-05-04T10:00:34Z</time></trkpt><trkpt lat="37.62454653611498" lon="14.730322811848296"><ele>657.0</ele><time>2026-05-04T10:00:35Z</time></trkpt><trkpt lat="37.62461942001941" lon="14.730200840928733"><ele>658.5</ele><time>2026-05-04T10:00:36Z</time></trkpt><trkpt lat="37.62470529507152" lon="14.730056587301913"><ele>660.0</ele><time>2026-05-04T10:00:37Z</time></trkpt><trkpt lat="37.62478360429963" lon="14.729919801424417"><ele>661.5</ele><time>2026-05-04T10:00:38Z</time></trkpt><trkpt lat="37.624853297505446" lon="14.72978125864853"><ele>663.0</ele><time>2026-05-04T10:00:39Z</time></trkpt><trkpt lat="37.62490547509935" lon="14.729626393338803"><ele>663.0</ele><time>2026-05-04T10:00:40Z</time></trkpt><trkpt lat="37.624950359135134" lon="14.729467427993184"><ele>663.0</ele><time>2026-05-04T10:00:41Z</time></trkpt><trkpt lat="37.624978508438936" lon="14.729308590184075"><ele>663.0</ele><time>2026-05-04T10:00:42Z</time></trkpt><trkpt lat="37.62498254313709" lon="14.729163436846088"><ele>663.0</ele><time>2026-05-04T10:00:43Z</time></trkpt><trkpt lat="37.62496301545902" lon="14.729005706267529"><ele>663.6666666666666</ele><time>2026-05-04T10:00:44Z</time></trkpt><trkpt lat="37.62492168816244" lon="14.728831183342905"><ele>664.3333333333333</ele><time>2026-05-04T10:00:45Z</time></trkpt><trkpt lat="37.62484781317339" lon="14.728643458777329"><ele>665.0</ele><time>2026-05-04T10:00:46Z</time></trkpt><trkpt lat="37.6247588702523" lon="14.728450492598151"><ele>665.0</ele><time>2026-05-04T10:00:47Z</time></trkpt><trkpt lat="37.62467497002948" lon="14.728254971620956"><ele>665.0</ele><time>2026-05-04T10:00:48Z</time></trkpt><trkpt lat="37.62460032407934" lon="14.728065273537684"><ele>665.0</ele><time>2026-05-04T10:00:49Z</time></trkpt><trkpt lat="37.624532221510066" lon="14.727884309799771"><ele>662.25</ele><time>2026-05-04T10:00:50Z</time></trkpt><trkpt lat="37.62448295037072" lon="14.727699697644969"><ele>659.5</ele><time>2026-05-04T10:00:51Z</time></trkpt><trkpt lat="37.624400027428784" lon="14.727544979885606"><ele>656.75</ele><time>2026-05-04T10:00:52Z</time></trkpt><trkpt lat="37.62432086632138" lon="14.727394063092076"><ele>654.0</ele><time>2026-05-04T10:00:53Z</time></trkpt><trkpt lat="37.62423148049011" lon="14.727236528411671"><ele>654.0</ele><time>2026-05-04T10:00:54Z</time></trkpt><trkpt lat="37.624151924124725" lon="14.72707473378802"><ele>654.0</ele><time>2026-05-04T10:00:55Z</time></trkpt><trkpt lat="37.624083587123366" lon="14.726929129183919"><ele>654.0</ele><time>2026-05-04T10:00:56Z</time></trkpt><trkpt lat="37.62402088245929" lon="14.72681716107176"><ele>654.0</ele><time>2026-05-04T10:00:57Z</time></trkpt><trkpt lat="37.62393373085275" lon="14.726730600079655"><ele>655.5</ele><time>2026-05-04T10:00:58Z</time></trkpt><trkpt lat="37.62380559985264" lon="14.726670867163858"><ele>657.0</ele><time>2026-05-04T10:00:59Z</time></trkpt><trkpt lat="37.623694366099244" lon="14.726576218783709"><ele>658.5</ele><time>2026-05-04T10:01:00Z</time></trkpt><trkpt lat="37.62359499796471" lon="14.726492375649213"><ele>660.0</ele><time>2026-05-04T10:01:01Z</time></trkpt><trkpt lat="37.623532105146836" lon="14.72635606105171"><ele>660.0</ele><time>2026-05-04T10:01:02Z</time></trkpt><trkpt lat="37.623458796044474" lon="14.726208366236374"><ele>660.0</ele><time>2026-05-04T10:01:03Z</time></trkpt><trkpt lat="37.62337740146661" lon="14.726071234002086"><ele>660.0</ele><time>2026-05-04T10:01:04Z</time></trkpt><trkpt lat="37.623303700498155" lon="14.725945109343646"><ele>660.0</ele><time>2026-05-04T10:01:05Z</time></trkpt><trkpt lat="37.62325149180014" lon="14.725804649879464"><ele>656.25</ele><time>2026-05-04T10:01:06Z</time></trkpt><trkpt lat="37.62322035270564" lon="14.725648752286721"><ele>652.5</ele><time>2026-05-04T10:01:07Z</time></trkpt><trkpt lat="37.623204920472496" lon="14.725478476324708"><ele>648.75</ele><time>2026-05-04T10:01:08Z</time></trkpt><trkpt lat="37.62321828129952" lon="14.725322139743207"><ele>645.0</ele><time>2026-05-04T10:01:09Z</time></trkpt><trkpt lat="37.62326431158737" lon="14.725179771301006"><ele>644.75</ele><time>2026-05-04T10:01:10Z</time></trkpt><trkpt lat="37.623340312554895" lon="14.725040473382633"><ele>644.5</ele><time>2026-05-04T10:01:11Z</time></trkpt><trkpt lat="37.62343836128829" lon="14.724903113203448"><ele>644.25</ele><time>2026-05-04T10:01:12Z</time></trkpt><trkpt lat="37.62351180805909" lon="14.724747056013387"><ele>644.0</ele><time>2026-05-04T10:01:13Z</time></trkpt><trkpt lat="37.62353862768026" lon="14.724573762284457"><ele>644.0</ele><time>2026-05-04T10:01:14Z</time></trkpt><trkpt lat="37.62355784410145" lon="14.724424960677103"><ele>644.0</ele><time>2026-05-04T10:01:15Z</time></trkpt><trkpt lat="37.623608546573685" lon="14.724319040606135"><ele>644.0</ele><time>2026-05-04T10:01:16Z</time></trkpt><trkpt lat="37.62371116607968" lon="14.724176866948191"><ele>644.0</ele><time>2026-05-04T10:01:17Z</time></trkpt><trkpt lat="37.62381541756012" lon="14.724034322372022"><ele>641.25</ele><time>2026-05-04T10:01:18Z</time></trkpt><trkpt lat="37.62390612098113" lon="14.723892885155513"><ele>638.5</ele><time>2026-05-04T10:01:19Z</time></trkpt><trkpt lat="37.62399465250544" lon="14.723734050303529"><ele>635.75</ele><time>2026-05-04T10:01:20Z</time></trkpt><trkpt lat="37.62406835486073" lon="14.723589204353399"><ele>633.0</ele><time>2026-05-04T10:01:21Z</time></trkpt><trkpt lat="37.624092733237774" lon="14.723436652488804"><ele>633.0</ele><time>2026-05-04T10:01:22Z</time></trkpt><trkpt lat="37.62413029261141" lon="14.723280320643456"><ele>633.0</ele><time>2026-05-04T10:01:23Z</time></trkpt><trkpt lat="37.62421135837712" lon="14.723166369473851"><ele>633.0</ele><time>2026-05-04T10:01:23.999Z</time></trkpt><trkpt lat="37.624299875312694" lon="14.723048327765419"><ele>633.0</ele><time>2026-05-04T10:01:24.999Z</time></trkpt><trkpt lat="37.6244172651792" lon="14.72294223963896"><ele>630.25</ele><time>2026-05-04T10:01:25.999Z</time></trkpt><trkpt lat="37.62453161423902" lon="14.722817956746754"><ele>627.5</ele><time>2026-05-04T10:01:26.999Z</time></trkpt><trkpt lat="37.62465061867527" lon="14.722711496933856"><ele>624.75</ele><time>2026-05-04T10:01:27.999Z</time></trkpt><trkpt lat="37.62476400138853" lon="14.722618783722284"><ele>622.0</ele><time>2026-05-04T10:01:28.999Z</time></trkpt><trkpt lat="37.62488518734575" lon="14.722593969384343"><ele>622.0</ele><time>2026-05-04T10:01:29.999Z</time></trkpt><trkpt lat="37.62497136544412" lon="14.722549136354218"><ele>622.0</ele><time>2026-05-04T10:01:30.999Z</time></trkpt><trkpt lat="37.62504606096402" lon="14.722523627894697"><ele>622.0</ele><time>2026-05-04T10:01:32Z</time></trkpt><trkpt lat="37.62510130862005" lon="14.722422252455104"><ele>622.0</ele><time>2026-05-04T10:01:33Z</time></trkpt><trkpt lat="37.62512566960062" lon="14.722264776899149"><ele>622.0</ele><time>2026-05-04T10:01:34Z</time></trkpt><trkpt lat="37.625137055210516" lon="14.722090196302252"><ele>622.0</ele><time>2026-05-04T10:01:35Z</time></trkpt><trkpt lat="37.625199888837194" lon="14.721947853317024"><ele>622.0</ele><time>2026-05-04T10:01:36Z</time></trkpt><trkpt lat="37.62530212941948" lon="14.721839202032138"><ele>622.0</ele><time>2026-05-04T10:01:36.999Z</time></trkpt><trkpt lat="37.62541382852258" lon="14.721726843024504"><ele>622.0</ele><time>2026-05-04T10:01:37.999Z</time></trkpt><trkpt lat="37.62554169923132" lon="14.721660025614234"><ele>615.25</ele><time>2026-05-04T10:01:39Z</time></trkpt><trkpt lat="37.6256462033674" lon="14.721594022913434"><ele>608.5</ele><time>2026-05-04T10:01:40Z</time></trkpt><trkpt lat="37.62570763224877" lon="14.721481533547141"><ele>601.75</ele><time>2026-05-04T10:01:41Z</time></trkpt><trkpt lat="37.62573083010387" lon="14.721329132271192"><ele>595.0</ele><time>2026-05-04T10:01:42Z</time></trkpt><trkpt lat="37.62575396144588" lon="14.721162616979854"><ele>594.5</ele><time>2026-05-04T10:01:43Z</time></trkpt><trkpt lat="37.62578313036354" lon="14.72102730320715"><ele>594.0</ele><time>2026-05-04T10:01:44Z</time></trkpt><trkpt lat="37.625774177636934" lon="14.72089676532681"><ele>593.5</ele><time>2026-05-04T10:01:45Z</time></trkpt><trkpt lat="37.625710687494696" lon="14.720756471614528"><ele>593.0</ele><time>2026-05-04T10:01:46Z</time></trkpt><trkpt lat="37.62561371586623" lon="14.72062319636326"><ele>593.0</ele><time>2026-05-04T10:01:47Z</time></trkpt><trkpt lat="37.62552681921661" lon="14.720507632977872"><ele>593.0</ele><time>2026-05-04T10:01:48Z</time></trkpt><trkpt lat="37.62544532910552" lon="14.720428094966678"><ele>593.0</ele><time>2026-05-04T10:01:49Z</time></trkpt><trkpt lat="37.62533085853194" lon="14.7204098338563"><ele>593.0</ele><time>2026-05-04T10:01:50Z</time></trkpt><trkpt lat="37.625189889063535" lon="14.720449128802832"><ele>601.75</ele><time>2026-05-04T10:01:51Z</time></trkpt><trkpt lat="37.62503958360627" lon="14.720501624216805"><ele>610.5</ele><time>2026-05-04T10:01:52Z</time></trkpt><trkpt lat="37.6249187669136" lon="14.720501619806376"><ele>619.25</ele><time>2026-05-04T10:01:53Z</time></trkpt><trkpt lat="37.62480620605698" lon="14.720441727659603"><ele>628.0</ele><time>2026-05-04T10:01:54Z</time></trkpt><trkpt lat="37.62469163226281" lon="14.720355374718356"><ele>628.0</ele><time>2026-05-04T10:01:55Z</time></trkpt><trkpt lat="37.62459553888669" lon="14.720246204980867"><ele>628.0</ele><time>2026-05-04T10:01:56Z</time></trkpt><trkpt lat="37.624496000608666" lon="14.720112145845471"><ele>628.0</ele><time>2026-05-04T10:01:57Z</time></trkpt><trkpt lat="37.624410976119144" lon="14.7199809937666"><ele>628.0</ele><time>2026-05-04T10:01:58Z</time></trkpt><trkpt lat="37.624342100171354" lon="14.719833755177675"><ele>626.25</ele><time>2026-05-04T10:01:59Z</time></trkpt><trkpt lat="37.624287712352924" lon="14.719680624066466"><ele>624.5</ele><time>2026-05-04T10:02:00Z</time></trkpt><trkpt lat="37.624239879066835" lon="14.71952308939099"><ele>622.75</ele><time>2026-05-04T10:02:01Z</time></trkpt><trkpt lat="37.624181535820696" lon="14.719347690004273"><ele>621.0</ele><time>2026-05-04T10:02:02Z</time></trkpt><trkpt lat="37.62413230908349" lon="14.719182427706611"><ele>617.4</ele><time>2026-05-04T10:02:03Z</time></trkpt><trkpt lat="37.62410747934801" lon="14.71903617660712"><ele>613.8</ele><time>2026-05-04T10:02:04Z</time></trkpt><trkpt lat="37.62411300488319" lon="14.71889805531534"><ele>610.1999999999999</ele><time>2026-05-04T10:02:05Z</time></trkpt><trkpt lat="37.624158241088026" lon="14.718783809062733"><ele>606.6</ele><time>2026-05-04T10:02:06Z</time></trkpt><trkpt lat="37.624226457401505" lon="14.718667176463514"><ele>603.0</ele><time>2026-05-04T10:02:07Z</time></trkpt><trkpt lat="37.62432036996486" lon="14.718554210741626"><ele>602.5</ele><time>2026-05-04T10:02:08Z</time></trkpt><trkpt lat="37.62441832755427" lon="14.718427811187764"><ele>602.0</ele><time>2026-05-04T10:02:09Z</time></trkpt><trkpt lat="37.62452987133348" lon="14.718344648509412"><ele>601.5</ele><time>2026-05-04T10:02:10Z</time></trkpt><trkpt lat="37.62463631095702" lon="14.718292824602688"><ele>601.0</ele><time>2026-05-04T10:02:11Z</time></trkpt><trkpt lat="37.62471597602587" lon="14.718228179424113"><ele>597.75</ele><time>2026-05-04T10:02:12Z</time></trkpt><trkpt lat="37.62477711286966" lon="14.718129432803263"><ele>594.5</ele><time>2026-05-04T10:02:13Z</time></trkpt><trkpt lat="37.62482010027663" lon="14.717984934688019"><ele>591.25</ele><time>2026-05-04T10:02:14Z</time></trkpt><trkpt lat="37.62483668640849" lon="14.71780430966063"><ele>588.0</ele><time>2026-05-04T10:02:15Z</time></trkpt><trkpt lat="37.62484905144168" lon="14.717643918460181"><ele>588.0</ele><time>2026-05-04T10:02:16Z</time></trkpt><trkpt lat="37.624866520377665" lon="14.717493467705669"><ele>588.0</ele><time>2026-05-04T10:02:17Z</time></trkpt><trkpt lat="37.625019475840205" lon="14.71741311685405"><ele>588.0</ele><time>2026-05-04T10:02:18Z</time></trkpt><trkpt lat="37.625124215690796" lon="14.717317700062393"><ele>588.0</ele><time>2026-05-04T10:02:19Z</time></trkpt><trkpt lat="37.625221760144605" lon="14.717205252504613"><ele>588.0</ele><time>2026-05-04T10:02:20Z</time></trkpt><trkpt lat="37.62529835837201" lon="14.717053994195478"><ele>588.0</ele><time>2026-05-04T10:02:21Z</time></trkpt><trkpt lat="37.62537642292357" lon="14.716932127938877"><ele>588.0</ele><time>2026-05-04T10:02:22Z</time></trkpt><trkpt lat="37.62544337129642" lon="14.716802858575585"><ele>588.0</ele><time>2026-05-04T10:02:23Z</time></trkpt><trkpt lat="37.625490726932036" lon="14.71663901508108"><ele>581.25</ele><time>2026-05-04T10:02:24Z</time></trkpt><trkpt lat="37.625534533120046" lon="14.71645693729709"><ele>574.5</ele><time>2026-05-04T10:02:25Z</time></trkpt><trkpt lat="37.62558305270082" lon="14.716305347249273"><ele>567.75</ele><time>2026-05-04T10:02:26Z</time></trkpt><trkpt lat="37.62568917762235" lon="14.716204454299621"><ele>561.0</ele><time>2026-05-04T10:02:27Z</time></trkpt><trkpt lat="37.62576424816934" lon="14.716080183582894"><ele>567.6666666666666</ele><time>2026-05-04T10:02:28Z</time></trkpt><trkpt lat="37.62584326014428" lon="14.7159346778599"><ele>574.3333333333333</ele><time>2026-05-04T10:02:29Z</time></trkpt><trkpt lat="37.62592512917033" lon="14.715763101625166"><ele>581.0</ele><time>2026-05-04T10:02:30Z</time></trkpt><trkpt lat="37.62602263183988" lon="14.715593036289373"><ele>581.0</ele><time>2026-05-04T10:02:31Z</time></trkpt><trkpt lat="37.62611336967768" lon="14.715437525914464"><ele>581.0</ele><time>2026-05-04T10:02:32Z</time></trkpt><trkpt lat="37.62618477255405" lon="14.71529086242158"><ele>581.0</ele><time>2026-05-04T10:02:33Z</time></trkpt><trkpt lat="37.62623005641595" lon="14.71513105302609"><ele>581.0</ele><time>2026-05-04T10:02:34Z</time></trkpt><trkpt lat="37.62623995588346" lon="14.714981751644903"><ele>571.75</ele><time>2026-05-04T10:02:35Z</time></trkpt><trkpt lat="37.62620724644084" lon="14.714855998163342"><ele>562.5</ele><time>2026-05-04T10:02:36Z</time></trkpt><trkpt lat="37.62616187715958" lon="14.7147591312621"><ele>553.25</ele><time>2026-05-04T10:02:37Z</time></trkpt><trkpt lat="37.626217452522866" lon="14.714644579696506"><ele>544.0</ele><time>2026-05-04T10:02:39Z</time></trkpt><trkpt lat="37.626331824167174" lon="14.714781796846422"><ele>544.0</ele><time>2026-05-04T10:02:41Z</time></trkpt><trkpt lat="37.62638397857744" lon="14.714872068578124"><ele>544.0</ele><time>2026-05-04T10:02:42Z</time></trkpt><trkpt lat="37.62641710175448" lon="14.714992160734102"><ele>544.0</ele><time>2026-05-04T10:02:43Z</time></trkpt><trkpt lat="37.626419009434954" lon="14.715131331089479"><ele>544.0</ele><time>2026-05-04T10:02:44Z</time></trkpt><trkpt lat="37.626413756853125" lon="14.715284992281529"><ele>544.0</ele><time>2026-05-04T10:02:45Z</time></trkpt><trkpt lat="37.62640484811894" lon="14.71544686142722"><ele>543.4</ele><time>2026-05-04T10:02:46Z</time></trkpt><trkpt lat="37.626391151168" lon="14.715583084766491"><ele>542.8</ele><time>2026-05-04T10:02:47Z</time></trkpt><trkpt lat="37.626353099205744" lon="14.71569451825522"><ele>542.2</ele><time>2026-05-04T10:02:48Z</time></trkpt><trkpt lat="37.62629937231251" lon="14.715804515997526"><ele>541.6</ele><time>2026-05-04T10:02:49Z</time></trkpt><trkpt lat="37.62623777923153" lon="14.715946961667749"><ele>541.0</ele><time>2026-05-04T10:02:50Z</time></trkpt><trkpt lat="37.62618548214872" lon="14.716067908541442"><ele>539.2</ele><time>2026-05-04T10:02:51Z</time></trkpt><trkpt lat="37.62615530250094" lon="14.716172965257657"><ele>537.4000000000001</ele><time>2026-05-04T10:02:52Z</time></trkpt><trkpt lat="37.62612626346998" lon="14.716263099989796"><ele>535.6</ele><time>2026-05-04T10:02:53Z</time></trkpt><trkpt lat="37.62615926442724" lon="14.716421826921291"><ele>533.8000000000001</ele><time>2026-05-04T10:02:55Z</time></trkpt><trkpt lat="37.62623019552688" lon="14.716471075935639"><ele>532.0</ele><time>2026-05-04T10:02:56Z</time></trkpt><trkpt lat="37.62631196365774" lon="14.716472743251089"><ele>532.0</ele><time>2026-05-04T10:02:57Z</time></trkpt><trkpt lat="37.62638401000899" lon="14.716409903727914"><ele>532.0</ele><time>2026-05-04T10:02:58Z</time></trkpt><trkpt lat="37.626435036543995" lon="14.716296631043678"><ele>532.0</ele><time>2026-05-04T10:02:59Z</time></trkpt><trkpt lat="37.626478862729016" lon="14.716167464272472"><ele>532.0</ele><time>2026-05-04T10:03:00Z</time></trkpt><trkpt lat="37.62654131229538" lon="14.716078055235476"><ele>532.0</ele><time>2026-05-04T10:03:01Z</time></trkpt><trkpt lat="37.62658633333355" lon="14.716005930197472"><ele>533.5</ele><time>2026-05-04T10:03:02Z</time></trkpt><trkpt lat="37.62662671649094" lon="14.715925748562807"><ele>535.0</ele><time>2026-05-04T10:03:03Z</time></trkpt><trkpt lat="37.62665384703078" lon="14.715852638533734"><ele>536.5</ele><time>2026-05-04T10:03:04Z</time></trkpt><trkpt lat="37.626681979984646" lon="14.715769250179465"><ele>538.0</ele><time>2026-05-04T10:03:05Z</time></trkpt><trkpt lat="37.626715188264384" lon="14.715662903845548"><ele>539.5</ele><time>2026-05-04T10:03:06Z</time></trkpt><trkpt lat="37.62673931754484" lon="14.715543141552514"><ele>541.0</ele><time>2026-05-04T10:03:07Z</time></trkpt><trkpt lat="37.626777778020134" lon="14.715408551832772"><ele>541.0</ele><time>2026-05-04T10:03:08Z</time></trkpt><trkpt lat="37.62681195599348" lon="14.715285630753554"><ele>541.0</ele><time>2026-05-04T10:03:09Z</time></trkpt><trkpt lat="37.62680906447551" lon="14.715144515640446"><ele>541.0</ele><time>2026-05-04T10:03:10Z</time></trkpt><trkpt lat="37.62682346686672" lon="14.71498394782214"><ele>541.0</ele><time>2026-05-04T10:03:11Z</time></trkpt><trkpt lat="37.62682873382846" lon="14.714861004671915"><ele>541.0</ele><time>2026-05-04T10:03:12Z</time></trkpt><trkpt lat="37.626841928666906" lon="14.714773553507873"><ele>541.5</ele><time>2026-05-04T10:03:13Z</time></trkpt><trkpt lat="37.62687155589879" lon="14.71469631524864"><ele>542.0</ele><time>2026-05-04T10:03:14Z</time></trkpt><trkpt lat="37.62695489980252" lon="14.714665180754322"><ele>542.5</ele><time>2026-05-04T10:03:15Z</time></trkpt><trkpt lat="37.627038894328216" lon="14.714702732145126"><ele>543.0</ele><time>2026-05-04T10:03:16Z</time></trkpt><trkpt lat="37.627073264248075" lon="14.714819890412754"><ele>543.5</ele><time>2026-05-04T10:03:17Z</time></trkpt><trkpt lat="37.62705001652021" lon="14.714941226029865"><ele>544.0</ele><time>2026-05-04T10:03:18Z</time></trkpt><trkpt lat="37.62702357352324" lon="14.715076811602371"><ele>543.25</ele><time>2026-05-04T10:03:19Z</time></trkpt><trkpt lat="37.62700021619405" lon="14.715223057541902"><ele>542.5</ele><time>2026-05-04T10:03:20Z</time></trkpt><trkpt lat="37.6269761179099" lon="14.71538234589084"><ele>541.75</ele><time>2026-05-04T10:03:21Z</time></trkpt><trkpt lat="37.62695319030361" lon="14.715549325196308"><ele>541.0</ele><time>2026-05-04T10:03:22Z</time></trkpt><trkpt lat="37.62692915955211" lon="14.71569869181036"><ele>541.0</ele><time>2026-05-04T10:03:23Z</time></trkpt><trkpt lat="37.62690122214202" lon="14.715832059946434"><ele>541.0</ele><time>2026-05-04T10:03:24Z</time></trkpt><trkpt lat="37.626874608418554" lon="14.715942084201723"><ele>541.0</ele><time>2026-05-04T10:03:25Z</time></trkpt><trkpt lat="37.62685573935049" lon="14.716026309029425"><ele>541.0</ele><time>2026-05-04T10:03:26Z</time></trkpt><trkpt lat="37.62684403320307" lon="14.716168628916055"><ele>541.0</ele><time>2026-05-04T10:03:28Z</time></trkpt><trkpt lat="37.62691863057679" lon="14.716268251121269"><ele>535.4</ele><time>2026-05-04T10:03:30Z</time></trkpt><trkpt lat="37.627036649114764" lon="14.716217476263704"><ele>529.8</ele><time>2026-05-04T10:03:32Z</time></trkpt><trkpt lat="37.627090250994925" lon="14.716125502232297"><ele>524.1999999999999</ele><time>2026-05-04T10:03:33Z</time></trkpt><trkpt lat="37.627131001604084" lon="14.715999882669234"><ele>518.6</ele><time>2026-05-04T10:03:34Z</time></trkpt><trkpt lat="37.62715832012575" lon="14.715848801793951"><ele>513.0</ele><time>2026-05-04T10:03:35Z</time></trkpt><trkpt lat="37.627200490692104" lon="14.715700185293088"><ele>513.0</ele><time>2026-05-04T10:03:36Z</time></trkpt><trkpt lat="37.6272853898358" lon="14.715573281435441"><ele>513.0</ele><time>2026-05-04T10:03:37Z</time></trkpt><trkpt lat="37.627395866683024" lon="14.715447285922352"><ele>513.0</ele><time>2026-05-04T10:03:38Z</time></trkpt><trkpt lat="37.627522671996886" lon="14.715316037638717"><ele>513.0</ele><time>2026-05-04T10:03:39Z</time></trkpt><trkpt lat="37.627650789501764" lon="14.715177501660524"><ele>512.6666666666666</ele><time>2026-05-04T10:03:40Z</time></trkpt><trkpt lat="37.62778062916964" lon="14.715049784625796"><ele>512.3333333333333</ele><time>2026-05-04T10:03:41Z</time></trkpt><trkpt lat="37.627920116294085" lon="14.714969391084958"><ele>512.0</ele><time>2026-05-04T10:03:42Z</time></trkpt><trkpt lat="37.62805504193221" lon="14.714901412789498"><ele>512.0</ele><time>2026-05-04T10:03:43Z</time></trkpt><trkpt lat="37.62817993272245" lon="14.714809535308312"><ele>512.0</ele><time>2026-05-04T10:03:44Z</time></trkpt><trkpt lat="37.62831235080065" lon="14.714734509197806"><ele>512.0</ele><time>2026-05-04T10:03:45Z</time></trkpt><trkpt lat="37.62844240379936" lon="14.714646384608127"><ele>512.0</ele><time>2026-05-04T10:03:46Z</time></trkpt><trkpt lat="37.62856216154925" lon="14.714542468016719"><ele>512.25</ele><time>2026-05-04T10:03:47Z</time></trkpt><trkpt lat="37.62867104531844" lon="14.714422898205259"><ele>512.5</ele><time>2026-05-04T10:03:48Z</time></trkpt><trkpt lat="37.628767738941384" lon="14.714293232039426"><ele>512.75</ele><time>2026-05-04T10:03:49Z</time></trkpt><trkpt lat="37.62884482819621" lon="14.714158323249146"><ele>513.0</ele><time>2026-05-04T10:03:50Z</time></trkpt><trkpt lat="37.62889081581242" lon="14.714011790873581"><ele>512.6</ele><time>2026-05-04T10:03:51Z</time></trkpt><trkpt lat="37.62892143581445" lon="14.71386559937924"><ele>512.1999999999999</ele><time>2026-05-04T10:03:52Z</time></trkpt><trkpt lat="37.62895295283927" lon="14.713736262063854"><ele>511.8</ele><time>2026-05-04T10:03:53Z</time></trkpt><trkpt lat="37.62899972366106" lon="14.71362563803724"><ele>511.4</ele><time>2026-05-04T10:03:54Z</time></trkpt><trkpt lat="37.62910051689102" lon="14.71357970380066"><ele>511.0</ele><time>2026-05-04T10:03:55Z</time></trkpt><trkpt lat="37.62920409872239" lon="14.713549755717864"><ele>511.0</ele><time>2026-05-04T10:03:56Z</time></trkpt><trkpt lat="37.62929160829451" lon="14.713567233853501"><ele>511.0</ele><time>2026-05-04T10:03:57Z</time></trkpt><trkpt lat="37.629347951871985" lon="14.71363945201396"><ele>511.0</ele><time>2026-05-04T10:03:58Z</time></trkpt><trkpt lat="37.62939437642115" lon="14.713719046343705"><ele>511.0</ele><time>2026-05-04T10:03:59Z</time></trkpt><trkpt lat="37.62936368569899" lon="14.71385199169434"><ele>511.0</ele><time>2026-05-04T10:04:00Z</time></trkpt><trkpt lat="37.62934850106829" lon="14.71399288092872"><ele>511.0</ele><time>2026-05-04T10:04:01Z</time></trkpt><trkpt lat="37.629330427858505" lon="14.714152742881346"><ele>511.0</ele><time>2026-05-04T10:04:02Z</time></trkpt><trkpt lat="37.62932753500287" lon="14.714324339734546"><ele>511.0</ele><time>2026-05-04T10:04:03Z</time></trkpt><trkpt lat="37.629301718741594" lon="14.714509993764848"><ele>511.0</ele><time>2026-05-04T10:04:04Z</time></trkpt><trkpt lat="37.629281809859734" lon="14.714698044573632"><ele>511.5</ele><time>2026-05-04T10:04:05Z</time></trkpt><trkpt lat="37.629259658491534" lon="14.714868220454992"><ele>512.0</ele><time>2026-05-04T10:04:06Z</time></trkpt><trkpt lat="37.629245147808504" lon="14.715021952238493"><ele>512.5</ele><time>2026-05-04T10:04:07Z</time></trkpt><trkpt lat="37.62923117378412" lon="14.715150685493805"><ele>513.0</ele><time>2026-05-04T10:04:08Z</time></trkpt><trkpt lat="37.62924458076471" lon="14.715263432431831"><ele>510.8333333333333</ele><time>2026-05-04T10:04:09Z</time></trkpt><trkpt lat="37.629293435697825" lon="14.715365582379196"><ele>508.66666666666663</ele><time>2026-05-04T10:04:10Z</time></trkpt><trkpt lat="37.629372232695104" lon="14.715423193610812"><ele>506.5</ele><time>2026-05-04T10:04:11Z</time></trkpt><trkpt lat="37.62945215912852" lon="14.715411924874426"><ele>504.3333333333333</ele><time>2026-05-04T10:04:12Z</time></trkpt><trkpt lat="37.629518192784786" lon="14.71534052239376"><ele>502.16666666666663</ele><time>2026-05-04T10:04:13Z</time></trkpt><trkpt lat="37.629554128474204" lon="14.715230384853259"><ele>500.0</ele><time>2026-05-04T10:04:14Z</time></trkpt><trkpt lat="37.629592748661395" lon="14.715134254677944"><ele>497.5</ele><time>2026-05-04T10:04:15Z</time></trkpt><trkpt lat="37.62963250125137" lon="14.715026265689916"><ele>495.0</ele><time>2026-05-04T10:04:16Z</time></trkpt><trkpt lat="37.62967412018875" lon="14.714876355374926"><ele>492.5</ele><time>2026-05-04T10:04:17Z</time></trkpt><trkpt lat="37.629727011155545" lon="14.714721338834952"><ele>490.0</ele><time>2026-05-04T10:04:18Z</time></trkpt><trkpt lat="37.62979536387849" lon="14.714555515556091"><ele>491.0</ele><time>2026-05-04T10:04:19Z</time></trkpt><trkpt lat="37.629861840536904" lon="14.714374942660898"><ele>492.0</ele><time>2026-05-04T10:04:20Z</time></trkpt><trkpt lat="37.62994349075009" lon="14.71419096836634"><ele>493.0</ele><time>2026-05-04T10:04:21Z</time></trkpt><trkpt lat="37.63002067651329" lon="14.7139853809104"><ele>493.0</ele><time>2026-05-04T10:04:22Z</time></trkpt><trkpt lat="37.630085367830624" lon="14.713785986629215"><ele>493.0</ele><time>2026-05-04T10:04:23Z</time></trkpt><trkpt lat="37.630150537627934" lon="14.713608624386499"><ele>493.0</ele><time>2026-05-04T10:04:24Z</time></trkpt><trkpt lat="37.63021569989055" lon="14.713428231631317"><ele>493.5</ele><time>2026-05-04T10:04:25Z</time></trkpt><trkpt lat="37.63027792969387" lon="14.713256862191557"><ele>494.0</ele><time>2026-05-04T10:04:26Z</time></trkpt><trkpt lat="37.63035538566224" lon="14.713092388037715"><ele>494.5</ele><time>2026-05-04T10:04:27Z</time></trkpt><trkpt lat="37.63041579011442" lon="14.71292656362696"><ele>495.0</ele><time>2026-05-04T10:04:28Z</time></trkpt><trkpt lat="37.630463746631804" lon="14.712756572128292"><ele>490.25</ele><time>2026-05-04T10:04:29Z</time></trkpt><trkpt lat="37.63052268292216" lon="14.712593481790563"><ele>485.5</ele><time>2026-05-04T10:04:30Z</time></trkpt><trkpt lat="37.63057480841011" lon="14.712432325149955"><ele>480.75</ele><time>2026-05-04T10:04:31Z</time></trkpt><trkpt lat="37.63064256920913" lon="14.712279386271959"><ele>476.0</ele><time>2026-05-04T10:04:32Z</time></trkpt><trkpt lat="37.63069072833304" lon="14.712114103498696"><ele>476.0</ele><time>2026-05-04T10:04:33Z</time></trkpt><trkpt lat="37.63075237090271" lon="14.711951256730321"><ele>476.0</ele><time>2026-05-04T10:04:34Z</time></trkpt><trkpt lat="37.6308044705667" lon="14.711781578579357"><ele>476.0</ele><time>2026-05-04T10:04:35Z</time></trkpt><trkpt lat="37.63086742330799" lon="14.71163189500223"><ele>476.0</ele><time>2026-05-04T10:04:36Z</time></trkpt><trkpt lat="37.630948766138786" lon="14.711510388972693"><ele>476.5</ele><time>2026-05-04T10:04:37Z</time></trkpt><trkpt lat="37.631036180498384" lon="14.711414800374882"><ele>477.0</ele><time>2026-05-04T10:04:38Z</time></trkpt><trkpt lat="37.631149094532255" lon="14.711359186476871"><ele>477.5</ele><time>2026-05-04T10:04:39Z</time></trkpt><trkpt lat="37.63126031725965" lon="14.711264125554052"><ele>478.0</ele><time>2026-05-04T10:04:40Z</time></trkpt><trkpt lat="37.63139305484285" lon="14.71118553839073"><ele>475.6666666666667</ele><time>2026-05-04T10:04:41Z</time></trkpt><trkpt lat="37.63153101801584" lon="14.71109946039379"><ele>473.33333333333337</ele><time>2026-05-04T10:04:42Z</time></trkpt><trkpt lat="37.63166700652672" lon="14.711010964692965"><ele>471.0</ele><time>2026-05-04T10:04:43Z</time></trkpt><trkpt lat="37.63179959379762" lon="14.71091962913214"><ele>471.0</ele><time>2026-05-04T10:04:44Z</time></trkpt><trkpt lat="37.631930885531325" lon="14.710799032535958"><ele>471.0</ele><time>2026-05-04T10:04:45Z</time></trkpt><trkpt lat="37.63206325592063" lon="14.7106822226687"><ele>471.0</ele><time>2026-05-04T10:04:46Z</time></trkpt><trkpt lat="37.63216767482525" lon="14.710587318458355"><ele>468.6</ele><time>2026-05-04T10:04:47Z</time></trkpt><trkpt lat="37.632258471131394" lon="14.710503937737181"><ele>466.20000000000005</ele><time>2026-05-04T10:04:48Z</time></trkpt><trkpt lat="37.632334207364494" lon="14.71041635935385"><ele>463.79999999999995</ele><time>2026-05-04T10:04:49Z</time></trkpt><trkpt lat="37.63237376312805" lon="14.710302815415774"><ele>461.4</ele><time>2026-05-04T10:04:50Z</time></trkpt><trkpt lat="37.63237631819947" lon="14.710162229315289"><ele>459.0</ele><time>2026-05-04T10:04:51Z</time></trkpt><trkpt lat="37.632343548049334" lon="14.709997337596947"><ele>458.5</ele><time>2026-05-04T10:04:52Z</time></trkpt><trkpt lat="37.63230052684337" lon="14.709813557746823"><ele>458.0</ele><time>2026-05-04T10:04:53Z</time></trkpt><trkpt lat="37.632301346413904" lon="14.709627362419969"><ele>457.5</ele><time>2026-05-04T10:04:54Z</time></trkpt><trkpt lat="37.6322909993398" lon="14.709477403608892"><ele>457.0</ele><time>2026-05-04T10:04:55Z</time></trkpt><trkpt lat="37.632320498540395" lon="14.709370960270466"><ele>456.20000000000005</ele><time>2026-05-04T10:04:56Z</time></trkpt><trkpt lat="37.632380430562144" lon="14.709277954109949"><ele>455.40000000000003</ele><time>2026-05-04T10:04:57Z</time></trkpt><trkpt lat="37.63245090690188" lon="14.709200920679336"><ele>454.59999999999997</ele><time>2026-05-04T10:04:58Z</time></trkpt><trkpt lat="37.63254997932916" lon="14.709133632799697"><ele>453.79999999999995</ele><time>2026-05-04T10:04:59Z</time></trkpt><trkpt lat="37.632661758290006" lon="14.709063310336276"><ele>453.0</ele><time>2026-05-04T10:05:00Z</time></trkpt><trkpt lat="37.63278791870814" lon="14.70898836782839"><ele>450.33333333333337</ele><time>2026-05-04T10:05:01Z</time></trkpt><trkpt lat="37.632924940912474" lon="14.708899673230714"><ele>447.6666666666667</ele><time>2026-05-04T10:05:02Z</time></trkpt><trkpt lat="37.63307324513937" lon="14.708804690343094"><ele>445.0</ele><time>2026-05-04T10:05:03Z</time></trkpt><trkpt lat="37.63322832519379" lon="14.708707536125587"><ele>445.0</ele><time>2026-05-04T10:05:04Z</time></trkpt><trkpt lat="37.63341254378869" lon="14.708600831659952"><ele>445.0</ele><time>2026-05-04T10:05:05Z</time></trkpt><trkpt lat="37.63359000269897" lon="14.708494189571415"><ele>445.0</ele><time>2026-05-04T10:05:06Z</time></trkpt><trkpt lat="37.63375622013894" lon="14.708394878357899"><ele>443.75</ele><time>2026-05-04T10:05:07Z</time></trkpt><trkpt lat="37.63389268707718" lon="14.708311467709041"><ele>442.5</ele><time>2026-05-04T10:05:08Z</time></trkpt><trkpt lat="37.63400362241963" lon="14.708240138091314"><ele>441.25</ele><time>2026-05-04T10:05:09Z</time></trkpt><trkpt lat="37.63408858171788" lon="14.708162497698083"><ele>440.0</ele><time>2026-05-04T10:05:10Z</time></trkpt><trkpt lat="37.63414936942868" lon="14.708069870795399"><ele>439.99999999999994</ele><time>2026-05-04T10:05:11Z</time></trkpt><trkpt lat="37.63418251856909" lon="14.707968820691212"><ele>440.0</ele><time>2026-05-04T10:05:12Z</time></trkpt><trkpt lat="37.63421275613322" lon="14.707871245987418"><ele>440.0</ele><time>2026-05-04T10:05:13Z</time></trkpt><trkpt lat="37.63424556123856" lon="14.707779460596566"><ele>440.0</ele><time>2026-05-04T10:05:14Z</time></trkpt><trkpt lat="37.6342787301096" lon="14.707693137376738"><ele>439.99999999999994</ele><time>2026-05-04T10:05:15Z</time></trkpt><trkpt lat="37.634310855203786" lon="14.707610083553659"><ele>440.0</ele><time>2026-05-04T10:05:16Z</time></trkpt><trkpt lat="37.63434883156751" lon="14.707534440817474"><ele>440.6</ele><time>2026-05-04T10:05:17Z</time></trkpt><trkpt lat="37.6343912067717" lon="14.707469286340555"><ele>441.2</ele><time>2026-05-04T10:05:18Z</time></trkpt><trkpt lat="37.63444369662078" lon="14.707408111592484"><ele>441.79999999999995</ele><time>2026-05-04T10:05:20Z</time></trkpt><trkpt lat="37.6345097225484" lon="14.707375176556418"><ele>442.4</ele><time>2026-05-04T10:05:41Z</time></trkpt><trkpt lat="37.63440720603738" lon="14.707187980542539"><ele>443.0</ele><time>2026-05-04T10:05:44Z</time></trkpt><trkpt lat="37.63432601284432" lon="14.70712054330058"><ele>443.0</ele><time>2026-05-04T10:05:45Z</time></trkpt><trkpt lat="37.63420126320844" lon="14.707059426531453"><ele>443.0</ele><time>2026-05-04T10:05:46Z</time></trkpt><trkpt lat="37.63405342131182" lon="14.706994870668472"><ele>443.0</ele><time>2026-05-04T10:05:47Z</time></trkpt><trkpt lat="37.63392611723406" lon="14.70693727985735"><ele>443.0</ele><time>2026-05-04T10:05:48Z</time></trkpt><trkpt lat="37.63382037092734" lon="14.70687856924477"><ele>445.0</ele><time>2026-05-04T10:05:49Z</time></trkpt><trkpt lat="37.633720057150185" lon="14.706809558085643"><ele>447.0</ele><time>2026-05-04T10:05:50Z</time></trkpt><trkpt lat="37.633606582414046" lon="14.706692869121403"><ele>449.0</ele><time>2026-05-04T10:05:51Z</time></trkpt><trkpt lat="37.633489823745975" lon="14.706572579987471"><ele>451.0</ele><time>2026-05-04T10:05:52Z</time></trkpt><trkpt lat="37.63337356508483" lon="14.706432790471913"><ele>451.5</ele><time>2026-05-04T10:05:53Z</time></trkpt><trkpt lat="37.633239293276105" lon="14.706300086034101"><ele>452.0</ele><time>2026-05-04T10:05:54Z</time></trkpt><trkpt lat="37.63311944218465" lon="14.706226062482978"><ele>452.5</ele><time>2026-05-04T10:05:55Z</time></trkpt><trkpt lat="37.63302939048146" lon="14.706161877071956"><ele>453.0</ele><time>2026-05-04T10:05:56Z</time></trkpt><trkpt lat="37.63295708531688" lon="14.706096147185873"><ele>453.8333333333333</ele><time>2026-05-04T10:05:57Z</time></trkpt><trkpt lat="37.63288269742146" lon="14.706056229346402"><ele>454.66666666666663</ele><time>2026-05-04T10:05:58Z</time></trkpt><trkpt lat="37.63282752630153" lon="14.705992580937522"><ele>455.5</ele><time>2026-05-04T10:05:59Z</time></trkpt><trkpt lat="37.632787080511214" lon="14.705927121694774"><ele>456.3333333333333</ele><time>2026-05-04T10:06:00Z</time></trkpt><trkpt lat="37.63271632492066" lon="14.705853020647732"><ele>457.16666666666663</ele><time>2026-05-04T10:06:02Z</time></trkpt><trkpt lat="37.632637206875806" lon="14.705769021964024"><ele>458.0</ele><time>2026-05-04T10:06:04Z</time></trkpt><trkpt lat="37.63257753435581" lon="14.705693658477617"><ele>458.0</ele><time>2026-05-04T10:06:05Z</time></trkpt><trkpt lat="37.6325254982712" lon="14.70560165014931"><ele>457.99999999999994</ele><time>2026-05-04T10:06:06Z</time></trkpt><trkpt lat="37.632476011538444" lon="14.705511762181551"><ele>457.99999999999994</ele><time>2026-05-04T10:06:07Z</time></trkpt><trkpt lat="37.63242729198822" lon="14.705415146694115"><ele>458.0</ele><time>2026-05-04T10:06:08Z</time></trkpt><trkpt lat="37.63237232444687" lon="14.705311671580649"><ele>458.0</ele><time>2026-05-04T10:06:09Z</time></trkpt><trkpt lat="37.63230971077095" lon="14.705214488452382"><ele>456.79999999999995</ele><time>2026-05-04T10:06:10Z</time></trkpt><trkpt lat="37.632247468435274" lon="14.705121797510044"><ele>455.59999999999997</ele><time>2026-05-04T10:06:11Z</time></trkpt><trkpt lat="37.63219468555275" lon="14.705007939765869"><ele>454.40000000000003</ele><time>2026-05-04T10:06:12Z</time></trkpt><trkpt lat="37.632114824648816" lon="14.704910540234634"><ele>453.20000000000005</ele><time>2026-05-04T10:06:13Z</time></trkpt><trkpt lat="37.63202704264366" lon="14.704831579396155"><ele>452.0</ele><time>2026-05-04T10:06:14Z</time></trkpt><trkpt lat="37.63196010634286" lon="14.704720775701299"><ele>450.6</ele><time>2026-05-04T10:06:15Z</time></trkpt><trkpt lat="37.63189008693268" lon="14.704625731831873"><ele>449.20000000000005</ele><time>2026-05-04T10:06:16Z</time></trkpt><trkpt lat="37.631819729711765" lon="14.704533190109913"><ele>447.8</ele><time>2026-05-04T10:06:17Z</time></trkpt><trkpt lat="37.63174840060228" lon="14.70444565851525"><ele>446.4</ele><time>2026-05-04T10:06:18Z</time></trkpt><trkpt lat="37.631685801218005" lon="14.704369511296028"><ele>445.0</ele><time>2026-05-04T10:06:19Z</time></trkpt><trkpt lat="37.63163569936287" lon="14.704294163842272"><ele>441.6666666666667</ele><time>2026-05-04T10:06:20Z</time></trkpt><trkpt lat="37.631594104515464" lon="14.70416782691506"><ele>438.33333333333337</ele><time>2026-05-04T10:06:22Z</time></trkpt><trkpt lat="37.63159584317815" lon="14.704073808816865"><ele>435.0</ele><time>2026-05-04T10:06:24Z</time></trkpt><trkpt lat="37.63165493737674" lon="14.704039573573231"><ele>431.66666666666663</ele><time>2026-05-04T10:06:25Z</time></trkpt><trkpt lat="37.63172354898572" lon="14.704100818348572"><ele>428.3333333333333</ele><time>2026-05-04T10:06:26Z</time></trkpt><trkpt lat="37.631807781105906" lon="14.704117029094562"><ele>425.0</ele><time>2026-05-04T10:06:28Z</time></trkpt><trkpt lat="37.63189788627353" lon="14.704050399602188"><ele>424.99999999999994</ele><time>2026-05-04T10:06:30Z</time></trkpt><trkpt lat="37.63192046833641" lon="14.703969016685443"><ele>425.0</ele><time>2026-05-04T10:06:31Z</time></trkpt><trkpt lat="37.631918513878624" lon="14.703883084265653"><ele>425.0</ele><time>2026-05-04T10:06:32Z</time></trkpt><trkpt lat="37.631904177094164" lon="14.703804522713089"><ele>425.0</ele><time>2026-05-04T10:06:33Z</time></trkpt><trkpt lat="37.631879619987146" lon="14.703712956422914"><ele>424.99999999999994</ele><time>2026-05-04T10:06:34Z</time></trkpt><trkpt lat="37.63182434953959" lon="14.703631563785956"><ele>425.0</ele><time>2026-05-04T10:06:35Z</time></trkpt><trkpt lat="37.63175166152344" lon="14.703553746737777"><ele>425.0</ele><time>2026-05-04T10:06:36Z</time></trkpt><trkpt lat="37.631675947589784" lon="14.703482662540551"><ele>425.0</ele><time>2026-05-04T10:06:37Z</time></trkpt><trkpt lat="37.63159846484973" lon="14.703434958531428"><ele>425.0</ele><time>2026-05-04T10:06:38Z</time></trkpt><trkpt lat="37.63152381083073" lon="14.703405056615862"><ele>425.0</ele><time>2026-05-04T10:06:39Z</time></trkpt><trkpt lat="37.63142987466499" lon="14.703387182464336"><ele>425.0</ele><time>2026-05-04T10:06:40Z</time></trkpt><trkpt lat="37.63131040899979" lon="14.70338111546392"><ele>425.0</ele><time>2026-05-04T10:06:41Z</time></trkpt><trkpt lat="37.63117888206427" lon="14.703386467533202"><ele>425.0</ele><time>2026-05-04T10:06:42Z</time></trkpt><trkpt lat="37.631058524618965" lon="14.703384639306242"><ele>425.0</ele><time>2026-05-04T10:06:43Z</time></trkpt><trkpt lat="37.63096041928684" lon="14.70337560333048"><ele>425.0</ele><time>2026-05-04T10:06:44Z</time></trkpt><trkpt lat="37.630887844301554" lon="14.70333137846271"><ele>425.0</ele><time>2026-05-04T10:06:45Z</time></trkpt><trkpt lat="37.630841142446805" lon="14.703269383784857"><ele>423.8</ele><time>2026-05-04T10:06:46Z</time></trkpt><trkpt lat="37.63079211409582" lon="14.703186149911508"><ele>422.6</ele><time>2026-05-04T10:06:47Z</time></trkpt><trkpt lat="37.6307334394115" lon="14.703090506381015"><ele>421.4</ele><time>2026-05-04T10:06:48Z</time></trkpt><trkpt lat="37.63067345050436" lon="14.702965606860944"><ele>420.2</ele><time>2026-05-04T10:06:49Z</time></trkpt><trkpt lat="37.6305973328839" lon="14.702850351234542"><ele>419.0</ele><time>2026-05-04T10:06:50Z</time></trkpt><trkpt lat="37.63052065404024" lon="14.702753597792558"><ele>421.0</ele><time>2026-05-04T10:06:51Z</time></trkpt><trkpt lat="37.6304399580573" lon="14.702688854104368"><ele>423.0</ele><time>2026-05-04T10:06:52Z</time></trkpt><trkpt lat="37.6303450427164" lon="14.70266735609955"><ele>425.0</ele><time>2026-05-04T10:06:53Z</time></trkpt><trkpt lat="37.63024277271105" lon="14.702641883417344"><ele>427.0</ele><time>2026-05-04T10:06:54Z</time></trkpt><trkpt lat="37.63014103870176" lon="14.702604941890696"><ele>429.0</ele><time>2026-05-04T10:06:55Z</time></trkpt><trkpt lat="37.63007096481047" lon="14.702561750507146"><ele>429.0</ele><time>2026-05-04T10:06:56Z</time></trkpt><trkpt lat="37.63001251973613" lon="14.702497333072651"><ele>429.0</ele><time>2026-05-04T10:06:57Z</time></trkpt><trkpt lat="37.62995014420942" lon="14.702432078172652"><ele>429.0</ele><time>2026-05-04T10:06:58Z</time></trkpt><trkpt lat="37.62989441537327" lon="14.702329498446572"><ele>429.0</ele><time>2026-05-04T10:06:59Z</time></trkpt><trkpt lat="37.62982632310454" lon="14.702222136196296"><ele>429.0</ele><time>2026-05-04T10:07:00Z</time></trkpt><trkpt lat="37.62976410479197" lon="14.702118173196526"><ele>429.0</ele><time>2026-05-04T10:07:01Z</time></trkpt><trkpt lat="37.6296808577599" lon="14.702039425700358"><ele>429.0</ele><time>2026-05-04T10:07:02Z</time></trkpt><trkpt lat="37.62958798428469" lon="14.7019733814781"><ele>429.0</ele><time>2026-05-04T10:07:03Z</time></trkpt><trkpt lat="37.629496488867524" lon="14.701909135202536"><ele>429.0</ele><time>2026-05-04T10:07:04Z</time></trkpt><trkpt lat="37.62940772866601" lon="14.701837055371014"><ele>429.0</ele><time>2026-05-04T10:07:05Z</time></trkpt><trkpt lat="37.629327031385344" lon="14.701752906813828"><ele>427.2</ele><time>2026-05-04T10:07:06Z</time></trkpt><trkpt lat="37.62925329330345" lon="14.701667791973648"><ele>425.4</ele><time>2026-05-04T10:07:07Z</time></trkpt><trkpt lat="37.62917533055038" lon="14.70156996211572"><ele>423.6</ele><time>2026-05-04T10:07:08Z</time></trkpt><trkpt lat="37.62910915785321" lon="14.701484490537297"><ele>421.8</ele><time>2026-05-04T10:07:09Z</time></trkpt><trkpt lat="37.62904346317077" lon="14.701415102798016"><ele>420.0</ele><time>2026-05-04T10:07:10Z</time></trkpt><trkpt lat="37.62900647563102" lon="14.70132153963154"><ele>420.0</ele><time>2026-05-04T10:07:11Z</time></trkpt><trkpt lat="37.62896701939706" lon="14.701213115008677"><ele>420.0</ele><time>2026-05-04T10:07:12Z</time></trkpt><trkpt lat="37.62896838009716" lon="14.701091531748045"><ele>420.0</ele><time>2026-05-04T10:07:13Z</time></trkpt><trkpt lat="37.628969160215846" lon="14.700949479992888"><ele>420.0</ele><time>2026-05-04T10:07:14Z</time></trkpt><trkpt lat="37.6289629809946" lon="14.700809440656196"><ele>420.0</ele><time>2026-05-04T10:07:15Z</time></trkpt><trkpt lat="37.62895016099116" lon="14.700714042200703"><ele>421.1666666666667</ele><time>2026-05-04T10:07:16Z</time></trkpt><trkpt lat="37.628921482152954" lon="14.700640029178743"><ele>422.33333333333337</ele><time>2026-05-04T10:07:17Z</time></trkpt><trkpt lat="37.62888188299318" lon="14.700575549738497"><ele>423.5</ele><time>2026-05-04T10:07:18Z</time></trkpt><trkpt lat="37.62882108570324" lon="14.700518075884585"><ele>424.6666666666667</ele><time>2026-05-04T10:07:19Z</time></trkpt><trkpt lat="37.628749736309004" lon="14.700445826196642"><ele>425.83333333333337</ele><time>2026-05-04T10:07:20Z</time></trkpt><trkpt lat="37.62867102797987" lon="14.700362408632403"><ele>427.0</ele><time>2026-05-04T10:07:21Z</time></trkpt><trkpt lat="37.62857863825876" lon="14.700257308334937"><ele>427.75</ele><time>2026-05-04T10:07:22Z</time></trkpt><trkpt lat="37.62848877842558" lon="14.700138539392892"><ele>428.5</ele><time>2026-05-04T10:07:23Z</time></trkpt><trkpt lat="37.62841189609603" lon="14.699999127553362"><ele>429.25</ele><time>2026-05-04T10:07:24Z</time></trkpt><trkpt lat="37.628324600345906" lon="14.699880021422853"><ele>430.0</ele><time>2026-05-04T10:07:25.001Z</time></trkpt><trkpt lat="37.6282491201967" lon="14.699758830083423"><ele>430.0</ele><time>2026-05-04T10:07:26.001Z</time></trkpt><trkpt lat="37.62816412858728" lon="14.699636905652202"><ele>430.0</ele><time>2026-05-04T10:07:27.001Z</time></trkpt><trkpt lat="37.628069325790236" lon="14.699504062322765"><ele>430.0</ele><time>2026-05-04T10:07:28.001Z</time></trkpt><trkpt lat="37.627986651352366" lon="14.699370861899048"><ele>430.0</ele><time>2026-05-04T10:07:29.001Z</time></trkpt><trkpt lat="37.62792290992737" lon="14.699239219044175"><ele>430.8</ele><time>2026-05-04T10:07:30.001Z</time></trkpt><trkpt lat="37.627886526419324" lon="14.699114563917208"><ele>431.6</ele><time>2026-05-04T10:07:31.001Z</time></trkpt><trkpt lat="37.627847919652154" lon="14.69899661520057"><ele>432.4</ele><time>2026-05-04T10:07:32.001Z</time></trkpt><trkpt lat="37.62781059797385" lon="14.698876875498181"><ele>433.2</ele><time>2026-05-04T10:07:33.001Z</time></trkpt><trkpt lat="37.627799906988955" lon="14.69874493740411"><ele>434.0</ele><time>2026-05-04T10:07:34.001Z</time></trkpt><trkpt lat="37.627794879065796" lon="14.698601003437997"><ele>433.75</ele><time>2026-05-04T10:07:35.001Z</time></trkpt><trkpt lat="37.627784963934836" lon="14.698445266285574"><ele>433.5</ele><time>2026-05-04T10:07:36.001Z</time></trkpt><trkpt lat="37.62776834869057" lon="14.698275046725335"><ele>433.25</ele><time>2026-05-04T10:07:37.001Z</time></trkpt><trkpt lat="37.62774613475907" lon="14.698093910394986"><ele>433.0</ele><time>2026-05-04T10:07:38.001Z</time></trkpt><trkpt lat="37.62771975657256" lon="14.697912281835091"><ele>431.0</ele><time>2026-05-04T10:07:39.001Z</time></trkpt><trkpt lat="37.627692591008234" lon="14.697739325663509"><ele>429.0</ele><time>2026-05-04T10:07:40.001Z</time></trkpt><trkpt lat="37.62766306194003" lon="14.69757837142508"><ele>427.0</ele><time>2026-05-04T10:07:41.001Z</time></trkpt><trkpt lat="37.62762456101311" lon="14.697426788174676"><ele>425.0</ele><time>2026-05-04T10:07:41.999Z</time></trkpt><trkpt lat="37.62758233529807" lon="14.697264677396277"><ele>425.0</ele><time>2026-05-04T10:07:42.999Z</time></trkpt><trkpt lat="37.6275346552639" lon="14.697093370353427"><ele>425.0</ele><time>2026-05-04T10:07:43.999Z</time></trkpt><trkpt lat="37.62748882156865" lon="14.696933275905456"><ele>425.0</ele><time>2026-05-04T10:07:44.999Z</time></trkpt><trkpt lat="37.62744543004604" lon="14.696790236536907"><ele>425.0</ele><time>2026-05-04T10:07:45.999Z</time></trkpt><trkpt lat="37.627403575750186" lon="14.696662882452689"><ele>423.99999999999994</ele><time>2026-05-04T10:07:46.999Z</time></trkpt><trkpt lat="37.62736639053437" lon="14.69654928796539"><ele>423.0</ele><time>2026-05-04T10:07:47.999Z</time></trkpt><trkpt lat="37.6273331054645" lon="14.69644862534376"><ele>422.0</ele><time>2026-05-04T10:07:48.999Z</time></trkpt><trkpt lat="37.627293690730305" lon="14.696365316852129"><ele>421.0</ele><time>2026-05-04T10:07:49.999Z</time></trkpt><trkpt lat="37.62723864762887" lon="14.696298965109564"><ele>419.99999999999994</ele><time>2026-05-04T10:07:50.999Z</time></trkpt><trkpt lat="37.6271744043234" lon="14.696253473901853"><ele>419.0</ele><time>2026-05-04T10:07:51.999Z</time></trkpt><trkpt lat="37.62711119112992" lon="14.696193262372788"><ele>419.0</ele><time>2026-05-04T10:07:52.999Z</time></trkpt><trkpt lat="37.62702842886577" lon="14.696154799124102"><ele>419.0</ele><time>2026-05-04T10:07:53.999Z</time></trkpt><trkpt lat="37.62693076414447" lon="14.696117108558388"><ele>419.0</ele><time>2026-05-04T10:07:54.999Z</time></trkpt><trkpt lat="37.62682848643985" lon="14.696076515843497"><ele>419.0</ele><time>2026-05-04T10:07:55.999Z</time></trkpt><trkpt lat="37.62672172386002" lon="14.696036891661214"><ele>419.0</ele><time>2026-05-04T10:07:56.999Z</time></trkpt><trkpt lat="37.62660924456978" lon="14.695996973564148"><ele>418.75</ele><time>2026-05-04T10:07:57.999Z</time></trkpt><trkpt lat="37.626493900160156" lon="14.69595603867541"><ele>418.5</ele><time>2026-05-04T10:07:58.999Z</time></trkpt><trkpt lat="37.62637812889997" lon="14.695914952278729"><ele>418.25</ele><time>2026-05-04T10:07:59.999Z</time></trkpt><trkpt lat="37.62625999707083" lon="14.695873028136244"><ele>418.0</ele><time>2026-05-04T10:08:01Z</time></trkpt><trkpt lat="37.62613944308325" lon="14.695827594649327"><ele>419.25</ele><time>2026-05-04T10:08:02Z</time></trkpt><trkpt lat="37.626014105407755" lon="14.695795268943149"><ele>420.5</ele><time>2026-05-04T10:08:03Z</time></trkpt><trkpt lat="37.62589521789553" lon="14.695742262778538"><ele>421.75</ele><time>2026-05-04T10:08:04Z</time></trkpt><trkpt lat="37.62578437747959" lon="14.695690740381606"><ele>423.0</ele><time>2026-05-04T10:08:05Z</time></trkpt><trkpt lat="37.625696509319475" lon="14.695616128541193"><ele>423.0</ele><time>2026-05-04T10:08:06Z</time></trkpt><trkpt lat="37.6256065308206" lon="14.695543777495708"><ele>423.0</ele><time>2026-05-04T10:08:07Z</time></trkpt><trkpt lat="37.6255198884372" lon="14.695442551082413"><ele>423.0</ele><time>2026-05-04T10:08:08Z</time></trkpt><trkpt lat="37.62544243959266" lon="14.695340076510979"><ele>423.0</ele><time>2026-05-04T10:08:09Z</time></trkpt><trkpt lat="37.62537908282637" lon="14.695252809649183"><ele>423.0</ele><time>2026-05-04T10:08:10Z</time></trkpt><trkpt lat="37.625319259753304" lon="14.695155816872"><ele>424.5</ele><time>2026-05-04T10:08:11Z</time></trkpt><trkpt lat="37.6252667886953" lon="14.695033953940317"><ele>426.0</ele><time>2026-05-04T10:08:12Z</time></trkpt><trkpt lat="37.62520110297213" lon="14.69489495665916"><ele>427.5</ele><time>2026-05-04T10:08:13Z</time></trkpt><trkpt lat="37.625087135382906" lon="14.694793222267089"><ele>429.0</ele><time>2026-05-04T10:08:14Z</time></trkpt><trkpt lat="37.624960846356466" lon="14.694704514854019"><ele>429.0</ele><time>2026-05-04T10:08:15Z</time></trkpt><trkpt lat="37.62483768205761" lon="14.694624375973026"><ele>429.0</ele><time>2026-05-04T10:08:16Z</time></trkpt><trkpt lat="37.624733792302294" lon="14.694527729765548"><ele>429.0</ele><time>2026-05-04T10:08:17Z</time></trkpt><trkpt lat="37.624630092051035" lon="14.694444961410523"><ele>429.0</ele><time>2026-05-04T10:08:18Z</time></trkpt><trkpt lat="37.62454011651988" lon="14.69435849607839"><ele>426.2</ele><time>2026-05-04T10:08:19Z</time></trkpt><trkpt lat="37.62446766746639" lon="14.694264401897216"><ele>423.4</ele><time>2026-05-04T10:08:20Z</time></trkpt><trkpt lat="37.62439332960634" lon="14.694162854772369"><ele>420.6</ele><time>2026-05-04T10:08:21Z</time></trkpt><trkpt lat="37.6242788645619" lon="14.694115220627163"><ele>417.8</ele><time>2026-05-04T10:08:22Z</time></trkpt><trkpt lat="37.62419001001648" lon="14.694045539870718"><ele>415.0</ele><time>2026-05-04T10:08:23Z</time></trkpt><trkpt lat="37.62409439938293" lon="14.693983651503258"><ele>415.0</ele><time>2026-05-04T10:08:24Z</time></trkpt><trkpt lat="37.623985382771664" lon="14.693927359516698"><ele>415.0</ele><time>2026-05-04T10:08:25Z</time></trkpt><trkpt lat="37.6238662443215" lon="14.693877136551684"><ele>415.0</ele><time>2026-05-04T10:08:26Z</time></trkpt><trkpt lat="37.62373737998066" lon="14.693831052916073"><ele>415.0</ele><time>2026-05-04T10:08:27Z</time></trkpt><trkpt lat="37.62360531436472" lon="14.693789790702484"><ele>413.5</ele><time>2026-05-04T10:08:28Z</time></trkpt><trkpt lat="37.62346638317311" lon="14.693745582828292"><ele>412.0</ele><time>2026-05-04T10:08:29Z</time></trkpt><trkpt lat="37.62334002230732" lon="14.693703740905173"><ele>410.5</ele><time>2026-05-04T10:08:30Z</time></trkpt><trkpt lat="37.62321942345491" lon="14.69366265707929"><ele>409.0</ele><time>2026-05-04T10:08:31Z</time></trkpt><trkpt lat="37.62310442177822" lon="14.693620382685554"><ele>409.4</ele><time>2026-05-04T10:08:32Z</time></trkpt><trkpt lat="37.622989540124344" lon="14.693586474129424"><ele>409.79999999999995</ele><time>2026-05-04T10:08:33Z</time></trkpt><trkpt lat="37.622876813943556" lon="14.693564867535727"><ele>410.20000000000005</ele><time>2026-05-04T10:08:34Z</time></trkpt><trkpt lat="37.62277554619191" lon="14.693526406926246"><ele>410.6</ele><time>2026-05-04T10:08:35Z</time></trkpt><trkpt lat="37.62268327423989" lon="14.693498516378737"><ele>411.0</ele><time>2026-05-04T10:08:36Z</time></trkpt><trkpt lat="37.622604627847004" lon="14.693465280791674"><ele>409.6666666666667</ele><time>2026-05-04T10:08:37Z</time></trkpt><trkpt lat="37.622528081690135" lon="14.693421749284393"><ele>408.33333333333337</ele><time>2026-05-04T10:08:38Z</time></trkpt><trkpt lat="37.622457306678776" lon="14.693355076653894"><ele>407.0</ele><time>2026-05-04T10:08:39Z</time></trkpt><trkpt lat="37.62241408155504" lon="14.69326523269461"><ele>405.6666666666667</ele><time>2026-05-04T10:08:40Z</time></trkpt><trkpt lat="37.62237100446705" lon="14.693164028678922"><ele>404.33333333333337</ele><time>2026-05-04T10:08:41Z</time></trkpt><trkpt lat="37.62233930787636" lon="14.693058533536547"><ele>403.0</ele><time>2026-05-04T10:08:42Z</time></trkpt><trkpt lat="37.62230744978512" lon="14.692958900005253"><ele>403.00000000000006</ele><time>2026-05-04T10:08:43Z</time></trkpt><trkpt lat="37.62228423455851" lon="14.692861852050163"><ele>403.0</ele><time>2026-05-04T10:08:44Z</time></trkpt><trkpt lat="37.62225688412186" lon="14.692771541596331"><ele>403.0</ele><time>2026-05-04T10:08:45Z</time></trkpt><trkpt lat="37.62221765286131" lon="14.692676899950696"><ele>403.0</ele><time>2026-05-04T10:08:46Z</time></trkpt><trkpt lat="37.62217567502213" lon="14.69257000070712"><ele>403.00000000000006</ele><time>2026-05-04T10:08:47Z</time></trkpt><trkpt lat="37.62212938848275" lon="14.692454705013807"><ele>403.0</ele><time>2026-05-04T10:08:48Z</time></trkpt><trkpt lat="37.622069361011846" lon="14.692340989236198"><ele>403.2</ele><time>2026-05-04T10:08:49Z</time></trkpt><trkpt lat="37.622002335750544" lon="14.692228751415314"><ele>403.4</ele><time>2026-05-04T10:08:50Z</time></trkpt><trkpt lat="37.621950229976605" lon="14.692104365069156"><ele>403.59999999999997</ele><time>2026-05-04T10:08:51Z</time></trkpt><trkpt lat="37.6218728544035" lon="14.692008758365928"><ele>403.79999999999995</ele><time>2026-05-04T10:08:52Z</time></trkpt><trkpt lat="37.621806838696955" lon="14.691916867327443"><ele>404.0</ele><time>2026-05-04T10:08:53Z</time></trkpt><trkpt lat="37.62171518925385" lon="14.69184442722907"><ele>400.75</ele><time>2026-05-04T10:08:54Z</time></trkpt><trkpt lat="37.621614882504176" lon="14.691761964536214"><ele>397.5</ele><time>2026-05-04T10:08:55Z</time></trkpt><trkpt lat="37.62150577440843" lon="14.691686841687995"><ele>394.25</ele><time>2026-05-04T10:08:56Z</time></trkpt><trkpt lat="37.621391646197715" lon="14.691613568979694"><ele>391.0</ele><time>2026-05-04T10:08:57Z</time></trkpt><trkpt lat="37.62127088200117" lon="14.69155349313732"><ele>391.0</ele><time>2026-05-04T10:08:58Z</time></trkpt><trkpt lat="37.62115449831921" lon="14.691481551588925"><ele>391.0</ele><time>2026-05-04T10:08:59Z</time></trkpt><trkpt lat="37.621044646485124" lon="14.691399330029805"><ele>391.0</ele><time>2026-05-04T10:09:00Z</time></trkpt><trkpt lat="37.62093140300117" lon="14.691353500827637"><ele>391.0</ele><time>2026-05-04T10:09:01Z</time></trkpt><trkpt lat="37.620820647898114" lon="14.69132783326731"><ele>391.0</ele><time>2026-05-04T10:09:02Z</time></trkpt><trkpt lat="37.620706189434195" lon="14.691305651402217"><ele>391.0</ele><time>2026-05-04T10:09:03Z</time></trkpt><trkpt lat="37.620585058667864" lon="14.691268528822905"><ele>391.0</ele><time>2026-05-04T10:09:04Z</time></trkpt><trkpt lat="37.620474370546205" lon="14.691184247810321"><ele>391.0</ele><time>2026-05-04T10:09:05Z</time></trkpt><trkpt lat="37.62035420869605" lon="14.69109643104766"><ele>385.25</ele><time>2026-05-04T10:09:06Z</time></trkpt><trkpt lat="37.62023100750117" lon="14.69101840083635"><ele>379.5</ele><time>2026-05-04T10:09:07Z</time></trkpt><trkpt lat="37.62009827943296" lon="14.690945880540077"><ele>373.75</ele><time>2026-05-04T10:09:08Z</time></trkpt><trkpt lat="37.61996521578198" lon="14.690873988986148"><ele>368.0</ele><time>2026-05-04T10:09:09Z</time></trkpt><trkpt lat="37.619843959500066" lon="14.690799231006078"><ele>368.0</ele><time>2026-05-04T10:09:10Z</time></trkpt><trkpt lat="37.61973437373166" lon="14.690737280923177"><ele>368.0</ele><time>2026-05-04T10:09:11Z</time></trkpt><trkpt lat="37.619636863829456" lon="14.690718426469894"><ele>368.0</ele><time>2026-05-04T10:09:12Z</time></trkpt><trkpt lat="37.61955987130915" lon="14.690686471843875"><ele>368.0</ele><time>2026-05-04T10:09:13Z</time></trkpt><trkpt lat="37.61951554531894" lon="14.690606984446468"><ele>368.0</ele><time>2026-05-04T10:09:14Z</time></trkpt><trkpt lat="37.6194841109906" lon="14.690512966358112"><ele>370.5</ele><time>2026-05-04T10:09:15Z</time></trkpt><trkpt lat="37.6194332373149" lon="14.690396122637324"><ele>373.0</ele><time>2026-05-04T10:09:16Z</time></trkpt><trkpt lat="37.61936989605727" lon="14.69028136132424"><ele>375.5</ele><time>2026-05-04T10:09:17Z</time></trkpt><trkpt lat="37.61930855703607" lon="14.690147753572079"><ele>378.0</ele><time>2026-05-04T10:09:18Z</time></trkpt><trkpt lat="37.61923288246385" lon="14.690018570423629"><ele>372.75</ele><time>2026-05-04T10:09:19Z</time></trkpt><trkpt lat="37.6191431400529" lon="14.689894944452035"><ele>367.5</ele><time>2026-05-04T10:09:20Z</time></trkpt><trkpt lat="37.61904638672412" lon="14.68977328389788"><ele>362.25</ele><time>2026-05-04T10:09:21Z</time></trkpt><trkpt lat="37.61895961743937" lon="14.689647976637296"><ele>357.0</ele><time>2026-05-04T10:09:22Z</time></trkpt><trkpt lat="37.618894897225815" lon="14.68951721009003"><ele>358.0</ele><time>2026-05-04T10:09:23Z</time></trkpt><trkpt lat="37.61881513170976" lon="14.689405767465619"><ele>359.0</ele><time>2026-05-04T10:09:24Z</time></trkpt><trkpt lat="37.61875466558234" lon="14.68928366807693"><ele>360.0</ele><time>2026-05-04T10:09:25Z</time></trkpt><trkpt lat="37.61869095949021" lon="14.689166004807523"><ele>361.0</ele><time>2026-05-04T10:09:26Z</time></trkpt><trkpt lat="37.618639456885326" lon="14.689078194187692"><ele>362.0</ele><time>2026-05-04T10:09:27Z</time></trkpt><trkpt lat="37.61859274417453" lon="14.688981000641038"><ele>362.0</ele><time>2026-05-04T10:09:29Z</time></trkpt><trkpt lat="37.61855791489981" lon="14.688884954803726"><ele>362.0</ele><time>2026-05-04T10:09:31Z</time></trkpt><trkpt lat="37.61849860929248" lon="14.688736690312382"><ele>362.0</ele><time>2026-05-04T10:09:33Z</time></trkpt><trkpt lat="37.61845229753319" lon="14.688648728022955"><ele>362.0</ele><time>2026-05-04T10:09:34Z</time></trkpt><trkpt lat="37.61840270565907" lon="14.688550029124194"><ele>362.0</ele><time>2026-05-04T10:09:35Z</time></trkpt><trkpt lat="37.61836488896616" lon="14.688450016596214"><ele>359.0</ele><time>2026-05-04T10:09:36Z</time></trkpt><trkpt lat="37.61831756491798" lon="14.688367995672422"><ele>356.0</ele><time>2026-05-04T10:09:37Z</time></trkpt><trkpt lat="37.61827376805745" lon="14.688298225320388"><ele>353.0</ele><time>2026-05-04T10:09:38Z</time></trkpt><trkpt lat="37.61823397409408" lon="14.688236594264056"><ele>350.0</ele><time>2026-05-04T10:09:39Z</time></trkpt><trkpt lat="37.618175476558285" lon="14.688149715552013"><ele>347.0</ele><time>2026-05-04T10:09:40Z</time></trkpt><trkpt lat="37.61810893636902" lon="14.688054838548483"><ele>344.0</ele><time>2026-05-04T10:09:41Z</time></trkpt><trkpt lat="37.61803179013789" lon="14.687952373104423"><ele>344.0</ele><time>2026-05-04T10:09:42Z</time></trkpt><trkpt lat="37.617946984139266" lon="14.687852194737339"><ele>344.0</ele><time>2026-05-04T10:09:43Z</time></trkpt><trkpt lat="37.61785830309658" lon="14.687748742968445"><ele>344.0</ele><time>2026-05-04T10:09:44Z</time></trkpt><trkpt lat="37.61776698217081" lon="14.687639175282628"><ele>344.0</ele><time>2026-05-04T10:09:45.001Z</time></trkpt><trkpt lat="37.61767734963994" lon="14.687525797266076"><ele>345.0</ele><time>2026-05-04T10:09:46.001Z</time></trkpt><trkpt lat="37.61759335977734" lon="14.687436695811368"><ele>346.0</ele><time>2026-05-04T10:09:46.999Z</time></trkpt><trkpt lat="37.61753023217146" lon="14.687346645742133"><ele>347.0</ele><time>2026-05-04T10:09:47.999Z</time></trkpt><trkpt lat="37.61745900223768" lon="14.687250923949497"><ele>348.0</ele><time>2026-05-04T10:09:48.999Z</time></trkpt><trkpt lat="37.61740558364654" lon="14.687142811864733"><ele>349.0</ele><time>2026-05-04T10:09:49.999Z</time></trkpt><trkpt lat="37.617325029688296" lon="14.687053866231077"><ele>349.0</ele><time>2026-05-04T10:09:50.999Z</time></trkpt><trkpt lat="37.617267634735434" lon="14.68692825027582"><ele>349.0</ele><time>2026-05-04T10:09:51.999Z</time></trkpt><trkpt lat="37.61720072056376" lon="14.686817217667691"><ele>349.0</ele><time>2026-05-04T10:09:52.999Z</time></trkpt><trkpt lat="37.617141028382065" lon="14.686717045553873"><ele>349.0</ele><time>2026-05-04T10:09:53.999Z</time></trkpt><trkpt lat="37.61709385806161" lon="14.686637887057618"><ele>349.0</ele><time>2026-05-04T10:09:54.999Z</time></trkpt><trkpt lat="37.617039683913895" lon="14.686572066627189"><ele>348.79999999999995</ele><time>2026-05-04T10:09:56Z</time></trkpt><trkpt lat="37.616991576814435" lon="14.686470147023343"><ele>348.59999999999997</ele><time>2026-05-04T10:09:57Z</time></trkpt><trkpt lat="37.61695143228177" lon="14.686351800354537"><ele>348.4</ele><time>2026-05-04T10:09:58Z</time></trkpt><trkpt lat="37.61692484730735" lon="14.686224633681086"><ele>348.2</ele><time>2026-05-04T10:09:59Z</time></trkpt><trkpt lat="37.61690874609885" lon="14.686085057376493"><ele>348.0</ele><time>2026-05-04T10:10:00Z</time></trkpt><trkpt lat="37.6168971119515" lon="14.685931099856205"><ele>346.4</ele><time>2026-05-04T10:10:01Z</time></trkpt><trkpt lat="37.61687389137018" lon="14.68578591212106"><ele>344.79999999999995</ele><time>2026-05-04T10:10:02Z</time></trkpt><trkpt lat="37.61683793826143" lon="14.685659962308955"><ele>343.2</ele><time>2026-05-04T10:10:03Z</time></trkpt><trkpt lat="37.616799906145516" lon="14.685542851139882"><ele>341.6</ele><time>2026-05-04T10:10:04Z</time></trkpt><trkpt lat="37.61676655782561" lon="14.685436367069823"><ele>340.0</ele><time>2026-05-04T10:10:05Z</time></trkpt><trkpt lat="37.616744356159046" lon="14.685336703782392"><ele>338.2</ele><time>2026-05-04T10:10:06Z</time></trkpt><trkpt lat="37.61673301581157" lon="14.685239079803221"><ele>336.4</ele><time>2026-05-04T10:10:07Z</time></trkpt><trkpt lat="37.6167245668127" lon="14.685126306002967"><ele>334.6</ele><time>2026-05-04T10:10:08Z</time></trkpt><trkpt lat="37.61672226982448" lon="14.685005302817618"><ele>332.8</ele><time>2026-05-04T10:10:09Z</time></trkpt><trkpt lat="37.616711570195804" lon="14.684878340261585"><ele>331.0</ele><time>2026-05-04T10:10:10Z</time></trkpt><trkpt lat="37.6166773855909" lon="14.684767139856175"><ele>331.0</ele><time>2026-05-04T10:10:11Z</time></trkpt><trkpt lat="37.616626429886225" lon="14.684640579063618"><ele>331.0</ele><time>2026-05-04T10:10:12Z</time></trkpt><trkpt lat="37.61659865804124" lon="14.68449528309219"><ele>331.0</ele><time>2026-05-04T10:10:13Z</time></trkpt><trkpt lat="37.61654683504319" lon="14.684348259633556"><ele>331.0</ele><time>2026-05-04T10:10:14Z</time></trkpt><trkpt lat="37.6165059517758" lon="14.684192090917032"><ele>328.5</ele><time>2026-05-04T10:10:15Z</time></trkpt><trkpt lat="37.61646768401352" lon="14.684038031753897"><ele>326.0</ele><time>2026-05-04T10:10:16Z</time></trkpt><trkpt lat="37.616429315022046" lon="14.683872637033772"><ele>323.5</ele><time>2026-05-04T10:10:17Z</time></trkpt><trkpt lat="37.616391303246765" lon="14.683702721393903"><ele>321.0</ele><time>2026-05-04T10:10:18Z</time></trkpt><trkpt lat="37.61636095854751" lon="14.683537543948834"><ele>319.75</ele><time>2026-05-04T10:10:19Z</time></trkpt><trkpt lat="37.61634075728496" lon="14.683377431009529"><ele>318.5</ele><time>2026-05-04T10:10:20Z</time></trkpt><trkpt lat="37.61632765563828" lon="14.683214657900429"><ele>317.25</ele><time>2026-05-04T10:10:21Z</time></trkpt><trkpt lat="37.61633002547779" lon="14.683055966800753"><ele>316.0</ele><time>2026-05-04T10:10:22Z</time></trkpt><trkpt lat="37.61632641940308" lon="14.682906194313222"><ele>316.0</ele><time>2026-05-04T10:10:23Z</time></trkpt><trkpt lat="37.61631353349041" lon="14.682766602147526"><ele>316.0</ele><time>2026-05-04T10:10:24Z</time></trkpt><trkpt lat="37.616292023295564" lon="14.682633118242729"><ele>316.0</ele><time>2026-05-04T10:10:25Z</time></trkpt><trkpt lat="37.616271390880655" lon="14.682521846698794"><ele>316.0</ele><time>2026-05-04T10:10:26Z</time></trkpt><trkpt lat="37.616251714241336" lon="14.682422472557095"><ele>316.0</ele><time>2026-05-04T10:10:27Z</time></trkpt><trkpt lat="37.6162266446434" lon="14.682329726254167"><ele>315.3333333333333</ele><time>2026-05-04T10:10:28Z</time></trkpt><trkpt lat="37.616204967234204" lon="14.682232876089499"><ele>314.66666666666663</ele><time>2026-05-04T10:10:29Z</time></trkpt><trkpt lat="37.61618632886623" lon="14.682146759832802"><ele>314.0</ele><time>2026-05-04T10:10:30Z</time></trkpt><trkpt lat="37.616156356242776" lon="14.681999277394253"><ele>313.3333333333333</ele><time>2026-05-04T10:10:32Z</time></trkpt><trkpt lat="37.61614125610219" lon="14.681915734415421"><ele>312.6666666666667</ele><time>2026-05-04T10:10:33Z</time></trkpt><trkpt lat="37.616120262432474" lon="14.681824869453976"><ele>312.0</ele><time>2026-05-04T10:10:34Z</time></trkpt><trkpt lat="37.61609483213588" lon="14.681727906886033"><ele>310.0</ele><time>2026-05-04T10:10:35Z</time></trkpt><trkpt lat="37.61607198069476" lon="14.681633764510073"><ele>308.0</ele><time>2026-05-04T10:10:36Z</time></trkpt><trkpt lat="37.6160488838472" lon="14.681558193289716"><ele>306.0</ele><time>2026-05-04T10:10:37Z</time></trkpt><trkpt lat="37.61601347498364" lon="14.681409178568641"><ele>304.0</ele><time>2026-05-04T10:10:39Z</time></trkpt><trkpt lat="37.61599997813167" lon="14.681322991248868"><ele>302.0</ele><time>2026-05-04T10:10:40Z</time></trkpt><trkpt lat="37.615999777089286" lon="14.681238262224209"><ele>300.0</ele><time>2026-05-04T10:10:41Z</time></trkpt><trkpt lat="37.61599804712406" lon="14.681152256591227"><ele>298.6</ele><time>2026-05-04T10:10:42Z</time></trkpt><trkpt lat="37.61598864672026" lon="14.681068541478242"><ele>297.2</ele><time>2026-05-04T10:10:43Z</time></trkpt><trkpt lat="37.61596787197898" lon="14.680987113366081"><ele>295.8</ele><time>2026-05-04T10:10:44Z</time></trkpt><trkpt lat="37.61589781492039" lon="14.68085730323367"><ele>294.4</ele><time>2026-05-04T10:10:46Z</time></trkpt><trkpt lat="37.61580941743502" lon="14.680752479510028"><ele>293.0</ele><time>2026-05-04T10:10:48Z</time></trkpt><trkpt lat="37.61572906507513" lon="14.680641662461465"><ele>293.0</ele><time>2026-05-04T10:10:50Z</time></trkpt><trkpt lat="37.61567577312136" lon="14.680597980044167"><ele>293.0</ele><time>2026-05-04T10:10:51Z</time></trkpt><trkpt lat="37.61558110724075" lon="14.680508577155722"><ele>293.0</ele><time>2026-05-04T10:10:53Z</time></trkpt><trkpt lat="37.615531134620106" lon="14.680421773137022"><ele>293.0</ele><time>2026-05-04T10:10:55Z</time></trkpt><trkpt lat="37.61547524897028" lon="14.680309820331042"><ele>293.0</ele><time>2026-05-04T10:10:57Z</time></trkpt><trkpt lat="37.61544239579538" lon="14.680236167390886"><ele>293.0</ele><time>2026-05-04T10:10:58Z</time></trkpt><trkpt lat="37.61540749481184" lon="14.680162138049106"><ele>292.33333333333337</ele><time>2026-05-04T10:10:59Z</time></trkpt><trkpt lat="37.61534273394442" lon="14.680064925401403"><ele>291.6666666666667</ele><time>2026-05-04T10:11:01Z</time></trkpt><trkpt lat="37.61527883960773" lon="14.679996000610469"><ele>291.0</ele><time>2026-05-04T10:11:15Z</time></trkpt><trkpt lat="37.615250437095824" lon="14.679920310642212"><ele>290.3333333333333</ele><time>2026-05-04T10:11:16Z</time></trkpt><trkpt lat="37.61520491587645" lon="14.679845769815397"><ele>289.66666666666663</ele><time>2026-05-04T10:11:17Z</time></trkpt><trkpt lat="37.61515815408438" lon="14.679768933544379"><ele>289.0</ele><time>2026-05-04T10:11:18Z</time></trkpt><trkpt lat="37.61510596253766" lon="14.679710699839008"><ele>289.0</ele><time>2026-05-04T10:11:19Z</time></trkpt><trkpt lat="37.615058857530855" lon="14.679629359493365"><ele>289.0</ele><time>2026-05-04T10:11:20Z</time></trkpt><trkpt lat="37.61500403880632" lon="14.67953974772769"><ele>289.0</ele><time>2026-05-04T10:11:21Z</time></trkpt><trkpt lat="37.6149563506531" lon="14.679454840913872"><ele>289.0</ele><time>2026-05-04T10:11:22Z</time></trkpt><trkpt lat="37.61491524693032" lon="14.6793660994889"><ele>289.0</ele><time>2026-05-04T10:11:23.001Z</time></trkpt><trkpt lat="37.614889837339774" lon="14.679269981476683"><ele>289.0</ele><time>2026-05-04T10:11:24.001Z</time></trkpt><trkpt lat="37.61484350225732" lon="14.679190440535793"><ele>287.8333333333333</ele><time>2026-05-04T10:11:25.001Z</time></trkpt><trkpt lat="37.61479385510838" lon="14.679140420212304"><ele>286.66666666666663</ele><time>2026-05-04T10:11:26.001Z</time></trkpt><trkpt lat="37.61473994885195" lon="14.679066992884797"><ele>285.5</ele><time>2026-05-04T10:11:27.001Z</time></trkpt><trkpt lat="37.614675547806705" lon="14.678988455827705"><ele>284.3333333333333</ele><time>2026-05-04T10:11:28.001Z</time></trkpt><trkpt lat="37.61461560750821" lon="14.678913281633406"><ele>283.1666666666667</ele><time>2026-05-04T10:11:29.001Z</time></trkpt><trkpt lat="37.61456801038265" lon="14.678849731949564"><ele>282.0</ele><time>2026-05-04T10:11:30.001Z</time></trkpt><trkpt lat="37.61447785221075" lon="14.678785474535928"><ele>282.0</ele><time>2026-05-04T10:11:32.001Z</time></trkpt><trkpt lat="37.61442244218898" lon="14.67873298462038"><ele>282.0</ele><time>2026-05-04T10:11:34.001Z</time></trkpt><trkpt lat="37.61436681159434" lon="14.678690885553069"><ele>282.0</ele><time>2026-05-04T10:11:36.001Z</time></trkpt><trkpt lat="37.614313481284746" lon="14.678632642911309"><ele>282.0</ele><time>2026-05-04T10:11:38.001Z</time></trkpt><trkpt lat="37.61426524177683" lon="14.678554061280883"><ele>282.0</ele><time>2026-05-04T10:11:40.001Z</time></trkpt><trkpt lat="37.614205228558816" lon="14.678444041410708"><ele>282.0</ele><time>2026-05-04T10:11:42.001Z</time></trkpt><trkpt lat="37.614156840691216" lon="14.678366633232201"><ele>280.8333333333333</ele><time>2026-05-04T10:11:44.001Z</time></trkpt><trkpt lat="37.614102372174784" lon="14.678289577829053"><ele>279.6666666666667</ele><time>2026-05-04T10:11:46.001Z</time></trkpt><trkpt lat="37.614025951160826" lon="14.67819284377565"><ele>278.5</ele><time>2026-05-04T10:11:48.001Z</time></trkpt><trkpt lat="37.61394974774508" lon="14.678105581999235"><ele>277.33333333333337</ele><time>2026-05-04T10:11:50.001Z</time></trkpt><trkpt lat="37.6138956006404" lon="14.678055363293913"><ele>276.1666666666667</ele><time>2026-05-04T10:11:52.001Z</time></trkpt><trkpt lat="37.61382655440059" lon="14.67800523958613"><ele>275.0</ele><time>2026-05-04T10:11:54Z</time></trkpt><trkpt lat="37.61374736661246" lon="14.67796974744432"><ele>275.0</ele><time>2026-05-04T10:11:56Z</time></trkpt><trkpt lat="37.613661592740755" lon="14.677927631333574"><ele>275.0</ele><time>2026-05-04T10:11:58Z</time></trkpt><trkpt lat="37.613575416291724" lon="14.677883832432526"><ele>275.0</ele><time>2026-05-04T10:12:00Z</time></trkpt><trkpt lat="37.61349599613277" lon="14.677844918039666"><ele>275.0</ele><time>2026-05-04T10:12:02Z</time></trkpt><trkpt lat="37.61341328409584" lon="14.677804937321834"><ele>275.0</ele><time>2026-05-04T10:12:04Z</time></trkpt><trkpt lat="37.613339324547375" lon="14.67776918732494"><ele>275.0</ele><time>2026-05-04T10:12:06Z</time></trkpt><trkpt lat="37.6132698636224" lon="14.677741839527233"><ele>273.33333333333337</ele><time>2026-05-04T10:12:09Z</time></trkpt><trkpt lat="37.61320486441046" lon="14.677736156920405"><ele>271.6666666666667</ele><time>2026-05-04T10:12:11Z</time></trkpt><trkpt lat="37.61313063217232" lon="14.677688194302423"><ele>270.0</ele><time>2026-05-04T10:12:13Z</time></trkpt><trkpt lat="37.61307724949093" lon="14.677631312079807"><ele>268.3333333333333</ele><time>2026-05-04T10:12:15Z</time></trkpt><trkpt lat="37.6130015519565" lon="14.677547392353"><ele>266.66666666666663</ele><time>2026-05-04T10:12:17Z</time></trkpt><trkpt lat="37.61294121799731" lon="14.6774666080111"><ele>265.0</ele><time>2026-05-04T10:12:19Z</time></trkpt><trkpt lat="37.612890657425524" lon="14.677384004732815"><ele>265.0</ele><time>2026-05-04T10:12:21Z</time></trkpt><trkpt lat="37.61283769989963" lon="14.677321326769528"><ele>265.0</ele><time>2026-05-04T10:12:22Z</time></trkpt><trkpt lat="37.6127777677836" lon="14.677253595205991"><ele>265.0</ele><time>2026-05-04T10:12:23Z</time></trkpt><trkpt lat="37.61269204004822" lon="14.677174511229195"><ele>265.0</ele><time>2026-05-04T10:12:25Z</time></trkpt><trkpt lat="37.61261244272666" lon="14.677111638629635"><ele>265.0</ele><time>2026-05-04T10:12:27Z</time></trkpt><trkpt lat="37.61250755538191" lon="14.677090158853053"><ele>264.4</ele><time>2026-05-04T10:12:29Z</time></trkpt><trkpt lat="37.61240541450025" lon="14.677034275219043"><ele>263.8</ele><time>2026-05-04T10:12:31Z</time></trkpt><trkpt lat="37.61229948254856" lon="14.677012069663004"><ele>263.2</ele><time>2026-05-04T10:12:33Z</time></trkpt><trkpt lat="37.612216421078315" lon="14.676938535168564"><ele>262.6</ele><time>2026-05-04T10:12:35Z</time></trkpt><trkpt lat="37.61215230059405" lon="14.676907722928116"><ele>262.0</ele><time>2026-05-04T10:12:36Z</time></trkpt><trkpt lat="37.61205472365625" lon="14.67687604101102"><ele>264.0</ele><time>2026-05-04T10:12:38Z</time></trkpt><trkpt lat="37.611952786701984" lon="14.676848543676646"><ele>266.0</ele><time>2026-05-04T10:12:40Z</time></trkpt><trkpt lat="37.611876626883415" lon="14.67681378650103"><ele>268.0</ele><time>2026-05-04T10:12:42Z</time></trkpt><trkpt lat="37.61182140341237" lon="14.676699794406167"><ele>270.0</ele><time>2026-05-04T10:12:44Z</time></trkpt><trkpt lat="37.61181369931675" lon="14.676575108636063"><ele>272.0</ele><time>2026-05-04T10:12:46Z</time></trkpt><trkpt lat="37.61183253634105" lon="14.676457733753615"><ele>272.0</ele><time>2026-05-04T10:12:49Z</time></trkpt><trkpt lat="37.61182913830896" lon="14.676320794415298"><ele>272.0</ele><time>2026-05-04T10:12:51Z</time></trkpt><trkpt lat="37.611810463278324" lon="14.676178590474715"><ele>272.0</ele><time>2026-05-04T10:12:53Z</time></trkpt><trkpt lat="37.611782760782184" lon="14.676068099032479"><ele>272.0</ele><time>2026-05-04T10:12:55Z</time></trkpt><trkpt lat="37.61180333243913" lon="14.67594025356342"><ele>272.0</ele><time>2026-05-04T10:12:57Z</time></trkpt><trkpt lat="37.61184338311209" lon="14.675812480290759"><ele>272.4</ele><time>2026-05-04T10:12:59Z</time></trkpt><trkpt lat="37.6118664376892" lon="14.67569457493852"><ele>272.79999999999995</ele><time>2026-05-04T10:13:01Z</time></trkpt><trkpt lat="37.611874167695454" lon="14.675573781514727"><ele>273.2</ele><time>2026-05-04T10:13:03Z</time></trkpt><trkpt lat="37.611899854711375" lon="14.675421144535534"><ele>273.59999999999997</ele><time>2026-05-04T10:13:05Z</time></trkpt><trkpt lat="37.61191766689746" lon="14.675275009112019"><ele>274.0</ele><time>2026-05-04T10:13:07Z</time></trkpt><trkpt lat="37.61193315615325" lon="14.675140177945295"><ele>274.0</ele><time>2026-05-04T10:13:09Z</time></trkpt><trkpt lat="37.61193614634132" lon="14.67499924356202"><ele>274.0</ele><time>2026-05-04T10:13:11Z</time></trkpt><trkpt lat="37.6119376563599" lon="14.674917247469496"><ele>274.0</ele><time>2026-05-04T10:13:12Z</time></trkpt><trkpt lat="37.61193061401662" lon="14.674782369270652"><ele>274.0</ele><time>2026-05-04T10:13:14Z</time></trkpt><trkpt lat="37.61187253522325" lon="14.674659065142604"><ele>274.0</ele><time>2026-05-04T10:13:16Z</time></trkpt><trkpt lat="37.61179801169275" lon="14.674574439606133"><ele>274.0</ele><time>2026-05-04T10:13:18.001Z</time></trkpt><trkpt lat="37.61171615798127" lon="14.674541137670412"><ele>274.0</ele><time>2026-05-04T10:13:20.001Z</time></trkpt><trkpt lat="37.61159109596406" lon="14.674529475961746"><ele>274.0</ele><time>2026-05-04T10:13:22.001Z</time></trkpt><trkpt lat="37.611525157769165" lon="14.674526547569524"><ele>274.0</ele><time>2026-05-04T10:13:23.001Z</time></trkpt><trkpt lat="37.61143616808855" lon="14.674526547571034"><ele>274.0</ele><time>2026-05-04T10:13:25.001Z</time></trkpt><trkpt lat="37.61133504166258" lon="14.674508453138406"><ele>274.0</ele><time>2026-05-04T10:13:27.001Z</time></trkpt><trkpt lat="37.6112327121247" lon="14.67447861937889"><ele>274.0</ele><time>2026-05-04T10:13:29.001Z</time></trkpt><trkpt lat="37.611149770257484" lon="14.674445988215249"><ele>274.0</ele><time>2026-05-04T10:13:31.001Z</time></trkpt><trkpt lat="37.61106509485229" lon="14.67440024159688"><ele>274.0</ele><time>2026-05-04T10:13:33.001Z</time></trkpt><trkpt lat="37.61098253043358" lon="14.674333255368657"><ele>274.0</ele><time>2026-05-04T10:13:35.001Z</time></trkpt><trkpt lat="37.61090301337023" lon="14.674259841739453"><ele>276.2</ele><time>2026-05-04T10:13:37.001Z</time></trkpt><trkpt lat="37.610828188988904" lon="14.674194052126605"><ele>278.4</ele><time>2026-05-04T10:13:39.001Z</time></trkpt><trkpt lat="37.610746687546516" lon="14.67413502615482"><ele>280.6</ele><time>2026-05-04T10:13:41.001Z</time></trkpt><trkpt lat="37.61067467031808" lon="14.674090608277773"><ele>282.8</ele><time>2026-05-04T10:13:43.001Z</time></trkpt><trkpt lat="37.610588651260535" lon="14.674038574270424"><ele>285.0</ele><time>2026-05-04T10:13:45.001Z</time></trkpt><trkpt lat="37.610481899125766" lon="14.674001290123245"><ele>285.0</ele><time>2026-05-04T10:13:47.001Z</time></trkpt><trkpt lat="37.610381311768116" lon="14.673932296435805"><ele>285.0</ele><time>2026-05-04T10:13:49.001Z</time></trkpt><trkpt lat="37.61028740894045" lon="14.673902606358746"><ele>285.0</ele><time>2026-05-04T10:13:51.001Z</time></trkpt><trkpt lat="37.61022169065223" lon="14.67384233536804"><ele>285.0</ele><time>2026-05-04T10:13:53.001Z</time></trkpt><trkpt lat="37.61013070377154" lon="14.673791520087976"><ele>285.0</ele><time>2026-05-04T10:14:23Z</time></trkpt><trkpt lat="37.61007120691083" lon="14.67370633103105"><ele>285.5</ele><time>2026-05-04T10:14:25Z</time></trkpt><trkpt lat="37.60999275056609" lon="14.673616574222"><ele>286.0</ele><time>2026-05-04T10:14:27Z</time></trkpt><trkpt lat="37.60991753399808" lon="14.673591293844705"><ele>286.5</ele><time>2026-05-04T10:14:29Z</time></trkpt><trkpt lat="37.60984960231109" lon="14.67355506412694"><ele>287.0</ele><time>2026-05-04T10:14:31Z</time></trkpt><trkpt lat="37.609784870538455" lon="14.673501091138599"><ele>287.5</ele><time>2026-05-04T10:14:34Z</time></trkpt><trkpt lat="37.60977726312358" lon="14.673404220741673"><ele>288.0</ele><time>2026-05-04T10:14:37Z</time></trkpt><trkpt lat="37.60980206500044" lon="14.673316564539682"><ele>288.0</ele><time>2026-05-04T10:14:40Z</time></trkpt><trkpt lat="37.6098436000691" lon="14.673199189742144"><ele>288.0</ele><time>2026-05-04T10:14:43Z</time></trkpt><trkpt lat="37.60987440163931" lon="14.673111415632906"><ele>288.0</ele><time>2026-05-04T10:14:45Z</time></trkpt><trkpt lat="37.609907288458174" lon="14.673024141973677"><ele>288.0</ele><time>2026-05-04T10:14:47Z</time></trkpt><trkpt lat="37.60993798116222" lon="14.672941854289284"><ele>288.0</ele><time>2026-05-04T10:14:49Z</time></trkpt><trkpt lat="37.60996886974763" lon="14.672863060938765"><ele>288.0</ele><time>2026-05-04T10:14:51Z</time></trkpt><trkpt lat="37.61000096241557" lon="14.672740453558237"><ele>287.0</ele><time>2026-05-04T10:14:53Z</time></trkpt><trkpt lat="37.61003931347127" lon="14.672669131867762"><ele>286.0</ele><time>2026-05-04T10:14:55Z</time></trkpt><trkpt lat="37.6100631847557" lon="14.672583573497777"><ele>285.0</ele><time>2026-05-04T10:14:57Z</time></trkpt><trkpt lat="37.61007417065917" lon="14.672494009491823"><ele>284.0</ele><time>2026-05-04T10:14:59Z</time></trkpt><trkpt lat="37.6100994300336" lon="14.672407957027904"><ele>283.0</ele><time>2026-05-04T10:15:01Z</time></trkpt><trkpt lat="37.61010464188317" lon="14.672302666769747"><ele>282.0</ele><time>2026-05-04T10:15:03Z</time></trkpt><trkpt lat="37.61009732930631" lon="14.672197707860056"><ele>282.0</ele><time>2026-05-04T10:15:05Z</time></trkpt><trkpt lat="37.61011673205959" lon="14.672107810665329"><ele>282.0</ele><time>2026-05-04T10:15:09Z</time></trkpt><trkpt lat="37.61025491251042" lon="14.672020837957843"><ele>282.0</ele><time>2026-05-04T10:15:12Z</time></trkpt><trkpt lat="37.61035401866522" lon="14.672004987110382"><ele>282.0</ele><time>2026-05-04T10:15:13Z</time></trkpt><trkpt lat="37.610456809727815" lon="14.671975538192921"><ele>282.0</ele><time>2026-05-04T10:15:14Z</time></trkpt><trkpt lat="37.61053744850416" lon="14.671933100507033"><ele>281.5</ele><time>2026-05-04T10:15:15.001Z</time></trkpt><trkpt lat="37.61060411486209" lon="14.671906473829289"><ele>281.0</ele><time>2026-05-04T10:15:17.001Z</time></trkpt><trkpt lat="37.61055236154341" lon="14.671684109984673"><ele>280.5</ele><time>2026-05-04T10:15:18.001Z</time></trkpt><trkpt lat="37.61052329069812" lon="14.671538510332077"><ele>280.0</ele><time>2026-05-04T10:15:19.001Z</time></trkpt><trkpt lat="37.61048745490472" lon="14.671359028839799"><ele>280.0</ele><time>2026-05-04T10:15:20.001Z</time></trkpt><trkpt lat="37.61044911781143" lon="14.671167019705408"><ele>280.0</ele><time>2026-05-04T10:15:21.001Z</time></trkpt><trkpt lat="37.610411702164214" lon="14.670976639403884"><ele>280.0</ele><time>2026-05-04T10:15:22.001Z</time></trkpt><trkpt lat="37.610361840445634" lon="14.670789770854885"><ele>277.3333333333333</ele><time>2026-05-04T10:15:23.001Z</time></trkpt><trkpt lat="37.610325845782164" lon="14.670570134128628"><ele>274.6666666666667</ele><time>2026-05-04T10:15:24.001Z</time></trkpt><trkpt lat="37.6102758381215" lon="14.67034074958604"><ele>272.0</ele><time>2026-05-04T10:15:25.001Z</time></trkpt><trkpt lat="37.61022632337067" lon="14.670094121199753"><ele>269.0</ele><time>2026-05-04T10:15:26.001Z</time></trkpt><trkpt lat="37.61017270275336" lon="14.66983697444241"><ele>266.0</ele><time>2026-05-04T10:15:27.001Z</time></trkpt><trkpt lat="37.61011886537017" lon="14.669566972183683"><ele>263.0</ele><time>2026-05-04T10:15:28.001Z</time></trkpt><trkpt lat="37.610060383560615" lon="14.669290886536245"><ele>263.0</ele><time>2026-05-04T10:15:29.001Z</time></trkpt><trkpt lat="37.61002183255312" lon="14.669015114002576"><ele>263.0</ele><time>2026-05-04T10:15:30.001Z</time></trkpt><trkpt lat="37.60995932081067" lon="14.668762187500377"><ele>263.0</ele><time>2026-05-04T10:15:31.001Z</time></trkpt><trkpt lat="37.60991696557466" lon="14.668513082751186"><ele>263.0</ele><time>2026-05-04T10:15:32.001Z</time></trkpt><trkpt lat="37.609880240282884" lon="14.668265096876926"><ele>263.0</ele><time>2026-05-04T10:15:33.001Z</time></trkpt><trkpt lat="37.609828708580686" lon="14.6680379953721"><ele>263.0</ele><time>2026-05-04T10:15:34.001Z</time></trkpt><trkpt lat="37.60978960172716" lon="14.667820455882302"><ele>262.33333333333337</ele><time>2026-05-04T10:15:35.001Z</time></trkpt><trkpt lat="37.609752153570525" lon="14.667603137632417"><ele>261.6666666666667</ele><time>2026-05-04T10:15:36.001Z</time></trkpt><trkpt lat="37.60971454511769" lon="14.667376673689079"><ele>261.0</ele><time>2026-05-04T10:15:37.001Z</time></trkpt><trkpt lat="37.609670440706545" lon="14.6671398571502"><ele>260.3333333333333</ele><time>2026-05-04T10:15:38.001Z</time></trkpt><trkpt lat="37.6096463676052" lon="14.666899830188447"><ele>259.66666666666663</ele><time>2026-05-04T10:15:39.001Z</time></trkpt><trkpt lat="37.609590415065206" lon="14.66665773394795"><ele>259.0</ele><time>2026-05-04T10:15:40.001Z</time></trkpt><trkpt lat="37.60954989563189" lon="14.666408640924189"><ele>259.0</ele><time>2026-05-04T10:15:41.001Z</time></trkpt><trkpt lat="37.609508755852886" lon="14.666153189577756"><ele>259.0</ele><time>2026-05-04T10:15:42.001Z</time></trkpt><trkpt lat="37.609467090996525" lon="14.665890987319065"><ele>259.0</ele><time>2026-05-04T10:15:43.001Z</time></trkpt><trkpt lat="37.60942571837211" lon="14.66563827550586"><ele>257.0</ele><time>2026-05-04T10:15:44.001Z</time></trkpt><trkpt lat="37.60940116321134" lon="14.665399392057617"><ele>255.0</ele><time>2026-05-04T10:15:45.001Z</time></trkpt><trkpt lat="37.60936452733955" lon="14.66517611544772"><ele>253.0</ele><time>2026-05-04T10:15:46.001Z</time></trkpt><trkpt lat="37.60931295876931" lon="14.664953212325946"><ele>252.0</ele><time>2026-05-04T10:15:47.001Z</time></trkpt><trkpt lat="37.60927460215822" lon="14.66472071097776"><ele>251.0</ele><time>2026-05-04T10:15:48.001Z</time></trkpt><trkpt lat="37.60923943639342" lon="14.664474444199566"><ele>250.0</ele><time>2026-05-04T10:15:49.001Z</time></trkpt><trkpt lat="37.609190176926795" lon="14.664220204637573"><ele>249.66666666666666</ele><time>2026-05-04T10:15:50.001Z</time></trkpt><trkpt lat="37.60914604301769" lon="14.663973057077923"><ele>249.33333333333331</ele><time>2026-05-04T10:15:51.001Z</time></trkpt><trkpt lat="37.609123020170145" lon="14.66374226430543"><ele>249.0</ele><time>2026-05-04T10:15:52.001Z</time></trkpt><trkpt lat="37.60906666253102" lon="14.663504419375862"><ele>249.0</ele><time>2026-05-04T10:15:53.001Z</time></trkpt><trkpt lat="37.60904332860352" lon="14.663251877247129"><ele>249.0</ele><time>2026-05-04T10:15:54.001Z</time></trkpt><trkpt lat="37.60899961339386" lon="14.66300016062015"><ele>249.0</ele><time>2026-05-04T10:15:55.001Z</time></trkpt><trkpt lat="37.60893184461274" lon="14.662738021437585"><ele>248.66666666666669</ele><time>2026-05-04T10:15:56.001Z</time></trkpt><trkpt lat="37.60887635792902" lon="14.66246928698468"><ele>248.33333333333334</ele><time>2026-05-04T10:15:57.001Z</time></trkpt><trkpt lat="37.60883443450233" lon="14.662198366982317"><ele>248.0</ele><time>2026-05-04T10:15:58.001Z</time></trkpt><trkpt lat="37.60877501351769" lon="14.661927652765504"><ele>247.66666666666669</ele><time>2026-05-04T10:15:59.001Z</time></trkpt><trkpt lat="37.60872040571745" lon="14.661680770931566"><ele>247.33333333333331</ele><time>2026-05-04T10:16:00.001Z</time></trkpt><trkpt lat="37.608669895453176" lon="14.661452414059227"><ele>247.0</ele><time>2026-05-04T10:16:01.001Z</time></trkpt><trkpt lat="37.60860818085839" lon="14.661239100076928"><ele>247.33333333333331</ele><time>2026-05-04T10:16:02.001Z</time></trkpt><trkpt lat="37.608563028646095" lon="14.661031239109665"><ele>247.66666666666669</ele><time>2026-05-04T10:16:03.001Z</time></trkpt><trkpt lat="37.60851448706841" lon="14.660815587229047"><ele>248.0</ele><time>2026-05-04T10:16:04Z</time></trkpt><trkpt lat="37.60846750467233" lon="14.660594610521757"><ele>248.0</ele><time>2026-05-04T10:16:05Z</time></trkpt><trkpt lat="37.60842434151337" lon="14.660392097067039"><ele>248.0</ele><time>2026-05-04T10:16:06Z</time></trkpt><trkpt lat="37.608385326599794" lon="14.66020275497327"><ele>248.0</ele><time>2026-05-04T10:16:07Z</time></trkpt><trkpt lat="37.60833604789125" lon="14.660033780283888"><ele>248.5</ele><time>2026-05-04T10:16:08Z</time></trkpt><trkpt lat="37.60825922020973" lon="14.65988726775474"><ele>249.0</ele><time>2026-05-04T10:16:09Z</time></trkpt><trkpt lat="37.60815483750348" lon="14.659764042843586"><ele>249.5</ele><time>2026-05-04T10:16:10Z</time></trkpt><trkpt lat="37.60801676657798" lon="14.659673424139017"><ele>250.0</ele><time>2026-05-04T10:16:11Z</time></trkpt><trkpt lat="37.607864404816105" lon="14.659614010350092"><ele>250.66666666666666</ele><time>2026-05-04T10:16:12Z</time></trkpt><trkpt lat="37.60769815564582" lon="14.659587093037722"><ele>251.33333333333331</ele><time>2026-05-04T10:16:13Z</time></trkpt><trkpt lat="37.60752361377439" lon="14.659590043690198"><ele>252.0</ele><time>2026-05-04T10:16:14Z</time></trkpt><trkpt lat="37.60734121698153" lon="14.659561827598175"><ele>252.0</ele><time>2026-05-04T10:16:15Z</time></trkpt><trkpt lat="37.60714875615512" lon="14.659557315750424"><ele>252.0</ele><time>2026-05-04T10:16:16Z</time></trkpt><trkpt lat="37.606960535871785" lon="14.659550143439814"><ele>252.0</ele><time>2026-05-04T10:16:17Z</time></trkpt><trkpt lat="37.60678115917024" lon="14.659523906877943"><ele>254.0</ele><time>2026-05-04T10:16:18Z</time></trkpt><trkpt lat="37.60661915591457" lon="14.65945961788828"><ele>256.0</ele><time>2026-05-04T10:16:19Z</time></trkpt><trkpt lat="37.60646990604687" lon="14.659355272623387"><ele>258.0</ele><time>2026-05-04T10:16:20Z</time></trkpt><trkpt lat="37.60631414904252" lon="14.659239590749458"><ele>260.0</ele><time>2026-05-04T10:16:21Z</time></trkpt><trkpt lat="37.60616000891768" lon="14.659125109744455"><ele>262.0</ele><time>2026-05-04T10:16:22Z</time></trkpt><trkpt lat="37.60600685735805" lon="14.659012036418808"><ele>264.0</ele><time>2026-05-04T10:16:23Z</time></trkpt><trkpt lat="37.60585919149854" lon="14.658903436382735"><ele>264.0</ele><time>2026-05-04T10:16:24Z</time></trkpt><trkpt lat="37.605720093043246" lon="14.65879017547414"><ele>264.0</ele><time>2026-05-04T10:16:25Z</time></trkpt><trkpt lat="37.60559141743411" lon="14.658655413560934"><ele>264.0</ele><time>2026-05-04T10:16:26Z</time></trkpt><trkpt lat="37.60547467951218" lon="14.658494697607594"><ele>264.3333333333333</ele><time>2026-05-04T10:16:27Z</time></trkpt><trkpt lat="37.60536269539392" lon="14.658318517108734"><ele>264.66666666666663</ele><time>2026-05-04T10:16:28Z</time></trkpt><trkpt lat="37.6052420673091" lon="14.658142185780322"><ele>265.0</ele><time>2026-05-04T10:16:29Z</time></trkpt><trkpt lat="37.60512746470983" lon="14.657977265896815"><ele>265.0</ele><time>2026-05-04T10:16:30Z</time></trkpt><trkpt lat="37.60499837999592" lon="14.657836309308069"><ele>265.0</ele><time>2026-05-04T10:16:31Z</time></trkpt><trkpt lat="37.60487801649031" lon="14.657712616729562"><ele>265.0</ele><time>2026-05-04T10:16:32Z</time></trkpt><trkpt lat="37.604739867496114" lon="14.657611353696831"><ele>266.25</ele><time>2026-05-04T10:16:33Z</time></trkpt><trkpt lat="37.60461455878725" lon="14.65751462528006"><ele>267.5</ele><time>2026-05-04T10:16:34Z</time></trkpt><trkpt lat="37.60450572483049" lon="14.657440064722694"><ele>268.75</ele><time>2026-05-04T10:16:35Z</time></trkpt><trkpt lat="37.6043997111844" lon="14.657367175938603"><ele>270.0</ele><time>2026-05-04T10:16:36Z</time></trkpt><trkpt lat="37.60429107908496" lon="14.657269471760516"><ele>270.0</ele><time>2026-05-04T10:16:37Z</time></trkpt><trkpt lat="37.60417116170002" lon="14.657182092135706"><ele>270.0</ele><time>2026-05-04T10:16:38Z</time></trkpt><trkpt lat="37.60404681730946" lon="14.657091202182789"><ele>270.0</ele><time>2026-05-04T10:16:39Z</time></trkpt><trkpt lat="37.60392210295832" lon="14.656998841150648"><ele>270.0</ele><time>2026-05-04T10:16:40Z</time></trkpt><trkpt lat="37.60380068645703" lon="14.656895457338745"><ele>270.0</ele><time>2026-05-04T10:16:41Z</time></trkpt><trkpt lat="37.60368595692155" lon="14.656777552152658"><ele>270.0</ele><time>2026-05-04T10:16:42Z</time></trkpt><trkpt lat="37.60357822096187" lon="14.656635416551575"><ele>270.0</ele><time>2026-05-04T10:16:43Z</time></trkpt><trkpt lat="37.60347414316161" lon="14.656476728389183"><ele>270.0</ele><time>2026-05-04T10:16:44Z</time></trkpt><trkpt lat="37.6033672871565" lon="14.656304333856358"><ele>270.0</ele><time>2026-05-04T10:16:45Z</time></trkpt><trkpt lat="37.603254437370985" lon="14.656122492748954"><ele>270.0</ele><time>2026-05-04T10:16:46Z</time></trkpt><trkpt lat="37.60313625195348" lon="14.655937626334264"><ele>270.6666666666667</ele><time>2026-05-04T10:16:47Z</time></trkpt><trkpt lat="37.60301480740688" lon="14.655747661953066"><ele>271.33333333333337</ele><time>2026-05-04T10:16:48Z</time></trkpt><trkpt lat="37.602892115775795" lon="14.655549609937081"><ele>272.0</ele><time>2026-05-04T10:16:49Z</time></trkpt><trkpt lat="37.60276618657322" lon="14.655348060025672"><ele>269.6666666666667</ele><time>2026-05-04T10:16:50Z</time></trkpt><trkpt lat="37.60263959101315" lon="14.65514604333884"><ele>267.3333333333333</ele><time>2026-05-04T10:16:51Z</time></trkpt><trkpt lat="37.60250345900382" lon="14.654959709875357"><ele>265.0</ele><time>2026-05-04T10:16:52Z</time></trkpt><trkpt lat="37.60238626612594" lon="14.654770346233759"><ele>265.0</ele><time>2026-05-04T10:16:53Z</time></trkpt><trkpt lat="37.60228688932797" lon="14.654578970498203"><ele>265.0</ele><time>2026-05-04T10:16:54Z</time></trkpt><trkpt lat="37.602193412044876" lon="14.654399707536001"><ele>265.0</ele><time>2026-05-04T10:16:55Z</time></trkpt><trkpt lat="37.60213131456063" lon="14.654204840770248"><ele>264.66666666666663</ele><time>2026-05-04T10:16:56Z</time></trkpt><trkpt lat="37.60208651271921" lon="14.653982768431906"><ele>264.3333333333333</ele><time>2026-05-04T10:16:57Z</time></trkpt><trkpt lat="37.60202681095258" lon="14.65375960335647"><ele>264.0</ele><time>2026-05-04T10:16:58Z</time></trkpt><trkpt lat="37.601983825834225" lon="14.653529401522029"><ele>263.0</ele><time>2026-05-04T10:16:59Z</time></trkpt><trkpt lat="37.60193671228215" lon="14.653291028277321"><ele>262.0</ele><time>2026-05-04T10:17:00Z</time></trkpt><trkpt lat="37.601891498648236" lon="14.653048929382138"><ele>261.0</ele><time>2026-05-04T10:17:01Z</time></trkpt><trkpt lat="37.60184425459729" lon="14.652803602117324"><ele>260.0</ele><time>2026-05-04T10:17:02Z</time></trkpt><trkpt lat="37.601798140137554" lon="14.65255727969215"><ele>259.0</ele><time>2026-05-04T10:17:03Z</time></trkpt><trkpt lat="37.601757212430265" lon="14.65233010006443"><ele>258.0</ele><time>2026-05-04T10:17:04Z</time></trkpt><trkpt lat="37.60171909959899" lon="14.652116144822534"><ele>257.3333333333333</ele><time>2026-05-04T10:17:05Z</time></trkpt><trkpt lat="37.60168018999477" lon="14.651910026981119"><ele>256.66666666666663</ele><time>2026-05-04T10:17:06Z</time></trkpt><trkpt lat="37.60164351271422" lon="14.651701612407946"><ele>256.0</ele><time>2026-05-04T10:17:07Z</time></trkpt><trkpt lat="37.60160344821445" lon="14.65148599883648"><ele>256.0</ele><time>2026-05-04T10:17:08Z</time></trkpt><trkpt lat="37.601555047205494" lon="14.6512753651577"><ele>256.0</ele><time>2026-05-04T10:17:09Z</time></trkpt><trkpt lat="37.60149186453348" lon="14.651066300827331"><ele>256.0</ele><time>2026-05-04T10:17:10Z</time></trkpt><trkpt lat="37.60141915932655" lon="14.650852888111983"><ele>255.0</ele><time>2026-05-04T10:17:11Z</time></trkpt><trkpt lat="37.60134798999347" lon="14.650633454393235"><ele>254.0</ele><time>2026-05-04T10:17:12Z</time></trkpt><trkpt lat="37.60127706600204" lon="14.650410981749724"><ele>253.0</ele><time>2026-05-04T10:17:13Z</time></trkpt><trkpt lat="37.601217297949596" lon="14.650175806547113"><ele>254.0</ele><time>2026-05-04T10:17:14Z</time></trkpt><trkpt lat="37.60114266421671" lon="14.649940809865436"><ele>255.0</ele><time>2026-05-04T10:17:15Z</time></trkpt><trkpt lat="37.60105846406634" lon="14.649707597583294"><ele>256.0</ele><time>2026-05-04T10:17:16Z</time></trkpt><trkpt lat="37.60098155832699" lon="14.649468976605371"><ele>254.66666666666666</ele><time>2026-05-04T10:17:17Z</time></trkpt><trkpt lat="37.600899047877775" lon="14.6492250161009"><ele>253.33333333333331</ele><time>2026-05-04T10:17:18Z</time></trkpt><trkpt lat="37.60083618682343" lon="14.648976021367467"><ele>252.0</ele><time>2026-05-04T10:17:19Z</time></trkpt><trkpt lat="37.600755808281" lon="14.648730662384596"><ele>250.66666666666669</ele><time>2026-05-04T10:17:20Z</time></trkpt><trkpt lat="37.60067789084535" lon="14.64848359153449"><ele>249.33333333333334</ele><time>2026-05-04T10:17:21Z</time></trkpt><trkpt lat="37.60059797256831" lon="14.648236803805608"><ele>248.0</ele><time>2026-05-04T10:17:22Z</time></trkpt><trkpt lat="37.60052227557913" lon="14.647992906654999"><ele>247.66666666666669</ele><time>2026-05-04T10:17:23Z</time></trkpt><trkpt lat="37.6004476517249" lon="14.647762612093826"><ele>247.33333333333331</ele><time>2026-05-04T10:17:24Z</time></trkpt><trkpt lat="37.60037154165409" lon="14.647547179764375"><ele>247.0</ele><time>2026-05-04T10:17:25Z</time></trkpt><trkpt lat="37.60029103098536" lon="14.647330142890844"><ele>246.66666666666666</ele><time>2026-05-04T10:17:26Z</time></trkpt><trkpt lat="37.60020920430733" lon="14.647107823836249"><ele>246.33333333333331</ele><time>2026-05-04T10:17:27Z</time></trkpt><trkpt lat="37.60012346803888" lon="14.646878230878967"><ele>246.0</ele><time>2026-05-04T10:17:28Z</time></trkpt><trkpt lat="37.600037354129825" lon="14.646651173083253"><ele>246.0</ele><time>2026-05-04T10:17:29.001Z</time></trkpt><trkpt lat="37.59995212210836" lon="14.646422742094252"><ele>246.0</ele><time>2026-05-04T10:17:30.001Z</time></trkpt><trkpt lat="37.59986382064959" lon="14.646188555421837"><ele>246.0</ele><time>2026-05-04T10:17:31.001Z</time></trkpt><trkpt lat="37.59977993279603" lon="14.645955166043183"><ele>244.33333333333331</ele><time>2026-05-04T10:17:32.001Z</time></trkpt><trkpt lat="37.599693074139324" lon="14.645728709200664"><ele>242.66666666666666</ele><time>2026-05-04T10:17:33.001Z</time></trkpt><trkpt lat="37.59960761404582" lon="14.645502563720646"><ele>241.0</ele><time>2026-05-04T10:17:34.001Z</time></trkpt><trkpt lat="37.59952875603269" lon="14.645287146846064"><ele>241.33333333333331</ele><time>2026-05-04T10:17:35.001Z</time></trkpt><trkpt lat="37.59945529716341" lon="14.645086194607966"><ele>241.66666666666669</ele><time>2026-05-04T10:17:36.001Z</time></trkpt><trkpt lat="37.59938286240163" lon="14.644890724863302"><ele>242.0</ele><time>2026-05-04T10:17:37.001Z</time></trkpt><trkpt lat="37.599310598346534" lon="14.64469787361231"><ele>242.0</ele><time>2026-05-04T10:17:38.001Z</time></trkpt><trkpt lat="37.599234522286956" lon="14.644495654909804"><ele>242.0</ele><time>2026-05-04T10:17:39.001Z</time></trkpt><trkpt lat="37.59914378842223" lon="14.644307135954008"><ele>242.0</ele><time>2026-05-04T10:17:40.001Z</time></trkpt><trkpt lat="37.599066910536465" lon="14.64410376779011"><ele>241.0</ele><time>2026-05-04T10:17:41.001Z</time></trkpt><trkpt lat="37.59898179904779" lon="14.643906801273097"><ele>240.0</ele><time>2026-05-04T10:17:42.001Z</time></trkpt><trkpt lat="37.598883157749846" lon="14.643716539901636"><ele>239.0</ele><time>2026-05-04T10:17:43.001Z</time></trkpt><trkpt lat="37.59877028478491" lon="14.643529058264518"><ele>239.0</ele><time>2026-05-04T10:17:44.001Z</time></trkpt><trkpt lat="37.598656829464055" lon="14.643339534316901"><ele>239.0</ele><time>2026-05-04T10:17:45.001Z</time></trkpt><trkpt lat="37.59855821334232" lon="14.6431359757902"><ele>239.0</ele><time>2026-05-04T10:17:46.001Z</time></trkpt><trkpt lat="37.59845062627127" lon="14.642949534038614"><ele>237.0</ele><time>2026-05-04T10:17:47.001Z</time></trkpt><trkpt lat="37.59835055432131" lon="14.642779916393135"><ele>235.0</ele><time>2026-05-04T10:17:48.001Z</time></trkpt><trkpt lat="37.59825152431" lon="14.642612064749393"><ele>233.0</ele><time>2026-05-04T10:17:49.001Z</time></trkpt><trkpt lat="37.598156465628435" lon="14.642450944294351"><ele>233.0</ele><time>2026-05-04T10:17:50.001Z</time></trkpt><trkpt lat="37.598080261506766" lon="14.642280449369238"><ele>233.0</ele><time>2026-05-04T10:17:51.001Z</time></trkpt><trkpt lat="37.598003087007406" lon="14.642099706823153"><ele>233.0</ele><time>2026-05-04T10:17:52.001Z</time></trkpt><trkpt lat="37.59796397181445" lon="14.641892985021018"><ele>233.33333333333334</ele><time>2026-05-04T10:17:53.001Z</time></trkpt><trkpt lat="37.59793194307475" lon="14.641679709539194"><ele>233.66666666666669</ele><time>2026-05-04T10:17:54.001Z</time></trkpt><trkpt lat="37.59789188899772" lon="14.641462238393576"><ele>234.0</ele><time>2026-05-04T10:17:55.001Z</time></trkpt><trkpt lat="37.59784444988232" lon="14.641239988397961"><ele>233.33333333333331</ele><time>2026-05-04T10:17:56.001Z</time></trkpt><trkpt lat="37.597807090814655" lon="14.641031325122182"><ele>232.66666666666666</ele><time>2026-05-04T10:17:57.001Z</time></trkpt><trkpt lat="37.59776632899387" lon="14.640827809444968"><ele>232.0</ele><time>2026-05-04T10:17:58.001Z</time></trkpt><trkpt lat="37.597720673889434" lon="14.640639770211516"><ele>232.0</ele><time>2026-05-04T10:17:59.001Z</time></trkpt><trkpt lat="37.59769011012304" lon="14.640433093639158"><ele>232.0</ele><time>2026-05-04T10:18:00.001Z</time></trkpt><trkpt lat="37.59763767601468" lon="14.640235282289263"><ele>232.0</ele><time>2026-05-04T10:18:01.001Z</time></trkpt><trkpt lat="37.59762858434023" lon="14.640039092187386"><ele>232.33333333333331</ele><time>2026-05-04T10:18:02.001Z</time></trkpt><trkpt lat="37.59767673612457" lon="14.639851712218695"><ele>232.66666666666669</ele><time>2026-05-04T10:18:03.001Z</time></trkpt><trkpt lat="37.59772218935657" lon="14.639652977225571"><ele>233.0</ele><time>2026-05-04T10:18:04.001Z</time></trkpt><trkpt lat="37.59775749388174" lon="14.639442492463553"><ele>233.33333333333334</ele><time>2026-05-04T10:18:05.001Z</time></trkpt><trkpt lat="37.59780326816415" lon="14.639220939051105"><ele>233.66666666666669</ele><time>2026-05-04T10:18:06.001Z</time></trkpt><trkpt lat="37.597852270251174" lon="14.638991192346577"><ele>234.0</ele><time>2026-05-04T10:18:07.001Z</time></trkpt><trkpt lat="37.59790505512035" lon="14.638762915089234"><ele>232.33333333333331</ele><time>2026-05-04T10:18:08.001Z</time></trkpt><trkpt lat="37.5979547907953" lon="14.638530129100843"><ele>230.66666666666666</ele><time>2026-05-04T10:18:09.001Z</time></trkpt><trkpt lat="37.598008679794994" lon="14.638297572265326"><ele>229.0</ele><time>2026-05-04T10:18:10Z</time></trkpt><trkpt lat="37.59805597140322" lon="14.638075835776034"><ele>229.0</ele><time>2026-05-04T10:18:11Z</time></trkpt><trkpt lat="37.59810178297144" lon="14.637860970118965"><ele>229.0</ele><time>2026-05-04T10:18:12Z</time></trkpt><trkpt lat="37.598147712776" lon="14.63765254474293"><ele>229.0</ele><time>2026-05-04T10:18:13Z</time></trkpt><trkpt lat="37.598194197133495" lon="14.637446921709516"><ele>227.66666666666666</ele><time>2026-05-04T10:18:14Z</time></trkpt><trkpt lat="37.59823857252756" lon="14.637250088155739"><ele>226.33333333333331</ele><time>2026-05-04T10:18:15Z</time></trkpt><trkpt lat="37.59828120645002" lon="14.637056491836738"><ele>225.0</ele><time>2026-05-04T10:18:16Z</time></trkpt><trkpt lat="37.59832028203375" lon="14.636868568111725"><ele>224.5</ele><time>2026-05-04T10:18:17Z</time></trkpt><trkpt lat="37.59836052729318" lon="14.636688097481228"><ele>224.0</ele><time>2026-05-04T10:18:18Z</time></trkpt><trkpt lat="37.59839191492058" lon="14.63653079624334"><ele>223.5</ele><time>2026-05-04T10:18:19Z</time></trkpt><trkpt lat="37.5984216841561" lon="14.636385096285379"><ele>223.0</ele><time>2026-05-04T10:18:20Z</time></trkpt><trkpt lat="37.59844512093817" lon="14.636248580881636"><ele>222.8</ele><time>2026-05-04T10:18:21Z</time></trkpt><trkpt lat="37.598444936393335" lon="14.636113117606214"><ele>222.60000000000002</ele><time>2026-05-04T10:18:22Z</time></trkpt><trkpt lat="37.598429067805704" lon="14.635965973294287"><ele>222.39999999999998</ele><time>2026-05-04T10:18:23Z</time></trkpt><trkpt lat="37.598413198773265" lon="14.635820541820454"><ele>222.2</ele><time>2026-05-04T10:18:24Z</time></trkpt><trkpt lat="37.59840132674594" lon="14.635695452080403"><ele>222.0</ele><time>2026-05-04T10:18:25Z</time></trkpt><trkpt lat="37.59839056720977" lon="14.635578641199096"><ele>222.0</ele><time>2026-05-04T10:18:26Z</time></trkpt><trkpt lat="37.59838112602829" lon="14.635462778750759"><ele>222.0</ele><time>2026-05-04T10:18:27Z</time></trkpt><trkpt lat="37.59836518343378" lon="14.635333303540131"><ele>222.0</ele><time>2026-05-04T10:18:28Z</time></trkpt><trkpt lat="37.59834455135676" lon="14.635190206536194"><ele>222.0</ele><time>2026-05-04T10:18:29Z</time></trkpt><trkpt lat="37.59832830625301" lon="14.635024078571037"><ele>222.0</ele><time>2026-05-04T10:18:30Z</time></trkpt><trkpt lat="37.598327504962526" lon="14.634845822665236"><ele>221.66666666666669</ele><time>2026-05-04T10:18:31Z</time></trkpt><trkpt lat="37.59831013315644" lon="14.634658534899982"><ele>221.33333333333334</ele><time>2026-05-04T10:18:32Z</time></trkpt><trkpt lat="37.59828138302471" lon="14.63446992148817"><ele>221.0</ele><time>2026-05-04T10:18:33Z</time></trkpt><trkpt lat="37.598264926159814" lon="14.634277860090984"><ele>222.0</ele><time>2026-05-04T10:18:34Z</time></trkpt><trkpt lat="37.59824582987486" lon="14.63408467320683"><ele>223.0</ele><time>2026-05-04T10:18:35Z</time></trkpt><trkpt lat="37.598221620506" lon="14.633895819124438"><ele>224.0</ele><time>2026-05-04T10:18:36Z</time></trkpt><trkpt lat="37.598219505270514" lon="14.633705388863559"><ele>224.75</ele><time>2026-05-04T10:18:37Z</time></trkpt><trkpt lat="37.59820187654129" lon="14.633522859078854"><ele>225.5</ele><time>2026-05-04T10:18:38Z</time></trkpt><trkpt lat="37.59816876272046" lon="14.63334182627391"><ele>226.25</ele><time>2026-05-04T10:18:39Z</time></trkpt><trkpt lat="37.59815401052927" lon="14.633157928168714"><ele>227.0</ele><time>2026-05-04T10:18:40Z</time></trkpt><trkpt lat="37.59813806374557" lon="14.632970706095216"><ele>229.0</ele><time>2026-05-04T10:18:41Z</time></trkpt><trkpt lat="37.598122231003494" lon="14.632781802985146"><ele>231.0</ele><time>2026-05-04T10:18:42Z</time></trkpt><trkpt lat="37.59810487589044" lon="14.632587223357216"><ele>233.0</ele><time>2026-05-04T10:18:43Z</time></trkpt><trkpt lat="37.59808822815398" lon="14.632391247397672"><ele>233.0</ele><time>2026-05-04T10:18:44Z</time></trkpt><trkpt lat="37.598066899310545" lon="14.632192574852985"><ele>233.0</ele><time>2026-05-04T10:18:45Z</time></trkpt><trkpt lat="37.59804780393397" lon="14.631992982392264"><ele>233.0</ele><time>2026-05-04T10:18:46Z</time></trkpt><trkpt lat="37.59802980142932" lon="14.631792949703248"><ele>235.0</ele><time>2026-05-04T10:18:47Z</time></trkpt><trkpt lat="37.59800827815219" lon="14.631589559015513"><ele>237.0</ele><time>2026-05-04T10:18:48Z</time></trkpt><trkpt lat="37.59798569581452" lon="14.631385056906312"><ele>239.0</ele><time>2026-05-04T10:18:49Z</time></trkpt><trkpt lat="37.59797445090559" lon="14.63116847742806"><ele>239.66666666666669</ele><time>2026-05-04T10:18:50Z</time></trkpt><trkpt lat="37.59792108976579" lon="14.630955384616259"><ele>240.33333333333331</ele><time>2026-05-04T10:18:51Z</time></trkpt><trkpt lat="37.59787274353553" lon="14.630730446211652"><ele>241.0</ele><time>2026-05-04T10:18:52Z</time></trkpt><trkpt lat="37.59781622575015" lon="14.630500368437541"><ele>240.0</ele><time>2026-05-04T10:18:53Z</time></trkpt><trkpt lat="37.597762851599356" lon="14.630264699008936"><ele>239.0</ele><time>2026-05-04T10:18:54Z</time></trkpt><trkpt lat="37.597711693276146" lon="14.630020958786362"><ele>238.0</ele><time>2026-05-04T10:18:55Z</time></trkpt><trkpt lat="37.59765905718064" lon="14.629778909995185"><ele>238.0</ele><time>2026-05-04T10:18:56Z</time></trkpt><trkpt lat="37.59760607387446" lon="14.629535793868197"><ele>238.0</ele><time>2026-05-04T10:18:57Z</time></trkpt><trkpt lat="37.59755386654307" lon="14.629302356380332"><ele>238.0</ele><time>2026-05-04T10:18:58Z</time></trkpt><trkpt lat="37.59750363000146" lon="14.629073475699249"><ele>236.66666666666666</ele><time>2026-05-04T10:18:59Z</time></trkpt><trkpt lat="37.59745080640035" lon="14.628840405919668"><ele>235.33333333333331</ele><time>2026-05-04T10:19:00Z</time></trkpt><trkpt lat="37.59739688552573" lon="14.628607113797417"><ele>234.0</ele><time>2026-05-04T10:19:01Z</time></trkpt><trkpt lat="37.59734247987558" lon="14.628367428799677"><ele>232.66666666666669</ele><time>2026-05-04T10:19:02Z</time></trkpt><trkpt lat="37.59728732074507" lon="14.628127613714021"><ele>231.33333333333334</ele><time>2026-05-04T10:19:03Z</time></trkpt><trkpt lat="37.59723793262949" lon="14.627885437148898"><ele>230.0</ele><time>2026-05-04T10:19:04Z</time></trkpt><trkpt lat="37.59718934648918" lon="14.627645458654502"><ele>230.0</ele><time>2026-05-04T10:19:05Z</time></trkpt><trkpt lat="37.59713850642935" lon="14.6274084277786"><ele>230.0</ele><time>2026-05-04T10:19:06Z</time></trkpt><trkpt lat="37.597090815032495" lon="14.627183192917188"><ele>230.0</ele><time>2026-05-04T10:19:07Z</time></trkpt><trkpt lat="37.597039238711226" lon="14.626958286002903"><ele>227.66666666666669</ele><time>2026-05-04T10:19:08Z</time></trkpt><trkpt lat="37.59698569461599" lon="14.626736642217917"><ele>225.33333333333331</ele><time>2026-05-04T10:19:09Z</time></trkpt><trkpt lat="37.5969428097961" lon="14.626532375327788"><ele>223.0</ele><time>2026-05-04T10:19:10Z</time></trkpt><trkpt lat="37.59690049862146" lon="14.626331722849807"><ele>224.0</ele><time>2026-05-04T10:19:11Z</time></trkpt><trkpt lat="37.59685488390148" lon="14.62614434830458"><ele>225.0</ele><time>2026-05-04T10:19:12Z</time></trkpt><trkpt lat="37.59680812752412" lon="14.625952561259892"><ele>226.0</ele><time>2026-05-04T10:19:13Z</time></trkpt><trkpt lat="37.596767879386995" lon="14.625743092731694"><ele>226.0</ele><time>2026-05-04T10:19:14Z</time></trkpt><trkpt lat="37.596721022391876" lon="14.62551407024497"><ele>226.0</ele><time>2026-05-04T10:19:15Z</time></trkpt><trkpt lat="37.59667057899082" lon="14.625276261332635"><ele>226.0</ele><time>2026-05-04T10:19:16Z</time></trkpt><trkpt lat="37.59662053012455" lon="14.62506071227482"><ele>227.66666666666666</ele><time>2026-05-04T10:19:17Z</time></trkpt><trkpt lat="37.596577182132705" lon="14.62486808216232"><ele>229.33333333333331</ele><time>2026-05-04T10:19:18Z</time></trkpt><trkpt lat="37.59653488934844" lon="14.624688322121353"><ele>231.0</ele><time>2026-05-04T10:19:19Z</time></trkpt><trkpt lat="37.59649397424939" lon="14.624509528537178"><ele>231.33333333333331</ele><time>2026-05-04T10:19:20Z</time></trkpt><trkpt lat="37.59645055520845" lon="14.624324486900342"><ele>231.66666666666666</ele><time>2026-05-04T10:19:21Z</time></trkpt><trkpt lat="37.59640719229499" lon="14.624136678435566"><ele>232.0</ele><time>2026-05-04T10:19:22Z</time></trkpt><trkpt lat="37.5963676974276" lon="14.623939924058373"><ele>232.0</ele><time>2026-05-04T10:19:23Z</time></trkpt><trkpt lat="37.59632629423983" lon="14.623747661895592"><ele>232.0</ele><time>2026-05-04T10:19:24Z</time></trkpt><trkpt lat="37.59628116768462" lon="14.623546196496076"><ele>232.0</ele><time>2026-05-04T10:19:25Z</time></trkpt><trkpt lat="37.59623646516631" lon="14.623339892433407"><ele>230.66666666666666</ele><time>2026-05-04T10:19:26Z</time></trkpt><trkpt lat="37.59619157548519" lon="14.623132084060545"><ele>229.33333333333331</ele><time>2026-05-04T10:19:27Z</time></trkpt><trkpt lat="37.59614605513891" lon="14.622926604365297"><ele>228.0</ele><time>2026-05-04T10:19:28Z</time></trkpt><trkpt lat="37.59610092957091" lon="14.622725585507299"><ele>225.66666666666669</ele><time>2026-05-04T10:19:29Z</time></trkpt><trkpt lat="37.5960596876464" lon="14.622531577036588"><ele>223.33333333333334</ele><time>2026-05-04T10:19:30Z</time></trkpt><trkpt lat="37.59601686460336" lon="14.622344552248014"><ele>221.0</ele><time>2026-05-04T10:19:31Z</time></trkpt><trkpt lat="37.59597541508649" lon="14.622167452978298"><ele>219.0</ele><time>2026-05-04T10:19:32.001Z</time></trkpt><trkpt lat="37.595931216845436" lon="14.621980212143692"><ele>217.0</ele><time>2026-05-04T10:19:33.001Z</time></trkpt><trkpt lat="37.59590223502392" lon="14.621783206209637"><ele>215.0</ele><time>2026-05-04T10:19:34.001Z</time></trkpt><trkpt lat="37.5958476729676" lon="14.621599936809567"><ele>215.0</ele><time>2026-05-04T10:19:35.001Z</time></trkpt><trkpt lat="37.595813466728025" lon="14.621427164277542"><ele>215.0</ele><time>2026-05-04T10:19:36.001Z</time></trkpt><trkpt lat="37.59577613029378" lon="14.621260443285806"><ele>215.0</ele><time>2026-05-04T10:19:37.001Z</time></trkpt><trkpt lat="37.59574213887429" lon="14.621110337411055"><ele>215.0</ele><time>2026-05-04T10:19:38.001Z</time></trkpt><trkpt lat="37.59571689555891" lon="14.62097089422199"><ele>215.0</ele><time>2026-05-04T10:19:39.001Z</time></trkpt><trkpt lat="37.59568992230975" lon="14.620835647943945"><ele>215.0</ele><time>2026-05-04T10:19:40.001Z</time></trkpt><trkpt lat="37.595661141716555" lon="14.620700627003044"><ele>215.0</ele><time>2026-05-04T10:19:41.001Z</time></trkpt><trkpt lat="37.59562901360356" lon="14.620542089692233"><ele>215.0</ele><time>2026-05-04T10:19:42.001Z</time></trkpt><trkpt lat="37.59559381202957" lon="14.62037597466574"><ele>215.25</ele><time>2026-05-04T10:19:43.001Z</time></trkpt><trkpt lat="37.59555394248241" lon="14.620207714927764"><ele>215.5</ele><time>2026-05-04T10:19:44.001Z</time></trkpt><trkpt lat="37.59550855619951" lon="14.620029014707308"><ele>215.75</ele><time>2026-05-04T10:19:45.001Z</time></trkpt><trkpt lat="37.59546480727015" lon="14.619848233761893"><ele>216.0</ele><time>2026-05-04T10:19:46.001Z</time></trkpt><trkpt lat="37.59542283437281" lon="14.619659861026065"><ele>216.0</ele><time>2026-05-04T10:19:47.001Z</time></trkpt><trkpt lat="37.595393945117365" lon="14.619472458402386"><ele>216.0</ele><time>2026-05-04T10:19:48.001Z</time></trkpt><trkpt lat="37.595339340706545" lon="14.619307413380167"><ele>216.0</ele><time>2026-05-04T10:19:49.001Z</time></trkpt><trkpt lat="37.59530117143164" lon="14.619119816295026"><ele>216.0</ele><time>2026-05-04T10:19:50.001Z</time></trkpt><trkpt lat="37.595253058383825" lon="14.618920363229575"><ele>216.0</ele><time>2026-05-04T10:19:51.001Z</time></trkpt><trkpt lat="37.59520109417944" lon="14.618717870275802"><ele>216.0</ele><time>2026-05-04T10:19:52.001Z</time></trkpt><trkpt lat="37.595149021670395" lon="14.618512824477001"><ele>216.0</ele><time>2026-05-04T10:19:53.001Z</time></trkpt><trkpt lat="37.59509782971707" lon="14.61831136037035"><ele>217.0</ele><time>2026-05-04T10:19:54.001Z</time></trkpt><trkpt lat="37.595050514972804" lon="14.618113057881596"><ele>218.0</ele><time>2026-05-04T10:19:55.001Z</time></trkpt><trkpt lat="37.59501429252123" lon="14.617916247078687"><ele>219.0</ele><time>2026-05-04T10:19:56.001Z</time></trkpt><trkpt lat="37.59498607044392" lon="14.617728782359283"><ele>219.33333333333331</ele><time>2026-05-04T10:19:57.001Z</time></trkpt><trkpt lat="37.594975725466114" lon="14.617528843281594"><ele>219.66666666666666</ele><time>2026-05-04T10:19:58.001Z</time></trkpt><trkpt lat="37.59497174722917" lon="14.617321024238713"><ele>220.0</ele><time>2026-05-04T10:19:59.001Z</time></trkpt><trkpt lat="37.59496551247374" lon="14.617109304933381"><ele>219.33333333333331</ele><time>2026-05-04T10:20:00.001Z</time></trkpt><trkpt lat="37.59495940967546" lon="14.616892373489925"><ele>218.66666666666669</ele><time>2026-05-04T10:20:01.001Z</time></trkpt><trkpt lat="37.594956963321486" lon="14.616677220439055"><ele>218.0</ele><time>2026-05-04T10:20:02.001Z</time></trkpt><trkpt lat="37.59495787461909" lon="14.616488256971536"><ele>218.0</ele><time>2026-05-04T10:20:03.001Z</time></trkpt><trkpt lat="37.5949524038748" lon="14.616301548657573"><ele>218.0</ele><time>2026-05-04T10:20:04.001Z</time></trkpt><trkpt lat="37.59494728236105" lon="14.616137753125727"><ele>218.0</ele><time>2026-05-04T10:20:05.001Z</time></trkpt><trkpt lat="37.5949489459687" lon="14.616003734343058"><ele>218.0</ele><time>2026-05-04T10:20:06.001Z</time></trkpt><trkpt lat="37.594949595490135" lon="14.615892143861501"><ele>218.0</ele><time>2026-05-04T10:20:07.001Z</time></trkpt><trkpt lat="37.59494066130795" lon="14.615783241498953"><ele>218.0</ele><time>2026-05-04T10:20:08.001Z</time></trkpt><trkpt lat="37.5949315702898" lon="14.615657027895395"><ele>218.0</ele><time>2026-05-04T10:20:09.001Z</time></trkpt><trkpt lat="37.594924709184816" lon="14.615509282952631"><ele>218.0</ele><time>2026-05-04T10:20:10.001Z</time></trkpt><trkpt lat="37.59491922881027" lon="14.615343299155523"><ele>218.0</ele><time>2026-05-04T10:20:11.001Z</time></trkpt><trkpt lat="37.594914116454405" lon="14.615164969413774"><ele>218.0</ele><time>2026-05-04T10:20:12.001Z</time></trkpt><trkpt lat="37.594910293791116" lon="14.614981638796959"><ele>218.0</ele><time>2026-05-04T10:20:13.001Z</time></trkpt><trkpt lat="37.594905103638894" lon="14.614777823775334"><ele>218.0</ele><time>2026-05-04T10:20:14.001Z</time></trkpt><trkpt lat="37.59490199726608" lon="14.614545915064003"><ele>221.0</ele><time>2026-05-04T10:20:15.001Z</time></trkpt><trkpt lat="37.59489251885178" lon="14.614275073023824"><ele>224.0</ele><time>2026-05-04T10:20:16Z</time></trkpt><trkpt lat="37.59488273310847" lon="14.614019929023746"><ele>227.0</ele><time>2026-05-04T10:20:17Z</time></trkpt><trkpt lat="37.594875561000244" lon="14.613810764176787"><ele>228.33333333333334</ele><time>2026-05-04T10:20:18Z</time></trkpt><trkpt lat="37.59487341260992" lon="14.613601654832733"><ele>229.66666666666669</ele><time>2026-05-04T10:20:19Z</time></trkpt><trkpt lat="37.59487603884074" lon="14.613385443924436"><ele>231.0</ele><time>2026-05-04T10:20:20Z</time></trkpt><trkpt lat="37.594880949209774" lon="14.613170575403203"><ele>231.0</ele><time>2026-05-04T10:20:21Z</time></trkpt><trkpt lat="37.59488720855558" lon="14.612946533301882"><ele>231.0</ele><time>2026-05-04T10:20:22Z</time></trkpt><trkpt lat="37.59489280127664" lon="14.612729854857818"><ele>231.0</ele><time>2026-05-04T10:20:23Z</time></trkpt><trkpt lat="37.59489269254444" lon="14.61254436297859"><ele>230.75</ele><time>2026-05-04T10:20:24Z</time></trkpt><trkpt lat="37.59489710464785" lon="14.612378470289446"><ele>230.5</ele><time>2026-05-04T10:20:25Z</time></trkpt><trkpt lat="37.5949067719329" lon="14.61222171029799"><ele>230.25</ele><time>2026-05-04T10:20:26Z</time></trkpt><trkpt lat="37.59491342377996" lon="14.612072058224767"><ele>230.0</ele><time>2026-05-04T10:20:27Z</time></trkpt><trkpt lat="37.59491339420654" lon="14.61191824679283"><ele>230.75</ele><time>2026-05-04T10:20:28Z</time></trkpt><trkpt lat="37.594914595135094" lon="14.611760034530455"><ele>231.5</ele><time>2026-05-04T10:20:29Z</time></trkpt><trkpt lat="37.594918650377195" lon="14.611599181891059"><ele>232.25</ele><time>2026-05-04T10:20:30Z</time></trkpt><trkpt lat="37.594927514849736" lon="14.611433890430568"><ele>233.0</ele><time>2026-05-04T10:20:31Z</time></trkpt><trkpt lat="37.59493899952153" lon="14.611260544385548"><ele>233.75</ele><time>2026-05-04T10:20:32Z</time></trkpt><trkpt lat="37.594942126612224" lon="14.61107740336692"><ele>234.5</ele><time>2026-05-04T10:20:33Z</time></trkpt><trkpt lat="37.59493149377581" lon="14.610892622428858"><ele>235.25</ele><time>2026-05-04T10:20:34Z</time></trkpt><trkpt lat="37.59490448511042" lon="14.610703845216475"><ele>236.0</ele><time>2026-05-04T10:20:35Z</time></trkpt><trkpt lat="37.59485016555559" lon="14.610511810189518"><ele>236.33333333333334</ele><time>2026-05-04T10:20:36Z</time></trkpt><trkpt lat="37.594768717476555" lon="14.610307820445819"><ele>236.66666666666669</ele><time>2026-05-04T10:20:37Z</time></trkpt><trkpt lat="37.594682303782086" lon="14.610100998770893"><ele>237.0</ele><time>2026-05-04T10:20:38Z</time></trkpt><trkpt lat="37.59459308033705" lon="14.609883079860108"><ele>237.0</ele><time>2026-05-04T10:20:39Z</time></trkpt><trkpt lat="37.59450548022158" lon="14.60967520433319"><ele>237.0</ele><time>2026-05-04T10:20:40Z</time></trkpt><trkpt lat="37.594424812502496" lon="14.609481880866989"><ele>237.0</ele><time>2026-05-04T10:20:41Z</time></trkpt><trkpt lat="37.59434876254616" lon="14.609293818693073"><ele>234.66666666666669</ele><time>2026-05-04T10:20:42Z</time></trkpt><trkpt lat="37.59428751251742" lon="14.60909883629848"><ele>232.33333333333334</ele><time>2026-05-04T10:20:43Z</time></trkpt><trkpt lat="37.594207148362216" lon="14.608903889813792"><ele>230.0</ele><time>2026-05-04T10:20:44Z</time></trkpt><trkpt lat="37.59412384216734" lon="14.60870520357769"><ele>230.33333333333334</ele><time>2026-05-04T10:20:45Z</time></trkpt><trkpt lat="37.594051912785176" lon="14.608520636720051"><ele>230.66666666666669</ele><time>2026-05-04T10:20:46Z</time></trkpt><trkpt lat="37.59398390689234" lon="14.608345993302299"><ele>231.0</ele><time>2026-05-04T10:20:47Z</time></trkpt><trkpt lat="37.59391608884015" lon="14.608181029997843"><ele>231.0</ele><time>2026-05-04T10:20:48Z</time></trkpt><trkpt lat="37.59385531742684" lon="14.608036021109218"><ele>231.0</ele><time>2026-05-04T10:20:49Z</time></trkpt><trkpt lat="37.593784078402464" lon="14.60790326884489"><ele>231.0</ele><time>2026-05-04T10:20:50Z</time></trkpt><trkpt lat="37.59372899057481" lon="14.607772982598718"><ele>231.0</ele><time>2026-05-04T10:20:51Z</time></trkpt><trkpt lat="37.59369319048928" lon="14.607641048891"><ele>230.60000000000002</ele><time>2026-05-04T10:20:52Z</time></trkpt><trkpt lat="37.593645301234154" lon="14.607526001755051"><ele>230.20000000000002</ele><time>2026-05-04T10:20:53Z</time></trkpt><trkpt lat="37.593584417872215" lon="14.60743279199488"><ele>229.79999999999998</ele><time>2026-05-04T10:20:54Z</time></trkpt><trkpt lat="37.59354027066785" lon="14.6073375052722"><ele>229.39999999999998</ele><time>2026-05-04T10:20:55Z</time></trkpt><trkpt lat="37.59349937845933" lon="14.607255354589393"><ele>229.0</ele><time>2026-05-04T10:20:56Z</time></trkpt><trkpt lat="37.59347823485113" lon="14.607126674333982"><ele>228.99999999999997</ele><time>2026-05-04T10:20:58Z</time></trkpt><trkpt lat="37.59344210078126" lon="14.607046420521838"><ele>229.0</ele><time>2026-05-04T10:21:00Z</time></trkpt><trkpt lat="37.593406333825186" lon="14.606963330382516"><ele>229.0</ele><time>2026-05-04T10:21:02Z</time></trkpt><trkpt lat="37.59337157338726" lon="14.606880603759386"><ele>229.0</ele><time>2026-05-04T10:21:04Z</time></trkpt><trkpt lat="37.59331702449187" lon="14.606744461759767"><ele>228.99999999999997</ele><time>2026-05-04T10:21:06Z</time></trkpt><trkpt lat="37.59328459243144" lon="14.606654017155165"><ele>229.0</ele><time>2026-05-04T10:21:07Z</time></trkpt><trkpt lat="37.593251988225354" lon="14.606537829564319"><ele>229.25</ele><time>2026-05-04T10:21:08Z</time></trkpt><trkpt lat="37.593218979169734" lon="14.6064066580008"><ele>229.5</ele><time>2026-05-04T10:21:09Z</time></trkpt><trkpt lat="37.59318361327569" lon="14.606256710558776"><ele>229.75</ele><time>2026-05-04T10:21:10Z</time></trkpt><trkpt lat="37.593148077557444" lon="14.606106043129572"><ele>230.0</ele><time>2026-05-04T10:21:11Z</time></trkpt><trkpt lat="37.593113851519284" lon="14.605957449736747"><ele>228.25</ele><time>2026-05-04T10:21:12Z</time></trkpt><trkpt lat="37.59308276390219" lon="14.605806024993685"><ele>226.5</ele><time>2026-05-04T10:21:13Z</time></trkpt><trkpt lat="37.59304879031081" lon="14.605653947254984"><ele>224.75</ele><time>2026-05-04T10:21:14Z</time></trkpt><trkpt lat="37.59300973070252" lon="14.60549587709218"><ele>223.0</ele><time>2026-05-04T10:21:15Z</time></trkpt><trkpt lat="37.59298082504778" lon="14.605380289859424"><ele>222.25</ele><time>2026-05-04T10:21:16Z</time></trkpt><trkpt lat="37.59294960734302" lon="14.60524664452522"><ele>221.5</ele><time>2026-05-04T10:21:17Z</time></trkpt><trkpt lat="37.59291592796484" lon="14.605097176435304"><ele>220.75</ele><time>2026-05-04T10:21:18Z</time></trkpt><trkpt lat="37.5928635204261" lon="14.604941071676832"><ele>220.0</ele><time>2026-05-04T10:21:19Z</time></trkpt><trkpt lat="37.59283073356209" lon="14.604775093832316"><ele>219.0</ele><time>2026-05-04T10:21:20Z</time></trkpt><trkpt lat="37.5927914018446" lon="14.604605602921438"><ele>218.0</ele><time>2026-05-04T10:21:21Z</time></trkpt><trkpt lat="37.59275076354794" lon="14.604431773931342"><ele>217.0</ele><time>2026-05-04T10:21:22Z</time></trkpt><trkpt lat="37.59270944857553" lon="14.604252323105223"><ele>216.0</ele><time>2026-05-04T10:21:23Z</time></trkpt><trkpt lat="37.592672285138825" lon="14.604081850962672"><ele>216.0</ele><time>2026-05-04T10:21:24Z</time></trkpt><trkpt lat="37.59263323753427" lon="14.603907665057395"><ele>216.0</ele><time>2026-05-04T10:21:25Z</time></trkpt><trkpt lat="37.59259280759065" lon="14.603733006552064"><ele>216.0</ele><time>2026-05-04T10:21:26.001Z</time></trkpt><trkpt lat="37.59255430624991" lon="14.603554414032324"><ele>216.0</ele><time>2026-05-04T10:21:27.001Z</time></trkpt><trkpt lat="37.59250905752359" lon="14.603369563198141"><ele>217.0</ele><time>2026-05-04T10:21:28.001Z</time></trkpt><trkpt lat="37.592479433173764" lon="14.60318107545526"><ele>218.0</ele><time>2026-05-04T10:21:29.001Z</time></trkpt><trkpt lat="37.59243903552244" lon="14.60300811865219"><ele>219.0</ele><time>2026-05-04T10:21:30.001Z</time></trkpt><trkpt lat="37.592399550399804" lon="14.602841798155367"><ele>220.0</ele><time>2026-05-04T10:21:31.001Z</time></trkpt><trkpt lat="37.59235832743186" lon="14.60267053601269"><ele>220.75</ele><time>2026-05-04T10:21:32.001Z</time></trkpt><trkpt lat="37.59230678694619" lon="14.602496524435976"><ele>221.5</ele><time>2026-05-04T10:21:33.001Z</time></trkpt><trkpt lat="37.59226703468154" lon="14.602323055660248"><ele>222.25</ele><time>2026-05-04T10:21:34.001Z</time></trkpt><trkpt lat="37.592232447908614" lon="14.60218319206052"><ele>223.0</ele><time>2026-05-04T10:21:35.001Z</time></trkpt><trkpt lat="37.59221706232159" lon="14.602094938687207"><ele>223.0</ele><time>2026-05-04T10:21:36.001Z</time></trkpt><trkpt lat="37.59220333541378" lon="14.602011593949204"><ele>223.0</ele><time>2026-05-04T10:21:37.001Z</time></trkpt><trkpt lat="37.59218583368029" lon="14.60192375343976"><ele>223.0</ele><time>2026-05-04T10:21:38.001Z</time></trkpt><trkpt lat="37.59216102957389" lon="14.601821475708892"><ele>223.0</ele><time>2026-05-04T10:21:39.001Z</time></trkpt><trkpt lat="37.592123885881904" lon="14.601690898965566"><ele>223.0</ele><time>2026-05-04T10:21:40.001Z</time></trkpt><trkpt lat="37.59208844363431" lon="14.601541845347763"><ele>223.5</ele><time>2026-05-04T10:21:41.001Z</time></trkpt><trkpt lat="37.592049314850385" lon="14.601381994212277"><ele>224.0</ele><time>2026-05-04T10:21:42.001Z</time></trkpt><trkpt lat="37.592008144728055" lon="14.601213584485437"><ele>224.5</ele><time>2026-05-04T10:21:43.001Z</time></trkpt><trkpt lat="37.591983652276134" lon="14.60103738980372"><ele>225.0</ele><time>2026-05-04T10:21:44.001Z</time></trkpt><trkpt lat="37.59194346733075" lon="14.600859867026024"><ele>223.0</ele><time>2026-05-04T10:21:45.001Z</time></trkpt><trkpt lat="37.59190376398489" lon="14.600694896969635"><ele>221.0</ele><time>2026-05-04T10:21:46.001Z</time></trkpt><trkpt lat="37.59186907519345" lon="14.600550564238768"><ele>219.0</ele><time>2026-05-04T10:21:47.001Z</time></trkpt><trkpt lat="37.59182488497275" lon="14.60042100109912"><ele>217.0</ele><time>2026-05-04T10:21:48.001Z</time></trkpt><trkpt lat="37.591805036360654" lon="14.600273710731985"><ele>217.0</ele><time>2026-05-04T10:21:49.001Z</time></trkpt><trkpt lat="37.59176874082015" lon="14.600113203068409"><ele>217.0</ele><time>2026-05-04T10:21:50.001Z</time></trkpt><trkpt lat="37.591717167986005" lon="14.599951412472993"><ele>217.0</ele><time>2026-05-04T10:21:51.001Z</time></trkpt><trkpt lat="37.591681636163884" lon="14.599778385194323"><ele>217.0</ele><time>2026-05-04T10:21:52.001Z</time></trkpt><trkpt lat="37.591640847292645" lon="14.599604012337553"><ele>218.0</ele><time>2026-05-04T10:21:53.001Z</time></trkpt><trkpt lat="37.5915975062292" lon="14.599426748080795"><ele>219.0</ele><time>2026-05-04T10:21:54.001Z</time></trkpt><trkpt lat="37.59155809986276" lon="14.599256089312737"><ele>220.0</ele><time>2026-05-04T10:21:55.001Z</time></trkpt><trkpt lat="37.59152104342401" lon="14.599090402682481"><ele>221.0</ele><time>2026-05-04T10:21:56.001Z</time></trkpt><trkpt lat="37.59150115228408" lon="14.59892584096697"><ele>221.0</ele><time>2026-05-04T10:21:57.001Z</time></trkpt><trkpt lat="37.59146470335793" lon="14.59876275620195"><ele>221.0</ele><time>2026-05-04T10:21:58.001Z</time></trkpt><trkpt lat="37.59142584370298" lon="14.598595342238454"><ele>221.0</ele><time>2026-05-04T10:21:59.001Z</time></trkpt><trkpt lat="37.591369360312754" lon="14.59842940337564"><ele>221.0</ele><time>2026-05-04T10:22:00.001Z</time></trkpt><trkpt lat="37.591335962865635" lon="14.59825709225682"><ele>223.75</ele><time>2026-05-04T10:22:01.001Z</time></trkpt><trkpt lat="37.591308412402384" lon="14.598081624508472"><ele>226.5</ele><time>2026-05-04T10:22:02.001Z</time></trkpt><trkpt lat="37.59127000326715" lon="14.597909972748596"><ele>229.25</ele><time>2026-05-04T10:22:03.001Z</time></trkpt><trkpt lat="37.59122017114021" lon="14.597763278573476"><ele>232.0</ele><time>2026-05-04T10:22:04.001Z</time></trkpt><trkpt lat="37.59118476751221" lon="14.597618463412966"><ele>229.25</ele><time>2026-05-04T10:22:05.001Z</time></trkpt><trkpt lat="37.59115488749802" lon="14.597476701389734"><ele>226.5</ele><time>2026-05-04T10:22:06.001Z</time></trkpt><trkpt lat="37.591118694872954" lon="14.597324242950618"><ele>223.75</ele><time>2026-05-04T10:22:07.001Z</time></trkpt><trkpt lat="37.5910847151518" lon="14.597163293265165"><ele>221.0</ele><time>2026-05-04T10:22:08.001Z</time></trkpt><trkpt lat="37.591045685506536" lon="14.596999481109131"><ele>221.0</ele><time>2026-05-04T10:22:09.001Z</time></trkpt><trkpt lat="37.59100984419072" lon="14.596841530641989"><ele>221.0</ele><time>2026-05-04T10:22:10.001Z</time></trkpt><trkpt lat="37.590971272322676" lon="14.596674448093527"><ele>221.0</ele><time>2026-05-04T10:22:11.001Z</time></trkpt><trkpt lat="37.590931890079695" lon="14.596497541743801"><ele>221.0</ele><time>2026-05-04T10:22:12.001Z</time></trkpt><trkpt lat="37.590886446122184" lon="14.596312782882322"><ele>221.33333333333334</ele><time>2026-05-04T10:22:13.001Z</time></trkpt><trkpt lat="37.59084364619879" lon="14.596126375780266"><ele>221.66666666666669</ele><time>2026-05-04T10:22:14.001Z</time></trkpt><trkpt lat="37.590796550428045" lon="14.595933733106326"><ele>222.0</ele><time>2026-05-04T10:22:15.001Z</time></trkpt><trkpt lat="37.59075272768279" lon="14.595745505403226"><ele>222.0</ele><time>2026-05-04T10:22:16.001Z</time></trkpt><trkpt lat="37.590715569903175" lon="14.59555148994613"><ele>222.0</ele><time>2026-05-04T10:22:17.001Z</time></trkpt><trkpt lat="37.59068948046429" lon="14.595370032036154"><ele>222.0</ele><time>2026-05-04T10:22:18.001Z</time></trkpt><trkpt lat="37.590676127416565" lon="14.595195350871569"><ele>222.0</ele><time>2026-05-04T10:22:19.001Z</time></trkpt><trkpt lat="37.590666857891605" lon="14.59504736834519"><ele>222.39999999999998</ele><time>2026-05-04T10:22:20.001Z</time></trkpt><trkpt lat="37.59066907134839" lon="14.594953572529528"><ele>222.79999999999998</ele><time>2026-05-04T10:22:21.001Z</time></trkpt><trkpt lat="37.590790283614844" lon="14.595031251030655"><ele>223.2</ele><time>2026-05-04T10:22:24Z</time></trkpt><trkpt lat="37.59086292826572" lon="14.594992164661372"><ele>223.6</ele><time>2026-05-04T10:22:26Z</time></trkpt><trkpt lat="37.59097427286701" lon="14.594906456344988"><ele>224.0</ele><time>2026-05-04T10:22:28Z</time></trkpt><trkpt lat="37.59104751306217" lon="14.594830496788502"><ele>224.0</ele><time>2026-05-04T10:22:29Z</time></trkpt><trkpt lat="37.59111941335189" lon="14.594732353395802"><ele>224.0</ele><time>2026-05-04T10:22:30Z</time></trkpt><trkpt lat="37.59120678800203" lon="14.594632057148408"><ele>224.0</ele><time>2026-05-04T10:22:31Z</time></trkpt><trkpt lat="37.59130608250144" lon="14.594528620905445"><ele>224.0</ele><time>2026-05-04T10:22:32Z</time></trkpt><trkpt lat="37.591413935592755" lon="14.59441644737535"><ele>222.66666666666669</ele><time>2026-05-04T10:22:33Z</time></trkpt><trkpt lat="37.59152187721829" lon="14.594288048596397"><ele>221.33333333333331</ele><time>2026-05-04T10:22:34Z</time></trkpt><trkpt lat="37.59163600742041" lon="14.594155522882112"><ele>220.0</ele><time>2026-05-04T10:22:35Z</time></trkpt><trkpt lat="37.59175793938572" lon="14.594021873075912"><ele>220.0</ele><time>2026-05-04T10:22:36Z</time></trkpt><trkpt lat="37.5918832233598" lon="14.593882252128424"><ele>220.0</ele><time>2026-05-04T10:22:37Z</time></trkpt><trkpt lat="37.59200983061358" lon="14.593742094030704"><ele>220.0</ele><time>2026-05-04T10:22:38Z</time></trkpt><trkpt lat="37.59214307486476" lon="14.593600380766233"><ele>221.0</ele><time>2026-05-04T10:22:39Z</time></trkpt><trkpt lat="37.5922773849522" lon="14.593462650272338"><ele>222.0</ele><time>2026-05-04T10:22:40Z</time></trkpt><trkpt lat="37.59241638362043" lon="14.593325580484667"><ele>223.0</ele><time>2026-05-04T10:22:41Z</time></trkpt><trkpt lat="37.592567031268665" lon="14.593200953524704"><ele>223.0</ele><time>2026-05-04T10:22:42Z</time></trkpt><trkpt lat="37.5927305044505" lon="14.593095521678308"><ele>223.0</ele><time>2026-05-04T10:22:43Z</time></trkpt><trkpt lat="37.592898391326614" lon="14.592996040491986"><ele>223.0</ele><time>2026-05-04T10:22:44Z</time></trkpt><trkpt lat="37.59307393116186" lon="14.592905059928384"><ele>224.66666666666666</ele><time>2026-05-04T10:22:45Z</time></trkpt><trkpt lat="37.59325267896444" lon="14.592823631649384"><ele>226.33333333333331</ele><time>2026-05-04T10:22:46Z</time></trkpt><trkpt lat="37.59343609437869" lon="14.5927389443226"><ele>228.0</ele><time>2026-05-04T10:22:47Z</time></trkpt><trkpt lat="37.59361745266461" lon="14.592649233868688"><ele>228.0</ele><time>2026-05-04T10:22:48Z</time></trkpt><trkpt lat="37.59379138156342" lon="14.592559302495037"><ele>228.0</ele><time>2026-05-04T10:22:49Z</time></trkpt><trkpt lat="37.59395711450841" lon="14.592471702983856"><ele>228.0</ele><time>2026-05-04T10:22:50Z</time></trkpt><trkpt lat="37.59410667125278" lon="14.59238921803165"><ele>228.0</ele><time>2026-05-04T10:22:51Z</time></trkpt><trkpt lat="37.594255301873766" lon="14.59233660931718"><ele>228.0</ele><time>2026-05-04T10:22:52Z</time></trkpt><trkpt lat="37.59439540357243" lon="14.592275395924434"><ele>228.0</ele><time>2026-05-04T10:22:53Z</time></trkpt><trkpt lat="37.5945418513531" lon="14.592206530730028"><ele>227.66666666666669</ele><time>2026-05-04T10:22:54Z</time></trkpt><trkpt lat="37.59469587155494" lon="14.592158668289313"><ele>227.33333333333334</ele><time>2026-05-04T10:22:55Z</time></trkpt><trkpt lat="37.594847590379615" lon="14.592104763106192"><ele>227.0</ele><time>2026-05-04T10:22:56Z</time></trkpt><trkpt lat="37.59500380676016" lon="14.592048607397485"><ele>227.0</ele><time>2026-05-04T10:22:57Z</time></trkpt><trkpt lat="37.59517108266262" lon="14.592010271286847"><ele>227.0</ele><time>2026-05-04T10:22:58Z</time></trkpt><trkpt lat="37.595343822867804" lon="14.59198268076001"><ele>227.0</ele><time>2026-05-04T10:22:59Z</time></trkpt><trkpt lat="37.59551955270957" lon="14.591955964252916"><ele>233.33333333333334</ele><time>2026-05-04T10:23:00Z</time></trkpt><trkpt lat="37.59569959065505" lon="14.591932011378372"><ele>239.66666666666669</ele><time>2026-05-04T10:23:01Z</time></trkpt><trkpt lat="37.59587948547705" lon="14.591904953648053"><ele>246.0</ele><time>2026-05-04T10:23:02Z</time></trkpt><trkpt lat="37.59605531923533" lon="14.591853076112395"><ele>245.33333333333331</ele><time>2026-05-04T10:23:03Z</time></trkpt><trkpt lat="37.596236459247024" lon="14.5917810522311"><ele>244.66666666666666</ele><time>2026-05-04T10:23:04Z</time></trkpt><trkpt lat="37.596426989283245" lon="14.591684555274831"><ele>244.0</ele><time>2026-05-04T10:23:05Z</time></trkpt><trkpt lat="37.59662388222506" lon="14.591575102454959"><ele>244.0</ele><time>2026-05-04T10:23:06Z</time></trkpt><trkpt lat="37.59680856215431" lon="14.59150393495985"><ele>244.0</ele><time>2026-05-04T10:23:07Z</time></trkpt><trkpt lat="37.59696399260546" lon="14.591424440891759"><ele>244.0</ele><time>2026-05-04T10:23:08Z</time></trkpt><trkpt lat="37.59711888065492" lon="14.591401023964663"><ele>242.33333333333331</ele><time>2026-05-04T10:23:09Z</time></trkpt><trkpt lat="37.59728253603299" lon="14.591423025089307"><ele>240.66666666666669</ele><time>2026-05-04T10:23:10Z</time></trkpt><trkpt lat="37.597449160208754" lon="14.591441799490974"><ele>239.0</ele><time>2026-05-04T10:23:11Z</time></trkpt><trkpt lat="37.59761882381261" lon="14.591447929071656"><ele>239.0</ele><time>2026-05-04T10:23:12Z</time></trkpt><trkpt lat="37.59779014519831" lon="14.591474529384383"><ele>239.0</ele><time>2026-05-04T10:23:13Z</time></trkpt><trkpt lat="37.59795677867265" lon="14.59148857605597"><ele>239.0</ele><time>2026-05-04T10:23:14Z</time></trkpt><trkpt lat="37.59811023570137" lon="14.59149267976728"><ele>240.66666666666669</ele><time>2026-05-04T10:23:15Z</time></trkpt><trkpt lat="37.59826032113762" lon="14.59147092669514"><ele>242.33333333333331</ele><time>2026-05-04T10:23:16Z</time></trkpt><trkpt lat="37.598422286099265" lon="14.591422599609613"><ele>244.0</ele><time>2026-05-04T10:23:17Z</time></trkpt><trkpt lat="37.598574381855954" lon="14.591375945703858"><ele>245.0</ele><time>2026-05-04T10:23:18Z</time></trkpt><trkpt lat="37.598742060348826" lon="14.59129226653961"><ele>246.0</ele><time>2026-05-04T10:23:19Z</time></trkpt><trkpt lat="37.59893256974693" lon="14.591189950136657"><ele>247.0</ele><time>2026-05-04T10:23:20Z</time></trkpt><trkpt lat="37.599144973266405" lon="14.591122222678283"><ele>254.0</ele><time>2026-05-04T10:23:21Z</time></trkpt><trkpt lat="37.599351156007934" lon="14.591060632141426"><ele>261.0</ele><time>2026-05-04T10:23:22Z</time></trkpt><trkpt lat="37.599532635745504" lon="14.591023632272892"><ele>268.0</ele><time>2026-05-04T10:23:23Z</time></trkpt><trkpt lat="37.59970211886932" lon="14.591029336859428"><ele>270.0</ele><time>2026-05-04T10:23:24Z</time></trkpt><trkpt lat="37.59985450033815" lon="14.591049199754297"><ele>272.0</ele><time>2026-05-04T10:23:25Z</time></trkpt><trkpt lat="37.600009395147474" lon="14.591072501819383"><ele>274.0</ele><time>2026-05-04T10:23:26Z</time></trkpt><trkpt lat="37.600167661617256" lon="14.591094064287342"><ele>274.0</ele><time>2026-05-04T10:23:27Z</time></trkpt><trkpt lat="37.600321579714404" lon="14.591127232922789"><ele>274.0</ele><time>2026-05-04T10:23:28Z</time></trkpt><trkpt lat="37.600475236210535" lon="14.591101806401248"><ele>274.0</ele><time>2026-05-04T10:23:29Z</time></trkpt><trkpt lat="37.60061071763519" lon="14.591083432215742"><ele>274.0</ele><time>2026-05-04T10:23:30Z</time></trkpt><trkpt lat="37.600750684859534" lon="14.591052710437852"><ele>274.5</ele><time>2026-05-04T10:23:31Z</time></trkpt><trkpt lat="37.60088275783685" lon="14.591026883021678"><ele>275.0</ele><time>2026-05-04T10:23:32Z</time></trkpt><trkpt lat="37.601016214733235" lon="14.591012213081546"><ele>275.5</ele><time>2026-05-04T10:23:33Z</time></trkpt><trkpt lat="37.60114912694517" lon="14.590993634167315"><ele>276.0</ele><time>2026-05-04T10:23:34Z</time></trkpt><trkpt lat="37.60128661296346" lon="14.590965334581686"><ele>276.0</ele><time>2026-05-04T10:23:35Z</time></trkpt><trkpt lat="37.60142392780139" lon="14.590924385291375"><ele>276.0</ele><time>2026-05-04T10:23:36Z</time></trkpt><trkpt lat="37.60154852348481" lon="14.590872546542327"><ele>276.0</ele><time>2026-05-04T10:23:37Z</time></trkpt><trkpt lat="37.601662078303335" lon="14.590815902545092"><ele>276.0</ele><time>2026-05-04T10:23:38.001Z</time></trkpt><trkpt lat="37.601763506854745" lon="14.590769021543982"><ele>276.0</ele><time>2026-05-04T10:23:39.001Z</time></trkpt><trkpt lat="37.60185155341542" lon="14.590712468077328"><ele>276.0</ele><time>2026-05-04T10:23:40.001Z</time></trkpt><trkpt lat="37.60193744732798" lon="14.590665165858129"><ele>276.0</ele><time>2026-05-04T10:23:41.001Z</time></trkpt><trkpt lat="37.60201332191386" lon="14.590620936266658"><ele>276.0</ele><time>2026-05-04T10:23:42.001Z</time></trkpt><trkpt lat="37.602102336022284" lon="14.590568389142168"><ele>276.0</ele><time>2026-05-04T10:23:44.001Z</time></trkpt><trkpt lat="37.602011532347966" lon="14.590614238353151"><ele>276.0</ele><time>2026-05-04T10:24:01.001Z</time></trkpt><trkpt lat="37.6018915545672" lon="14.590684654836101"><ele>276.0</ele><time>2026-05-04T10:24:02.001Z</time></trkpt><trkpt lat="37.601802280865975" lon="14.59073474770445"><ele>276.0</ele><time>2026-05-04T10:24:03.001Z</time></trkpt><trkpt lat="37.60168807883398" lon="14.59079281197822"><ele>276.0</ele><time>2026-05-04T10:24:04.001Z</time></trkpt><trkpt lat="37.60155138427576" lon="14.590850307452213"><ele>276.0</ele><time>2026-05-04T10:24:05.001Z</time></trkpt><trkpt lat="37.601390548303435" lon="14.59089546036508"><ele>276.0</ele><time>2026-05-04T10:24:06.001Z</time></trkpt><trkpt lat="37.60122685580924" lon="14.590939232153307"><ele>276.0</ele><time>2026-05-04T10:24:07.001Z</time></trkpt><trkpt lat="37.60107900111271" lon="14.59097129915982"><ele>276.75</ele><time>2026-05-04T10:24:08.001Z</time></trkpt><trkpt lat="37.60094552634047" lon="14.591015667597237"><ele>277.5</ele><time>2026-05-04T10:24:09.001Z</time></trkpt><trkpt lat="37.60081704918448" lon="14.591024518410762"><ele>278.25</ele><time>2026-05-04T10:24:10.001Z</time></trkpt><trkpt lat="37.60069497149568" lon="14.591040502386853"><ele>279.0</ele><time>2026-05-04T10:24:11.001Z</time></trkpt><trkpt lat="37.60058154354668" lon="14.591059696241922"><ele>279.0</ele><time>2026-05-04T10:24:12.001Z</time></trkpt><trkpt lat="37.600482330742814" lon="14.591076770258207"><ele>279.0</ele><time>2026-05-04T10:24:13.001Z</time></trkpt><trkpt lat="37.600404225597615" lon="14.591080409930381"><ele>279.0</ele><time>2026-05-04T10:24:14.001Z</time></trkpt><trkpt lat="37.60030080831813" lon="14.591086952732502"><ele>279.0</ele><time>2026-05-04T10:24:16.001Z</time></trkpt><trkpt lat="37.60023542017563" lon="14.591079510025256"><ele>279.0</ele><time>2026-05-04T10:24:19.001Z</time></trkpt><trkpt lat="37.60030481083042" lon="14.591081691265646"><ele>279.0</ele><time>2026-05-04T10:24:25.001Z</time></trkpt><trkpt lat="37.60042925227118" lon="14.591279240485948"><ele>275.8</ele><time>2026-05-04T10:24:29Z</time></trkpt><trkpt lat="37.600547899496334" lon="14.591251591378994"><ele>272.59999999999997</ele><time>2026-05-04T10:24:31Z</time></trkpt><trkpt lat="37.60061715579592" lon="14.591230338544095"><ele>269.4</ele><time>2026-05-04T10:24:32Z</time></trkpt><trkpt lat="37.600746359178046" lon="14.5912026719855"><ele>266.2</ele><time>2026-05-04T10:24:34Z</time></trkpt><trkpt lat="37.60086925933364" lon="14.591213252191315"><ele>263.0</ele><time>2026-05-04T10:24:36Z</time></trkpt><trkpt lat="37.60094256550315" lon="14.59127537061792"><ele>263.0</ele><time>2026-05-04T10:24:37Z</time></trkpt><trkpt lat="37.60102904975613" lon="14.591276270286015"><ele>263.0</ele><time>2026-05-04T10:24:38Z</time></trkpt><trkpt lat="37.6011112460746" lon="14.591273245231646"><ele>263.0</ele><time>2026-05-04T10:24:39Z</time></trkpt><trkpt lat="37.60120085660699" lon="14.591265016971544"><ele>263.0</ele><time>2026-05-04T10:24:40Z</time></trkpt><trkpt lat="37.601275311676225" lon="14.591255588878635"><ele>263.0</ele><time>2026-05-04T10:24:41Z</time></trkpt><trkpt lat="37.601341801395165" lon="14.591247169358523"><ele>263.0</ele><time>2026-05-04T10:24:42Z</time></trkpt><trkpt lat="37.601444513355524" lon="14.591234162632052"><ele>262.25</ele><time>2026-05-04T10:24:44Z</time></trkpt><trkpt lat="37.601517766379615" lon="14.591224886377892"><ele>261.5</ele><time>2026-05-04T10:24:47Z</time></trkpt><trkpt lat="37.601582620336856" lon="14.591216673723507"><ele>260.75</ele><time>2026-05-04T10:24:51Z</time></trkpt><trkpt lat="37.60165481953299" lon="14.591207530919746"><ele>260.0</ele><time>2026-05-04T10:24:54Z</time></trkpt><trkpt lat="37.601646988290234" lon="14.59082227206367"><ele>262.6666666666667</ele><time>2026-05-04T10:24:55Z</time></trkpt><trkpt lat="37.601744114205125" lon="14.59080033145201"><ele>265.33333333333337</ele><time>2026-05-04T10:24:58Z</time></trkpt><trkpt lat="37.601819748315215" lon="14.590746444957711"><ele>268.0</ele><time>2026-05-04T10:24:59Z</time></trkpt><trkpt lat="37.60188519854805" lon="14.590698676797379"><ele>270.6666666666667</ele><time>2026-05-04T10:25:00Z</time></trkpt><trkpt lat="37.60181895672978" lon="14.590736431958668"><ele>273.3333333333333</ele><time>2026-05-04T10:25:15Z</time></trkpt><trkpt lat="37.601757237143595" lon="14.590755483521097"><ele>276.0</ele><time>2026-05-04T10:25:17Z</time></trkpt><trkpt lat="37.60167484320735" lon="14.590795456460292"><ele>276.0</ele><time>2026-05-04T10:25:21Z</time></trkpt><trkpt lat="37.601577864421834" lon="14.59080203274733"><ele>276.0</ele><time>2026-05-04T10:25:23Z</time></trkpt><trkpt lat="37.601607689017634" lon="14.590877612923467"><ele>276.0</ele><time>2026-05-04T10:25:28Z</time></trkpt><trkpt lat="37.60171021405026" lon="14.590824170048359"><ele>276.0</ele><time>2026-05-04T10:25:30Z</time></trkpt><trkpt lat="37.60179757536368" lon="14.590751994024084"><ele>276.0</ele><time>2026-05-04T10:25:31Z</time></trkpt><trkpt lat="37.60186734820275" lon="14.590717752078005"><ele>276.0</ele><time>2026-05-04T10:25:32Z</time></trkpt><trkpt lat="37.601930133330406" lon="14.590689837675429"><ele>276.0</ele><time>2026-05-04T10:25:33Z</time></trkpt><trkpt lat="37.60204058472731" lon="14.590618073188029"><ele>276.0</ele><time>2026-05-04T10:25:34Z</time></trkpt><trkpt lat="37.60214519302399" lon="14.590548899540673"><ele>276.0</ele><time>2026-05-04T10:25:35Z</time></trkpt><trkpt lat="37.602214450969335" lon="14.59050341156445"><ele>276.0</ele><time>2026-05-04T10:25:36Z</time></trkpt><trkpt lat="37.60228990889701" lon="14.590452273715453"><ele>275.0</ele><time>2026-05-04T10:25:37Z</time></trkpt><trkpt lat="37.60237374652944" lon="14.59039967716972"><ele>274.0</ele><time>2026-05-04T10:25:38Z</time></trkpt><trkpt lat="37.60245745845587" lon="14.590349091052587"><ele>273.0</ele><time>2026-05-04T10:25:39Z</time></trkpt><trkpt lat="37.60253679301437" lon="14.590301232951425"><ele>272.0</ele><time>2026-05-04T10:25:40Z</time></trkpt><trkpt lat="37.602616142306225" lon="14.590255487129467"><ele>271.0</ele><time>2026-05-04T10:25:41Z</time></trkpt><trkpt lat="37.602699711008285" lon="14.590207877914361"><ele>271.0</ele><time>2026-05-04T10:25:42Z</time></trkpt><trkpt lat="37.602784009076196" lon="14.590149206780254"><ele>271.0</ele><time>2026-05-04T10:25:43Z</time></trkpt><trkpt lat="37.602867562830546" lon="14.590098824307576"><ele>271.0</ele><time>2026-05-04T10:25:44Z</time></trkpt><trkpt lat="37.602944289669786" lon="14.590051624124012"><ele>271.0</ele><time>2026-05-04T10:25:45Z</time></trkpt><trkpt lat="37.603007072561454" lon="14.590012678950083"><ele>271.0</ele><time>2026-05-04T10:25:46Z</time></trkpt><trkpt lat="37.60312669199622" lon="14.589950945945391"><ele>270.8</ele><time>2026-05-04T10:25:48Z</time></trkpt><trkpt lat="37.60319653360652" lon="14.589898292167438"><ele>270.6</ele><time>2026-05-04T10:25:49Z</time></trkpt><trkpt lat="37.603272709638176" lon="14.589833370744948"><ele>270.4</ele><time>2026-05-04T10:25:50Z</time></trkpt><trkpt lat="37.6033546239628" lon="14.589773221849654"><ele>270.2</ele><time>2026-05-04T10:25:51Z</time></trkpt><trkpt lat="37.6034427128958" lon="14.589712166812195"><ele>270.0</ele><time>2026-05-04T10:25:52Z</time></trkpt><trkpt lat="37.60353426057191" lon="14.58965498492032"><ele>270.0</ele><time>2026-05-04T10:25:53Z</time></trkpt><trkpt lat="37.6036332998946" lon="14.589589815292022"><ele>270.0</ele><time>2026-05-04T10:25:54Z</time></trkpt><trkpt lat="37.603737957565045" lon="14.58950936545477"><ele>270.0</ele><time>2026-05-04T10:25:55Z</time></trkpt><trkpt lat="37.603842235835046" lon="14.589414375441415"><ele>270.0</ele><time>2026-05-04T10:25:56Z</time></trkpt><trkpt lat="37.60394702783166" lon="14.589306160045561"><ele>272.0</ele><time>2026-05-04T10:25:57.001Z</time></trkpt><trkpt lat="37.604051325593225" lon="14.589186786302967"><ele>274.0</ele><time>2026-05-04T10:25:58.001Z</time></trkpt><trkpt lat="37.604151257353934" lon="14.589060707410802"><ele>276.0</ele><time>2026-05-04T10:25:59.001Z</time></trkpt><trkpt lat="37.604235213745596" lon="14.58893911782872"><ele>278.0</ele><time>2026-05-04T10:26:00.001Z</time></trkpt><trkpt lat="37.6043013700856" lon="14.588822206209295"><ele>278.0</ele><time>2026-05-04T10:26:01.001Z</time></trkpt><trkpt lat="37.60435927684344" lon="14.58870653266155"><ele>278.0</ele><time>2026-05-04T10:26:02.001Z</time></trkpt><trkpt lat="37.60444475870676" lon="14.588630285909066"><ele>278.0</ele><time>2026-05-04T10:26:03.001Z</time></trkpt><trkpt lat="37.60451208304332" lon="14.588545106128098"><ele>278.0</ele><time>2026-05-04T10:26:04.001Z</time></trkpt><trkpt lat="37.604545307120254" lon="14.588470722725582"><ele>278.0</ele><time>2026-05-04T10:26:05.001Z</time></trkpt><trkpt lat="37.60460735696301" lon="14.588405596137406"><ele>276.0</ele><time>2026-05-04T10:26:07.001Z</time></trkpt><trkpt lat="37.604652015953576" lon="14.588347028939538"><ele>274.0</ele><time>2026-05-04T10:26:08.001Z</time></trkpt><trkpt lat="37.60470787844837" lon="14.588278174853748"><ele>272.0</ele><time>2026-05-04T10:26:09.001Z</time></trkpt><trkpt lat="37.604767515444124" lon="14.588205521904994"><ele>270.0</ele><time>2026-05-04T10:26:10.001Z</time></trkpt><trkpt lat="37.60483139405707" lon="14.588125807788202"><ele>268.0</ele><time>2026-05-04T10:26:11.001Z</time></trkpt><trkpt lat="37.60489959391373" lon="14.588038946695445"><ele>266.0</ele><time>2026-05-04T10:26:12.001Z</time></trkpt><trkpt lat="37.604978792642484" lon="14.58795400179854"><ele>266.0</ele><time>2026-05-04T10:26:13.001Z</time></trkpt><trkpt lat="37.605071592343215" lon="14.587875526006625"><ele>266.0</ele><time>2026-05-04T10:26:14.001Z</time></trkpt><trkpt lat="37.605160991947784" lon="14.587784081403905"><ele>266.0</ele><time>2026-05-04T10:26:15.001Z</time></trkpt><trkpt lat="37.60527623974239" lon="14.587733038887848"><ele>266.0</ele><time>2026-05-04T10:26:16.001Z</time></trkpt><trkpt lat="37.60538674685533" lon="14.587670306656689"><ele>269.0</ele><time>2026-05-04T10:26:17.001Z</time></trkpt><trkpt lat="37.60550558291399" lon="14.587626700357532"><ele>272.0</ele><time>2026-05-04T10:26:18.001Z</time></trkpt><trkpt lat="37.605624199512555" lon="14.587595163432582"><ele>275.0</ele><time>2026-05-04T10:26:19.001Z</time></trkpt><trkpt lat="37.60575180106077" lon="14.587558236432438"><ele>278.0</ele><time>2026-05-04T10:26:20.001Z</time></trkpt><trkpt lat="37.605882247715975" lon="14.587517067889928"><ele>278.0</ele><time>2026-05-04T10:26:21.001Z</time></trkpt><trkpt lat="37.60601554839151" lon="14.587481673991375"><ele>278.0</ele><time>2026-05-04T10:26:22.001Z</time></trkpt><trkpt lat="37.6061484533241" lon="14.587443676630354"><ele>278.0</ele><time>2026-05-04T10:26:23.001Z</time></trkpt><trkpt lat="37.60627822490404" lon="14.58738356285837"><ele>278.0</ele><time>2026-05-04T10:26:24.001Z</time></trkpt><trkpt lat="37.60640558207852" lon="14.587305245497802"><ele>278.75</ele><time>2026-05-04T10:26:25.001Z</time></trkpt><trkpt lat="37.60652669910495" lon="14.58721057783239"><ele>279.5</ele><time>2026-05-04T10:26:26.001Z</time></trkpt><trkpt lat="37.606638767197694" lon="14.58709901063048"><ele>280.25</ele><time>2026-05-04T10:26:27.001Z</time></trkpt><trkpt lat="37.6067364651852" lon="14.586975180398861"><ele>281.0</ele><time>2026-05-04T10:26:28.001Z</time></trkpt><trkpt lat="37.606820498204904" lon="14.586845447395088"><ele>279.40000000000003</ele><time>2026-05-04T10:26:29.001Z</time></trkpt><trkpt lat="37.60688322962414" lon="14.586724110691115"><ele>277.8</ele><time>2026-05-04T10:26:30.001Z</time></trkpt><trkpt lat="37.606930195245425" lon="14.586608787689139"><ele>276.20000000000005</ele><time>2026-05-04T10:26:31.001Z</time></trkpt><trkpt lat="37.60696765492209" lon="14.586505787454167"><ele>274.6</ele><time>2026-05-04T10:26:32.001Z</time></trkpt><trkpt lat="37.606997274010226" lon="14.58641813966719"><ele>273.0</ele><time>2026-05-04T10:26:33.001Z</time></trkpt><trkpt lat="37.60702730103393" lon="14.586341818667988"><ele>273.0</ele><time>2026-05-04T10:26:33.999Z</time></trkpt><trkpt lat="37.60706746481977" lon="14.586280007879086"><ele>273.0</ele><time>2026-05-04T10:26:34.999Z</time></trkpt><trkpt lat="37.60712927713294" lon="14.586217413348848"><ele>273.0</ele><time>2026-05-04T10:26:35.999Z</time></trkpt><trkpt lat="37.60718601255667" lon="14.58615557092601"><ele>273.0</ele><time>2026-05-04T10:26:36.999Z</time></trkpt><trkpt lat="37.607244865938135" lon="14.586072202896531"><ele>273.0</ele><time>2026-05-04T10:26:37.999Z</time></trkpt><trkpt lat="37.60730329049263" lon="14.585982585755827"><ele>273.0</ele><time>2026-05-04T10:26:38.999Z</time></trkpt><trkpt lat="37.60736077479377" lon="14.585877828645152"><ele>275.75</ele><time>2026-05-04T10:26:39.999Z</time></trkpt><trkpt lat="37.60742494218088" lon="14.58576795006522"><ele>278.5</ele><time>2026-05-04T10:26:40.999Z</time></trkpt><trkpt lat="37.60749453644861" lon="14.58565698426818"><ele>281.25</ele><time>2026-05-04T10:26:41.999Z</time></trkpt><trkpt lat="37.60756424534462" lon="14.585537340536838"><ele>284.0</ele><time>2026-05-04T10:26:42.999Z</time></trkpt><trkpt lat="37.6076330405087" lon="14.58541001644129"><ele>282.0</ele><time>2026-05-04T10:26:43.999Z</time></trkpt><trkpt lat="37.607703219886524" lon="14.58527223828873"><ele>280.0</ele><time>2026-05-04T10:26:45Z</time></trkpt><trkpt lat="37.60777310322824" lon="14.585134149458327"><ele>278.0</ele><time>2026-05-04T10:26:46Z</time></trkpt><trkpt lat="37.60783718917063" lon="14.584991882252064"><ele>276.0</ele><time>2026-05-04T10:26:46.999Z</time></trkpt><trkpt lat="37.60789982520494" lon="14.5848478285366"><ele>276.0</ele><time>2026-05-04T10:26:48Z</time></trkpt><trkpt lat="37.60796188845839" lon="14.584698674753309"><ele>276.0</ele><time>2026-05-04T10:26:49Z</time></trkpt><trkpt lat="37.60802020833357" lon="14.5845491575868"><ele>276.0</ele><time>2026-05-04T10:26:50Z</time></trkpt><trkpt lat="37.60807213692612" lon="14.58441082209738"><ele>276.0</ele><time>2026-05-04T10:26:51Z</time></trkpt><trkpt lat="37.60811191048369" lon="14.584289124007059"><ele>276.6</ele><time>2026-05-04T10:26:52Z</time></trkpt><trkpt lat="37.608137865046096" lon="14.584187616479399"><ele>277.20000000000005</ele><time>2026-05-04T10:26:53Z</time></trkpt><trkpt lat="37.608166935624205" lon="14.584082334708581"><ele>277.79999999999995</ele><time>2026-05-04T10:26:54Z</time></trkpt><trkpt lat="37.60820112937112" lon="14.583979423469993"><ele>278.4</ele><time>2026-05-04T10:26:55Z</time></trkpt><trkpt lat="37.60824485399601" lon="14.58386540975855"><ele>279.0</ele><time>2026-05-04T10:26:56Z</time></trkpt><trkpt lat="37.60828854878146" lon="14.583751643958653"><ele>279.2</ele><time>2026-05-04T10:26:57Z</time></trkpt><trkpt lat="37.60832269747585" lon="14.583653324295902"><ele>279.4</ele><time>2026-05-04T10:26:58Z</time></trkpt><trkpt lat="37.60836184280139" lon="14.583538759145116"><ele>279.6</ele><time>2026-05-04T10:26:59Z</time></trkpt><trkpt lat="37.608398500025906" lon="14.583422856713455"><ele>279.8</ele><time>2026-05-04T10:27:00Z</time></trkpt><trkpt lat="37.60843042738149" lon="14.583314378688316"><ele>280.0</ele><time>2026-05-04T10:27:01Z</time></trkpt><trkpt lat="37.60846805835037" lon="14.583214000791196"><ele>280.0</ele><time>2026-05-04T10:27:02Z</time></trkpt><trkpt lat="37.60852362406223" lon="14.583123583400694"><ele>280.0</ele><time>2026-05-04T10:27:03Z</time></trkpt><trkpt lat="37.608552068432715" lon="14.58301531310748"><ele>280.0</ele><time>2026-05-04T10:27:04Z</time></trkpt><trkpt lat="37.608600309823636" lon="14.582922325149099"><ele>280.0</ele><time>2026-05-04T10:27:05Z</time></trkpt><trkpt lat="37.608652278437695" lon="14.582832249944781"><ele>280.0</ele><time>2026-05-04T10:27:06Z</time></trkpt><trkpt lat="37.60870329268112" lon="14.582743148868104"><ele>280.0</ele><time>2026-05-04T10:27:07Z</time></trkpt><trkpt lat="37.60874547756328" lon="14.582648442048807"><ele>275.5</ele><time>2026-05-04T10:27:08Z</time></trkpt><trkpt lat="37.60879380584352" lon="14.582532228918737"><ele>271.0</ele><time>2026-05-04T10:27:09Z</time></trkpt><trkpt lat="37.60887345370239" lon="14.582418177592523"><ele>266.5</ele><time>2026-05-04T10:27:10Z</time></trkpt><trkpt lat="37.608935684932874" lon="14.582269172358984"><ele>262.0</ele><time>2026-05-04T10:27:11Z</time></trkpt><trkpt lat="37.609008028540636" lon="14.582160670933538"><ele>262.0</ele><time>2026-05-04T10:27:12Z</time></trkpt><trkpt lat="37.609058393801625" lon="14.582079427290891"><ele>262.0</ele><time>2026-05-04T10:27:13Z</time></trkpt><trkpt lat="37.609115553644564" lon="14.58199857254214"><ele>262.0</ele><time>2026-05-04T10:27:14Z</time></trkpt><trkpt lat="37.6091731911129" lon="14.581908379695028"><ele>262.0</ele><time>2026-05-04T10:27:15Z</time></trkpt><trkpt lat="37.60923282326509" lon="14.581799249975216"><ele>262.0</ele><time>2026-05-04T10:27:16Z</time></trkpt><trkpt lat="37.60929576126982" lon="14.581682255069973"><ele>261.6</ele><time>2026-05-04T10:27:17Z</time></trkpt><trkpt lat="37.609367907606114" lon="14.5815701351308"><ele>261.2</ele><time>2026-05-04T10:27:18Z</time></trkpt><trkpt lat="37.609443421188026" lon="14.581463321958202"><ele>260.8</ele><time>2026-05-04T10:27:19Z</time></trkpt><trkpt lat="37.60951171126214" lon="14.581370373763756"><ele>260.4</ele><time>2026-05-04T10:27:20Z</time></trkpt><trkpt lat="37.609560182790936" lon="14.581315483158239"><ele>260.0</ele><time>2026-05-04T10:27:21Z</time></trkpt><trkpt lat="37.60964147435171" lon="14.581226436131328"><ele>261.0</ele><time>2026-05-04T10:27:23Z</time></trkpt><trkpt lat="37.60974581481114" lon="14.581119643673548"><ele>262.0</ele><time>2026-05-04T10:27:25Z</time></trkpt><trkpt lat="37.60982870882889" lon="14.58105861673614"><ele>263.0</ele><time>2026-05-04T10:27:26Z</time></trkpt><trkpt lat="37.60993905829428" lon="14.580990307951827"><ele>264.0</ele><time>2026-05-04T10:27:27Z</time></trkpt><trkpt lat="37.61005988123103" lon="14.58093580706683"><ele>264.0</ele><time>2026-05-04T10:27:28Z</time></trkpt><trkpt lat="37.61019040570722" lon="14.580894550728567"><ele>264.0</ele><time>2026-05-04T10:27:29Z</time></trkpt><trkpt lat="37.61032661833779" lon="14.58086474969806"><ele>264.0</ele><time>2026-05-04T10:27:30Z</time></trkpt><trkpt lat="37.6104734559926" lon="14.580858078387692"><ele>264.0</ele><time>2026-05-04T10:27:31Z</time></trkpt><trkpt lat="37.61062451587263" lon="14.580876680854248"><ele>264.6666666666667</ele><time>2026-05-04T10:27:32Z</time></trkpt><trkpt lat="37.61077440603994" lon="14.5809254880211"><ele>265.33333333333337</ele><time>2026-05-04T10:27:33Z</time></trkpt><trkpt lat="37.610923500022984" lon="14.581003910389017"><ele>266.0</ele><time>2026-05-04T10:27:34Z</time></trkpt><trkpt lat="37.61106772698882" lon="14.581098386960534"><ele>266.33333333333337</ele><time>2026-05-04T10:27:35Z</time></trkpt><trkpt lat="37.61120707651565" lon="14.581205338413005"><ele>266.6666666666667</ele><time>2026-05-04T10:27:36Z</time></trkpt><trkpt lat="37.61134213721891" lon="14.581327170837572"><ele>267.0</ele><time>2026-05-04T10:27:37Z</time></trkpt><trkpt lat="37.611482605300154" lon="14.58145308356355"><ele>267.0</ele><time>2026-05-04T10:27:38Z</time></trkpt><trkpt lat="37.6116158707106" lon="14.581583047665656"><ele>267.0</ele><time>2026-05-04T10:27:39Z</time></trkpt><trkpt lat="37.611734841646" lon="14.581700866786486"><ele>267.0</ele><time>2026-05-04T10:27:40Z</time></trkpt><trkpt lat="37.611821235808975" lon="14.581803752854215"><ele>267.0</ele><time>2026-05-04T10:27:41Z</time></trkpt><trkpt lat="37.611887945082906" lon="14.581871297143527"><ele>267.0</ele><time>2026-05-04T10:27:42Z</time></trkpt><trkpt lat="37.61194524363613" lon="14.5819304548273"><ele>267.0</ele><time>2026-05-04T10:27:44Z</time></trkpt><trkpt lat="37.61203579230936" lon="14.582008818694034"><ele>267.0</ele><time>2026-05-04T10:29:17Z</time></trkpt><trkpt lat="37.61210084278374" lon="14.582069852424375"><ele>267.0</ele><time>2026-05-04T10:29:18Z</time></trkpt><trkpt lat="37.61217886872407" lon="14.582143268227632"><ele>267.0</ele><time>2026-05-04T10:29:19Z</time></trkpt><trkpt lat="37.6122670575382" lon="14.582224208938868"><ele>267.75</ele><time>2026-05-04T10:29:20Z</time></trkpt><trkpt lat="37.612365581606994" lon="14.582311267406922"><ele>268.5</ele><time>2026-05-04T10:29:21Z</time></trkpt><trkpt lat="37.61247288067864" lon="14.5824006744479"><ele>269.25</ele><time>2026-05-04T10:29:22Z</time></trkpt><trkpt lat="37.612586920815346" lon="14.582492278986768"><ele>270.0</ele><time>2026-05-04T10:29:23Z</time></trkpt><trkpt lat="37.612706815621365" lon="14.582586306801046"><ele>269.3333333333333</ele><time>2026-05-04T10:29:24Z</time></trkpt><trkpt lat="37.61283407633703" lon="14.582679317263361"><ele>268.66666666666663</ele><time>2026-05-04T10:29:25Z</time></trkpt><trkpt lat="37.61297043163728" lon="14.58276848513998"><ele>268.0</ele><time>2026-05-04T10:29:26Z</time></trkpt><trkpt lat="37.61311214201147" lon="14.582856550835066"><ele>268.0</ele><time>2026-05-04T10:29:27Z</time></trkpt><trkpt lat="37.61325744648998" lon="14.582940046578013"><ele>268.0</ele><time>2026-05-04T10:29:28Z</time></trkpt><trkpt lat="37.613404256906605" lon="14.583019416877786"><ele>268.0</ele><time>2026-05-04T10:29:29Z</time></trkpt><trkpt lat="37.61354021915187" lon="14.583087387168943"><ele>267.6</ele><time>2026-05-04T10:29:30Z</time></trkpt><trkpt lat="37.613664401418326" lon="14.58314675786401"><ele>267.20000000000005</ele><time>2026-05-04T10:29:31Z</time></trkpt><trkpt lat="37.613765119311914" lon="14.583192359544284"><ele>266.8</ele><time>2026-05-04T10:29:32Z</time></trkpt><trkpt lat="37.61384487702909" lon="14.58322755381062"><ele>266.40000000000003</ele><time>2026-05-04T10:29:33Z</time></trkpt><trkpt lat="37.61391338557251" lon="14.583254474445448"><ele>266.0</ele><time>2026-05-04T10:29:34Z</time></trkpt><trkpt lat="37.61397809749531" lon="14.583304453943912"><ele>266.0</ele><time>2026-05-04T10:29:36Z</time></trkpt><trkpt lat="37.61404927782104" lon="14.583168874950738"><ele>266.0</ele><time>2026-05-04T10:29:38Z</time></trkpt><trkpt lat="37.61408871427685" lon="14.583093291095395"><ele>266.0</ele><time>2026-05-04T10:29:39Z</time></trkpt><trkpt lat="37.6141513366805" lon="14.583024613832293"><ele>266.0</ele><time>2026-05-04T10:29:40Z</time></trkpt><trkpt lat="37.61420213716214" lon="14.582935885477461"><ele>266.0</ele><time>2026-05-04T10:29:41Z</time></trkpt><trkpt lat="37.614226814102274" lon="14.582837206036725"><ele>266.6666666666667</ele><time>2026-05-04T10:29:42Z</time></trkpt><trkpt lat="37.614271803040744" lon="14.582759671084382"><ele>267.33333333333337</ele><time>2026-05-04T10:29:43Z</time></trkpt><trkpt lat="37.61432164352101" lon="14.582674911227425"><ele>268.0</ele><time>2026-05-04T10:29:44Z</time></trkpt><trkpt lat="37.614373195399395" lon="14.582579789542475"><ele>268.6666666666667</ele><time>2026-05-04T10:29:45Z</time></trkpt><trkpt lat="37.61441420270503" lon="14.58249045783528"><ele>269.3333333333333</ele><time>2026-05-04T10:29:46Z</time></trkpt><trkpt lat="37.61444155913716" lon="14.582399294161918"><ele>270.0</ele><time>2026-05-04T10:29:47Z</time></trkpt><trkpt lat="37.61448774793563" lon="14.582301475303536"><ele>270.0</ele><time>2026-05-04T10:29:48Z</time></trkpt><trkpt lat="37.61450288848931" lon="14.58218782005467"><ele>270.0</ele><time>2026-05-04T10:29:49Z</time></trkpt><trkpt lat="37.61455104264966" lon="14.5820858869846"><ele>270.0</ele><time>2026-05-04T10:29:50Z</time></trkpt><trkpt lat="37.6145814243659" lon="14.581984202350485"><ele>270.0</ele><time>2026-05-04T10:29:51Z</time></trkpt><trkpt lat="37.614603995514415" lon="14.581875616816454"><ele>270.0</ele><time>2026-05-04T10:29:52Z</time></trkpt><trkpt lat="37.61462920159277" lon="14.58178672245484"><ele>270.0</ele><time>2026-05-04T10:29:53Z</time></trkpt><trkpt lat="37.614663203848366" lon="14.581716792347379"><ele>270.0</ele><time>2026-05-04T10:29:54Z</time></trkpt><trkpt lat="37.61472344239745" lon="14.58161620276271"><ele>270.0</ele><time>2026-05-04T10:29:56Z</time></trkpt><trkpt lat="37.614825502544214" lon="14.58154515866994"><ele>270.0</ele><time>2026-05-04T10:29:58Z</time></trkpt><trkpt lat="37.614868612014725" lon="14.581470683499255"><ele>270.0</ele><time>2026-05-04T10:29:59Z</time></trkpt><trkpt lat="37.61490738945218" lon="14.58137721501429"><ele>270.0</ele><time>2026-05-04T10:30:00Z</time></trkpt><trkpt lat="37.614949069022636" lon="14.581279047278866"><ele>270.6</ele><time>2026-05-04T10:30:01Z</time></trkpt><trkpt lat="37.6149935811251" lon="14.58117589546615"><ele>271.2</ele><time>2026-05-04T10:30:02Z</time></trkpt><trkpt lat="37.615037068351775" lon="14.58108050108193"><ele>271.8</ele><time>2026-05-04T10:30:03Z</time></trkpt><trkpt lat="37.61507150126348" lon="14.580978799223097"><ele>272.4</ele><time>2026-05-04T10:30:04Z</time></trkpt><trkpt lat="37.615106825009974" lon="14.580872433086062"><ele>273.0</ele><time>2026-05-04T10:30:05Z</time></trkpt><trkpt lat="37.61513830642066" lon="14.580760479089333"><ele>273.0</ele><time>2026-05-04T10:30:06Z</time></trkpt><trkpt lat="37.61515996788568" lon="14.580656597748257"><ele>273.0</ele><time>2026-05-04T10:30:07Z</time></trkpt><trkpt lat="37.61518936078632" lon="14.580574490327804"><ele>273.0</ele><time>2026-05-04T10:30:08Z</time></trkpt><trkpt lat="37.61522677198052" lon="14.580428020262707"><ele>273.0</ele><time>2026-05-04T10:30:10Z</time></trkpt><trkpt lat="37.61522792527802" lon="14.580345746394954"><ele>273.0</ele><time>2026-05-04T10:30:11Z</time></trkpt><trkpt lat="37.61524455899105" lon="14.58025826452386"><ele>273.0</ele><time>2026-05-04T10:30:12Z</time></trkpt><trkpt lat="37.61526068491518" lon="14.5801648772847"><ele>273.5</ele><time>2026-05-04T10:30:13Z</time></trkpt><trkpt lat="37.615279805002736" lon="14.580080267797785"><ele>274.0</ele><time>2026-05-04T10:30:14Z</time></trkpt><trkpt lat="37.615295331928806" lon="14.579918265669525"><ele>274.5</ele><time>2026-05-04T10:30:16Z</time></trkpt><trkpt lat="37.615307466176176" lon="14.579831129430016"><ele>275.0</ele><time>2026-05-04T10:30:17Z</time></trkpt><trkpt lat="37.61532874396589" lon="14.579739424914417"><ele>275.5</ele><time>2026-05-04T10:30:18Z</time></trkpt><trkpt lat="37.615330520329366" lon="14.579636673230263"><ele>276.0</ele><time>2026-05-04T10:30:19Z</time></trkpt><trkpt lat="37.61532270110221" lon="14.579543927251278"><ele>276.40000000000003</ele><time>2026-05-04T10:30:20Z</time></trkpt><trkpt lat="37.61533628272136" lon="14.579385697898813"><ele>276.8</ele><time>2026-05-04T10:30:22Z</time></trkpt><trkpt lat="37.615328114455046" lon="14.579245685916343"><ele>277.20000000000005</ele><time>2026-05-04T10:30:24Z</time></trkpt><trkpt lat="37.61532144997232" lon="14.579121333198414"><ele>277.6</ele><time>2026-05-04T10:30:26Z</time></trkpt><trkpt lat="37.61530163373838" lon="14.578983106844271"><ele>278.0</ele><time>2026-05-04T10:30:28Z</time></trkpt><trkpt lat="37.61527421987518" lon="14.57884750002061"><ele>278.6666666666667</ele><time>2026-05-04T10:30:30Z</time></trkpt><trkpt lat="37.61527383283558" lon="14.578699082422713"><ele>279.33333333333337</ele><time>2026-05-04T10:30:32.001Z</time></trkpt><trkpt lat="37.61526066450953" lon="14.578609607144637"><ele>280.0</ele><time>2026-05-04T10:30:33.001Z</time></trkpt><trkpt lat="37.615256489892104" lon="14.578517016453306"><ele>280.6666666666667</ele><time>2026-05-04T10:30:34.001Z</time></trkpt><trkpt lat="37.61525854514601" lon="14.578415163102896"><ele>281.3333333333333</ele><time>2026-05-04T10:30:35.001Z</time></trkpt><trkpt lat="37.61523645615389" lon="14.578326924341477"><ele>282.0</ele><time>2026-05-04T10:30:36.001Z</time></trkpt><trkpt lat="37.61521195100877" lon="14.578188677060178"><ele>282.6</ele><time>2026-05-04T10:30:38.001Z</time></trkpt><trkpt lat="37.615240479516736" lon="14.578050261932887"><ele>283.2</ele><time>2026-05-04T10:30:40.001Z</time></trkpt><trkpt lat="37.61524912749796" lon="14.577903274347465"><ele>283.8</ele><time>2026-05-04T10:30:42.001Z</time></trkpt><trkpt lat="37.61524938728537" lon="14.577753726683497"><ele>284.4</ele><time>2026-05-04T10:30:44.001Z</time></trkpt><trkpt lat="37.61523369654936" lon="14.57766738875866"><ele>285.0</ele><time>2026-05-04T10:30:44.999Z</time></trkpt><trkpt lat="37.615196743517394" lon="14.577520906760423"><ele>285.0</ele><time>2026-05-04T10:30:46.999Z</time></trkpt><trkpt lat="37.61516961283851" lon="14.577433380907545"><ele>285.0</ele><time>2026-05-04T10:30:47.999Z</time></trkpt><trkpt lat="37.615134826184025" lon="14.577328807500258"><ele>285.0</ele><time>2026-05-04T10:30:48.999Z</time></trkpt><trkpt lat="37.6150988393943" lon="14.577220953067588"><ele>285.0</ele><time>2026-05-04T10:30:49.999Z</time></trkpt><trkpt lat="37.615065687114246" lon="14.57711807119708"><ele>285.0</ele><time>2026-05-04T10:30:50.999Z</time></trkpt><trkpt lat="37.61503975047434" lon="14.577021259195943"><ele>285.0</ele><time>2026-05-04T10:30:51.999Z</time></trkpt><trkpt lat="37.61501126333512" lon="14.576912414515713"><ele>286.3333333333333</ele><time>2026-05-04T10:30:52.999Z</time></trkpt><trkpt lat="37.61499630157676" lon="14.576800649341855"><ele>287.6666666666667</ele><time>2026-05-04T10:30:53.999Z</time></trkpt><trkpt lat="37.61499816752906" lon="14.576694872135649"><ele>289.0</ele><time>2026-05-04T10:30:54.999Z</time></trkpt><trkpt lat="37.61502443311865" lon="14.576598363373808"><ele>290.33333333333337</ele><time>2026-05-04T10:30:55.999Z</time></trkpt><trkpt lat="37.61505999102429" lon="14.576508223587153"><ele>291.6666666666667</ele><time>2026-05-04T10:30:56.999Z</time></trkpt><trkpt lat="37.61508659683865" lon="14.576411995537132"><ele>293.0</ele><time>2026-05-04T10:30:57.999Z</time></trkpt><trkpt lat="37.615138004842514" lon="14.576309269258307"><ele>293.0</ele><time>2026-05-04T10:30:59.999Z</time></trkpt><trkpt lat="37.61517179794766" lon="14.57618903660182"><ele>293.0</ele><time>2026-05-04T10:31:01.999Z</time></trkpt><trkpt lat="37.61521969366072" lon="14.57604776152285"><ele>293.0</ele><time>2026-05-04T10:31:03.999Z</time></trkpt><trkpt lat="37.61523726461327" lon="14.575961177827118"><ele>293.0</ele><time>2026-05-04T10:31:05Z</time></trkpt><trkpt lat="37.61525288789396" lon="14.575869487235247"><ele>293.0</ele><time>2026-05-04T10:31:06Z</time></trkpt><trkpt lat="37.61526722360593" lon="14.575774239856475"><ele>293.0</ele><time>2026-05-04T10:31:07Z</time></trkpt><trkpt lat="37.61527825877484" lon="14.575684757868652"><ele>293.1666666666667</ele><time>2026-05-04T10:31:08Z</time></trkpt><trkpt lat="37.61529755244783" lon="14.57559445526566"><ele>293.33333333333337</ele><time>2026-05-04T10:31:09Z</time></trkpt><trkpt lat="37.61532057985331" lon="14.57550025592541"><ele>293.5</ele><time>2026-05-04T10:31:10Z</time></trkpt><trkpt lat="37.615341759564465" lon="14.575404461508246"><ele>293.6666666666667</ele><time>2026-05-04T10:31:11Z</time></trkpt><trkpt lat="37.615364229589204" lon="14.575302178482922"><ele>293.8333333333333</ele><time>2026-05-04T10:31:12Z</time></trkpt><trkpt lat="37.61537770988207" lon="14.575207632350711"><ele>294.0</ele><time>2026-05-04T10:31:13Z</time></trkpt><trkpt lat="37.61539099928457" lon="14.575123363111203"><ele>294.6666666666667</ele><time>2026-05-04T10:31:14Z</time></trkpt><trkpt lat="37.61540904438839" lon="14.575033234581365"><ele>295.3333333333333</ele><time>2026-05-04T10:31:15Z</time></trkpt><trkpt lat="37.615425904152545" lon="14.574948518691395"><ele>296.0</ele><time>2026-05-04T10:31:16Z</time></trkpt><trkpt lat="37.61543853312962" lon="14.574866632994523"><ele>296.66666666666663</ele><time>2026-05-04T10:31:17Z</time></trkpt><trkpt lat="37.6154518466614" lon="14.57474359392632"><ele>297.3333333333333</ele><time>2026-05-04T10:31:19Z</time></trkpt><trkpt lat="37.61545385647351" lon="14.574587522318273"><ele>298.0</ele><time>2026-05-04T10:31:21Z</time></trkpt><trkpt lat="37.61546719791923" lon="14.574499468250936"><ele>298.57142857142856</ele><time>2026-05-04T10:31:22Z</time></trkpt><trkpt lat="37.61546627057609" lon="14.574404438324818"><ele>299.1428571428571</ele><time>2026-05-04T10:31:23Z</time></trkpt><trkpt lat="37.615462499696925" lon="14.574312480006283"><ele>299.7142857142857</ele><time>2026-05-04T10:31:24Z</time></trkpt><trkpt lat="37.61545748487446" lon="14.574226659161862"><ele>300.2857142857143</ele><time>2026-05-04T10:31:25Z</time></trkpt><trkpt lat="37.61543511650729" lon="14.574151913825997"><ele>300.8571428571429</ele><time>2026-05-04T10:31:26Z</time></trkpt><trkpt lat="37.61544329214285" lon="14.574059244385907"><ele>301.42857142857144</ele><time>2026-05-04T10:31:27Z</time></trkpt><trkpt lat="37.61543818843651" lon="14.573960065928645"><ele>302.0</ele><time>2026-05-04T10:31:28Z</time></trkpt><trkpt lat="37.615436967492826" lon="14.57384403544334"><ele>302.0</ele><time>2026-05-04T10:31:29Z</time></trkpt><trkpt lat="37.61543856815834" lon="14.57374131682165"><ele>302.0</ele><time>2026-05-04T10:31:30Z</time></trkpt><trkpt lat="37.615427785666625" lon="14.573629653512254"><ele>302.0</ele><time>2026-05-04T10:31:31Z</time></trkpt><trkpt lat="37.615440386101675" lon="14.573515016888226"><ele>302.0</ele><time>2026-05-04T10:31:32Z</time></trkpt><trkpt lat="37.61545156651355" lon="14.573410596878041"><ele>302.0</ele><time>2026-05-04T10:31:33Z</time></trkpt><trkpt lat="37.61546791816807" lon="14.573320775651283"><ele>302.0</ele><time>2026-05-04T10:31:34Z</time></trkpt><trkpt lat="37.615480640275884" lon="14.573231715573835"><ele>303.0</ele><time>2026-05-04T10:31:35Z</time></trkpt><trkpt lat="37.6154987362656" lon="14.573134083610514"><ele>304.0</ele><time>2026-05-04T10:31:36Z</time></trkpt><trkpt lat="37.61553409155422" lon="14.573038113369181"><ele>305.0</ele><time>2026-05-04T10:31:37Z</time></trkpt><trkpt lat="37.615536356989104" lon="14.572954022752112"><ele>306.0</ele><time>2026-05-04T10:31:38Z</time></trkpt><trkpt lat="37.615566739605306" lon="14.572863913114846"><ele>307.0</ele><time>2026-05-04T10:31:39Z</time></trkpt><trkpt lat="37.615592208791206" lon="14.572768807599054"><ele>308.0</ele><time>2026-05-04T10:31:40Z</time></trkpt><trkpt lat="37.61561592803916" lon="14.57268782726302"><ele>309.0</ele><time>2026-05-04T10:31:41Z</time></trkpt><trkpt lat="37.61564632801128" lon="14.572528154756649"><ele>310.0</ele><time>2026-05-04T10:31:43Z</time></trkpt><trkpt lat="37.61566220685962" lon="14.57243934114427"><ele>311.0</ele><time>2026-05-04T10:31:44Z</time></trkpt><trkpt lat="37.61567707229479" lon="14.572355052741095"><ele>312.0</ele><time>2026-05-04T10:31:45Z</time></trkpt><trkpt lat="37.61569186505163" lon="14.57226486849679"><ele>313.0</ele><time>2026-05-04T10:31:46Z</time></trkpt><trkpt lat="37.61570534854418" lon="14.572173444371405"><ele>314.0</ele><time>2026-05-04T10:31:47Z</time></trkpt><trkpt lat="37.61572219348242" lon="14.572083891013513"><ele>314.8</ele><time>2026-05-04T10:31:48Z</time></trkpt><trkpt lat="37.61574322917125" lon="14.572005557535821"><ele>315.59999999999997</ele><time>2026-05-04T10:31:49Z</time></trkpt><trkpt lat="37.61577359973293" lon="14.5718834213649"><ele>316.4</ele><time>2026-05-04T10:31:51Z</time></trkpt><trkpt lat="37.615818591159965" lon="14.571787344946062"><ele>317.2</ele><time>2026-05-04T10:31:53Z</time></trkpt><trkpt lat="37.61586328132832" lon="14.571680158487325"><ele>318.0</ele><time>2026-05-04T10:31:55Z</time></trkpt><trkpt lat="37.615932425427985" lon="14.571545170034327"><ele>318.0</ele><time>2026-05-04T10:31:57Z</time></trkpt><trkpt lat="37.61597143207646" lon="14.571464483661117"><ele>318.0</ele><time>2026-05-04T10:31:58Z</time></trkpt><trkpt lat="37.616017536078" lon="14.571388928021381"><ele>318.0</ele><time>2026-05-04T10:31:59Z</time></trkpt><trkpt lat="37.6160654934815" lon="14.571311965073757"><ele>318.0</ele><time>2026-05-04T10:32:00Z</time></trkpt><trkpt lat="37.61611207324249" lon="14.571247497529635"><ele>318.0</ele><time>2026-05-04T10:32:01Z</time></trkpt><trkpt lat="37.616202471125824" lon="14.571151436163156"><ele>318.0</ele><time>2026-05-04T10:32:03Z</time></trkpt><trkpt lat="37.61626222331594" lon="14.571114424790334"><ele>318.8333333333333</ele><time>2026-05-04T10:32:04Z</time></trkpt><trkpt lat="37.61630065142142" lon="14.571039533357796"><ele>319.6666666666667</ele><time>2026-05-04T10:32:05Z</time></trkpt><trkpt lat="37.61635078183279" lon="14.570982146199723"><ele>320.5</ele><time>2026-05-04T10:32:06Z</time></trkpt><trkpt lat="37.616393533824045" lon="14.570922935619805"><ele>321.33333333333337</ele><time>2026-05-04T10:32:07Z</time></trkpt><trkpt lat="37.61643208169592" lon="14.570857923737167"><ele>322.1666666666667</ele><time>2026-05-04T10:32:08Z</time></trkpt><trkpt lat="37.61649336510761" lon="14.570739718808063"><ele>323.0</ele><time>2026-05-04T10:32:10Z</time></trkpt><trkpt lat="37.61656079277627" lon="14.570599720543498"><ele>323.0</ele><time>2026-05-04T10:32:12Z</time></trkpt><trkpt lat="37.616597180844074" lon="14.570530909652767"><ele>323.0</ele><time>2026-05-04T10:32:13Z</time></trkpt><trkpt lat="37.61665812449454" lon="14.570391526851672"><ele>323.0</ele><time>2026-05-04T10:32:15Z</time></trkpt><trkpt lat="37.61668640447188" lon="14.57026414564444"><ele>323.0</ele><time>2026-05-04T10:32:17Z</time></trkpt><trkpt lat="37.61671535626857" lon="14.570180695742003"><ele>323.0</ele><time>2026-05-04T10:32:18Z</time></trkpt><trkpt lat="37.616727530740405" lon="14.570089111508445"><ele>323.0</ele><time>2026-05-04T10:32:19Z</time></trkpt><trkpt lat="37.616724501596515" lon="14.569989149236365"><ele>324.59999999999997</ele><time>2026-05-04T10:32:20.001Z</time></trkpt><trkpt lat="37.61674129108099" lon="14.569891872758424"><ele>326.2</ele><time>2026-05-04T10:32:21.001Z</time></trkpt><trkpt lat="37.616749296512175" lon="14.569796095081987"><ele>327.8</ele><time>2026-05-04T10:32:22.001Z</time></trkpt><trkpt lat="37.61676842891058" lon="14.569690254506604"><ele>329.4</ele><time>2026-05-04T10:32:23.001Z</time></trkpt><trkpt lat="37.61675868387802" lon="14.569562927113402"><ele>331.0</ele><time>2026-05-04T10:32:24.001Z</time></trkpt><trkpt lat="37.616764829939896" lon="14.569412085312925"><ele>334.5</ele><time>2026-05-04T10:32:25.001Z</time></trkpt><trkpt lat="37.61677990888709" lon="14.569227443107666"><ele>338.0</ele><time>2026-05-04T10:32:26.001Z</time></trkpt><trkpt lat="37.6167827222957" lon="14.569060989281084"><ele>341.5</ele><time>2026-05-04T10:32:27.001Z</time></trkpt><trkpt lat="37.616812063243955" lon="14.5689478881078"><ele>345.0</ele><time>2026-05-04T10:32:28.001Z</time></trkpt><trkpt lat="37.6168183250765" lon="14.568830925987987"><ele>345.0</ele><time>2026-05-04T10:32:29.001Z</time></trkpt><trkpt lat="37.61683794348583" lon="14.568706785467352"><ele>345.0</ele><time>2026-05-04T10:32:30.001Z</time></trkpt><trkpt lat="37.616856298865194" lon="14.568573455530561"><ele>345.0</ele><time>2026-05-04T10:32:31.001Z</time></trkpt><trkpt lat="37.616871314759216" lon="14.56847912006974"><ele>345.0</ele><time>2026-05-04T10:32:32.001Z</time></trkpt><trkpt lat="37.61689266618593" lon="14.568328948598154"><ele>345.0</ele><time>2026-05-04T10:32:34.001Z</time></trkpt><trkpt lat="37.616905937089875" lon="14.568246278457746"><ele>346.4</ele><time>2026-05-04T10:32:35.001Z</time></trkpt><trkpt lat="37.61691666369947" lon="14.568116136095725"><ele>347.8</ele><time>2026-05-04T10:32:37.001Z</time></trkpt><trkpt lat="37.6169304335418" lon="14.567958545384082"><ele>349.20000000000005</ele><time>2026-05-04T10:32:39.001Z</time></trkpt><trkpt lat="37.61695600444694" lon="14.567875831705626"><ele>350.6</ele><time>2026-05-04T10:32:40.001Z</time></trkpt><trkpt lat="37.616987992571445" lon="14.567786375037855"><ele>352.0</ele><time>2026-05-04T10:32:41.001Z</time></trkpt><trkpt lat="37.61701905344069" lon="14.567692179629745"><ele>354.3333333333333</ele><time>2026-05-04T10:32:42.001Z</time></trkpt><trkpt lat="37.617055840446156" lon="14.56759395519482"><ele>356.66666666666663</ele><time>2026-05-04T10:32:43.001Z</time></trkpt><trkpt lat="37.61709610683665" lon="14.567493533424214"><ele>359.0</ele><time>2026-05-04T10:32:44.001Z</time></trkpt><trkpt lat="37.617138321551785" lon="14.567387554969788"><ele>361.3333333333333</ele><time>2026-05-04T10:32:45.001Z</time></trkpt><trkpt lat="37.61719215895878" lon="14.567296203867858"><ele>363.6666666666667</ele><time>2026-05-04T10:32:46.001Z</time></trkpt><trkpt lat="37.61723320842514" lon="14.567199789933156"><ele>366.0</ele><time>2026-05-04T10:32:47.001Z</time></trkpt><trkpt lat="37.61725772375141" lon="14.56710473431531"><ele>365.0</ele><time>2026-05-04T10:32:48.001Z</time></trkpt><trkpt lat="37.61730557457667" lon="14.567022445457223"><ele>364.0</ele><time>2026-05-04T10:32:49.001Z</time></trkpt><trkpt lat="37.617349645289956" lon="14.5669238770496"><ele>363.0</ele><time>2026-05-04T10:32:50.001Z</time></trkpt><trkpt lat="37.61739489896351" lon="14.56682998745089"><ele>362.0</ele><time>2026-05-04T10:32:51Z</time></trkpt><trkpt lat="37.61744559435935" lon="14.566751820251138"><ele>361.0</ele><time>2026-05-04T10:32:52Z</time></trkpt><trkpt lat="37.61749295867871" lon="14.566687373399471"><ele>360.0</ele><time>2026-05-04T10:32:53Z</time></trkpt><trkpt lat="37.61753983379882" lon="14.56662188485676"><ele>360.0</ele><time>2026-05-04T10:32:54Z</time></trkpt><trkpt lat="37.61758956664117" lon="14.566542869187"><ele>360.0</ele><time>2026-05-04T10:32:55Z</time></trkpt><trkpt lat="37.61763212486944" lon="14.566478929576872"><ele>360.0</ele><time>2026-05-04T10:32:56Z</time></trkpt><trkpt lat="37.61769553615558" lon="14.566376190746045"><ele>360.0</ele><time>2026-05-04T10:32:58Z</time></trkpt><trkpt lat="37.61776906950267" lon="14.566248306545017"><ele>360.0</ele><time>2026-05-04T10:33:00Z</time></trkpt><trkpt lat="37.61781497481122" lon="14.566160977849343"><ele>361.1666666666667</ele><time>2026-05-04T10:33:01Z</time></trkpt><trkpt lat="37.6178873269634" lon="14.566084258855597"><ele>362.3333333333333</ele><time>2026-05-04T10:33:02Z</time></trkpt><trkpt lat="37.6179492136321" lon="14.566013666235587"><ele>363.5</ele><time>2026-05-04T10:33:03Z</time></trkpt><trkpt lat="37.61799901661177" lon="14.565933102805829"><ele>364.66666666666663</ele><time>2026-05-04T10:33:04Z</time></trkpt><trkpt lat="37.61806310106682" lon="14.565870918230702"><ele>365.8333333333333</ele><time>2026-05-04T10:33:05Z</time></trkpt><trkpt lat="37.61813305625787" lon="14.565822976472509"><ele>367.0</ele><time>2026-05-04T10:33:06Z</time></trkpt><trkpt lat="37.61818736361365" lon="14.565781823223947"><ele>367.0</ele><time>2026-05-04T10:33:07Z</time></trkpt><trkpt lat="37.61827048926587" lon="14.56572191624908"><ele>367.0</ele><time>2026-05-04T10:33:09Z</time></trkpt><trkpt lat="37.61834171509251" lon="14.565685761789023"><ele>367.0</ele><time>2026-05-04T10:33:11Z</time></trkpt><trkpt lat="37.61840605472043" lon="14.565630842999779"><ele>367.0</ele><time>2026-05-04T10:33:13Z</time></trkpt><trkpt lat="37.61849390064633" lon="14.56557832093443"><ele>367.0</ele><time>2026-05-04T10:33:15Z</time></trkpt><trkpt lat="37.61857732740492" lon="14.565533368146424"><ele>367.0</ele><time>2026-05-04T10:33:17Z</time></trkpt><trkpt lat="37.618670178292035" lon="14.565443328478409"><ele>367.5</ele><time>2026-05-04T10:33:19Z</time></trkpt><trkpt lat="37.618720364992974" lon="14.565387978720214"><ele>368.0</ele><time>2026-05-04T10:33:20Z</time></trkpt><trkpt lat="37.61877086404325" lon="14.56533016069572"><ele>368.5</ele><time>2026-05-04T10:33:21Z</time></trkpt><trkpt lat="37.618817115947415" lon="14.56526934874789"><ele>369.0</ele><time>2026-05-04T10:33:22Z</time></trkpt><trkpt lat="37.61886499373043" lon="14.565191634591018"><ele>369.5</ele><time>2026-05-04T10:33:23Z</time></trkpt><trkpt lat="37.61891965443291" lon="14.565106528926352"><ele>370.0</ele><time>2026-05-04T10:33:24Z</time></trkpt><trkpt lat="37.61897122076171" lon="14.565010060493268"><ele>368.16666666666663</ele><time>2026-05-04T10:33:25Z</time></trkpt><trkpt lat="37.619012821905855" lon="14.564920922583104"><ele>366.3333333333333</ele><time>2026-05-04T10:33:26Z</time></trkpt><trkpt lat="37.619055742968726" lon="14.564824220536915"><ele>364.5</ele><time>2026-05-04T10:33:27Z</time></trkpt><trkpt lat="37.619115719207336" lon="14.564736513977719"><ele>362.6666666666667</ele><time>2026-05-04T10:33:28Z</time></trkpt><trkpt lat="37.61915676327647" lon="14.564628131573373"><ele>360.83333333333337</ele><time>2026-05-04T10:33:29Z</time></trkpt><trkpt lat="37.61920709316671" lon="14.564530602357054"><ele>359.0</ele><time>2026-05-04T10:33:30Z</time></trkpt><trkpt lat="37.61925738029788" lon="14.564439114825618"><ele>358.6666666666667</ele><time>2026-05-04T10:33:31Z</time></trkpt><trkpt lat="37.619305545644394" lon="14.5643584620218"><ele>358.33333333333337</ele><time>2026-05-04T10:33:32Z</time></trkpt><trkpt lat="37.619344684521245" lon="14.5642904812359"><ele>358.0</ele><time>2026-05-04T10:33:33Z</time></trkpt><trkpt lat="37.61939815663681" lon="14.564184716440288"><ele>357.6666666666667</ele><time>2026-05-04T10:33:35Z</time></trkpt><trkpt lat="37.61948257631165" lon="14.564050019770049"><ele>357.3333333333333</ele><time>2026-05-04T10:33:37Z</time></trkpt><trkpt lat="37.61951986893021" lon="14.563981356908826"><ele>357.0</ele><time>2026-05-04T10:33:38Z</time></trkpt><trkpt lat="37.61956356994708" lon="14.563856760940185"><ele>357.0</ele><time>2026-05-04T10:33:40Z</time></trkpt><trkpt lat="37.619573798301246" lon="14.5637718037417"><ele>357.0</ele><time>2026-05-04T10:33:41Z</time></trkpt><trkpt lat="37.61960180003918" lon="14.563672354684126"><ele>357.0</ele><time>2026-05-04T10:33:42Z</time></trkpt><trkpt lat="37.619631721564446" lon="14.563571286833358"><ele>357.0</ele><time>2026-05-04T10:33:43Z</time></trkpt><trkpt lat="37.61966395055266" lon="14.563487939190887"><ele>357.0</ele><time>2026-05-04T10:33:44Z</time></trkpt><trkpt lat="37.61970021031692" lon="14.563400758582139"><ele>357.0</ele><time>2026-05-04T10:33:45Z</time></trkpt><trkpt lat="37.61973471253937" lon="14.563311932195388"><ele>357.0</ele><time>2026-05-04T10:33:46Z</time></trkpt><trkpt lat="37.61976926481118" lon="14.563205369026791"><ele>357.0</ele><time>2026-05-04T10:33:47Z</time></trkpt><trkpt lat="37.61982517407379" lon="14.563110154478602"><ele>357.0</ele><time>2026-05-04T10:33:48Z</time></trkpt><trkpt lat="37.61984975220996" lon="14.563010720175246"><ele>357.0</ele><time>2026-05-04T10:33:49Z</time></trkpt><trkpt lat="37.619891380859016" lon="14.562925549932501"><ele>357.0</ele><time>2026-05-04T10:33:50Z</time></trkpt><trkpt lat="37.619960050271544" lon="14.562784571322291"><ele>355.42857142857144</ele><time>2026-05-04T10:33:52Z</time></trkpt><trkpt lat="37.61998979518851" lon="14.5627015448085"><ele>353.8571428571429</ele><time>2026-05-04T10:33:53Z</time></trkpt><trkpt lat="37.620030878264345" lon="14.562617847067436"><ele>352.2857142857143</ele><time>2026-05-04T10:33:54Z</time></trkpt><trkpt lat="37.62007142903354" lon="14.562539108121776"><ele>350.7142857142857</ele><time>2026-05-04T10:33:55Z</time></trkpt><trkpt lat="37.62011254563719" lon="14.562460253590597"><ele>349.14285714285717</ele><time>2026-05-04T10:33:56Z</time></trkpt><trkpt lat="37.62015149817452" lon="14.562385301708462"><ele>347.57142857142856</ele><time>2026-05-04T10:33:57Z</time></trkpt><trkpt lat="37.620187542259586" lon="14.56231843067667"><ele>346.0</ele><time>2026-05-04T10:33:58Z</time></trkpt><trkpt lat="37.62025323948853" lon="14.562234607208332"><ele>346.0</ele><time>2026-05-04T10:34:00Z</time></trkpt><trkpt lat="37.62030858503479" lon="14.56214139481699"><ele>346.0</ele><time>2026-05-04T10:34:02Z</time></trkpt><trkpt lat="37.62035779350119" lon="14.562039517457064"><ele>346.0</ele><time>2026-05-04T10:34:04Z</time></trkpt><trkpt lat="37.62043337242516" lon="14.561958783349821"><ele>346.0</ele><time>2026-05-04T10:34:06Z</time></trkpt><trkpt lat="37.6205065067924" lon="14.56186312459602"><ele>346.0</ele><time>2026-05-04T10:34:08Z</time></trkpt><trkpt lat="37.62055699281952" lon="14.561812770756195"><ele>345.20000000000005</ele><time>2026-05-04T10:34:09Z</time></trkpt><trkpt lat="37.620610904901795" lon="14.561765101235533"><ele>344.40000000000003</ele><time>2026-05-04T10:34:10Z</time></trkpt><trkpt lat="37.62070031231565" lon="14.561673797993864"><ele>343.6</ele><time>2026-05-04T10:34:12Z</time></trkpt><trkpt lat="37.62078990420411" lon="14.561592716020892"><ele>342.8</ele><time>2026-05-04T10:34:14.001Z</time></trkpt><trkpt lat="37.620901701595265" lon="14.561564627249918"><ele>342.0</ele><time>2026-05-04T10:34:16.001Z</time></trkpt><trkpt lat="37.62102690690346" lon="14.561551069845056"><ele>342.0</ele><time>2026-05-04T10:34:18.001Z</time></trkpt><trkpt lat="37.62108733764417" lon="14.561525381418631"><ele>342.0</ele><time>2026-05-04T10:34:19.001Z</time></trkpt><trkpt lat="37.621150035512855" lon="14.561497519314646"><ele>342.0</ele><time>2026-05-04T10:34:20.001Z</time></trkpt><trkpt lat="37.62125523052715" lon="14.561438119403897"><ele>342.0</ele><time>2026-05-04T10:34:22.001Z</time></trkpt><trkpt lat="37.62136207739424" lon="14.561395615235634"><ele>342.0</ele><time>2026-05-04T10:34:24.001Z</time></trkpt><trkpt lat="37.6214611095496" lon="14.561335116490493"><ele>341.3333333333333</ele><time>2026-05-04T10:34:26.001Z</time></trkpt><trkpt lat="37.62155497216326" lon="14.561248769366145"><ele>340.6666666666667</ele><time>2026-05-04T10:34:28.001Z</time></trkpt><trkpt lat="37.6216347702234" lon="14.561152591660065"><ele>340.0</ele><time>2026-05-04T10:34:30.001Z</time></trkpt><trkpt lat="37.62168504287539" lon="14.561096120860663"><ele>339.33333333333337</ele><time>2026-05-04T10:34:31.001Z</time></trkpt><trkpt lat="37.62173366156739" lon="14.561041074036858"><ele>338.6666666666667</ele><time>2026-05-04T10:34:32.001Z</time></trkpt><trkpt lat="37.62178502593177" lon="14.560968181425393"><ele>338.0</ele><time>2026-05-04T10:34:33.001Z</time></trkpt><trkpt lat="37.621837410585" lon="14.560885473871078"><ele>338.0</ele><time>2026-05-04T10:34:34.001Z</time></trkpt><trkpt lat="37.621892109483916" lon="14.560804309564471"><ele>338.0</ele><time>2026-05-04T10:34:35.001Z</time></trkpt><trkpt lat="37.621944322455676" lon="14.560720665018442"><ele>338.0</ele><time>2026-05-04T10:34:36.001Z</time></trkpt><trkpt lat="37.62198684563077" lon="14.560642873652734"><ele>338.0</ele><time>2026-05-04T10:34:37.001Z</time></trkpt><trkpt lat="37.62202860125796" lon="14.560555566000886"><ele>338.0</ele><time>2026-05-04T10:34:38.001Z</time></trkpt><trkpt lat="37.622067303501325" lon="14.56045799907079"><ele>338.0</ele><time>2026-05-04T10:34:39.001Z</time></trkpt><trkpt lat="37.62210454048008" lon="14.560359448510837"><ele>338.8571428571429</ele><time>2026-05-04T10:34:40.001Z</time></trkpt><trkpt lat="37.62214154998313" lon="14.560265226616652"><ele>339.7142857142857</ele><time>2026-05-04T10:34:41.001Z</time></trkpt><trkpt lat="37.62217382988614" lon="14.560182112248253"><ele>340.57142857142856</ele><time>2026-05-04T10:34:42.001Z</time></trkpt><trkpt lat="37.62220479251871" lon="14.560092010092005"><ele>341.42857142857144</ele><time>2026-05-04T10:34:43.001Z</time></trkpt><trkpt lat="37.62223490581585" lon="14.560013441452375"><ele>342.2857142857143</ele><time>2026-05-04T10:34:44.001Z</time></trkpt><trkpt lat="37.62226854290787" lon="14.559946064016525"><ele>343.14285714285717</ele><time>2026-05-04T10:34:45.001Z</time></trkpt><trkpt lat="37.622314488508884" lon="14.559885112400352"><ele>344.0</ele><time>2026-05-04T10:34:46.001Z</time></trkpt><trkpt lat="37.622368823960755" lon="14.559820572667125"><ele>344.0</ele><time>2026-05-04T10:34:47.001Z</time></trkpt><trkpt lat="37.622419215650055" lon="14.559766418421765"><ele>344.0</ele><time>2026-05-04T10:34:48.001Z</time></trkpt><trkpt lat="37.6225026703345" lon="14.559672079557881"><ele>344.0</ele><time>2026-05-04T10:34:50.001Z</time></trkpt><trkpt lat="37.622558650621315" lon="14.55958526499836"><ele>344.0</ele><time>2026-05-04T10:34:52.001Z</time></trkpt><trkpt lat="37.622607223451205" lon="14.559473556028982"><ele>344.0</ele><time>2026-05-04T10:34:54.001Z</time></trkpt><trkpt lat="37.62265354807344" lon="14.559359087798523"><ele>343.33333333333337</ele><time>2026-05-04T10:34:55.998Z</time></trkpt><trkpt lat="37.62264845113797" lon="14.559234957186835"><ele>342.6666666666667</ele><time>2026-05-04T10:34:57.998Z</time></trkpt><trkpt lat="37.62259374006862" lon="14.559136810950642"><ele>342.0</ele><time>2026-05-04T10:34:59.998Z</time></trkpt><trkpt lat="37.62257062105222" lon="14.559045151056536"><ele>341.3333333333333</ele><time>2026-05-04T10:35:01.998Z</time></trkpt><trkpt lat="37.62258125784386" lon="14.558966063699604"><ele>340.66666666666663</ele><time>2026-05-04T10:35:04.998Z</time></trkpt><trkpt lat="37.62258996805946" lon="14.558883173681613"><ele>340.0</ele><time>2026-05-04T10:35:22.999Z</time></trkpt><trkpt lat="37.622603588484175" lon="14.558792611152178"><ele>340.4</ele><time>2026-05-04T10:36:13Z</time></trkpt><trkpt lat="37.622622447341946" lon="14.558690959042258"><ele>340.8</ele><time>2026-05-04T10:36:18Z</time></trkpt><trkpt lat="37.622644843586606" lon="14.558586933566007"><ele>341.20000000000005</ele><time>2026-05-04T10:36:21Z</time></trkpt><trkpt lat="37.622676143609354" lon="14.55849394178261"><ele>341.6</ele><time>2026-05-04T10:36:24Z</time></trkpt><trkpt lat="37.6227294927195" lon="14.558412885971338"><ele>342.0</ele><time>2026-05-04T10:36:26Z</time></trkpt><trkpt lat="37.62280908829429" lon="14.558291904484692"><ele>343.40000000000003</ele><time>2026-05-04T10:36:28Z</time></trkpt><trkpt lat="37.62288428100971" lon="14.558200556623627"><ele>344.8</ele><time>2026-05-04T10:36:30Z</time></trkpt><trkpt lat="37.622953227951186" lon="14.558123576237056"><ele>346.2</ele><time>2026-05-04T10:36:32Z</time></trkpt><trkpt lat="37.62303138799683" lon="14.558050510823449"><ele>347.6</ele><time>2026-05-04T10:36:34Z</time></trkpt><trkpt lat="37.623097464130126" lon="14.558000235770487"><ele>349.0</ele><time>2026-05-04T10:36:35Z</time></trkpt><trkpt lat="37.623200071583675" lon="14.557935585640813"><ele>349.0</ele><time>2026-05-04T10:36:36Z</time></trkpt><trkpt lat="37.623309304247655" lon="14.557868852627488"><ele>349.0</ele><time>2026-05-04T10:36:37Z</time></trkpt><trkpt lat="37.623398530471206" lon="14.557822569079157"><ele>349.0</ele><time>2026-05-04T10:36:38Z</time></trkpt><trkpt lat="37.62347668449326" lon="14.557778058436288"><ele>349.0</ele><time>2026-05-04T10:36:39Z</time></trkpt><trkpt lat="37.62355978819187" lon="14.55773072816723"><ele>349.0</ele><time>2026-05-04T10:36:40Z</time></trkpt><trkpt lat="37.623628654752004" lon="14.557668140774746"><ele>349.6</ele><time>2026-05-04T10:36:41Z</time></trkpt><trkpt lat="37.623696394304446" lon="14.557591113936605"><ele>350.2</ele><time>2026-05-04T10:36:42Z</time></trkpt><trkpt lat="37.62374926316156" lon="14.557496097944265"><ele>350.8</ele><time>2026-05-04T10:36:43Z</time></trkpt><trkpt lat="37.623796623583104" lon="14.55738154772778"><ele>351.40000000000003</ele><time>2026-05-04T10:36:44Z</time></trkpt><trkpt lat="37.62384115274878" lon="14.55725034230865"><ele>352.0</ele><time>2026-05-04T10:36:45Z</time></trkpt><trkpt lat="37.6238665923595" lon="14.557118721076572"><ele>350.66666666666663</ele><time>2026-05-04T10:36:46Z</time></trkpt><trkpt lat="37.62390704843383" lon="14.556955702372237"><ele>349.3333333333333</ele><time>2026-05-04T10:36:47Z</time></trkpt><trkpt lat="37.62396041028839" lon="14.556773115431433"><ele>348.0</ele><time>2026-05-04T10:36:48Z</time></trkpt><trkpt lat="37.62403675118032" lon="14.556560619840113"><ele>348.0</ele><time>2026-05-04T10:36:49Z</time></trkpt><trkpt lat="37.624122048789445" lon="14.556380639802127"><ele>348.0</ele><time>2026-05-04T10:36:50Z</time></trkpt><trkpt lat="37.624201010103505" lon="14.556232528338912"><ele>348.0</ele><time>2026-05-04T10:36:51Z</time></trkpt><trkpt lat="37.624284989024275" lon="14.556087494279502"><ele>348.25</ele><time>2026-05-04T10:36:52Z</time></trkpt><trkpt lat="37.6243742110619" lon="14.555953721350393"><ele>348.5</ele><time>2026-05-04T10:36:53Z</time></trkpt><trkpt lat="37.62445509955138" lon="14.555842201021141"><ele>348.75</ele><time>2026-05-04T10:36:54Z</time></trkpt><trkpt lat="37.62453246348058" lon="14.555739457154248"><ele>349.0</ele><time>2026-05-04T10:36:55Z</time></trkpt><trkpt lat="37.62461008854059" lon="14.555636788225565"><ele>349.0</ele><time>2026-05-04T10:36:56Z</time></trkpt><trkpt lat="37.62468534819213" lon="14.5555373546086"><ele>349.0</ele><time>2026-05-04T10:36:57.001Z</time></trkpt><trkpt lat="37.62475112798253" lon="14.555438402795438"><ele>349.0</ele><time>2026-05-04T10:36:58.001Z</time></trkpt><trkpt lat="37.62481317684038" lon="14.555325752380245"><ele>349.0</ele><time>2026-05-04T10:36:59.001Z</time></trkpt><trkpt lat="37.62484242589512" lon="14.555194281023235"><ele>349.0</ele><time>2026-05-04T10:37:00.001Z</time></trkpt><trkpt lat="37.62487769312041" lon="14.55508733126778"><ele>348.66666666666663</ele><time>2026-05-04T10:37:01.001Z</time></trkpt><trkpt lat="37.62492502566676" lon="14.555016962476008"><ele>348.3333333333333</ele><time>2026-05-04T10:37:01.997Z</time></trkpt><trkpt lat="37.62499234478042" lon="14.554985770595728"><ele>348.0</ele><time>2026-05-04T10:37:02.997Z</time></trkpt><trkpt lat="37.62507045441433" lon="14.554940447174431"><ele>347.6666666666667</ele><time>2026-05-04T10:37:03.997Z</time></trkpt><trkpt lat="37.62515918408953" lon="14.554926404692834"><ele>347.33333333333337</ele><time>2026-05-04T10:37:04.997Z</time></trkpt><trkpt lat="37.62524715385865" lon="14.5549233006307"><ele>347.0</ele><time>2026-05-04T10:37:05.997Z</time></trkpt><trkpt lat="37.6253260060019" lon="14.554911125514133"><ele>347.8</ele><time>2026-05-04T10:37:06.997Z</time></trkpt><trkpt lat="37.6254154716242" lon="14.554930166556948"><ele>348.6</ele><time>2026-05-04T10:37:07.997Z</time></trkpt><trkpt lat="37.62552040287943" lon="14.554950014176327"><ele>349.40000000000003</ele><time>2026-05-04T10:37:08.997Z</time></trkpt><trkpt lat="37.62562110136164" lon="14.554934793487266"><ele>350.20000000000005</ele><time>2026-05-04T10:37:09.997Z</time></trkpt><trkpt lat="37.62570139297824" lon="14.554880506990273"><ele>351.0</ele><time>2026-05-04T10:37:10.997Z</time></trkpt><trkpt lat="37.625764705449484" lon="14.554796732059483"><ele>351.0</ele><time>2026-05-04T10:37:11.997Z</time></trkpt><trkpt lat="37.625835778363076" lon="14.554718015710021"><ele>351.0</ele><time>2026-05-04T10:37:12.997Z</time></trkpt><trkpt lat="37.62588982298348" lon="14.554596162512187"><ele>351.0</ele><time>2026-05-04T10:37:13.997Z</time></trkpt><trkpt lat="37.62596223379829" lon="14.55446539389449"><ele>351.0</ele><time>2026-05-04T10:37:14.998Z</time></trkpt><trkpt lat="37.62604300704629" lon="14.554319241611907"><ele>350.75</ele><time>2026-05-04T10:37:15.998Z</time></trkpt><trkpt lat="37.626117941557276" lon="14.55414215582197"><ele>350.5</ele><time>2026-05-04T10:37:16.998Z</time></trkpt><trkpt lat="37.62619617483333" lon="14.553978709197004"><ele>350.25</ele><time>2026-05-04T10:37:17.998Z</time></trkpt><trkpt lat="37.62625333176576" lon="14.55383115126768"><ele>350.0</ele><time>2026-05-04T10:37:18.998Z</time></trkpt><trkpt lat="37.62629942741402" lon="14.553675190282316"><ele>352.8</ele><time>2026-05-04T10:37:19.998Z</time></trkpt><trkpt lat="37.62632524027333" lon="14.553511688870124"><ele>355.6</ele><time>2026-05-04T10:37:20.998Z</time></trkpt><trkpt lat="37.626349186534846" lon="14.553364804513798"><ele>358.4</ele><time>2026-05-04T10:37:21.998Z</time></trkpt><trkpt lat="37.626338669926824" lon="14.553243022498119"><ele>361.2</ele><time>2026-05-04T10:37:22.998Z</time></trkpt><trkpt lat="37.626310985828056" lon="14.553131904810213"><ele>364.0</ele><time>2026-05-04T10:37:23.998Z</time></trkpt><trkpt lat="37.62631413999252" lon="14.55303119408096"><ele>364.0</ele><time>2026-05-04T10:37:24.998Z</time></trkpt><trkpt lat="37.626295306629316" lon="14.55292467403147"><ele>364.0</ele><time>2026-05-04T10:37:25.998Z</time></trkpt><trkpt lat="37.62627446878191" lon="14.552800568333515"><ele>364.0</ele><time>2026-05-04T10:37:26.998Z</time></trkpt><trkpt lat="37.626251781404655" lon="14.552658426799997"><ele>364.0</ele><time>2026-05-04T10:37:27.998Z</time></trkpt><trkpt lat="37.62623138475398" lon="14.552528500363218"><ele>364.0</ele><time>2026-05-04T10:37:28.998Z</time></trkpt><trkpt lat="37.62621952682423" lon="14.552434261897707"><ele>365.16666666666663</ele><time>2026-05-04T10:37:29.999Z</time></trkpt><trkpt lat="37.62621064934611" lon="14.552347097759645"><ele>366.3333333333333</ele><time>2026-05-04T10:37:30.999Z</time></trkpt><trkpt lat="37.62619852039392" lon="14.552247779339115"><ele>367.5</ele><time>2026-05-04T10:37:31.999Z</time></trkpt><trkpt lat="37.626187615577464" lon="14.552137063691218"><ele>368.6666666666667</ele><time>2026-05-04T10:37:32.999Z</time></trkpt><trkpt lat="37.62617681544832" lon="14.552020305125271"><ele>369.83333333333337</ele><time>2026-05-04T10:37:33.999Z</time></trkpt><trkpt lat="37.62616797792045" lon="14.55190559881008"><ele>371.0</ele><time>2026-05-04T10:37:34.999Z</time></trkpt><trkpt lat="37.62615700390051" lon="14.55178918622496"><ele>371.0</ele><time>2026-05-04T10:37:35.999Z</time></trkpt><trkpt lat="37.62616479799744" lon="14.551685195934432"><ele>371.0</ele><time>2026-05-04T10:37:36.999Z</time></trkpt><trkpt lat="37.626174639037686" lon="14.551580753674045"><ele>371.0</ele><time>2026-05-04T10:37:37.999Z</time></trkpt><trkpt lat="37.62621188916598" lon="14.551490490787124"><ele>371.0</ele><time>2026-05-04T10:37:38.999Z</time></trkpt><trkpt lat="37.62625758115612" lon="14.551389527384323"><ele>371.0</ele><time>2026-05-04T10:37:39.999Z</time></trkpt><trkpt lat="37.62629982577371" lon="14.551278338090649"><ele>371.0</ele><time>2026-05-04T10:37:40.999Z</time></trkpt><trkpt lat="37.62635280860699" lon="14.55117781558345"><ele>370.0</ele><time>2026-05-04T10:37:41.999Z</time></trkpt><trkpt lat="37.62640498962217" lon="14.551067968547631"><ele>369.0</ele><time>2026-05-04T10:37:42.999Z</time></trkpt><trkpt lat="37.626452791843015" lon="14.550961934874362"><ele>368.0</ele><time>2026-05-04T10:37:43.999Z</time></trkpt><trkpt lat="37.62649571774976" lon="14.550861785410794"><ele>367.0</ele><time>2026-05-04T10:37:44.999Z</time></trkpt><trkpt lat="37.62655434162182" lon="14.550781397414552"><ele>366.0</ele><time>2026-05-04T10:37:45.999Z</time></trkpt><trkpt lat="37.62659478756023" lon="14.55070948796994"><ele>365.0</ele><time>2026-05-04T10:37:46.999Z</time></trkpt><trkpt lat="37.62664300809022" lon="14.55064026608598"><ele>365.0</ele><time>2026-05-04T10:37:47.999Z</time></trkpt><trkpt lat="37.626714513036504" lon="14.55057095959994"><ele>365.0</ele><time>2026-05-04T10:37:48.999Z</time></trkpt><trkpt lat="37.626790819651994" lon="14.550509942049112"><ele>365.0</ele><time>2026-05-04T10:37:49.999Z</time></trkpt><trkpt lat="37.62684623330161" lon="14.550459388969825"><ele>365.0</ele><time>2026-05-04T10:37:50.999Z</time></trkpt><trkpt lat="37.62690720971219" lon="14.550426007316775"><ele>365.0</ele><time>2026-05-04T10:37:51.999Z</time></trkpt><trkpt lat="37.62698045058293" lon="14.550342647616729"><ele>365.0</ele><time>2026-05-04T10:37:53.999Z</time></trkpt><trkpt lat="37.62702843344609" lon="14.55025322812688"><ele>366.0</ele><time>2026-05-04T10:37:55.999Z</time></trkpt><trkpt lat="37.62707785628705" lon="14.550128947283234"><ele>367.0</ele><time>2026-05-04T10:37:57.999Z</time></trkpt><trkpt lat="37.62708473861529" lon="14.550035992985961"><ele>368.0</ele><time>2026-05-04T10:37:58.999Z</time></trkpt><trkpt lat="37.62707319183927" lon="14.549900121910607"><ele>369.0</ele><time>2026-05-04T10:38:00.999Z</time></trkpt><trkpt lat="37.62708606517329" lon="14.549766108417822"><ele>370.0</ele><time>2026-05-04T10:38:03Z</time></trkpt><trkpt lat="37.627088427249944" lon="14.549654402455538"><ele>370.0</ele><time>2026-05-04T10:38:06Z</time></trkpt><trkpt lat="37.62708105629506" lon="14.549754803926355"><ele>370.0</ele><time>2026-05-04T10:38:25Z</time></trkpt><trkpt lat="37.62708788994955" lon="14.549910666011025"><ele>370.0</ele><time>2026-05-04T10:38:27Z</time></trkpt><trkpt lat="37.62708892141803" lon="14.549992378656407"><ele>370.0</ele><time>2026-05-04T10:38:28Z</time></trkpt><trkpt lat="37.62706952707148" lon="14.550117000269434"><ele>370.0</ele><time>2026-05-04T10:38:30Z</time></trkpt><trkpt lat="37.627069212951135" lon="14.55021026401371"><ele>370.0</ele><time>2026-05-04T10:38:32Z</time></trkpt><trkpt lat="37.62720045177544" lon="14.550227770544874"><ele>370.0</ele><time>2026-05-04T10:38:36Z</time></trkpt><trkpt lat="37.627291921953784" lon="14.550097306051027"><ele>370.0</ele><time>2026-05-04T10:38:37Z</time></trkpt><trkpt lat="37.627375065225" lon="14.550008746458234"><ele>370.0</ele><time>2026-05-04T10:38:38Z</time></trkpt><trkpt lat="37.62746067426936" lon="14.549917560397645"><ele>370.0</ele><time>2026-05-04T10:38:39Z</time></trkpt><trkpt lat="37.627555608732045" lon="14.549820390197738"><ele>370.0</ele><time>2026-05-04T10:38:40Z</time></trkpt><trkpt lat="37.62765251108365" lon="14.549722275193902"><ele>370.0</ele><time>2026-05-04T10:38:41Z</time></trkpt><trkpt lat="37.62772508572116" lon="14.549615703508104"><ele>370.0</ele><time>2026-05-04T10:38:42Z</time></trkpt><trkpt lat="37.62779556814837" lon="14.549515792357763"><ele>370.0</ele><time>2026-05-04T10:38:43Z</time></trkpt><trkpt lat="37.62788064857791" lon="14.549404464526587"><ele>372.75</ele><time>2026-05-04T10:38:44Z</time></trkpt><trkpt lat="37.62793819894891" lon="14.54926369650772"><ele>375.5</ele><time>2026-05-04T10:38:45Z</time></trkpt><trkpt lat="37.62800533341308" lon="14.549142286469618"><ele>378.25</ele><time>2026-05-04T10:38:46Z</time></trkpt><trkpt lat="37.628077051917295" lon="14.54901275097456"><ele>381.0</ele><time>2026-05-04T10:38:47Z</time></trkpt><trkpt lat="37.62815259188183" lon="14.548884667621369"><ele>381.0</ele><time>2026-05-04T10:38:48Z</time></trkpt><trkpt lat="37.62822664633571" lon="14.54875884744856"><ele>381.0</ele><time>2026-05-04T10:38:49Z</time></trkpt><trkpt lat="37.6283167584463" lon="14.548651824607038"><ele>381.0</ele><time>2026-05-04T10:38:50Z</time></trkpt><trkpt lat="37.628397223256215" lon="14.548534220596093"><ele>381.0</ele><time>2026-05-04T10:38:51Z</time></trkpt><trkpt lat="37.6284845981741" lon="14.548407662881214"><ele>382.5</ele><time>2026-05-04T10:38:52.001Z</time></trkpt><trkpt lat="37.62857754633983" lon="14.548276288685821"><ele>384.0</ele><time>2026-05-04T10:38:53.001Z</time></trkpt><trkpt lat="37.62866777027334" lon="14.548148757288226"><ele>385.5</ele><time>2026-05-04T10:38:54.001Z</time></trkpt><trkpt lat="37.62874041065805" lon="14.548014410544766"><ele>387.0</ele><time>2026-05-04T10:38:55.001Z</time></trkpt><trkpt lat="37.62882396078777" lon="14.547889610872481"><ele>393.0</ele><time>2026-05-04T10:38:56.001Z</time></trkpt><trkpt lat="37.628900878428794" lon="14.547754277041484"><ele>399.0</ele><time>2026-05-04T10:38:57.001Z</time></trkpt><trkpt lat="37.62899415458416" lon="14.547586656777854"><ele>405.0</ele><time>2026-05-04T10:38:58.001Z</time></trkpt><trkpt lat="37.629095470728956" lon="14.54739791253215"><ele>405.0</ele><time>2026-05-04T10:38:59.001Z</time></trkpt><trkpt lat="37.629181215657695" lon="14.547185981506601"><ele>405.0</ele><time>2026-05-04T10:39:00.001Z</time></trkpt><trkpt lat="37.629275110029184" lon="14.54702873285611"><ele>405.0</ele><time>2026-05-04T10:39:01.001Z</time></trkpt><trkpt lat="37.62934195090513" lon="14.546905536468772"><ele>405.6</ele><time>2026-05-04T10:39:02.001Z</time></trkpt><trkpt lat="37.62939267848209" lon="14.546812038973655"><ele>406.2</ele><time>2026-05-04T10:39:03.001Z</time></trkpt><trkpt lat="37.62944016150748" lon="14.546724521707842"><ele>406.79999999999995</ele><time>2026-05-04T10:39:04.001Z</time></trkpt><trkpt lat="37.62949793875445" lon="14.5466187689352"><ele>407.4</ele><time>2026-05-04T10:39:05.001Z</time></trkpt><trkpt lat="37.62957474323585" lon="14.546485869841625"><ele>408.0</ele><time>2026-05-04T10:39:06.001Z</time></trkpt><trkpt lat="37.62963969335337" lon="14.546355939758836"><ele>409.59999999999997</ele><time>2026-05-04T10:39:07.001Z</time></trkpt><trkpt lat="37.62970443258788" lon="14.546254854255693"><ele>411.2</ele><time>2026-05-04T10:39:07.999Z</time></trkpt><trkpt lat="37.62977294469006" lon="14.546166232409886"><ele>412.8</ele><time>2026-05-04T10:39:08.999Z</time></trkpt><trkpt lat="37.6298488942325" lon="14.546088266547146"><ele>414.4</ele><time>2026-05-04T10:39:09.999Z</time></trkpt><trkpt lat="37.62993472942252" lon="14.54601240811744"><ele>416.0</ele><time>2026-05-04T10:39:10.999Z</time></trkpt><trkpt lat="37.630039876171885" lon="14.545945484308517"><ele>416.5</ele><time>2026-05-04T10:39:11.999Z</time></trkpt><trkpt lat="37.63016634163364" lon="14.545870197528377"><ele>417.0</ele><time>2026-05-04T10:39:12.999Z</time></trkpt><trkpt lat="37.630310969455856" lon="14.545774147014873"><ele>417.5</ele><time>2026-05-04T10:39:13.999Z</time></trkpt><trkpt lat="37.63042270287879" lon="14.545701563527224"><ele>418.0</ele><time>2026-05-04T10:39:14.999Z</time></trkpt><trkpt lat="37.630524604334006" lon="14.545636039709127"><ele>418.0</ele><time>2026-05-04T10:39:15.999Z</time></trkpt><trkpt lat="37.630616704517024" lon="14.545570217699"><ele>418.0</ele><time>2026-05-04T10:39:16.999Z</time></trkpt><trkpt lat="37.63071193265047" lon="14.54549746544175"><ele>418.0</ele><time>2026-05-04T10:39:17.999Z</time></trkpt><trkpt lat="37.63081210211707" lon="14.54541521134327"><ele>418.0</ele><time>2026-05-04T10:39:18.999Z</time></trkpt><trkpt lat="37.630914377644736" lon="14.545329644961509"><ele>418.0</ele><time>2026-05-04T10:39:19.999Z</time></trkpt><trkpt lat="37.631017551025806" lon="14.54524362834354"><ele>418.0</ele><time>2026-05-04T10:39:20.999Z</time></trkpt><trkpt lat="37.631119696196805" lon="14.545152686704814"><ele>418.0</ele><time>2026-05-04T10:39:21.999Z</time></trkpt><trkpt lat="37.631210412380376" lon="14.545062821151834"><ele>418.0</ele><time>2026-05-04T10:39:22.999Z</time></trkpt><trkpt lat="37.63129659084459" lon="14.54497146600293"><ele>418.0</ele><time>2026-05-04T10:39:23.999Z</time></trkpt><trkpt lat="37.63138104775353" lon="14.544873930507373"><ele>418.0</ele><time>2026-05-04T10:39:24.999Z</time></trkpt><trkpt lat="37.631465562515686" lon="14.54477519214911"><ele>418.0</ele><time>2026-05-04T10:39:25.999Z</time></trkpt><trkpt lat="37.63155449948784" lon="14.544685754504606"><ele>418.0</ele><time>2026-05-04T10:39:26.999Z</time></trkpt><trkpt lat="37.63164194134863" lon="14.544618584225685"><ele>418.0</ele><time>2026-05-04T10:39:27.999Z</time></trkpt><trkpt lat="37.63172719536013" lon="14.544558770638536"><ele>417.79999999999995</ele><time>2026-05-04T10:39:28.999Z</time></trkpt><trkpt lat="37.631812957068085" lon="14.544510356846017"><ele>417.6</ele><time>2026-05-04T10:39:30Z</time></trkpt><trkpt lat="37.63190690063531" lon="14.544462317544873"><ele>417.4</ele><time>2026-05-04T10:39:31Z</time></trkpt><trkpt lat="37.632016966001935" lon="14.544413556382473"><ele>417.20000000000005</ele><time>2026-05-04T10:39:32Z</time></trkpt><trkpt lat="37.63213189508645" lon="14.544365578920784"><ele>417.0</ele><time>2026-05-04T10:39:33Z</time></trkpt><trkpt lat="37.63223917470627" lon="14.544321333753052"><ele>417.0</ele><time>2026-05-04T10:39:34Z</time></trkpt><trkpt lat="37.63234227169875" lon="14.54427915839919"><ele>417.0</ele><time>2026-05-04T10:39:35Z</time></trkpt><trkpt lat="37.63243385806918" lon="14.544224521882052"><ele>417.0</ele><time>2026-05-04T10:39:36Z</time></trkpt><trkpt lat="37.63251694402926" lon="14.544151618188629"><ele>417.0</ele><time>2026-05-04T10:39:37Z</time></trkpt><trkpt lat="37.632593177888616" lon="14.544083250615342"><ele>417.0</ele><time>2026-05-04T10:39:38Z</time></trkpt><trkpt lat="37.63268432001598" lon="14.54401492295599"><ele>417.0</ele><time>2026-05-04T10:39:39Z</time></trkpt><trkpt lat="37.632780659713255" lon="14.543936112005532"><ele>417.0</ele><time>2026-05-04T10:39:40Z</time></trkpt><trkpt lat="37.63287478286436" lon="14.543846978579884"><ele>417.0</ele><time>2026-05-04T10:39:41Z</time></trkpt><trkpt lat="37.63297246107943" lon="14.543749817595039"><ele>417.0</ele><time>2026-05-04T10:39:42Z</time></trkpt><trkpt lat="37.63307097664211" lon="14.543658698522623"><ele>417.40000000000003</ele><time>2026-05-04T10:39:43Z</time></trkpt><trkpt lat="37.63316865286481" lon="14.543574805710076"><ele>417.8</ele><time>2026-05-04T10:39:44Z</time></trkpt><trkpt lat="37.63326332873637" lon="14.543494532859052"><ele>418.2</ele><time>2026-05-04T10:39:45Z</time></trkpt><trkpt lat="37.633350237258206" lon="14.543407454498064"><ele>418.6</ele><time>2026-05-04T10:39:46Z</time></trkpt><trkpt lat="37.633435059550145" lon="14.543341363232976"><ele>419.0</ele><time>2026-05-04T10:39:47Z</time></trkpt><trkpt lat="37.633504166728635" lon="14.5432578636674"><ele>419.0</ele><time>2026-05-04T10:39:48Z</time></trkpt><trkpt lat="37.6335808052293" lon="14.543187017076923"><ele>419.0</ele><time>2026-05-04T10:39:49Z</time></trkpt><trkpt lat="37.6336447593155" lon="14.54308426522996"><ele>419.0</ele><time>2026-05-04T10:39:50Z</time></trkpt><trkpt lat="37.633716058412624" lon="14.542984559274508"><ele>419.0</ele><time>2026-05-04T10:39:51Z</time></trkpt><trkpt lat="37.63379187695291" lon="14.54288254508919"><ele>419.0</ele><time>2026-05-04T10:39:52Z</time></trkpt><trkpt lat="37.63387255883216" lon="14.542783123043538"><ele>420.6</ele><time>2026-05-04T10:39:53Z</time></trkpt><trkpt lat="37.63395547674601" lon="14.542687207315554"><ele>422.2</ele><time>2026-05-04T10:39:54Z</time></trkpt><trkpt lat="37.63403353306668" lon="14.542599599612709"><ele>423.80000000000007</ele><time>2026-05-04T10:39:55Z</time></trkpt><trkpt lat="37.63409172764793" lon="14.542534953089458"><ele>425.40000000000003</ele><time>2026-05-04T10:39:56Z</time></trkpt><trkpt lat="37.63415263453482" lon="14.5424663626489"><ele>427.0</ele><time>2026-05-04T10:39:57Z</time></trkpt><trkpt lat="37.6342248350179" lon="14.542406905531228"><ele>427.0</ele><time>2026-05-04T10:39:58Z</time></trkpt><trkpt lat="37.63429437011203" lon="14.542316955519587"><ele>427.0</ele><time>2026-05-04T10:39:59Z</time></trkpt><trkpt lat="37.634373402189524" lon="14.54222329082089"><ele>427.0</ele><time>2026-05-04T10:40:00Z</time></trkpt><trkpt lat="37.634452745913016" lon="14.542112684135448"><ele>427.0</ele><time>2026-05-04T10:40:01Z</time></trkpt><trkpt lat="37.634538658508724" lon="14.541985345939837"><ele>427.5</ele><time>2026-05-04T10:40:02Z</time></trkpt><trkpt lat="37.63463617793189" lon="14.541852462954921"><ele>428.0</ele><time>2026-05-04T10:40:03Z</time></trkpt><trkpt lat="37.63474036817211" lon="14.541704917202866"><ele>428.5</ele><time>2026-05-04T10:40:04Z</time></trkpt><trkpt lat="37.63482748836656" lon="14.541567842927085"><ele>429.0</ele><time>2026-05-04T10:40:05Z</time></trkpt><trkpt lat="37.63491567225768" lon="14.541466422944648"><ele>429.0</ele><time>2026-05-04T10:40:06Z</time></trkpt><trkpt lat="37.634982615444834" lon="14.54135662566682"><ele>429.0</ele><time>2026-05-04T10:40:07Z</time></trkpt><trkpt lat="37.635045759746454" lon="14.541257379227265"><ele>429.0</ele><time>2026-05-04T10:40:08Z</time></trkpt><trkpt lat="37.63509972874756" lon="14.541175647513871"><ele>429.0</ele><time>2026-05-04T10:40:09.001Z</time></trkpt><trkpt lat="37.635140308442054" lon="14.541092528336712"><ele>429.0</ele><time>2026-05-04T10:40:10.001Z</time></trkpt><trkpt lat="37.635221037978816" lon="14.540970358353068"><ele>428.3333333333333</ele><time>2026-05-04T10:40:12.001Z</time></trkpt><trkpt lat="37.63526595300449" lon="14.540904436734623"><ele>427.66666666666663</ele><time>2026-05-04T10:40:13.001Z</time></trkpt><trkpt lat="37.635296095828274" lon="14.540833624066584"><ele>427.0</ele><time>2026-05-04T10:40:14.001Z</time></trkpt><trkpt lat="37.63537951727377" lon="14.540735740505353"><ele>426.3333333333333</ele><time>2026-05-04T10:40:16.001Z</time></trkpt><trkpt lat="37.635418804972616" lon="14.54065916023734"><ele>425.66666666666663</ele><time>2026-05-04T10:40:17.001Z</time></trkpt><trkpt lat="37.6354764172328" lon="14.5405744507301"><ele>425.0</ele><time>2026-05-04T10:40:18.001Z</time></trkpt><trkpt lat="37.63553999054598" lon="14.540465500502973"><ele>425.8</ele><time>2026-05-04T10:40:19.001Z</time></trkpt><trkpt lat="37.63558590269462" lon="14.54034987475391"><ele>426.6</ele><time>2026-05-04T10:40:20.001Z</time></trkpt><trkpt lat="37.63563045831522" lon="14.540268597386051"><ele>427.4</ele><time>2026-05-04T10:40:21.001Z</time></trkpt><trkpt lat="37.63567731706313" lon="14.540176109233188"><ele>428.2</ele><time>2026-05-04T10:40:22.001Z</time></trkpt><trkpt lat="37.63572504309994" lon="14.540075673628973"><ele>429.0</ele><time>2026-05-04T10:40:23.001Z</time></trkpt><trkpt lat="37.635780661284535" lon="14.539971788210957"><ele>429.0</ele><time>2026-05-04T10:40:24.001Z</time></trkpt><trkpt lat="37.635820152614414" lon="14.539861025801546"><ele>429.0</ele><time>2026-05-04T10:40:25.001Z</time></trkpt><trkpt lat="37.635856077913104" lon="14.539773248728737"><ele>429.0</ele><time>2026-05-04T10:40:26.001Z</time></trkpt><trkpt lat="37.635887921414266" lon="14.539689146727918"><ele>429.0</ele><time>2026-05-04T10:40:27.001Z</time></trkpt><trkpt lat="37.63591703485105" lon="14.539604825448516"><ele>429.0</ele><time>2026-05-04T10:40:28.001Z</time></trkpt><trkpt lat="37.6359451939806" lon="14.539519406997924"><ele>429.0</ele><time>2026-05-04T10:40:29.001Z</time></trkpt><trkpt lat="37.636004253872564" lon="14.539392913237325"><ele>429.1666666666667</ele><time>2026-05-04T10:40:31.001Z</time></trkpt><trkpt lat="37.636091787940316" lon="14.539287453265098"><ele>429.33333333333337</ele><time>2026-05-04T10:40:33.001Z</time></trkpt><trkpt lat="37.63613877301607" lon="14.539229481356259"><ele>429.5</ele><time>2026-05-04T10:40:34.001Z</time></trkpt><trkpt lat="37.63618329472509" lon="14.539166578052823"><ele>429.6666666666667</ele><time>2026-05-04T10:40:35.001Z</time></trkpt><trkpt lat="37.63622779615237" lon="14.539100025800144"><ele>429.83333333333337</ele><time>2026-05-04T10:40:36.001Z</time></trkpt><trkpt lat="37.63626875682261" lon="14.539034890503286"><ele>430.0</ele><time>2026-05-04T10:40:37.001Z</time></trkpt><trkpt lat="37.6363110608868" lon="14.53897184479756"><ele>430.33333333333337</ele><time>2026-05-04T10:40:38.001Z</time></trkpt><trkpt lat="37.63635684141954" lon="14.538910597032862"><ele>430.6666666666667</ele><time>2026-05-04T10:40:39.001Z</time></trkpt><trkpt lat="37.63641342794192" lon="14.538854312092033"><ele>431.0</ele><time>2026-05-04T10:40:40.001Z</time></trkpt><trkpt lat="37.63647328091938" lon="14.538799505730747"><ele>431.33333333333337</ele><time>2026-05-04T10:40:41.001Z</time></trkpt><trkpt lat="37.636550385413514" lon="14.538762835220242"><ele>431.6666666666667</ele><time>2026-05-04T10:40:42.001Z</time></trkpt><trkpt lat="37.636616778028426" lon="14.538713984277793"><ele>432.0</ele><time>2026-05-04T10:40:43.001Z</time></trkpt><trkpt lat="37.63668580819808" lon="14.538665541326074"><ele>432.1666666666667</ele><time>2026-05-04T10:40:44.001Z</time></trkpt><trkpt lat="37.63675734782805" lon="14.538615411701876"><ele>432.33333333333337</ele><time>2026-05-04T10:40:45.001Z</time></trkpt><trkpt lat="37.63683262093264" lon="14.538564271443216"><ele>432.5</ele><time>2026-05-04T10:40:46.001Z</time></trkpt><trkpt lat="37.63690758953891" lon="14.538513730631989"><ele>432.6666666666667</ele><time>2026-05-04T10:40:47.001Z</time></trkpt><trkpt lat="37.63697997980521" lon="14.53846524019044"><ele>432.83333333333337</ele><time>2026-05-04T10:40:48.001Z</time></trkpt><trkpt lat="37.63703806468408" lon="14.538411601523066"><ele>433.0</ele><time>2026-05-04T10:40:49.001Z</time></trkpt><trkpt lat="37.63709979928929" lon="14.538365302170948"><ele>433.59999999999997</ele><time>2026-05-04T10:40:50.001Z</time></trkpt><trkpt lat="37.63716964518002" lon="14.538323181124717"><ele>434.19999999999993</ele><time>2026-05-04T10:40:51.001Z</time></trkpt><trkpt lat="37.637238982714145" lon="14.538293487415917"><ele>434.8</ele><time>2026-05-04T10:40:52.001Z</time></trkpt><trkpt lat="37.63734741028819" lon="14.538231548093652"><ele>435.4</ele><time>2026-05-04T10:40:54.001Z</time></trkpt><trkpt lat="37.637464568363875" lon="14.538160064331073"><ele>436.0</ele><time>2026-05-04T10:40:56.002Z</time></trkpt><trkpt lat="37.63753007655309" lon="14.538125893311852"><ele>436.00000000000006</ele><time>2026-05-04T10:40:57.002Z</time></trkpt><trkpt lat="37.637595377551776" lon="14.538095284882479"><ele>436.0</ele><time>2026-05-04T10:40:58.002Z</time></trkpt><trkpt lat="37.6376610544337" lon="14.538071685725152"><ele>436.0</ele><time>2026-05-04T10:40:59.002Z</time></trkpt><trkpt lat="37.637725002197" lon="14.53806164629085"><ele>436.0</ele><time>2026-05-04T10:41:00.002Z</time></trkpt><trkpt lat="37.637813175654735" lon="14.5380526731739"><ele>436.00000000000006</ele><time>2026-05-04T10:41:02.002Z</time></trkpt><trkpt lat="37.637887094129084" lon="14.538020013960445"><ele>436.0</ele><time>2026-05-04T10:41:04.002Z</time></trkpt><trkpt lat="37.63796698513469" lon="14.53798902556364"><ele>436.0</ele><time>2026-05-04T10:41:06.002Z</time></trkpt><trkpt lat="37.638068240934636" lon="14.53792125442436"><ele>436.0</ele><time>2026-05-04T10:41:08.002Z</time></trkpt><trkpt lat="37.63815146205566" lon="14.537856676346061"><ele>436.0</ele><time>2026-05-04T10:41:10.002Z</time></trkpt><trkpt lat="37.638244069292526" lon="14.537809913422961"><ele>436.0</ele><time>2026-05-04T10:41:12.002Z</time></trkpt><trkpt lat="37.63829704224633" lon="14.53774129256289"><ele>436.0</ele><time>2026-05-04T10:41:14.001Z</time></trkpt><trkpt lat="37.638379385790486" lon="14.537673904565603"><ele>437.20000000000005</ele><time>2026-05-04T10:41:16.001Z</time></trkpt><trkpt lat="37.63847963852248" lon="14.537589481906661"><ele>438.40000000000003</ele><time>2026-05-04T10:41:18.001Z</time></trkpt><trkpt lat="37.63856104683896" lon="14.53751391597119"><ele>439.6</ele><time>2026-05-04T10:41:20.001Z</time></trkpt><trkpt lat="37.63861122744013" lon="14.537464269900585"><ele>440.8</ele><time>2026-05-04T10:41:21.001Z</time></trkpt><trkpt lat="37.638696600341866" lon="14.53739883002432"><ele>442.0</ele><time>2026-05-04T10:41:23.001Z</time></trkpt><trkpt lat="37.63876102091727" lon="14.537322097389024"><ele>442.0</ele><time>2026-05-04T10:41:25.001Z</time></trkpt><trkpt lat="37.63884123829234" lon="14.53722327677701"><ele>442.00000000000006</ele><time>2026-05-04T10:41:27.001Z</time></trkpt><trkpt lat="37.6389151739315" lon="14.537130891309756"><ele>442.00000000000006</ele><time>2026-05-04T10:41:29.001Z</time></trkpt><trkpt lat="37.638980093106454" lon="14.537015017528756"><ele>442.0</ele><time>2026-05-04T10:41:31.001Z</time></trkpt><trkpt lat="37.63904387570686" lon="14.53691923399985"><ele>442.0</ele><time>2026-05-04T10:41:33.001Z</time></trkpt><trkpt lat="37.639113638211086" lon="14.536817265574385"><ele>442.14285714285717</ele><time>2026-05-04T10:41:35.001Z</time></trkpt><trkpt lat="37.63916027134397" lon="14.536763064825545"><ele>442.2857142857143</ele><time>2026-05-04T10:41:36.001Z</time></trkpt><trkpt lat="37.639214632909" lon="14.53669396771528"><ele>442.42857142857144</ele><time>2026-05-04T10:41:37.001Z</time></trkpt><trkpt lat="37.63928002399926" lon="14.536622818393163"><ele>442.57142857142856</ele><time>2026-05-04T10:41:38.001Z</time></trkpt><trkpt lat="37.63934231295828" lon="14.536552918859229"><ele>442.7142857142857</ele><time>2026-05-04T10:41:39.001Z</time></trkpt><trkpt lat="37.63938799692094" lon="14.53648983593854"><ele>442.8571428571429</ele><time>2026-05-04T10:41:40.001Z</time></trkpt><trkpt lat="37.63942854476387" lon="14.536426906790593"><ele>443.0</ele><time>2026-05-04T10:41:41.001Z</time></trkpt><trkpt lat="37.63950020986235" lon="14.536322111070971"><ele>444.66666666666663</ele><time>2026-05-04T10:41:43.001Z</time></trkpt><trkpt lat="37.6395501864551" lon="14.536263294053443"><ele>446.3333333333333</ele><time>2026-05-04T10:41:44.001Z</time></trkpt><trkpt lat="37.63959421666202" lon="14.536198671468883"><ele>448.0</ele><time>2026-05-04T10:41:45.001Z</time></trkpt><trkpt lat="37.63966430657426" lon="14.536098135155335"><ele>449.66666666666663</ele><time>2026-05-04T10:41:47.001Z</time></trkpt><trkpt lat="37.63971283680639" lon="14.535974678379361"><ele>451.3333333333333</ele><time>2026-05-04T10:41:49.001Z</time></trkpt><trkpt lat="37.63974802998046" lon="14.535869067270172"><ele>453.0</ele><time>2026-05-04T10:41:51.001Z</time></trkpt><trkpt lat="37.63976943122856" lon="14.535773375876408"><ele>453.5</ele><time>2026-05-04T10:41:53.001Z</time></trkpt><trkpt lat="37.63980383340947" lon="14.535663969963911"><ele>454.0</ele><time>2026-05-04T10:41:55.001Z</time></trkpt><trkpt lat="37.63982972517118" lon="14.535588074516735"><ele>454.5</ele><time>2026-05-04T10:41:56.001Z</time></trkpt><trkpt lat="37.639866619116255" lon="14.535510078959938"><ele>455.0</ele><time>2026-05-04T10:41:57.001Z</time></trkpt><trkpt lat="37.63990545639155" lon="14.535428971876893"><ele>455.5</ele><time>2026-05-04T10:41:58.001Z</time></trkpt><trkpt lat="37.63994165851192" lon="14.535345993454161"><ele>456.0</ele><time>2026-05-04T10:41:59.001Z</time></trkpt><trkpt lat="37.63997326634435" lon="14.53525444173851"><ele>457.0</ele><time>2026-05-04T10:42:00.001Z</time></trkpt><trkpt lat="37.63999717123551" lon="14.535154715687282"><ele>458.0</ele><time>2026-05-04T10:42:01.001Z</time></trkpt><trkpt lat="37.64002816160916" lon="14.535054155380685"><ele>459.0</ele><time>2026-05-04T10:42:02.001Z</time></trkpt><trkpt lat="37.640051531565405" lon="14.534938140465375"><ele>460.0</ele><time>2026-05-04T10:42:03.001Z</time></trkpt><trkpt lat="37.640079130921556" lon="14.534816751664358"><ele>461.0</ele><time>2026-05-04T10:42:04.001Z</time></trkpt><trkpt lat="37.64011339537884" lon="14.534693095743435"><ele>460.99999999999994</ele><time>2026-05-04T10:42:05.001Z</time></trkpt><trkpt lat="37.64015483193279" lon="14.534588757675195"><ele>461.0</ele><time>2026-05-04T10:42:06.001Z</time></trkpt><trkpt lat="37.64020040268992" lon="14.534481172745709"><ele>461.0</ele><time>2026-05-04T10:42:07.001Z</time></trkpt><trkpt lat="37.640247010175834" lon="14.534362735181507"><ele>461.0</ele><time>2026-05-04T10:42:08.001Z</time></trkpt><trkpt lat="37.640277176632104" lon="14.53427517033017"><ele>460.99999999999994</ele><time>2026-05-04T10:42:09.001Z</time></trkpt><trkpt lat="37.64030397248838" lon="14.534195088897246"><ele>461.0</ele><time>2026-05-04T10:42:10.001Z</time></trkpt><trkpt lat="37.64033199453458" lon="14.534121175859651"><ele>461.49999999999994</ele><time>2026-05-04T10:42:11.001Z</time></trkpt><trkpt lat="37.64038830271086" lon="14.533977187267086"><ele>462.0</ele><time>2026-05-04T10:42:13.001Z</time></trkpt><trkpt lat="37.640426965029654" lon="14.533908637316664"><ele>462.5</ele><time>2026-05-04T10:42:14.001Z</time></trkpt><trkpt lat="37.64047521404827" lon="14.533836495040273"><ele>463.0</ele><time>2026-05-04T10:42:15.001Z</time></trkpt><trkpt lat="37.640530680024284" lon="14.53377108808745"><ele>463.49999999999994</ele><time>2026-05-04T10:42:16.001Z</time></trkpt><trkpt lat="37.64059406912206" lon="14.533710160445073"><ele>464.0</ele><time>2026-05-04T10:42:17.001Z</time></trkpt><trkpt lat="37.640644077335935" lon="14.53365236002095"><ele>464.0</ele><time>2026-05-04T10:42:18.001Z</time></trkpt><trkpt lat="37.64068170964975" lon="14.533580259650543"><ele>464.0</ele><time>2026-05-04T10:42:19.001Z</time></trkpt><trkpt lat="37.64077123306493" lon="14.53346095536728"><ele>464.0</ele><time>2026-05-04T10:42:21.001Z</time></trkpt><trkpt lat="37.64084015187028" lon="14.533417562806624"><ele>464.0</ele><time>2026-05-04T10:42:22.001Z</time></trkpt><trkpt lat="37.64088431400517" lon="14.533348078912438"><ele>464.0</ele><time>2026-05-04T10:42:23.001Z</time></trkpt><trkpt lat="37.640982551335576" lon="14.533268894996013"><ele>463.99999999999994</ele><time>2026-05-04T10:42:25.001Z</time></trkpt><trkpt lat="37.641007316011866" lon="14.53318474036651"><ele>464.0</ele><time>2026-05-04T10:42:26.002Z</time></trkpt><trkpt lat="37.641041384161575" lon="14.533101841428488"><ele>464.0</ele><time>2026-05-04T10:42:27.002Z</time></trkpt><trkpt lat="37.64108670643034" lon="14.53301089904211"><ele>464.0</ele><time>2026-05-04T10:42:28.002Z</time></trkpt><trkpt lat="37.64112908185299" lon="14.532914954080976"><ele>463.99999999999994</ele><time>2026-05-04T10:42:29.002Z</time></trkpt><trkpt lat="37.6411788735899" lon="14.53281872616134"><ele>464.0</ele><time>2026-05-04T10:42:30.002Z</time></trkpt><trkpt lat="37.64122653221309" lon="14.532737723016407"><ele>464.16666666666663</ele><time>2026-05-04T10:42:31.002Z</time></trkpt><trkpt lat="37.64126399968785" lon="14.532664747799712"><ele>464.3333333333333</ele><time>2026-05-04T10:42:32.002Z</time></trkpt><trkpt lat="37.64129594081058" lon="14.532584628494876"><ele>464.5</ele><time>2026-05-04T10:42:33.002Z</time></trkpt><trkpt lat="37.64135376971695" lon="14.532521038736329"><ele>464.66666666666663</ele><time>2026-05-04T10:42:34.002Z</time></trkpt><trkpt lat="37.64139952192792" lon="14.532426711899724"><ele>464.8333333333333</ele><time>2026-05-04T10:42:35.002Z</time></trkpt><trkpt lat="37.64146907598487" lon="14.532342595884666"><ele>465.0</ele><time>2026-05-04T10:42:36.002Z</time></trkpt><trkpt lat="37.64153311383771" lon="14.532245064297902"><ele>465.0</ele><time>2026-05-04T10:42:37.002Z</time></trkpt><trkpt lat="37.641603438193876" lon="14.53214598669355"><ele>465.0</ele><time>2026-05-04T10:42:38.002Z</time></trkpt><trkpt lat="37.64166737951792" lon="14.532053924341122"><ele>465.0</ele><time>2026-05-04T10:42:39.002Z</time></trkpt><trkpt lat="37.64172582810515" lon="14.531970344387945"><ele>465.0</ele><time>2026-05-04T10:42:40.002Z</time></trkpt><trkpt lat="37.64178261743035" lon="14.531893948339352"><ele>465.0</ele><time>2026-05-04T10:42:41.002Z</time></trkpt><trkpt lat="37.64183650633896" lon="14.531819918209239"><ele>464.6</ele><time>2026-05-04T10:42:42.002Z</time></trkpt><trkpt lat="37.64189658908813" lon="14.531746122095146"><ele>464.2</ele><time>2026-05-04T10:42:43.002Z</time></trkpt><trkpt lat="37.641958299046834" lon="14.531671933897945"><ele>463.79999999999995</ele><time>2026-05-04T10:42:44.002Z</time></trkpt><trkpt lat="37.64203095380362" lon="14.531591324517452"><ele>463.4</ele><time>2026-05-04T10:42:45.002Z</time></trkpt><trkpt lat="37.642108259200235" lon="14.531518709027592"><ele>463.0</ele><time>2026-05-04T10:42:46.002Z</time></trkpt><trkpt lat="37.64217826379754" lon="14.531446712121996"><ele>463.0</ele><time>2026-05-04T10:42:47.002Z</time></trkpt><trkpt lat="37.64225760440554" lon="14.531372923832047"><ele>462.99999999999994</ele><time>2026-05-04T10:42:48.002Z</time></trkpt><trkpt lat="37.64234385278664" lon="14.531297055506414"><ele>462.99999999999994</ele><time>2026-05-04T10:42:49.002Z</time></trkpt><trkpt lat="37.642433458915846" lon="14.531201683818802"><ele>463.0</ele><time>2026-05-04T10:42:50.002Z</time></trkpt><trkpt lat="37.64253110762203" lon="14.531130238810224"><ele>463.0</ele><time>2026-05-04T10:42:51.002Z</time></trkpt><trkpt lat="37.64260762505034" lon="14.531031640387562"><ele>461.59999999999997</ele><time>2026-05-04T10:42:52.002Z</time></trkpt><trkpt lat="37.64268704315804" lon="14.530952763464638"><ele>460.19999999999993</ele><time>2026-05-04T10:42:53.002Z</time></trkpt><trkpt lat="37.64277059390914" lon="14.530885436838897"><ele>458.8</ele><time>2026-05-04T10:42:54.002Z</time></trkpt><trkpt lat="37.64285214246256" lon="14.530824234628104"><ele>457.4</ele><time>2026-05-04T10:42:55.002Z</time></trkpt><trkpt lat="37.642932294479934" lon="14.530764610645846"><ele>456.0</ele><time>2026-05-04T10:42:56.002Z</time></trkpt><trkpt lat="37.6430065180618" lon="14.530704747794626"><ele>456.0</ele><time>2026-05-04T10:42:57.002Z</time></trkpt><trkpt lat="37.64307486571511" lon="14.530619482369733"><ele>456.0</ele><time>2026-05-04T10:42:58.002Z</time></trkpt><trkpt lat="37.64315740022285" lon="14.530524386555916"><ele>456.0</ele><time>2026-05-04T10:42:59.002Z</time></trkpt><trkpt lat="37.643240554622054" lon="14.530427713878602"><ele>456.0</ele><time>2026-05-04T10:43:00.002Z</time></trkpt><trkpt lat="37.643332367312794" lon="14.530321936455609"><ele>456.0</ele><time>2026-05-04T10:43:01.002Z</time></trkpt><trkpt lat="37.64342265171866" lon="14.530224468110383"><ele>455.8</ele><time>2026-05-04T10:43:02.002Z</time></trkpt><trkpt lat="37.64350404520972" lon="14.530142722532261"><ele>455.6</ele><time>2026-05-04T10:43:03.002Z</time></trkpt><trkpt lat="37.64358498259531" lon="14.530062658228635"><ele>455.4</ele><time>2026-05-04T10:43:04.002Z</time></trkpt><trkpt lat="37.64367529190053" lon="14.529973323109399"><ele>455.2</ele><time>2026-05-04T10:43:05.002Z</time></trkpt><trkpt lat="37.64376807376771" lon="14.52988154209493"><ele>455.0</ele><time>2026-05-04T10:43:06.002Z</time></trkpt><trkpt lat="37.64384761757145" lon="14.52978504169487"><ele>455.0</ele><time>2026-05-04T10:43:07.002Z</time></trkpt><trkpt lat="37.64394257025981" lon="14.529723302040372"><ele>455.0</ele><time>2026-05-04T10:43:08.002Z</time></trkpt><trkpt lat="37.64402750442516" lon="14.529649739835321"><ele>455.0</ele><time>2026-05-04T10:43:09.002Z</time></trkpt><trkpt lat="37.644126527538475" lon="14.529582943800412"><ele>455.0</ele><time>2026-05-04T10:43:10.002Z</time></trkpt><trkpt lat="37.64421758300517" lon="14.529499620805264"><ele>455.0</ele><time>2026-05-04T10:43:11.002Z</time></trkpt><trkpt lat="37.64430678473827" lon="14.529430234096411"><ele>453.8333333333333</ele><time>2026-05-04T10:43:12.002Z</time></trkpt><trkpt lat="37.64439292391312" lon="14.529382912478816"><ele>452.66666666666663</ele><time>2026-05-04T10:43:13.002Z</time></trkpt><trkpt lat="37.6444552810503" lon="14.529354237228823"><ele>451.5</ele><time>2026-05-04T10:43:14.002Z</time></trkpt><trkpt lat="37.64451277304873" lon="14.529299359351887"><ele>450.33333333333337</ele><time>2026-05-04T10:43:16.002Z</time></trkpt><trkpt lat="37.64457634437504" lon="14.52925505652619"><ele>449.1666666666667</ele><time>2026-05-04T10:43:23.001Z</time></trkpt><trkpt lat="37.64470618551778" lon="14.52929078072976"><ele>448.0</ele><time>2026-05-04T10:43:25.001Z</time></trkpt><trkpt lat="37.644790121910724" lon="14.529329151521837"><ele>448.0</ele><time>2026-05-04T10:43:26.001Z</time></trkpt><trkpt lat="37.64489230633807" lon="14.529373297166503"><ele>448.0</ele><time>2026-05-04T10:43:27.001Z</time></trkpt><trkpt lat="37.64500151299072" lon="14.52944481577966"><ele>448.0</ele><time>2026-05-04T10:43:28.001Z</time></trkpt><trkpt lat="37.645123213227386" lon="14.529543648078189"><ele>448.0</ele><time>2026-05-04T10:43:29.001Z</time></trkpt><trkpt lat="37.64525149314542" lon="14.529663834726554"><ele>450.0</ele><time>2026-05-04T10:43:30.001Z</time></trkpt><trkpt lat="37.64538683662027" lon="14.529796681603978"><ele>452.0</ele><time>2026-05-04T10:43:31.001Z</time></trkpt><trkpt lat="37.64552604350732" lon="14.52991818368065"><ele>454.0</ele><time>2026-05-04T10:43:32.001Z</time></trkpt><trkpt lat="37.64564256468721" lon="14.53003231185815"><ele>454.0</ele><time>2026-05-04T10:43:33.001Z</time></trkpt><trkpt lat="37.645755247709744" lon="14.530146721578053"><ele>454.0</ele><time>2026-05-04T10:43:34.001Z</time></trkpt><trkpt lat="37.645854654735516" lon="14.530238059291282"><ele>454.0</ele><time>2026-05-04T10:43:35.001Z</time></trkpt><trkpt lat="37.64595386371011" lon="14.530330125512346"><ele>454.0</ele><time>2026-05-04T10:43:36.001Z</time></trkpt><trkpt lat="37.64607075654944" lon="14.530403340647364"><ele>455.25</ele><time>2026-05-04T10:43:37.001Z</time></trkpt><trkpt lat="37.64619166579478" lon="14.530450774282617"><ele>456.5</ele><time>2026-05-04T10:43:38.001Z</time></trkpt><trkpt lat="37.646321098028814" lon="14.530446558963648"><ele>457.75</ele><time>2026-05-04T10:43:39.001Z</time></trkpt><trkpt lat="37.64643674371194" lon="14.530393937612855"><ele>459.0</ele><time>2026-05-04T10:43:40.001Z</time></trkpt><trkpt lat="37.646540722446986" lon="14.530317348664669"><ele>459.0</ele><time>2026-05-04T10:43:41.001Z</time></trkpt><trkpt lat="37.64663315258644" lon="14.530241951312341"><ele>459.0</ele><time>2026-05-04T10:43:42.001Z</time></trkpt><trkpt lat="37.646713222094654" lon="14.530176025177184"><ele>459.0</ele><time>2026-05-04T10:43:43.001Z</time></trkpt><trkpt lat="37.64678843985088" lon="14.530116677733947"><ele>459.0</ele><time>2026-05-04T10:43:44.001Z</time></trkpt><trkpt lat="37.64685456555531" lon="14.530062555075387"><ele>459.0</ele><time>2026-05-04T10:43:45.001Z</time></trkpt><trkpt lat="37.64692030597114" lon="14.530007784337363"><ele>461.0</ele><time>2026-05-04T10:43:46.001Z</time></trkpt><trkpt lat="37.64699110115576" lon="14.529947182394068"><ele>463.0</ele><time>2026-05-04T10:43:47.001Z</time></trkpt><trkpt lat="37.64706665361626" lon="14.529883972537355"><ele>465.0</ele><time>2026-05-04T10:43:48.001Z</time></trkpt><trkpt lat="37.64714996254552" lon="14.529815895669003"><ele>467.0</ele><time>2026-05-04T10:43:49.001Z</time></trkpt><trkpt lat="37.64723278932581" lon="14.529731657124804"><ele>469.0</ele><time>2026-05-04T10:43:50.001Z</time></trkpt><trkpt lat="37.647310907478094" lon="14.529609330139209"><ele>470.0</ele><time>2026-05-04T10:43:51.001Z</time></trkpt><trkpt lat="37.647409734067324" lon="14.52946239174733"><ele>471.0</ele><time>2026-05-04T10:43:52.001Z</time></trkpt><trkpt lat="37.64748830203851" lon="14.529258042729875"><ele>472.0</ele><time>2026-05-04T10:43:53.001Z</time></trkpt><trkpt lat="37.6475660706717" lon="14.529031968355806"><ele>472.0</ele><time>2026-05-04T10:43:54.001Z</time></trkpt><trkpt lat="37.64764323380325" lon="14.52882018090369"><ele>472.0</ele><time>2026-05-04T10:43:55.001Z</time></trkpt><trkpt lat="37.64776592271618" lon="14.528632168744787"><ele>472.0</ele><time>2026-05-04T10:43:56.001Z</time></trkpt><trkpt lat="37.647920688016725" lon="14.528455639839889"><ele>476.0</ele><time>2026-05-04T10:43:57.001Z</time></trkpt><trkpt lat="37.64808920060237" lon="14.528277679211723"><ele>480.0</ele><time>2026-05-04T10:43:58.001Z</time></trkpt><trkpt lat="37.64826036011968" lon="14.528091319893946"><ele>484.0</ele><time>2026-05-04T10:43:59.001Z</time></trkpt><trkpt lat="37.648411273294585" lon="14.527935759684055"><ele>483.0</ele><time>2026-05-04T10:44:00.001Z</time></trkpt><trkpt lat="37.648520385499914" lon="14.52780608064712"><ele>482.0</ele><time>2026-05-04T10:44:01.001Z</time></trkpt><trkpt lat="37.64858021879138" lon="14.527657246967689"><ele>481.0</ele><time>2026-05-04T10:44:02.001Z</time></trkpt><trkpt lat="37.6486105045576" lon="14.527474451377687"><ele>480.0</ele><time>2026-05-04T10:44:03.001Z</time></trkpt><trkpt lat="37.64862451430555" lon="14.5272764452638"><ele>484.5</ele><time>2026-05-04T10:44:04.001Z</time></trkpt><trkpt lat="37.648638483867494" lon="14.527082229976104"><ele>489.0</ele><time>2026-05-04T10:44:05.001Z</time></trkpt><trkpt lat="37.64865881163231" lon="14.526910702401967"><ele>493.5</ele><time>2026-05-04T10:44:06.001Z</time></trkpt><trkpt lat="37.64870333185876" lon="14.526756461651514"><ele>498.0</ele><time>2026-05-04T10:44:07.001Z</time></trkpt><trkpt lat="37.64878855778229" lon="14.526620655783592"><ele>498.0</ele><time>2026-05-04T10:44:08.001Z</time></trkpt><trkpt lat="37.648895243886685" lon="14.526515300237614"><ele>497.99999999999994</ele><time>2026-05-04T10:44:09.001Z</time></trkpt><trkpt lat="37.648987431656735" lon="14.526440741608813"><ele>497.99999999999994</ele><time>2026-05-04T10:44:10.001Z</time></trkpt><trkpt lat="37.649066003140994" lon="14.526385667907602"><ele>498.0</ele><time>2026-05-04T10:44:11.001Z</time></trkpt><trkpt lat="37.649141841600446" lon="14.526342148742652"><ele>498.0</ele><time>2026-05-04T10:44:12.001Z</time></trkpt><trkpt lat="37.64922189433707" lon="14.526305341751637"><ele>498.0</ele><time>2026-05-04T10:44:13.001Z</time></trkpt><trkpt lat="37.64929085347367" lon="14.526280806371684"><ele>498.0</ele><time>2026-05-04T10:44:14.001Z</time></trkpt><trkpt lat="37.649354736465106" lon="14.52626131759906"><ele>498.0</ele><time>2026-05-04T10:44:15.001Z</time></trkpt><trkpt lat="37.64943208824558" lon="14.52623596896784"><ele>498.0</ele><time>2026-05-04T10:44:17.001Z</time></trkpt><trkpt lat="37.64950467496084" lon="14.526176932378762"><ele>498.0</ele><time>2026-05-04T10:45:25.003Z</time></trkpt><trkpt lat="37.64961747839789" lon="14.52610780265804"><ele>498.0</ele><time>2026-05-04T10:45:27.001Z</time></trkpt><trkpt lat="37.64966237074818" lon="14.526043087322833"><ele>501.75</ele><time>2026-05-04T10:45:28.001Z</time></trkpt><trkpt lat="37.649717218961044" lon="14.525958324319532"><ele>505.5</ele><time>2026-05-04T10:45:29.001Z</time></trkpt><trkpt lat="37.64971449459985" lon="14.525815575000081"><ele>509.25</ele><time>2026-05-04T10:45:30.001Z</time></trkpt><trkpt lat="37.64969784074155" lon="14.525677070532822"><ele>513.0</ele><time>2026-05-04T10:45:31.001Z</time></trkpt><trkpt lat="37.64963893919071" lon="14.52549262461651"><ele>517.6666666666666</ele><time>2026-05-04T10:45:32.001Z</time></trkpt><trkpt lat="37.64956277266377" lon="14.52528587459284"><ele>522.3333333333333</ele><time>2026-05-04T10:45:33.001Z</time></trkpt><trkpt lat="37.64949800989768" lon="14.525080502761304"><ele>527.0</ele><time>2026-05-04T10:45:34.001Z</time></trkpt><trkpt lat="37.64944261555462" lon="14.524908617997319"><ele>518.25</ele><time>2026-05-04T10:45:35.001Z</time></trkpt><trkpt lat="37.64939319996577" lon="14.524756546643735"><ele>509.5</ele><time>2026-05-04T10:45:36.001Z</time></trkpt><trkpt lat="37.64935788977052" lon="14.5246149562951"><ele>500.75</ele><time>2026-05-04T10:45:37.001Z</time></trkpt><trkpt lat="37.64935291070952" lon="14.524463652418923"><ele>492.0</ele><time>2026-05-04T10:45:38.001Z</time></trkpt><trkpt lat="37.6493884818064" lon="14.524299377433872"><ele>502.0</ele><time>2026-05-04T10:45:39.001Z</time></trkpt><trkpt lat="37.64945916487442" lon="14.52411699835533"><ele>512.0</ele><time>2026-05-04T10:45:40.001Z</time></trkpt><trkpt lat="37.64954823177092" lon="14.523910579406333"><ele>522.0</ele><time>2026-05-04T10:45:41.001Z</time></trkpt><trkpt lat="37.64962314239422" lon="14.52369884458184"><ele>522.0</ele><time>2026-05-04T10:45:42.001Z</time></trkpt><trkpt lat="37.64969775472587" lon="14.523474790357255"><ele>522.0</ele><time>2026-05-04T10:45:43.001Z</time></trkpt><trkpt lat="37.64976334580264" lon="14.523265531644846"><ele>522.0</ele><time>2026-05-04T10:45:44.001Z</time></trkpt><trkpt lat="37.6498280867306" lon="14.523076837406629"><ele>519.25</ele><time>2026-05-04T10:45:45.001Z</time></trkpt><trkpt lat="37.64989670575984" lon="14.522892099934749"><ele>516.5</ele><time>2026-05-04T10:45:46.001Z</time></trkpt><trkpt lat="37.649958812977" lon="14.522728461046373"><ele>513.75</ele><time>2026-05-04T10:45:47.001Z</time></trkpt><trkpt lat="37.65001774079475" lon="14.522572114262312"><ele>511.0</ele><time>2026-05-04T10:45:48.001Z</time></trkpt><trkpt lat="37.65008395729699" lon="14.522423140702559"><ele>511.0</ele><time>2026-05-04T10:45:49.001Z</time></trkpt><trkpt lat="37.65015868176034" lon="14.522293167703644"><ele>511.0</ele><time>2026-05-04T10:45:50.001Z</time></trkpt><trkpt lat="37.650234336316984" lon="14.522174428654925"><ele>511.0</ele><time>2026-05-04T10:45:51.001Z</time></trkpt><trkpt lat="37.650318083425056" lon="14.522054732153553"><ele>511.0</ele><time>2026-05-04T10:45:52.001Z</time></trkpt><trkpt lat="37.65040345847361" lon="14.521928098323276"><ele>518.75</ele><time>2026-05-04T10:45:53.001Z</time></trkpt><trkpt lat="37.65046617815203" lon="14.521790939113528"><ele>526.5</ele><time>2026-05-04T10:45:54.001Z</time></trkpt><trkpt lat="37.65049931877286" lon="14.521647007220176"><ele>534.25</ele><time>2026-05-04T10:45:55.001Z</time></trkpt><trkpt lat="37.65050792795671" lon="14.521464210374164"><ele>542.0</ele><time>2026-05-04T10:45:56.001Z</time></trkpt><trkpt lat="37.650503216805376" lon="14.521287457182051"><ele>537.75</ele><time>2026-05-04T10:45:57.001Z</time></trkpt><trkpt lat="37.650504441413446" lon="14.521136560578235"><ele>533.5</ele><time>2026-05-04T10:45:58.001Z</time></trkpt><trkpt lat="37.650535748491905" lon="14.52097768083302"><ele>529.25</ele><time>2026-05-04T10:45:59.001Z</time></trkpt><trkpt lat="37.65060542801889" lon="14.520834258448575"><ele>525.0</ele><time>2026-05-04T10:46:00.001Z</time></trkpt><trkpt lat="37.65073678641971" lon="14.520711662047216"><ele>525.0</ele><time>2026-05-04T10:46:01.001Z</time></trkpt><trkpt lat="37.65089551877506" lon="14.520572087607226"><ele>525.0</ele><time>2026-05-04T10:46:02.001Z</time></trkpt><trkpt lat="37.65103894625107" lon="14.520452472459642"><ele>525.0</ele><time>2026-05-04T10:46:03.001Z</time></trkpt><trkpt lat="37.651174077597354" lon="14.520399624915857"><ele>528.3333333333334</ele><time>2026-05-04T10:46:04.001Z</time></trkpt><trkpt lat="37.65132549884424" lon="14.520387438809788"><ele>531.6666666666667</ele><time>2026-05-04T10:46:05.001Z</time></trkpt><trkpt lat="37.65151554156984" lon="14.520386347218814"><ele>535.0</ele><time>2026-05-04T10:46:06.001Z</time></trkpt><trkpt lat="37.65170564965455" lon="14.520391702127913"><ele>535.0</ele><time>2026-05-04T10:46:07.001Z</time></trkpt><trkpt lat="37.651857823489344" lon="14.520373669987494"><ele>535.0</ele><time>2026-05-04T10:46:08.001Z</time></trkpt><trkpt lat="37.6519987536543" lon="14.520325926611358"><ele>535.0</ele><time>2026-05-04T10:46:09.001Z</time></trkpt><trkpt lat="37.65212516823349" lon="14.52023030871657"><ele>535.0</ele><time>2026-05-04T10:46:10.001Z</time></trkpt><trkpt lat="37.65227087825726" lon="14.520105049116236"><ele>537.0</ele><time>2026-05-04T10:46:11.001Z</time></trkpt><trkpt lat="37.65239748388592" lon="14.51997543894019"><ele>539.0</ele><time>2026-05-04T10:46:12.001Z</time></trkpt><trkpt lat="37.65250892791477" lon="14.519874826410161"><ele>541.0</ele><time>2026-05-04T10:46:13.001Z</time></trkpt><trkpt lat="37.65260062485827" lon="14.519801884319987"><ele>543.0</ele><time>2026-05-04T10:46:14.001Z</time></trkpt><trkpt lat="37.65267026221255" lon="14.519750862529966"><ele>543.0</ele><time>2026-05-04T10:46:15.001Z</time></trkpt><trkpt lat="37.65273241191199" lon="14.519733270314049"><ele>543.0</ele><time>2026-05-04T10:46:16.001Z</time></trkpt><trkpt lat="37.652814877738294" lon="14.51983292185778"><ele>543.0</ele><time>2026-05-04T10:46:18.001Z</time></trkpt><trkpt lat="37.65280111703515" lon="14.51992048826556"><ele>543.0</ele><time>2026-05-04T10:46:19.001Z</time></trkpt><trkpt lat="37.652746151122045" lon="14.52002373387477"><ele>543.0</ele><time>2026-05-04T10:46:20.001Z</time></trkpt><trkpt lat="37.652626128378024" lon="14.520110410009845"><ele>543.0</ele><time>2026-05-04T10:46:21.001Z</time></trkpt><trkpt lat="37.6525002116586" lon="14.520236900350023"><ele>543.0</ele><time>2026-05-04T10:46:22.001Z</time></trkpt><trkpt lat="37.65238753665635" lon="14.520391421720856"><ele>543.0</ele><time>2026-05-04T10:46:23.001Z</time></trkpt><trkpt lat="37.65225952029652" lon="14.520538074189625"><ele>546.6666666666666</ele><time>2026-05-04T10:46:24.001Z</time></trkpt><trkpt lat="37.65212403146369" lon="14.520672653779377"><ele>550.3333333333333</ele><time>2026-05-04T10:46:25.001Z</time></trkpt><trkpt lat="37.65193975075568" lon="14.520756860929517"><ele>554.0</ele><time>2026-05-04T10:46:26.002Z</time></trkpt><trkpt lat="37.65175955335377" lon="14.520859122339596"><ele>554.0</ele><time>2026-05-04T10:46:27.002Z</time></trkpt><trkpt lat="37.65161134641051" lon="14.52092913836249"><ele>554.0</ele><time>2026-05-04T10:46:28.002Z</time></trkpt><trkpt lat="37.651489574327634" lon="14.521004079638317"><ele>554.0</ele><time>2026-05-04T10:46:29.002Z</time></trkpt><trkpt lat="37.65138708504633" lon="14.521087149894907"><ele>554.0</ele><time>2026-05-04T10:46:30.002Z</time></trkpt><trkpt lat="37.651305508638345" lon="14.521202098396898"><ele>561.0</ele><time>2026-05-04T10:46:31.002Z</time></trkpt><trkpt lat="37.65125301474311" lon="14.521356527930013"><ele>568.0</ele><time>2026-05-04T10:46:32.002Z</time></trkpt><trkpt lat="37.65123481552254" lon="14.521543817129016"><ele>575.0</ele><time>2026-05-04T10:46:33.002Z</time></trkpt><trkpt lat="37.651233774624295" lon="14.521763857090548"><ele>575.0</ele><time>2026-05-04T10:46:34.002Z</time></trkpt><trkpt lat="37.6512179210609" lon="14.521972663026974"><ele>575.0</ele><time>2026-05-04T10:46:35.002Z</time></trkpt><trkpt lat="37.65114650820073" lon="14.522142776883005"><ele>575.0</ele><time>2026-05-04T10:46:36.002Z</time></trkpt><trkpt lat="37.65106702958506" lon="14.522273004555636"><ele>575.0</ele><time>2026-05-04T10:46:37.002Z</time></trkpt><trkpt lat="37.65100342839927" lon="14.522387688869378"><ele>577.5</ele><time>2026-05-04T10:46:38.002Z</time></trkpt><trkpt lat="37.65094494191552" lon="14.522467824838055"><ele>580.0</ele><time>2026-05-04T10:46:39.002Z</time></trkpt><trkpt lat="37.65092923324192" lon="14.522557066437777"><ele>582.5</ele><time>2026-05-04T10:46:40.002Z</time></trkpt><trkpt lat="37.6509669968728" lon="14.522656461135425"><ele>585.0</ele><time>2026-05-04T10:46:41.002Z</time></trkpt><trkpt lat="37.6510629383209" lon="14.522712387029049"><ele>587.5</ele><time>2026-05-04T10:46:42.002Z</time></trkpt><trkpt lat="37.65115114721111" lon="14.522707405276737"><ele>590.0</ele><time>2026-05-04T10:46:43.002Z</time></trkpt><trkpt lat="37.65122727882689" lon="14.5226169982393"><ele>590.0</ele><time>2026-05-04T10:46:44.002Z</time></trkpt><trkpt lat="37.65128265592499" lon="14.522496490270314"><ele>590.0</ele><time>2026-05-04T10:46:45.002Z</time></trkpt><trkpt lat="37.65134394469368" lon="14.522354916186258"><ele>590.0</ele><time>2026-05-04T10:46:46.002Z</time></trkpt><trkpt lat="37.65140212388289" lon="14.522200347110218"><ele>590.0</ele><time>2026-05-04T10:46:47.002Z</time></trkpt><trkpt lat="37.65145314798423" lon="14.521997199782703"><ele>587.0</ele><time>2026-05-04T10:46:48.002Z</time></trkpt><trkpt lat="37.651460758785724" lon="14.521809115678465"><ele>584.0</ele><time>2026-05-04T10:46:49.002Z</time></trkpt><trkpt lat="37.6514661532165" lon="14.521726061104491"><ele>581.0</ele><time>2026-05-04T10:46:50.002Z</time></trkpt><trkpt lat="37.65147805959753" lon="14.521607611749156"><ele>578.0</ele><time>2026-05-04T10:46:51.002Z</time></trkpt><trkpt lat="37.65151082991697" lon="14.521514224789641"><ele>575.0</ele><time>2026-05-04T10:46:52.002Z</time></trkpt><trkpt lat="37.65157671706337" lon="14.52146316842351"><ele>575.0</ele><time>2026-05-04T10:46:53.002Z</time></trkpt><trkpt lat="37.65168226959579" lon="14.521437552982562"><ele>575.0</ele><time>2026-05-04T10:46:54.002Z</time></trkpt><trkpt lat="37.651807013093354" lon="14.521423299307132"><ele>575.0</ele><time>2026-05-04T10:46:55.002Z</time></trkpt><trkpt lat="37.65195677498992" lon="14.521405405755091"><ele>575.0</ele><time>2026-05-04T10:46:56.002Z</time></trkpt><trkpt lat="37.652122623513016" lon="14.521375927673924"><ele>581.0</ele><time>2026-05-04T10:46:57.002Z</time></trkpt><trkpt lat="37.65229570546259" lon="14.521352514801352"><ele>587.0</ele><time>2026-05-04T10:46:58.002Z</time></trkpt><trkpt lat="37.65246052029818" lon="14.52133202633681"><ele>593.0</ele><time>2026-05-04T10:46:59.002Z</time></trkpt><trkpt lat="37.65260350816375" lon="14.52131592320692"><ele>593.0</ele><time>2026-05-04T10:47:00.002Z</time></trkpt><trkpt lat="37.65273097454795" lon="14.521289050302315"><ele>593.0</ele><time>2026-05-04T10:47:01.002Z</time></trkpt><trkpt lat="37.652847421372606" lon="14.52122189103281"><ele>593.0</ele><time>2026-05-04T10:47:02.002Z</time></trkpt><trkpt lat="37.65296886509022" lon="14.521138239096624"><ele>593.0</ele><time>2026-05-04T10:47:03.002Z</time></trkpt><trkpt lat="37.65309499807832" lon="14.521047307029832"><ele>592.0</ele><time>2026-05-04T10:47:04.002Z</time></trkpt><trkpt lat="37.65320338389668" lon="14.5209705966117"><ele>591.0</ele><time>2026-05-04T10:47:05.002Z</time></trkpt><trkpt lat="37.653300514067084" lon="14.520902414040007"><ele>590.0</ele><time>2026-05-04T10:47:06.002Z</time></trkpt><trkpt lat="37.65337682341276" lon="14.52085521788385"><ele>589.0</ele><time>2026-05-04T10:47:07.002Z</time></trkpt><trkpt lat="37.653474971754925" lon="14.520807818382009"><ele>588.0</ele><time>2026-05-04T10:47:09.002Z</time></trkpt><trkpt lat="37.65354882230253" lon="14.520743833037768"><ele>589.3333333333334</ele><time>2026-05-04T10:48:59.002Z</time></trkpt><trkpt lat="37.65363102606495" lon="14.520674611953854"><ele>590.6666666666666</ele><time>2026-05-04T10:49:01.002Z</time></trkpt><trkpt lat="37.65368784436548" lon="14.520636867788973"><ele>592.0</ele><time>2026-05-04T10:49:02.002Z</time></trkpt><trkpt lat="37.65375497343107" lon="14.520599270177064"><ele>593.3333333333333</ele><time>2026-05-04T10:49:03.002Z</time></trkpt><trkpt lat="37.65382700434633" lon="14.520561321889344"><ele>594.6666666666666</ele><time>2026-05-04T10:49:04.002Z</time></trkpt><trkpt lat="37.653909085154964" lon="14.520526865635597"><ele>596.0</ele><time>2026-05-04T10:49:05.002Z</time></trkpt><trkpt lat="37.653982190439166" lon="14.520513987159259"><ele>596.0</ele><time>2026-05-04T10:49:06.002Z</time></trkpt><trkpt lat="37.65405286640779" lon="14.52050479552162"><ele>596.0</ele><time>2026-05-04T10:49:07.002Z</time></trkpt><trkpt lat="37.65411826434815" lon="14.520508614530057"><ele>596.0</ele><time>2026-05-04T10:49:08.002Z</time></trkpt><trkpt lat="37.65424191474836" lon="14.520517982607343"><ele>596.0</ele><time>2026-05-04T10:49:10.002Z</time></trkpt><trkpt lat="37.65431066140084" lon="14.520524098219779"><ele>596.0</ele><time>2026-05-04T10:49:11.002Z</time></trkpt><trkpt lat="37.654382578789146" lon="14.520535615849742"><ele>596.0</ele><time>2026-05-04T10:49:12.002Z</time></trkpt><trkpt lat="37.654450622268804" lon="14.520550212109775"><ele>597.4285714285714</ele><time>2026-05-04T10:49:13.002Z</time></trkpt><trkpt lat="37.654524436043445" lon="14.520566526306427"><ele>598.8571428571428</ele><time>2026-05-04T10:49:14.002Z</time></trkpt><trkpt lat="37.654590243003" lon="14.520581248133192"><ele>600.2857142857142</ele><time>2026-05-04T10:49:15.002Z</time></trkpt><trkpt lat="37.65466385257859" lon="14.52059677297155"><ele>601.7142857142857</ele><time>2026-05-04T10:49:16.002Z</time></trkpt><trkpt lat="37.65473183166555" lon="14.520605585998744"><ele>603.1428571428571</ele><time>2026-05-04T10:49:17.002Z</time></trkpt><trkpt lat="37.65480839410914" lon="14.520620170640944"><ele>604.5714285714286</ele><time>2026-05-04T10:49:18.002Z</time></trkpt><trkpt lat="37.65487521145891" lon="14.520635219399736"><ele>606.0</ele><time>2026-05-04T10:49:19.002Z</time></trkpt><trkpt lat="37.65494030073409" lon="14.520641451756136"><ele>606.0</ele><time>2026-05-04T10:49:20.002Z</time></trkpt><trkpt lat="37.655025737945635" lon="14.520647845867126"><ele>606.0</ele><time>2026-05-04T10:49:22.002Z</time></trkpt><trkpt lat="37.655120375322234" lon="14.520690553788537"><ele>606.0</ele><time>2026-05-04T10:49:25.002Z</time></trkpt><trkpt lat="37.65516769815248" lon="14.520829785490593"><ele>606.0</ele><time>2026-05-04T10:49:27.002Z</time></trkpt><trkpt lat="37.65520643431674" lon="14.52093720783316"><ele>606.0</ele><time>2026-05-04T10:49:28.002Z</time></trkpt><trkpt lat="37.65524876113771" lon="14.521059052951607"><ele>606.0</ele><time>2026-05-04T10:49:29.002Z</time></trkpt><trkpt lat="37.65528050937577" lon="14.521172361557495"><ele>606.0</ele><time>2026-05-04T10:49:30.002Z</time></trkpt><trkpt lat="37.65531692719549" lon="14.521269929754219"><ele>606.0</ele><time>2026-05-04T10:49:31.002Z</time></trkpt><trkpt lat="37.65535654862342" lon="14.521355944224972"><ele>606.0</ele><time>2026-05-04T10:49:32.002Z</time></trkpt><trkpt lat="37.65540489280496" lon="14.52143712168699"><ele>606.0</ele><time>2026-05-04T10:49:33.002Z</time></trkpt><trkpt lat="37.65545595103584" lon="14.521509193655724"><ele>606.0</ele><time>2026-05-04T10:49:34.002Z</time></trkpt><trkpt lat="37.65553057522307" lon="14.521599090666363"><ele>608.6666666666666</ele><time>2026-05-04T10:49:35.002Z</time></trkpt><trkpt lat="37.655603357736375" lon="14.521642470643181"><ele>611.3333333333334</ele><time>2026-05-04T10:49:36.002Z</time></trkpt><trkpt lat="37.65565954676889" lon="14.521705357705713"><ele>614.0</ele><time>2026-05-04T10:49:37.002Z</time></trkpt><trkpt lat="37.65572570177204" lon="14.521757860104904"><ele>616.6666666666667</ele><time>2026-05-04T10:49:38.001Z</time></trkpt><trkpt lat="37.65576766232755" lon="14.521874190201755"><ele>619.3333333333334</ele><time>2026-05-04T10:49:39.001Z</time></trkpt><trkpt lat="37.65582174884181" lon="14.521924564782102"><ele>622.0</ele><time>2026-05-04T10:49:42.001Z</time></trkpt><trkpt lat="37.65587000608135" lon="14.522026373969787"><ele>623.4</ele><time>2026-05-04T10:49:43.001Z</time></trkpt><trkpt lat="37.65591831206673" lon="14.522125937523827"><ele>624.8000000000001</ele><time>2026-05-04T10:49:44.001Z</time></trkpt><trkpt lat="37.655959327190054" lon="14.522250146759527"><ele>626.2</ele><time>2026-05-04T10:49:45.001Z</time></trkpt><trkpt lat="37.655968517623414" lon="14.52240596067236"><ele>627.6</ele><time>2026-05-04T10:49:46.001Z</time></trkpt><trkpt lat="37.65599784575838" lon="14.522516305012052"><ele>629.0</ele><time>2026-05-04T10:49:47.001Z</time></trkpt><trkpt lat="37.65601660210772" lon="14.522593790129815"><ele>629.0</ele><time>2026-05-04T10:49:48.001Z</time></trkpt><trkpt lat="37.65604803141091" lon="14.522664683730092"><ele>629.0</ele><time>2026-05-04T10:49:50.001Z</time></trkpt><trkpt lat="37.656066425678176" lon="14.522782733254061"><ele>629.0</ele><time>2026-05-04T10:49:52.001Z</time></trkpt><trkpt lat="37.65609696258098" lon="14.522858284358175"><ele>629.0</ele><time>2026-05-04T10:49:53.001Z</time></trkpt><trkpt lat="37.656146165504914" lon="14.522937082445432"><ele>629.0</ele><time>2026-05-04T10:49:54.001Z</time></trkpt><trkpt lat="37.656207545364275" lon="14.52301857696884"><ele>629.0</ele><time>2026-05-04T10:49:55.001Z</time></trkpt><trkpt lat="37.656276140399804" lon="14.523065386901857"><ele>631.3333333333333</ele><time>2026-05-04T10:49:56.001Z</time></trkpt><trkpt lat="37.656375090477226" lon="14.523111567896068"><ele>633.6666666666666</ele><time>2026-05-04T10:49:58.001Z</time></trkpt><trkpt lat="37.65645363286734" lon="14.523130826134356"><ele>636.0</ele><time>2026-05-04T10:50:00.001Z</time></trkpt><trkpt lat="37.65650918582034" lon="14.523033583452495"><ele>638.3333333333334</ele><time>2026-05-04T10:50:03.001Z</time></trkpt><trkpt lat="37.6565366800606" lon="14.522951810442306"><ele>640.6666666666667</ele><time>2026-05-04T10:50:05.001Z</time></trkpt><trkpt lat="37.6565099901471" lon="14.522843565404886"><ele>643.0</ele><time>2026-05-04T10:50:07.001Z</time></trkpt><trkpt lat="37.65651401190936" lon="14.52269891956872"><ele>643.0</ele><time>2026-05-04T10:50:09.001Z</time></trkpt><trkpt lat="37.65653308050702" lon="14.522597448372382"><ele>643.0</ele><time>2026-05-04T10:50:11.001Z</time></trkpt><trkpt lat="37.656483877601715" lon="14.522526169230748"><ele>643.0</ele><time>2026-05-04T10:50:14.001Z</time></trkpt><trkpt lat="37.65645400025855" lon="14.522443760004037"><ele>643.0</ele><time>2026-05-04T10:50:16.001Z</time></trkpt><trkpt lat="37.65648204452441" lon="14.52237014717611"><ele>643.0</ele><time>2026-05-04T10:50:18.001Z</time></trkpt><trkpt lat="37.65647111348483" lon="14.522280116707822"><ele>643.0</ele><time>2026-05-04T10:50:22.001Z</time></trkpt><trkpt lat="37.656451984165926" lon="14.522190957462403"><ele>643.0</ele><time>2026-05-04T10:51:04.001Z</time></trkpt><trkpt lat="37.65646016225267" lon="14.522109129104493"><ele>643.4</ele><time>2026-05-04T10:51:06.001Z</time></trkpt><trkpt lat="37.65644105373883" lon="14.521971047642413"><ele>643.8</ele><time>2026-05-04T10:51:08.001Z</time></trkpt><trkpt lat="37.65645704737971" lon="14.52189307282893"><ele>644.2</ele><time>2026-05-04T10:51:09.001Z</time></trkpt><trkpt lat="37.65645660157937" lon="14.52178652670275"><ele>644.6</ele><time>2026-05-04T10:51:11.001Z</time></trkpt><trkpt lat="37.65645623781368" lon="14.521699584630626"><ele>645.0</ele><time>2026-05-04T10:51:14.001Z</time></trkpt><trkpt lat="37.6561330058507" lon="14.52172625703581"><ele>645.0</ele><time>2026-05-04T10:51:34.002Z</time></trkpt><trkpt lat="37.656131733337126" lon="14.521870629741727"><ele>645.0</ele><time>2026-05-04T10:51:35.002Z</time></trkpt><trkpt lat="37.65612121210554" lon="14.521953174937076"><ele>645.0</ele><time>2026-05-04T10:51:36.002Z</time></trkpt><trkpt lat="37.656103833483506" lon="14.522114905193149"><ele>645.0</ele><time>2026-05-04T10:51:37.002Z</time></trkpt><trkpt lat="37.65610052810572" lon="14.522215869433413"><ele>645.0</ele><time>2026-05-04T10:51:38.002Z</time></trkpt><trkpt lat="37.656186173748594" lon="14.522441739372983"><ele>645.0</ele><time>2026-05-04T10:51:39.002Z</time></trkpt><trkpt lat="37.656211112277845" lon="14.522534976503183"><ele>645.0</ele><time>2026-05-04T10:51:40.002Z</time></trkpt><trkpt lat="37.65636738021001" lon="14.522633965120061"><ele>645.0</ele><time>2026-05-04T10:51:41.002Z</time></trkpt><trkpt lat="37.65641884148888" lon="14.522704507099755"><ele>645.0</ele><time>2026-05-04T10:51:43.002Z</time></trkpt><trkpt lat="37.65644176563203" lon="14.522825894476433"><ele>645.0</ele><time>2026-05-04T10:51:45Z</time></trkpt><trkpt lat="37.656455642786014" lon="14.522932575196666"><ele>645.0</ele><time>2026-05-04T10:51:47Z</time></trkpt><trkpt lat="37.656504151372424" lon="14.523010011258146"><ele>645.0</ele><time>2026-05-04T10:51:49Z</time></trkpt><trkpt lat="37.65657216752483" lon="14.523032558606888"><ele>645.0</ele><time>2026-05-04T10:51:50Z</time></trkpt><trkpt lat="37.65659101469515" lon="14.52316129464339"><ele>645.0</ele><time>2026-05-04T10:51:52Z</time></trkpt><trkpt lat="37.65660437949746" lon="14.523280308265104"><ele>645.0</ele><time>2026-05-04T10:51:54Z</time></trkpt><trkpt lat="37.656621445815006" lon="14.5234135653383"><ele>645.0</ele><time>2026-05-04T10:51:56Z</time></trkpt><trkpt lat="37.65665552169698" lon="14.523558606441336"><ele>645.0</ele><time>2026-05-04T10:51:58Z</time></trkpt><trkpt lat="37.65665954999827" lon="14.523656390447385"><ele>645.0</ele><time>2026-05-04T10:52:00Z</time></trkpt><trkpt lat="37.65664318666911" lon="14.523545996734365"><ele>645.0</ele><time>2026-05-04T10:52:24.001Z</time></trkpt><trkpt lat="37.656864329967185" lon="14.523511946736283"><ele>645.0</ele><time>2026-05-04T10:52:28.001Z</time></trkpt><trkpt lat="37.65693272407242" lon="14.52348707614033"><ele>645.0</ele><time>2026-05-04T10:52:29.001Z</time></trkpt><trkpt lat="37.65703042315571" lon="14.523452873008878"><ele>645.0</ele><time>2026-05-04T10:52:30.001Z</time></trkpt><trkpt lat="37.657094022047524" lon="14.523432975606065"><ele>645.0</ele><time>2026-05-04T10:52:31.001Z</time></trkpt><trkpt lat="37.657169701717066" lon="14.523432075520718"><ele>645.0</ele><time>2026-05-04T10:52:38.001Z</time></trkpt><trkpt lat="37.65717268314707" lon="14.523623878397064"><ele>644.3333333333334</ele><time>2026-05-04T10:52:39.001Z</time></trkpt><trkpt lat="37.65718987701631" lon="14.523728921476856"><ele>643.6666666666666</ele><time>2026-05-04T10:52:40.001Z</time></trkpt><trkpt lat="37.65720868455479" lon="14.523822406045085"><ele>643.0</ele><time>2026-05-04T10:52:41.001Z</time></trkpt><trkpt lat="37.657245374317796" lon="14.523899310885131"><ele>642.3333333333333</ele><time>2026-05-04T10:52:42.001Z</time></trkpt><trkpt lat="37.65726654778306" lon="14.523980282244702"><ele>641.6666666666666</ele><time>2026-05-04T10:52:43.001Z</time></trkpt><trkpt lat="37.65730576238507" lon="14.52412584894811"><ele>641.0</ele><time>2026-05-04T10:52:45.001Z</time></trkpt><trkpt lat="37.657326985698354" lon="14.524214735285703"><ele>641.0</ele><time>2026-05-04T10:52:46.001Z</time></trkpt><trkpt lat="37.65735255584593" lon="14.524304459294964"><ele>641.0</ele><time>2026-05-04T10:52:47.001Z</time></trkpt><trkpt lat="37.6573738673714" lon="14.524392083740869"><ele>641.0</ele><time>2026-05-04T10:52:48.001Z</time></trkpt><trkpt lat="37.657393659640825" lon="14.524489435391187"><ele>641.0</ele><time>2026-05-04T10:52:49.001Z</time></trkpt><trkpt lat="37.657418181486264" lon="14.524596638726047"><ele>641.0</ele><time>2026-05-04T10:52:50.001Z</time></trkpt><trkpt lat="37.65745021758305" lon="14.5247093980237"><ele>641.0</ele><time>2026-05-04T10:52:51.001Z</time></trkpt><trkpt lat="37.65747304998728" lon="14.524829786091495"><ele>643.5</ele><time>2026-05-04T10:52:52.001Z</time></trkpt><trkpt lat="37.65750362547262" lon="14.524954764330248"><ele>646.0</ele><time>2026-05-04T10:52:53.001Z</time></trkpt><trkpt lat="37.657547167294105" lon="14.525092163994254"><ele>648.5</ele><time>2026-05-04T10:52:54.001Z</time></trkpt><trkpt lat="37.657581128561056" lon="14.5252380910479"><ele>651.0</ele><time>2026-05-04T10:52:55.001Z</time></trkpt><trkpt lat="37.65761648306896" lon="14.525398702153398"><ele>654.0</ele><time>2026-05-04T10:52:56.001Z</time></trkpt><trkpt lat="37.65765947977472" lon="14.52556880394069"><ele>657.0</ele><time>2026-05-04T10:52:57.001Z</time></trkpt><trkpt lat="37.657697690228524" lon="14.525730419441146"><ele>660.0</ele><time>2026-05-04T10:52:58.001Z</time></trkpt><trkpt lat="37.65773795451763" lon="14.525872342190398"><ele>663.0</ele><time>2026-05-04T10:52:59.001Z</time></trkpt><trkpt lat="37.657770504938014" lon="14.525992016710441"><ele>657.1999999999999</ele><time>2026-05-04T10:53:00.001Z</time></trkpt><trkpt lat="37.657797729054366" lon="14.526109722547718"><ele>651.4</ele><time>2026-05-04T10:53:01.001Z</time></trkpt><trkpt lat="37.6578290007342" lon="14.526220791362022"><ele>645.5999999999999</ele><time>2026-05-04T10:53:02.001Z</time></trkpt><trkpt lat="37.657856537971846" lon="14.526327913775697"><ele>639.8</ele><time>2026-05-04T10:53:03.001Z</time></trkpt><trkpt lat="37.65788851613686" lon="14.526432623081037"><ele>634.0</ele><time>2026-05-04T10:53:04.001Z</time></trkpt><trkpt lat="37.657910285044046" lon="14.526554849319947"><ele>634.0</ele><time>2026-05-04T10:53:05.001Z</time></trkpt><trkpt lat="37.65792236899163" lon="14.526677320920008"><ele>634.0</ele><time>2026-05-04T10:53:06.001Z</time></trkpt><trkpt lat="37.65793077216861" lon="14.526791451382694"><ele>634.0</ele><time>2026-05-04T10:53:07.001Z</time></trkpt><trkpt lat="37.65794231455092" lon="14.526893247333028"><ele>634.0</ele><time>2026-05-04T10:53:08.001Z</time></trkpt><trkpt lat="37.65794256468507" lon="14.526984166863722"><ele>634.0</ele><time>2026-05-04T10:53:09.001Z</time></trkpt><trkpt lat="37.65795858273885" lon="14.52706608343033"><ele>634.0</ele><time>2026-05-04T10:53:10.001Z</time></trkpt><trkpt lat="37.65795589197192" lon="14.527193911108043"><ele>635.75</ele><time>2026-05-04T10:53:12.001Z</time></trkpt><trkpt lat="37.65796236810784" lon="14.527308544892213"><ele>637.5</ele><time>2026-05-04T10:53:15.001Z</time></trkpt><trkpt lat="37.65797181858394" lon="14.527387334958846"><ele>639.25</ele><time>2026-05-04T10:53:18.001Z</time></trkpt><trkpt lat="37.658158851350684" lon="14.527282738012621"><ele>641.0</ele><time>2026-05-04T10:53:28.001Z</time></trkpt><trkpt lat="37.65813608033405" lon="14.527408139597727"><ele>641.0</ele><time>2026-05-04T10:53:32.001Z</time></trkpt><trkpt lat="37.658177571082796" lon="14.527520168453355"><ele>641.0</ele><time>2026-05-04T10:53:33.001Z</time></trkpt><trkpt lat="37.658235252911346" lon="14.527634829250747"><ele>641.0</ele><time>2026-05-04T10:53:34.001Z</time></trkpt><trkpt lat="37.658307394871684" lon="14.5277570193013"><ele>641.0</ele><time>2026-05-04T10:53:35.001Z</time></trkpt><trkpt lat="37.6583888091415" lon="14.527900499082168"><ele>638.0</ele><time>2026-05-04T10:53:36.001Z</time></trkpt><trkpt lat="37.658474892090666" lon="14.52805776696432"><ele>635.0</ele><time>2026-05-04T10:53:37.001Z</time></trkpt><trkpt lat="37.6585552773908" lon="14.528201415379154"><ele>632.0</ele><time>2026-05-04T10:53:38.001Z</time></trkpt><trkpt lat="37.65861329140598" lon="14.528334337210335"><ele>629.0</ele><time>2026-05-04T10:53:39.001Z</time></trkpt><trkpt lat="37.65867563575935" lon="14.52844707920295"><ele>629.0</ele><time>2026-05-04T10:53:40.001Z</time></trkpt><trkpt lat="37.65873364897614" lon="14.528510826152287"><ele>629.0</ele><time>2026-05-04T10:53:42.001Z</time></trkpt><trkpt lat="37.658830612048554" lon="14.528601117734823"><ele>629.0</ele><time>2026-05-04T10:53:45.001Z</time></trkpt><trkpt lat="37.65887795808971" lon="14.528653765405704"><ele>629.0</ele><time>2026-05-04T10:53:46.001Z</time></trkpt><trkpt lat="37.65892962337081" lon="14.528798272515738"><ele>629.0</ele><time>2026-05-04T10:53:48.001Z</time></trkpt><trkpt lat="37.65897499548423" lon="14.528947294688635"><ele>630.1666666666666</ele><time>2026-05-04T10:53:50Z</time></trkpt><trkpt lat="37.65899115559685" lon="14.529038853096232"><ele>631.3333333333333</ele><time>2026-05-04T10:53:51Z</time></trkpt><trkpt lat="37.65900921499664" lon="14.529127292586516"><ele>632.5</ele><time>2026-05-04T10:53:52Z</time></trkpt><trkpt lat="37.65903705858882" lon="14.529214222221475"><ele>633.6666666666666</ele><time>2026-05-04T10:53:54Z</time></trkpt><trkpt lat="37.65910909153439" lon="14.529239812608292"><ele>634.8333333333334</ele><time>2026-05-04T10:53:57Z</time></trkpt><trkpt lat="37.65921231047593" lon="14.529233531959772"><ele>636.0</ele><time>2026-05-04T10:53:59Z</time></trkpt><trkpt lat="37.659296492807826" lon="14.529259917882664"><ele>636.0</ele><time>2026-05-04T10:54:01Z</time></trkpt><trkpt lat="37.659398814746375" lon="14.529320828776097"><ele>636.0</ele><time>2026-05-04T10:54:03Z</time></trkpt><trkpt lat="37.659501911228936" lon="14.529364220219094"><ele>636.0</ele><time>2026-05-04T10:54:05Z</time></trkpt><trkpt lat="37.65962369253492" lon="14.52939610841452"><ele>636.0</ele><time>2026-05-04T10:54:07Z</time></trkpt><trkpt lat="37.65973947837513" lon="14.529436579360594"><ele>631.8</ele><time>2026-05-04T10:54:09Z</time></trkpt><trkpt lat="37.65984607314634" lon="14.52947999087519"><ele>627.6</ele><time>2026-05-04T10:54:11Z</time></trkpt><trkpt lat="37.659912861142445" lon="14.52954406837622"><ele>623.4</ele><time>2026-05-04T10:54:14Z</time></trkpt><trkpt lat="37.65996311374521" lon="14.529603357000019"><ele>619.2</ele><time>2026-05-04T10:54:16Z</time></trkpt><trkpt lat="37.66004096763796" lon="14.529673391442602"><ele>615.0</ele><time>2026-05-04T10:54:18Z</time></trkpt><trkpt lat="37.66013070882318" lon="14.529720912329696"><ele>615.0</ele><time>2026-05-04T10:54:20Z</time></trkpt><trkpt lat="37.66021413032924" lon="14.529754288979204"><ele>615.0</ele><time>2026-05-04T10:54:22Z</time></trkpt><trkpt lat="37.660303712219324" lon="14.529790673762326"><ele>615.0</ele><time>2026-05-04T10:54:24Z</time></trkpt><trkpt lat="37.660387187745" lon="14.529814110424818"><ele>615.0</ele><time>2026-05-04T10:54:26Z</time></trkpt><trkpt lat="37.66045907619594" lon="14.529833023635202"><ele>615.0</ele><time>2026-05-04T10:54:29Z</time></trkpt><trkpt lat="37.660340203024795" lon="14.529812174706091"><ele>615.0</ele><time>2026-05-04T10:54:46.001Z</time></trkpt><trkpt lat="37.66027352526569" lon="14.529790744465224"><ele>615.0</ele><time>2026-05-04T10:54:47.001Z</time></trkpt><trkpt lat="37.66020869583233" lon="14.529761742665752"><ele>615.0</ele><time>2026-05-04T10:54:48.001Z</time></trkpt><trkpt lat="37.660145013861225" lon="14.52973019472562"><ele>615.0</ele><time>2026-05-04T10:54:49.001Z</time></trkpt><trkpt lat="37.66008129817755" lon="14.52970290178084"><ele>615.0</ele><time>2026-05-04T10:54:50.001Z</time></trkpt><trkpt lat="37.660029608341105" lon="14.529626319947809"><ele>615.0</ele><time>2026-05-04T10:54:51.001Z</time></trkpt><trkpt lat="37.6599744093967" lon="14.529573318933227"><ele>615.0</ele><time>2026-05-04T10:54:52.001Z</time></trkpt><trkpt lat="37.659917305962516" lon="14.529519091549547"><ele>615.0</ele><time>2026-05-04T10:54:53.001Z</time></trkpt><trkpt lat="37.65985752456293" lon="14.529464699812047"><ele>615.0</ele><time>2026-05-04T10:54:54.001Z</time></trkpt><trkpt lat="37.65979392572923" lon="14.529420143342474"><ele>615.0</ele><time>2026-05-04T10:54:55.001Z</time></trkpt><trkpt lat="37.6597130838094" lon="14.529390487037999"><ele>615.0</ele><time>2026-05-04T10:54:56.001Z</time></trkpt><trkpt lat="37.65962059639828" lon="14.529363384028906"><ele>615.0</ele><time>2026-05-04T10:54:57.001Z</time></trkpt><trkpt lat="37.65953793043919" lon="14.529339656660502"><ele>615.0</ele><time>2026-05-04T10:54:58.001Z</time></trkpt><trkpt lat="37.65946415021192" lon="14.529311722251013"><ele>618.5</ele><time>2026-05-04T10:54:59.001Z</time></trkpt><trkpt lat="37.6593896084011" lon="14.529275627708301"><ele>622.0</ele><time>2026-05-04T10:55:00.001Z</time></trkpt><trkpt lat="37.65931567004876" lon="14.529238582663854"><ele>625.5</ele><time>2026-05-04T10:55:01.001Z</time></trkpt><trkpt lat="37.65924361854711" lon="14.52921347020382"><ele>629.0</ele><time>2026-05-04T10:55:02.001Z</time></trkpt><trkpt lat="37.659125350743125" lon="14.529190394750069"><ele>632.5</ele><time>2026-05-04T10:55:04.001Z</time></trkpt><trkpt lat="37.659034821234876" lon="14.529160742366454"><ele>636.0</ele><time>2026-05-04T10:55:06.001Z</time></trkpt><trkpt lat="37.659031629720744" lon="14.529072733596614"><ele>636.0</ele><time>2026-05-04T10:55:09.001Z</time></trkpt><trkpt lat="37.65900529521779" lon="14.528997274707576"><ele>636.0</ele><time>2026-05-04T10:55:10.001Z</time></trkpt><trkpt lat="37.65900987284946" lon="14.528906013863748"><ele>636.0</ele><time>2026-05-04T10:55:11.001Z</time></trkpt><trkpt lat="37.65899163823153" lon="14.528829198976016"><ele>636.0</ele><time>2026-05-04T10:55:14.001Z</time></trkpt><trkpt lat="37.65900533623996" lon="14.52893302209717"><ele>636.0</ele><time>2026-05-04T10:56:27Z</time></trkpt><trkpt lat="37.65902182293123" lon="14.529019450295825"><ele>636.0</ele><time>2026-05-04T10:56:29Z</time></trkpt><trkpt lat="37.659039609405596" lon="14.529108375415055"><ele>636.0</ele><time>2026-05-04T10:56:31Z</time></trkpt><trkpt lat="37.659069455726495" lon="14.529204292764788"><ele>636.0</ele><time>2026-05-04T10:56:34Z</time></trkpt><trkpt lat="37.65910222865483" lon="14.52927378467072"><ele>636.0</ele><time>2026-05-04T10:56:38Z</time></trkpt><trkpt lat="37.65924826895417" lon="14.529254011563442"><ele>636.0</ele><time>2026-05-04T10:56:39Z</time></trkpt><trkpt lat="37.6593566719111" lon="14.529303769596531"><ele>636.0</ele><time>2026-05-04T10:56:41Z</time></trkpt><trkpt lat="37.659469255102266" lon="14.52934935599749"><ele>636.0</ele><time>2026-05-04T10:56:43Z</time></trkpt><trkpt lat="37.65952933622596" lon="14.52937323458566"><ele>632.5</ele><time>2026-05-04T10:56:44Z</time></trkpt><trkpt lat="37.65964869101066" lon="14.52940077084807"><ele>629.0</ele><time>2026-05-04T10:56:46Z</time></trkpt><trkpt lat="37.6597174689947" lon="14.529426481404652"><ele>625.5</ele><time>2026-05-04T10:56:47Z</time></trkpt><trkpt lat="37.65978122469777" lon="14.529458004531474"><ele>622.0</ele><time>2026-05-04T10:56:48Z</time></trkpt><trkpt lat="37.659847475865014" lon="14.529495469541674"><ele>618.5</ele><time>2026-05-04T10:56:49Z</time></trkpt><trkpt lat="37.65990176085025" lon="14.529544640454022"><ele>615.0</ele><time>2026-05-04T10:56:50Z</time></trkpt><trkpt lat="37.65995667785026" lon="14.529602758383529"><ele>615.0</ele><time>2026-05-04T10:56:51Z</time></trkpt><trkpt lat="37.66001134559941" lon="14.529659975058001"><ele>615.0</ele><time>2026-05-04T10:56:52Z</time></trkpt><trkpt lat="37.66011562580522" lon="14.52972719281857"><ele>615.0</ele><time>2026-05-04T10:56:54.001Z</time></trkpt><trkpt lat="37.660194100215065" lon="14.529748264694554"><ele>615.0</ele><time>2026-05-04T10:56:55.001Z</time></trkpt><trkpt lat="37.66026057376865" lon="14.529778708332417"><ele>615.0</ele><time>2026-05-04T10:56:56.001Z</time></trkpt><trkpt lat="37.660331009038416" lon="14.529808577212048"><ele>615.0</ele><time>2026-05-04T10:56:57.001Z</time></trkpt><trkpt lat="37.66039779373159" lon="14.529833798716842"><ele>610.4</ele><time>2026-05-04T10:56:58.001Z</time></trkpt><trkpt lat="37.66052263397946" lon="14.529843057513737"><ele>605.8</ele><time>2026-05-04T10:57:00.001Z</time></trkpt><trkpt lat="37.66065081089918" lon="14.529855585381268"><ele>601.2</ele><time>2026-05-04T10:57:02.001Z</time></trkpt><trkpt lat="37.66074365574302" lon="14.529874697591053"><ele>596.6</ele><time>2026-05-04T10:57:04.001Z</time></trkpt><trkpt lat="37.66080373646218" lon="14.529849766989432"><ele>592.0</ele><time>2026-05-04T10:57:10.001Z</time></trkpt><trkpt lat="37.66089927856876" lon="14.52989644901029"><ele>592.0</ele><time>2026-05-04T10:57:19.001Z</time></trkpt><trkpt lat="37.66102028724221" lon="14.529928339559866"><ele>592.0</ele><time>2026-05-04T10:57:21.001Z</time></trkpt><trkpt lat="37.661094273706375" lon="14.529942686888635"><ele>592.0</ele><time>2026-05-04T10:57:22.001Z</time></trkpt><trkpt lat="37.661172808151456" lon="14.529936359565175"><ele>592.0</ele><time>2026-05-04T10:57:23.001Z</time></trkpt><trkpt lat="37.66125573443013" lon="14.529957755836714"><ele>592.0</ele><time>2026-05-04T10:57:24.001Z</time></trkpt><trkpt lat="37.661337290439846" lon="14.529975486957918"><ele>592.0</ele><time>2026-05-04T10:57:25.001Z</time></trkpt><trkpt lat="37.66140622542786" lon="14.529985365326201"><ele>588.8333333333334</ele><time>2026-05-04T10:57:26.001Z</time></trkpt><trkpt lat="37.66147342443666" lon="14.529980386802018"><ele>585.6666666666667</ele><time>2026-05-04T10:57:27.001Z</time></trkpt><trkpt lat="37.6615489566791" lon="14.529972998007088"><ele>582.5</ele><time>2026-05-04T10:57:28.001Z</time></trkpt><trkpt lat="37.66163356527859" lon="14.52996360814714"><ele>579.3333333333334</ele><time>2026-05-04T10:57:29.001Z</time></trkpt><trkpt lat="37.661725052071795" lon="14.529955644787323"><ele>576.1666666666666</ele><time>2026-05-04T10:57:30.001Z</time></trkpt><trkpt lat="37.661800649198284" lon="14.529946079300206"><ele>573.0</ele><time>2026-05-04T10:57:31.001Z</time></trkpt><trkpt lat="37.66187163916241" lon="14.52993710846946"><ele>570.8333333333334</ele><time>2026-05-04T10:57:32.001Z</time></trkpt><trkpt lat="37.661950635534495" lon="14.529937340843553"><ele>568.6666666666666</ele><time>2026-05-04T10:57:33.001Z</time></trkpt><trkpt lat="37.66203339084751" lon="14.529933079362461"><ele>566.5</ele><time>2026-05-04T10:57:34.001Z</time></trkpt><trkpt lat="37.66211739425948" lon="14.529925143847079"><ele>564.3333333333333</ele><time>2026-05-04T10:57:35.001Z</time></trkpt><trkpt lat="37.662197841369306" lon="14.529962012766061"><ele>562.1666666666666</ele><time>2026-05-04T10:57:36.001Z</time></trkpt><trkpt lat="37.662283483260026" lon="14.529984404544312"><ele>560.0</ele><time>2026-05-04T10:57:37.001Z</time></trkpt><trkpt lat="37.66236002603462" lon="14.529985369090472"><ele>560.0</ele><time>2026-05-04T10:57:38.001Z</time></trkpt><trkpt lat="37.66248185883433" lon="14.529977603178274"><ele>560.0</ele><time>2026-05-04T10:57:40.001Z</time></trkpt><trkpt lat="37.662543753404336" lon="14.529948376653055"><ele>560.0</ele><time>2026-05-04T10:57:41.001Z</time></trkpt><trkpt lat="37.662608267115935" lon="14.529914100069833"><ele>560.0</ele><time>2026-05-04T10:57:42.001Z</time></trkpt><trkpt lat="37.662675320797526" lon="14.52989270505505"><ele>560.0</ele><time>2026-05-04T10:57:43.001Z</time></trkpt><trkpt lat="37.662775725914535" lon="14.529882812430618"><ele>560.0</ele><time>2026-05-04T10:57:45.001Z</time></trkpt><trkpt lat="37.6628528987116" lon="14.52988060783299"><ele>558.4</ele><time>2026-05-04T10:57:47.001Z</time></trkpt><trkpt lat="37.66296070043494" lon="14.529955214572565"><ele>556.8</ele><time>2026-05-04T10:57:49.001Z</time></trkpt><trkpt lat="37.66302426312575" lon="14.53001849309283"><ele>555.2</ele><time>2026-05-04T10:57:50.001Z</time></trkpt><trkpt lat="37.66309499942566" lon="14.530075974145069"><ele>553.6</ele><time>2026-05-04T10:57:51.001Z</time></trkpt><trkpt lat="37.663170041670824" lon="14.530125187694033"><ele>552.0</ele><time>2026-05-04T10:57:52.001Z</time></trkpt><trkpt lat="37.663242592391526" lon="14.530183406328746"><ele>552.0</ele><time>2026-05-04T10:57:53.001Z</time></trkpt><trkpt lat="37.66332146677051" lon="14.530234150078439"><ele>552.0</ele><time>2026-05-04T10:57:54.001Z</time></trkpt><trkpt lat="37.66341416158483" lon="14.530282639981644"><ele>552.0</ele><time>2026-05-04T10:57:55.001Z</time></trkpt><trkpt lat="37.663501310678896" lon="14.530321681004889"><ele>552.0</ele><time>2026-05-04T10:57:56.001Z</time></trkpt><trkpt lat="37.66358748650737" lon="14.530354043392437"><ele>552.0</ele><time>2026-05-04T10:57:57.001Z</time></trkpt><trkpt lat="37.663668057434535" lon="14.53037436852907"><ele>551.1666666666666</ele><time>2026-05-04T10:57:58.001Z</time></trkpt><trkpt lat="37.66374995967186" lon="14.530378815382582"><ele>550.3333333333334</ele><time>2026-05-04T10:57:59.001Z</time></trkpt><trkpt lat="37.66383903222236" lon="14.53039532003501"><ele>549.5</ele><time>2026-05-04T10:58:00.001Z</time></trkpt><trkpt lat="37.66392421312207" lon="14.530412591819996"><ele>548.6666666666667</ele><time>2026-05-04T10:58:01.001Z</time></trkpt><trkpt lat="37.664006636327" lon="14.5304160125762"><ele>547.8333333333334</ele><time>2026-05-04T10:58:02Z</time></trkpt><trkpt lat="37.66409672126623" lon="14.53040073267794"><ele>547.0</ele><time>2026-05-04T10:58:03Z</time></trkpt><trkpt lat="37.66417873189451" lon="14.530400439903408"><ele>547.0</ele><time>2026-05-04T10:58:04Z</time></trkpt><trkpt lat="37.664264176495195" lon="14.53040939545607"><ele>547.0</ele><time>2026-05-04T10:58:05Z</time></trkpt><trkpt lat="37.66435601360881" lon="14.530413553135642"><ele>547.0</ele><time>2026-05-04T10:58:06Z</time></trkpt><trkpt lat="37.66443557150349" lon="14.530447581567584"><ele>547.0</ele><time>2026-05-04T10:58:07Z</time></trkpt><trkpt lat="37.66450862063893" lon="14.530467831195253"><ele>547.0</ele><time>2026-05-04T10:58:08Z</time></trkpt><trkpt lat="37.66457540618173" lon="14.53046788922142"><ele>547.0</ele><time>2026-05-04T10:58:09Z</time></trkpt><trkpt lat="37.664654037642975" lon="14.530477802789338"><ele>545.3333333333334</ele><time>2026-05-04T10:58:10Z</time></trkpt><trkpt lat="37.66473410733902" lon="14.530486907119773"><ele>543.6666666666667</ele><time>2026-05-04T10:58:11Z</time></trkpt><trkpt lat="37.66480398190312" lon="14.530505753833582"><ele>542.0</ele><time>2026-05-04T10:58:12Z</time></trkpt><trkpt lat="37.66486941065536" lon="14.530507625460181"><ele>540.3333333333334</ele><time>2026-05-04T10:58:13Z</time></trkpt><trkpt lat="37.66498388856846" lon="14.530507243762953"><ele>538.6666666666666</ele><time>2026-05-04T10:58:15Z</time></trkpt><trkpt lat="37.66509569591495" lon="14.530489588674065"><ele>537.0</ele><time>2026-05-04T10:58:17Z</time></trkpt><trkpt lat="37.66515418060798" lon="14.530456021876418"><ele>537.0</ele><time>2026-05-04T10:58:18Z</time></trkpt><trkpt lat="37.665245972208275" lon="14.530432306768096"><ele>537.0</ele><time>2026-05-04T10:58:20Z</time></trkpt><trkpt lat="37.66531553001094" lon="14.530402978552205"><ele>537.0</ele><time>2026-05-04T10:58:22Z</time></trkpt><trkpt lat="37.66546922565637" lon="14.530252811288179"><ele>537.0</ele><time>2026-05-04T10:58:24Z</time></trkpt><trkpt lat="37.665537228785965" lon="14.530188911956765"><ele>537.0</ele><time>2026-05-04T10:58:25Z</time></trkpt><trkpt lat="37.66559767727679" lon="14.530145596675483"><ele>535.0</ele><time>2026-05-04T10:58:26Z</time></trkpt><trkpt lat="37.665659136052874" lon="14.530125006405619"><ele>533.0</ele><time>2026-05-04T10:58:27Z</time></trkpt><trkpt lat="37.66576822331009" lon="14.530122074419689"><ele>531.0</ele><time>2026-05-04T10:58:29Z</time></trkpt><trkpt lat="37.66584596447011" lon="14.530141146832566"><ele>529.0</ele><time>2026-05-04T10:58:31Z</time></trkpt><trkpt lat="37.66591883653072" lon="14.530175882158323"><ele>527.0</ele><time>2026-05-04T10:58:33Z</time></trkpt><trkpt lat="37.665980224927225" lon="14.530240560694935"><ele>525.0</ele><time>2026-05-04T10:58:35Z</time></trkpt><trkpt lat="37.66605813156033" lon="14.530301560880437"><ele>522.8</ele><time>2026-05-04T10:58:37Z</time></trkpt><trkpt lat="37.666168300131844" lon="14.530364265678829"><ele>520.6</ele><time>2026-05-04T10:58:39Z</time></trkpt><trkpt lat="37.66622903203023" lon="14.530391233457634"><ele>518.4</ele><time>2026-05-04T10:58:40Z</time></trkpt><trkpt lat="37.66633276998136" lon="14.530437016930462"><ele>516.2</ele><time>2026-05-04T10:58:42Z</time></trkpt><trkpt lat="37.66643698856683" lon="14.530506924912734"><ele>514.0</ele><time>2026-05-04T10:58:44Z</time></trkpt><trkpt lat="37.66648731764552" lon="14.53056468089441"><ele>512.6666666666667</ele><time>2026-05-04T10:58:45Z</time></trkpt><trkpt lat="37.666509127133956" lon="14.530643248661024"><ele>511.33333333333337</ele><time>2026-05-04T10:58:46Z</time></trkpt><trkpt lat="37.666584766722586" lon="14.530743937524647"><ele>510.0</ele><time>2026-05-04T10:58:48Z</time></trkpt><trkpt lat="37.666693005558066" lon="14.53081700474177"><ele>508.66666666666663</ele><time>2026-05-04T10:58:50Z</time></trkpt><trkpt lat="37.66675951609015" lon="14.530838821997675"><ele>507.3333333333333</ele><time>2026-05-04T10:58:51Z</time></trkpt><trkpt lat="37.666833908577495" lon="14.530839933403088"><ele>506.0</ele><time>2026-05-04T10:58:52Z</time></trkpt><trkpt lat="37.66692283615269" lon="14.53084749887287"><ele>503.4</ele><time>2026-05-04T10:58:53Z</time></trkpt><trkpt lat="37.66702578820536" lon="14.530869315935508"><ele>500.8</ele><time>2026-05-04T10:58:54Z</time></trkpt><trkpt lat="37.66712329301754" lon="14.530882507068647"><ele>498.19999999999993</ele><time>2026-05-04T10:58:55Z</time></trkpt><trkpt lat="37.667207282128565" lon="14.53089374006542"><ele>495.59999999999997</ele><time>2026-05-04T10:58:56Z</time></trkpt><trkpt lat="37.66729198841192" lon="14.530911521043564"><ele>493.0</ele><time>2026-05-04T10:58:57Z</time></trkpt><trkpt lat="37.66736849403096" lon="14.530945643804904"><ele>493.0</ele><time>2026-05-04T10:58:58Z</time></trkpt><trkpt lat="37.66742997915812" lon="14.531024010622708"><ele>492.99999999999994</ele><time>2026-05-04T10:58:59Z</time></trkpt><trkpt lat="37.66750913662218" lon="14.531081132962878"><ele>492.99999999999994</ele><time>2026-05-04T10:59:00Z</time></trkpt><trkpt lat="37.66758758237742" lon="14.53115581130145"><ele>493.0</ele><time>2026-05-04T10:59:01Z</time></trkpt><trkpt lat="37.6676713298139" lon="14.53121333552867"><ele>493.0</ele><time>2026-05-04T10:59:02Z</time></trkpt><trkpt lat="37.66775093532539" lon="14.531257762810844"><ele>489.1666666666667</ele><time>2026-05-04T10:59:03Z</time></trkpt><trkpt lat="37.667822635900805" lon="14.531293373488886"><ele>485.33333333333337</ele><time>2026-05-04T10:59:04Z</time></trkpt><trkpt lat="37.66788845085982" lon="14.531329641987584"><ele>481.5</ele><time>2026-05-04T10:59:05Z</time></trkpt><trkpt lat="37.66797451087759" lon="14.531354866288662"><ele>477.66666666666663</ele><time>2026-05-04T10:59:06Z</time></trkpt><trkpt lat="37.668047717322594" lon="14.53134719498898"><ele>473.8333333333333</ele><time>2026-05-04T10:59:07Z</time></trkpt><trkpt lat="37.66811517776692" lon="14.531336136271962"><ele>470.0</ele><time>2026-05-04T10:59:08Z</time></trkpt><trkpt lat="37.66818917082376" lon="14.531339983049618"><ele>470.0</ele><time>2026-05-04T10:59:09Z</time></trkpt><trkpt lat="37.66825183172256" lon="14.531351873358375"><ele>470.0</ele><time>2026-05-04T10:59:10Z</time></trkpt><trkpt lat="37.668384328604326" lon="14.531345601126972"><ele>470.0</ele><time>2026-05-04T10:59:12.001Z</time></trkpt><trkpt lat="37.668458727639695" lon="14.53129941224228"><ele>470.0</ele><time>2026-05-04T10:59:13.001Z</time></trkpt><trkpt lat="37.6685415421529" lon="14.531267959629433"><ele>470.0</ele><time>2026-05-04T10:59:14.001Z</time></trkpt><trkpt lat="37.668607614082305" lon="14.531196609475765"><ele>467.71428571428567</ele><time>2026-05-04T10:59:15.001Z</time></trkpt><trkpt lat="37.66866256343544" lon="14.531137837521102"><ele>465.4285714285714</ele><time>2026-05-04T10:59:16.001Z</time></trkpt><trkpt lat="37.668716293878546" lon="14.53108183250058"><ele>463.1428571428571</ele><time>2026-05-04T10:59:17.001Z</time></trkpt><trkpt lat="37.66877705641548" lon="14.531029578554845"><ele>460.8571428571429</ele><time>2026-05-04T10:59:18.001Z</time></trkpt><trkpt lat="37.66883380569165" lon="14.530989044183846"><ele>458.5714285714286</ele><time>2026-05-04T10:59:19.001Z</time></trkpt><trkpt lat="37.66889433043811" lon="14.530948908383623"><ele>456.28571428571433</ele><time>2026-05-04T10:59:20.001Z</time></trkpt><trkpt lat="37.668954913910994" lon="14.530911983255875"><ele>454.0</ele><time>2026-05-04T10:59:21.001Z</time></trkpt><trkpt lat="37.66902383100496" lon="14.530867429128442"><ele>454.00000000000006</ele><time>2026-05-04T10:59:22.001Z</time></trkpt><trkpt lat="37.66907974595669" lon="14.530822549489912"><ele>454.0</ele><time>2026-05-04T10:59:23.001Z</time></trkpt><trkpt lat="37.66914226937168" lon="14.530756548123183"><ele>454.0</ele><time>2026-05-04T10:59:24.001Z</time></trkpt><trkpt lat="37.66919493008887" lon="14.530672207360661"><ele>454.0</ele><time>2026-05-04T10:59:25.001Z</time></trkpt><trkpt lat="37.669238397241344" lon="14.53058986337552"><ele>454.00000000000006</ele><time>2026-05-04T10:59:26.001Z</time></trkpt><trkpt lat="37.66927619237536" lon="14.530524433841737"><ele>454.0</ele><time>2026-05-04T10:59:27.001Z</time></trkpt><trkpt lat="37.66937498261244" lon="14.530436748466519"><ele>455.0</ele><time>2026-05-04T10:59:29.001Z</time></trkpt><trkpt lat="37.669448734194354" lon="14.53036577731286"><ele>456.0</ele><time>2026-05-04T10:59:31.001Z</time></trkpt><trkpt lat="37.6694979756771" lon="14.530269522028263"><ele>457.0</ele><time>2026-05-04T10:59:33.001Z</time></trkpt><trkpt lat="37.66950134980419" lon="14.530144665627654"><ele>458.0</ele><time>2026-05-04T10:59:35.001Z</time></trkpt><trkpt lat="37.66945523755831" lon="14.530014503979913"><ele>459.0</ele><time>2026-05-04T10:59:37.001Z</time></trkpt><trkpt lat="37.66940895682517" lon="14.529934333776344"><ele>455.3333333333333</ele><time>2026-05-04T10:59:39.001Z</time></trkpt><trkpt lat="37.669487429285695" lon="14.529875454555158"><ele>451.66666666666663</ele><time>2026-05-04T10:59:41.001Z</time></trkpt><trkpt lat="37.66955180815589" lon="14.529799074513722"><ele>448.0</ele><time>2026-05-04T10:59:43.001Z</time></trkpt><trkpt lat="37.66964222622528" lon="14.529702287471833"><ele>444.3333333333333</ele><time>2026-05-04T10:59:45.001Z</time></trkpt><trkpt lat="37.669694147938536" lon="14.529643794677535"><ele>440.66666666666663</ele><time>2026-05-04T10:59:46.001Z</time></trkpt><trkpt lat="37.66974146066563" lon="14.529589736699515"><ele>437.0</ele><time>2026-05-04T10:59:47.001Z</time></trkpt><trkpt lat="37.66979495846818" lon="14.529528611833328"><ele>436.99999999999994</ele><time>2026-05-04T10:59:48.001Z</time></trkpt><trkpt lat="37.66985249079291" lon="14.529462877309"><ele>437.0</ele><time>2026-05-04T10:59:49.001Z</time></trkpt><trkpt lat="37.669902955484424" lon="14.529405217975777"><ele>437.0</ele><time>2026-05-04T10:59:50.001Z</time></trkpt><trkpt lat="37.66995359281228" lon="14.529347361432682"><ele>437.0</ele><time>2026-05-04T10:59:51.001Z</time></trkpt><trkpt lat="37.670000862905006" lon="14.52929335217518"><ele>436.99999999999994</ele><time>2026-05-04T10:59:52.001Z</time></trkpt><trkpt lat="37.67005046983111" lon="14.52923952684819"><ele>437.0</ele><time>2026-05-04T10:59:53.001Z</time></trkpt><trkpt lat="37.670136112633905" lon="14.52914006561674"><ele>436.99999999999994</ele><time>2026-05-04T10:59:55.001Z</time></trkpt><trkpt lat="37.67022843391761" lon="14.529058072429981"><ele>437.0</ele><time>2026-05-04T10:59:57.001Z</time></trkpt><trkpt lat="37.670262582315495" lon="14.528976932328169"><ele>437.0</ele><time>2026-05-04T10:59:58.001Z</time></trkpt><trkpt lat="37.67031316065935" lon="14.528903432323244"><ele>437.0</ele><time>2026-05-04T10:59:59.001Z</time></trkpt><trkpt lat="37.6703638105956" lon="14.528814690178281"><ele>436.99999999999994</ele><time>2026-05-04T11:00:00.001Z</time></trkpt><trkpt lat="37.670428325362316" lon="14.52875598046645"><ele>437.0</ele><time>2026-05-04T11:00:01.001Z</time></trkpt><trkpt lat="37.67052986435954" lon="14.528681588908084"><ele>432.8</ele><time>2026-05-04T11:00:03.001Z</time></trkpt><trkpt lat="37.67059362724117" lon="14.528637345074213"><ele>428.6</ele><time>2026-05-04T11:00:04.001Z</time></trkpt><trkpt lat="37.67067313096791" lon="14.52854175467023"><ele>424.40000000000003</ele><time>2026-05-04T11:00:06.001Z</time></trkpt><trkpt lat="37.670725830984814" lon="14.528420912638946"><ele>420.20000000000005</ele><time>2026-05-04T11:00:08Z</time></trkpt><trkpt lat="37.67075933745426" lon="14.528283203217379"><ele>416.0</ele><time>2026-05-04T11:00:10Z</time></trkpt><trkpt lat="37.67077589621859" lon="14.52820140170155"><ele>416.0</ele><time>2026-05-04T11:00:11Z</time></trkpt><trkpt lat="37.670822740011666" lon="14.52805727002306"><ele>416.0</ele><time>2026-05-04T11:00:13Z</time></trkpt><trkpt lat="37.670861000793714" lon="14.527917587462573"><ele>416.0</ele><time>2026-05-04T11:00:15Z</time></trkpt><trkpt lat="37.67086954455366" lon="14.527771699044493"><ele>416.0</ele><time>2026-05-04T11:00:17Z</time></trkpt><trkpt lat="37.67089779643339" lon="14.52763461742064"><ele>415.4</ele><time>2026-05-04T11:00:19Z</time></trkpt><trkpt lat="37.67091986963856" lon="14.527558553427662"><ele>414.8</ele><time>2026-05-04T11:00:20Z</time></trkpt><trkpt lat="37.67093719276841" lon="14.527413928218097"><ele>414.2</ele><time>2026-05-04T11:00:22Z</time></trkpt><trkpt lat="37.67095956052861" lon="14.527282126628792"><ele>413.59999999999997</ele><time>2026-05-04T11:00:24Z</time></trkpt><trkpt lat="37.671043110520515" lon="14.527197760765162"><ele>413.0</ele><time>2026-05-04T11:00:26Z</time></trkpt><trkpt lat="37.67110337489638" lon="14.527150389800196"><ele>410.0</ele><time>2026-05-04T11:00:27Z</time></trkpt><trkpt lat="37.67115903903638" lon="14.527096551658065"><ele>407.0</ele><time>2026-05-04T11:00:28Z</time></trkpt><trkpt lat="37.671255525554606" lon="14.526995760085692"><ele>404.0</ele><time>2026-05-04T11:00:30Z</time></trkpt><trkpt lat="37.671348728050994" lon="14.526907370986363"><ele>401.0</ele><time>2026-05-04T11:00:32Z</time></trkpt><trkpt lat="37.67141014818886" lon="14.526841880924517"><ele>398.0</ele><time>2026-05-04T11:00:34Z</time></trkpt><trkpt lat="37.67150513819096" lon="14.526791316427436"><ele>398.0</ele><time>2026-05-04T11:00:36Z</time></trkpt><trkpt lat="37.67156593922416" lon="14.526770304251913"><ele>398.0</ele><time>2026-05-04T11:00:39Z</time></trkpt><trkpt lat="37.67156811755304" lon="14.526868556375907"><ele>398.0</ele><time>2026-05-04T11:00:42Z</time></trkpt><trkpt lat="37.671562661096445" lon="14.52700639552869"><ele>398.0</ele><time>2026-05-04T11:00:44Z</time></trkpt><trkpt lat="37.67152107241694" lon="14.527170166225815"><ele>398.0</ele><time>2026-05-04T11:00:46Z</time></trkpt><trkpt lat="37.671487021495174" lon="14.527272859406464"><ele>397.79999999999995</ele><time>2026-05-04T11:00:47Z</time></trkpt><trkpt lat="37.671432493554676" lon="14.527385875404057"><ele>397.6</ele><time>2026-05-04T11:00:49Z</time></trkpt><trkpt lat="37.671414356237285" lon="14.527479022900886"><ele>397.4</ele><time>2026-05-04T11:00:51Z</time></trkpt><trkpt lat="37.67149262551637" lon="14.527598142593053"><ele>397.20000000000005</ele><time>2026-05-04T11:00:52Z</time></trkpt><trkpt lat="37.671511569735166" lon="14.527734882036532"><ele>397.0</ele><time>2026-05-04T11:00:53Z</time></trkpt><trkpt lat="37.67150022903458" lon="14.52789798903365"><ele>397.0</ele><time>2026-05-04T11:00:54Z</time></trkpt><trkpt lat="37.671516608538134" lon="14.52808651470806"><ele>397.0</ele><time>2026-05-04T11:00:55Z</time></trkpt><trkpt lat="37.67157843376654" lon="14.528298859816827"><ele>397.0</ele><time>2026-05-04T11:00:56Z</time></trkpt><trkpt lat="37.67164379128078" lon="14.528523762314725"><ele>397.0</ele><time>2026-05-04T11:00:57Z</time></trkpt><trkpt lat="37.67168862619964" lon="14.528723717012376"><ele>397.0</ele><time>2026-05-04T11:00:58Z</time></trkpt><trkpt lat="37.67171003579316" lon="14.52892409585976"><ele>397.0</ele><time>2026-05-04T11:00:59Z</time></trkpt><trkpt lat="37.67174366136793" lon="14.529137714136862"><ele>397.0</ele><time>2026-05-04T11:01:00Z</time></trkpt><trkpt lat="37.67178817128502" lon="14.529362832765742"><ele>397.0</ele><time>2026-05-04T11:01:01Z</time></trkpt><trkpt lat="37.671828106582126" lon="14.529612112231844"><ele>397.0</ele><time>2026-05-04T11:01:02Z</time></trkpt><trkpt lat="37.67186906052884" lon="14.529866198210353"><ele>397.0</ele><time>2026-05-04T11:01:03Z</time></trkpt><trkpt lat="37.6719183127714" lon="14.530135723397324"><ele>397.0</ele><time>2026-05-04T11:01:04Z</time></trkpt><trkpt lat="37.67196185679881" lon="14.530382992378478"><ele>397.0</ele><time>2026-05-04T11:01:05Z</time></trkpt><trkpt lat="37.671994568828865" lon="14.53060947931923"><ele>392.0</ele><time>2026-05-04T11:01:06Z</time></trkpt><trkpt lat="37.6720306150344" lon="14.530828376686605"><ele>387.0</ele><time>2026-05-04T11:01:07Z</time></trkpt><trkpt lat="37.672069690606314" lon="14.531047946425808"><ele>382.0</ele><time>2026-05-04T11:01:08Z</time></trkpt><trkpt lat="37.6721086551613" lon="14.53127927883397"><ele>381.3333333333333</ele><time>2026-05-04T11:01:09Z</time></trkpt><trkpt lat="37.67215169512089" lon="14.531506372651604"><ele>380.6666666666667</ele><time>2026-05-04T11:01:10Z</time></trkpt><trkpt lat="37.6721886472729" lon="14.531717098055347"><ele>380.0</ele><time>2026-05-04T11:01:11Z</time></trkpt><trkpt lat="37.67220866685172" lon="14.53192548512053"><ele>379.0</ele><time>2026-05-04T11:01:12Z</time></trkpt><trkpt lat="37.672241754279824" lon="14.532114446499559"><ele>378.0</ele><time>2026-05-04T11:01:13Z</time></trkpt><trkpt lat="37.67227625952381" lon="14.532306475598329"><ele>377.0</ele><time>2026-05-04T11:01:14Z</time></trkpt><trkpt lat="37.67232223130244" lon="14.532480564680373"><ele>377.0</ele><time>2026-05-04T11:01:15Z</time></trkpt><trkpt lat="37.67234294344492" lon="14.532647188277672"><ele>377.0</ele><time>2026-05-04T11:01:16Z</time></trkpt><trkpt lat="37.67237351222074" lon="14.532797734411185"><ele>377.0</ele><time>2026-05-04T11:01:17Z</time></trkpt><trkpt lat="37.67243242033339" lon="14.53293379383996"><ele>377.0</ele><time>2026-05-04T11:01:18Z</time></trkpt><trkpt lat="37.67252466022784" lon="14.533037564898596"><ele>377.25</ele><time>2026-05-04T11:01:19Z</time></trkpt><trkpt lat="37.67264634844844" lon="14.533099373383056"><ele>377.5</ele><time>2026-05-04T11:01:20.001Z</time></trkpt><trkpt lat="37.67277455521071" lon="14.533121999306738"><ele>377.75</ele><time>2026-05-04T11:01:21.001Z</time></trkpt><trkpt lat="37.67291543786665" lon="14.533090987358944"><ele>378.0</ele><time>2026-05-04T11:01:22.001Z</time></trkpt><trkpt lat="37.67305552656066" lon="14.533013021676938"><ele>377.0</ele><time>2026-05-04T11:01:23.001Z</time></trkpt><trkpt lat="37.673205113245196" lon="14.532897052633038"><ele>376.0</ele><time>2026-05-04T11:01:24.001Z</time></trkpt><trkpt lat="37.67337123504891" lon="14.532762191007183"><ele>375.0</ele><time>2026-05-04T11:01:25.001Z</time></trkpt><trkpt lat="37.67354947159892" lon="14.532635410743328"><ele>374.0</ele><time>2026-05-04T11:01:26.001Z</time></trkpt><trkpt lat="37.673733678687675" lon="14.532502829271488"><ele>373.0</ele><time>2026-05-04T11:01:27.001Z</time></trkpt><trkpt lat="37.67393010514574" lon="14.532361808083579"><ele>372.0</ele><time>2026-05-04T11:01:28.001Z</time></trkpt><trkpt lat="37.67412152524431" lon="14.53221748408373"><ele>372.0</ele><time>2026-05-04T11:01:29.001Z</time></trkpt><trkpt lat="37.67431704702515" lon="14.532080791563732"><ele>372.0</ele><time>2026-05-04T11:01:30.001Z</time></trkpt><trkpt lat="37.674500105947686" lon="14.531957473751307"><ele>372.0</ele><time>2026-05-04T11:01:31.001Z</time></trkpt><trkpt lat="37.67466526500572" lon="14.531845855538837"><ele>373.3333333333333</ele><time>2026-05-04T11:01:32.001Z</time></trkpt><trkpt lat="37.67482783903671" lon="14.531737690663837"><ele>374.66666666666663</ele><time>2026-05-04T11:01:33.001Z</time></trkpt><trkpt lat="37.67498766129891" lon="14.531630749505043"><ele>376.0</ele><time>2026-05-04T11:01:34.001Z</time></trkpt><trkpt lat="37.67515012166972" lon="14.531517193184909"><ele>375.66666666666663</ele><time>2026-05-04T11:01:35.001Z</time></trkpt><trkpt lat="37.675312833220914" lon="14.531395956651659"><ele>375.3333333333333</ele><time>2026-05-04T11:01:36.001Z</time></trkpt><trkpt lat="37.67547922414994" lon="14.531275543144194"><ele>375.0</ele><time>2026-05-04T11:01:37.001Z</time></trkpt><trkpt lat="37.675643746944004" lon="14.531162158594054"><ele>376.6666666666667</ele><time>2026-05-04T11:01:38.001Z</time></trkpt><trkpt lat="37.67578972995173" lon="14.531063720819766"><ele>378.33333333333337</ele><time>2026-05-04T11:01:39.001Z</time></trkpt><trkpt lat="37.675923774124406" lon="14.530977315006329"><ele>380.0</ele><time>2026-05-04T11:01:40.001Z</time></trkpt><trkpt lat="37.6760511659833" lon="14.530923385691871"><ele>383.0</ele><time>2026-05-04T11:01:41.001Z</time></trkpt><trkpt lat="37.6761828400564" lon="14.530911969292701"><ele>386.0</ele><time>2026-05-04T11:01:42.001Z</time></trkpt><trkpt lat="37.676335363792006" lon="14.530932533476417"><ele>389.0</ele><time>2026-05-04T11:01:43.001Z</time></trkpt><trkpt lat="37.67648027222255" lon="14.531047257672233"><ele>389.0</ele><time>2026-05-04T11:01:44.001Z</time></trkpt><trkpt lat="37.67663786825632" lon="14.53119437663427"><ele>389.0</ele><time>2026-05-04T11:01:45.001Z</time></trkpt><trkpt lat="37.67681363744331" lon="14.53136564863969"><ele>389.0</ele><time>2026-05-04T11:01:46.001Z</time></trkpt><trkpt lat="37.67698133625275" lon="14.531552370813499"><ele>389.3333333333333</ele><time>2026-05-04T11:01:47.001Z</time></trkpt><trkpt lat="37.677156485010244" lon="14.53174607389956"><ele>389.66666666666663</ele><time>2026-05-04T11:01:48.001Z</time></trkpt><trkpt lat="37.67730344179755" lon="14.53193075728897"><ele>390.0</ele><time>2026-05-04T11:01:49.001Z</time></trkpt><trkpt lat="37.677469740101195" lon="14.532063728817816"><ele>390.66666666666663</ele><time>2026-05-04T11:01:50.001Z</time></trkpt><trkpt lat="37.677626129962135" lon="14.532166284994778"><ele>391.3333333333333</ele><time>2026-05-04T11:01:51.001Z</time></trkpt><trkpt lat="37.67778603322963" lon="14.532245006936892"><ele>392.0</ele><time>2026-05-04T11:01:52.001Z</time></trkpt><trkpt lat="37.677955852252104" lon="14.53228097362596"><ele>392.0</ele><time>2026-05-04T11:01:53.001Z</time></trkpt><trkpt lat="37.67815020643321" lon="14.532256577365352"><ele>392.0</ele><time>2026-05-04T11:01:54.001Z</time></trkpt><trkpt lat="37.67836727408917" lon="14.53219351965433"><ele>392.0</ele><time>2026-05-04T11:01:55.001Z</time></trkpt><trkpt lat="37.6785944742792" lon="14.532074684708734"><ele>398.5</ele><time>2026-05-04T11:01:56.001Z</time></trkpt><trkpt lat="37.67880207463125" lon="14.531971408834552"><ele>405.0</ele><time>2026-05-04T11:01:57.001Z</time></trkpt><trkpt lat="37.67901378984158" lon="14.531868070187434"><ele>405.0</ele><time>2026-05-04T11:01:58.001Z</time></trkpt><trkpt lat="37.67922905961786" lon="14.531760156127039"><ele>405.0</ele><time>2026-05-04T11:01:59.001Z</time></trkpt><trkpt lat="37.67943200796571" lon="14.531648216312451"><ele>405.33333333333337</ele><time>2026-05-04T11:02:00.001Z</time></trkpt><trkpt lat="37.67962006281128" lon="14.531535192952335"><ele>405.6666666666667</ele><time>2026-05-04T11:02:01.001Z</time></trkpt><trkpt lat="37.67978828682375" lon="14.53141052008411"><ele>406.0</ele><time>2026-05-04T11:02:02.001Z</time></trkpt><trkpt lat="37.6799565064252" lon="14.53129115108324"><ele>410.33333333333337</ele><time>2026-05-04T11:02:03.001Z</time></trkpt><trkpt lat="37.68011826764798" lon="14.53116831450796"><ele>414.66666666666663</ele><time>2026-05-04T11:02:04.001Z</time></trkpt><trkpt lat="37.68027871546411" lon="14.531041347264328"><ele>419.0</ele><time>2026-05-04T11:02:05.001Z</time></trkpt><trkpt lat="37.680446225662116" lon="14.53090948891706"><ele>421.0</ele><time>2026-05-04T11:02:06.001Z</time></trkpt><trkpt lat="37.680622290269945" lon="14.53077824500227"><ele>423.0</ele><time>2026-05-04T11:02:07.001Z</time></trkpt><trkpt lat="37.680802462915786" lon="14.530650368065235"><ele>425.0</ele><time>2026-05-04T11:02:08.001Z</time></trkpt><trkpt lat="37.68099199816892" lon="14.53052823612035"><ele>422.0</ele><time>2026-05-04T11:02:09.001Z</time></trkpt><trkpt lat="37.68119691100566" lon="14.53040032877991"><ele>419.0</ele><time>2026-05-04T11:02:10.001Z</time></trkpt><trkpt lat="37.68141214579607" lon="14.530284354516631"><ele>426.0</ele><time>2026-05-04T11:02:11.001Z</time></trkpt><trkpt lat="37.68163163155317" lon="14.530187380737495"><ele>433.0</ele><time>2026-05-04T11:02:12.001Z</time></trkpt><trkpt lat="37.68184607455646" lon="14.530099208432148"><ele>432.6666666666667</ele><time>2026-05-04T11:02:13Z</time></trkpt><trkpt lat="37.68205387034989" lon="14.530023147422492"><ele>432.33333333333337</ele><time>2026-05-04T11:02:14Z</time></trkpt><trkpt lat="37.682259868516404" lon="14.529939085090282"><ele>432.0</ele><time>2026-05-04T11:02:15Z</time></trkpt><trkpt lat="37.68245949451326" lon="14.529861716991787"><ele>432.0</ele><time>2026-05-04T11:02:16Z</time></trkpt><trkpt lat="37.68265629509202" lon="14.529792274564704"><ele>432.0</ele><time>2026-05-04T11:02:17Z</time></trkpt><trkpt lat="37.68284074017243" lon="14.529729105539106"><ele>432.0</ele><time>2026-05-04T11:02:18Z</time></trkpt><trkpt lat="37.68301004424164" lon="14.529670028657936"><ele>432.33333333333337</ele><time>2026-05-04T11:02:19Z</time></trkpt><trkpt lat="37.68316928207583" lon="14.529614009664655"><ele>432.6666666666667</ele><time>2026-05-04T11:02:20Z</time></trkpt><trkpt lat="37.68331047511647" lon="14.529551667691276"><ele>433.0</ele><time>2026-05-04T11:02:21Z</time></trkpt><trkpt lat="37.68345949307019" lon="14.529473495603943"><ele>436.33333333333337</ele><time>2026-05-04T11:02:22Z</time></trkpt><trkpt lat="37.68361660321742" lon="14.529371169641683"><ele>439.66666666666663</ele><time>2026-05-04T11:02:23Z</time></trkpt><trkpt lat="37.68378737299135" lon="14.529242271583842"><ele>443.0</ele><time>2026-05-04T11:02:24Z</time></trkpt><trkpt lat="37.68395312381375" lon="14.52911707449963"><ele>443.0</ele><time>2026-05-04T11:02:25Z</time></trkpt><trkpt lat="37.68410301462519" lon="14.52897637367022"><ele>443.0</ele><time>2026-05-04T11:02:26Z</time></trkpt><trkpt lat="37.68424335015404" lon="14.528847527460416"><ele>443.0</ele><time>2026-05-04T11:02:27Z</time></trkpt><trkpt lat="37.684388634834235" lon="14.528739623092681"><ele>444.0</ele><time>2026-05-04T11:02:28Z</time></trkpt><trkpt lat="37.684536074928324" lon="14.528643812813524"><ele>445.0</ele><time>2026-05-04T11:02:29Z</time></trkpt><trkpt lat="37.68469843043393" lon="14.528580840981661"><ele>446.0</ele><time>2026-05-04T11:02:30Z</time></trkpt><trkpt lat="37.6848701398273" lon="14.528548210373666"><ele>446.0</ele><time>2026-05-04T11:02:31Z</time></trkpt><trkpt lat="37.68505604193904" lon="14.528526953735568"><ele>446.0</ele><time>2026-05-04T11:02:32Z</time></trkpt><trkpt lat="37.6852412134516" lon="14.528492691157869"><ele>446.0</ele><time>2026-05-04T11:02:33Z</time></trkpt><trkpt lat="37.68542807027747" lon="14.528461386369935"><ele>449.3333333333333</ele><time>2026-05-04T11:02:34Z</time></trkpt><trkpt lat="37.68562212465748" lon="14.528446118681524"><ele>452.66666666666663</ele><time>2026-05-04T11:02:35Z</time></trkpt><trkpt lat="37.685826066067825" lon="14.528436207791138"><ele>456.0</ele><time>2026-05-04T11:02:36Z</time></trkpt><trkpt lat="37.686032495716184" lon="14.528438269188443"><ele>460.0</ele><time>2026-05-04T11:02:37Z</time></trkpt><trkpt lat="37.686237283844505" lon="14.528435242817537"><ele>464.0</ele><time>2026-05-04T11:02:38Z</time></trkpt><trkpt lat="37.686449451438605" lon="14.528447778052788"><ele>468.0</ele><time>2026-05-04T11:02:39Z</time></trkpt><trkpt lat="37.68666390101108" lon="14.52847488351777"><ele>468.0</ele><time>2026-05-04T11:02:40Z</time></trkpt><trkpt lat="37.68687494903051" lon="14.5285152169221"><ele>468.0</ele><time>2026-05-04T11:02:41Z</time></trkpt><trkpt lat="37.68708100142828" lon="14.528577170820348"><ele>468.0</ele><time>2026-05-04T11:02:42Z</time></trkpt><trkpt lat="37.68727265909945" lon="14.528643350900467"><ele>472.33333333333337</ele><time>2026-05-04T11:02:43Z</time></trkpt><trkpt lat="37.687464229485336" lon="14.52871170873741"><ele>476.6666666666667</ele><time>2026-05-04T11:02:44Z</time></trkpt><trkpt lat="37.68765748635103" lon="14.528770957171465"><ele>481.0</ele><time>2026-05-04T11:02:45Z</time></trkpt><trkpt lat="37.687838076139194" lon="14.528823556287016"><ele>484.6666666666667</ele><time>2026-05-04T11:02:46Z</time></trkpt><trkpt lat="37.68800242190661" lon="14.528890969743134"><ele>488.33333333333337</ele><time>2026-05-04T11:02:47Z</time></trkpt><trkpt lat="37.68816681969494" lon="14.52894746419447"><ele>492.0</ele><time>2026-05-04T11:02:48Z</time></trkpt><trkpt lat="37.688325109803806" lon="14.529002845177116"><ele>492.0</ele><time>2026-05-04T11:02:49Z</time></trkpt><trkpt lat="37.68846222451893" lon="14.52912821739546"><ele>492.0</ele><time>2026-05-04T11:02:50Z</time></trkpt><trkpt lat="37.68857432719372" lon="14.52928781664058"><ele>492.0</ele><time>2026-05-04T11:02:51Z</time></trkpt><trkpt lat="37.688659640693054" lon="14.52947064725433"><ele>497.0</ele><time>2026-05-04T11:02:52Z</time></trkpt><trkpt lat="37.688699722189426" lon="14.52967826273577"><ele>502.0</ele><time>2026-05-04T11:02:53Z</time></trkpt><trkpt lat="37.68870257076839" lon="14.529890786019784"><ele>507.0</ele><time>2026-05-04T11:02:54Z</time></trkpt><trkpt lat="37.68868527134071" lon="14.53012477817025"><ele>507.0</ele><time>2026-05-04T11:02:55Z</time></trkpt><trkpt lat="37.688681984355924" lon="14.530376735046781"><ele>507.0</ele><time>2026-05-04T11:02:56Z</time></trkpt><trkpt lat="37.68864709183796" lon="14.530596154183044"><ele>507.0</ele><time>2026-05-04T11:02:57Z</time></trkpt><trkpt lat="37.68863327480796" lon="14.530804719133071"><ele>508.66666666666663</ele><time>2026-05-04T11:02:58Z</time></trkpt><trkpt lat="37.68864221931158" lon="14.531018207270307"><ele>510.3333333333333</ele><time>2026-05-04T11:02:59Z</time></trkpt><trkpt lat="37.68868440575514" lon="14.531228949447286"><ele>512.0</ele><time>2026-05-04T11:03:00Z</time></trkpt><trkpt lat="37.68877966179689" lon="14.531425452428632"><ele>512.0</ele><time>2026-05-04T11:03:01Z</time></trkpt><trkpt lat="37.6889284264298" lon="14.531599002331108"><ele>512.0</ele><time>2026-05-04T11:03:02Z</time></trkpt><trkpt lat="37.68908128191561" lon="14.53174797594272"><ele>512.0</ele><time>2026-05-04T11:03:03Z</time></trkpt><trkpt lat="37.68925323269418" lon="14.531859149757352"><ele>514.6666666666666</ele><time>2026-05-04T11:03:04Z</time></trkpt><trkpt lat="37.689450788851154" lon="14.531997097593287"><ele>517.3333333333334</ele><time>2026-05-04T11:03:05Z</time></trkpt><trkpt lat="37.689611376969616" lon="14.532148513407808"><ele>520.0</ele><time>2026-05-04T11:03:06Z</time></trkpt><trkpt lat="37.68977336717534" lon="14.53230158386796"><ele>520.0</ele><time>2026-05-04T11:03:07Z</time></trkpt><trkpt lat="37.68992424679442" lon="14.532448641113959"><ele>520.0</ele><time>2026-05-04T11:03:08Z</time></trkpt><trkpt lat="37.690067989511384" lon="14.53261032857056"><ele>520.0</ele><time>2026-05-04T11:03:09Z</time></trkpt><trkpt lat="37.690174028766" lon="14.532811483157204"><ele>525.3333333333334</ele><time>2026-05-04T11:03:10Z</time></trkpt><trkpt lat="37.690261531128854" lon="14.533016143487531"><ele>530.6666666666666</ele><time>2026-05-04T11:03:11Z</time></trkpt><trkpt lat="37.69034436960791" lon="14.533236570571914"><ele>536.0</ele><time>2026-05-04T11:03:12Z</time></trkpt><trkpt lat="37.69042756604126" lon="14.533461139754264"><ele>536.0</ele><time>2026-05-04T11:03:13.001Z</time></trkpt><trkpt lat="37.69050634999991" lon="14.533664392895918"><ele>536.0</ele><time>2026-05-04T11:03:14.001Z</time></trkpt><trkpt lat="37.69060109524307" lon="14.533872669599882"><ele>536.0</ele><time>2026-05-04T11:03:15.001Z</time></trkpt><trkpt lat="37.690674049733495" lon="14.53409284017068"><ele>535.3333333333333</ele><time>2026-05-04T11:03:16.001Z</time></trkpt><trkpt lat="37.69075405479781" lon="14.534297773255801"><ele>534.6666666666666</ele><time>2026-05-04T11:03:17.001Z</time></trkpt><trkpt lat="37.690828730817145" lon="14.534486888369782"><ele>534.0</ele><time>2026-05-04T11:03:18.001Z</time></trkpt><trkpt lat="37.69091472201554" lon="14.534670714976901"><ele>534.0</ele><time>2026-05-04T11:03:19.001Z</time></trkpt><trkpt lat="37.69102746405669" lon="14.534827116692403"><ele>534.0</ele><time>2026-05-04T11:03:20.001Z</time></trkpt><trkpt lat="37.691192968300896" lon="14.53495179698661"><ele>534.0</ele><time>2026-05-04T11:03:21.001Z</time></trkpt><trkpt lat="37.69136188043298" lon="14.535045527408673"><ele>538.0</ele><time>2026-05-04T11:03:22.001Z</time></trkpt><trkpt lat="37.69151647323203" lon="14.535077661763161"><ele>542.0</ele><time>2026-05-04T11:03:23.001Z</time></trkpt><trkpt lat="37.69166207086376" lon="14.53505383711484"><ele>546.0</ele><time>2026-05-04T11:03:24.001Z</time></trkpt><trkpt lat="37.69179684568289" lon="14.534999500150185"><ele>550.0</ele><time>2026-05-04T11:03:25.001Z</time></trkpt><trkpt lat="37.69190707771358" lon="14.53493112664217"><ele>551.75</ele><time>2026-05-04T11:03:26.001Z</time></trkpt><trkpt lat="37.69203278133915" lon="14.534813059856715"><ele>553.5</ele><time>2026-05-04T11:03:27.001Z</time></trkpt><trkpt lat="37.6921425278762" lon="14.534678416830001"><ele>555.25</ele><time>2026-05-04T11:03:28.001Z</time></trkpt><trkpt lat="37.692206035309304" lon="14.534525749102185"><ele>557.0</ele><time>2026-05-04T11:03:29.001Z</time></trkpt><trkpt lat="37.692280688587495" lon="14.534311243271135"><ele>557.0</ele><time>2026-05-04T11:03:30.001Z</time></trkpt><trkpt lat="37.69236363016912" lon="14.534065495917009"><ele>557.0</ele><time>2026-05-04T11:03:31.001Z</time></trkpt><trkpt lat="37.69247513782695" lon="14.533772321540456"><ele>565.5</ele><time>2026-05-04T11:03:32.001Z</time></trkpt><trkpt lat="37.69261448592264" lon="14.533502310898344"><ele>574.0</ele><time>2026-05-04T11:03:33.001Z</time></trkpt><trkpt lat="37.692754630860996" lon="14.533280075055247"><ele>572.0</ele><time>2026-05-04T11:03:34.001Z</time></trkpt><trkpt lat="37.692884162957874" lon="14.533070553349434"><ele>570.0</ele><time>2026-05-04T11:03:35.001Z</time></trkpt><trkpt lat="37.69300253703001" lon="14.532875617876273"><ele>568.0</ele><time>2026-05-04T11:03:36.001Z</time></trkpt><trkpt lat="37.693142351981486" lon="14.532547151233064"><ele>571.0</ele><time>2026-05-04T11:03:37.001Z</time></trkpt><trkpt lat="37.69323329659468" lon="14.532403883140937"><ele>574.0</ele><time>2026-05-04T11:03:38.001Z</time></trkpt><trkpt lat="37.69334851820214" lon="14.532290101488066"><ele>577.0</ele><time>2026-05-04T11:03:39.001Z</time></trkpt><trkpt lat="37.693477553462564" lon="14.53219340574625"><ele>580.0</ele><time>2026-05-04T11:03:40.001Z</time></trkpt><trkpt lat="37.69362115075563" lon="14.532124387612928"><ele>582.0</ele><time>2026-05-04T11:03:41.001Z</time></trkpt><trkpt lat="37.69377444675963" lon="14.532094526321838"><ele>584.0</ele><time>2026-05-04T11:03:42.001Z</time></trkpt><trkpt lat="37.69391592711134" lon="14.532094289698694"><ele>586.0</ele><time>2026-05-04T11:03:43.001Z</time></trkpt><trkpt lat="37.694054294334066" lon="14.532119937896436"><ele>588.0</ele><time>2026-05-04T11:03:44.001Z</time></trkpt><trkpt lat="37.69420254489901" lon="14.53216903143455"><ele>588.0</ele><time>2026-05-04T11:03:45.001Z</time></trkpt><trkpt lat="37.69435735702327" lon="14.53222738499294"><ele>588.0</ele><time>2026-05-04T11:03:46.001Z</time></trkpt><trkpt lat="37.69450770648195" lon="14.532292263749458"><ele>588.0</ele><time>2026-05-04T11:03:47.001Z</time></trkpt><trkpt lat="37.694652418144116" lon="14.53236346467814"><ele>589.0</ele><time>2026-05-04T11:03:48.001Z</time></trkpt><trkpt lat="37.694806706899875" lon="14.532430111118341"><ele>590.0</ele><time>2026-05-04T11:03:49.001Z</time></trkpt><trkpt lat="37.69496463793541" lon="14.53247299715286"><ele>591.0</ele><time>2026-05-04T11:03:50.001Z</time></trkpt><trkpt lat="37.69511813739786" lon="14.53250877168701"><ele>589.6666666666666</ele><time>2026-05-04T11:03:51.001Z</time></trkpt><trkpt lat="37.6952667211597" lon="14.532571794622044"><ele>588.3333333333333</ele><time>2026-05-04T11:03:52.001Z</time></trkpt><trkpt lat="37.69541181086902" lon="14.532645372691205"><ele>587.0</ele><time>2026-05-04T11:03:53.001Z</time></trkpt><trkpt lat="37.69555410033399" lon="14.532735900453794"><ele>587.0</ele><time>2026-05-04T11:03:54.001Z</time></trkpt><trkpt lat="37.69568811731954" lon="14.532855770163355"><ele>587.0</ele><time>2026-05-04T11:03:55.001Z</time></trkpt><trkpt lat="37.69581525732939" lon="14.532973602072955"><ele>587.0</ele><time>2026-05-04T11:03:56.001Z</time></trkpt><trkpt lat="37.69593012757231" lon="14.533074412342508"><ele>590.75</ele><time>2026-05-04T11:03:57.001Z</time></trkpt><trkpt lat="37.69604256242825" lon="14.53316231911831"><ele>594.5</ele><time>2026-05-04T11:03:58.001Z</time></trkpt><trkpt lat="37.69616266433911" lon="14.533213892065193"><ele>598.25</ele><time>2026-05-04T11:03:59.001Z</time></trkpt><trkpt lat="37.69628281129163" lon="14.533199124238493"><ele>602.0</ele><time>2026-05-04T11:04:00.001Z</time></trkpt><trkpt lat="37.696414689058514" lon="14.533110852334698"><ele>605.25</ele><time>2026-05-04T11:04:01.001Z</time></trkpt><trkpt lat="37.69656875577552" lon="14.533060191786483"><ele>608.5</ele><time>2026-05-04T11:04:02.001Z</time></trkpt><trkpt lat="37.69670346212187" lon="14.533043287143022"><ele>611.75</ele><time>2026-05-04T11:04:03.001Z</time></trkpt><trkpt lat="37.69685679493983" lon="14.533050008521375"><ele>615.0</ele><time>2026-05-04T11:04:04.001Z</time></trkpt><trkpt lat="37.69699079864584" lon="14.53307740714363"><ele>615.75</ele><time>2026-05-04T11:04:05.001Z</time></trkpt><trkpt lat="37.69712371537963" lon="14.53309990243316"><ele>616.5</ele><time>2026-05-04T11:04:06.001Z</time></trkpt><trkpt lat="37.69726757099679" lon="14.533133347374728"><ele>617.25</ele><time>2026-05-04T11:04:07.001Z</time></trkpt><trkpt lat="37.697391401056116" lon="14.533222676014793"><ele>618.0</ele><time>2026-05-04T11:04:08.001Z</time></trkpt><trkpt lat="37.697542899789696" lon="14.533342299627789"><ele>618.0</ele><time>2026-05-04T11:04:09.001Z</time></trkpt><trkpt lat="37.697716426214505" lon="14.533435039313835"><ele>618.0</ele><time>2026-05-04T11:04:10.001Z</time></trkpt><trkpt lat="37.697865421042856" lon="14.53350105882186"><ele>618.0</ele><time>2026-05-04T11:04:11.001Z</time></trkpt><trkpt lat="37.698033082818775" lon="14.53357104994705"><ele>616.3333333333334</ele><time>2026-05-04T11:04:12.001Z</time></trkpt><trkpt lat="37.69816157776788" lon="14.533616930010375"><ele>614.6666666666667</ele><time>2026-05-04T11:04:13.001Z</time></trkpt><trkpt lat="37.69832372207875" lon="14.533654159949956"><ele>613.0</ele><time>2026-05-04T11:04:14.001Z</time></trkpt><trkpt lat="37.698489866652636" lon="14.533673693193832"><ele>615.25</ele><time>2026-05-04T11:04:15.001Z</time></trkpt><trkpt lat="37.698618497215875" lon="14.533683449987056"><ele>617.5</ele><time>2026-05-04T11:04:16.001Z</time></trkpt><trkpt lat="37.6987341861473" lon="14.533706959916065"><ele>619.75</ele><time>2026-05-04T11:04:17.001Z</time></trkpt><trkpt lat="37.698854485695215" lon="14.533834960598083"><ele>622.0</ele><time>2026-05-04T11:04:18.001Z</time></trkpt><trkpt lat="37.69895751168372" lon="14.533923885263663"><ele>628.0</ele><time>2026-05-04T11:04:19Z</time></trkpt><trkpt lat="37.699068102297055" lon="14.533983109220975"><ele>634.0</ele><time>2026-05-04T11:04:20Z</time></trkpt><trkpt lat="37.69921198863883" lon="14.534019010992875"><ele>640.0</ele><time>2026-05-04T11:04:21Z</time></trkpt><trkpt lat="37.6993642176751" lon="14.534043951677674"><ele>646.0</ele><time>2026-05-04T11:04:22Z</time></trkpt><trkpt lat="37.69955574503794" lon="14.53408345026199"><ele>647.6666666666667</ele><time>2026-05-04T11:04:23Z</time></trkpt><trkpt lat="37.6997741734242" lon="14.534125180766905"><ele>649.3333333333334</ele><time>2026-05-04T11:04:24Z</time></trkpt><trkpt lat="37.69996351989302" lon="14.534163405127348"><ele>651.0</ele><time>2026-05-04T11:04:25Z</time></trkpt><trkpt lat="37.70012512882157" lon="14.534193654329162"><ele>655.0</ele><time>2026-05-04T11:04:26Z</time></trkpt><trkpt lat="37.70026909744942" lon="14.534176124632273"><ele>659.0</ele><time>2026-05-04T11:04:27Z</time></trkpt><trkpt lat="37.70041870999826" lon="14.534118239100367"><ele>663.0</ele><time>2026-05-04T11:04:28Z</time></trkpt><trkpt lat="37.70056684301371" lon="14.534041664594762"><ele>663.0</ele><time>2026-05-04T11:04:29Z</time></trkpt><trkpt lat="37.700718644776344" lon="14.533957731198333"><ele>663.0</ele><time>2026-05-04T11:04:30Z</time></trkpt><trkpt lat="37.700839071023026" lon="14.533877073173318"><ele>663.0</ele><time>2026-05-04T11:04:31Z</time></trkpt><trkpt lat="37.700953650834364" lon="14.533804321413665"><ele>663.0</ele><time>2026-05-04T11:04:32Z</time></trkpt><trkpt lat="37.70110179731235" lon="14.533727751375686"><ele>663.6666666666666</ele><time>2026-05-04T11:04:33Z</time></trkpt><trkpt lat="37.70128283457218" lon="14.5337200540672"><ele>664.3333333333333</ele><time>2026-05-04T11:04:34Z</time></trkpt><trkpt lat="37.70146642265775" lon="14.533711035180154"><ele>665.0</ele><time>2026-05-04T11:04:35Z</time></trkpt><trkpt lat="37.701647651829575" lon="14.533655192487334"><ele>665.0</ele><time>2026-05-04T11:04:36Z</time></trkpt><trkpt lat="37.701845162534575" lon="14.533563790669639"><ele>665.0</ele><time>2026-05-04T11:04:37Z</time></trkpt><trkpt lat="37.70204435645849" lon="14.533425764333996"><ele>665.0</ele><time>2026-05-04T11:04:38Z</time></trkpt><trkpt lat="37.70220334925415" lon="14.53330239132006"><ele>670.0</ele><time>2026-05-04T11:04:39Z</time></trkpt><trkpt lat="37.702334432835485" lon="14.533203480376347"><ele>675.0</ele><time>2026-05-04T11:04:40Z</time></trkpt><trkpt lat="37.702412064230025" lon="14.533089556436588"><ele>680.0</ele><time>2026-05-04T11:04:41Z</time></trkpt><trkpt lat="37.702516275210016" lon="14.533003095910603"><ele>685.0</ele><time>2026-05-04T11:04:42Z</time></trkpt><trkpt lat="37.702572240543084" lon="14.532927876791586"><ele>685.0</ele><time>2026-05-04T11:04:43Z</time></trkpt><trkpt lat="37.70267443548299" lon="14.53298349669945"><ele>685.0</ele><time>2026-05-04T11:04:44Z</time></trkpt><trkpt lat="37.702719664495945" lon="14.533059483766088"><ele>685.0</ele><time>2026-05-04T11:04:45Z</time></trkpt><trkpt lat="37.70283934058333" lon="14.533159175143785"><ele>685.0</ele><time>2026-05-04T11:04:47Z</time></trkpt><trkpt lat="37.702988793569155" lon="14.533222468947882"><ele>687.4</ele><time>2026-05-04T11:04:50Z</time></trkpt><trkpt lat="37.70306315569954" lon="14.533350579372172"><ele>689.8</ele><time>2026-05-04T11:04:53Z</time></trkpt><trkpt lat="37.703113320396035" lon="14.533457951062598"><ele>692.2</ele><time>2026-05-04T11:04:54Z</time></trkpt><trkpt lat="37.703195851179814" lon="14.533630199943314"><ele>694.6</ele><time>2026-05-04T11:04:55Z</time></trkpt><trkpt lat="37.70323124608131" lon="14.533696839972148"><ele>697.0</ele><time>2026-05-04T11:04:56Z</time></trkpt><trkpt lat="37.703272501215935" lon="14.533766191008008"><ele>697.6666666666667</ele><time>2026-05-04T11:04:57Z</time></trkpt><trkpt lat="37.70331745259607" lon="14.533839903519997"><ele>698.3333333333334</ele><time>2026-05-04T11:04:58Z</time></trkpt><trkpt lat="37.703360089575575" lon="14.53390516478561"><ele>699.0</ele><time>2026-05-04T11:04:59.001Z</time></trkpt><trkpt lat="37.70343433782961" lon="14.534002161276662"><ele>699.6666666666666</ele><time>2026-05-04T11:05:01.001Z</time></trkpt><trkpt lat="37.703528796145264" lon="14.534073819526599"><ele>700.3333333333333</ele><time>2026-05-04T11:05:03.001Z</time></trkpt><trkpt lat="37.70360048850063" lon="14.534110227908101"><ele>701.0</ele><time>2026-05-04T11:05:04.001Z</time></trkpt><trkpt lat="37.703663625027374" lon="14.534096000870091"><ele>698.6666666666666</ele><time>2026-05-04T11:05:05.001Z</time></trkpt><trkpt lat="37.70377646890177" lon="14.534143181319115"><ele>696.3333333333333</ele><time>2026-05-04T11:05:07.001Z</time></trkpt><trkpt lat="37.703862373636674" lon="14.53411673830766"><ele>694.0</ele><time>2026-05-04T11:05:10.001Z</time></trkpt><trkpt lat="37.703916527787804" lon="14.534067514897112"><ele>691.6666666666666</ele><time>2026-05-04T11:05:11.001Z</time></trkpt><trkpt lat="37.703981867566874" lon="14.534039413749612"><ele>689.3333333333334</ele><time>2026-05-04T11:05:12.001Z</time></trkpt><trkpt lat="37.70406702576969" lon="14.534006191508933"><ele>687.0</ele><time>2026-05-04T11:05:13.001Z</time></trkpt><trkpt lat="37.70416361115548" lon="14.5339965769799"><ele>687.0</ele><time>2026-05-04T11:05:14.001Z</time></trkpt><trkpt lat="37.70424610253376" lon="14.534040057691122"><ele>687.0</ele><time>2026-05-04T11:05:15.001Z</time></trkpt><trkpt lat="37.704328886543216" lon="14.534062524052583"><ele>687.0</ele><time>2026-05-04T11:05:16.001Z</time></trkpt><trkpt lat="37.70440839580106" lon="14.534089832852633"><ele>687.0</ele><time>2026-05-04T11:05:17.001Z</time></trkpt><trkpt lat="37.70448355671208" lon="14.534138731615577"><ele>687.0</ele><time>2026-05-04T11:05:18.001Z</time></trkpt><trkpt lat="37.70457716538802" lon="14.53415780994315"><ele>687.0</ele><time>2026-05-04T11:05:19.001Z</time></trkpt><trkpt lat="37.70467308823833" lon="14.534181688180324"><ele>686.5</ele><time>2026-05-04T11:05:20.001Z</time></trkpt><trkpt lat="37.704775343107684" lon="14.534237080644358"><ele>686.0</ele><time>2026-05-04T11:05:21.001Z</time></trkpt><trkpt lat="37.70488625440052" lon="14.534282827260922"><ele>685.5</ele><time>2026-05-04T11:05:22.001Z</time></trkpt><trkpt lat="37.70500149043426" lon="14.534327502133626"><ele>685.0</ele><time>2026-05-04T11:05:23.001Z</time></trkpt><trkpt lat="37.70511613893374" lon="14.534374725107154"><ele>687.5</ele><time>2026-05-04T11:05:24.001Z</time></trkpt><trkpt lat="37.70525151878779" lon="14.534417286851737"><ele>690.0</ele><time>2026-05-04T11:05:25.001Z</time></trkpt><trkpt lat="37.705379943216734" lon="14.534477726946731"><ele>692.5</ele><time>2026-05-04T11:05:26.001Z</time></trkpt><trkpt lat="37.705500731720925" lon="14.53452684198057"><ele>695.0</ele><time>2026-05-04T11:05:27.001Z</time></trkpt><trkpt lat="37.705604647139516" lon="14.534567274118361"><ele>691.8</ele><time>2026-05-04T11:05:28.001Z</time></trkpt><trkpt lat="37.70571256333767" lon="14.534602100538153"><ele>688.6</ele><time>2026-05-04T11:05:29.001Z</time></trkpt><trkpt lat="37.7058068287219" lon="14.534648744318536"><ele>685.4000000000001</ele><time>2026-05-04T11:05:30.001Z</time></trkpt><trkpt lat="37.70589193162196" lon="14.534705230228344"><ele>682.2</ele><time>2026-05-04T11:05:31.001Z</time></trkpt><trkpt lat="37.705993864296715" lon="14.534742039409496"><ele>679.0</ele><time>2026-05-04T11:05:32.001Z</time></trkpt><trkpt lat="37.70608613596913" lon="14.534763285541155"><ele>679.0</ele><time>2026-05-04T11:05:33.001Z</time></trkpt><trkpt lat="37.706149795534124" lon="14.53477065387938"><ele>679.0</ele><time>2026-05-04T11:05:34.001Z</time></trkpt><trkpt lat="37.70623591842431" lon="14.534779812008306"><ele>679.0</ele><time>2026-05-04T11:05:35.001Z</time></trkpt><trkpt lat="37.70630722078868" lon="14.534786837493364"><ele>679.0</ele><time>2026-05-04T11:05:36.001Z</time></trkpt><trkpt lat="37.706413299104064" lon="14.534797289483592"><ele>679.0</ele><time>2026-05-04T11:05:37.001Z</time></trkpt><trkpt lat="37.70652239628474" lon="14.53480030565474"><ele>679.0</ele><time>2026-05-04T11:05:38.001Z</time></trkpt><trkpt lat="37.70664062679406" lon="14.534822069309573"><ele>679.0</ele><time>2026-05-04T11:05:39.001Z</time></trkpt><trkpt lat="37.70676880463507" lon="14.53483383870467"><ele>679.0</ele><time>2026-05-04T11:05:40.001Z</time></trkpt><trkpt lat="37.706863782882266" lon="14.534849150741323"><ele>679.0</ele><time>2026-05-04T11:05:41.001Z</time></trkpt><trkpt lat="37.706945074936634" lon="14.534843296140972"><ele>679.0</ele><time>2026-05-04T11:05:42.001Z</time></trkpt><trkpt lat="37.70701656390999" lon="14.534846206181427"><ele>679.0</ele><time>2026-05-04T11:05:44.001Z</time></trkpt><trkpt lat="37.70713422644093" lon="14.534827009087643"><ele>677.0</ele><time>2026-05-04T11:05:57.001Z</time></trkpt><trkpt lat="37.70723079172919" lon="14.534788758824792"><ele>675.0</ele><time>2026-05-04T11:05:58.001Z</time></trkpt><trkpt lat="37.70735167350874" lon="14.534744899533898"><ele>673.0</ele><time>2026-05-04T11:05:59.001Z</time></trkpt><trkpt lat="37.70746507939805" lon="14.534666993443885"><ele>671.0</ele><time>2026-05-04T11:06:00.001Z</time></trkpt><trkpt lat="37.707619638839354" lon="14.534569165066431"><ele>671.0</ele><time>2026-05-04T11:06:01.001Z</time></trkpt><trkpt lat="37.70778105425063" lon="14.534472205772135"><ele>671.0</ele><time>2026-05-04T11:06:02.001Z</time></trkpt><trkpt lat="37.707932107749045" lon="14.534391481065358"><ele>671.0</ele><time>2026-05-04T11:06:03.001Z</time></trkpt><trkpt lat="37.708049703253344" lon="14.534328829003881"><ele>671.0</ele><time>2026-05-04T11:06:04.001Z</time></trkpt><trkpt lat="37.70813980710654" lon="14.534249626071812"><ele>671.0</ele><time>2026-05-04T11:06:05.001Z</time></trkpt><trkpt lat="37.70824624752477" lon="14.53416547541846"><ele>671.0</ele><time>2026-05-04T11:06:06.001Z</time></trkpt><trkpt lat="37.708343473065504" lon="14.534099496984858"><ele>671.0</ele><time>2026-05-04T11:06:07.001Z</time></trkpt><trkpt lat="37.70841475589246" lon="14.534041843322587"><ele>671.0</ele><time>2026-05-04T11:06:08.001Z</time></trkpt><trkpt lat="37.708488979041746" lon="14.53401980843886"><ele>671.0</ele><time>2026-05-04T11:06:09.001Z</time></trkpt><trkpt lat="37.708559250167525" lon="14.53404169043315"><ele>671.0</ele><time>2026-05-04T11:06:10.001Z</time></trkpt><trkpt lat="37.70862797763763" lon="14.534109885983007"><ele>671.0</ele><time>2026-05-04T11:06:11.001Z</time></trkpt><trkpt lat="37.70870909242573" lon="14.534208573493881"><ele>671.0</ele><time>2026-05-04T11:06:12.001Z</time></trkpt><trkpt lat="37.70880175584389" lon="14.534318528638918"><ele>671.0</ele><time>2026-05-04T11:06:13.001Z</time></trkpt><trkpt lat="37.70890642334485" lon="14.534406585307282"><ele>673.25</ele><time>2026-05-04T11:06:14.001Z</time></trkpt><trkpt lat="37.709002364028436" lon="14.53447820579492"><ele>675.5</ele><time>2026-05-04T11:06:15.001Z</time></trkpt><trkpt lat="37.70911145300486" lon="14.534442291272976"><ele>677.75</ele><time>2026-05-04T11:06:16.001Z</time></trkpt><trkpt lat="37.709220657950425" lon="14.534587754935112"><ele>680.0</ele><time>2026-05-04T11:06:18.001Z</time></trkpt><trkpt lat="37.709209143055325" lon="14.53469470481713"><ele>676.4</ele><time>2026-05-04T11:06:19.002Z</time></trkpt><trkpt lat="37.70934117025973" lon="14.534741979934418"><ele>672.8</ele><time>2026-05-04T11:06:21.002Z</time></trkpt><trkpt lat="37.70941408645171" lon="14.534753628911139"><ele>669.2</ele><time>2026-05-04T11:06:22.002Z</time></trkpt><trkpt lat="37.709478827094856" lon="14.534769692288936"><ele>665.6</ele><time>2026-05-04T11:06:23.002Z</time></trkpt><trkpt lat="37.70956910052902" lon="14.534808132315387"><ele>662.0</ele><time>2026-05-04T11:06:24Z</time></trkpt><trkpt lat="37.70964756992353" lon="14.534833152639044"><ele>662.0</ele><time>2026-05-04T11:06:25Z</time></trkpt><trkpt lat="37.709728135468225" lon="14.534878220131583"><ele>662.0</ele><time>2026-05-04T11:06:26Z</time></trkpt><trkpt lat="37.709781100178155" lon="14.534962847821179"><ele>662.0</ele><time>2026-05-04T11:06:27Z</time></trkpt><trkpt lat="37.709833359829865" lon="14.535046272078063"><ele>662.0</ele><time>2026-05-04T11:06:28Z</time></trkpt><trkpt lat="37.70989544009533" lon="14.53512678380458"><ele>662.0</ele><time>2026-05-04T11:06:29Z</time></trkpt><trkpt lat="37.70995366121577" lon="14.535206394576038"><ele>662.0</ele><time>2026-05-04T11:06:30Z</time></trkpt><trkpt lat="37.710014108290046" lon="14.53527876673364"><ele>662.0</ele><time>2026-05-04T11:06:31Z</time></trkpt><trkpt lat="37.71007743393241" lon="14.535358079996627"><ele>662.0</ele><time>2026-05-04T11:06:32Z</time></trkpt><trkpt lat="37.71013395212045" lon="14.535419706261935"><ele>662.0</ele><time>2026-05-04T11:06:33Z</time></trkpt><trkpt lat="37.71024074305477" lon="14.53550441586355"><ele>662.0</ele><time>2026-05-04T11:06:35Z</time></trkpt><trkpt lat="37.71030467991027" lon="14.535552321883939"><ele>662.0</ele><time>2026-05-04T11:06:36Z</time></trkpt><trkpt lat="37.71039627395333" lon="14.535618029881816"><ele>660.6666666666666</ele><time>2026-05-04T11:06:37Z</time></trkpt><trkpt lat="37.71046266269618" lon="14.535651351496824"><ele>659.3333333333333</ele><time>2026-05-04T11:06:38Z</time></trkpt><trkpt lat="37.710561673389535" lon="14.535670801563239"><ele>658.0</ele><time>2026-05-04T11:06:39Z</time></trkpt><trkpt lat="37.71065143813239" lon="14.53568053079651"><ele>656.6666666666666</ele><time>2026-05-04T11:06:40Z</time></trkpt><trkpt lat="37.71071747675956" lon="14.53567908909657"><ele>655.3333333333334</ele><time>2026-05-04T11:06:41Z</time></trkpt><trkpt lat="37.710829487436975" lon="14.535657086577647"><ele>654.0</ele><time>2026-05-04T11:06:42Z</time></trkpt><trkpt lat="37.71092882799624" lon="14.535636259316322"><ele>657.2</ele><time>2026-05-04T11:06:43Z</time></trkpt><trkpt lat="37.71111051529158" lon="14.535620029407138"><ele>660.4000000000001</ele><time>2026-05-04T11:06:44Z</time></trkpt><trkpt lat="37.71120149849799" lon="14.535637450162648"><ele>663.6</ele><time>2026-05-04T11:06:45Z</time></trkpt><trkpt lat="37.71127001516791" lon="14.53568055454382"><ele>666.8</ele><time>2026-05-04T11:06:46.001Z</time></trkpt><trkpt lat="37.71135884162788" lon="14.53570495733768"><ele>670.0</ele><time>2026-05-04T11:06:48.001Z</time></trkpt><trkpt lat="37.71143859784534" lon="14.535757302803018"><ele>670.0</ele><time>2026-05-04T11:06:50.001Z</time></trkpt><trkpt lat="37.71151609538852" lon="14.535885126470859"><ele>670.0</ele><time>2026-05-04T11:06:52.001Z</time></trkpt><trkpt lat="37.71146408588673" lon="14.535989719118605"><ele>670.0</ele><time>2026-05-04T11:06:53.001Z</time></trkpt><trkpt lat="37.71148749668777" lon="14.536071855321088"><ele>670.0</ele><time>2026-05-04T11:06:54.001Z</time></trkpt><trkpt lat="37.711487094239985" lon="14.536173300557596"><ele>670.0</ele><time>2026-05-04T11:06:55.001Z</time></trkpt><trkpt lat="37.71149024579311" lon="14.536278663907412"><ele>667.6</ele><time>2026-05-04T11:06:56.001Z</time></trkpt><trkpt lat="37.71148625236088" lon="14.536389101067122"><ele>665.2</ele><time>2026-05-04T11:06:57.001Z</time></trkpt><trkpt lat="37.71148914593232" lon="14.53651092029508"><ele>662.8</ele><time>2026-05-04T11:06:58.001Z</time></trkpt><trkpt lat="37.71148107662825" lon="14.536627582943058"><ele>660.4</ele><time>2026-05-04T11:06:59.001Z</time></trkpt><trkpt lat="37.711507008494934" lon="14.536747888402449"><ele>658.0</ele><time>2026-05-04T11:07:00.001Z</time></trkpt><trkpt lat="37.71151423197825" lon="14.536857663443213"><ele>658.0</ele><time>2026-05-04T11:07:01.001Z</time></trkpt><trkpt lat="37.71151826628527" lon="14.536958174559015"><ele>658.0</ele><time>2026-05-04T11:07:02.001Z</time></trkpt><trkpt lat="37.711533443758505" lon="14.537061380304673"><ele>658.0</ele><time>2026-05-04T11:07:03.001Z</time></trkpt><trkpt lat="37.71155899713645" lon="14.537159615172504"><ele>658.0</ele><time>2026-05-04T11:07:04.001Z</time></trkpt><trkpt lat="37.71158798828552" lon="14.537265567127433"><ele>658.0</ele><time>2026-05-04T11:07:05.001Z</time></trkpt><trkpt lat="37.71162242449325" lon="14.53734212917474"><ele>658.0</ele><time>2026-05-04T11:07:06.001Z</time></trkpt><trkpt lat="37.71170800411124" lon="14.537412937966895"><ele>656.2</ele><time>2026-05-04T11:07:07.001Z</time></trkpt><trkpt lat="37.71176236386718" lon="14.537510877526062"><ele>654.4</ele><time>2026-05-04T11:07:08.001Z</time></trkpt><trkpt lat="37.71181097190022" lon="14.537607521562279"><ele>652.6</ele><time>2026-05-04T11:07:09.001Z</time></trkpt><trkpt lat="37.711816454818425" lon="14.537736806226478"><ele>650.8000000000001</ele><time>2026-05-04T11:07:10.001Z</time></trkpt><trkpt lat="37.7118603332095" lon="14.537829112104555"><ele>649.0</ele><time>2026-05-04T11:07:11.001Z</time></trkpt><trkpt lat="37.71190711294787" lon="14.53794446018678"><ele>648.6</ele><time>2026-05-04T11:07:12.001Z</time></trkpt><trkpt lat="37.711966885234666" lon="14.538006808338245"><ele>648.2</ele><time>2026-05-04T11:07:13.001Z</time></trkpt><trkpt lat="37.71203225269951" lon="14.53809413435612"><ele>647.8000000000001</ele><time>2026-05-04T11:07:14.001Z</time></trkpt><trkpt lat="37.71209738295332" lon="14.538160139597732"><ele>647.4000000000001</ele><time>2026-05-04T11:07:15.001Z</time></trkpt><trkpt lat="37.712148985471345" lon="14.538277519208181"><ele>647.0</ele><time>2026-05-04T11:07:16.001Z</time></trkpt><trkpt lat="37.712228079936054" lon="14.538388415515012"><ele>647.0</ele><time>2026-05-04T11:07:17.001Z</time></trkpt><trkpt lat="37.71226518837109" lon="14.538470719580655"><ele>647.0</ele><time>2026-05-04T11:07:18.001Z</time></trkpt><trkpt lat="37.71231635698551" lon="14.538539406306446"><ele>647.0</ele><time>2026-05-04T11:07:19.001Z</time></trkpt><trkpt lat="37.712379321184784" lon="14.538601476531733"><ele>647.0</ele><time>2026-05-04T11:07:20.001Z</time></trkpt><trkpt lat="37.712445283968215" lon="14.538635341740425"><ele>647.0</ele><time>2026-05-04T11:07:21.001Z</time></trkpt><trkpt lat="37.71251257057309" lon="14.538651900860621"><ele>647.0</ele><time>2026-05-04T11:07:22.001Z</time></trkpt><trkpt lat="37.712671872527935" lon="14.538683740119993"><ele>646.2</ele><time>2026-05-04T11:07:24.001Z</time></trkpt><trkpt lat="37.71274357610217" lon="14.538587607161464"><ele>645.4000000000001</ele><time>2026-05-04T11:07:25.001Z</time></trkpt><trkpt lat="37.71281427115124" lon="14.538549752595836"><ele>644.5999999999999</ele><time>2026-05-04T11:07:26.001Z</time></trkpt><trkpt lat="37.71287536077231" lon="14.538509655435771"><ele>643.8</ele><time>2026-05-04T11:07:27.001Z</time></trkpt><trkpt lat="37.713003715242436" lon="14.538402443546849"><ele>643.0</ele><time>2026-05-04T11:07:28.001Z</time></trkpt><trkpt lat="37.71317144573128" lon="14.538407947691972"><ele>643.0</ele><time>2026-05-04T11:07:29.001Z</time></trkpt><trkpt lat="37.7133074480639" lon="14.538414360602435"><ele>643.0</ele><time>2026-05-04T11:07:30.001Z</time></trkpt><trkpt lat="37.71344576921362" lon="14.538439477807605"><ele>643.0</ele><time>2026-05-04T11:07:31.001Z</time></trkpt><trkpt lat="37.71356617751769" lon="14.538473697474231"><ele>643.0</ele><time>2026-05-04T11:07:32.001Z</time></trkpt><trkpt lat="37.71367586875548" lon="14.538498234290017"><ele>643.5</ele><time>2026-05-04T11:07:33.001Z</time></trkpt><trkpt lat="37.71376670104492" lon="14.53851223396281"><ele>644.0</ele><time>2026-05-04T11:07:34.001Z</time></trkpt><trkpt lat="37.71382873507037" lon="14.538549725271634"><ele>644.5</ele><time>2026-05-04T11:07:35.001Z</time></trkpt><trkpt lat="37.713896128485274" lon="14.538595260809295"><ele>645.0</ele><time>2026-05-04T11:07:37.001Z</time></trkpt><trkpt lat="37.71397542863707" lon="14.538619436169183"><ele>645.5</ele><time>2026-05-04T11:07:40.001Z</time></trkpt><trkpt lat="37.71408683251138" lon="14.538607930026796"><ele>646.0</ele><time>2026-05-04T11:07:42.001Z</time></trkpt><trkpt lat="37.71416114103918" lon="14.53859070101384"><ele>646.0</ele><time>2026-05-04T11:07:43.001Z</time></trkpt><trkpt lat="37.71427038307708" lon="14.538553416118084"><ele>646.0</ele><time>2026-05-04T11:07:44.001Z</time></trkpt><trkpt lat="37.7143881153024" lon="14.53849957557269"><ele>646.0</ele><time>2026-05-04T11:07:45.001Z</time></trkpt><trkpt lat="37.71449336859849" lon="14.538417477135836"><ele>646.0</ele><time>2026-05-04T11:07:46.001Z</time></trkpt><trkpt lat="37.71455816503378" lon="14.538279424930035"><ele>642.75</ele><time>2026-05-04T11:07:47.001Z</time></trkpt><trkpt lat="37.714631238746634" lon="14.538161537360653"><ele>639.5</ele><time>2026-05-04T11:07:48.001Z</time></trkpt><trkpt lat="37.71463289200433" lon="14.537992566820181"><ele>636.25</ele><time>2026-05-04T11:07:49.001Z</time></trkpt><trkpt lat="37.71464029763418" lon="14.537835038831838"><ele>633.0</ele><time>2026-05-04T11:07:50.001Z</time></trkpt><trkpt lat="37.71464680004185" lon="14.537669479071656"><ele>633.0</ele><time>2026-05-04T11:07:51.001Z</time></trkpt><trkpt lat="37.71465236010519" lon="14.537495458584111"><ele>633.0</ele><time>2026-05-04T11:07:52.001Z</time></trkpt><trkpt lat="37.71463334614048" lon="14.537327506960203"><ele>633.0</ele><time>2026-05-04T11:07:53.001Z</time></trkpt><trkpt lat="37.71464232123475" lon="14.537178756593805"><ele>633.0</ele><time>2026-05-04T11:07:54.001Z</time></trkpt><trkpt lat="37.714667421455076" lon="14.537064746823138"><ele>634.0</ele><time>2026-05-04T11:07:55.001Z</time></trkpt><trkpt lat="37.714722159335224" lon="14.536984224048851"><ele>635.0</ele><time>2026-05-04T11:07:56.001Z</time></trkpt><trkpt lat="37.71478010804368" lon="14.53692655615026"><ele>636.0</ele><time>2026-05-04T11:07:57.001Z</time></trkpt><trkpt lat="37.71482959259812" lon="14.53686669644308"><ele>637.0</ele><time>2026-05-04T11:07:58.001Z</time></trkpt><trkpt lat="37.714868269851884" lon="14.536799466960733"><ele>638.0</ele><time>2026-05-04T11:07:59.001Z</time></trkpt><trkpt lat="37.7149249980591" lon="14.536737458097662"><ele>639.0</ele><time>2026-05-04T11:08:00.001Z</time></trkpt><trkpt lat="37.71497074529789" lon="14.53666302802096"><ele>640.0</ele><time>2026-05-04T11:08:01.001Z</time></trkpt><trkpt lat="37.714970548602146" lon="14.5365719895135"><ele>640.0</ele><time>2026-05-04T11:08:02.001Z</time></trkpt><trkpt lat="37.71499921956854" lon="14.536491668800176"><ele>640.0</ele><time>2026-05-04T11:08:03.001Z</time></trkpt><trkpt lat="37.715061595171605" lon="14.536426910535052"><ele>640.0</ele><time>2026-05-04T11:08:04.001Z</time></trkpt><trkpt lat="37.715125692003895" lon="14.536351635960115"><ele>640.0</ele><time>2026-05-04T11:08:05.001Z</time></trkpt><trkpt lat="37.71521171003781" lon="14.536254928462343"><ele>640.0</ele><time>2026-05-04T11:08:06.001Z</time></trkpt><trkpt lat="37.71532159924686" lon="14.536140235617184"><ele>641.0</ele><time>2026-05-04T11:08:07.001Z</time></trkpt><trkpt lat="37.71544677693102" lon="14.536026899885702"><ele>642.0</ele><time>2026-05-04T11:08:08.001Z</time></trkpt><trkpt lat="37.715573157037014" lon="14.53591278925531"><ele>643.0</ele><time>2026-05-04T11:08:09.001Z</time></trkpt><trkpt lat="37.715690829948244" lon="14.535819976005776"><ele>644.0</ele><time>2026-05-04T11:08:10.001Z</time></trkpt><trkpt lat="37.71579370649746" lon="14.535708673544443"><ele>644.0</ele><time>2026-05-04T11:08:11.001Z</time></trkpt><trkpt lat="37.71589838319664" lon="14.5355929019702"><ele>644.0</ele><time>2026-05-04T11:08:12.001Z</time></trkpt><trkpt lat="37.715987602728276" lon="14.535471867491268"><ele>644.0</ele><time>2026-05-04T11:08:13.002Z</time></trkpt><trkpt lat="37.716062243548336" lon="14.535348259639191"><ele>644.0</ele><time>2026-05-04T11:08:14.002Z</time></trkpt><trkpt lat="37.71613766328368" lon="14.535229939651817"><ele>645.5</ele><time>2026-05-04T11:08:15.002Z</time></trkpt><trkpt lat="37.716192624639525" lon="14.535104965893444"><ele>647.0</ele><time>2026-05-04T11:08:16.002Z</time></trkpt><trkpt lat="37.7162200937904" lon="14.534967339136655"><ele>648.5</ele><time>2026-05-04T11:08:17.002Z</time></trkpt><trkpt lat="37.71621148703615" lon="14.53482812343377"><ele>650.0</ele><time>2026-05-04T11:08:18.002Z</time></trkpt><trkpt lat="37.71616864114781" lon="14.53468534145859"><ele>652.2</ele><time>2026-05-04T11:08:19.002Z</time></trkpt><trkpt lat="37.71613051204681" lon="14.534552372521814"><ele>654.4</ele><time>2026-05-04T11:08:20.002Z</time></trkpt><trkpt lat="37.71610147654841" lon="14.534422381121594"><ele>656.5999999999999</ele><time>2026-05-04T11:08:21.002Z</time></trkpt><trkpt lat="37.716120291481005" lon="14.534284299127744"><ele>658.8</ele><time>2026-05-04T11:08:22.002Z</time></trkpt><trkpt lat="37.71616428575097" lon="14.534153861093067"><ele>661.0</ele><time>2026-05-04T11:08:23.002Z</time></trkpt><trkpt lat="37.71621721927203" lon="14.534003986582514"><ele>661.0</ele><time>2026-05-04T11:08:24.002Z</time></trkpt><trkpt lat="37.71628439799989" lon="14.53387575505317"><ele>661.0</ele><time>2026-05-04T11:08:25.002Z</time></trkpt><trkpt lat="37.71634672705948" lon="14.533754706209315"><ele>661.0</ele><time>2026-05-04T11:08:26.002Z</time></trkpt><trkpt lat="37.71642958786641" lon="14.533652533837001"><ele>661.0</ele><time>2026-05-04T11:08:27.002Z</time></trkpt><trkpt lat="37.7165379401895" lon="14.533612629769186"><ele>662.75</ele><time>2026-05-04T11:08:28.002Z</time></trkpt><trkpt lat="37.71665617076294" lon="14.533583645061787"><ele>664.5</ele><time>2026-05-04T11:08:29.002Z</time></trkpt><trkpt lat="37.71678580446826" lon="14.533559799934597"><ele>666.25</ele><time>2026-05-04T11:08:30Z</time></trkpt><trkpt lat="37.71690093420459" lon="14.533523104830506"><ele>668.0</ele><time>2026-05-04T11:08:31Z</time></trkpt><trkpt lat="37.71701868241279" lon="14.533504948386739"><ele>670.25</ele><time>2026-05-04T11:08:32.001Z</time></trkpt><trkpt lat="37.717140112290984" lon="14.533507225749053"><ele>672.5</ele><time>2026-05-04T11:08:33Z</time></trkpt><trkpt lat="37.717255151818655" lon="14.533532064076834"><ele>674.75</ele><time>2026-05-04T11:08:34.001Z</time></trkpt><trkpt lat="37.71736926358647" lon="14.533595026479206"><ele>677.0</ele><time>2026-05-04T11:08:35Z</time></trkpt><trkpt lat="37.71748364909953" lon="14.533677684213423"><ele>678.0</ele><time>2026-05-04T11:08:36Z</time></trkpt><trkpt lat="37.717593077023686" lon="14.533751459764916"><ele>679.0</ele><time>2026-05-04T11:08:37Z</time></trkpt><trkpt lat="37.71770239760593" lon="14.53383313095889"><ele>680.0</ele><time>2026-05-04T11:08:38Z</time></trkpt><trkpt lat="37.71782524149141" lon="14.533907515215425"><ele>681.0</ele><time>2026-05-04T11:08:39Z</time></trkpt><trkpt lat="37.71795319103018" lon="14.533976030163798"><ele>681.0</ele><time>2026-05-04T11:08:40Z</time></trkpt><trkpt lat="37.71806887903261" lon="14.534051618938438"><ele>681.0</ele><time>2026-05-04T11:08:41Z</time></trkpt><trkpt lat="37.71821559439592" lon="14.534105416870418"><ele>681.0</ele><time>2026-05-04T11:08:42Z</time></trkpt><trkpt lat="37.71835486211745" lon="14.534152311288508"><ele>681.0</ele><time>2026-05-04T11:08:43Z</time></trkpt><trkpt lat="37.71850028850347" lon="14.534172434408996"><ele>681.0</ele><time>2026-05-04T11:08:44Z</time></trkpt><trkpt lat="37.718655522709994" lon="14.534177991924492"><ele>681.0</ele><time>2026-05-04T11:08:45Z</time></trkpt><trkpt lat="37.71881528688596" lon="14.53419067031235"><ele>681.0</ele><time>2026-05-04T11:08:46Z</time></trkpt><trkpt lat="37.718977431255134" lon="14.534207848966103"><ele>681.0</ele><time>2026-05-04T11:08:47Z</time></trkpt><trkpt lat="37.71913901569134" lon="14.534218028075124"><ele>681.0</ele><time>2026-05-04T11:08:48Z</time></trkpt><trkpt lat="37.719283942938965" lon="14.534232179196028"><ele>681.0</ele><time>2026-05-04T11:08:49Z</time></trkpt><trkpt lat="37.71942542032547" lon="14.53424699490201"><ele>681.0</ele><time>2026-05-04T11:08:50Z</time></trkpt><trkpt lat="37.71957094496444" lon="14.53427023049926"><ele>681.5</ele><time>2026-05-04T11:08:51Z</time></trkpt><trkpt lat="37.719715838794954" lon="14.534296639271894"><ele>682.0</ele><time>2026-05-04T11:08:52Z</time></trkpt><trkpt lat="37.71984558979784" lon="14.53431240975152"><ele>682.5</ele><time>2026-05-04T11:08:53Z</time></trkpt><trkpt lat="37.71998985555983" lon="14.534305168291077"><ele>683.0</ele><time>2026-05-04T11:08:54.001Z</time></trkpt><trkpt lat="37.72014709631484" lon="14.534262536338412"><ele>684.6666666666666</ele><time>2026-05-04T11:08:55.001Z</time></trkpt><trkpt lat="37.72029967905475" lon="14.5341886816062"><ele>686.3333333333334</ele><time>2026-05-04T11:08:56.001Z</time></trkpt><trkpt lat="37.72044864618186" lon="14.534082478571822"><ele>688.0</ele><time>2026-05-04T11:08:57.001Z</time></trkpt><trkpt lat="37.72056890803953" lon="14.534016745801937"><ele>688.0</ele><time>2026-05-04T11:08:58.001Z</time></trkpt><trkpt lat="37.720666002778486" lon="14.533974477493976"><ele>688.0</ele><time>2026-05-04T11:08:59.001Z</time></trkpt><trkpt lat="37.720759466744965" lon="14.533940109431255"><ele>688.0</ele><time>2026-05-04T11:09:00.001Z</time></trkpt><trkpt lat="37.720858789407906" lon="14.533933802830802"><ele>688.0</ele><time>2026-05-04T11:09:01.001Z</time></trkpt><trkpt lat="37.720961464429855" lon="14.53395175134502"><ele>688.0</ele><time>2026-05-04T11:09:02.001Z</time></trkpt><trkpt lat="37.72105338587908" lon="14.533988958537288"><ele>689.6666666666667</ele><time>2026-05-04T11:09:03.001Z</time></trkpt><trkpt lat="37.72112358508409" lon="14.534033143836478"><ele>691.3333333333334</ele><time>2026-05-04T11:09:04.001Z</time></trkpt><trkpt lat="37.721186943138584" lon="14.534042811122582"><ele>693.0</ele><time>2026-05-04T11:09:05.001Z</time></trkpt><trkpt lat="37.72127957496289" lon="14.534068396285027"><ele>694.6666666666666</ele><time>2026-05-04T11:09:07.001Z</time></trkpt><trkpt lat="37.7213657473879" lon="14.534113717423391"><ele>696.3333333333333</ele><time>2026-05-04T11:09:09.001Z</time></trkpt><trkpt lat="37.72142445097647" lon="14.534143997863305"><ele>698.0</ele><time>2026-05-04T11:09:10.001Z</time></trkpt><trkpt lat="37.721494923862025" lon="14.534168922394624"><ele>698.0</ele><time>2026-05-04T11:09:11.001Z</time></trkpt><trkpt lat="37.721583760497396" lon="14.534207868368883"><ele>698.0</ele><time>2026-05-04T11:09:12.001Z</time></trkpt><trkpt lat="37.721663588327935" lon="14.534331987595627"><ele>698.0</ele><time>2026-05-04T11:09:13.001Z</time></trkpt><trkpt lat="37.72177570099405" lon="14.534482401646322"><ele>698.0</ele><time>2026-05-04T11:09:14.001Z</time></trkpt><trkpt lat="37.72185325309572" lon="14.534671429511842"><ele>698.75</ele><time>2026-05-04T11:09:15.001Z</time></trkpt><trkpt lat="37.72192956873864" lon="14.53479355091124"><ele>699.5</ele><time>2026-05-04T11:09:16.001Z</time></trkpt><trkpt lat="37.722029393753886" lon="14.534857182230969"><ele>700.25</ele><time>2026-05-04T11:09:17.001Z</time></trkpt><trkpt lat="37.72214893191027" lon="14.534879131025525"><ele>701.0</ele><time>2026-05-04T11:09:18.001Z</time></trkpt><trkpt lat="37.72228897979859" lon="14.53484861316748"><ele>701.0</ele><time>2026-05-04T11:09:19.001Z</time></trkpt><trkpt lat="37.72244181564949" lon="14.534764342521921"><ele>701.0</ele><time>2026-05-04T11:09:20.001Z</time></trkpt><trkpt lat="37.722626308745674" lon="14.534641317667983"><ele>701.0</ele><time>2026-05-04T11:09:21.001Z</time></trkpt><trkpt lat="37.72284661439794" lon="14.534487844921053"><ele>704.0</ele><time>2026-05-04T11:09:22.001Z</time></trkpt><trkpt lat="37.72305050449972" lon="14.534368738054747"><ele>707.0</ele><time>2026-05-04T11:09:23.001Z</time></trkpt><trkpt lat="37.72322053696528" lon="14.534295498292748"><ele>710.0</ele><time>2026-05-04T11:09:24.001Z</time></trkpt><trkpt lat="37.72337458354151" lon="14.534262174301736"><ele>710.0</ele><time>2026-05-04T11:09:25.001Z</time></trkpt><trkpt lat="37.72351071773718" lon="14.534275943737018"><ele>710.0</ele><time>2026-05-04T11:09:26.001Z</time></trkpt><trkpt lat="37.723670628122804" lon="14.534310780659538"><ele>710.0</ele><time>2026-05-04T11:09:27.001Z</time></trkpt><trkpt lat="37.723859751346936" lon="14.534347737646868"><ele>711.3333333333333</ele><time>2026-05-04T11:09:28.001Z</time></trkpt><trkpt lat="37.724045997034175" lon="14.534384085994423"><ele>712.6666666666666</ele><time>2026-05-04T11:09:29.001Z</time></trkpt><trkpt lat="37.724241963598125" lon="14.534422857804893"><ele>714.0</ele><time>2026-05-04T11:09:30.001Z</time></trkpt><trkpt lat="37.72446682509446" lon="14.534476405949679"><ele>716.3333333333334</ele><time>2026-05-04T11:09:31.001Z</time></trkpt><trkpt lat="37.72468108624688" lon="14.534547035481426"><ele>718.6666666666667</ele><time>2026-05-04T11:09:32.001Z</time></trkpt><trkpt lat="37.72488275515235" lon="14.534609069528997"><ele>721.0</ele><time>2026-05-04T11:09:33.001Z</time></trkpt><trkpt lat="37.72505492715924" lon="14.534646749824049"><ele>721.3333333333334</ele><time>2026-05-04T11:09:34.001Z</time></trkpt><trkpt lat="37.72520698588794" lon="14.534615736645115"><ele>721.6666666666666</ele><time>2026-05-04T11:09:35.001Z</time></trkpt><trkpt lat="37.72535542561077" lon="14.534569896860353"><ele>722.0</ele><time>2026-05-04T11:09:36.001Z</time></trkpt><trkpt lat="37.7255090584178" lon="14.53450938492831"><ele>722.0</ele><time>2026-05-04T11:09:37.001Z</time></trkpt><trkpt lat="37.72567791009173" lon="14.534459365773909"><ele>722.0</ele><time>2026-05-04T11:09:38.001Z</time></trkpt><trkpt lat="37.72585593059192" lon="14.534462555005273"><ele>722.0</ele><time>2026-05-04T11:09:39.001Z</time></trkpt><trkpt lat="37.72604656543182" lon="14.534478303197806"><ele>723.0</ele><time>2026-05-04T11:09:40.001Z</time></trkpt><trkpt lat="37.7262486506549" lon="14.534486008021235"><ele>724.0</ele><time>2026-05-04T11:09:41.001Z</time></trkpt><trkpt lat="37.72644521741392" lon="14.534509656145751"><ele>725.0</ele><time>2026-05-04T11:09:42.001Z</time></trkpt><trkpt lat="37.72664296346252" lon="14.534526181963857"><ele>725.0</ele><time>2026-05-04T11:09:43.001Z</time></trkpt><trkpt lat="37.72683983766679" lon="14.534548230838027"><ele>725.0</ele><time>2026-05-04T11:09:44.001Z</time></trkpt><trkpt lat="37.72701741337482" lon="14.534580560860446"><ele>725.0</ele><time>2026-05-04T11:09:45.001Z</time></trkpt><trkpt lat="37.72717762064301" lon="14.534611159117121"><ele>723.6666666666666</ele><time>2026-05-04T11:09:46.001Z</time></trkpt><trkpt lat="37.727337523200276" lon="14.534625772391555"><ele>722.3333333333334</ele><time>2026-05-04T11:09:47.001Z</time></trkpt><trkpt lat="37.72750105282591" lon="14.534605405576022"><ele>721.0</ele><time>2026-05-04T11:09:48.001Z</time></trkpt><trkpt lat="37.72766894275849" lon="14.534546391679315"><ele>721.0</ele><time>2026-05-04T11:09:49.001Z</time></trkpt><trkpt lat="37.72781947619907" lon="14.534462721408342"><ele>721.0</ele><time>2026-05-04T11:09:50.001Z</time></trkpt><trkpt lat="37.727958945774795" lon="14.534387482526851"><ele>721.0</ele><time>2026-05-04T11:09:51.001Z</time></trkpt><trkpt lat="37.72809480706015" lon="14.53432794302711"><ele>721.0</ele><time>2026-05-04T11:09:52.001Z</time></trkpt><trkpt lat="37.728249044384384" lon="14.534331892419486"><ele>721.0</ele><time>2026-05-04T11:09:53.001Z</time></trkpt><trkpt lat="37.728424949274654" lon="14.534324661372915"><ele>721.0</ele><time>2026-05-04T11:09:54.001Z</time></trkpt><trkpt lat="37.72862141469376" lon="14.534350284663406"><ele>721.0</ele><time>2026-05-04T11:09:55.001Z</time></trkpt><trkpt lat="37.72882924791904" lon="14.534354416046648"><ele>721.0</ele><time>2026-05-04T11:09:56.001Z</time></trkpt><trkpt lat="37.72900592101471" lon="14.534375370299403"><ele>721.0</ele><time>2026-05-04T11:09:57.001Z</time></trkpt><trkpt lat="37.72916751987198" lon="14.534402604418108"><ele>721.0</ele><time>2026-05-04T11:09:58.001Z</time></trkpt><trkpt lat="37.72932335140975" lon="14.534417518476255"><ele>721.0</ele><time>2026-05-04T11:09:59.001Z</time></trkpt><trkpt lat="37.72948402820966" lon="14.534396115792756"><ele>721.0</ele><time>2026-05-04T11:10:00.001Z</time></trkpt><trkpt lat="37.72965086079521" lon="14.53432550678198"><ele>718.3333333333334</ele><time>2026-05-04T11:10:01.001Z</time></trkpt><trkpt lat="37.729826292042304" lon="14.534225298261049"><ele>715.6666666666666</ele><time>2026-05-04T11:10:02.001Z</time></trkpt><trkpt lat="37.7300119474371" lon="14.534130280599227"><ele>713.0</ele><time>2026-05-04T11:10:03.001Z</time></trkpt><trkpt lat="37.73018550906973" lon="14.53404957060369"><ele>713.3333333333333</ele><time>2026-05-04T11:10:04.001Z</time></trkpt><trkpt lat="37.73034060422644" lon="14.533953438671437"><ele>713.6666666666666</ele><time>2026-05-04T11:10:05.001Z</time></trkpt><trkpt lat="37.73048587242407" lon="14.533821102592206"><ele>714.0</ele><time>2026-05-04T11:10:06.001Z</time></trkpt><trkpt lat="37.730622127493746" lon="14.533657385168732"><ele>714.0</ele><time>2026-05-04T11:10:07.001Z</time></trkpt><trkpt lat="37.730753881566216" lon="14.533494777461872"><ele>714.0</ele><time>2026-05-04T11:10:08.001Z</time></trkpt><trkpt lat="37.73088496630339" lon="14.533351266907381"><ele>714.0</ele><time>2026-05-04T11:10:09.001Z</time></trkpt><trkpt lat="37.7309919929448" lon="14.533213860582359"><ele>713.75</ele><time>2026-05-04T11:10:10.001Z</time></trkpt><trkpt lat="37.73109984175992" lon="14.5331026917592"><ele>713.5</ele><time>2026-05-04T11:10:11.001Z</time></trkpt><trkpt lat="37.731210913395245" lon="14.53300050274687"><ele>713.25</ele><time>2026-05-04T11:10:12.001Z</time></trkpt><trkpt lat="37.731299405494276" lon="14.532910097622507"><ele>713.0</ele><time>2026-05-04T11:10:13.001Z</time></trkpt><trkpt lat="37.73139642196828" lon="14.532822353992797"><ele>713.0</ele><time>2026-05-04T11:10:14.001Z</time></trkpt><trkpt lat="37.73148841468443" lon="14.53271813863712"><ele>713.0</ele><time>2026-05-04T11:10:15.001Z</time></trkpt><trkpt lat="37.731568581943705" lon="14.5325887630553"><ele>713.0</ele><time>2026-05-04T11:10:16.001Z</time></trkpt><trkpt lat="37.731637327691615" lon="14.532439765281385"><ele>713.0</ele><time>2026-05-04T11:10:17.001Z</time></trkpt><trkpt lat="37.73170076358489" lon="14.532289877819554"><ele>713.0</ele><time>2026-05-04T11:10:18.001Z</time></trkpt><trkpt lat="37.7317568793895" lon="14.532161205426652"><ele>713.0</ele><time>2026-05-04T11:10:19.001Z</time></trkpt><trkpt lat="37.731812688813335" lon="14.532034673393632"><ele>713.0</ele><time>2026-05-04T11:10:20.001Z</time></trkpt><trkpt lat="37.73188387658912" lon="14.531929203988168"><ele>713.0</ele><time>2026-05-04T11:10:21.001Z</time></trkpt><trkpt lat="37.73197239080073" lon="14.531841971481935"><ele>713.4</ele><time>2026-05-04T11:10:22.001Z</time></trkpt><trkpt lat="37.73206778467259" lon="14.53177426047409"><ele>713.8</ele><time>2026-05-04T11:10:23.001Z</time></trkpt><trkpt lat="37.73216160400257" lon="14.531731369163776"><ele>714.2</ele><time>2026-05-04T11:10:24.002Z</time></trkpt><trkpt lat="37.732254156449876" lon="14.531708231109912"><ele>714.6</ele><time>2026-05-04T11:10:25.002Z</time></trkpt><trkpt lat="37.732342920404776" lon="14.531711233056416"><ele>715.0</ele><time>2026-05-04T11:10:26.002Z</time></trkpt><trkpt lat="37.732431762640545" lon="14.531734170112376"><ele>715.0</ele><time>2026-05-04T11:10:27.002Z</time></trkpt><trkpt lat="37.73252711706001" lon="14.53177069592673"><ele>715.0</ele><time>2026-05-04T11:10:28.002Z</time></trkpt><trkpt lat="37.73261143162014" lon="14.531815525216432"><ele>715.0</ele><time>2026-05-04T11:10:29.002Z</time></trkpt><trkpt lat="37.732691261552816" lon="14.53186779681061"><ele>715.0</ele><time>2026-05-04T11:10:30.002Z</time></trkpt><trkpt lat="37.732776943032256" lon="14.531930260544074"><ele>715.0</ele><time>2026-05-04T11:10:31.002Z</time></trkpt><trkpt lat="37.73287235435534" lon="14.531990984916668"><ele>715.5</ele><time>2026-05-04T11:10:32.002Z</time></trkpt><trkpt lat="37.73298433146586" lon="14.532030660709895"><ele>716.0</ele><time>2026-05-04T11:10:33.002Z</time></trkpt><trkpt lat="37.73311192600897" lon="14.532039137724349"><ele>716.5</ele><time>2026-05-04T11:10:34.002Z</time></trkpt><trkpt lat="37.73326609971951" lon="14.532003070850267"><ele>717.0</ele><time>2026-05-04T11:10:35.002Z</time></trkpt><trkpt lat="37.73343557169655" lon="14.531989987012235"><ele>717.5</ele><time>2026-05-04T11:10:36.001Z</time></trkpt><trkpt lat="37.73358498180372" lon="14.53195201902817"><ele>718.0</ele><time>2026-05-04T11:10:37.001Z</time></trkpt><trkpt lat="37.73372763940492" lon="14.531967102149792"><ele>718.5</ele><time>2026-05-04T11:10:38.001Z</time></trkpt><trkpt lat="37.733855347539226" lon="14.532009368205262"><ele>719.0</ele><time>2026-05-04T11:10:39.001Z</time></trkpt><trkpt lat="37.733977522245944" lon="14.532064802573801"><ele>714.6666666666666</ele><time>2026-05-04T11:10:40.001Z</time></trkpt><trkpt lat="37.73410640166479" lon="14.532159288820743"><ele>710.3333333333334</ele><time>2026-05-04T11:10:41.001Z</time></trkpt><trkpt lat="37.734228204386675" lon="14.532302205378386"><ele>706.0</ele><time>2026-05-04T11:10:42.001Z</time></trkpt><trkpt lat="37.73435888491229" lon="14.53242456827274"><ele>706.25</ele><time>2026-05-04T11:10:43.001Z</time></trkpt><trkpt lat="37.73448171334655" lon="14.532529771547495"><ele>706.5</ele><time>2026-05-04T11:10:44.001Z</time></trkpt><trkpt lat="37.73459352973792" lon="14.532597351990814"><ele>706.75</ele><time>2026-05-04T11:10:45.001Z</time></trkpt><trkpt lat="37.73470825514228" lon="14.532633552669536"><ele>707.0</ele><time>2026-05-04T11:10:46.001Z</time></trkpt><trkpt lat="37.73483040688146" lon="14.532641605599752"><ele>707.0</ele><time>2026-05-04T11:10:47.001Z</time></trkpt><trkpt lat="37.73497275693945" lon="14.532594547105688"><ele>707.0</ele><time>2026-05-04T11:10:48.001Z</time></trkpt><trkpt lat="37.73510810430861" lon="14.532500895533957"><ele>707.0</ele><time>2026-05-04T11:10:49.001Z</time></trkpt><trkpt lat="37.735225516825466" lon="14.532373403218863"><ele>705.6666666666666</ele><time>2026-05-04T11:10:50.001Z</time></trkpt><trkpt lat="37.73529908591691" lon="14.532182296233756"><ele>704.3333333333334</ele><time>2026-05-04T11:10:51.001Z</time></trkpt><trkpt lat="37.735372868949355" lon="14.531980647945447"><ele>703.0</ele><time>2026-05-04T11:10:52.001Z</time></trkpt><trkpt lat="37.73548900139654" lon="14.53181575719405"><ele>703.0</ele><time>2026-05-04T11:10:53.001Z</time></trkpt><trkpt lat="37.73560481782084" lon="14.531650979669127"><ele>703.0</ele><time>2026-05-04T11:10:54.001Z</time></trkpt><trkpt lat="37.735740416123335" lon="14.531490744492249"><ele>703.0</ele><time>2026-05-04T11:10:55.001Z</time></trkpt><trkpt lat="37.73589451593053" lon="14.531352777270593"><ele>702.0</ele><time>2026-05-04T11:10:56.001Z</time></trkpt><trkpt lat="37.73605641927908" lon="14.531212596388627"><ele>701.0</ele><time>2026-05-04T11:10:57.001Z</time></trkpt><trkpt lat="37.73620790318038" lon="14.531081993156807"><ele>700.0</ele><time>2026-05-04T11:10:58.001Z</time></trkpt><trkpt lat="37.7363552516183" lon="14.5309621487261"><ele>700.0</ele><time>2026-05-04T11:10:59.001Z</time></trkpt><trkpt lat="37.73650585479826" lon="14.530856631850698"><ele>700.0</ele><time>2026-05-04T11:11:00.001Z</time></trkpt><trkpt lat="37.7366711595872" lon="14.530791569811965"><ele>700.0</ele><time>2026-05-04T11:11:01.001Z</time></trkpt><trkpt lat="37.736843005970904" lon="14.530720206818803"><ele>697.6666666666667</ele><time>2026-05-04T11:11:02.001Z</time></trkpt><trkpt lat="37.73702208787986" lon="14.530649757382164"><ele>695.3333333333334</ele><time>2026-05-04T11:11:03.001Z</time></trkpt><trkpt lat="37.737202165476425" lon="14.53057891751494"><ele>693.0</ele><time>2026-05-04T11:11:04.001Z</time></trkpt><trkpt lat="37.73738202327064" lon="14.530509292047418"><ele>693.0</ele><time>2026-05-04T11:11:05.001Z</time></trkpt><trkpt lat="37.737563962093446" lon="14.530451734059508"><ele>693.0</ele><time>2026-05-04T11:11:06.001Z</time></trkpt><trkpt lat="37.73774317422511" lon="14.530439499006954"><ele>693.0</ele><time>2026-05-04T11:11:07.001Z</time></trkpt><trkpt lat="37.73792837356165" lon="14.530495942714841"><ele>694.0</ele><time>2026-05-04T11:11:08.001Z</time></trkpt><trkpt lat="37.73812349994629" lon="14.530589844912974"><ele>695.0</ele><time>2026-05-04T11:11:09.001Z</time></trkpt><trkpt lat="37.73833618496408" lon="14.530703935125416"><ele>696.0</ele><time>2026-05-04T11:11:10.001Z</time></trkpt><trkpt lat="37.738525117308924" lon="14.530814886522432"><ele>700.0</ele><time>2026-05-04T11:11:11.001Z</time></trkpt><trkpt lat="37.73868787919671" lon="14.530960948835467"><ele>704.0</ele><time>2026-05-04T11:11:12.001Z</time></trkpt><trkpt lat="37.73882035171363" lon="14.531142069577278"><ele>708.0</ele><time>2026-05-04T11:11:13.001Z</time></trkpt><trkpt lat="37.73891981353373" lon="14.53137992202021"><ele>707.3333333333334</ele><time>2026-05-04T11:11:14.001Z</time></trkpt><trkpt lat="37.739013922010365" lon="14.53163585279152"><ele>706.6666666666667</ele><time>2026-05-04T11:11:15.001Z</time></trkpt><trkpt lat="37.73911461274778" lon="14.53187132619813"><ele>706.0</ele><time>2026-05-04T11:11:16.001Z</time></trkpt><trkpt lat="37.739212064002295" lon="14.532075062268675"><ele>706.0</ele><time>2026-05-04T11:11:17.001Z</time></trkpt><trkpt lat="37.73930910781304" lon="14.53223918562043"><ele>706.0</ele><time>2026-05-04T11:11:18.001Z</time></trkpt><trkpt lat="37.739432028444895" lon="14.532409627685903"><ele>706.0</ele><time>2026-05-04T11:11:19.001Z</time></trkpt><trkpt lat="37.73956515192616" lon="14.532559136325947"><ele>708.0</ele><time>2026-05-04T11:11:20.001Z</time></trkpt><trkpt lat="37.739695861905155" lon="14.532705788586473"><ele>710.0</ele><time>2026-05-04T11:11:21.001Z</time></trkpt><trkpt lat="37.73981507209505" lon="14.532857018343492"><ele>712.0</ele><time>2026-05-04T11:11:22.001Z</time></trkpt><trkpt lat="37.739941627999926" lon="14.533021725468446"><ele>712.0</ele><time>2026-05-04T11:11:23.001Z</time></trkpt><trkpt lat="37.74008414566236" lon="14.533150015069824"><ele>712.0</ele><time>2026-05-04T11:11:24.001Z</time></trkpt><trkpt lat="37.740262884581036" lon="14.53326809342031"><ele>712.0</ele><time>2026-05-04T11:11:25.001Z</time></trkpt><trkpt lat="37.740452423145825" lon="14.533375393451257"><ele>716.3333333333334</ele><time>2026-05-04T11:11:26.001Z</time></trkpt><trkpt lat="37.74064362760469" lon="14.533480016889241"><ele>720.6666666666666</ele><time>2026-05-04T11:11:27.001Z</time></trkpt><trkpt lat="37.740818118013536" lon="14.53360402699317"><ele>725.0</ele><time>2026-05-04T11:11:28.001Z</time></trkpt><trkpt lat="37.74098425904061" lon="14.533741424286509"><ele>726.3333333333333</ele><time>2026-05-04T11:11:29.001Z</time></trkpt><trkpt lat="37.74113466234395" lon="14.533889282868262"><ele>727.6666666666666</ele><time>2026-05-04T11:11:30.001Z</time></trkpt><trkpt lat="37.74129338201595" lon="14.53402901622211"><ele>729.0</ele><time>2026-05-04T11:11:31.001Z</time></trkpt><trkpt lat="37.74145501841336" lon="14.534138751776766"><ele>729.0</ele><time>2026-05-04T11:11:32.001Z</time></trkpt><trkpt lat="37.74164298003885" lon="14.534227093918828"><ele>729.0</ele><time>2026-05-04T11:11:33.001Z</time></trkpt><trkpt lat="37.74184896043444" lon="14.534311959711559"><ele>729.0</ele><time>2026-05-04T11:11:34.001Z</time></trkpt><trkpt lat="37.74203569097475" lon="14.534407912847398"><ele>730.0</ele><time>2026-05-04T11:11:35.001Z</time></trkpt><trkpt lat="37.74220943820941" lon="14.534483568555185"><ele>731.0</ele><time>2026-05-04T11:11:36.001Z</time></trkpt><trkpt lat="37.74238757132312" lon="14.534538055433021"><ele>732.0</ele><time>2026-05-04T11:11:37.001Z</time></trkpt><trkpt lat="37.7425750868852" lon="14.534569564494488"><ele>738.6666666666666</ele><time>2026-05-04T11:11:38.001Z</time></trkpt><trkpt lat="37.74277372111471" lon="14.534582436586431"><ele>745.3333333333333</ele><time>2026-05-04T11:11:39.001Z</time></trkpt><trkpt lat="37.74297546891142" lon="14.534593303453489"><ele>752.0</ele><time>2026-05-04T11:11:40.001Z</time></trkpt><trkpt lat="37.743177327765196" lon="14.53461528474273"><ele>752.0</ele><time>2026-05-04T11:11:41.001Z</time></trkpt><trkpt lat="37.74335328909063" lon="14.534620110350172"><ele>752.0</ele><time>2026-05-04T11:11:42.001Z</time></trkpt><trkpt lat="37.743509745843035" lon="14.534629498048336"><ele>752.0</ele><time>2026-05-04T11:11:43.001Z</time></trkpt><trkpt lat="37.743647346934644" lon="14.534658767227574"><ele>755.6666666666666</ele><time>2026-05-04T11:11:44.001Z</time></trkpt><trkpt lat="37.74379153511728" lon="14.53471786549459"><ele>759.3333333333334</ele><time>2026-05-04T11:11:45.001Z</time></trkpt><trkpt lat="37.74393716405066" lon="14.534821770469716"><ele>763.0</ele><time>2026-05-04T11:11:46.001Z</time></trkpt><trkpt lat="37.74408127160533" lon="14.534964427429498"><ele>763.0</ele><time>2026-05-04T11:11:47.001Z</time></trkpt><trkpt lat="37.74422466586811" lon="14.53513012167395"><ele>763.0</ele><time>2026-05-04T11:11:48.001Z</time></trkpt><trkpt lat="37.74438265349441" lon="14.535300883636134"><ele>763.0</ele><time>2026-05-04T11:11:49.001Z</time></trkpt><trkpt lat="37.74454760562897" lon="14.53546743137126"><ele>768.3333333333334</ele><time>2026-05-04T11:11:50.001Z</time></trkpt><trkpt lat="37.744718630490105" lon="14.535646954546547"><ele>773.6666666666667</ele><time>2026-05-04T11:11:51.001Z</time></trkpt><trkpt lat="37.74488578247145" lon="14.535828007147645"><ele>779.0</ele><time>2026-05-04T11:11:52.001Z</time></trkpt><trkpt lat="37.74503446647365" lon="14.535988609863743"><ele>779.0</ele><time>2026-05-04T11:11:53.001Z</time></trkpt><trkpt lat="37.745169878269145" lon="14.536149414836213"><ele>779.0</ele><time>2026-05-04T11:11:54.001Z</time></trkpt><trkpt lat="37.74525585855214" lon="14.536342032650932"><ele>779.0</ele><time>2026-05-04T11:11:55.001Z</time></trkpt><trkpt lat="37.745358334873174" lon="14.536521523321198"><ele>779.3333333333334</ele><time>2026-05-04T11:11:56.001Z</time></trkpt><trkpt lat="37.745444870134655" lon="14.536696395047821"><ele>779.6666666666667</ele><time>2026-05-04T11:11:57.001Z</time></trkpt><trkpt lat="37.74554248847236" lon="14.536851984560945"><ele>780.0</ele><time>2026-05-04T11:11:58.001Z</time></trkpt><trkpt lat="37.745659224918654" lon="14.53698223763389"><ele>784.3333333333333</ele><time>2026-05-04T11:11:59.001Z</time></trkpt><trkpt lat="37.74580015668967" lon="14.537084834639874"><ele>788.6666666666666</ele><time>2026-05-04T11:12:00.001Z</time></trkpt><trkpt lat="37.745950775628096" lon="14.537155328817695"><ele>793.0</ele><time>2026-05-04T11:12:01.001Z</time></trkpt><trkpt lat="37.74611343762682" lon="14.537185523491528"><ele>797.25</ele><time>2026-05-04T11:12:02.001Z</time></trkpt><trkpt lat="37.746256333404865" lon="14.537226628553398"><ele>801.5</ele><time>2026-05-04T11:12:03.001Z</time></trkpt><trkpt lat="37.746374902259284" lon="14.537305138796185"><ele>805.75</ele><time>2026-05-04T11:12:04.001Z</time></trkpt><trkpt lat="37.746477606342395" lon="14.53745266654583"><ele>810.0</ele><time>2026-05-04T11:12:05.001Z</time></trkpt><trkpt lat="37.74653724646504" lon="14.537625031712214"><ele>810.0</ele><time>2026-05-04T11:12:06.001Z</time></trkpt><trkpt lat="37.74651808486113" lon="14.537821096519433"><ele>810.0</ele><time>2026-05-04T11:12:07.001Z</time></trkpt><trkpt lat="37.746470815089225" lon="14.53799650687994"><ele>810.0</ele><time>2026-05-04T11:12:08.001Z</time></trkpt><trkpt lat="37.746399308626536" lon="14.538189462064038"><ele>812.0</ele><time>2026-05-04T11:12:09.001Z</time></trkpt><trkpt lat="37.74633148767078" lon="14.538352356749899"><ele>814.0</ele><time>2026-05-04T11:12:10.001Z</time></trkpt><trkpt lat="37.74629759608405" lon="14.538531350729588"><ele>816.0</ele><time>2026-05-04T11:12:11.001Z</time></trkpt><trkpt lat="37.746315037655144" lon="14.538714778256423"><ele>818.0</ele><time>2026-05-04T11:12:12.001Z</time></trkpt><trkpt lat="37.74637424956608" lon="14.5388648269165"><ele>818.0</ele><time>2026-05-04T11:12:13.001Z</time></trkpt><trkpt lat="37.74647109712123" lon="14.538985716450634"><ele>818.0</ele><time>2026-05-04T11:12:14.001Z</time></trkpt><trkpt lat="37.746615652239704" lon="14.539057821596247"><ele>818.0</ele><time>2026-05-04T11:12:15.001Z</time></trkpt><trkpt lat="37.74678243911336" lon="14.53911226610985"><ele>822.3333333333334</ele><time>2026-05-04T11:12:16.001Z</time></trkpt><trkpt lat="37.74696599234116" lon="14.539165236890158"><ele>826.6666666666667</ele><time>2026-05-04T11:12:17.001Z</time></trkpt><trkpt lat="37.7471381180284" lon="14.539281391612068"><ele>831.0</ele><time>2026-05-04T11:12:18.001Z</time></trkpt><trkpt lat="37.747275682538664" lon="14.539443115299868"><ele>823.0</ele><time>2026-05-04T11:12:19.001Z</time></trkpt><trkpt lat="37.747399836164554" lon="14.539590037486878"><ele>815.0</ele><time>2026-05-04T11:12:20.001Z</time></trkpt><trkpt lat="37.74753798915855" lon="14.539711046900875"><ele>807.0</ele><time>2026-05-04T11:12:21.001Z</time></trkpt><trkpt lat="37.74770849465739" lon="14.53982235209742"><ele>807.6666666666667</ele><time>2026-05-04T11:12:22.001Z</time></trkpt><trkpt lat="37.74785792194142" lon="14.539915696348787"><ele>808.3333333333334</ele><time>2026-05-04T11:12:23.001Z</time></trkpt><trkpt lat="37.747999171062666" lon="14.539983778438387"><ele>809.0</ele><time>2026-05-04T11:12:24.001Z</time></trkpt><trkpt lat="37.748150952507835" lon="14.539987205545962"><ele>809.0</ele><time>2026-05-04T11:12:25.001Z</time></trkpt><trkpt lat="37.74831361848776" lon="14.53994316158984"><ele>809.0</ele><time>2026-05-04T11:12:26.001Z</time></trkpt><trkpt lat="37.74848641394421" lon="14.539864573412936"><ele>809.0</ele><time>2026-05-04T11:12:27.001Z</time></trkpt><trkpt lat="37.748662616784095" lon="14.539798301982454"><ele>809.75</ele><time>2026-05-04T11:12:28.001Z</time></trkpt><trkpt lat="37.74882662960374" lon="14.539741329867924"><ele>810.5</ele><time>2026-05-04T11:12:29.001Z</time></trkpt><trkpt lat="37.74896059381999" lon="14.539730667258002"><ele>811.25</ele><time>2026-05-04T11:12:30.001Z</time></trkpt><trkpt lat="37.749099963681566" lon="14.53976285318933"><ele>812.0</ele><time>2026-05-04T11:12:31.001Z</time></trkpt><trkpt lat="37.749212495775865" lon="14.539870162122076"><ele>812.0</ele><time>2026-05-04T11:12:32.001Z</time></trkpt><trkpt lat="37.74929845309441" lon="14.540022939464627"><ele>812.0</ele><time>2026-05-04T11:12:33.001Z</time></trkpt><trkpt lat="37.7493761533613" lon="14.540166084952336"><ele>812.0</ele><time>2026-05-04T11:12:34.001Z</time></trkpt><trkpt lat="37.74947763747633" lon="14.540310386335555"><ele>812.0</ele><time>2026-05-04T11:12:35.001Z</time></trkpt><trkpt lat="37.749640385255766" lon="14.540437336391582"><ele>812.0</ele><time>2026-05-04T11:12:36.002Z</time></trkpt><trkpt lat="37.749791509519106" lon="14.54054317440042"><ele>812.0</ele><time>2026-05-04T11:12:37.002Z</time></trkpt><trkpt lat="37.749939065442234" lon="14.54066757713233"><ele>812.0</ele><time>2026-05-04T11:12:38.002Z</time></trkpt><trkpt lat="37.75006524171681" lon="14.540855396033079"><ele>812.0</ele><time>2026-05-04T11:12:39.002Z</time></trkpt><trkpt lat="37.75019680361016" lon="14.541026289621806"><ele>812.0</ele><time>2026-05-04T11:12:40.002Z</time></trkpt><trkpt lat="37.750311982758866" lon="14.541150247842992"><ele>812.0</ele><time>2026-05-04T11:12:41.002Z</time></trkpt><trkpt lat="37.75043134872451" lon="14.541247724103204"><ele>814.3333333333334</ele><time>2026-05-04T11:12:42.001Z</time></trkpt><trkpt lat="37.75054152935789" lon="14.541353162702247"><ele>816.6666666666667</ele><time>2026-05-04T11:12:43.001Z</time></trkpt><trkpt lat="37.750595937509964" lon="14.541546095487636"><ele>819.0</ele><time>2026-05-04T11:12:44.001Z</time></trkpt><trkpt lat="37.750609627698054" lon="14.541754097332916"><ele>819.0</ele><time>2026-05-04T11:12:45.001Z</time></trkpt><trkpt lat="37.75061253658085" lon="14.541949670118708"><ele>819.0</ele><time>2026-05-04T11:12:46.001Z</time></trkpt><trkpt lat="37.750667496153184" lon="14.542065591880316"><ele>819.0</ele><time>2026-05-04T11:12:47.001Z</time></trkpt><trkpt lat="37.750765137510285" lon="14.542211262861363"><ele>819.0</ele><time>2026-05-04T11:12:48.001Z</time></trkpt><trkpt lat="37.75084232000076" lon="14.542364725363266"><ele>817.0</ele><time>2026-05-04T11:12:49.001Z</time></trkpt><trkpt lat="37.75094947388187" lon="14.542512730626616"><ele>815.0</ele><time>2026-05-04T11:12:50.001Z</time></trkpt><trkpt lat="37.751045813612606" lon="14.542623556563479"><ele>813.0</ele><time>2026-05-04T11:12:51.001Z</time></trkpt><trkpt lat="37.75116019250716" lon="14.542693637117864"><ele>811.0</ele><time>2026-05-04T11:12:52.001Z</time></trkpt><trkpt lat="37.751280837111665" lon="14.542732764113591"><ele>815.0</ele><time>2026-05-04T11:12:53.001Z</time></trkpt><trkpt lat="37.751411254332844" lon="14.542756668851508"><ele>819.0</ele><time>2026-05-04T11:12:54.001Z</time></trkpt><trkpt lat="37.751548820199666" lon="14.542769482710392"><ele>823.0</ele><time>2026-05-04T11:12:55.001Z</time></trkpt><trkpt lat="37.75170598601972" lon="14.542788265528435"><ele>827.0</ele><time>2026-05-04T11:12:56.001Z</time></trkpt><trkpt lat="37.75187159738927" lon="14.542811280085047"><ele>823.0</ele><time>2026-05-04T11:12:57.001Z</time></trkpt><trkpt lat="37.75204663507574" lon="14.542835936519802"><ele>819.0</ele><time>2026-05-04T11:12:58.001Z</time></trkpt><trkpt lat="37.75221822721864" lon="14.542861065695153"><ele>815.0</ele><time>2026-05-04T11:12:59.001Z</time></trkpt><trkpt lat="37.75237103681542" lon="14.542895883341792"><ele>815.0</ele><time>2026-05-04T11:13:00.001Z</time></trkpt><trkpt lat="37.752513980281286" lon="14.542933950842228"><ele>815.0</ele><time>2026-05-04T11:13:01.001Z</time></trkpt><trkpt lat="37.752685556719115" lon="14.54295937322995"><ele>815.0</ele><time>2026-05-04T11:13:02.001Z</time></trkpt><trkpt lat="37.75283518545452" lon="14.542955794885906"><ele>808.3333333333334</ele><time>2026-05-04T11:13:03.001Z</time></trkpt><trkpt lat="37.75297202395567" lon="14.542939462890937"><ele>801.6666666666667</ele><time>2026-05-04T11:13:04.001Z</time></trkpt><trkpt lat="37.753121562090435" lon="14.542875976167489"><ele>795.0</ele><time>2026-05-04T11:13:05.001Z</time></trkpt><trkpt lat="37.75327788534995" lon="14.54278647257712"><ele>795.0</ele><time>2026-05-04T11:13:06.001Z</time></trkpt><trkpt lat="37.75343769682453" lon="14.542693732198984"><ele>795.0</ele><time>2026-05-04T11:13:07.001Z</time></trkpt><trkpt lat="37.75358709454457" lon="14.542599003876738"><ele>795.0</ele><time>2026-05-04T11:13:08.001Z</time></trkpt><trkpt lat="37.75374337046133" lon="14.542547667164168"><ele>792.6666666666667</ele><time>2026-05-04T11:13:09.001Z</time></trkpt><trkpt lat="37.75389593436988" lon="14.542506705574159"><ele>790.3333333333334</ele><time>2026-05-04T11:13:10.001Z</time></trkpt><trkpt lat="37.754045072968175" lon="14.542473474724362"><ele>788.0</ele><time>2026-05-04T11:13:11.001Z</time></trkpt><trkpt lat="37.75418842695295" lon="14.542451336342944"><ele>788.0</ele><time>2026-05-04T11:13:12.001Z</time></trkpt><trkpt lat="37.75433511909334" lon="14.542434921500881"><ele>788.0</ele><time>2026-05-04T11:13:13.001Z</time></trkpt><trkpt lat="37.7544887894775" lon="14.542422329048463"><ele>788.0</ele><time>2026-05-04T11:13:14.001Z</time></trkpt><trkpt lat="37.75464820341109" lon="14.542409513521442"><ele>786.3333333333334</ele><time>2026-05-04T11:13:15.001Z</time></trkpt><trkpt lat="37.75480495435526" lon="14.542404394749294"><ele>784.6666666666667</ele><time>2026-05-04T11:13:16.001Z</time></trkpt><trkpt lat="37.754970053164485" lon="14.542418084202751"><ele>783.0</ele><time>2026-05-04T11:13:17.001Z</time></trkpt><trkpt lat="37.75513582143316" lon="14.542462950254183"><ele>783.3333333333333</ele><time>2026-05-04T11:13:18.001Z</time></trkpt><trkpt lat="37.75530011558006" lon="14.542525059670261"><ele>783.6666666666666</ele><time>2026-05-04T11:13:19.001Z</time></trkpt><trkpt lat="37.75546704710986" lon="14.542594901572874"><ele>784.0</ele><time>2026-05-04T11:13:20.001Z</time></trkpt><trkpt lat="37.755634401723015" lon="14.542668056369834"><ele>784.0</ele><time>2026-05-04T11:13:21.001Z</time></trkpt><trkpt lat="37.7557862512759" lon="14.542749622113776"><ele>784.0</ele><time>2026-05-04T11:13:22.001Z</time></trkpt><trkpt lat="37.75592330169015" lon="14.542855869396705"><ele>784.0</ele><time>2026-05-04T11:13:23.001Z</time></trkpt><trkpt lat="37.75604676065608" lon="14.542988848602672"><ele>785.6666666666666</ele><time>2026-05-04T11:13:24.001Z</time></trkpt><trkpt lat="37.75616407911887" lon="14.54313337478483"><ele>787.3333333333333</ele><time>2026-05-04T11:13:25.001Z</time></trkpt><trkpt lat="37.756279409361355" lon="14.543281227443048"><ele>789.0</ele><time>2026-05-04T11:13:26.001Z</time></trkpt><trkpt lat="37.75639235753709" lon="14.543435581272554"><ele>789.0</ele><time>2026-05-04T11:13:27.001Z</time></trkpt><trkpt lat="37.75649953224038" lon="14.54358329214916"><ele>789.0</ele><time>2026-05-04T11:13:28.001Z</time></trkpt><trkpt lat="37.75660065301945" lon="14.543714879717996"><ele>789.0</ele><time>2026-05-04T11:13:29.001Z</time></trkpt><trkpt lat="37.75671153129071" lon="14.54382628369472"><ele>789.0</ele><time>2026-05-04T11:13:30.001Z</time></trkpt><trkpt lat="37.75683783610093" lon="14.543918806629565"><ele>787.0</ele><time>2026-05-04T11:13:31.001Z</time></trkpt><trkpt lat="37.756982829685825" lon="14.543997363093359"><ele>785.0</ele><time>2026-05-04T11:13:32.001Z</time></trkpt><trkpt lat="37.75713524503134" lon="14.544071663223946"><ele>783.0</ele><time>2026-05-04T11:13:33.001Z</time></trkpt><trkpt lat="37.757297425114125" lon="14.544140702489655"><ele>783.0</ele><time>2026-05-04T11:13:34.001Z</time></trkpt><trkpt lat="37.75745972740789" lon="14.54420461585179"><ele>783.0</ele><time>2026-05-04T11:13:35.001Z</time></trkpt><trkpt lat="37.757632096768226" lon="14.544242478700719"><ele>783.0</ele><time>2026-05-04T11:13:36.001Z</time></trkpt><trkpt lat="37.75780678691459" lon="14.544244937595481"><ele>781.6666666666667</ele><time>2026-05-04T11:13:37.001Z</time></trkpt><trkpt lat="37.75798422553424" lon="14.54424797649535"><ele>780.3333333333334</ele><time>2026-05-04T11:13:38.001Z</time></trkpt><trkpt lat="37.75816285114847" lon="14.544271624786408"><ele>779.0</ele><time>2026-05-04T11:13:39.001Z</time></trkpt><trkpt lat="37.758345641039696" lon="14.544310359024049"><ele>778.6666666666667</ele><time>2026-05-04T11:13:40.001Z</time></trkpt><trkpt lat="37.758539204832445" lon="14.54436596917973"><ele>778.3333333333333</ele><time>2026-05-04T11:13:41.001Z</time></trkpt><trkpt lat="37.75874611527903" lon="14.5444440575199"><ele>778.0</ele><time>2026-05-04T11:13:42.001Z</time></trkpt><trkpt lat="37.75896659743112" lon="14.544541510264985"><ele>780.0</ele><time>2026-05-04T11:13:43.001Z</time></trkpt><trkpt lat="37.75920287530682" lon="14.544646988325725"><ele>782.0</ele><time>2026-05-04T11:13:44.001Z</time></trkpt><trkpt lat="37.75944756092321" lon="14.544766295506912"><ele>784.0</ele><time>2026-05-04T11:13:45.001Z</time></trkpt><trkpt lat="37.7597042017866" lon="14.544907337023412"><ele>786.0</ele><time>2026-05-04T11:13:46.001Z</time></trkpt><trkpt lat="37.75996862568176" lon="14.54506538272468"><ele>785.0</ele><time>2026-05-04T11:13:47.001Z</time></trkpt><trkpt lat="37.76023875755304" lon="14.54522954836942"><ele>784.0</ele><time>2026-05-04T11:13:48.001Z</time></trkpt><trkpt lat="37.760517763150226" lon="14.545396057623915"><ele>789.0</ele><time>2026-05-04T11:13:49.001Z</time></trkpt><trkpt lat="37.76078008854814" lon="14.545554407007218"><ele>794.0</ele><time>2026-05-04T11:13:50.001Z</time></trkpt><trkpt lat="37.76102224448388" lon="14.545698686705796"><ele>796.0</ele><time>2026-05-04T11:13:51.001Z</time></trkpt><trkpt lat="37.761239487141474" lon="14.545826473414122"><ele>798.0</ele><time>2026-05-04T11:13:52.001Z</time></trkpt><trkpt lat="37.76143844065801" lon="14.545940713092964"><ele>798.0</ele><time>2026-05-04T11:13:53.001Z</time></trkpt><trkpt lat="37.76162856579574" lon="14.546049327375888"><ele>798.0</ele><time>2026-05-04T11:13:54.001Z</time></trkpt><trkpt lat="37.76180647592888" lon="14.546154861053893"><ele>798.0</ele><time>2026-05-04T11:13:55.001Z</time></trkpt><trkpt lat="37.76198038225852" lon="14.54626060184885"><ele>800.3333333333333</ele><time>2026-05-04T11:13:56.001Z</time></trkpt><trkpt lat="37.7621781765865" lon="14.546346303030985"><ele>802.6666666666666</ele><time>2026-05-04T11:13:57.001Z</time></trkpt><trkpt lat="37.76240183639432" lon="14.546399679225969"><ele>805.0</ele><time>2026-05-04T11:13:58.001Z</time></trkpt><trkpt lat="37.7626402154902" lon="14.546421236418151"><ele>809.0</ele><time>2026-05-04T11:13:59.001Z</time></trkpt><trkpt lat="37.76288975685458" lon="14.546440186332216"><ele>813.0</ele><time>2026-05-04T11:14:00.001Z</time></trkpt><trkpt lat="37.763135433626005" lon="14.546466753943719"><ele>813.0</ele><time>2026-05-04T11:14:01.001Z</time></trkpt><trkpt lat="37.76335727447821" lon="14.546497439991134"><ele>813.0</ele><time>2026-05-04T11:14:02.001Z</time></trkpt><trkpt lat="37.76355519892869" lon="14.546527066006496"><ele>813.0</ele><time>2026-05-04T11:14:03.001Z</time></trkpt><trkpt lat="37.76373806083337" lon="14.546555388001904"><ele>815.0</ele><time>2026-05-04T11:14:04.001Z</time></trkpt><trkpt lat="37.763917870370705" lon="14.546607333885309"><ele>817.0</ele><time>2026-05-04T11:14:05.001Z</time></trkpt><trkpt lat="37.76410656882129" lon="14.546699421896637"><ele>819.0</ele><time>2026-05-04T11:14:06.001Z</time></trkpt><trkpt lat="37.76430730193967" lon="14.54682186410893"><ele>821.5</ele><time>2026-05-04T11:14:07.001Z</time></trkpt><trkpt lat="37.76451335739784" lon="14.546945923821525"><ele>824.0</ele><time>2026-05-04T11:14:08.001Z</time></trkpt><trkpt lat="37.764733421844454" lon="14.547067866885852"><ele>826.0</ele><time>2026-05-04T11:14:09.001Z</time></trkpt><trkpt lat="37.76494571874214" lon="14.547192645645497"><ele>828.0</ele><time>2026-05-04T11:14:10.001Z</time></trkpt><trkpt lat="37.76514649193923" lon="14.547303858416097"><ele>831.3333333333333</ele><time>2026-05-04T11:14:11.001Z</time></trkpt><trkpt lat="37.76532691853212" lon="14.547401276924731"><ele>834.6666666666666</ele><time>2026-05-04T11:14:12.001Z</time></trkpt><trkpt lat="37.76548481075706" lon="14.54748131876319"><ele>838.0</ele><time>2026-05-04T11:14:13.001Z</time></trkpt><trkpt lat="37.76561650838621" lon="14.547575011953937"><ele>838.0</ele><time>2026-05-04T11:14:14.001Z</time></trkpt><trkpt lat="37.76572997580451" lon="14.547719621571298"><ele>838.0</ele><time>2026-05-04T11:14:15.001Z</time></trkpt><trkpt lat="37.76575290687323" lon="14.54788626227465"><ele>838.0</ele><time>2026-05-04T11:14:16.001Z</time></trkpt><trkpt lat="37.765747462793485" lon="14.548055289471858"><ele>838.0</ele><time>2026-05-04T11:14:17.001Z</time></trkpt><trkpt lat="37.76571361644159" lon="14.548258215543093"><ele>839.25</ele><time>2026-05-04T11:14:18.001Z</time></trkpt><trkpt lat="37.7657039827262" lon="14.548436381887818"><ele>840.5</ele><time>2026-05-04T11:14:19.001Z</time></trkpt><trkpt lat="37.76570607187855" lon="14.548607448686608"><ele>841.75</ele><time>2026-05-04T11:14:20.001Z</time></trkpt><trkpt lat="37.765779991553686" lon="14.548769379980358"><ele>843.0</ele><time>2026-05-04T11:14:21.001Z</time></trkpt><trkpt lat="37.76590749594727" lon="14.548904095018313"><ele>845.3333333333333</ele><time>2026-05-04T11:14:22.001Z</time></trkpt><trkpt lat="37.76605034965016" lon="14.549003724591895"><ele>847.6666666666666</ele><time>2026-05-04T11:14:23.001Z</time></trkpt><trkpt lat="37.76624587758156" lon="14.549088053686425"><ele>850.0</ele><time>2026-05-04T11:14:24.001Z</time></trkpt><trkpt lat="37.766438896331564" lon="14.549189789680257"><ele>850.0</ele><time>2026-05-04T11:14:25.001Z</time></trkpt><trkpt lat="37.766632295798296" lon="14.549305769192083"><ele>850.0</ele><time>2026-05-04T11:14:26.001Z</time></trkpt><trkpt lat="37.76684539514593" lon="14.54942917628341"><ele>850.0</ele><time>2026-05-04T11:14:27.001Z</time></trkpt><trkpt lat="37.76706417913838" lon="14.549569441115107"><ele>855.6666666666666</ele><time>2026-05-04T11:14:28.001Z</time></trkpt><trkpt lat="37.76727875220963" lon="14.549685291887121"><ele>861.3333333333333</ele><time>2026-05-04T11:14:29.001Z</time></trkpt><trkpt lat="37.767451219554204" lon="14.549805311369447"><ele>867.0</ele><time>2026-05-04T11:14:30.001Z</time></trkpt><trkpt lat="37.76762909679157" lon="14.549923646322132"><ele>868.6666666666667</ele><time>2026-05-04T11:14:31.001Z</time></trkpt><trkpt lat="37.76777063092856" lon="14.550036646035275"><ele>870.3333333333334</ele><time>2026-05-04T11:14:32.001Z</time></trkpt><trkpt lat="37.767902567656094" lon="14.550135049238753"><ele>872.0</ele><time>2026-05-04T11:14:33.001Z</time></trkpt><trkpt lat="37.768027241105386" lon="14.550230025828833"><ele>872.0</ele><time>2026-05-04T11:14:34.001Z</time></trkpt><trkpt lat="37.76810269492794" lon="14.550367135130228"><ele>872.0</ele><time>2026-05-04T11:14:35.001Z</time></trkpt><trkpt lat="37.76816838021056" lon="14.550535322116971"><ele>872.0</ele><time>2026-05-04T11:14:36.001Z</time></trkpt><trkpt lat="37.76822718328922" lon="14.550716622695756"><ele>872.0</ele><time>2026-05-04T11:14:37.001Z</time></trkpt><trkpt lat="37.768293146289174" lon="14.55086764818474"><ele>873.5</ele><time>2026-05-04T11:14:38.001Z</time></trkpt><trkpt lat="37.76838373007459" lon="14.55098484256417"><ele>875.0</ele><time>2026-05-04T11:14:39.001Z</time></trkpt><trkpt lat="37.76850030646473" lon="14.551075356906077"><ele>876.5</ele><time>2026-05-04T11:14:40.001Z</time></trkpt><trkpt lat="37.768630288455896" lon="14.551160591296647"><ele>878.0</ele><time>2026-05-04T11:14:41.001Z</time></trkpt><trkpt lat="37.76875101121243" lon="14.551233367061363"><ele>880.6666666666667</ele><time>2026-05-04T11:14:42.001Z</time></trkpt><trkpt lat="37.7688919711188" lon="14.551324072240961"><ele>883.3333333333333</ele><time>2026-05-04T11:14:43.001Z</time></trkpt><trkpt lat="37.76902991162392" lon="14.551422436713338"><ele>886.0</ele><time>2026-05-04T11:14:44.001Z</time></trkpt><trkpt lat="37.769179679282566" lon="14.551531879441912"><ele>886.0</ele><time>2026-05-04T11:14:45.001Z</time></trkpt><trkpt lat="37.76933721902124" lon="14.551642860372432"><ele>886.0</ele><time>2026-05-04T11:14:46.001Z</time></trkpt><trkpt lat="37.76949336782693" lon="14.551751026737904"><ele>886.0</ele><time>2026-05-04T11:14:47.002Z</time></trkpt><trkpt lat="37.7696414540386" lon="14.551837298430769"><ele>889.3333333333333</ele><time>2026-05-04T11:14:48.001Z</time></trkpt><trkpt lat="37.76979155985646" lon="14.55187870677595"><ele>892.6666666666667</ele><time>2026-05-04T11:14:49.001Z</time></trkpt><trkpt lat="37.7699558390501" lon="14.55187223530057"><ele>896.0</ele><time>2026-05-04T11:14:50.001Z</time></trkpt><trkpt lat="37.77011917765393" lon="14.551850591705874"><ele>899.75</ele><time>2026-05-04T11:14:51.001Z</time></trkpt><trkpt lat="37.770266322798975" lon="14.551841774158394"><ele>903.5</ele><time>2026-05-04T11:14:52.001Z</time></trkpt><trkpt lat="37.770389607355526" lon="14.55180456094144"><ele>907.25</ele><time>2026-05-04T11:14:53.001Z</time></trkpt><trkpt lat="37.770509200768316" lon="14.551710526073284"><ele>911.0</ele><time>2026-05-04T11:14:54.001Z</time></trkpt><trkpt lat="37.77062279641201" lon="14.551535969121366"><ele>911.0</ele><time>2026-05-04T11:14:55.001Z</time></trkpt><trkpt lat="37.770743325398854" lon="14.551345711513909"><ele>911.0</ele><time>2026-05-04T11:14:56.001Z</time></trkpt><trkpt lat="37.77086269970893" lon="14.551218358669363"><ele>911.0</ele><time>2026-05-04T11:14:57.001Z</time></trkpt><trkpt lat="37.77097064194556" lon="14.5510760745802"><ele>912.75</ele><time>2026-05-04T11:14:58.001Z</time></trkpt><trkpt lat="37.77107175735085" lon="14.550937272694318"><ele>914.5</ele><time>2026-05-04T11:14:59.001Z</time></trkpt><trkpt lat="37.77117348047965" lon="14.550818398122578"><ele>916.25</ele><time>2026-05-04T11:15:00.001Z</time></trkpt><trkpt lat="37.77126120971949" lon="14.550757561285339"><ele>918.0</ele><time>2026-05-04T11:15:01.001Z</time></trkpt><trkpt lat="37.771360702294395" lon="14.550736278745932"><ele>918.0</ele><time>2026-05-04T11:15:02.001Z</time></trkpt><trkpt lat="37.77148102684604" lon="14.550800271452461"><ele>918.0</ele><time>2026-05-04T11:15:03.001Z</time></trkpt><trkpt lat="37.77154710206047" lon="14.550930893569703"><ele>918.0</ele><time>2026-05-04T11:15:04.001Z</time></trkpt><trkpt lat="37.771561865949515" lon="14.551092153931696"><ele>918.0</ele><time>2026-05-04T11:15:05.001Z</time></trkpt><trkpt lat="37.77152703584391" lon="14.55126163932252"><ele>921.6666666666667</ele><time>2026-05-04T11:15:06.001Z</time></trkpt><trkpt lat="37.771452619312015" lon="14.551442920899925"><ele>925.3333333333334</ele><time>2026-05-04T11:15:07.001Z</time></trkpt><trkpt lat="37.77134483169422" lon="14.55164463791425"><ele>929.0</ele><time>2026-05-04T11:15:08.001Z</time></trkpt><trkpt lat="37.77123744652975" lon="14.551850801960343"><ele>926.3333333333334</ele><time>2026-05-04T11:15:09.001Z</time></trkpt><trkpt lat="37.7711094590087" lon="14.552053310707059"><ele>923.6666666666667</ele><time>2026-05-04T11:15:10.001Z</time></trkpt><trkpt lat="37.77098449197033" lon="14.552225758325953"><ele>921.0</ele><time>2026-05-04T11:15:11.001Z</time></trkpt><trkpt lat="37.770893636566626" lon="14.55238113066802"><ele>921.0</ele><time>2026-05-04T11:15:12.001Z</time></trkpt><trkpt lat="37.77080052457778" lon="14.552503942726355"><ele>921.0</ele><time>2026-05-04T11:15:13.001Z</time></trkpt><trkpt lat="37.77074406099102" lon="14.552625272205885"><ele>921.0</ele><time>2026-05-04T11:15:14.001Z</time></trkpt><trkpt lat="37.77070531050456" lon="14.552745511057722"><ele>921.0</ele><time>2026-05-04T11:15:15.001Z</time></trkpt><trkpt lat="37.770706112867536" lon="14.552915980145865"><ele>921.0</ele><time>2026-05-04T11:15:16.001Z</time></trkpt><trkpt lat="37.77078906374063" lon="14.553022119592868"><ele>921.0</ele><time>2026-05-04T11:15:17.001Z</time></trkpt><trkpt lat="37.77088542401976" lon="14.553114708832858"><ele>921.0</ele><time>2026-05-04T11:15:18.001Z</time></trkpt><trkpt lat="37.77099074977657" lon="14.553134627560619"><ele>921.0</ele><time>2026-05-04T11:15:19.001Z</time></trkpt><trkpt lat="37.771121397492855" lon="14.553010314457225"><ele>926.3333333333333</ele><time>2026-05-04T11:15:20.001Z</time></trkpt><trkpt lat="37.77126594086736" lon="14.55288824427873"><ele>931.6666666666666</ele><time>2026-05-04T11:15:21.001Z</time></trkpt><trkpt lat="37.77135662556812" lon="14.552738490075997"><ele>937.0</ele><time>2026-05-04T11:15:22.001Z</time></trkpt><trkpt lat="37.771526934616766" lon="14.55253826344965"><ele>938.0</ele><time>2026-05-04T11:15:23.001Z</time></trkpt><trkpt lat="37.77168651736551" lon="14.55237896782011"><ele>939.0</ele><time>2026-05-04T11:15:24.001Z</time></trkpt><trkpt lat="37.7718409541926" lon="14.552253463090507"><ele>940.0</ele><time>2026-05-04T11:15:25.001Z</time></trkpt><trkpt lat="37.771994490578834" lon="14.552157513078745"><ele>942.0</ele><time>2026-05-04T11:15:26.001Z</time></trkpt><trkpt lat="37.772130509794195" lon="14.55205566350555"><ele>944.0</ele><time>2026-05-04T11:15:27.001Z</time></trkpt><trkpt lat="37.772264087427565" lon="14.551976828480148"><ele>946.0</ele><time>2026-05-04T11:15:28.001Z</time></trkpt><trkpt lat="37.772406043550205" lon="14.551893543219993"><ele>946.0</ele><time>2026-05-04T11:15:29.001Z</time></trkpt><trkpt lat="37.77254358296032" lon="14.551811588759088"><ele>946.0</ele><time>2026-05-04T11:15:30.001Z</time></trkpt><trkpt lat="37.7726600874273" lon="14.551710383108455"><ele>946.0</ele><time>2026-05-04T11:15:31.001Z</time></trkpt><trkpt lat="37.77276931259925" lon="14.55157088070249"><ele>946.0</ele><time>2026-05-04T11:15:32.001Z</time></trkpt><trkpt lat="37.77285867049881" lon="14.55140056937997"><ele>948.5</ele><time>2026-05-04T11:15:33.001Z</time></trkpt><trkpt lat="37.7729339141937" lon="14.551223817342409"><ele>951.0</ele><time>2026-05-04T11:15:34.001Z</time></trkpt><trkpt lat="37.77301880210247" lon="14.55107499736028"><ele>953.5</ele><time>2026-05-04T11:15:35.001Z</time></trkpt><trkpt lat="37.773139539615784" lon="14.551044190107875"><ele>956.0</ele><time>2026-05-04T11:15:36.001Z</time></trkpt><trkpt lat="37.77328066545523" lon="14.551035204899522"><ele>956.0</ele><time>2026-05-04T11:15:37.001Z</time></trkpt><trkpt lat="37.77342852064837" lon="14.55103313156218"><ele>956.0</ele><time>2026-05-04T11:15:38.001Z</time></trkpt><trkpt lat="37.7735944583546" lon="14.551066448230882"><ele>956.0</ele><time>2026-05-04T11:15:39.001Z</time></trkpt><trkpt lat="37.773777130986886" lon="14.551088161505017"><ele>955.25</ele><time>2026-05-04T11:15:40.001Z</time></trkpt><trkpt lat="37.77390555573551" lon="14.551119010904527"><ele>954.5</ele><time>2026-05-04T11:15:41.001Z</time></trkpt><trkpt lat="37.774030032157604" lon="14.551181745363161"><ele>953.75</ele><time>2026-05-04T11:15:42.001Z</time></trkpt><trkpt lat="37.774101607928976" lon="14.551315239480848"><ele>953.0</ele><time>2026-05-04T11:15:43.001Z</time></trkpt><trkpt lat="37.774137782915155" lon="14.551480084769924"><ele>957.0</ele><time>2026-05-04T11:15:44.001Z</time></trkpt><trkpt lat="37.77413641133084" lon="14.551657154827986"><ele>961.0</ele><time>2026-05-04T11:15:45.001Z</time></trkpt><trkpt lat="37.77412211293508" lon="14.5518651014563"><ele>965.0</ele><time>2026-05-04T11:15:46.001Z</time></trkpt><trkpt lat="37.774108816673035" lon="14.552088665011594"><ele>968.3333333333334</ele><time>2026-05-04T11:15:47.001Z</time></trkpt><trkpt lat="37.7740943796022" lon="14.55233141024272"><ele>971.6666666666667</ele><time>2026-05-04T11:15:48.001Z</time></trkpt><trkpt lat="37.77407925321955" lon="14.552589437241794"><ele>975.0</ele><time>2026-05-04T11:15:49.001Z</time></trkpt><trkpt lat="37.7740696525401" lon="14.552790852009826"><ele>976.4</ele><time>2026-05-04T11:15:50.001Z</time></trkpt><trkpt lat="37.77406257058745" lon="14.552943085421564"><ele>977.8</ele><time>2026-05-04T11:15:51.001Z</time></trkpt><trkpt lat="37.77407694858399" lon="14.553079655627874"><ele>979.2</ele><time>2026-05-04T11:15:52.001Z</time></trkpt><trkpt lat="37.77411776860098" lon="14.553196547234412"><ele>980.6</ele><time>2026-05-04T11:15:53.001Z</time></trkpt><trkpt lat="37.77418224576137" lon="14.553282246036828"><ele>982.0</ele><time>2026-05-04T11:15:54.001Z</time></trkpt><trkpt lat="37.77431479897831" lon="14.553340305381813"><ele>984.3333333333333</ele><time>2026-05-04T11:15:55.001Z</time></trkpt><trkpt lat="37.77444137367164" lon="14.553368643600441"><ele>986.6666666666667</ele><time>2026-05-04T11:15:56.001Z</time></trkpt><trkpt lat="37.774544780306805" lon="14.553357454713073"><ele>989.0</ele><time>2026-05-04T11:15:57.001Z</time></trkpt><trkpt lat="37.77489131844784" lon="14.55325478148979"><ele>989.0</ele><time>2026-05-04T11:15:58.001Z</time></trkpt><trkpt lat="37.77508660167596" lon="14.553294741826575"><ele>989.0</ele><time>2026-05-04T11:15:59.001Z</time></trkpt><trkpt lat="37.77529249503497" lon="14.553391022382906"><ele>989.0</ele><time>2026-05-04T11:16:00.001Z</time></trkpt><trkpt lat="37.77549208773454" lon="14.553518895403318"><ele>988.6666666666667</ele><time>2026-05-04T11:16:01.001Z</time></trkpt><trkpt lat="37.775666303534905" lon="14.553613696738717"><ele>988.3333333333333</ele><time>2026-05-04T11:16:02.001Z</time></trkpt><trkpt lat="37.77578174501758" lon="14.553733744255446"><ele>988.0</ele><time>2026-05-04T11:16:03.001Z</time></trkpt><trkpt lat="37.77585859835879" lon="14.553859175169775"><ele>992.6666666666666</ele><time>2026-05-04T11:16:04.001Z</time></trkpt><trkpt lat="37.775938295839296" lon="14.554049307769374"><ele>997.3333333333333</ele><time>2026-05-04T11:16:05.001Z</time></trkpt><trkpt lat="37.77600997947405" lon="14.554252852950828"><ele>1002.0</ele><time>2026-05-04T11:16:06.001Z</time></trkpt><trkpt lat="37.776087538378604" lon="14.554474782095062"><ele>1007.0</ele><time>2026-05-04T11:16:07.001Z</time></trkpt><trkpt lat="37.776171124459545" lon="14.5547218689086"><ele>1012.0</ele><time>2026-05-04T11:16:08.001Z</time></trkpt><trkpt lat="37.77626361710407" lon="14.554954924875437"><ele>1017.0</ele><time>2026-05-04T11:16:09.001Z</time></trkpt><trkpt lat="37.77635909500004" lon="14.555202064911235"><ele>1017.6666666666667</ele><time>2026-05-04T11:16:10.001Z</time></trkpt><trkpt lat="37.77644295436643" lon="14.555430622890825"><ele>1018.3333333333334</ele><time>2026-05-04T11:16:11.001Z</time></trkpt><trkpt lat="37.776519680097486" lon="14.555618248145812"><ele>1019.0</ele><time>2026-05-04T11:16:12.001Z</time></trkpt><trkpt lat="37.77661331613664" lon="14.555766952722406"><ele>1019.0</ele><time>2026-05-04T11:16:13.001Z</time></trkpt><trkpt lat="37.77671104113872" lon="14.555893244871994"><ele>1019.0</ele><time>2026-05-04T11:16:14.001Z</time></trkpt><trkpt lat="37.77681470597959" lon="14.556000860364657"><ele>1019.0</ele><time>2026-05-04T11:16:15.001Z</time></trkpt><trkpt lat="37.77693502662311" lon="14.556097867942709"><ele>1019.0</ele><time>2026-05-04T11:16:16.001Z</time></trkpt><trkpt lat="37.77705826473776" lon="14.556203667947573"><ele>1015.75</ele><time>2026-05-04T11:16:17.001Z</time></trkpt><trkpt lat="37.77717639374969" lon="14.556309337673339"><ele>1012.5</ele><time>2026-05-04T11:16:18.001Z</time></trkpt><trkpt lat="37.7772867701367" lon="14.556377774879953"><ele>1009.25</ele><time>2026-05-04T11:16:19.001Z</time></trkpt><trkpt lat="37.777409630594995" lon="14.556405622453202"><ele>1006.0</ele><time>2026-05-04T11:16:20.001Z</time></trkpt><trkpt lat="37.777579075182835" lon="14.556367481837414"><ele>1006.6666666666666</ele><time>2026-05-04T11:16:21.001Z</time></trkpt><trkpt lat="37.77774460827996" lon="14.556310578521545"><ele>1007.3333333333333</ele><time>2026-05-04T11:16:22.001Z</time></trkpt><trkpt lat="37.77791268272779" lon="14.556235634264883"><ele>1008.0</ele><time>2026-05-04T11:16:23.001Z</time></trkpt><trkpt lat="37.77807502611079" lon="14.55612905216782"><ele>1008.0</ele><time>2026-05-04T11:16:24.001Z</time></trkpt><trkpt lat="37.77821237069749" lon="14.556004328083615"><ele>1008.0</ele><time>2026-05-04T11:16:25.001Z</time></trkpt><trkpt lat="37.77833489061192" lon="14.555893332881377"><ele>1008.0</ele><time>2026-05-04T11:16:26.001Z</time></trkpt><trkpt lat="37.77847833902418" lon="14.555821895197935"><ele>1008.6666666666667</ele><time>2026-05-04T11:16:27.001Z</time></trkpt><trkpt lat="37.7786396896981" lon="14.555819296541612"><ele>1009.3333333333334</ele><time>2026-05-04T11:16:28.001Z</time></trkpt><trkpt lat="37.77881876764486" lon="14.555841066664225"><ele>1010.0</ele><time>2026-05-04T11:16:29.001Z</time></trkpt><trkpt lat="37.77900057723385" lon="14.555881263500392"><ele>1010.0</ele><time>2026-05-04T11:16:30.001Z</time></trkpt><trkpt lat="37.77915873802353" lon="14.555932823341953"><ele>1010.0</ele><time>2026-05-04T11:16:31.001Z</time></trkpt><trkpt lat="37.77929469764673" lon="14.556007374860897"><ele>1010.0</ele><time>2026-05-04T11:16:32.001Z</time></trkpt><trkpt lat="37.779420639482595" lon="14.556127661447748"><ele>1010.3333333333334</ele><time>2026-05-04T11:16:33.001Z</time></trkpt><trkpt lat="37.779548064431914" lon="14.556288897215369"><ele>1010.6666666666667</ele><time>2026-05-04T11:16:34.001Z</time></trkpt><trkpt lat="37.779678969093595" lon="14.556462634202104"><ele>1011.0</ele><time>2026-05-04T11:16:35.001Z</time></trkpt><trkpt lat="37.77982266291174" lon="14.55662251249868"><ele>1011.0</ele><time>2026-05-04T11:16:36.001Z</time></trkpt><trkpt lat="37.77998431504454" lon="14.556727650334311"><ele>1011.0</ele><time>2026-05-04T11:16:37.001Z</time></trkpt><trkpt lat="37.780152838979035" lon="14.556790658606056"><ele>1011.0</ele><time>2026-05-04T11:16:38.001Z</time></trkpt><trkpt lat="37.78031385397274" lon="14.556845038523903"><ele>1011.75</ele><time>2026-05-04T11:16:39.001Z</time></trkpt><trkpt lat="37.780444798484524" lon="14.556937142687401"><ele>1012.5</ele><time>2026-05-04T11:16:40.001Z</time></trkpt><trkpt lat="37.780554786665775" lon="14.557067404952553"><ele>1013.25</ele><time>2026-05-04T11:16:41.001Z</time></trkpt><trkpt lat="37.78058659060393" lon="14.557246553961651"><ele>1014.0</ele><time>2026-05-04T11:16:42.001Z</time></trkpt><trkpt lat="37.78061690876016" lon="14.557428315701367"><ele>1014.0</ele><time>2026-05-04T11:16:43.001Z</time></trkpt><trkpt lat="37.780636778360744" lon="14.557619538389556"><ele>1014.0</ele><time>2026-05-04T11:16:44.001Z</time></trkpt><trkpt lat="37.78069565113583" lon="14.557801989286787"><ele>1014.0</ele><time>2026-05-04T11:16:45.001Z</time></trkpt><trkpt lat="37.7807951376158" lon="14.55797087684177"><ele>1014.3333333333333</ele><time>2026-05-04T11:16:46.001Z</time></trkpt><trkpt lat="37.78093308767983" lon="14.558131341975267"><ele>1014.6666666666666</ele><time>2026-05-04T11:16:47.001Z</time></trkpt><trkpt lat="37.78108230856596" lon="14.558291810875923"><ele>1015.0</ele><time>2026-05-04T11:16:48.001Z</time></trkpt><trkpt lat="37.781189835560475" lon="14.558496280972422"><ele>1011.0</ele><time>2026-05-04T11:16:49.001Z</time></trkpt><trkpt lat="37.78125716946986" lon="14.558702328068222"><ele>1007.0</ele><time>2026-05-04T11:16:50.001Z</time></trkpt><trkpt lat="37.7813130309474" lon="14.558875101316737"><ele>1003.0</ele><time>2026-05-04T11:16:51.001Z</time></trkpt><trkpt lat="37.78138197240806" lon="14.558992508238813"><ele>999.0</ele><time>2026-05-04T11:16:52.001Z</time></trkpt><trkpt lat="37.781500475093274" lon="14.559057469508323"><ele>999.0</ele><time>2026-05-04T11:16:53.001Z</time></trkpt><trkpt lat="37.78165895538456" lon="14.559073330160464"><ele>999.0</ele><time>2026-05-04T11:16:54.001Z</time></trkpt><trkpt lat="37.78184041739363" lon="14.55906395000916"><ele>999.0</ele><time>2026-05-04T11:16:55.001Z</time></trkpt><trkpt lat="37.78201656643756" lon="14.559047132348855"><ele>996.6666666666667</ele><time>2026-05-04T11:16:56.001Z</time></trkpt><trkpt lat="37.78218300245858" lon="14.55899830515968"><ele>994.3333333333334</ele><time>2026-05-04T11:16:57.001Z</time></trkpt><trkpt lat="37.78233461980729" lon="14.558912735742055"><ele>992.0</ele><time>2026-05-04T11:16:58.001Z</time></trkpt><trkpt lat="37.782479809056994" lon="14.558853734749658"><ele>992.0</ele><time>2026-05-04T11:16:59.001Z</time></trkpt><trkpt lat="37.7826306232425" lon="14.558817758552754"><ele>992.0</ele><time>2026-05-04T11:17:00.001Z</time></trkpt><trkpt lat="37.78277108051988" lon="14.558795259280538"><ele>992.0</ele><time>2026-05-04T11:17:01.001Z</time></trkpt><trkpt lat="37.78292851161458" lon="14.558806187333328"><ele>993.3333333333334</ele><time>2026-05-04T11:17:02.001Z</time></trkpt><trkpt lat="37.78307955222057" lon="14.558849692258013"><ele>994.6666666666667</ele><time>2026-05-04T11:17:03.001Z</time></trkpt><trkpt lat="37.78322070124505" lon="14.558950034712847"><ele>996.0</ele><time>2026-05-04T11:17:04.001Z</time></trkpt><trkpt lat="37.78332407113897" lon="14.55909946452071"><ele>996.0</ele><time>2026-05-04T11:17:05.001Z</time></trkpt><trkpt lat="37.78341941083266" lon="14.559292591776806"><ele>996.0</ele><time>2026-05-04T11:17:06.001Z</time></trkpt><trkpt lat="37.78353312182385" lon="14.559497618073083"><ele>996.0</ele><time>2026-05-04T11:17:07.001Z</time></trkpt><trkpt lat="37.78364254871237" lon="14.559699993842253"><ele>997.3333333333333</ele><time>2026-05-04T11:17:08.001Z</time></trkpt><trkpt lat="37.78374230220334" lon="14.559865162633072"><ele>998.6666666666666</ele><time>2026-05-04T11:17:09.001Z</time></trkpt><trkpt lat="37.78384587095229" lon="14.559990792177587"><ele>1000.0</ele><time>2026-05-04T11:17:10.001Z</time></trkpt><trkpt lat="37.78396297303038" lon="14.560101864210562"><ele>1000.0</ele><time>2026-05-04T11:17:11.001Z</time></trkpt><trkpt lat="37.784212365054785" lon="14.560109437542355"><ele>1000.0</ele><time>2026-05-04T11:17:13.001Z</time></trkpt><trkpt lat="37.784405001224684" lon="14.560117630499613"><ele>1000.0</ele><time>2026-05-04T11:17:14.001Z</time></trkpt><trkpt lat="37.78458782103086" lon="14.560157495305507"><ele>999.6666666666666</ele><time>2026-05-04T11:17:15.001Z</time></trkpt><trkpt lat="37.78474756445195" lon="14.560209658905768"><ele>999.3333333333333</ele><time>2026-05-04T11:17:16.001Z</time></trkpt><trkpt lat="37.78484999858683" lon="14.560328406750413"><ele>999.0</ele><time>2026-05-04T11:17:17.001Z</time></trkpt><trkpt lat="37.784913841497314" lon="14.560522901654652"><ele>999.0</ele><time>2026-05-04T11:17:18.001Z</time></trkpt><trkpt lat="37.784987830533034" lon="14.560697120875476"><ele>999.0</ele><time>2026-05-04T11:17:19.001Z</time></trkpt><trkpt lat="37.78506272361554" lon="14.56089188493492"><ele>999.0</ele><time>2026-05-04T11:17:20.001Z</time></trkpt><trkpt lat="37.785148291020874" lon="14.561099649142268"><ele>999.6666666666667</ele><time>2026-05-04T11:17:21.001Z</time></trkpt><trkpt lat="37.78524291680602" lon="14.561319547625164"><ele>1000.3333333333334</ele><time>2026-05-04T11:17:22.001Z</time></trkpt><trkpt lat="37.785317580374155" lon="14.561513144850164"><ele>1001.0</ele><time>2026-05-04T11:17:23.001Z</time></trkpt><trkpt lat="37.78538719813511" lon="14.561701905437253"><ele>1001.0</ele><time>2026-05-04T11:17:24.001Z</time></trkpt><trkpt lat="37.78545212440282" lon="14.561850273190686"><ele>1001.0</ele><time>2026-05-04T11:17:25.001Z</time></trkpt><trkpt lat="37.78555903034578" lon="14.561991165162615"><ele>1001.0</ele><time>2026-05-04T11:17:26.001Z</time></trkpt><trkpt lat="37.78564464392275" lon="14.562103085200812"><ele>1001.0</ele><time>2026-05-04T11:17:27.001Z</time></trkpt><trkpt lat="37.7857368265377" lon="14.562163534541988"><ele>1001.3333333333334</ele><time>2026-05-04T11:17:28.001Z</time></trkpt><trkpt lat="37.78590622076667" lon="14.562229267583938"><ele>1001.6666666666667</ele><time>2026-05-04T11:17:29.001Z</time></trkpt><trkpt lat="37.78607128123237" lon="14.562309689849174"><ele>1002.0</ele><time>2026-05-04T11:17:30.001Z</time></trkpt><trkpt lat="37.78621820956853" lon="14.562409217769734"><ele>1002.0</ele><time>2026-05-04T11:17:31.001Z</time></trkpt><trkpt lat="37.7863217395422" lon="14.562552479253112"><ele>1002.0</ele><time>2026-05-04T11:17:32.001Z</time></trkpt><trkpt lat="37.78637425699491" lon="14.562744562089971"><ele>1002.0</ele><time>2026-05-04T11:17:33.001Z</time></trkpt><trkpt lat="37.78641951153684" lon="14.562942876852008"><ele>1001.3333333333333</ele><time>2026-05-04T11:17:34.001Z</time></trkpt><trkpt lat="37.78646559326552" lon="14.56316011608118"><ele>1000.6666666666666</ele><time>2026-05-04T11:17:35.001Z</time></trkpt><trkpt lat="37.78652565700272" lon="14.563367776177484"><ele>1000.0</ele><time>2026-05-04T11:17:36.001Z</time></trkpt><trkpt lat="37.78657313168289" lon="14.563569575466648"><ele>1000.5</ele><time>2026-05-04T11:17:37.001Z</time></trkpt><trkpt lat="37.786627806763576" lon="14.563736727467582"><ele>1001.0</ele><time>2026-05-04T11:17:38.001Z</time></trkpt><trkpt lat="37.786696804957565" lon="14.563868344935347"><ele>1001.5</ele><time>2026-05-04T11:17:39.001Z</time></trkpt><trkpt lat="37.78677969906761" lon="14.563983752313893"><ele>1002.0</ele><time>2026-05-04T11:17:40.001Z</time></trkpt><trkpt lat="37.78689740391528" lon="14.564077672714562"><ele>1002.0</ele><time>2026-05-04T11:17:41.001Z</time></trkpt><trkpt lat="37.78701065691113" lon="14.564172325175301"><ele>1002.0</ele><time>2026-05-04T11:17:42.001Z</time></trkpt><trkpt lat="37.78712386624217" lon="14.564268018337984"><ele>1002.0</ele><time>2026-05-04T11:17:43.001Z</time></trkpt><trkpt lat="37.78724225867046" lon="14.564375525506225"><ele>1002.0</ele><time>2026-05-04T11:17:44.001Z</time></trkpt><trkpt lat="37.78736532187684" lon="14.564492853964568"><ele>1000.0</ele><time>2026-05-04T11:17:45.001Z</time></trkpt><trkpt lat="37.78748755179537" lon="14.564603443596923"><ele>998.0</ele><time>2026-05-04T11:17:46.001Z</time></trkpt><trkpt lat="37.787610810609465" lon="14.564716278575263"><ele>996.0</ele><time>2026-05-04T11:17:47.001Z</time></trkpt><trkpt lat="37.787730521119606" lon="14.564829502313001"><ele>996.0</ele><time>2026-05-04T11:17:48.001Z</time></trkpt><trkpt lat="37.787833198885224" lon="14.56496906662026"><ele>996.0</ele><time>2026-05-04T11:17:49.001Z</time></trkpt><trkpt lat="37.7878920541324" lon="14.565151309273185"><ele>996.0</ele><time>2026-05-04T11:17:50.001Z</time></trkpt><trkpt lat="37.78794112125041" lon="14.565345220066524"><ele>994.3333333333333</ele><time>2026-05-04T11:17:51.001Z</time></trkpt><trkpt lat="37.78799592520412" lon="14.565558096007614"><ele>992.6666666666666</ele><time>2026-05-04T11:17:52.001Z</time></trkpt><trkpt lat="37.78805269121486" lon="14.565772853837252"><ele>991.0</ele><time>2026-05-04T11:17:53.001Z</time></trkpt><trkpt lat="37.78811230224267" lon="14.566001761479145"><ele>990.6666666666666</ele><time>2026-05-04T11:17:54.001Z</time></trkpt><trkpt lat="37.78818371435011" lon="14.566220910204777"><ele>990.3333333333333</ele><time>2026-05-04T11:17:55.001Z</time></trkpt><trkpt lat="37.78823376704121" lon="14.566470151130925"><ele>990.0</ele><time>2026-05-04T11:17:56.001Z</time></trkpt><trkpt lat="37.78829461222087" lon="14.566690250824948"><ele>990.0</ele><time>2026-05-04T11:17:57.001Z</time></trkpt><trkpt lat="37.78832739031026" lon="14.566905358079863"><ele>990.0</ele><time>2026-05-04T11:17:58.001Z</time></trkpt><trkpt lat="37.78834496097378" lon="14.567121762783412"><ele>990.0</ele><time>2026-05-04T11:17:59.001Z</time></trkpt><trkpt lat="37.78834499376859" lon="14.56735035623116"><ele>991.0</ele><time>2026-05-04T11:18:00.001Z</time></trkpt><trkpt lat="37.7883410194968" lon="14.56758273853473"><ele>992.0</ele><time>2026-05-04T11:18:01.001Z</time></trkpt><trkpt lat="37.78833629108195" lon="14.567812009201829"><ele>993.0</ele><time>2026-05-04T11:18:02.001Z</time></trkpt><trkpt lat="37.788337178021166" lon="14.568019443806557"><ele>995.25</ele><time>2026-05-04T11:18:03.001Z</time></trkpt><trkpt lat="37.78836774389767" lon="14.568205019600624"><ele>997.5</ele><time>2026-05-04T11:18:04.001Z</time></trkpt><trkpt lat="37.788393608272045" lon="14.568375974782276"><ele>999.75</ele><time>2026-05-04T11:18:05.001Z</time></trkpt><trkpt lat="37.788461161766726" lon="14.568522827163775"><ele>1002.0</ele><time>2026-05-04T11:18:06.001Z</time></trkpt><trkpt lat="37.78855610414625" lon="14.568665650960563"><ele>996.6666666666667</ele><time>2026-05-04T11:18:07.001Z</time></trkpt><trkpt lat="37.78864806105425" lon="14.568828398524023"><ele>991.3333333333334</ele><time>2026-05-04T11:18:08.001Z</time></trkpt><trkpt lat="37.788717182746794" lon="14.569013442712427"><ele>986.0</ele><time>2026-05-04T11:18:09.001Z</time></trkpt><trkpt lat="37.78874830390799" lon="14.569237633186859"><ele>986.0</ele><time>2026-05-04T11:18:10.001Z</time></trkpt><trkpt lat="37.78877633296019" lon="14.569471064335124"><ele>986.0</ele><time>2026-05-04T11:18:11.001Z</time></trkpt><trkpt lat="37.788797631620966" lon="14.569698977236419"><ele>986.0</ele><time>2026-05-04T11:18:12.001Z</time></trkpt><trkpt lat="37.78882084783415" lon="14.569935482461782"><ele>986.0</ele><time>2026-05-04T11:18:13.001Z</time></trkpt><trkpt lat="37.78884675091173" lon="14.570181089878254"><ele>986.0</ele><time>2026-05-04T11:18:14.001Z</time></trkpt><trkpt lat="37.78887294501772" lon="14.570427391586513"><ele>986.0</ele><time>2026-05-04T11:18:15.001Z</time></trkpt><trkpt lat="37.788918542532556" lon="14.570676322601507"><ele>988.0</ele><time>2026-05-04T11:18:16.001Z</time></trkpt><trkpt lat="37.78896091706443" lon="14.57093851527517"><ele>990.0</ele><time>2026-05-04T11:18:17.001Z</time></trkpt><trkpt lat="37.78901472148921" lon="14.571214094323285"><ele>992.0</ele><time>2026-05-04T11:18:18.001Z</time></trkpt><trkpt lat="37.78908473149078" lon="14.571503006609255"><ele>995.3333333333334</ele><time>2026-05-04T11:18:19.001Z</time></trkpt><trkpt lat="37.78916474443864" lon="14.571766132465502"><ele>998.6666666666667</ele><time>2026-05-04T11:18:20.001Z</time></trkpt><trkpt lat="37.7892296592225" lon="14.572004523363782"><ele>1002.0</ele><time>2026-05-04T11:18:21.001Z</time></trkpt><trkpt lat="37.78928646948651" lon="14.572224074036475"><ele>1002.6666666666667</ele><time>2026-05-04T11:18:22.001Z</time></trkpt><trkpt lat="37.78932516951956" lon="14.572460130572047"><ele>1003.3333333333334</ele><time>2026-05-04T11:18:23.001Z</time></trkpt><trkpt lat="37.78937061122323" lon="14.572689226228809"><ele>1004.0</ele><time>2026-05-04T11:18:24.001Z</time></trkpt><trkpt lat="37.789415689060675" lon="14.572919283058445"><ele>1004.0</ele><time>2026-05-04T11:18:25.001Z</time></trkpt><trkpt lat="37.78945651880452" lon="14.57314767626475"><ele>1004.0</ele><time>2026-05-04T11:18:26.001Z</time></trkpt><trkpt lat="37.789496060601856" lon="14.573380721278227"><ele>1004.0</ele><time>2026-05-04T11:18:27.001Z</time></trkpt><trkpt lat="37.78953151850843" lon="14.573618266115878"><ele>1006.0</ele><time>2026-05-04T11:18:28.001Z</time></trkpt><trkpt lat="37.78956172933396" lon="14.573850980873274"><ele>1008.0</ele><time>2026-05-04T11:18:29.001Z</time></trkpt><trkpt lat="37.78957691223181" lon="14.574087975326144"><ele>1010.0</ele><time>2026-05-04T11:18:30.001Z</time></trkpt><trkpt lat="37.78958969529449" lon="14.57432695034542"><ele>1008.6666666666667</ele><time>2026-05-04T11:18:31.001Z</time></trkpt><trkpt lat="37.78960208052916" lon="14.574568520177483"><ele>1007.3333333333333</ele><time>2026-05-04T11:18:32.001Z</time></trkpt><trkpt lat="37.78962005264414" lon="14.574799357695062"><ele>1006.0</ele><time>2026-05-04T11:18:33.001Z</time></trkpt><trkpt lat="37.78963763500292" lon="14.575020945843026"><ele>1006.0</ele><time>2026-05-04T11:18:34.001Z</time></trkpt><trkpt lat="37.789657550063176" lon="14.5752470073025"><ele>1006.0</ele><time>2026-05-04T11:18:35.001Z</time></trkpt><trkpt lat="37.78969054549956" lon="14.575446388078717"><ele>1006.0</ele><time>2026-05-04T11:18:36.001Z</time></trkpt><trkpt lat="37.78972918816682" lon="14.57564614859914"><ele>1002.6666666666666</ele><time>2026-05-04T11:18:37.001Z</time></trkpt><trkpt lat="37.78980719230403" lon="14.575832798913048"><ele>999.3333333333333</ele><time>2026-05-04T11:18:38.001Z</time></trkpt><trkpt lat="37.789897253642245" lon="14.57600171442183"><ele>996.0</ele><time>2026-05-04T11:18:39.001Z</time></trkpt><trkpt lat="37.789967748622125" lon="14.576186645537646"><ele>993.3333333333333</ele><time>2026-05-04T11:18:40.001Z</time></trkpt><trkpt lat="37.79001547768993" lon="14.576381035589353"><ele>990.6666666666666</ele><time>2026-05-04T11:18:41.001Z</time></trkpt><trkpt lat="37.79003106026861" lon="14.576585854100491"><ele>988.0</ele><time>2026-05-04T11:18:42.001Z</time></trkpt><trkpt lat="37.790022721030375" lon="14.57681893871929"><ele>987.0</ele><time>2026-05-04T11:18:43.001Z</time></trkpt><trkpt lat="37.78998649891323" lon="14.577063026556305"><ele>986.0</ele><time>2026-05-04T11:18:44.001Z</time></trkpt><trkpt lat="37.78994494835813" lon="14.577278817403325"><ele>985.0</ele><time>2026-05-04T11:18:45.001Z</time></trkpt><trkpt lat="37.78993226294915" lon="14.577465585653202"><ele>985.0</ele><time>2026-05-04T11:18:46.001Z</time></trkpt><trkpt lat="37.78995560327634" lon="14.577659006112818"><ele>985.0</ele><time>2026-05-04T11:18:47.001Z</time></trkpt><trkpt lat="37.79001003784337" lon="14.577862482095107"><ele>985.0</ele><time>2026-05-04T11:18:48.001Z</time></trkpt><trkpt lat="37.79007832626993" lon="14.578051172584638"><ele>983.0</ele><time>2026-05-04T11:18:49.001Z</time></trkpt><trkpt lat="37.79014511929894" lon="14.578245584304321"><ele>981.0</ele><time>2026-05-04T11:18:50.001Z</time></trkpt><trkpt lat="37.79021684841594" lon="14.578455892550657"><ele>979.0</ele><time>2026-05-04T11:18:51.001Z</time></trkpt><trkpt lat="37.79027132941525" lon="14.578646355309441"><ele>983.6666666666666</ele><time>2026-05-04T11:18:52.001Z</time></trkpt><trkpt lat="37.79034227192294" lon="14.578821526342924"><ele>988.3333333333333</ele><time>2026-05-04T11:18:53.001Z</time></trkpt><trkpt lat="37.79039834342499" lon="14.579007507701073"><ele>993.0</ele><time>2026-05-04T11:18:54.001Z</time></trkpt><trkpt lat="37.79043237495901" lon="14.579194873163004"><ele>993.0</ele><time>2026-05-04T11:18:55.001Z</time></trkpt><trkpt lat="37.790425631722016" lon="14.57936634530778"><ele>993.0</ele><time>2026-05-04T11:18:56.001Z</time></trkpt><trkpt lat="37.79039071896816" lon="14.57952094200194"><ele>993.0</ele><time>2026-05-04T11:18:57.001Z</time></trkpt><trkpt lat="37.790332652820105" lon="14.579675724259546"><ele>993.0</ele><time>2026-05-04T11:18:58.001Z</time></trkpt><trkpt lat="37.79027410689151" lon="14.579856914957057"><ele>993.0</ele><time>2026-05-04T11:18:59.001Z</time></trkpt><trkpt lat="37.7901910346753" lon="14.580013204609834"><ele>993.0</ele><time>2026-05-04T11:19:00.001Z</time></trkpt><trkpt lat="37.79011355581945" lon="14.580196809752156"><ele>993.0</ele><time>2026-05-04T11:19:01.001Z</time></trkpt><trkpt lat="37.7900359974509" lon="14.580378794316779"><ele>993.0</ele><time>2026-05-04T11:19:02.001Z</time></trkpt><trkpt lat="37.7899698778347" lon="14.580572246996699"><ele>993.0</ele><time>2026-05-04T11:19:03.001Z</time></trkpt><trkpt lat="37.78987555125049" lon="14.58076659994041"><ele>993.0</ele><time>2026-05-04T11:19:04.001Z</time></trkpt><trkpt lat="37.78979536135739" lon="14.580958731984577"><ele>993.0</ele><time>2026-05-04T11:19:05.001Z</time></trkpt><trkpt lat="37.789725722845205" lon="14.581132935896008"><ele>993.0</ele><time>2026-05-04T11:19:06.001Z</time></trkpt><trkpt lat="37.78968791256233" lon="14.581306488320894"><ele>993.0</ele><time>2026-05-04T11:19:07.001Z</time></trkpt><trkpt lat="37.78965136137568" lon="14.581491814353189"><ele>993.0</ele><time>2026-05-04T11:19:08.001Z</time></trkpt><trkpt lat="37.789627260497454" lon="14.581690361091272"><ele>994.6666666666667</ele><time>2026-05-04T11:19:09.001Z</time></trkpt><trkpt lat="37.7895982902792" lon="14.581907316664482"><ele>996.3333333333334</ele><time>2026-05-04T11:19:10.001Z</time></trkpt><trkpt lat="37.78957523533816" lon="14.582124546649574"><ele>998.0</ele><time>2026-05-04T11:19:11.001Z</time></trkpt><trkpt lat="37.7895656899834" lon="14.582329948213676"><ele>998.0</ele><time>2026-05-04T11:19:12.001Z</time></trkpt><trkpt lat="37.78956090285869" lon="14.582515593451522"><ele>998.0</ele><time>2026-05-04T11:19:13.001Z</time></trkpt><trkpt lat="37.78958779620046" lon="14.582687922900803"><ele>998.0</ele><time>2026-05-04T11:19:14.001Z</time></trkpt><trkpt lat="37.789624015338866" lon="14.58285864268597"><ele>998.0</ele><time>2026-05-04T11:19:15.001Z</time></trkpt><trkpt lat="37.78967479979591" lon="14.583024578471694"><ele>998.0</ele><time>2026-05-04T11:19:16.001Z</time></trkpt><trkpt lat="37.789714506053585" lon="14.583195761052064"><ele>998.0</ele><time>2026-05-04T11:19:17.001Z</time></trkpt><trkpt lat="37.789719913455535" lon="14.583371837496724"><ele>998.0</ele><time>2026-05-04T11:19:18.001Z</time></trkpt><trkpt lat="37.78970042469742" lon="14.583562972905648"><ele>998.0</ele><time>2026-05-04T11:19:19.001Z</time></trkpt><trkpt lat="37.78967840636579" lon="14.58374409951021"><ele>997.25</ele><time>2026-05-04T11:19:20.001Z</time></trkpt><trkpt lat="37.78963878594517" lon="14.583923036222533"><ele>996.5</ele><time>2026-05-04T11:19:21.001Z</time></trkpt><trkpt lat="37.78960957089546" lon="14.58408857441817"><ele>995.75</ele><time>2026-05-04T11:19:22.001Z</time></trkpt><trkpt lat="37.789584600631265" lon="14.584230060886677"><ele>995.0</ele><time>2026-05-04T11:19:23.001Z</time></trkpt><trkpt lat="37.78959290869129" lon="14.584351222014863"><ele>995.0000000000001</ele><time>2026-05-04T11:19:24.001Z</time></trkpt><trkpt lat="37.78955466160005" lon="14.584423415714598"><ele>995.0</ele><time>2026-05-04T11:19:25.001Z</time></trkpt><trkpt lat="37.78947312836132" lon="14.584450645318725"><ele>995.0</ele><time>2026-05-04T11:19:27.001Z</time></trkpt><trkpt lat="37.78940746798249" lon="14.584543087679663"><ele>995.0</ele><time>2026-05-04T11:19:29.001Z</time></trkpt><trkpt lat="37.789383563333416" lon="14.584649113119822"><ele>995.0000000000001</ele><time>2026-05-04T11:19:30.001Z</time></trkpt><trkpt lat="37.78934908696342" lon="14.584769467226703"><ele>995.0</ele><time>2026-05-04T11:19:31.001Z</time></trkpt><trkpt lat="37.78927018113191" lon="14.584884812338977"><ele>995.3333333333334</ele><time>2026-05-04T11:19:32.001Z</time></trkpt><trkpt lat="37.78920709743237" lon="14.585051334293686"><ele>995.6666666666667</ele><time>2026-05-04T11:19:33.001Z</time></trkpt><trkpt lat="37.78910818742942" lon="14.585213980474204"><ele>996.0</ele><time>2026-05-04T11:19:34.001Z</time></trkpt><trkpt lat="37.78899529595797" lon="14.585400853355072"><ele>996.0</ele><time>2026-05-04T11:19:35.001Z</time></trkpt><trkpt lat="37.788870564806935" lon="14.585602174786041"><ele>996.0</ele><time>2026-05-04T11:19:36.001Z</time></trkpt><trkpt lat="37.7887430982689" lon="14.58582029641307"><ele>996.0</ele><time>2026-05-04T11:19:37.001Z</time></trkpt><trkpt lat="37.7886149894859" lon="14.58604089111187"><ele>999.0</ele><time>2026-05-04T11:19:38.001Z</time></trkpt><trkpt lat="37.78848027442005" lon="14.586257997784816"><ele>1002.0</ele><time>2026-05-04T11:19:39.001Z</time></trkpt><trkpt lat="37.78835483848013" lon="14.586465314279195"><ele>1005.0</ele><time>2026-05-04T11:19:40.001Z</time></trkpt><trkpt lat="37.78824221852134" lon="14.586650824067537"><ele>1005.0</ele><time>2026-05-04T11:19:41.001Z</time></trkpt><trkpt lat="37.78815100390218" lon="14.58681268428861"><ele>1005.0</ele><time>2026-05-04T11:19:42.001Z</time></trkpt><trkpt lat="37.78805834264666" lon="14.58697719340314"><ele>1005.0</ele><time>2026-05-04T11:19:43.001Z</time></trkpt><trkpt lat="37.78795528350755" lon="14.587148818720031"><ele>1005.6666666666667</ele><time>2026-05-04T11:19:44.001Z</time></trkpt><trkpt lat="37.787864551127" lon="14.58733280443108"><ele>1006.3333333333334</ele><time>2026-05-04T11:19:45.001Z</time></trkpt><trkpt lat="37.787750386366" lon="14.587522057922868"><ele>1007.0</ele><time>2026-05-04T11:19:46.001Z</time></trkpt><trkpt lat="37.787651953996296" lon="14.58773014813398"><ele>1009.0</ele><time>2026-05-04T11:19:47.001Z</time></trkpt><trkpt lat="37.78755085585698" lon="14.587912375929264"><ele>1011.0</ele><time>2026-05-04T11:19:48.001Z</time></trkpt><trkpt lat="37.78745105422563" lon="14.58806948908125"><ele>1013.0</ele><time>2026-05-04T11:19:49.001Z</time></trkpt><trkpt lat="37.787367909433335" lon="14.588221188758498"><ele>1013.0</ele><time>2026-05-04T11:19:50.001Z</time></trkpt><trkpt lat="37.7872802329855" lon="14.588354927517312"><ele>1013.0</ele><time>2026-05-04T11:19:51.001Z</time></trkpt><trkpt lat="37.78720961654375" lon="14.588479110260623"><ele>1013.0</ele><time>2026-05-04T11:19:52.001Z</time></trkpt><trkpt lat="37.78714740433899" lon="14.588592383384844"><ele>1013.0</ele><time>2026-05-04T11:19:53.001Z</time></trkpt><trkpt lat="37.78708944413495" lon="14.588680229386437"><ele>1013.1666666666667</ele><time>2026-05-04T11:19:54.001Z</time></trkpt><trkpt lat="37.787055030436015" lon="14.588766556967336"><ele>1013.3333333333334</ele><time>2026-05-04T11:19:55.001Z</time></trkpt><trkpt lat="37.78703587931898" lon="14.588858785763852"><ele>1013.5</ele><time>2026-05-04T11:19:56.001Z</time></trkpt><trkpt lat="37.787030909570085" lon="14.588956361992162"><ele>1013.6666666666667</ele><time>2026-05-04T11:19:57.001Z</time></trkpt><trkpt lat="37.78702240426138" lon="14.589058743012453"><ele>1013.8333333333334</ele><time>2026-05-04T11:19:58.001Z</time></trkpt><trkpt lat="37.787040523043956" lon="14.589200185088087"><ele>1014.0</ele><time>2026-05-04T11:19:59.001Z</time></trkpt><trkpt lat="37.78705403968928" lon="14.58933653355834"><ele>1014.0</ele><time>2026-05-04T11:20:00.001Z</time></trkpt><trkpt lat="37.787058285278725" lon="14.589483835453006"><ele>1014.0000000000001</ele><time>2026-05-04T11:20:01.001Z</time></trkpt><trkpt lat="37.7870584444687" lon="14.58963124045632"><ele>1014.0000000000001</ele><time>2026-05-04T11:20:02.001Z</time></trkpt><trkpt lat="37.78704922059888" lon="14.589767629430757"><ele>1014.0</ele><time>2026-05-04T11:20:03.001Z</time></trkpt><trkpt lat="37.78700744682956" lon="14.589893137367223"><ele>1014.0</ele><time>2026-05-04T11:20:04.001Z</time></trkpt><trkpt lat="37.7869404353626" lon="14.590022261142668"><ele>1014.0</ele><time>2026-05-04T11:20:05.001Z</time></trkpt><trkpt lat="37.78687573758917" lon="14.59015268484957"><ele>1014.0</ele><time>2026-05-04T11:20:06.001Z</time></trkpt><trkpt lat="37.786807988400064" lon="14.59028410032587"><ele>1014.0</ele><time>2026-05-04T11:20:07.001Z</time></trkpt><trkpt lat="37.78674281423915" lon="14.59040470980919"><ele>1014.0</ele><time>2026-05-04T11:20:08.001Z</time></trkpt><trkpt lat="37.786685376779864" lon="14.5905199578645"><ele>1014.0</ele><time>2026-05-04T11:20:09.001Z</time></trkpt><trkpt lat="37.786629091327086" lon="14.59060447454882"><ele>1014.0</ele><time>2026-05-04T11:20:10.001Z</time></trkpt><trkpt lat="37.786604763700254" lon="14.59068760192864"><ele>1014.0</ele><time>2026-05-04T11:20:11.001Z</time></trkpt><trkpt lat="37.786611625949426" lon="14.590772833910307"><ele>1014.0</ele><time>2026-05-04T11:20:12.001Z</time></trkpt><trkpt lat="37.78661053877335" lon="14.59087795428026"><ele>1014.0</ele><time>2026-05-04T11:20:13.001Z</time></trkpt><trkpt lat="37.786583867273876" lon="14.59099170576738"><ele>1014.0</ele><time>2026-05-04T11:20:14.001Z</time></trkpt><trkpt lat="37.78653014543245" lon="14.591094164180804"><ele>1014.3333333333334</ele><time>2026-05-04T11:20:15.001Z</time></trkpt><trkpt lat="37.786474193770935" lon="14.591191383881405"><ele>1014.6666666666667</ele><time>2026-05-04T11:20:16.001Z</time></trkpt><trkpt lat="37.78643505874112" lon="14.591280291242462"><ele>1015.0</ele><time>2026-05-04T11:20:17.001Z</time></trkpt><trkpt lat="37.78641874153802" lon="14.591362426053301"><ele>1015.3333333333334</ele><time>2026-05-04T11:20:18.001Z</time></trkpt><trkpt lat="37.78643691321643" lon="14.591445342941483"><ele>1015.6666666666667</ele><time>2026-05-04T11:20:19.001Z</time></trkpt><trkpt lat="37.78645294268197" lon="14.591555814162872"><ele>1016.0</ele><time>2026-05-04T11:20:21.001Z</time></trkpt><trkpt lat="37.78652390688418" lon="14.591564998044738"><ele>1016.0</ele><time>2026-05-04T11:21:21.001Z</time></trkpt><trkpt lat="37.78654246061766" lon="14.591647768367796"><ele>1015.9999999999999</ele><time>2026-05-04T11:21:24.001Z</time></trkpt><trkpt lat="37.786561991028925" lon="14.591775019433499"><ele>1015.9999999999999</ele><time>2026-05-04T11:21:26.001Z</time></trkpt><trkpt lat="37.78659262791517" lon="14.591906445827023"><ele>1016.0</ele><time>2026-05-04T11:21:28.001Z</time></trkpt><trkpt lat="37.786610790723266" lon="14.592074142011919"><ele>1016.0</ele><time>2026-05-04T11:21:30.001Z</time></trkpt><trkpt lat="37.78662153089219" lon="14.59217272818342"><ele>1017.1666666666667</ele><time>2026-05-04T11:21:31.001Z</time></trkpt><trkpt lat="37.78663334243326" lon="14.592266215833384"><ele>1018.3333333333334</ele><time>2026-05-04T11:21:32.001Z</time></trkpt><trkpt lat="37.78664216671509" lon="14.59234941031494"><ele>1019.5</ele><time>2026-05-04T11:21:33.001Z</time></trkpt><trkpt lat="37.786628936579824" lon="14.592446555744282"><ele>1020.6666666666667</ele><time>2026-05-04T11:21:35.001Z</time></trkpt><trkpt lat="37.786545369843715" lon="14.59243677460199"><ele>1021.8333333333334</ele><time>2026-05-04T11:21:37.001Z</time></trkpt><trkpt lat="37.78645718492122" lon="14.592421364035225"><ele>1023.0</ele><time>2026-05-04T11:21:38.001Z</time></trkpt><trkpt lat="37.78637377743256" lon="14.592404020541936"><ele>1023.0</ele><time>2026-05-04T11:21:39.001Z</time></trkpt><trkpt lat="37.78627822508814" lon="14.592384344765522"><ele>1023.0</ele><time>2026-05-04T11:21:40.001Z</time></trkpt><trkpt lat="37.78620653360846" lon="14.59237057992899"><ele>1023.0</ele><time>2026-05-04T11:21:41.001Z</time></trkpt><trkpt lat="37.78608226491214" lon="14.592376667583189"><ele>1023.0</ele><time>2026-05-04T11:21:43.001Z</time></trkpt><trkpt lat="37.786027556227324" lon="14.592431851266904"><ele>1023.0</ele><time>2026-05-04T11:21:44.001Z</time></trkpt><trkpt lat="37.785954077962316" lon="14.59251869097358"><ele>1023.4</ele><time>2026-05-04T11:21:46.001Z</time></trkpt><trkpt lat="37.785953495224724" lon="14.592608824401331"><ele>1023.8</ele><time>2026-05-04T11:21:47.001Z</time></trkpt><trkpt lat="37.78587991455201" lon="14.59260944095987"><ele>1024.2</ele><time>2026-05-04T11:21:48.001Z</time></trkpt><trkpt lat="37.78597882597837" lon="14.592787454382458"><ele>1024.6</ele><time>2026-05-04T11:21:49.001Z</time></trkpt><trkpt lat="37.785949915379064" lon="14.592907619424397"><ele>1025.0</ele><time>2026-05-04T11:21:51.001Z</time></trkpt><trkpt lat="37.78587891323664" lon="14.593042447213728"><ele>1028.0</ele><time>2026-05-04T11:21:53.001Z</time></trkpt><trkpt lat="37.78582914637008" lon="14.593154579650973"><ele>1031.0</ele><time>2026-05-04T11:21:54.001Z</time></trkpt><trkpt lat="37.78578275074973" lon="14.593282239066255"><ele>1034.0</ele><time>2026-05-04T11:21:55.001Z</time></trkpt><trkpt lat="37.785735055144926" lon="14.593429285217063"><ele>1037.0</ele><time>2026-05-04T11:21:56.001Z</time></trkpt><trkpt lat="37.78566774362043" lon="14.593547831406015"><ele>1037.0</ele><time>2026-05-04T11:21:57.001Z</time></trkpt><trkpt lat="37.78563132703644" lon="14.593633683675744"><ele>1037.0</ele><time>2026-05-04T11:21:58.001Z</time></trkpt><trkpt lat="37.785617599978195" lon="14.593712864799887"><ele>1037.0</ele><time>2026-05-04T11:22:00.001Z</time></trkpt><trkpt lat="37.7857495060967" lon="14.593798974500725"><ele>1037.0</ele><time>2026-05-04T11:22:03.001Z</time></trkpt><trkpt lat="37.785826718167186" lon="14.593876234945714"><ele>1037.0</ele><time>2026-05-04T11:22:05.001Z</time></trkpt><trkpt lat="37.78585723948821" lon="14.593996169799412"><ele>1038.6666666666667</ele><time>2026-05-04T11:22:07.001Z</time></trkpt><trkpt lat="37.78582612996868" lon="14.594091205641137"><ele>1040.3333333333335</ele><time>2026-05-04T11:22:20.001Z</time></trkpt><trkpt lat="37.7857556188903" lon="14.594081912862679"><ele>1042.0</ele><time>2026-05-04T11:22:21.001Z</time></trkpt><trkpt lat="37.78567711219947" lon="14.594105504522005"><ele>1043.6666666666667</ele><time>2026-05-04T11:22:23.001Z</time></trkpt><trkpt lat="37.78560246169641" lon="14.594102526211604"><ele>1045.3333333333333</ele><time>2026-05-04T11:22:27.001Z</time></trkpt><trkpt lat="37.785526638805734" lon="14.594145306538262"><ele>1047.0</ele><time>2026-05-04T11:22:29.001Z</time></trkpt><trkpt lat="37.78550697318644" lon="14.59424175154116"><ele>1047.0</ele><time>2026-05-04T11:22:31.001Z</time></trkpt><trkpt lat="37.78549321881956" lon="14.59436377234604"><ele>1047.0</ele><time>2026-05-04T11:22:33.001Z</time></trkpt><trkpt lat="37.78549296792558" lon="14.59450654126044"><ele>1047.0</ele><time>2026-05-04T11:22:35.001Z</time></trkpt><trkpt lat="37.785488042172155" lon="14.594595091198936"><ele>1047.0</ele><time>2026-05-04T11:22:36.001Z</time></trkpt><trkpt lat="37.78548207236511" lon="14.594705621038923"><ele>1047.0</ele><time>2026-05-04T11:22:38.001Z</time></trkpt><trkpt lat="37.78548564150682" lon="14.594789911674912"><ele>1047.0</ele><time>2026-05-04T11:22:43.001Z</time></trkpt><trkpt lat="37.785608366535406" lon="14.594827310803591"><ele>1048.8</ele><time>2026-05-04T11:22:45.001Z</time></trkpt><trkpt lat="37.78569074684124" lon="14.594823510503982"><ele>1050.6</ele><time>2026-05-04T11:22:47.001Z</time></trkpt><trkpt lat="37.78569733261944" lon="14.594918020744533"><ele>1052.3999999999999</ele><time>2026-05-04T11:22:54.001Z</time></trkpt><trkpt lat="37.785733806748816" lon="14.594984649657627"><ele>1054.2</ele><time>2026-05-04T11:22:55.001Z</time></trkpt><trkpt lat="37.78565354982097" lon="14.595040003447487"><ele>1056.0</ele><time>2026-05-04T11:22:58.001Z</time></trkpt><trkpt lat="37.78579074232314" lon="14.595120851858416"><ele>1056.0</ele><time>2026-05-04T11:23:01.001Z</time></trkpt><trkpt lat="37.785866844500866" lon="14.595155485297749"><ele>1056.0</ele><time>2026-05-04T11:23:03.001Z</time></trkpt><trkpt lat="37.78592720413736" lon="14.59523555720475"><ele>1056.0</ele><time>2026-05-04T11:23:05.001Z</time></trkpt><trkpt lat="37.78586852678313" lon="14.59534453193648"><ele>1056.0</ele><time>2026-05-04T11:23:07.001Z</time></trkpt><trkpt lat="37.78582641831032" lon="14.595450959800967"><ele>1056.0</ele><time>2026-05-04T11:23:09.001Z</time></trkpt><trkpt lat="37.78577252882819" lon="14.595575181673368"><ele>1057.3999999999999</ele><time>2026-05-04T11:23:11.001Z</time></trkpt><trkpt lat="37.78572671646154" lon="14.595703117774466"><ele>1058.8</ele><time>2026-05-04T11:23:13Z</time></trkpt><trkpt lat="37.78568408338423" lon="14.595761750320547"><ele>1060.1999999999998</ele><time>2026-05-04T11:23:14Z</time></trkpt><trkpt lat="37.785624647144296" lon="14.595881325799585"><ele>1061.6</ele><time>2026-05-04T11:23:16Z</time></trkpt><trkpt lat="37.78556881367666" lon="14.595993042879872"><ele>1063.0</ele><time>2026-05-04T11:23:18Z</time></trkpt><trkpt lat="37.785515991379945" lon="14.596098735199172"><ele>1063.0</ele><time>2026-05-04T11:23:20Z</time></trkpt><trkpt lat="37.78555472335384" lon="14.596021236215183"><ele>1063.0</ele><time>2026-05-04T11:24:25.001Z</time></trkpt><trkpt lat="37.78558951488887" lon="14.595951621792365"><ele>1063.0</ele><time>2026-05-04T11:24:27.001Z</time></trkpt><trkpt lat="37.78562423306549" lon="14.595882154254634"><ele>1063.0</ele><time>2026-05-04T11:24:29.001Z</time></trkpt><trkpt lat="37.78567953461627" lon="14.59577153713249"><ele>1063.0</ele><time>2026-05-04T11:24:31.001Z</time></trkpt><trkpt lat="37.78575213586703" lon="14.59562633385229"><ele>1063.0</ele><time>2026-05-04T11:24:33.001Z</time></trkpt><trkpt lat="37.7858397095677" lon="14.595496855591056"><ele>1063.0</ele><time>2026-05-04T11:24:34.001Z</time></trkpt><trkpt lat="37.785883812116296" lon="14.595405022348345"><ele>1063.0</ele><time>2026-05-04T11:24:35.001Z</time></trkpt><trkpt lat="37.78590833544203" lon="14.595315970043817"><ele>1063.0</ele><time>2026-05-04T11:24:36.001Z</time></trkpt><trkpt lat="37.78594727825105" lon="14.595178966399562"><ele>1063.0</ele><time>2026-05-04T11:24:38.001Z</time></trkpt><trkpt lat="37.78590658960646" lon="14.59507446900101"><ele>1063.0</ele><time>2026-05-04T11:24:40.001Z</time></trkpt><trkpt lat="37.78588315420059" lon="14.594984846760477"><ele>1063.0</ele><time>2026-05-04T11:24:42.001Z</time></trkpt><trkpt lat="37.78584377372926" lon="14.594906422575047"><ele>1061.8333333333333</ele><time>2026-05-04T11:24:44.001Z</time></trkpt><trkpt lat="37.78575762964502" lon="14.594913467960504"><ele>1060.6666666666665</ele><time>2026-05-04T11:24:46.001Z</time></trkpt><trkpt lat="37.785754667917864" lon="14.594993124274827"><ele>1059.5</ele><time>2026-05-04T11:24:47.001Z</time></trkpt><trkpt lat="37.78582668659005" lon="14.59499903207052"><ele>1058.3333333333333</ele><time>2026-05-04T11:24:51.001Z</time></trkpt><trkpt lat="37.78594964760823" lon="14.594909712828121"><ele>1057.1666666666667</ele><time>2026-05-04T11:24:55.001Z</time></trkpt><trkpt lat="37.7860121775389" lon="14.594944745414177"><ele>1056.0</ele><time>2026-05-04T11:24:56.001Z</time></trkpt><trkpt lat="37.78610929969179" lon="14.59500270360029"><ele>1053.1666666666667</ele><time>2026-05-04T11:24:58.001Z</time></trkpt><trkpt lat="37.786197429065304" lon="14.595096755322544"><ele>1050.3333333333333</ele><time>2026-05-04T11:25:00.001Z</time></trkpt><trkpt lat="37.786210417569045" lon="14.595231112528621"><ele>1047.5</ele><time>2026-05-04T11:25:02.001Z</time></trkpt><trkpt lat="37.7861707814518" lon="14.595313127875063"><ele>1044.6666666666665</ele><time>2026-05-04T11:25:03.001Z</time></trkpt><trkpt lat="37.78613240060434" lon="14.595378977802959"><ele>1041.8333333333333</ele><time>2026-05-04T11:25:04.001Z</time></trkpt><trkpt lat="37.786073910996144" lon="14.595438258647116"><ele>1039.0</ele><time>2026-05-04T11:25:06.001Z</time></trkpt><trkpt lat="37.78607107583476" lon="14.595578438348731"><ele>1039.0</ele><time>2026-05-04T11:25:08.001Z</time></trkpt><trkpt lat="37.7860355653143" lon="14.595645356318897"><ele>1039.0</ele><time>2026-05-04T11:25:09.001Z</time></trkpt><trkpt lat="37.78599648848421" lon="14.595724994851992"><ele>1039.0</ele><time>2026-05-04T11:25:10.001Z</time></trkpt><trkpt lat="37.78595010143041" lon="14.5958266349882"><ele>1039.0</ele><time>2026-05-04T11:25:11.001Z</time></trkpt><trkpt lat="37.7859164822042" lon="14.595933667325111"><ele>1039.0</ele><time>2026-05-04T11:25:12.001Z</time></trkpt><trkpt lat="37.78590054116093" lon="14.59606571893472"><ele>1039.0</ele><time>2026-05-04T11:25:13.001Z</time></trkpt><trkpt lat="37.78592501727458" lon="14.596217384166565"><ele>1039.2</ele><time>2026-05-04T11:25:14.001Z</time></trkpt><trkpt lat="37.785966041266946" lon="14.596376489331941"><ele>1039.4</ele><time>2026-05-04T11:25:15.001Z</time></trkpt><trkpt lat="37.78599546064945" lon="14.596504664037417"><ele>1039.6</ele><time>2026-05-04T11:25:16.001Z</time></trkpt><trkpt lat="37.78600913544145" lon="14.59662125583543"><ele>1039.8</ele><time>2026-05-04T11:25:17.001Z</time></trkpt><trkpt lat="37.78602469249551" lon="14.596724083203112"><ele>1040.0</ele><time>2026-05-04T11:25:18Z</time></trkpt><trkpt lat="37.78602931873219" lon="14.596843242655105"><ele>1040.0</ele><time>2026-05-04T11:25:19Z</time></trkpt><trkpt lat="37.78602067384947" lon="14.59696871733557"><ele>1040.0</ele><time>2026-05-04T11:25:20Z</time></trkpt><trkpt lat="37.78601578548942" lon="14.59709691942503"><ele>1040.0</ele><time>2026-05-04T11:25:21Z</time></trkpt><trkpt lat="37.78601091015829" lon="14.597250664918104"><ele>1040.0</ele><time>2026-05-04T11:25:22Z</time></trkpt><trkpt lat="37.78599879513903" lon="14.597425081378745"><ele>1045.5</ele><time>2026-05-04T11:25:23Z</time></trkpt><trkpt lat="37.78599716020013" lon="14.597592237997768"><ele>1051.0</ele><time>2026-05-04T11:25:24Z</time></trkpt><trkpt lat="37.7860072957627" lon="14.597759420226012"><ele>1056.5</ele><time>2026-05-04T11:25:25Z</time></trkpt><trkpt lat="37.786006149417375" lon="14.59790094879303"><ele>1062.0</ele><time>2026-05-04T11:25:26Z</time></trkpt><trkpt lat="37.78598087234199" lon="14.598024022747737"><ele>1062.0</ele><time>2026-05-04T11:25:27Z</time></trkpt><trkpt lat="37.78597206002069" lon="14.598137829089277"><ele>1062.0</ele><time>2026-05-04T11:25:29Z</time></trkpt><trkpt lat="37.7860562860346" lon="14.598081250717016"><ele>1062.0</ele><time>2026-05-04T11:25:35Z</time></trkpt><trkpt lat="37.786003034957794" lon="14.59816370238998"><ele>1062.0</ele><time>2026-05-04T11:25:38Z</time></trkpt><trkpt lat="37.78600303495094" lon="14.598268906146444"><ele>1062.0</ele><time>2026-05-04T11:25:42Z</time></trkpt><trkpt lat="37.786003034942" lon="14.598357122845536"><ele>1062.0</ele><time>2026-05-04T11:25:45.031Z</time></trkpt><trkpt lat="37.78618276873343" lon="14.598084944025267"><ele>1051.5</ele><time>2026-05-04T11:25:47.026Z</time></trkpt><trkpt lat="37.7865642436197" lon="14.598220097631641"><ele>1041.0</ele><time>2026-05-04T11:25:50.027Z</time></trkpt><trkpt lat="37.78665505518073" lon="14.598238428663173"><ele>1041.0</ele><time>2026-05-04T11:25:52.029Z</time></trkpt><trkpt lat="37.786745422062204" lon="14.598256950082412"><ele>1041.0</ele><time>2026-05-04T11:25:54.026Z</time></trkpt><trkpt lat="37.78683565871603" lon="14.59827576574403"><ele>1041.0</ele><time>2026-05-04T11:25:56.025Z</time></trkpt><trkpt lat="37.786391083041636" lon="14.599975848961481"><ele>1041.0</ele><time>2026-05-04T11:25:58.024Z</time></trkpt><trkpt lat="37.78667683949123" lon="14.598449725981798"><ele>1016.0</ele><time>2026-05-04T11:26:01.025Z</time></trkpt><trkpt lat="37.78656286072821" lon="14.591916829055961"><ele>1016.0</ele><time>2026-05-04T11:26:37.751Z</time></trkpt><trkpt lat="37.78657400480061" lon="14.591763341558474"><ele>1016.0</ele><time>2026-05-04T11:26:43.956Z</time></trkpt><trkpt lat="37.78665366761084" lon="14.591525525026555"><ele>1016.0</ele><time>2026-05-04T11:26:49.228Z</time></trkpt><trkpt lat="37.78656587649325" lon="14.591764695093778"><ele>1016.0</ele><time>2026-05-04T11:26:55.221Z</time></trkpt><trkpt lat="37.78666473200885" lon="14.59155767940676"><ele>1016.0</ele><time>2026-05-04T11:27:31.23Z</time></trkpt><trkpt lat="37.78659843410542" lon="14.591708500545353"><ele>1016.0</ele><time>2026-05-04T11:28:13.229Z</time></trkpt><trkpt lat="37.78647771920076" lon="14.591903308768766"><ele>1016.0</ele><time>2026-05-04T11:28:19.225Z</time></trkpt><trkpt lat="37.78666336136533" lon="14.591484048121544"><ele>1016.0</ele><time>2026-05-04T11:28:25.233Z</time></trkpt><trkpt lat="37.786733289048556" lon="14.59128781056774"><ele>1016.0</ele><time>2026-05-04T11:28:31.462Z</time></trkpt><trkpt lat="37.786778740482696" lon="14.591165882147976"><ele>1016.0</ele><time>2026-05-04T11:28:31.986Z</time></trkpt><trkpt lat="37.7866579260888" lon="14.591506106864903"><ele>1016.0</ele><time>2026-05-04T11:28:37.21Z</time></trkpt><trkpt lat="37.7867584167609" lon="14.591285706430284"><ele>1016.0</ele><time>2026-05-04T11:29:01.23Z</time></trkpt><trkpt lat="37.786671015795136" lon="14.591298813347729"><ele>1016.0</ele><time>2026-05-04T11:30:00.219Z</time></trkpt><trkpt lat="37.78656852127548" lon="14.59176304667383"><ele>1016.0</ele><time>2026-05-04T11:30:06.232Z</time></trkpt></trkseg><trkseg><trkpt lat="37.7871500704653" lon="14.80913052777447"><ele>568.5</ele><time>2026-05-04T13:19:40.994Z</time></trkpt></trkseg></trk></gpx>